
Distance (Route):
Temperature : 17.5°C
Humidity : 79.9%
Pressure : 1004hPa| Receiver | Frames | First received | Last received |
|---|---|---|---|
| DL1XH-west | 817 | 2026-09-01 06:51:19 | 2026-09-01 08:58:10 |
| BIOWL1-15 | 761 | 2026-09-01 06:48:21 | 2026-09-01 09:00:38 |
| DM0DOS-11 | 607 | 2026-09-01 06:46:15 | 2026-09-01 09:00:47 |
| DO2JMG | 433 | 2026-09-01 07:02:35 | 2026-09-01 08:50:10 |
| AA1-15 | 424 | 2026-09-01 07:08:43 | 2026-09-01 08:42:31 |
| DL1XH-15 | 421 | 2026-09-01 06:57:18 | 2026-09-01 08:53:58 |
| DL1XH1-15 | 414 | 2026-09-01 06:52:00 | 2026-09-01 08:57:29 |
| DN9WHV | 376 | 2026-09-01 06:52:01 | 2026-09-01 08:54:07 |
| DB0DAN | 322 | 2026-09-01 06:59:55 | 2026-09-01 08:58:55 |
| GOEST3-10 | 304 | 2026-09-01 06:50:52 | 2026-09-01 08:52:34 |
| HSKMA3-T | 275 | 2026-09-01 07:31:53 | 2026-09-01 08:29:30 |
| DF8AY | 270 | 2026-09-01 07:30:04 | 2026-09-01 08:42:00 |
| DD8BA-10 | 167 | 2026-09-01 06:47:47 | 2026-09-01 08:59:15 |
| DL1NUX | 151 | 2026-09-01 07:25:01 | 2026-09-01 08:23:04 |
| DJ2DS-15 | 109 | 2026-09-01 06:47:43 | 2026-09-01 08:58:42 |
| DF5WG-10 | 101 | 2026-09-01 06:55:03 | 2026-09-01 08:50:34 |
| DO2SHX-10 | 93 | 2026-09-01 07:25:50 | 2026-09-01 08:33:57 |
| DL3AQ-11 | 74 | 2026-09-01 06:58:02 | 2026-09-01 08:52:52 |
| DO9LL-15 | 73 | 2026-09-01 06:47:56 | 2026-09-01 08:51:29 |
| DL4BBY-15 | 40 | 2026-09-01 06:48:23 | 2026-09-01 08:59:20 |
| BIOWL9-15 | 38 | 2026-09-01 06:48:37 | 2026-09-01 09:00:02 |
| DL4XJ-10 | 38 | 2026-09-01 07:06:19 | 2026-09-01 08:54:11 |
| DD1CC8 | 36 | 2026-09-01 07:02:54 | 2026-09-01 08:42:16 |
| DJ2KF-10 | 34 | 2026-09-01 06:58:31 | 2026-09-01 08:42:06 |
| DC6BW-12 | 31 | 2026-09-01 06:47:50 | 2026-09-01 08:50:20 |
| HTAHTA | 29 | 2026-09-01 06:53:01 | 2026-09-01 08:48:56 |
| DL1LOL-11 | 28 | 2026-09-01 06:46:32 | 2026-09-01 08:54:58 |
| BIOWL7-15 | 27 | 2026-09-01 06:47:49 | 2026-09-01 08:56:26 |
| DD1CC3-15 | 27 | 2026-09-01 06:55:12 | 2026-09-01 08:39:56 |
| SONCRA | 24 | 2026-09-01 07:02:42 | 2026-09-01 08:47:46 |
| DB0UT-7 | 21 | 2026-09-01 06:58:04 | 2026-09-01 08:30:56 |
| SO1NDE-10 | 21 | 2026-09-01 07:27:29 | 2026-09-01 08:22:23 |
| DL1CLM-18 | 20 | 2026-09-01 06:47:44 | 2026-09-01 08:52:12 |
| DB0NH | 18 | 2026-09-01 07:13:44 | 2026-09-01 08:33:06 |
| D01LWL | 18 | 2026-09-01 07:23:19 | 2026-09-01 08:46:08 |
| DD1CC2-15 | 17 | 2026-09-01 06:55:53 | 2026-09-01 08:41:53 |
| DO2LYB-13 | 17 | 2026-09-01 07:12:11 | 2026-09-01 09:00:20 |
| BUE01 | 17 | 2026-09-01 07:21:11 | 2026-09-01 08:54:20 |
| DF4FW | 16 | 2026-09-01 06:52:53 | 2026-09-01 08:31:09 |
| DK9SH | 16 | 2026-09-01 06:57:25 | 2026-09-01 08:56:07 |
| DO3DL | 14 | 2026-09-01 07:33:08 | 2026-09-01 08:27:07 |
| EDDB2-12 | 13 | 2026-09-01 07:23:09 | 2026-09-01 08:14:22 |
| SONDE2-11 | 12 | 2026-09-01 07:25:40 | 2026-09-01 08:23:06 |
| SMARD9-10 | 12 | 2026-09-01 07:48:56 | 2026-09-01 08:50:26 |
| DL8OAI-8 | 11 | 2026-09-01 07:23:56 | 2026-09-01 08:45:43 |
| DL3OBA | 7 | 2026-09-01 07:42:56 | 2026-09-01 08:14:36 |
| SMARD9-15 | 7 | 2026-09-01 08:09:45 | 2026-09-01 08:44:26 |
| EDDB2-11 | 6 | 2026-09-01 07:56:12 | 2026-09-01 08:07:35 |
| DF8AY-15 | 5 | 2026-09-01 07:57:12 | 2026-09-01 08:32:38 |
| DD1CC1-15 | 4 | 2026-09-01 07:52:01 | 2026-09-01 08:11:43 |
| DL8DAS-14 | 3 | 2026-09-01 07:40:23 | 2026-09-01 07:51:45 |
| DK5PH-5 | 3 | 2026-09-01 07:54:30 | 2026-09-01 08:07:01 |
| DB0ND-19 | 3 | 2026-09-01 08:12:23 | 2026-09-01 08:33:05 |
| MET0W-2 | 2 | 2026-09-01 07:03:42 | 2026-09-01 07:19:45 |
| NBG1-10 | 2 | 2026-09-01 07:40:11 | 2026-09-01 07:42:27 |
| DO2KSM | 1 | 2026-09-01 07:31:22 | 2026-09-01 07:31:22 |
| DD1CC9-15 | 1 | 2026-09-01 07:33:57 | 2026-09-01 07:33:57 |
| DO1YAY-16 | 1 | 2026-09-01 08:05:00 | 2026-09-01 08:05:00 |
| AU51GT2 | 1 | 2026-09-01 08:17:25 | 2026-09-01 08:17:25 |
| Receiver | Date | Latitude | Longitude | Direction | Speed | Altitude | Climb | Temperature | Humidity | Pressure | Voltage | Killtimer | Uptime | BKT | XDATA |
|---|---|---|---|---|---|---|---|---|---|---|---|---|---|---|---|
| DM0DOS-11 | 2026-09-01 09:00:47 | 52.80924 | 8.89679 | 66° | 24km/h | 146m | -5.9m/s | 17.5°C | 79.9% | 1004hPa | 2.8V | 07:29:05 | 02:23:05 | 00:00:00 | |
| DM0DOS-11 | 2026-09-01 09:00:41 | 52.80919 | 8.89660 | 66° | 26km/h | 157m | -6m/s | 17.5°C | 80.6% | 1002.5hPa | 2.8V | 07:29:07 | 02:23:03 | 00:00:00 | |
| DM0DOS-11 | 2026-09-01 09:00:41 | 52.80914 | 8.89640 | 69° | 26km/h | 169m | -5.7m/s | 17.3°C | 80.2% | 1001.4hPa | 2.8V | 07:29:09 | 02:23:01 | 00:00:00 | |
| DM0DOS-11 | 2026-09-01 09:00:41 | 52.80909 | 8.89620 | 65° | 26km/h | 180m | -5.7m/s | 17.1°C | 82.5% | 1000hPa | 2.8V | 07:29:11 | 02:22:59 | 00:00:00 | |
| BIOWL1-15 | 2026-09-01 09:00:38 | 52.80907 | 8.89611 | 64° | 24km/h | 186m | -5.7m/s | 17.1°C | 86.5% | 999.4hPa | 2.8V | 07:30:13 | 02:22:58 | 00:00:00 | |
| BIOWL1-15 | 2026-09-01 09:00:37 | 52.80904 | 8.89602 | 66° | 24km/h | 192m | -6.3m/s | 17.1°C | 86% | 998.5hPa | 2.7V | 07:30:13 | 02:22:57 | 00:00:00 | |
| DM0DOS-11 | 2026-09-01 09:00:35 | 52.80904 | 8.89602 | 66° | 24km/h | 192m | -6.3m/s | 17.1°C | 81% | 998.5hPa | 2.7V | 07:29:13 | 02:22:57 | 00:00:00 | |
| BIOWL1-15 | 2026-09-01 09:00:35 | 52.80902 | 8.89593 | 65° | 24km/h | 198m | -5.8m/s | 17°C | 84.9% | 997.8hPa | 2.8V | 07:30:13 | 02:22:56 | 00:00:00 | |
| BIOWL1-15 | 2026-09-01 09:00:31 | 52.80894 | 8.89565 | 66° | 26km/h | 216m | -5.8m/s | 16.9°C | 85.2% | 995.9hPa | 2.8V | 07:30:13 | 02:22:53 | 00:00:00 | |
| BIOWL1-15 | 2026-09-01 09:00:31 | 52.80891 | 8.89555 | 66° | 26km/h | 222m | -5.8m/s | 16.8°C | 85.8% | 995hPa | 2.8V | 07:30:13 | 02:22:52 | 00:00:00 | |
| DM0DOS-11 | 2026-09-01 09:00:29 | 52.80889 | 8.89545 | 66° | 27km/h | 228m | -5.8m/s | 16.7°C | 82.8% | 994.4hPa | 2.8V | 07:29:19 | 02:22:51 | 00:00:00 | |
| DM0DOS-11 | 2026-09-01 09:00:29 | 52.80883 | 8.89524 | 68° | 27km/h | 239m | -5.7m/s | 16.6°C | 82.9% | 993hPa | 2.8V | 07:29:21 | 02:22:49 | 00:00:00 | |
| DM0DOS-11 | 2026-09-01 09:00:29 | 52.80878 | 8.89502 | 67° | 29km/h | 250m | -5.4m/s | 16.5°C | 83.4% | 991.9hPa | 2.8V | 07:29:23 | 02:22:47 | 00:00:00 | |
| BIOWL1-15 | 2026-09-01 09:00:27 | 52.80886 | 8.89535 | 67° | 27km/h | 233m | -5.6m/s | 16.6°C | 86.6% | 993.8hPa | 2.8V | 07:30:13 | 02:22:50 | 00:00:00 | |
| DM0DOS-11 | 2026-09-01 09:00:23 | 52.80872 | 8.89479 | 68° | 29km/h | 261m | -5.4m/s | 16.4°C | 83.5% | 990.5hPa | 2.8V | 07:29:25 | 02:22:45 | 00:00:00 | |
| DM0DOS-11 | 2026-09-01 09:00:23 | 52.80867 | 8.89457 | 68° | 27km/h | 272m | -5.7m/s | 16.3°C | 84% | 989.3hPa | 2.8V | 07:29:27 | 02:22:43 | 00:00:00 | |
| DM0DOS-11 | 2026-09-01 09:00:23 | 52.80862 | 8.89435 | 67° | 27km/h | 284m | -5.8m/s | 16.2°C | 84.5% | 987.9hPa | 2.8V | 07:29:29 | 02:22:41 | 00:00:00 | |
| DO2LYB-13 | 2026-09-01 09:00:20 | 52.80870 | 8.89468 | 68° | 29km/h | 267m | -5.8m/s | 16.4°C | 82.7% | 989.8hPa | 2.8V | 00:00:00 | 00:00:00 | 00:00:00 | |
| DM0DOS-11 | 2026-09-01 09:00:17 | 52.80856 | 8.89414 | 68° | 29km/h | 295m | -5.5m/s | 16.1°C | 84.8% | 986.5hPa | 2.8V | 07:29:31 | 02:22:39 | 00:00:00 | |
| DM0DOS-11 | 2026-09-01 09:00:17 | 52.80851 | 8.89391 | 68° | 29km/h | 307m | -5.8m/s | 16°C | 85% | 985.4hPa | 2.8V | 07:29:33 | 02:22:37 | 00:00:00 | |
| DM0DOS-11 | 2026-09-01 09:00:17 | 52.80845 | 8.89369 | 68° | 29km/h | 317m | -5.1m/s | 15.8°C | 86% | 984.1hPa | 2.8V | 07:29:35 | 02:22:35 | 00:00:00 | |
| BIOWL1-15 | 2026-09-01 09:00:16 | 52.80856 | 8.89414 | 69° | 29km/h | 295m | -5.5m/s | 16.1°C | 88.5% | 986.5hPa | 2.8V | 07:30:13 | 02:22:39 | 00:00:00 | |
| BIOWL1-15 | 2026-09-01 09:00:14 | 52.80851 | 8.89391 | 68° | 29km/h | 307m | -5.8m/s | 16°C | 89% | 985.4hPa | 2.8V | 07:30:13 | 02:22:37 | 00:00:00 | |
| DM0DOS-11 | 2026-09-01 09:00:11 | 52.80840 | 8.89347 | 68° | 27km/h | 328m | -5.2m/s | 15.7°C | 85.8% | 982.8hPa | 2.8V | 07:29:37 | 02:22:33 | 00:00:00 | |
| DM0DOS-11 | 2026-09-01 09:00:05 | 52.80820 | 8.89258 | 71° | 31km/h | 365m | -4.2m/s | 15.3°C | 88.6% | 978.6hPa | 2.8V | 07:29:45 | 02:22:25 | 00:00:00 | |
| BIOWL9-15 | 2026-09-01 09:00:02 | 52.80817 | 8.89246 | 70° | 31km/h | 370m | -4.2m/s | 15.3°C | 87.8% | 978.0hPa | 2.8V | 00:00:00 | 00:00:00 | 00:00:00 | |
| DM0DOS-11 | 2026-09-01 08:59:59 | 52.80803 | 8.89185 | 67° | 31km/h | 391m | -4.1m/s | 15.2°C | 89.1% | 975.5hPa | 2.8V | 07:29:51 | 02:22:19 | 00:00:00 | |
| DM0DOS-11 | 2026-09-01 08:59:59 | 52.80797 | 8.89161 | 66° | 31km/h | 400m | -4.7m/s | 15.1°C | 89.6% | 974.5hPa | 2.8V | 07:29:53 | 02:22:17 | 00:00:00 | |
| BIOWL1-15 | 2026-09-01 08:59:54 | 52.80794 | 8.89150 | 64° | 31km/h | 405m | -4.4m/s | 15°C | 91.7% | 973.8hPa | 2.7V | 07:30:13 | 02:22:16 | 00:00:00 | |
| BIOWL1-15 | 2026-09-01 08:59:54 | 52.80791 | 8.89138 | 66° | 31km/h | 409m | -4.6m/s | 15°C | 91.6% | 973.6hPa | 2.8V | 07:30:13 | 02:22:15 | 00:00:00 | |
| DM0DOS-11 | 2026-09-01 08:59:53 | 52.80791 | 8.89138 | 65° | 31km/h | 409m | -4.6m/s | 15°C | 89.8% | 973.6hPa | 2.8V | 07:29:55 | 02:22:15 | 00:00:00 | |
| DM0DOS-11 | 2026-09-01 08:59:53 | 52.80784 | 8.89115 | 66° | 29km/h | 418m | -4.5m/s | 14.9°C | 90.2% | 972.4hPa | 2.8V | 07:29:57 | 02:22:13 | 00:00:00 | |
| DM0DOS-11 | 2026-09-01 08:59:53 | 52.80779 | 8.89093 | 68° | 29km/h | 428m | -4.5m/s | 14.8°C | 90.3% | 971.5hPa | 2.8V | 07:29:59 | 02:22:11 | 00:00:00 | |
| BIOWL1-15 | 2026-09-01 08:59:50 | 52.80784 | 8.89115 | 66° | 29km/h | 418m | -4.5m/s | 14.9°C | 92.4% | 972.4hPa | 2.8V | 07:30:13 | 02:22:13 | 00:00:00 | |
| BIOWL1-15 | 2026-09-01 08:59:48 | 52.80779 | 8.89093 | 69° | 29km/h | 428m | -4.6m/s | 14.8°C | 92.9% | 971.6hPa | 2.8V | 07:30:13 | 02:22:11 | 00:00:00 | |
| BIOWL1-15 | 2026-09-01 08:59:47 | 52.80776 | 8.89081 | 71° | 29km/h | 433m | -4.5m/s | 14.8°C | 93.6% | 970.8hPa | 2.8V | 07:30:13 | 02:22:10 | 00:00:00 | |
| BIOWL1-15 | 2026-09-01 08:59:45 | 52.80771 | 8.89057 | 73° | 31km/h | 442m | -4.6m/s | 14.7°C | 96.3% | 969.7hPa | 2.8V | 07:30:13 | 02:22:08 | 00:00:00 | |
| BIOWL1-15 | 2026-09-01 08:59:44 | 52.80769 | 8.89044 | 74° | 33km/h | 446m | -4.6m/s | 14.6°C | 95.9% | 969.3hPa | 2.8V | 07:30:13 | 02:22:07 | 00:00:00 | |
| BIOWL1-15 | 2026-09-01 08:59:43 | 52.80767 | 8.89031 | 73° | 31km/h | 451m | -5.1m/s | 14.5°C | 97.4% | 968.8hPa | 2.7V | 07:30:13 | 02:22:06 | 00:00:00 | |
| BIOWL1-15 | 2026-09-01 08:59:42 | 52.80764 | 8.89018 | 72° | 31km/h | 456m | -4.9m/s | 14.5°C | 97.5% | 968.1hPa | 2.8V | 07:30:13 | 02:22:05 | 00:00:00 | |
| DM0DOS-11 | 2026-09-01 08:59:41 | 52.80750 | 8.88941 | 74° | 31km/h | 482m | -3.7m/s | 14.2°C | 94.2% | 965.1hPa | 2.8V | 07:30:11 | 02:21:59 | 00:00:00 | |
| BIOWL1-15 | 2026-09-01 08:59:41 | 52.80762 | 8.89006 | 71° | 31km/h | 461m | -4.9m/s | 14.4°C | 96.7% | 967.7hPa | 2.8V | 07:30:13 | 02:22:04 | 00:00:00 | |
| BIOWL1-15 | 2026-09-01 08:59:39 | 52.80757 | 8.88980 | 72° | 33km/h | 470m | -4.1m/s | 14.4°C | 95.6% | 966.5hPa | 2.8V | 07:30:13 | 02:22:02 | 00:00:00 | |
| BIOWL1-15 | 2026-09-01 08:59:37 | 52.80752 | 8.88954 | 74° | 33km/h | 479m | -4.4m/s | 14.3°C | 96.1% | 965.5hPa | 2.8V | 07:30:13 | 02:22:00 | 00:00:00 | |
| DM0DOS-11 | 2026-09-01 08:59:36 | 52.80742 | 8.88889 | 75° | 33km/h | 499m | -3.8m/s | 14.1°C | 95.5% | 963.1hPa | 2.8V | 07:30:15 | 02:21:55 | 00:00:00 | |
| BIOWL1-15 | 2026-09-01 08:59:35 | 52.80748 | 8.88928 | 76° | 31km/h | 486m | -4m/s | 14.2°C | 96.1% | 964.6hPa | 2.8V | 07:30:13 | 02:21:58 | 00:00:00 | |
| BIOWL1-15 | 2026-09-01 08:59:33 | 52.80744 | 8.88903 | 75° | 33km/h | 495m | -4.3m/s | 14.1°C | 96.4% | 963.7hPa | 2.8V | 07:31:04 | 02:21:56 | 00:00:00 | |
| BIOWL1-15 | 2026-09-01 08:59:31 | 52.80737 | 8.88863 | 74° | 35km/h | 507m | -4.1m/s | 14°C | 97% | 962.5hPa | 2.8V | 07:31:04 | 02:21:53 | 00:00:00 | |
| BIOWL1-15 | 2026-09-01 08:59:31 | 52.80735 | 8.88849 | 76° | 35km/h | 511m | -4.3m/s | 14°C | 96.9% | 961.8hPa | 2.8V | 07:31:04 | 02:21:52 | 00:00:00 | |
| DM0DOS-11 | 2026-09-01 08:59:31 | 52.80733 | 8.88835 | 76° | 35km/h | 515m | -3.9m/s | 13.9°C | 96.1% | 961.5hPa | 2.8V | 07:30:19 | 02:21:51 | 00:00:00 | |
| DM0DOS-11 | 2026-09-01 08:59:31 | 52.80729 | 8.88806 | 77° | 35km/h | 522m | -3.6m/s | 13.8°C | 96.7% | 960.5hPa | 2.8V | 07:30:21 | 02:21:49 | 00:00:00 | |
| BIOWL1-15 | 2026-09-01 08:59:29 | 52.80733 | 8.88835 | 76° | 35km/h | 515m | -3.9m/s | 13.9°C | 97.1% | 961.5hPa | 2.8V | 07:31:04 | 02:21:51 | 00:00:00 | |
| BIOWL1-15 | 2026-09-01 08:59:26 | 52.80729 | 8.88806 | 78° | 35km/h | 523m | -3.6m/s | 13.8°C | 97.4% | 960.5hPa | 2.8V | 07:31:04 | 02:21:49 | 00:00:00 | |
| DM0DOS-11 | 2026-09-01 08:59:25 | 52.80722 | 8.88747 | 80° | 35km/h | 539m | -4.9m/s | 13.8°C | 97% | 958.6hPa | 2.8V | 07:30:25 | 02:21:45 | 00:00:00 | |
| DM0DOS-11 | 2026-09-01 08:59:25 | 52.80719 | 8.88718 | 81° | 35km/h | 549m | -5.4m/s | 13.9°C | 87.9% | 957.5hPa | 2.8V | 07:30:27 | 02:21:43 | 00:00:00 | |
| BIOWL1-15 | 2026-09-01 08:59:24 | 52.80725 | 8.88776 | 78° | 37km/h | 531m | -4.2m/s | 13.8°C | 96.9% | 959.5hPa | 2.8V | 07:31:04 | 02:21:47 | 00:00:00 | |
| BIOWL1-15 | 2026-09-01 08:59:22 | 52.80722 | 8.88747 | 80° | 35km/h | 539m | -4.9m/s | 13.8°C | 98.5% | 958.6hPa | 2.8V | 07:31:04 | 02:21:45 | 00:00:00 | |
| BIOWL1-15 | 2026-09-01 08:59:20 | 52.80718 | 8.88704 | 83° | 35km/h | 555m | -5.3m/s | 13.9°C | 92.3% | 957hPa | 2.8V | 07:31:04 | 02:21:42 | 00:00:00 | |
| BIOWL1-15 | 2026-09-01 08:59:20 | 52.80717 | 8.88690 | 83° | 33km/h | 560m | -5.3m/s | 13.9°C | 91.6% | 956.2hPa | 2.8V | 07:31:04 | 02:21:41 | 00:00:00 | |
| DL4BBY-15 | 2026-09-01 08:59:20 | 52.80719 | 8.88718 | 82° | 35km/h | 549m | -5.4m/s | 15.3°C | 0% | 0hPa | 2.8V | 00:00:00 | 00:00:00 | 00:00:00 | |
| DM0DOS-11 | 2026-09-01 08:59:19 | 52.80713 | 8.88632 | 82° | 37km/h | 582m | -5.5m/s | 13.6°C | 89.5% | 953.8hPa | 2.8V | 07:30:33 | 02:21:37 | 00:00:00 | |
| BIOWL1-15 | 2026-09-01 08:59:16 | 52.80714 | 8.88647 | 83° | 37km/h | 577m | -5.5m/s | 13.7°C | 94.5% | 954.5hPa | 2.8V | 07:31:04 | 02:21:38 | 00:00:00 | |
| BIOWL1-15 | 2026-09-01 08:59:16 | 52.80713 | 8.88632 | 83° | 37km/h | 582m | -5.5m/s | 13.6°C | 95% | 953.8hPa | 2.8V | 07:31:04 | 02:21:37 | 00:00:00 | |
| DD8BA-10 | 2026-09-01 08:59:15 | 52.80714 | 8.88647 | 83° | 37km/h | 577m | -5.4m/s | 13.6°C | 89.2% | 954.5hPa | 2.8V | 00:00:00 | 00:00:00 | 00:00:00 | |
| DL4BBY-15 | 2026-09-01 08:59:15 | 52.80714 | 8.88647 | 83° | 37km/h | 576m | -5.4m/s | 15.0°C | 0% | 0hPa | 2.8V | 00:00:00 | 00:00:00 | 00:00:00 | |
| DM0DOS-11 | 2026-09-01 08:59:13 | 52.80710 | 8.88602 | 81° | 37km/h | 593m | -5.1m/s | 13.5°C | 90.9% | 952.6hPa | 2.8V | 07:30:35 | 02:21:35 | 00:00:00 | |
| DM0DOS-11 | 2026-09-01 08:59:13 | 52.80707 | 8.88571 | 80° | 37km/h | 602m | -4.7m/s | 13.3°C | 93.8% | 951.6hPa | 2.8V | 07:30:37 | 02:21:33 | 00:00:00 | |
| DM0DOS-11 | 2026-09-01 08:59:13 | 52.80704 | 8.88541 | 82° | 37km/h | 612m | -5.2m/s | 13.3°C | 93.1% | 950.3hPa | 2.7V | 07:30:39 | 02:21:31 | 00:00:00 | |
| BIOWL1-15 | 2026-09-01 08:59:13 | 52.80709 | 8.88586 | 81° | 37km/h | 598m | -4.7m/s | 13.3°C | 97.3% | 952hPa | 2.8V | 07:31:04 | 02:21:34 | 00:00:00 | |
| BIOWL1-15 | 2026-09-01 08:59:09 | 52.80704 | 8.88541 | 83° | 37km/h | 612m | -5.2m/s | 13.3°C | 96.1% | 950.3hPa | 2.7V | 07:31:04 | 02:21:31 | 00:00:00 | |
| BIOWL1-15 | 2026-09-01 08:59:09 | 52.80703 | 8.88526 | 83° | 35km/h | 617m | -5.1m/s | 13.4°C | 94.2% | 949.7hPa | 2.8V | 07:31:04 | 02:21:30 | 00:00:00 | |
| DL4BBY-15 | 2026-09-01 08:59:09 | 52.80706 | 8.88556 | 82° | 37km/h | 607m | -4.8m/s | 14.6°C | 0% | 0hPa | 2.7V | 00:00:00 | 00:00:00 | 00:00:00 | |
| DD8BA-10 | 2026-09-01 08:59:09 | 52.80706 | 8.88556 | 82° | 37km/h | 607m | -4.8m/s | 13.2°C | 94.1% | 950.8hPa | 2.7V | 00:00:00 | 00:00:00 | 00:00:00 | |
| DM0DOS-11 | 2026-09-01 08:59:07 | 52.80702 | 8.88512 | 83° | 35km/h | 622m | -4.9m/s | 13.4°C | 87.6% | 949.2hPa | 2.8V | 07:30:41 | 02:21:29 | 00:00:00 | |
| BIOWL1-15 | 2026-09-01 08:59:05 | 52.80701 | 8.88498 | 85° | 33km/h | 627m | -4.8m/s | 13.3°C | 90.2% | 948.6hPa | 2.8V | 07:31:04 | 02:21:28 | 00:00:00 | |
| BIOWL1-15 | 2026-09-01 08:59:03 | 52.80700 | 8.88470 | 86° | 35km/h | 636m | -4.8m/s | 13.1°C | 93.4% | 947.5hPa | 2.8V | 07:31:04 | 02:21:26 | 00:00:00 | |
| BIOWL1-15 | 2026-09-01 08:59:02 | 52.80699 | 8.88455 | 83° | 33km/h | 641m | -4.8m/s | 13.1°C | 93.4% | 947.1hPa | 2.8V | 07:31:04 | 02:21:25 | 00:00:00 | |
| DM0DOS-11 | 2026-09-01 08:59:01 | 52.80694 | 8.88401 | 79° | 33km/h | 659m | -4.3m/s | 13°C | 91.7% | 945hPa | 2.8V | 07:30:49 | 02:21:21 | 00:00:00 | |
| BIOWL1-15 | 2026-09-01 08:59:00 | 52.80697 | 8.88428 | 81° | 33km/h | 651m | -4.7m/s | 13°C | 93.4% | 945.9hPa | 2.8V | 07:31:04 | 02:21:23 | 00:00:00 | |
| BIOWL1-15 | 2026-09-01 08:58:59 | 52.80696 | 8.88414 | 79° | 33km/h | 655m | -4m/s | 13°C | 94.5% | 945.3hPa | 2.7V | 07:31:04 | 02:21:22 | 00:00:00 | |
| BIOWL1-15 | 2026-09-01 08:58:57 | 52.80692 | 8.88388 | 79° | 33km/h | 664m | -4.9m/s | 12.9°C | 95.1% | 944.4hPa | 2.8V | 07:31:04 | 02:21:20 | 00:00:00 | |
| BIOWL1-15 | 2026-09-01 08:58:55 | 52.80689 | 8.88361 | 80° | 33km/h | 674m | -5.9m/s | 12.8°C | 96.8% | 943.3hPa | 2.8V | 07:31:04 | 02:21:18 | 00:00:00 | |
| DB0DAN | 2026-09-01 08:58:55 | 52.80689 | 8.88361 | 80° | 31km/h | 674m | -5.9m/s | 12.8°C | 90% | 943.29hPa | 2.8V | 00:00:00 | 00:00:00 | 00:00:00 | |
| BIOWL1-15 | 2026-09-01 08:58:53 | 52.80687 | 8.88335 | 82° | 31km/h | 686m | -5.9m/s | 12.7°C | 98.9% | 942hPa | 2.8V | 07:31:04 | 02:21:16 | 00:00:00 | |
| BIOWL1-15 | 2026-09-01 08:58:51 | 52.80684 | 8.88308 | 83° | 31km/h | 698m | -6.1m/s | 12.6°C | 99.3% | 940.6hPa | 2.7V | 07:31:04 | 02:21:14 | 00:00:00 | |
| BIOWL1-15 | 2026-09-01 08:58:49 | 52.80682 | 8.88282 | 81° | 31km/h | 710m | -5.7m/s | 12.5°C | 100% | 939.4hPa | 2.8V | 07:31:04 | 02:21:12 | 00:00:00 | |
| DM0DOS-11 | 2026-09-01 08:58:49 | 52.80678 | 8.88243 | 80° | 33km/h | 725m | -4.7m/s | 12.5°C | 92.5% | 937.7hPa | 2.8V | 07:31:01 | 02:21:09 | 00:00:00 | |
| DM0DOS-11 | 2026-09-01 08:58:49 | 52.80674 | 8.88215 | 76° | 35km/h | 734m | -4.4m/s | 12.4°C | 92% | 936.6hPa | 2.8V | 07:31:03 | 02:21:07 | 00:00:00 | |
| BIOWL1-15 | 2026-09-01 08:58:48 | 52.80681 | 8.88269 | 80° | 31km/h | 715m | -5.3m/s | 12.5°C | 97.1% | 938.8hPa | 2.8V | 07:31:04 | 02:21:11 | 00:00:00 | |
| BIOWL1-15 | 2026-09-01 08:58:46 | 52.80678 | 8.88243 | 80° | 33km/h | 725m | -4.7m/s | 12.5°C | 96.6% | 937.7hPa | 2.8V | 07:31:04 | 02:21:09 | 00:00:00 | |
| BIOWL1-15 | 2026-09-01 08:58:44 | 52.80674 | 8.88215 | 76° | 35km/h | 734m | -4.4m/s | 12.4°C | 94.6% | 936.6hPa | 2.8V | 07:31:04 | 02:21:07 | 00:00:00 | |
| DM0DOS-11 | 2026-09-01 08:58:43 | 52.80661 | 8.88134 | 75° | 33km/h | 760m | -4.8m/s | 12.1°C | 92.3% | 933.7hPa | 2.8V | 07:31:09 | 02:21:01 | 00:00:00 | |
| BIOWL1-15 | 2026-09-01 08:58:42 | 52.80668 | 8.88174 | 74° | 33km/h | 747m | -4.4m/s | 12.3°C | 92.9% | 935.2hPa | 2.8V | 07:31:55 | 02:21:04 | 00:00:00 | |
| BIOWL1-15 | 2026-09-01 08:58:42 | 52.80666 | 8.88161 | 74° | 33km/h | 751m | -4.5m/s | 12.3°C | 92.3% | 934.7hPa | 2.8V | 07:31:55 | 02:21:03 | 00:00:00 | |
| DJ2DS-15 | 2026-09-01 08:58:42 | 52.80670 | 8.88188 | 75° | 33km/h | 742m | -4.3m/s | 12.3°C | 91.5% | 935.5hPa | 2.7V | 00:00:00 | 02:21:05 | 00:00:00 | |
| DD8BA-10 | 2026-09-01 08:58:42 | 52.80670 | 8.88188 | 75° | 33km/h | 742m | -4.3m/s | 12.3°C | 91.5% | 935.5hPa | 2.7V | 00:00:00 | 00:00:00 | 00:00:00 | |
| DB0DAN | 2026-09-01 08:58:40 | 52.80666 | 8.88161 | 74° | 31km/h | 751m | -4.5m/s | 12.3°C | 90.4% | 934.67hPa | 2.8V | 00:00:00 | 00:00:00 | 00:00:00 | |
| BIOWL1-15 | 2026-09-01 08:58:38 | 52.80661 | 8.88134 | 76° | 33km/h | 760m | -4.8m/s | 12.1°C | 92.4% | 933.7hPa | 2.8V | 07:31:55 | 02:21:01 | 00:00:00 | |
| BIOWL1-15 | 2026-09-01 08:58:36 | 52.80657 | 8.88107 | 79° | 33km/h | 769m | -3.5m/s | 12.1°C | 93.2% | 932.7hPa | 2.8V | 07:31:55 | 02:20:59 | 00:00:00 | |
| BIOWL1-15 | 2026-09-01 08:58:34 | 52.80654 | 8.88079 | 81° | 35km/h | 776m | -4.2m/s | 12°C | 95.2% | 931.9hPa | 2.8V | 07:31:55 | 02:20:57 | 00:00:00 | |
| BIOWL1-15 | 2026-09-01 08:58:32 | 52.80652 | 8.88050 | 82° | 37km/h | 785m | -4.5m/s | 11.8°C | 97.1% | 931hPa | 2.8V | 07:31:55 | 02:20:55 | 00:00:00 | |
| DM0DOS-11 | 2026-09-01 08:58:31 | 52.80650 | 8.88020 | 83° | 35km/h | 794m | -4.6m/s | 11.8°C | 94.9% | 930hPa | 2.8V | 07:31:17 | 02:20:53 | 00:00:00 | |
| BIOWL1-15 | 2026-09-01 08:58:30 | 52.80647 | 8.87977 | 83° | 35km/h | 808m | -4.5m/s | 11.7°C | 97.6% | 928.3hPa | 2.7V | 07:31:55 | 02:20:50 | 00:00:00 | |
| BIOWL1-15 | 2026-09-01 08:58:28 | 52.80646 | 8.87963 | 83° | 35km/h | 813m | -4.4m/s | 11.6°C | 98.4% | 927.8hPa | 2.8V | 07:31:55 | 02:20:49 | 00:00:00 | |
| DD8BA-10 | 2026-09-01 08:58:27 | 52.80647 | 8.87977 | 84° | 35km/h | 808m | -4.4m/s | 11.6°C | 95.2% | 928.3hPa | 2.8V | 00:00:00 | 00:00:00 | 00:00:00 | |
| DB0DAN | 2026-09-01 08:58:25 | 52.80645 | 8.87948 | 84° | 33km/h | 817m | -4.4m/s | 11.6°C | 94.5% | 927.35hPa | 2.8V | 00:00:00 | 00:00:00 | 00:00:00 | |
| DM0DOS-11 | 2026-09-01 08:58:25 | 52.80644 | 8.87933 | 84° | 35km/h | 822m | -4.8m/s | 11.5°C | 96.5% | 926.9hPa | 2.8V | 07:31:23 | 02:20:47 | 00:00:00 | |
| BIOWL1-15 | 2026-09-01 08:58:24 | 52.80644 | 8.87933 | 84° | 35km/h | 822m | -4.8m/s | 11.5°C | 99% | 926.9hPa | 2.8V | 07:31:55 | 02:20:47 | 00:00:00 | |
| BIOWL1-15 | 2026-09-01 08:58:22 | 52.80641 | 8.87889 | 84° | 37km/h | 836m | -4.9m/s | 11.4°C | 99.2% | 925.4hPa | 2.8V | 07:31:55 | 02:20:44 | 00:00:00 | |
| BIOWL1-15 | 2026-09-01 08:58:22 | 52.80640 | 8.87874 | 84° | 37km/h | 841m | -4.1m/s | 11.4°C | 100% | 924.8hPa | 2.8V | 07:31:55 | 02:20:43 | 00:00:00 | |
| DJ2DS-15 | 2026-09-01 08:58:21 | 52.80641 | 8.87889 | 85° | 37km/h | 836m | -4.9m/s | 11.4°C | 96.3% | 925.3hPa | 2.8V | 00:00:00 | 02:20:44 | 00:00:00 | |
| DD8BA-10 | 2026-09-01 08:58:21 | 52.80641 | 8.87889 | 85° | 37km/h | 836m | -4.9m/s | 11.4°C | 96.3% | 925.3hPa | 2.8V | 00:00:00 | 00:00:00 | 00:00:00 | |
| DM0DOS-11 | 2026-09-01 08:58:19 | 52.80635 | 8.87811 | 79° | 38km/h | 859m | -4.9m/s | 11.3°C | 94.2% | 922.9hPa | 2.8V | 07:31:31 | 02:20:39 | 00:00:00 | |
| DM0DOS-11 | 2026-09-01 08:58:19 | 52.80631 | 8.87780 | 81° | 38km/h | 869m | -4.3m/s | 11.1°C | 94.9% | 921.6hPa | 2.8V | 07:31:33 | 02:20:37 | 00:00:00 | |
| BIOWL1-15 | 2026-09-01 08:58:18 | 52.80638 | 8.87843 | 81° | 38km/h | 849m | -4.9m/s | 11.3°C | 99.2% | 923.8hPa | 2.8V | 07:31:55 | 02:20:41 | 00:00:00 | |
| BIOWL1-15 | 2026-09-01 08:58:16 | 52.80635 | 8.87811 | 80° | 38km/h | 859m | -4.9m/s | 11.3°C | 97.6% | 922.9hPa | 2.8V | 07:31:55 | 02:20:39 | 00:00:00 | |
| BIOWL1-15 | 2026-09-01 08:58:15 | 52.80633 | 8.87796 | 80° | 38km/h | 864m | -4.9m/s | 11.2°C | 98.2% | 922.2hPa | 2.8V | 07:31:55 | 02:20:38 | 00:00:00 | |
| BIOWL1-15 | 2026-09-01 08:58:13 | 52.80630 | 8.87765 | 80° | 38km/h | 873m | -4.6m/s | 11°C | 99.2% | 921.1hPa | 2.8V | 07:31:55 | 02:20:36 | 00:00:00 | |
| BIOWL1-15 | 2026-09-01 08:58:12 | 52.80628 | 8.87749 | 79° | 38km/h | 878m | -4.4m/s | 11°C | 97.7% | 920.6hPa | 2.8V | 07:31:55 | 02:20:35 | 00:00:00 | |
| BIOWL1-15 | 2026-09-01 08:58:11 | 52.80626 | 8.87733 | 81° | 40km/h | 882m | -4.7m/s | 11°C | 97.1% | 920.2hPa | 2.7V | 07:31:55 | 02:20:34 | 00:00:00 | |
| DL1XH-west | 2026-09-01 08:58:10 | 52.80625 | 8.87716 | 81° | 40km/h | 887m | -4.4m/s | 11°C | 98.2% | 919.7hPa | 2.8V | 07:31:55 | 02:20:33 | 00:00:00 | |
| DB0DAN | 2026-09-01 08:58:10 | 52.80625 | 8.87716 | 81° | 38km/h | 887m | -4.4m/s | 11°C | 96.3% | 919.72hPa | 2.8V | 00:00:00 | 00:00:00 | 00:00:00 | |
| BIOWL1-15 | 2026-09-01 08:58:09 | 52.80623 | 8.87700 | 81° | 38km/h | 892m | -4.6m/s | 10.9°C | 98.9% | 919.2hPa | 2.8V | 07:31:55 | 02:20:32 | 00:00:00 | |
| BIOWL1-15 | 2026-09-01 08:58:07 | 52.80619 | 8.87651 | 84° | 38km/h | 905m | -5m/s | 10.8°C | 100% | 917.6hPa | 2.8V | 07:31:55 | 02:20:29 | 00:00:00 | |
| BIOWL1-15 | 2026-09-01 08:58:07 | 52.80618 | 8.87635 | 83° | 40km/h | 910m | -5.2m/s | 10.7°C | 100% | 917hPa | 2.8V | 07:31:55 | 02:20:28 | 00:00:00 | |
| DL1XH-west | 2026-09-01 08:58:04 | 52.80617 | 8.87618 | 85° | 42km/h | 916m | -5.5m/s | 10.8°C | 100% | 916.6hPa | 2.7V | 07:31:55 | 02:20:27 | 00:00:00 | |
| BIOWL1-15 | 2026-09-01 08:58:03 | 52.80615 | 8.87583 | 84° | 42km/h | 926m | -5.3m/s | 10.9°C | 95% | 915.3hPa | 2.8V | 07:31:55 | 02:20:25 | 00:00:00 | |
| DD8BA-10 | 2026-09-01 08:58:03 | 52.80616 | 8.87601 | 86° | 42km/h | 921m | -5.1m/s | 10.7°C | 97.2% | 915.9hPa | 2.7V | 00:00:00 | 00:00:00 | 00:00:00 | |
| DM0DOS-11 | 2026-09-01 08:58:01 | 52.80606 | 8.87481 | 81° | 40km/h | 958m | -5.5m/s | 10.6°C | 93.3% | 911.8hPa | 2.7V | 07:31:51 | 02:20:19 | 00:00:00 | |
| DL1XH-west | 2026-09-01 08:58:01 | 52.80614 | 8.87566 | 83° | 42km/h | 931m | -5.4m/s | 10.9°C | 94.8% | 914.9hPa | 2.8V | 07:31:55 | 02:20:24 | 00:00:00 | |
| BIOWL1-15 | 2026-09-01 08:57:59 | 52.80611 | 8.87531 | 82° | 42km/h | 942m | -5.1m/s | 10.8°C | 95.4% | 913.6hPa | 2.8V | 07:31:55 | 02:20:22 | 00:00:00 | |
| BIOWL1-15 | 2026-09-01 08:57:58 | 52.80606 | 8.87481 | 81° | 40km/h | 958m | -5.5m/s | 10.6°C | 96% | 911.8hPa | 2.7V | 07:31:55 | 02:20:19 | 00:00:00 | |
| DD8BA-10 | 2026-09-01 08:57:57 | 52.80608 | 8.87497 | 81° | 40km/h | 953m | -5.2m/s | 10.6°C | 93.0% | 912.1hPa | 2.7V | 00:00:00 | 00:00:00 | 00:00:00 | |
| DJ2DS-15 | 2026-09-01 08:57:56 | 52.80606 | 8.87481 | 82° | 40km/h | 958m | -5.4m/s | 10.6°C | 0% | 911.8hPa | 2.8V | 00:00:00 | 02:20:19 | 00:00:00 | |
| DM0DOS-11 | 2026-09-01 08:57:55 | 52.80603 | 8.87448 | 82° | 40km/h | 969m | -5.6m/s | 10.3°C | 95.3% | 910.8hPa | 2.8V | 07:31:53 | 02:20:17 | 00:00:00 | |
| DB0DAN | 2026-09-01 08:57:55 | 52.80605 | 8.87464 | 82° | 38km/h | 963m | -5.1m/s | 10.5°C | 92.2% | 911.22hPa | 2.8V | 00:00:00 | 00:00:00 | 00:00:00 | |
| BIOWL1-15 | 2026-09-01 08:57:54 | 52.80603 | 8.87448 | 83° | 40km/h | 969m | -5.6m/s | 10.3°C | 97.2% | 910.8hPa | 2.8V | 07:31:55 | 02:20:17 | 00:00:00 | |
| DL1XH-west | 2026-09-01 08:57:53 | 52.80602 | 8.87431 | 84° | 40km/h | 974m | -5.7m/s | 10.3°C | 100% | 910hPa | 2.8V | 07:31:55 | 02:20:16 | 00:00:00 | |
| BIOWL1-15 | 2026-09-01 08:57:52 | 52.80601 | 8.87414 | 83° | 40km/h | 980m | -5.2m/s | 10.2°C | 100% | 909.3hPa | 2.8V | 07:31:55 | 02:20:15 | 00:00:00 | |
| DL1XH-west | 2026-09-01 08:57:51 | 52.80600 | 8.87397 | 84° | 40km/h | 985m | -5.5m/s | 10.2°C | 100% | 908.8hPa | 2.8V | 07:32:46 | 02:20:14 | 00:00:00 | |
| DL1XH-west | 2026-09-01 08:57:50 | 52.80598 | 8.87380 | 84° | 42km/h | 991m | -5.5m/s | 10.3°C | 97.2% | 908.2hPa | 2.8V | 07:32:46 | 02:20:13 | 00:00:00 | |
| BIOWL1-15 | 2026-09-01 08:57:50 | 52.80596 | 8.87346 | 84° | 40km/h | 1002m | -5.6m/s | 10.2°C | 98.3% | 907.1hPa | 2.8V | 07:32:46 | 02:20:11 | 00:00:00 | |
| DL1XH-west | 2026-09-01 08:57:49 | 52.80597 | 8.87363 | 84° | 42km/h | 996m | -5.8m/s | 10.2°C | 100% | 907.7hPa | 2.7V | 07:32:46 | 02:20:12 | 00:00:00 | |
| DL1XH-west | 2026-09-01 08:57:47 | 52.80595 | 8.87329 | 85° | 40km/h | 1007m | -5.7m/s | 10.2°C | 96.5% | 906.4hPa | 2.8V | 07:32:46 | 02:20:10 | 00:00:00 | |
| DL1XH-west | 2026-09-01 08:57:46 | 52.80594 | 8.87312 | 84° | 40km/h | 1013m | -5.7m/s | 10.2°C | 96.5% | 905.9hPa | 2.8V | 07:32:46 | 02:20:09 | 00:00:00 | |
| BIOWL1-15 | 2026-09-01 08:57:44 | 52.80592 | 8.87279 | 84° | 40km/h | 1024m | -5.5m/s | 10.3°C | 94.5% | 904.7hPa | 2.8V | 07:32:46 | 02:20:07 | 00:00:00 | |
| DL1XH-west | 2026-09-01 08:57:42 | 52.80589 | 8.87245 | 82° | 42km/h | 1035m | -5.8m/s | 10°C | 98.8% | 903.5hPa | 2.7V | 07:32:46 | 02:20:05 | 00:00:00 | |
| BIOWL1-15 | 2026-09-01 08:57:41 | 52.80588 | 8.87228 | 82° | 40km/h | 1041m | -5.9m/s | 9.9°C | 98.8% | 902.6hPa | 2.8V | 07:32:46 | 02:20:04 | 00:00:00 | |
| DB0DAN | 2026-09-01 08:57:40 | 52.80586 | 8.87211 | 82° | 40km/h | 1047m | -5.6m/s | 10°C | 93% | 902.2hPa | 2.8V | 00:00:00 | 00:00:00 | 00:00:00 | |
| BIOWL1-15 | 2026-09-01 08:57:39 | 52.80585 | 8.87193 | 81° | 42km/h | 1052m | -5.3m/s | 9.9°C | 98.6% | 901.5hPa | 2.8V | 07:32:46 | 02:20:02 | 00:00:00 | |
| DL1XH-west | 2026-09-01 08:57:37 | 52.80582 | 8.87159 | 83° | 42km/h | 1063m | -5.2m/s | 10.1°C | 91.6% | 900.3hPa | 2.8V | 07:32:46 | 02:20:00 | 00:00:00 | |
| BIOWL1-15 | 2026-09-01 08:57:37 | 52.80579 | 8.87125 | 83° | 40km/h | 1073m | -5.3m/s | 9.9°C | 91.8% | 899.2hPa | 2.7V | 07:32:46 | 02:19:58 | 00:00:00 | |
| DL1XH-west | 2026-09-01 08:57:36 | 52.80581 | 8.87142 | 83° | 42km/h | 1068m | -5.2m/s | 10.1°C | 91.6% | 899.8hPa | 2.8V | 07:32:46 | 02:19:59 | 00:00:00 | |
| DL1XH-west | 2026-09-01 08:57:34 | 52.80578 | 8.87108 | 83° | 40km/h | 1078m | -5.4m/s | 9.8°C | 93.5% | 898.8hPa | 2.8V | 07:32:46 | 02:19:57 | 00:00:00 | |
| BIOWL1-15 | 2026-09-01 08:57:33 | 52.80575 | 8.87056 | 85° | 40km/h | 1095m | -5.7m/s | 9.6°C | 93.9% | 897hPa | 2.8V | 07:32:46 | 02:19:54 | 00:00:00 | |
| DL1XH-west | 2026-09-01 08:57:32 | 52.80576 | 8.87073 | 85° | 42km/h | 1089m | -5.5m/s | 9.7°C | 93.8% | 897.6hPa | 2.8V | 07:32:46 | 02:19:55 | 00:00:00 | |
| DL1XH-west | 2026-09-01 08:57:30 | 52.80574 | 8.87039 | 85° | 40km/h | 1101m | -6m/s | 9.5°C | 94.9% | 896.1hPa | 2.8V | 07:32:46 | 02:19:53 | 00:00:00 | |
| DL1XH1-15 | 2026-09-01 08:57:29 | 52.80572 | 8.86973 | 90° | 38km/h | 1122m | -5.3m/s | 9.6°C | 90.2% | 893.9hPa | 2.8V | 07:32:21 | 02:19:49 | 00:00:00 | |
| BIOWL1-15 | 2026-09-01 08:57:29 | 52.80572 | 8.86989 | 88° | 40km/h | 1117m | -5.2m/s | 9.4°C | 96.2% | 894.3hPa | 2.8V | 07:32:46 | 02:19:50 | 00:00:00 | |
| DL1XH-west | 2026-09-01 08:57:28 | 52.80573 | 8.87006 | 87° | 40km/h | 1112m | -5.3m/s | 9.3°C | 95.7% | 895hPa | 2.7V | 07:32:46 | 02:19:51 | 00:00:00 | |
| DL1XH-west | 2026-09-01 08:57:26 | 52.80572 | 8.86973 | 90° | 38km/h | 1123m | -5.3m/s | 9.6°C | 90.8% | 893.9hPa | 2.8V | 07:32:46 | 02:19:49 | 00:00:00 | |
| BIOWL1-15 | 2026-09-01 08:57:25 | 52.80573 | 8.86940 | 94° | 40km/h | 1133m | -5.4m/s | 9.6°C | 89.8% | 892.6hPa | 2.8V | 07:32:46 | 02:19:47 | 00:00:00 | |
| DB0DAN | 2026-09-01 08:57:25 | 52.80572 | 8.86957 | 90° | 38km/h | 1128m | -5.3m/s | 9.6°C | 86.4% | 893.39hPa | 2.8V | 00:00:00 | 00:00:00 | 00:00:00 | |
| DL1XH-west | 2026-09-01 08:57:25 | 52.80572 | 8.86957 | 90° | 40km/h | 1128m | -5.3m/s | 9.6°C | 89.3% | 893.4hPa | 2.8V | 07:32:46 | 02:19:48 | 00:00:00 | |
| DL1XH-west | 2026-09-01 08:57:23 | 52.80573 | 8.86923 | 90° | 40km/h | 1139m | -5.9m/s | 9.5°C | 89.8% | 892.3hPa | 2.8V | 07:32:46 | 02:19:46 | 00:00:00 | |
| BIOWL1-15 | 2026-09-01 08:57:22 | 52.80573 | 8.86906 | 93° | 40km/h | 1144m | -5.7m/s | 9.4°C | 92.4% | 891.7hPa | 2.8V | 07:32:46 | 02:19:45 | 00:00:00 | |
| DL1XH-west | 2026-09-01 08:57:21 | 52.80574 | 8.86889 | 94° | 40km/h | 1150m | -5.8m/s | 9.4°C | 91.3% | 891hPa | 2.7V | 07:32:46 | 02:19:44 | 00:00:00 | |
| DL1XH-west | 2026-09-01 08:57:20 | 52.80575 | 8.86872 | 92° | 42km/h | 1156m | -6m/s | 9.3°C | 92.3% | 890.3hPa | 2.8V | 07:32:46 | 02:19:43 | 00:00:00 | |
| BIOWL1-15 | 2026-09-01 08:57:19 | 52.80575 | 8.86855 | 94° | 42km/h | 1162m | -5.6m/s | 9.2°C | 91.8% | 889.8hPa | 2.8V | 07:32:46 | 02:19:42 | 00:00:00 | |
| DL1XH-west | 2026-09-01 08:57:18 | 52.80576 | 8.86838 | 93° | 42km/h | 1167m | -5.7m/s | 9.1°C | 94.1% | 889.1hPa | 2.8V | 07:32:46 | 02:19:41 | 00:00:00 | |
| DL1XH1-15 | 2026-09-01 08:57:17 | 52.80576 | 8.86804 | 90° | 40km/h | 1178m | -5.3m/s | 9.1°C | 92.7% | 887.8hPa | 2.8V | 07:32:31 | 02:19:39 | 00:00:00 | |
| DL1XH-west | 2026-09-01 08:57:16 | 52.80576 | 8.86804 | 91° | 40km/h | 1178m | -5.4m/s | 9.1°C | 93% | 887.8hPa | 2.8V | 07:32:46 | 02:19:39 | 00:00:00 | |
| DL1XH-west | 2026-09-01 08:57:15 | 52.80576 | 8.86787 | 92° | 40km/h | 1184m | -5.5m/s | 9.3°C | 89.6% | 887.3hPa | 2.8V | 07:32:46 | 02:19:38 | 00:00:00 | |
| DL1XH-west | 2026-09-01 08:57:14 | 52.80577 | 8.86770 | 93° | 42km/h | 1189m | -5.5m/s | 9.4°C | 87.4% | 886.9hPa | 2.7V | 07:32:46 | 02:19:37 | 00:00:00 | |
| DD8BA-10 | 2026-09-01 08:57:14 | 52.80577 | 8.86770 | 93° | 42km/h | 1189m | -5.4m/s | 9.4°C | 85.0% | 886.9hPa | 2.8V | 00:00:00 | 00:00:00 | 00:00:00 | |
| DM0DOS-11 | 2026-09-01 08:57:13 | 52.80581 | 8.86666 | 96° | 42km/h | 1220m | -5.1m/s | 9.3°C | 81.3% | 883.5hPa | 2.8V | 07:32:39 | 02:19:31 | 00:00:00 | |
| DL1XH-west | 2026-09-01 08:57:12 | 52.80578 | 8.86736 | 92° | 42km/h | 1200m | -5.2m/s | 9.4°C | 82.9% | 885.8hPa | 2.8V | 07:32:46 | 02:19:35 | 00:00:00 | |
| DL1XH-west | 2026-09-01 08:57:11 | 52.80578 | 8.86719 | 94° | 40km/h | 1205m | -5m/s | 9.4°C | 85.6% | 885.2hPa | 2.8V | 07:32:46 | 02:19:34 | 00:00:00 | |
| DB0DAN | 2026-09-01 08:57:10 | 52.80579 | 8.86701 | 96° | 40km/h | 1210m | -5m/s | 9.6°C | 77.1% | 884.62hPa | 2.8V | 00:00:00 | 00:00:00 | 00:00:00 | |
| DL1XH-west | 2026-09-01 08:57:09 | 52.80580 | 8.86684 | 96° | 42km/h | 1215m | -4.9m/s | 9.5°C | 81.9% | 884.1hPa | 2.8V | 07:32:46 | 02:19:32 | 00:00:00 | |
| BIOWL1-15 | 2026-09-01 08:57:09 | 52.80583 | 8.86648 | 98° | 44km/h | 1225m | -4.9m/s | 9.1°C | 83.3% | 882.9hPa | 2.7V | 07:32:46 | 02:19:30 | 00:00:00 | |
| DL1XH-west | 2026-09-01 08:57:08 | 52.80581 | 8.86666 | 97° | 42km/h | 1220m | -5.1m/s | 9.3°C | 83.6% | 883.5hPa | 2.8V | 07:32:46 | 02:19:31 | 00:00:00 | |
| DL1XH-west | 2026-09-01 08:57:06 | 52.80584 | 8.86630 | 97° | 44km/h | 1230m | -5.1m/s | 9.3°C | 83.7% | 882.5hPa | 2.8V | 07:32:46 | 02:19:29 | 00:00:00 | |
| DL1XH-west | 2026-09-01 08:57:05 | 52.80587 | 8.86593 | 97° | 44km/h | 1240m | -4.6m/s | 9.4°C | 80% | 881.5hPa | 2.8V | 07:32:46 | 02:19:27 | 00:00:00 | |
| DL1XH-west | 2026-09-01 08:57:03 | 52.80588 | 8.86575 | 97° | 44km/h | 1244m | -5m/s | 9.5°C | 78.5% | 880.8hPa | 2.8V | 07:32:46 | 02:19:26 | 00:00:00 | |
| DL1XH-west | 2026-09-01 08:57:02 | 52.80590 | 8.86556 | 97° | 44km/h | 1249m | -4.8m/s | 9.4°C | 78.3% | 880.2hPa | 2.8V | 07:32:46 | 02:19:25 | 00:00:00 | |
| DD8BA-10 | 2026-09-01 08:57:02 | 52.80590 | 8.86556 | 97° | 44km/h | 1249m | -4.8m/s | 9.4°C | 75.0% | 880.2hPa | 2.7V | 00:00:00 | 00:00:00 | 00:00:00 | |
| DM0DOS-11 | 2026-09-01 08:57:01 | 52.80595 | 8.86483 | 95° | 44km/h | 1269m | -5m/s | 9.3°C | 74.4% | 878.3hPa | 2.8V | 07:32:49 | 02:19:21 | 00:00:00 | |
| DL1XH-west | 2026-09-01 08:57:01 | 52.80591 | 8.86538 | 97° | 44km/h | 1254m | -5.1m/s | 9.4°C | 77.8% | 879.8hPa | 2.7V | 07:32:46 | 02:19:24 | 00:00:00 | |
| DL1XH-west | 2026-09-01 08:56:59 | 52.80594 | 8.86501 | 96° | 46km/h | 1264m | -4.8m/s | 9.4°C | 77.1% | 878.8hPa | 2.8V | 07:33:37 | 02:19:22 | 00:00:00 | |
| DL1XH-west | 2026-09-01 08:56:58 | 52.80595 | 8.86483 | 95° | 44km/h | 1269m | -5m/s | 9.3°C | 77.8% | 878.3hPa | 2.8V | 07:33:37 | 02:19:21 | 00:00:00 | |
| BIOWL1-15 | 2026-09-01 08:56:56 | 52.80600 | 8.86409 | 97° | 44km/h | 1289m | -4.7m/s | 9.2°C | 76.8% | 876.2hPa | 2.7V | 07:33:37 | 02:19:17 | 00:00:00 | |
| BIOWL9-15 | 2026-09-01 08:56:56 | 52.80597 | 8.86446 | 96° | 44km/h | 1279m | -5.1m/s | 9.3°C | 72.5% | 877.3hPa | 2.8V | 00:00:00 | 00:00:00 | 00:00:00 | |
| DL1XH-west | 2026-09-01 08:56:56 | 52.80597 | 8.86446 | 96° | 44km/h | 1279m | -5.1m/s | 9.3°C | 77.2% | 877.3hPa | 2.8V | 07:33:37 | 02:19:19 | 00:00:00 | |
| DB0DAN | 2026-09-01 08:56:55 | 52.80598 | 8.86428 | 97° | 42km/h | 1284m | -5m/s | 9.2°C | 72.6% | 876.78hPa | 2.8V | 00:00:00 | 00:00:00 | 00:00:00 | |
| DM0DOS-11 | 2026-09-01 08:56:55 | 52.80600 | 8.86409 | 96° | 44km/h | 1289m | -4.7m/s | 9.2°C | 73.6% | 876.2hPa | 2.7V | 07:32:53 | 02:19:17 | 00:00:00 | |
| DM0DOS-11 | 2026-09-01 08:56:55 | 52.80602 | 8.86372 | 96° | 46km/h | 1298m | -4.9m/s | 9.3°C | 71.8% | 875.3hPa | 2.8V | 07:32:55 | 02:19:15 | 00:00:00 | |
| DL1XH-west | 2026-09-01 08:56:55 | 52.80598 | 8.86428 | 97° | 44km/h | 1284m | -5m/s | 9.2°C | 77% | 876.8hPa | 2.8V | 07:33:37 | 02:19:18 | 00:00:00 | |
| DL1XH-west | 2026-09-01 08:56:53 | 52.80601 | 8.86391 | 97° | 46km/h | 1293m | -4.5m/s | 9.3°C | 76% | 875.7hPa | 2.8V | 07:33:37 | 02:19:16 | 00:00:00 | |
| DD8BA-10 | 2026-09-01 08:56:53 | 52.80601 | 8.86391 | 98° | 46km/h | 1293m | -4.4m/s | 9.2°C | 72.7% | 875.7hPa | 2.7V | 00:00:00 | 00:00:00 | 00:00:00 | |
| DL1XH1-15 | 2026-09-01 08:56:52 | 52.80607 | 8.86316 | 97° | 46km/h | 1312m | -4.8m/s | 9.2°C | 72.2% | 873.9hPa | 2.8V | 07:32:58 | 02:19:12 | 00:00:00 | |
| DL1XH-west | 2026-09-01 08:56:51 | 52.80604 | 8.86353 | 97° | 46km/h | 1303m | -4.6m/s | 9.3°C | 75.5% | 874.7hPa | 2.8V | 07:33:37 | 02:19:14 | 00:00:00 | |
| DL1XH-west | 2026-09-01 08:56:50 | 52.80605 | 8.86335 | 98° | 46km/h | 1307m | -4.4m/s | 9.2°C | 75.6% | 874.4hPa | 2.8V | 07:33:37 | 02:19:13 | 00:00:00 | |
| DJ2DS-15 | 2026-09-01 08:56:50 | 52.80605 | 8.86334 | 98° | 46km/h | 1307m | -4.3m/s | 9.2°C | 72.1% | 874.3hPa | 2.8V | 00:00:00 | 02:19:13 | 00:00:00 | |
| DD8BA-10 | 2026-09-01 08:56:50 | 52.80605 | 8.86334 | 98° | 46km/h | 1307m | -4.3m/s | 9.2°C | 72.1% | 874.3hPa | 2.8V | 00:00:00 | 00:00:00 | 00:00:00 | |
| DM0DOS-11 | 2026-09-01 08:56:49 | 52.80614 | 8.86222 | 95° | 46km/h | 1334m | -4.8m/s | 9.1°C | 75.2% | 871.3hPa | 2.8V | 07:33:03 | 02:19:07 | 00:00:00 | |
| DL1XH-west | 2026-09-01 08:56:49 | 52.80607 | 8.86316 | 98° | 46km/h | 1312m | -4.8m/s | 9.2°C | 75.7% | 873.9hPa | 2.8V | 07:33:37 | 02:19:12 | 00:00:00 | |
| DL1XH-west | 2026-09-01 08:56:48 | 52.80608 | 8.86297 | 97° | 46km/h | 1316m | -4.4m/s | 9.2°C | 75.8% | 873.4hPa | 2.7V | 07:33:37 | 02:19:11 | 00:00:00 | |
| BIOWL1-15 | 2026-09-01 08:56:47 | 52.80610 | 8.86278 | 97° | 46km/h | 1320m | -4.4m/s | 9.1°C | 75.9% | 872.9hPa | 2.8V | 07:33:37 | 02:19:10 | 00:00:00 | |
| DL1XH-west | 2026-09-01 08:56:46 | 52.80611 | 8.86260 | 97° | 46km/h | 1325m | -4.6m/s | 9.1°C | 76.1% | 872.5hPa | 2.8V | 07:33:37 | 02:19:09 | 00:00:00 | |
| BIOWL1-15 | 2026-09-01 08:56:45 | 52.80612 | 8.86241 | 96° | 46km/h | 1330m | -4.3m/s | 9.1°C | 76.6% | 871.9hPa | 2.8V | 07:33:37 | 02:19:08 | 00:00:00 | |
| DL1XH-west | 2026-09-01 08:56:44 | 52.80614 | 8.86222 | 96° | 46km/h | 1334m | -4.9m/s | 9.1°C | 78.4% | 871.3hPa | 2.8V | 07:33:37 | 02:19:07 | 00:00:00 | |
| DL1XH-west | 2026-09-01 08:56:43 | 52.80615 | 8.86203 | 96° | 46km/h | 1339m | -4.5m/s | 9.1°C | 79.2% | 871hPa | 2.8V | 07:33:37 | 02:19:06 | 00:00:00 | |
| BIOWL1-15 | 2026-09-01 08:56:41 | 52.80617 | 8.86165 | 95° | 44km/h | 1347m | -4.4m/s | 9°C | 79.2% | 870hPa | 2.7V | 07:33:37 | 02:19:04 | 00:00:00 | |
| DD8BA-10 | 2026-09-01 08:56:41 | 52.80617 | 8.86165 | 95° | 46km/h | 1347m | -4.4m/s | 9.0°C | 75.9% | 870.0hPa | 2.7V | 00:00:00 | 00:00:00 | 00:00:00 | |
| DL1XH1-15 | 2026-09-01 08:56:40 | 52.80623 | 8.86053 | 95° | 46km/h | 1374m | -4.5m/s | 8.8°C | 79.4% | 867.3hPa | 2.7V | 07:33:12 | 02:18:58 | 00:00:00 | |
| DB0DAN | 2026-09-01 08:56:40 | 52.80618 | 8.86147 | 95° | 42km/h | 1352m | -4.7m/s | 9°C | 74.6% | 869.63hPa | 2.8V | 00:00:00 | 00:00:00 | 00:00:00 | |
| DL1XH-west | 2026-09-01 08:56:40 | 52.80618 | 8.86147 | 95° | 44km/h | 1352m | -4.7m/s | 9°C | 79.4% | 869.6hPa | 2.8V | 07:33:37 | 02:19:03 | 00:00:00 | |
| BIOWL1-15 | 2026-09-01 08:56:39 | 52.80619 | 8.86128 | 95° | 46km/h | 1356m | -4.4m/s | 9°C | 79.8% | 869.1hPa | 2.8V | 07:33:37 | 02:19:02 | 00:00:00 | |
| DL1XH-west | 2026-09-01 08:56:37 | 52.80621 | 8.86091 | 95° | 46km/h | 1365m | -4.3m/s | 8.9°C | 81.7% | 868.1hPa | 2.8V | 07:33:37 | 02:19:00 | 00:00:00 | |
| DL1XH-west | 2026-09-01 08:56:35 | 52.80623 | 8.86053 | 95° | 46km/h | 1374m | -4.5m/s | 8.8°C | 82.6% | 867.3hPa | 2.7V | 07:33:37 | 02:18:58 | 00:00:00 | |
| DL1XH-west | 2026-09-01 08:56:34 | 52.80624 | 8.86033 | 94° | 46km/h | 1378m | -4.3m/s | 8.8°C | 82.8% | 866.7hPa | 2.8V | 07:33:37 | 02:18:57 | 00:00:00 | |
| DL1XH-west | 2026-09-01 08:56:32 | 52.80626 | 8.85995 | 94° | 46km/h | 1387m | -4.6m/s | 8.7°C | 83.1% | 865.9hPa | 2.8V | 07:33:37 | 02:18:55 | 00:00:00 | |
| DD8BA-10 | 2026-09-01 08:56:32 | 52.80626 | 8.85995 | 95° | 46km/h | 1387m | -4.6m/s | 8.6°C | 80.0% | 865.8hPa | 2.8V | 00:00:00 | 00:00:00 | 00:00:00 | |
| DM0DOS-11 | 2026-09-01 08:56:31 | 52.80627 | 8.85957 | 92° | 46km/h | 1395m | -4.2m/s | 8.6°C | 80.3% | 865hPa | 2.8V | 07:33:17 | 02:18:53 | 00:00:00 | |
| DM0DOS-11 | 2026-09-01 08:56:31 | 52.80630 | 8.85881 | 93° | 46km/h | 1412m | -4.6m/s | 8.5°C | 80.8% | 863.3hPa | 2.8V | 07:33:21 | 02:18:49 | 00:00:00 | |
| DL1XH-west | 2026-09-01 08:56:31 | 52.80627 | 8.85976 | 93° | 46km/h | 1391m | -4.2m/s | 8.7°C | 83.4% | 865.5hPa | 2.8V | 07:33:37 | 02:18:54 | 00:00:00 | |
| BIOWL1-15 | 2026-09-01 08:56:30 | 52.80627 | 8.85957 | 92° | 46km/h | 1395m | -4.2m/s | 8.6°C | 83.4% | 865hPa | 2.8V | 07:33:37 | 02:18:53 | 00:00:00 | |
| DL1XH-west | 2026-09-01 08:56:29 | 52.80628 | 8.85938 | 94° | 46km/h | 1400m | -4.2m/s | 8.6°C | 83.4% | 864.6hPa | 2.8V | 07:33:37 | 02:18:52 | 00:00:00 | |
| DL1XH1-15 | 2026-09-01 08:56:28 | 52.80632 | 8.85824 | 93° | 46km/h | 1425m | -4.1m/s | 8.4°C | 81.1% | 862hPa | 2.8V | 07:33:24 | 02:18:46 | 00:00:00 | |
| BIOWL1-15 | 2026-09-01 08:56:28 | 52.80630 | 8.85881 | 94° | 46km/h | 1412m | -4.6m/s | 8.5°C | 83.8% | 863.3hPa | 2.8V | 07:33:37 | 02:18:49 | 00:00:00 | |
| DL1XH-west | 2026-09-01 08:56:27 | 52.80629 | 8.85900 | 93° | 46km/h | 1408m | -4.3m/s | 8.5°C | 83.9% | 863.7hPa | 2.8V | 07:33:37 | 02:18:50 | 00:00:00 | |
| BIOWL7-15 | 2026-09-01 08:56:26 | 52.80629 | 8.85900 | 94° | 46km/h | 1408m | -4.3m/s | 8.5°C | 79.1% | 863.7hPa | 2.8V | 07:33:00 | 00:00:00 | 00:00:00 | |
| DB0DAN | 2026-09-01 08:56:25 | 52.80631 | 8.85862 | 94° | 44km/h | 1417m | -4.3m/s | 8.4°C | 79.5% | 862.92hPa | 2.8V | 00:00:00 | 00:00:00 | 00:00:00 | |
| DL1XH-west | 2026-09-01 08:56:25 | 52.80631 | 8.85862 | 94° | 46km/h | 1417m | -4.3m/s | 8.4°C | 84.1% | 862.9hPa | 2.8V | 07:33:37 | 02:18:48 | 00:00:00 | |
| BIOWL1-15 | 2026-09-01 08:56:24 | 52.80633 | 8.85806 | 93° | 46km/h | 1430m | -4.3m/s | 8.3°C | 84.3% | 861.5hPa | 2.7V | 07:33:37 | 02:18:45 | 00:00:00 | |
| DL1XH-west | 2026-09-01 08:56:24 | 52.80631 | 8.85843 | 93° | 46km/h | 1421m | -4.2m/s | 8.4°C | 84.2% | 862.4hPa | 2.8V | 07:33:37 | 02:18:47 | 00:00:00 | |
| DL1XH-west | 2026-09-01 08:56:23 | 52.80632 | 8.85824 | 93° | 46km/h | 1425m | -4.1m/s | 8.4°C | 84.2% | 862hPa | 2.8V | 07:33:37 | 02:18:46 | 00:00:00 | |
| DL1XH-west | 2026-09-01 08:56:21 | 52.80633 | 8.85787 | 94° | 46km/h | 1434m | -4.2m/s | 8.3°C | 84.4% | 861.1hPa | 2.8V | 07:33:37 | 02:18:44 | 00:00:00 | |
| BIOWL1-15 | 2026-09-01 08:56:20 | 52.80637 | 8.85691 | 93° | 46km/h | 1454m | -4.2m/s | 8.1°C | 84.8% | 859hPa | 2.7V | 07:33:37 | 02:18:39 | 00:00:00 | |
| DL1XH-west | 2026-09-01 08:56:20 | 52.80634 | 8.85768 | 93° | 46km/h | 1438m | -4m/s | 8.3°C | 84.4% | 860.7hPa | 2.8V | 07:33:37 | 02:18:43 | 00:00:00 | |
| DD8BA-10 | 2026-09-01 08:56:20 | 52.80634 | 8.85768 | 94° | 46km/h | 1438m | -4.0m/s | 8.2°C | 81.4% | 860.6hPa | 2.7V | 00:00:00 | 00:00:00 | 00:00:00 | |
| DM0DOS-11 | 2026-09-01 08:56:19 | 52.80637 | 8.85691 | 92° | 46km/h | 1454m | -4.2m/s | 8.1°C | 82% | 859hPa | 2.7V | 07:33:31 | 02:18:39 | 00:00:00 | |
| DL1XH-west | 2026-09-01 08:56:18 | 52.80635 | 8.85730 | 93° | 46km/h | 1446m | -3.8m/s | 8.2°C | 84.6% | 859.8hPa | 2.8V | 07:33:37 | 02:18:41 | 00:00:00 | |
| DL1XH-west | 2026-09-01 08:56:17 | 52.80636 | 8.85711 | 94° | 46km/h | 1450m | -3.9m/s | 8.2°C | 84.6% | 859.5hPa | 2.8V | 07:33:37 | 02:18:40 | 00:00:00 | |
| DD8BA-10 | 2026-09-01 08:56:17 | 52.80636 | 8.85710 | 94° | 46km/h | 1450m | -3.9m/s | 8.1°C | 81.6% | 859.4hPa | 2.7V | 00:00:00 | 00:00:00 | 00:00:00 | |
| DL1XH1-15 | 2026-09-01 08:56:16 | 52.80639 | 8.85633 | 92° | 47km/h | 1466m | -4m/s | 8°C | 82.2% | 857.7hPa | 2.8V | 07:33:34 | 02:18:36 | 00:00:00 | |
| DL1XH1-15 | 2026-09-01 08:56:16 | 52.80640 | 8.85593 | 93° | 47km/h | 1474m | -4m/s | 7.9°C | 82.6% | 856.9hPa | 2.8V | 07:33:36 | 02:18:34 | 00:00:00 | |
| DL1XH-west | 2026-09-01 08:56:15 | 52.80637 | 8.85672 | 93° | 46km/h | 1458m | -4.3m/s | 8.1°C | 85% | 858.5hPa | 2.8V | 07:33:37 | 02:18:38 | 00:00:00 | |
| BIOWL1-15 | 2026-09-01 08:56:14 | 52.80644 | 8.85473 | 92° | 47km/h | 1498m | -3.9m/s | 7.7°C | 86.3% | 854.3hPa | 2.8V | 07:34:28 | 02:18:28 | 00:00:00 | |
| DL1XH-west | 2026-09-01 08:56:13 | 52.80639 | 8.85633 | 92° | 47km/h | 1466m | -4m/s | 8°C | 85% | 857.7hPa | 2.8V | 07:33:37 | 02:18:36 | 00:00:00 | |
| DM0DOS-11 | 2026-09-01 08:56:13 | 52.80642 | 8.85533 | 92° | 47km/h | 1486m | -4m/s | 7.8°C | 82.8% | 855.7hPa | 2.7V | 07:33:39 | 02:18:31 | 00:00:00 | |
| DL1XH-west | 2026-09-01 08:56:13 | 52.80639 | 8.85613 | 93° | 47km/h | 1470m | -3.8m/s | 8°C | 85.2% | 857.3hPa | 2.8V | 07:33:37 | 02:18:35 | 00:00:00 | |
| DL1XH-west | 2026-09-01 08:56:12 | 52.80640 | 8.85593 | 94° | 47km/h | 1474m | -4m/s | 7.9°C | 85.2% | 856.9hPa | 2.8V | 07:33:37 | 02:18:34 | 00:00:00 | |
| DB0DAN | 2026-09-01 08:56:10 | 52.80641 | 8.85573 | 94° | 46km/h | 1478m | -3.8m/s | 7.9°C | 81% | 856.46hPa | 2.7V | 00:00:00 | 00:00:00 | 00:00:00 | |
| DL1XH-west | 2026-09-01 08:56:09 | 52.80641 | 8.85553 | 93° | 47km/h | 1482m | -4m/s | 7.9°C | 85.2% | 856hPa | 2.8V | 07:34:28 | 02:18:32 | 00:00:00 | |
| DL1XH-west | 2026-09-01 08:56:08 | 52.80642 | 8.85533 | 93° | 47km/h | 1486m | -4.1m/s | 7.8°C | 85.3% | 855.7hPa | 2.7V | 07:34:28 | 02:18:31 | 00:00:00 | |
| DJ2DS-15 | 2026-09-01 08:56:08 | 52.80642 | 8.85533 | 93° | 47km/h | 1486m | -4.0m/s | 7.8°C | 82.8% | 855.6hPa | 2.7V | 00:00:00 | 02:18:31 | 00:00:00 | |
| DD8BA-10 | 2026-09-01 08:56:08 | 52.80642 | 8.85533 | 93° | 47km/h | 1486m | -4.0m/s | 7.8°C | 82.8% | 855.6hPa | 2.7V | 00:00:00 | 00:00:00 | 00:00:00 | |
| DK9SH | 2026-09-01 08:56:07 | 52.80642 | 8.85533 | 93° | 47km/h | 1486m | -4.1m/s | 7.8°C | 81.3% | 855.7hPa | 2.7V | 07:34:00 | 00:00:00 | 00:00:00 | |
| DM0DOS-11 | 2026-09-01 08:56:07 | 52.80644 | 8.85453 | 93° | 49km/h | 1501m | -4m/s | 7.7°C | 84% | 854hPa | 2.7V | 07:33:43 | 02:18:27 | 00:00:00 | |
| DL1XH-west | 2026-09-01 08:56:06 | 52.80643 | 8.85493 | 93° | 49km/h | 1494m | -4m/s | 7.8°C | 85.6% | 854.8hPa | 2.8V | 07:34:28 | 02:18:29 | 00:00:00 | |
| DL1XH-west | 2026-09-01 08:56:04 | 52.80644 | 8.85453 | 94° | 49km/h | 1501m | -4m/s | 7.7°C | 86.6% | 854hPa | 2.7V | 07:34:28 | 02:18:27 | 00:00:00 | |
| BIOWL1-15 | 2026-09-01 08:56:03 | 52.80646 | 8.85411 | 94° | 49km/h | 1510m | -4m/s | 7.6°C | 87.4% | 853.1hPa | 2.7V | 07:34:28 | 02:18:25 | 00:00:00 | |
| DL1XH-west | 2026-09-01 08:56:03 | 52.80645 | 8.85432 | 95° | 49km/h | 1506m | -4.2m/s | 7.7°C | 86.9% | 853.5hPa | 2.8V | 07:34:28 | 02:18:26 | 00:00:00 | |
| DJ2DS-15 | 2026-09-01 08:56:03 | 52.80645 | 8.85432 | 95° | 49km/h | 1506m | -4.2m/s | 7.6°C | 84.5% | 853.4hPa | 2.8V | 00:00:00 | 02:18:26 | 00:00:00 | |
| DM0DOS-11 | 2026-09-01 08:56:01 | 52.80648 | 8.85370 | 95° | 49km/h | 1518m | -4m/s | 7.6°C | 87.1% | 852.2hPa | 2.8V | 07:33:47 | 02:18:23 | 00:00:00 | |
| DL1XH-west | 2026-09-01 08:56:01 | 52.80647 | 8.85391 | 94° | 49km/h | 1514m | -4.1m/s | 7.6°C | 89% | 852.8hPa | 2.8V | 07:34:28 | 02:18:24 | 00:00:00 | |
| DL1XH-west | 2026-09-01 08:55:59 | 52.80649 | 8.85349 | 95° | 51km/h | 1522m | -3.8m/s | 7.6°C | 90% | 852hPa | 2.7V | 07:34:28 | 02:18:22 | 00:00:00 | |
| DL1XH-west | 2026-09-01 08:55:58 | 52.80650 | 8.85328 | 95° | 51km/h | 1526m | -3.9m/s | 7.5°C | 90.1% | 851.5hPa | 2.7V | 07:34:28 | 02:18:21 | 00:00:00 | |
| DL1XH-west | 2026-09-01 08:55:56 | 52.80653 | 8.85286 | 96° | 51km/h | 1533m | -4.1m/s | 7.5°C | 90.5% | 850.6hPa | 2.7V | 07:34:28 | 02:18:19 | 00:00:00 | |
| DM0DOS-11 | 2026-09-01 08:55:55 | 52.80656 | 8.85244 | 96° | 51km/h | 1542m | -3.9m/s | 7.3°C | 88.6% | 849.8hPa | 2.7V | 07:33:53 | 02:18:17 | 00:00:00 | |
| DB0DAN | 2026-09-01 08:55:55 | 52.80654 | 8.85265 | 96° | 49km/h | 1538m | -4m/s | 7.4°C | 87.1% | 850.29hPa | 2.8V | 00:00:00 | 00:00:00 | 00:00:00 | |
| DL1XH-west | 2026-09-01 08:55:54 | 52.80656 | 8.85244 | 97° | 51km/h | 1542m | -3.9m/s | 7.3°C | 90.5% | 849.8hPa | 2.7V | 07:34:28 | 02:18:17 | 00:00:00 | |
| BIOWL1-15 | 2026-09-01 08:55:53 | 52.80657 | 8.85223 | 97° | 51km/h | 1546m | -4m/s | 7.3°C | 90.5% | 849.5hPa | 2.7V | 07:34:28 | 02:18:16 | 00:00:00 | |
| DL1XH-west | 2026-09-01 08:55:51 | 52.80660 | 8.85180 | 97° | 51km/h | 1553m | -3.4m/s | 7.2°C | 90.7% | 848.6hPa | 2.8V | 07:34:28 | 02:18:14 | 00:00:00 | |
| DL1XH-west | 2026-09-01 08:55:50 | 52.80661 | 8.85159 | 97° | 49km/h | 1557m | -4m/s | 7.2°C | 90.9% | 848.4hPa | 2.8V | 07:34:28 | 02:18:13 | 00:00:00 | |
| DM0DOS-11 | 2026-09-01 08:55:49 | 52.80664 | 8.85118 | 96° | 51km/h | 1565m | -3.8m/s | 7.1°C | 89.4% | 847.4hPa | 2.7V | 07:33:59 | 02:18:11 | 00:00:00 | |
| DM0DOS-11 | 2026-09-01 08:55:49 | 52.80670 | 8.85032 | 97° | 51km/h | 1580m | -3.9m/s | 7.2°C | 88.1% | 845.8hPa | 2.7V | 07:34:03 | 02:18:07 | 00:00:00 | |
| DL1XH-west | 2026-09-01 08:55:49 | 52.80662 | 8.85139 | 96° | 51km/h | 1561m | -3.8m/s | 7.1°C | 91% | 848hPa | 2.8V | 07:34:28 | 02:18:12 | 00:00:00 | |
| BIOWL1-15 | 2026-09-01 08:55:47 | 52.80667 | 8.85075 | 97° | 51km/h | 1572m | -4.1m/s | 7.2°C | 90.8% | 846.7hPa | 2.7V | 07:34:28 | 02:18:09 | 00:00:00 | |
| DL1XH-west | 2026-09-01 08:55:47 | 52.80665 | 8.85097 | 97° | 51km/h | 1568m | -3.8m/s | 7.1°C | 90.9% | 847.1hPa | 2.7V | 07:34:28 | 02:18:10 | 00:00:00 | |
| DL1XH-west | 2026-09-01 08:55:45 | 52.80668 | 8.85054 | 97° | 51km/h | 1576m | -4m/s | 7.2°C | 90.3% | 846.3hPa | 2.7V | 07:34:28 | 02:18:08 | 00:00:00 | |
| DL1XH-west | 2026-09-01 08:55:43 | 52.80672 | 8.85011 | 98° | 53km/h | 1584m | -4m/s | 7.1°C | 89.6% | 845.5hPa | 2.6V | 07:34:28 | 02:18:06 | 00:00:00 | |
| DL1XH-west | 2026-09-01 08:55:42 | 52.80673 | 8.84989 | 97° | 53km/h | 1588m | -4.1m/s | 7.1°C | 89.7% | 845hPa | 2.7V | 07:34:28 | 02:18:05 | 00:00:00 | |
| BIOWL1-15 | 2026-09-01 08:55:41 | 52.80675 | 8.84967 | 97° | 53km/h | 1592m | -3.8m/s | 7.1°C | 89.6% | 844.6hPa | 2.8V | 07:34:28 | 02:18:04 | 00:00:00 | |
| DB0DAN | 2026-09-01 08:55:40 | 52.80677 | 8.84946 | 98° | 49km/h | 1596m | -3.7m/s | 7.1°C | 85.7% | 844.19hPa | 2.7V | 00:00:00 | 00:00:00 | 00:00:00 | |
| DL1XH-west | 2026-09-01 08:55:40 | 52.80677 | 8.84946 | 98° | 53km/h | 1596m | -3.7m/s | 7.1°C | 89.3% | 844.2hPa | 2.7V | 07:34:28 | 02:18:03 | 00:00:00 | |
| DL1XH-west | 2026-09-01 08:55:39 | 52.80678 | 8.84924 | 97° | 53km/h | 1600m | -4m/s | 7°C | 88.5% | 843.9hPa | 2.7V | 07:34:28 | 02:18:02 | 00:00:00 | |
| DL1XH-west | 2026-09-01 08:55:37 | 52.80681 | 8.84881 | 97° | 51km/h | 1608m | -3.6m/s | 7°C | 88.6% | 843.1hPa | 2.8V | 07:34:28 | 02:18:00 | 00:00:00 | |
| BIOWL1-15 | 2026-09-01 08:55:36 | 52.80683 | 8.84860 | 98° | 51km/h | 1611m | -4.2m/s | 7°C | 88.2% | 842.6hPa | 2.7V | 07:34:28 | 02:17:59 | 00:00:00 | |
| DL1XH-west | 2026-09-01 08:55:35 | 52.80685 | 8.84838 | 97° | 51km/h | 1615m | -3.8m/s | 7°C | 88% | 842.4hPa | 2.7V | 07:34:28 | 02:17:58 | 00:00:00 | |
| DL1XH1-15 | 2026-09-01 08:55:34 | 52.80688 | 8.84796 | 96° | 51km/h | 1622m | -4m/s | 6.9°C | 86.4% | 841.4hPa | 2.7V | 07:34:14 | 02:17:56 | 00:00:00 | |
| BIOWL1-15 | 2026-09-01 08:55:34 | 52.80686 | 8.84817 | 98° | 51km/h | 1619m | -3.4m/s | 6.9°C | 88.2% | 841.8hPa | 2.7V | 07:34:28 | 02:17:57 | 00:00:00 | |
| DL1XH-west | 2026-09-01 08:55:33 | 52.80688 | 8.84796 | 97° | 51km/h | 1622m | -4m/s | 6.9°C | 88.4% | 841.4hPa | 2.7V | 07:34:28 | 02:17:56 | 00:00:00 | |
| DJ2DS-15 | 2026-09-01 08:55:33 | 52.80688 | 8.84796 | 97° | 51km/h | 1623m | -4.0m/s | 6.8°C | 86.4% | 841.4hPa | 2.7V | 00:00:00 | 02:17:56 | 00:00:00 | |
| DM0DOS-11 | 2026-09-01 08:55:31 | 52.80695 | 8.84689 | 96° | 53km/h | 1643m | -4m/s | 6.7°C | 87.4% | 839.5hPa | 2.7V | 07:34:19 | 02:17:51 | 00:00:00 | |
| DL1XH-west | 2026-09-01 08:55:31 | 52.80691 | 8.84753 | 95° | 51km/h | 1631m | -3.8m/s | 6.8°C | 89% | 840.7hPa | 2.7V | 07:34:28 | 02:17:54 | 00:00:00 | |
| DL1XH-west | 2026-09-01 08:55:30 | 52.80692 | 8.84732 | 96° | 51km/h | 1634m | -4m/s | 6.8°C | 89.2% | 840.4hPa | 2.8V | 07:34:28 | 02:17:53 | 00:00:00 | |
| DL1XH-west | 2026-09-01 08:55:29 | 52.80693 | 8.84710 | 97° | 53km/h | 1639m | -4.3m/s | 6.8°C | 89.5% | 839.9hPa | 2.8V | 07:34:28 | 02:17:52 | 00:00:00 | |
| DD8BA-10 | 2026-09-01 08:55:29 | 52.80693 | 8.84710 | 97° | 51km/h | 1639m | -4.3m/s | 6.7°C | 87.2% | 839.8hPa | 2.7V | 00:00:00 | 00:00:00 | 00:00:00 | |
| DL1XH1-15 | 2026-09-01 08:55:28 | 52.80699 | 8.84625 | 96° | 51km/h | 1655m | -3.9m/s | 6.6°C | 87.9% | 838.3hPa | 2.7V | 07:34:22 | 02:17:48 | 00:00:00 | |
| DL1XH1-15 | 2026-09-01 08:55:28 | 52.80702 | 8.84582 | 96° | 51km/h | 1662m | -4m/s | 6.6°C | 87.6% | 837.3hPa | 2.7V | 07:34:24 | 02:17:46 | 00:00:00 | |
| DL1XH-west | 2026-09-01 08:55:27 | 52.80696 | 8.84667 | 96° | 51km/h | 1647m | -4m/s | 6.7°C | 89.5% | 839hPa | 2.7V | 07:34:28 | 02:17:50 | 00:00:00 | |
| DL1XH-west | 2026-09-01 08:55:26 | 52.80698 | 8.84646 | 97° | 51km/h | 1651m | -4.2m/s | 6.7°C | 89.5% | 838.7hPa | 2.7V | 07:34:28 | 02:17:49 | 00:00:00 | |
| DB0DAN | 2026-09-01 08:55:25 | 52.80699 | 8.84625 | 97° | 49km/h | 1655m | -3.9m/s | 6.6°C | 86.1% | 838.28hPa | 2.7V | 00:00:00 | 00:00:00 | 00:00:00 | |
| BIOWL1-15 | 2026-09-01 08:55:25 | 52.80699 | 8.84625 | 97° | 51km/h | 1655m | -3.9m/s | 6.6°C | 89.6% | 838.3hPa | 2.7V | 07:34:28 | 02:17:48 | 00:00:00 | |
| DL1XH-west | 2026-09-01 08:55:24 | 52.80701 | 8.84603 | 96° | 51km/h | 1659m | -3.6m/s | 6.6°C | 89.6% | 837.9hPa | 2.7V | 07:34:28 | 02:17:47 | 00:00:00 | |
| DL1XH-west | 2026-09-01 08:55:23 | 52.80702 | 8.84582 | 97° | 51km/h | 1662m | -4m/s | 6.6°C | 89.4% | 837.4hPa | 2.7V | 07:34:28 | 02:17:46 | 00:00:00 | |
| DJ2DS-15 | 2026-09-01 08:55:23 | 52.80702 | 8.84582 | 97° | 53km/h | 1663m | -4.0m/s | 6.6°C | 87.6% | 837.3hPa | 2.7V | 00:00:00 | 02:17:46 | 00:00:00 | |
| DL1XH1-15 | 2026-09-01 08:55:22 | 52.80705 | 8.84538 | 97° | 53km/h | 1671m | -4.2m/s | 6.6°C | 87.7% | 836.7hPa | 2.7V | 07:34:26 | 02:17:44 | 00:00:00 | |
| BIOWL1-15 | 2026-09-01 08:55:22 | 52.80704 | 8.84560 | 97° | 53km/h | 1667m | -4.1m/s | 6.6°C | 89.2% | 837.2hPa | 2.7V | 07:34:28 | 02:17:45 | 00:00:00 | |
| DL1XH-west | 2026-09-01 08:55:21 | 52.80705 | 8.84538 | 97° | 53km/h | 1671m | -4.2m/s | 6.6°C | 89.2% | 836.7hPa | 2.7V | 07:34:28 | 02:17:44 | 00:00:00 | |
| BIOWL1-15 | 2026-09-01 08:55:20 | 52.80709 | 8.84495 | 97° | 53km/h | 1679m | -3.7m/s | 6.5°C | 89.2% | 835.9hPa | 2.7V | 07:34:28 | 02:17:42 | 00:00:00 | |
| DL1XH-west | 2026-09-01 08:55:20 | 52.80707 | 8.84516 | 97° | 53km/h | 1675m | -3.8m/s | 6.6°C | 89.3% | 836.2hPa | 2.7V | 07:34:28 | 02:17:43 | 00:00:00 | |
| DL1XH-west | 2026-09-01 08:55:18 | 52.80710 | 8.84473 | 97° | 53km/h | 1682m | -3.9m/s | 6.5°C | 89.1% | 835.5hPa | 2.7V | 07:35:19 | 02:17:41 | 00:00:00 | |
| BIOWL1-15 | 2026-09-01 08:55:16 | 52.80717 | 8.84384 | 98° | 53km/h | 1698m | -3.6m/s | 6.5°C | 88.5% | 833.8hPa | 2.7V | 07:35:19 | 02:17:37 | 00:00:00 | |
| DL1XH-west | 2026-09-01 08:55:16 | 52.80714 | 8.84429 | 98° | 53km/h | 1690m | -4m/s | 6.5°C | 88.7% | 834.5hPa | 2.7V | 07:35:19 | 02:17:39 | 00:00:00 | |
| DL1XH-west | 2026-09-01 08:55:15 | 52.80715 | 8.84407 | 98° | 53km/h | 1694m | -3.9m/s | 6.5°C | 88.6% | 834.2hPa | 2.7V | 07:35:19 | 02:17:38 | 00:00:00 | |
| DL1XH-west | 2026-09-01 08:55:13 | 52.80719 | 8.84362 | 97° | 55km/h | 1702m | -4m/s | 6.5°C | 88.8% | 833.5hPa | 2.7V | 07:35:19 | 02:17:36 | 00:00:00 | |
| DL1XH-west | 2026-09-01 08:55:11 | 52.80723 | 8.84317 | 98° | 55km/h | 1710m | -4.1m/s | 6.5°C | 89.1% | 832.6hPa | 2.7V | 07:35:19 | 02:17:34 | 00:00:00 | |
| DB0DAN | 2026-09-01 08:55:10 | 52.80725 | 8.84295 | 97° | 51km/h | 1714m | -4m/s | 6.4°C | 85.7% | 832.18hPa | 2.7V | 00:00:00 | 00:00:00 | 00:00:00 | |
| DL1XH-west | 2026-09-01 08:55:10 | 52.80725 | 8.84295 | 97° | 55km/h | 1714m | -4m/s | 6.4°C | 88.8% | 832.2hPa | 2.7V | 07:35:19 | 02:17:33 | 00:00:00 | |
| DL1XH-west | 2026-09-01 08:55:08 | 52.80728 | 8.84249 | 97° | 55km/h | 1722m | -3.8m/s | 6.5°C | 88.2% | 831.5hPa | 2.7V | 07:35:19 | 02:17:31 | 00:00:00 | |
| BIOWL1-15 | 2026-09-01 08:55:08 | 52.80736 | 8.84136 | 96° | 55km/h | 1741m | -4m/s | 6.5°C | 86.1% | 829.3hPa | 2.7V | 07:35:19 | 02:17:26 | 00:00:00 | |
| DL1XH-west | 2026-09-01 08:55:06 | 52.80731 | 8.84204 | 96° | 55km/h | 1729m | -3.8m/s | 6.5°C | 88.3% | 830.7hPa | 2.7V | 07:35:19 | 02:17:29 | 00:00:00 | |
| DL1XH1-15 | 2026-09-01 08:55:04 | 52.80739 | 8.84090 | 95° | 55km/h | 1749m | -3.8m/s | 6.5°C | 83.9% | 828.8hPa | 2.7V | 07:34:46 | 02:17:24 | 00:00:00 | |
| DL1XH1-15 | 2026-09-01 08:55:04 | 52.80742 | 8.84045 | 96° | 55km/h | 1756m | -4.1m/s | 6.5°C | 83.5% | 827.9hPa | 2.7V | 07:34:48 | 02:17:22 | 00:00:00 | |
| DL1XH-west | 2026-09-01 08:55:04 | 52.80734 | 8.84159 | 97° | 55km/h | 1737m | -3.8m/s | 6.5°C | 86.8% | 829.8hPa | 2.7V | 07:35:19 | 02:17:27 | 00:00:00 | |
| DL1XH-west | 2026-09-01 08:55:02 | 52.80737 | 8.84113 | 95° | 55km/h | 1745m | -4.1m/s | 6.5°C | 85.6% | 829hPa | 2.7V | 07:35:19 | 02:17:25 | 00:00:00 | |
| DL1XH-west | 2026-09-01 08:55:01 | 52.80739 | 8.84090 | 96° | 55km/h | 1749m | -3.8m/s | 6.5°C | 85.8% | 828.8hPa | 2.7V | 07:35:19 | 02:17:24 | 00:00:00 | |
| BIOWL1-15 | 2026-09-01 08:55:00 | 52.80740 | 8.84067 | 97° | 55km/h | 1753m | -3.8m/s | 6.5°C | 86% | 828.2hPa | 2.7V | 07:35:19 | 02:17:23 | 00:00:00 | |
| DL1XH-west | 2026-09-01 08:54:59 | 52.80742 | 8.84045 | 96° | 55km/h | 1757m | -4.1m/s | 6.5°C | 85.6% | 827.9hPa | 2.7V | 07:35:19 | 02:17:22 | 00:00:00 | |
| DD8BA-10 | 2026-09-01 08:54:59 | 52.80742 | 8.84045 | 97° | 55km/h | 1757m | -4.1m/s | 6.4°C | 83.5% | 827.9hPa | 2.7V | 00:00:00 | 00:00:00 | 00:00:00 | |
| DL1LOL-11 | 2026-09-01 08:54:58 | 52.80742 | 8.84045 | 97° | 55km/h | 1757m | -4.1m/s | 6.5°C | 81.8% | 827.9hPa | 2.7V | 00:00:00 | 00:00:00 | 00:00:00 | |
| DL1XH1-15 | 2026-09-01 08:54:58 | 52.80751 | 8.83907 | 96° | 55km/h | 1780m | -3.9m/s | 6.3°C | 82.6% | 825.6hPa | 2.7V | 07:34:54 | 02:17:16 | 00:00:00 | |
| BIOWL1-15 | 2026-09-01 08:54:58 | 52.80743 | 8.84022 | 96° | 55km/h | 1761m | -4.1m/s | 6.5°C | 84.9% | 827.6hPa | 2.7V | 07:35:19 | 02:17:21 | 00:00:00 | |
| BIOWL1-15 | 2026-09-01 08:54:57 | 52.80745 | 8.83999 | 97° | 55km/h | 1764m | -3.9m/s | 6.5°C | 84.8% | 827.1hPa | 2.7V | 07:35:19 | 02:17:20 | 00:00:00 | |
| DL1XH-west | 2026-09-01 08:54:56 | 52.80747 | 8.83976 | 97° | 57km/h | 1768m | -4.1m/s | 6.4°C | 84.8% | 826.8hPa | 2.7V | 07:35:19 | 02:17:19 | 00:00:00 | |
| DB0DAN | 2026-09-01 08:54:55 | 52.80748 | 8.83953 | 96° | 53km/h | 1772m | -3.8m/s | 6.4°C | 80.8% | 826.25hPa | 2.6V | 00:00:00 | 00:00:00 | 00:00:00 | |
| BIOWL1-15 | 2026-09-01 08:54:55 | 52.80748 | 8.83953 | 96° | 57km/h | 1772m | -3.8m/s | 6.4°C | 84.8% | 826.2hPa | 2.6V | 07:35:19 | 02:17:18 | 00:00:00 | |
| DL1XH-west | 2026-09-01 08:54:54 | 52.80750 | 8.83929 | 97° | 55km/h | 1776m | -4.1m/s | 6.4°C | 84.8% | 825.9hPa | 2.7V | 07:35:19 | 02:17:17 | 00:00:00 | |
| BIOWL1-15 | 2026-09-01 08:54:53 | 52.80751 | 8.83907 | 96° | 55km/h | 1780m | -3.9m/s | 6.4°C | 84.9% | 825.6hPa | 2.7V | 07:35:19 | 02:17:16 | 00:00:00 | |
| BIOWL9-15 | 2026-09-01 08:54:52 | 52.80753 | 8.83884 | 95° | 53km/h | 1784m | -4.2m/s | 6.3°C | 0% | 825.0hPa | 2.7V | 00:00:00 | 00:00:00 | 00:00:00 | |
| DL1XH1-15 | 2026-09-01 08:54:52 | 52.80754 | 8.83861 | 95° | 55km/h | 1788m | -4m/s | 6.3°C | 82.6% | 824.6hPa | 2.7V | 07:34:56 | 02:17:14 | 00:00:00 | |
| DL1XH-west | 2026-09-01 08:54:52 | 52.80753 | 8.83884 | 95° | 55km/h | 1784m | -4.2m/s | 6.3°C | 85% | 825hPa | 2.7V | 07:35:19 | 02:17:15 | 00:00:00 | |
| BIOWL1-15 | 2026-09-01 08:54:51 | 52.80754 | 8.83861 | 95° | 55km/h | 1788m | -4m/s | 6.3°C | 85% | 824.6hPa | 2.7V | 07:35:19 | 02:17:14 | 00:00:00 | |
| BIOWL1-15 | 2026-09-01 08:54:50 | 52.80755 | 8.83839 | 95° | 55km/h | 1793m | -4m/s | 6.3°C | 85.1% | 824.2hPa | 2.7V | 07:35:19 | 02:17:13 | 00:00:00 | |
| DM0DOS-11 | 2026-09-01 08:54:49 | 52.80758 | 8.83793 | 93° | 55km/h | 1800m | -4m/s | 6.3°C | 82.8% | 823.5hPa | 2.7V | 07:34:59 | 02:17:11 | 00:00:00 | |
| DM0DOS-11 | 2026-09-01 08:54:49 | 52.80759 | 8.83748 | 93° | 55km/h | 1808m | -4.1m/s | 6.2°C | 82.5% | 822.7hPa | 2.7V | 07:35:01 | 02:17:09 | 00:00:00 | |
| DL1XH-west | 2026-09-01 08:54:49 | 52.80756 | 8.83816 | 96° | 55km/h | 1796m | -3.8m/s | 6.3°C | 85.2% | 823.9hPa | 2.7V | 07:35:19 | 02:17:12 | 00:00:00 | |
| BIOWL1-15 | 2026-09-01 08:54:48 | 52.80757 | 8.83793 | 93° | 55km/h | 1800m | -4m/s | 6.3°C | 85.4% | 823.5hPa | 2.7V | 07:35:19 | 02:17:11 | 00:00:00 | |
| DL1XH-west | 2026-09-01 08:54:47 | 52.80758 | 8.83771 | 94° | 53km/h | 1804m | -4.2m/s | 6.3°C | 85.4% | 823.1hPa | 2.7V | 07:35:19 | 02:17:10 | 00:00:00 | |
| DL1XH1-15 | 2026-09-01 08:54:46 | 52.80764 | 8.83632 | 94° | 57km/h | 1829m | -4.2m/s | 6.2°C | 82.6% | 820.7hPa | 2.7V | 07:35:06 | 02:17:04 | 00:00:00 | |
| DL1XH-west | 2026-09-01 08:54:46 | 52.80759 | 8.83748 | 94° | 55km/h | 1808m | -4.1m/s | 6.3°C | 85.5% | 822.7hPa | 2.7V | 07:35:19 | 02:17:09 | 00:00:00 | |
| DL1XH-west | 2026-09-01 08:54:44 | 52.80761 | 8.83702 | 93° | 55km/h | 1817m | -4.2m/s | 6.2°C | 85.3% | 821.8hPa | 2.6V | 07:35:19 | 02:17:07 | 00:00:00 | |
| DL1XH-west | 2026-09-01 08:54:42 | 52.80763 | 8.83656 | 95° | 57km/h | 1825m | -4.3m/s | 6.2°C | 85.1% | 821hPa | 2.7V | 07:35:19 | 02:17:05 | 00:00:00 | |
| BIOWL1-15 | 2026-09-01 08:54:42 | 52.80767 | 8.83585 | 96° | 57km/h | 1837m | -4m/s | 6.1°C | 85.9% | 819.8hPa | 2.7V | 07:35:19 | 02:17:02 | 00:00:00 | |
| DL1XH-west | 2026-09-01 08:54:41 | 52.80764 | 8.83632 | 95° | 57km/h | 1829m | -4.2m/s | 6.2°C | 85.4% | 820.7hPa | 2.7V | 07:35:19 | 02:17:04 | 00:00:00 | |
| DB0DAN | 2026-09-01 08:54:40 | 52.80766 | 8.83609 | 95° | 53km/h | 1833m | -3.8m/s | 6.2°C | 81.2% | 820.15hPa | 2.7V | 00:00:00 | 00:00:00 | 00:00:00 | |
| DL1XH-west | 2026-09-01 08:54:40 | 52.80766 | 8.83609 | 95° | 57km/h | 1833m | -3.8m/s | 6.2°C | 85.8% | 820.1hPa | 2.7V | 07:35:19 | 02:17:03 | 00:00:00 | |
| DL1XH-west | 2026-09-01 08:54:38 | 52.80768 | 8.83562 | 94° | 57km/h | 1842m | -4.2m/s | 6.1°C | 86% | 819.3hPa | 2.7V | 07:35:19 | 02:17:01 | 00:00:00 | |
| DL1XH-west | 2026-09-01 08:54:36 | 52.80770 | 8.83515 | 94° | 55km/h | 1850m | -4m/s | 6°C | 85.9% | 818.6hPa | 2.7V | 07:35:19 | 02:16:59 | 00:00:00 | |
| DL1XH1-15 | 2026-09-01 08:54:34 | 52.80774 | 8.83401 | 93° | 55km/h | 1869m | -4.2m/s | 6°C | 83.2% | 816.5hPa | 2.7V | 07:35:16 | 02:16:54 | 00:00:00 | |
| DL1XH-west | 2026-09-01 08:54:34 | 52.80772 | 8.83469 | 93° | 55km/h | 1857m | -3.9m/s | 6°C | 86.1% | 817.8hPa | 2.6V | 07:35:19 | 02:16:57 | 00:00:00 | |
| DL1XH-west | 2026-09-01 08:54:33 | 52.80773 | 8.83446 | 93° | 55km/h | 1861m | -4.1m/s | 6°C | 86.1% | 817.4hPa | 2.7V | 07:35:19 | 02:16:56 | 00:00:00 | |
| DL1XH-west | 2026-09-01 08:54:31 | 52.80774 | 8.83401 | 94° | 55km/h | 1869m | -4.2m/s | 6°C | 85.9% | 816.5hPa | 2.7V | 07:35:19 | 02:16:54 | 00:00:00 | |
| DL1XH-west | 2026-09-01 08:54:29 | 52.80776 | 8.83355 | 94° | 55km/h | 1878m | -3.9m/s | 5.9°C | 86.1% | 815.7hPa | 2.7V | 07:35:19 | 02:16:52 | 00:00:00 | |
| DL1XH1-15 | 2026-09-01 08:54:28 | 52.80780 | 8.83213 | 91° | 57km/h | 1902m | -4.1m/s | 5.8°C | 84.5% | 813.3hPa | 2.6V | 07:35:24 | 02:16:46 | 00:00:00 | |
| DL1XH-west | 2026-09-01 08:54:28 | 52.80777 | 8.83331 | 94° | 57km/h | 1882m | -3.9m/s | 5.9°C | 86.6% | 815.4hPa | 2.6V | 07:35:19 | 02:16:51 | 00:00:00 | |
| DL1XH-west | 2026-09-01 08:54:27 | 52.80778 | 8.83308 | 93° | 57km/h | 1886m | -4.3m/s | 5.9°C | 86.7% | 815hPa | 2.7V | 07:36:10 | 02:16:50 | 00:00:00 | |
| DL1XH-west | 2026-09-01 08:54:26 | 52.80779 | 8.83284 | 93° | 57km/h | 1890m | -4.2m/s | 5.8°C | 86.6% | 814.4hPa | 2.7V | 07:36:10 | 02:16:49 | 00:00:00 | |
| BIOWL1-15 | 2026-09-01 08:54:25 | 52.80780 | 8.83213 | 92° | 57km/h | 1902m | -4.1m/s | 5.8°C | 87.1% | 813.3hPa | 2.6V | 07:36:10 | 02:16:46 | 00:00:00 | |
| DB0DAN | 2026-09-01 08:54:25 | 52.80779 | 8.83260 | 93° | 55km/h | 1894m | -4.1m/s | 5.8°C | 82.7% | 814.02hPa | 2.7V | 00:00:00 | 00:00:00 | 00:00:00 | |
| DL1XH-west | 2026-09-01 08:54:24 | 52.80780 | 8.83237 | 93° | 58km/h | 1898m | -4m/s | 5.8°C | 87.1% | 813.7hPa | 2.7V | 07:36:10 | 02:16:47 | 00:00:00 | |
| DL1XH-west | 2026-09-01 08:54:22 | 52.80781 | 8.83189 | 92° | 57km/h | 1907m | -4.4m/s | 5.7°C | 86.8% | 812.9hPa | 2.7V | 07:36:10 | 02:16:45 | 00:00:00 | |
| DL1XH-west | 2026-09-01 08:54:21 | 52.80781 | 8.83165 | 92° | 57km/h | 1911m | -4.5m/s | 5.7°C | 86.1% | 812.5hPa | 2.7V | 07:36:10 | 02:16:44 | 00:00:00 | |
| BIOWL1-15 | 2026-09-01 08:54:20 | 52.80782 | 8.83141 | 91° | 57km/h | 1915m | -4m/s | 5.7°C | 85.9% | 812.1hPa | 2.7V | 07:36:10 | 02:16:43 | 00:00:00 | |
| BUE01 | 2026-09-01 08:54:20 | 52.80784 | 8.83048 | 91° | 55km/h | 1932m | -4.3m/s | 5.7°C | 80.5% | 810.4hPa | 2.7V | 00:00:00 | 00:00:00 | 00:00:00 | |
| DM0DOS-11 | 2026-09-01 08:54:19 | 52.80785 | 8.83002 | 92° | 57km/h | 1940m | -4.5m/s | 5.6°C | 82.1% | 809.5hPa | 2.7V | 07:35:33 | 02:16:37 | 00:00:00 | |
| DL1XH-west | 2026-09-01 08:54:19 | 52.80782 | 8.83118 | 92° | 57km/h | 1919m | -4.2m/s | 5.7°C | 85.5% | 811.7hPa | 2.7V | 07:36:10 | 02:16:42 | 00:00:00 | |
| BIOWL1-15 | 2026-09-01 08:54:18 | 52.80783 | 8.83095 | 92° | 57km/h | 1924m | -4.2m/s | 5.7°C | 85.1% | 811.2hPa | 2.6V | 07:36:10 | 02:16:41 | 00:00:00 | |
| BIOWL1-15 | 2026-09-01 08:54:17 | 52.80783 | 8.83071 | 92° | 55km/h | 1928m | -3.7m/s | 5.7°C | 84.8% | 810.9hPa | 2.7V | 07:36:10 | 02:16:40 | 00:00:00 | |
| DL1XH1-15 | 2026-09-01 08:54:16 | 52.80785 | 8.82979 | 90° | 57km/h | 1945m | -4.2m/s | 5.6°C | 82.5% | 809.1hPa | 2.7V | 07:35:34 | 02:16:36 | 00:00:00 | |
| DL1XH1-15 | 2026-09-01 08:54:16 | 52.80786 | 8.82932 | 91° | 57km/h | 1953m | -4.4m/s | 5.5°C | 82.8% | 808.2hPa | 2.7V | 07:35:36 | 02:16:34 | 00:00:00 | |
| DL1XH-west | 2026-09-01 08:54:16 | 52.80784 | 8.83048 | 92° | 55km/h | 1932m | -4.3m/s | 5.7°C | 85.3% | 810.4hPa | 2.7V | 07:36:10 | 02:16:39 | 00:00:00 | |
| DL1XH-west | 2026-09-01 08:54:14 | 52.80785 | 8.83002 | 93° | 57km/h | 1940m | -4.6m/s | 5.6°C | 85.5% | 809.5hPa | 2.7V | 07:36:10 | 02:16:37 | 00:00:00 | |
| DM0DOS-11 | 2026-09-01 08:54:13 | 52.80786 | 8.82956 | 92° | 55km/h | 1949m | -4.3m/s | 5.6°C | 82.8% | 808.7hPa | 2.7V | 07:35:35 | 02:16:35 | 00:00:00 | |
| DM0DOS-11 | 2026-09-01 08:54:13 | 52.80787 | 8.82909 | 91° | 57km/h | 1958m | -4.2m/s | 5.5°C | 82.8% | 807.8hPa | 2.7V | 07:35:37 | 02:16:33 | 00:00:00 | |
| DM0DOS-11 | 2026-09-01 08:54:13 | 52.80787 | 8.82863 | 91° | 55km/h | 1967m | -4.3m/s | 5.5°C | 83.3% | 807.1hPa | 2.6V | 07:35:39 | 02:16:31 | 00:00:00 | |
| BIOWL1-15 | 2026-09-01 08:54:13 | 52.80785 | 8.82979 | 91° | 57km/h | 1945m | -4.2m/s | 5.6°C | 85.7% | 809.1hPa | 2.7V | 07:36:10 | 02:16:36 | 00:00:00 | |
| DL1XH-west | 2026-09-01 08:54:12 | 52.80786 | 8.82956 | 92° | 55km/h | 1949m | -4.4m/s | 5.6°C | 85.9% | 808.7hPa | 2.7V | 07:36:10 | 02:16:35 | 00:00:00 | |
| BIOWL1-15 | 2026-09-01 08:54:11 | 52.80786 | 8.82932 | 92° | 57km/h | 1953m | -4.4m/s | 5.6°C | 85.9% | 808.2hPa | 2.7V | 07:36:10 | 02:16:34 | 00:00:00 | |
| DL4XJ-10 | 2026-09-01 08:54:11 | 52.80786 | 8.82932 | 92° | 55km/h | 1953m | -4.4m/s | 6.8°C | 0% | 0hPa | 2.7V | 00:00:00 | 00:00:00 | 00:00:00 | |
| DL1XH1-15 | 2026-09-01 08:54:10 | 52.80787 | 8.82886 | 91° | 55km/h | 1962m | -4.6m/s | 5.5°C | 83.2% | 807.3hPa | 2.7V | 07:35:38 | 02:16:32 | 00:00:00 | |
| DL1XH1-15 | 2026-09-01 08:54:10 | 52.80788 | 8.82840 | 91° | 55km/h | 1971m | -4.3m/s | 5.5°C | 83.2% | 806.6hPa | 2.7V | 07:35:40 | 02:16:30 | 00:00:00 | |
| DL1XH-west | 2026-09-01 08:54:10 | 52.80787 | 8.82909 | 91° | 57km/h | 1958m | -4.2m/s | 5.5°C | 85.9% | 807.8hPa | 2.7V | 07:36:10 | 02:16:33 | 00:00:00 | |
| DB0DAN | 2026-09-01 08:54:10 | 52.80787 | 8.82909 | 91° | 53km/h | 1958m | -4.2m/s | 5.5°C | 81% | 807.78hPa | 2.7V | 00:00:00 | 00:00:00 | 00:00:00 | |
| BIOWL1-15 | 2026-09-01 08:54:09 | 52.80787 | 8.82886 | 92° | 55km/h | 1962m | -4.6m/s | 5.5°C | 86.2% | 807.3hPa | 2.7V | 07:36:10 | 02:16:32 | 00:00:00 | |
| DL1XH-west | 2026-09-01 08:54:08 | 52.80787 | 8.82863 | 92° | 55km/h | 1967m | -4.3m/s | 5.5°C | 86.3% | 807.1hPa | 2.6V | 07:36:10 | 02:16:31 | 00:00:00 | |
| DJ2DS-15 | 2026-09-01 08:54:08 | 52.80787 | 8.82863 | 92° | 55km/h | 1967m | -4.2m/s | 5.4°C | 83.3% | 807.0hPa | 2.7V | 00:00:00 | 02:16:31 | 00:00:00 | |
| DN9WHV | 2026-09-01 08:54:07 | 52.80787 | 8.82862 | 93° | 55km/h | 1967m | -4.3m/s | 5.5°C | 81.5% | 807.1hPa | 2.7V | 07:36:00 | 00:00:00 | 00:00:00 | |
| DM0DOS-11 | 2026-09-01 08:54:07 | 52.80789 | 8.82772 | 92° | 55km/h | 1983m | -3.9m/s | 5.4°C | 82.4% | 805.5hPa | 2.7V | 07:35:43 | 02:16:27 | 00:00:00 | |
| DM0DOS-11 | 2026-09-01 08:54:07 | 52.80791 | 8.82727 | 93° | 53km/h | 1991m | -3.6m/s | 5.3°C | 82.1% | 804.5hPa | 2.7V | 07:35:45 | 02:16:25 | 00:00:00 | |
| BIOWL1-15 | 2026-09-01 08:54:06 | 52.80789 | 8.82772 | 93° | 55km/h | 1983m | -3.9m/s | 5.4°C | 85.3% | 805.5hPa | 2.7V | 07:36:10 | 02:16:27 | 00:00:00 | |
| DL1XH-west | 2026-09-01 08:54:06 | 52.80788 | 8.82817 | 92° | 55km/h | 1975m | -3.9m/s | 5.5°C | 85.4% | 806.2hPa | 2.7V | 07:36:10 | 02:16:29 | 00:00:00 | |
| DL1XH-west | 2026-09-01 08:54:05 | 52.80789 | 8.82794 | 93° | 55km/h | 1979m | -4.2m/s | 5.4°C | 85.3% | 805.8hPa | 2.7V | 07:36:10 | 02:16:28 | 00:00:00 | |
| DL1LOL-11 | 2026-09-01 08:54:04 | 52.80789 | 8.82794 | 94° | 55km/h | 1979m | -4.2m/s | 5.4°C | 80.6% | 805.8hPa | 2.7V | 07:36:00 | 00:00:00 | 00:00:00 | |
| DN9WHV | 2026-09-01 08:54:04 | 52.80789 | 8.82794 | 94° | 55km/h | 1979m | -4.2m/s | 5.4°C | 80.6% | 805.8hPa | 2.7V | 07:36:00 | 00:00:00 | 00:00:00 | |
| DL1XH1-15 | 2026-09-01 08:54:04 | 52.80790 | 8.82749 | 93° | 53km/h | 1987m | -3.8m/s | 5.4°C | 82% | 804.9hPa | 2.7V | 07:35:44 | 02:16:26 | 00:00:00 | |
| DL1XH1-15 | 2026-09-01 08:54:04 | 52.80791 | 8.82704 | 92° | 55km/h | 1995m | -4.1m/s | 5.3°C | 82.2% | 804.1hPa | 2.7V | 07:35:46 | 02:16:24 | 00:00:00 | |
| DL1XH1-15 | 2026-09-01 08:54:04 | 52.80793 | 8.82659 | 93° | 53km/h | 2002m | -3.8m/s | 5.2°C | 82.2% | 803.4hPa | 2.6V | 07:35:48 | 02:16:22 | 00:00:00 | |
| DL1XH-west | 2026-09-01 08:54:03 | 52.80790 | 8.82749 | 93° | 53km/h | 1987m | -3.8m/s | 5.4°C | 85% | 804.9hPa | 2.7V | 07:36:10 | 02:16:26 | 00:00:00 | |
| DL1XH-west | 2026-09-01 08:54:02 | 52.80791 | 8.82727 | 93° | 53km/h | 1991m | -3.6m/s | 5.3°C | 85.1% | 804.5hPa | 2.7V | 07:36:10 | 02:16:25 | 00:00:00 | |
| BIOWL7-15 | 2026-09-01 08:54:01 | 52.80791 | 8.82727 | 94° | 53km/h | 1991m | -3.6m/s | 5.3°C | 80.3% | 804.5hPa | 2.6V | 07:36:00 | 00:00:00 | 00:00:00 | |
| DN9WHV | 2026-09-01 08:54:01 | 52.80791 | 8.82727 | 94° | 53km/h | 1991m | -3.6m/s | 5.3°C | 80.3% | 804.5hPa | 2.6V | 07:36:00 | 00:00:00 | 00:00:00 | |
| DM0DOS-11 | 2026-09-01 08:54:01 | 52.80792 | 8.82682 | 92° | 55km/h | 1999m | -3.8m/s | 5.3°C | 82.4% | 803.8hPa | 2.6V | 07:35:47 | 02:16:23 | 00:00:00 | |
| DL1XH-west | 2026-09-01 08:54:01 | 52.80791 | 8.82704 | 92° | 55km/h | 1995m | -4.1m/s | 5.3°C | 85.3% | 804.1hPa | 2.7V | 07:36:10 | 02:16:24 | 00:00:00 | |
| BIOWL1-15 | 2026-09-01 08:54:00 | 52.80792 | 8.82682 | 92° | 55km/h | 1999m | -3.8m/s | 5.3°C | 85.5% | 803.8hPa | 2.6V | 07:36:10 | 02:16:23 | 00:00:00 | |
| DL1XH-west | 2026-09-01 08:53:59 | 52.80792 | 8.82659 | 93° | 53km/h | 2003m | -3.8m/s | 5.2°C | 85.4% | 803.4hPa | 2.6V | 07:36:10 | 02:16:22 | 00:00:00 | |
| DD8BA-10 | 2026-09-01 08:53:59 | 52.80792 | 8.82659 | 94° | 53km/h | 2003m | -3.7m/s | 5.2°C | 82.2% | 803.3hPa | 2.7V | 00:00:00 | 00:00:00 | 00:00:00 | |
| DL1XH-15 | 2026-09-01 08:53:58 | 52.80795 | 8.82524 | 91° | 53km/h | 2028m | -4.5m/s | 5°C | 83.2% | 800.8hPa | 2.7V | 07:35:54 | 02:16:16 | 00:00:00 | |
| DJ2DS-15 | 2026-09-01 08:53:58 | 52.80793 | 8.82637 | 92° | 53km/h | 2006m | -4.3m/s | 5.1°C | 82.4% | 803.0hPa | 2.7V | 00:00:00 | 02:16:21 | 00:00:00 | |
| DM0DOS-11 | 2026-09-01 08:53:56 | 52.80795 | 8.82480 | 92° | 53km/h | 2037m | -4.5m/s | 4.9°C | 83.5% | 800hPa | 2.7V | 07:35:56 | 02:16:14 | 00:00:00 | |
| DB0DAN | 2026-09-01 08:53:55 | 52.80794 | 8.82569 | 92° | 51km/h | 2019m | -4.7m/s | 5.1°C | 81% | 801.62hPa | 2.7V | 00:00:00 | 00:00:00 | 00:00:00 | |
| DL1XH1-15 | 2026-09-01 08:53:54 | 52.80794 | 8.82547 | 90° | 55km/h | 2024m | -4.1m/s | 5°C | 82.9% | 801.3hPa | 2.6V | 07:35:53 | 02:16:17 | 00:00:00 | |
| DL1XH1-15 | 2026-09-01 08:53:54 | 52.80796 | 8.82436 | 92° | 53km/h | 2046m | -4.5m/s | 4.8°C | 84.1% | 799.2hPa | 2.7V | 07:35:58 | 02:16:12 | 00:00:00 | |
| DL1XH-15 | 2026-09-01 08:53:53 | 52.80796 | 8.82414 | 91° | 53km/h | 2050m | -4.3m/s | 4.8°C | 84% | 798.8hPa | 2.7V | 07:35:59 | 02:16:11 | 00:00:00 | |
| DN9WHV | 2026-09-01 08:53:52 | 52.80795 | 8.82502 | 93° | 53km/h | 2032m | -4.4m/s | 4.9°C | 81.7% | 800.4hPa | 2.6V | 07:36:00 | 00:00:00 | 00:00:00 | |
| DM0DOS-11 | 2026-09-01 08:53:51 | 52.80797 | 8.82370 | 91° | 51km/h | 2058m | -4.3m/s | 4.7°C | 84.3% | 798hPa | 2.6V | 07:36:01 | 02:16:09 | 00:00:00 | |
| BIOWL1-15 | 2026-09-01 08:53:50 | 52.80796 | 8.82458 | 90° | 53km/h | 2041m | -4.2m/s | 4.8°C | 87.4% | 799.6hPa | 2.7V | 07:36:10 | 02:16:13 | 00:00:00 | |
| DL1XH-west | 2026-09-01 08:53:49 | 52.80796 | 8.82436 | 92° | 53km/h | 2046m | -4.5m/s | 4.8°C | 87.4% | 799.2hPa | 2.7V | 07:36:10 | 02:16:12 | 00:00:00 | |
| DD8BA-10 | 2026-09-01 08:53:49 | 52.80796 | 8.82436 | 93° | 53km/h | 2046m | -4.4m/s | 4.8°C | 84.1% | 799.2hPa | 2.7V | 00:00:00 | 00:00:00 | 00:00:00 | |
| DL4BBY-15 | 2026-09-01 08:53:46 | 52.80797 | 8.82370 | 92° | 53km/h | 2058m | -4.3m/s | 6.0°C | 0% | 0hPa | 2.7V | 00:00:00 | 00:00:00 | 00:00:00 | |
| DL1XH-15 | 2026-09-01 08:53:45 | 52.80799 | 8.82239 | 90° | 51km/h | 2085m | -4.3m/s | 4.5°C | 85.2% | 795.4hPa | 2.7V | 07:36:07 | 02:16:03 | 00:00:00 | |
| DL1XH1-15 | 2026-09-01 08:53:44 | 52.80798 | 8.82327 | 90° | 51km/h | 2067m | -4.2m/s | 4.6°C | 84.5% | 797hPa | 2.7V | 07:36:03 | 02:16:07 | 00:00:00 | |
| DL1XH1-15 | 2026-09-01 08:53:44 | 52.80799 | 8.82218 | 90° | 51km/h | 2089m | -4.5m/s | 4.4°C | 85.4% | 795hPa | 2.7V | 07:36:08 | 02:16:02 | 00:00:00 | |
| BIOWL1-15 | 2026-09-01 08:53:42 | 52.80799 | 8.82239 | 90° | 53km/h | 2085m | -4.4m/s | 4.5°C | 88% | 795.4hPa | 2.7V | 07:36:10 | 02:16:03 | 00:00:00 | |
| DM0DOS-11 | 2026-09-01 08:53:41 | 52.80799 | 8.82261 | 91° | 53km/h | 2080m | -4.3m/s | 4.5°C | 85.2% | 795.8hPa | 2.7V | 07:36:06 | 02:16:04 | 00:00:00 | |
| DM0DOS-11 | 2026-09-01 08:53:41 | 52.80799 | 8.82151 | 90° | 53km/h | 2102m | -4.2m/s | 4.3°C | 85.6% | 793.5hPa | 2.6V | 07:36:11 | 02:15:59 | 00:00:00 | |
| DB0DAN | 2026-09-01 08:53:40 | 52.80799 | 8.82239 | 90° | 49km/h | 2085m | -4.4m/s | 4.5°C | 83.2% | 795.39hPa | 2.7V | 00:00:00 | 00:00:00 | 00:00:00 | |
| DL1XH-west | 2026-09-01 08:53:39 | 52.80799 | 8.82218 | 91° | 51km/h | 2089m | -4.5m/s | 4.4°C | 88.2% | 795hPa | 2.7V | 07:36:10 | 02:16:02 | 00:00:00 | |
| DD8BA-10 | 2026-09-01 08:53:39 | 52.80799 | 8.82218 | 91° | 53km/h | 2089m | -4.5m/s | 4.4°C | 85.4% | 794.9hPa | 2.7V | 00:00:00 | 00:00:00 | 00:00:00 | |
| DJ2DS-15 | 2026-09-01 08:53:38 | 52.80800 | 8.82174 | 90° | 53km/h | 2098m | -4.1m/s | 4.4°C | 83.5% | 794.0hPa | 2.7V | 00:00:00 | 00:00:00 | 00:00:00 | |
| DN9WHV | 2026-09-01 08:53:36 | 52.80799 | 8.82173 | 91° | 53km/h | 2098m | -4.1m/s | 4.4°C | 83.5% | 794.0hPa | 2.7V | 07:36:00 | 00:00:00 | 00:00:00 | |
| DL1XH1-15 | 2026-09-01 08:53:34 | 52.80799 | 8.81998 | 89° | 51km/h | 2132m | -4.3m/s | 4.1°C | 86.3% | 790.7hPa | 2.7V | 07:36:18 | 02:15:52 | 00:00:00 | |
| DN9WHV | 2026-09-01 08:53:33 | 52.80800 | 8.82107 | 91° | 53km/h | 2111m | -4.4m/s | 4.3°C | 83.8% | 792.9hPa | 2.7V | 07:37:00 | 00:00:00 | 00:00:00 | |
| DM0DOS-11 | 2026-09-01 08:53:31 | 52.80800 | 8.82042 | 89° | 53km/h | 2123m | -4.4m/s | 4.1°C | 86.2% | 791.5hPa | 2.7V | 07:36:16 | 02:15:54 | 00:00:00 | |
| DM0DOS-11 | 2026-09-01 08:53:31 | 52.80799 | 8.81933 | 89° | 51km/h | 2145m | -4.4m/s | 4°C | 86.5% | 789.5hPa | 2.7V | 07:36:21 | 02:15:49 | 00:00:00 | |
| DL1XH-west | 2026-09-01 08:53:29 | 52.80800 | 8.81998 | 90° | 51km/h | 2132m | -4.3m/s | 4.1°C | 89% | 790.7hPa | 2.7V | 07:37:01 | 02:15:52 | 00:00:00 | |
| DD8BA-10 | 2026-09-01 08:53:29 | 52.80799 | 8.81998 | 90° | 51km/h | 2132m | -4.3m/s | 4.0°C | 86.3% | 790.6hPa | 2.7V | 00:00:00 | 00:00:00 | 00:00:00 | |
| DN9WHV | 2026-09-01 08:53:27 | 52.80799 | 8.81977 | 90° | 51km/h | 2136m | -4.4m/s | 4.0°C | 84.3% | 790.3hPa | 2.7V | 07:37:00 | 00:00:00 | 00:00:00 | |
| DM0DOS-11 | 2026-09-01 08:53:26 | 52.80799 | 8.81825 | 90° | 53km/h | 2167m | -4.3m/s | 3.8°C | 87.3% | 787.3hPa | 2.7V | 07:36:26 | 02:15:44 | 00:00:00 | |
| DB0DAN | 2026-09-01 08:53:25 | 52.80799 | 8.81912 | 90° | 49km/h | 2150m | -4.3m/s | 3.9°C | 84.4% | 788.85hPa | 2.7V | 00:00:00 | 00:00:00 | 00:00:00 | |
| DL1XH1-15 | 2026-09-01 08:53:24 | 52.80799 | 8.81782 | 89° | 51km/h | 2175m | -4.7m/s | 3.7°C | 87.8% | 786.4hPa | 2.6V | 07:36:28 | 02:15:42 | 00:00:00 | |
| DN9WHV | 2026-09-01 08:53:23 | 52.80799 | 8.81890 | 92° | 51km/h | 2154m | -4.0m/s | 3.9°C | 84.7% | 788.6hPa | 2.7V | 07:37:00 | 00:00:00 | 00:00:00 | |
| DN9WHV | 2026-09-01 08:53:22 | 52.80799 | 8.81869 | 91° | 51km/h | 2158m | -4.4m/s | 3.8°C | 85.1% | 788.1hPa | 2.7V | 07:37:00 | 00:00:00 | 00:00:00 | |
| DM0DOS-11 | 2026-09-01 08:53:21 | 52.80799 | 8.81716 | 87° | 53km/h | 2189m | -4.4m/s | 3.6°C | 88.2% | 785.1hPa | 2.7V | 07:36:31 | 02:15:39 | 00:00:00 | |
| DL1XH-west | 2026-09-01 08:53:18 | 52.80799 | 8.81760 | 90° | 53km/h | 2180m | -4.6m/s | 3.6°C | 90.2% | 786hPa | 2.6V | 07:37:01 | 02:15:41 | 00:00:00 | |
| DJ2DS-15 | 2026-09-01 08:53:18 | 52.80799 | 8.81760 | 90° | 53km/h | 2180m | -4.5m/s | 3.6°C | 87.9% | 785.9hPa | 2.7V | 07:36:00 | 02:15:41 | 00:00:00 | |
| DM0DOS-11 | 2026-09-01 08:53:16 | 52.80796 | 8.81605 | 87° | 53km/h | 2212m | -4.5m/s | 3.4°C | 88.8% | 782.9hPa | 2.7V | 07:36:36 | 02:15:34 | 00:00:00 | |
| DL4BBY-15 | 2026-09-01 08:53:16 | 52.80799 | 8.81716 | 88° | 53km/h | 2189m | -4.4m/s | 4.8°C | 0% | 0hPa | 2.6V | 00:00:00 | 00:00:00 | 00:00:00 | |
| DL1XH1-15 | 2026-09-01 08:53:14 | 52.80795 | 8.81561 | 87° | 53km/h | 2221m | -4.5m/s | 3.2°C | 89.1% | 782.1hPa | 2.6V | 07:36:38 | 02:15:32 | 00:00:00 | |
| DL1XH-15 | 2026-09-01 08:53:13 | 52.80795 | 8.81539 | 88° | 51km/h | 2225m | -4.2m/s | 3.2°C | 89.3% | 781.8hPa | 2.7V | 07:36:39 | 02:15:31 | 00:00:00 | |
| DN9WHV | 2026-09-01 08:53:12 | 52.80797 | 8.81649 | 88° | 53km/h | 2203m | -4.4m/s | 3.4°C | 86.6% | 783.8hPa | 2.7V | 07:37:00 | 00:00:00 | 00:00:00 | |
| DM0DOS-11 | 2026-09-01 08:53:11 | 52.80794 | 8.81495 | 87° | 53km/h | 2234m | -4.5m/s | 3.2°C | 89.5% | 780.8hPa | 2.7V | 07:36:41 | 02:15:29 | 00:00:00 | |
| DB0DAN | 2026-09-01 08:53:10 | 52.80795 | 8.81583 | 89° | 51km/h | 2217m | -4.3m/s | 3.3°C | 86.9% | 782.44hPa | 2.6V | 00:00:00 | 00:00:00 | 00:00:00 | |
| BIOWL1-15 | 2026-09-01 08:53:08 | 52.80795 | 8.81539 | 89° | 51km/h | 2225m | -4.2m/s | 3.2°C | 91.3% | 781.8hPa | 2.7V | 07:37:01 | 02:15:31 | 00:00:00 | |
| DN9WHV | 2026-09-01 08:53:07 | 52.80795 | 8.81539 | 89° | 51km/h | 2225m | -4.2m/s | 3.2°C | 87.2% | 781.8hPa | 2.7V | 07:37:00 | 00:00:00 | 00:00:00 | |
| DN9WHV | 2026-09-01 08:53:06 | 52.80794 | 8.81517 | 89° | 53km/h | 2230m | -4.4m/s | 3.2°C | 87.2% | 781.2hPa | 2.7V | 07:37:00 | 00:00:00 | 00:00:00 | |
| DN9WHV | 2026-09-01 08:53:05 | 52.80794 | 8.81495 | 89° | 53km/h | 2234m | -4.5m/s | 3.2°C | 87.4% | 780.8hPa | 2.7V | 07:37:00 | 00:00:00 | 00:00:00 | |
| DL1XH1-15 | 2026-09-01 08:53:04 | 52.80789 | 8.81339 | 86° | 55km/h | 2266m | -4.6m/s | 2.9°C | 90.9% | 777.7hPa | 2.7V | 07:36:48 | 02:15:22 | 00:00:00 | |
| DN9WHV | 2026-09-01 08:53:03 | 52.80792 | 8.81451 | 89° | 53km/h | 2243m | -4.3m/s | 3.1°C | 87.8% | 779.9hPa | 2.7V | 07:37:00 | 00:00:00 | 00:00:00 | |
| DK9SH | 2026-09-01 08:53:02 | 52.80792 | 8.81429 | 88° | 53km/h | 2247m | -4.7m/s | 3.0°C | 88.2% | 779.5hPa | 2.7V | 07:37:00 | 00:00:00 | 00:00:00 | |
| DM0DOS-11 | 2026-09-01 08:53:01 | 52.80790 | 8.81384 | 85° | 53km/h | 2257m | -4.8m/s | 2.9°C | 90.5% | 778.7hPa | 2.7V | 07:36:46 | 02:15:24 | 00:00:00 | |
| DM0DOS-11 | 2026-09-01 08:53:01 | 52.80787 | 8.81272 | 87° | 53km/h | 2280m | -4.6m/s | 2.7°C | 91.4% | 776.4hPa | 2.6V | 07:36:51 | 02:15:19 | 00:00:00 | |
| DO2LYB-13 | 2026-09-01 08:52:59 | 52.80790 | 8.81362 | 88° | 55km/h | 2261m | -4.8m/s | 2.9°C | 88.4% | 778.2hPa | 2.7V | 00:00:00 | 00:00:00 | 00:00:00 | |
| DL1XH-15 | 2026-09-01 08:52:58 | 52.80788 | 8.81317 | 87° | 53km/h | 2271m | -4.4m/s | 2.8°C | 91% | 777.3hPa | 2.7V | 07:36:49 | 02:15:21 | 00:00:00 | |
| DL1XH-west | 2026-09-01 08:52:58 | 52.80788 | 8.81317 | 88° | 53km/h | 2271m | -4.4m/s | 2.8°C | 92.6% | 777.3hPa | 2.7V | 07:37:01 | 02:15:21 | 00:00:00 | |
| BIOWL1-15 | 2026-09-01 08:52:57 | 52.80788 | 8.81295 | 88° | 53km/h | 2275m | -4.5m/s | 2.8°C | 92.9% | 776.9hPa | 2.6V | 07:37:01 | 02:15:20 | 00:00:00 | |
| BIOWL7-15 | 2026-09-01 08:52:56 | 52.80788 | 8.81295 | 89° | 53km/h | 2275m | -4.5m/s | 2.8°C | 89.2% | 776.9hPa | 2.7V | 07:37:00 | 00:00:00 | 00:00:00 | |
| DB0DAN | 2026-09-01 08:52:55 | 52.80786 | 8.81250 | 89° | 51km/h | 2284m | -4.6m/s | 2.7°C | 89.4% | 775.85hPa | 2.7V | 00:00:00 | 00:00:00 | 00:00:00 | |
| DL1XH1-15 | 2026-09-01 08:52:54 | 52.80786 | 8.81227 | 89° | 53km/h | 2289m | -4.6m/s | 2.7°C | 91.8% | 775.6hPa | 2.7V | 07:36:53 | 02:15:17 | 00:00:00 | |
| DL1XH1-15 | 2026-09-01 08:52:54 | 52.80785 | 8.81116 | 88° | 53km/h | 2312m | -4.2m/s | 2.5°C | 92.9% | 773.4hPa | 2.7V | 07:36:58 | 02:15:12 | 00:00:00 | |
| DL1XH-15 | 2026-09-01 08:52:53 | 52.80785 | 8.81094 | 87° | 53km/h | 2316m | -4.5m/s | 2.4°C | 93.2% | 773hPa | 2.6V | 07:36:59 | 02:15:11 | 00:00:00 | |
| DL3AQ-11 | 2026-09-01 08:52:52 | 52.80786 | 8.81160 | 88° | 53km/h | 2302m | -4.6m/s | 2.5°C | 90.3% | 774.2hPa | 2.7V | 00:00:00 | 00:00:00 | 00:00:00 | |
| DM0DOS-11 | 2026-09-01 08:52:51 | 52.80786 | 8.81160 | 88° | 53km/h | 2303m | -4.6m/s | 2.5°C | 92.6% | 774.2hPa | 2.7V | 07:36:56 | 02:15:14 | 00:00:00 | |
| DM0DOS-11 | 2026-09-01 08:52:51 | 52.80783 | 8.81050 | 87° | 53km/h | 2325m | -4.7m/s | 2.3°C | 93.6% | 772hPa | 2.7V | 07:37:01 | 02:15:09 | 00:00:00 | |
| DL4XJ-10 | 2026-09-01 08:52:51 | 52.80786 | 8.81160 | 89° | 53km/h | 2303m | -4.5m/s | 3.8°C | 0% | 0hPa | 2.7V | 00:00:00 | 00:00:00 | 00:00:00 | |
| DN9WHV | 2026-09-01 08:52:50 | 52.80786 | 8.81160 | 90° | 53km/h | 2303m | -4.6m/s | 2.5°C | 90.3% | 774.2hPa | 2.7V | 07:37:00 | 00:00:00 | 00:00:00 | |
| DL1XH1-15 | 2026-09-01 08:52:49 | 52.80782 | 8.81006 | 86° | 53km/h | 2334m | -4.6m/s | 2.2°C | 94.1% | 771.1hPa | 2.7V | 07:37:03 | 02:15:07 | 00:00:00 | |
| BIOWL1-15 | 2026-09-01 08:52:49 | 52.80784 | 8.81072 | 88° | 53km/h | 2320m | -4.9m/s | 2.3°C | 94.4% | 772.4hPa | 2.6V | 07:37:01 | 02:15:10 | 00:00:00 | |
| DL1XH-west | 2026-09-01 08:52:48 | 52.80785 | 8.81094 | 87° | 53km/h | 2316m | -4.5m/s | 2.4°C | 94.3% | 773hPa | 2.6V | 07:37:01 | 02:15:11 | 00:00:00 | |
| BIOWL9-15 | 2026-09-01 08:52:48 | 52.80784 | 8.81072 | 87° | 51km/h | 2320m | -4.9m/s | 2.3°C | 91.0% | 772.4hPa | 2.7V | 00:00:00 | 00:00:00 | 00:00:00 | |
| BUE01 | 2026-09-01 08:52:47 | 52.80784 | 8.81050 | 87° | 51km/h | 2325m | -4.7m/s | 2.3°C | 91.2% | 772.0hPa | 2.7V | 00:00:00 | 00:00:00 | 00:00:00 | |
| DM0DOS-11 | 2026-09-01 08:52:46 | 52.80780 | 8.80940 | 86° | 53km/h | 2348m | -4.8m/s | 2.1°C | 94.7% | 769.8hPa | 2.7V | 07:37:06 | 02:15:04 | 00:00:00 | |
| DL4BBY-15 | 2026-09-01 08:52:46 | 52.80784 | 8.81050 | 88° | 53km/h | 2325m | -4.7m/s | 3.6°C | 0% | 0hPa | 2.6V | 00:00:00 | 00:00:00 | 00:00:00 | |
| DN9WHV | 2026-09-01 08:52:45 | 52.80783 | 8.81050 | 89° | 53km/h | 2325m | -4.7m/s | 2.3°C | 91.3% | 772.0hPa | 2.6V | 07:37:00 | 00:00:00 | 00:00:00 | |
| DL1XH1-15 | 2026-09-01 08:52:44 | 52.80779 | 8.80897 | 88° | 53km/h | 2358m | -4.8m/s | 2.1°C | 94% | 769hPa | 2.6V | 07:37:08 | 02:15:02 | 00:00:00 | |
| DL1XH-15 | 2026-09-01 08:52:43 | 52.80779 | 8.80875 | 87° | 53km/h | 2363m | -4.6m/s | 2.1°C | 93.6% | 768.6hPa | 2.7V | 07:37:09 | 02:15:01 | 00:00:00 | |
| DN9WHV | 2026-09-01 08:52:42 | 52.80782 | 8.80984 | 88° | 53km/h | 2339m | -4.8m/s | 2.2°C | 91.9% | 770.7hPa | 2.7V | 07:37:00 | 00:00:00 | 00:00:00 | |
| DM0DOS-11 | 2026-09-01 08:52:41 | 52.80778 | 8.80831 | 88° | 53km/h | 2371m | -4.6m/s | 2.1°C | 90.2% | 767.6hPa | 2.7V | 07:37:11 | 02:14:59 | 00:00:00 | |
| DB0DAN | 2026-09-01 08:52:40 | 52.80780 | 8.80918 | 88° | 49km/h | 2353m | -4.5m/s | 2.1°C | 92.3% | 769.45hPa | 2.6V | 00:00:00 | 00:00:00 | 00:00:00 | |
| DL1XH1-15 | 2026-09-01 08:52:39 | 52.80777 | 8.80787 | 87° | 53km/h | 2381m | -4.5m/s | 2.1°C | 86.6% | 766.8hPa | 2.7V | 07:37:13 | 02:14:57 | 00:00:00 | |
| DD8BA-10 | 2026-09-01 08:52:39 | 52.80779 | 8.80897 | 89° | 53km/h | 2358m | -4.7m/s | 2.0°C | 94.0% | 768.9hPa | 2.7V | 00:00:00 | 00:00:00 | 00:00:00 | |
| DL1XH-15 | 2026-09-01 08:52:38 | 52.80776 | 8.80766 | 88° | 51km/h | 2385m | -4.3m/s | 2.1°C | 86.6% | 766.3hPa | 2.7V | 07:37:14 | 02:14:56 | 00:00:00 | |
| BIOWL1-15 | 2026-09-01 08:52:37 | 52.80778 | 8.80853 | 87° | 51km/h | 2367m | -4.6m/s | 2.1°C | 93.8% | 768.2hPa | 2.7V | 07:37:52 | 02:15:00 | 00:00:00 | |
| DM0DOS-11 | 2026-09-01 08:52:36 | 52.80775 | 8.80722 | 86° | 51km/h | 2395m | -4.8m/s | 2°C | 86.8% | 765.5hPa | 2.6V | 07:37:16 | 02:14:54 | 00:00:00 | |
| DN9WHV | 2026-09-01 08:52:35 | 52.80778 | 8.80831 | 90° | 53km/h | 2372m | -4.6m/s | 2.1°C | 87.9% | 767.6hPa | 2.7V | 07:37:00 | 00:00:00 | 00:00:00 | |
| GOEST3-10 | 2026-09-01 08:52:34 | 52.80777 | 8.80787 | 88° | 53km/h | 2381m | -4.4m/s | 2.1°C | 86.6% | 766.7hPa | 2.7V | 00:00:00 | 00:00:00 | 00:00:00 | |
| DN9WHV | 2026-09-01 08:52:32 | 52.80776 | 8.80766 | 90° | 51km/h | 2385m | -4.3m/s | 2.1°C | 84.4% | 766.3hPa | 2.7V | 07:37:00 | 00:00:00 | 00:00:00 | |
| DL1XH-15 | 2026-09-01 08:52:31 | 52.80772 | 8.80614 | 88° | 51km/h | 2418m | -4.7m/s | 2°C | 88.8% | 763.2hPa | 2.7V | 07:37:21 | 02:14:49 | 00:00:00 | |
| DL4XJ-10 | 2026-09-01 08:52:31 | 52.80775 | 8.80722 | 87° | 53km/h | 2395m | -4.8m/s | 3.3°C | 0% | 0hPa | 2.7V | 00:00:00 | 00:00:00 | 00:00:00 | |
| DN9WHV | 2026-09-01 08:52:30 | 52.80775 | 8.80722 | 88° | 51km/h | 2395m | -4.8m/s | 2.0°C | 84.6% | 765.5hPa | 2.7V | 07:37:00 | 00:00:00 | 00:00:00 | |
| DL1XH1-15 | 2026-09-01 08:52:29 | 52.80774 | 8.80679 | 87° | 51km/h | 2404m | -4.9m/s | 2°C | 87.9% | 764.5hPa | 2.7V | 07:37:18 | 02:14:52 | 00:00:00 | |
| DL1XH1-15 | 2026-09-01 08:52:29 | 52.80771 | 8.80571 | 86° | 51km/h | 2427m | -4.5m/s | 2°C | 88.6% | 762.2hPa | 2.7V | 07:37:23 | 02:14:47 | 00:00:00 | |
| BIOWL1-15 | 2026-09-01 08:52:27 | 52.80773 | 8.80636 | 87° | 51km/h | 2414m | -4.6m/s | 2°C | 90.6% | 763.6hPa | 2.7V | 07:37:52 | 02:14:50 | 00:00:00 | |
| DL1XH-west | 2026-09-01 08:52:26 | 52.80772 | 8.80614 | 88° | 51km/h | 2418m | -4.7m/s | 2°C | 90.5% | 763.2hPa | 2.7V | 07:37:52 | 02:14:49 | 00:00:00 | |
| DB0DAN | 2026-09-01 08:52:25 | 52.80772 | 8.80593 | 87° | 49km/h | 2423m | -4.7m/s | 2°C | 86.3% | 762.68hPa | 2.7V | 00:00:00 | 00:00:00 | 00:00:00 | |
| DN9WHV | 2026-09-01 08:52:23 | 52.80771 | 8.80571 | 88° | 51km/h | 2428m | -4.5m/s | 2.0°C | 86.3% | 762.2hPa | 2.7V | 07:37:00 | 00:00:00 | 00:00:00 | |
| DO2LYB-13 | 2026-09-01 08:52:22 | 52.80770 | 8.80549 | 90° | 51km/h | 2432m | -4.7m/s | 2.0°C | 84.8% | 761.9hPa | 2.7V | 00:00:00 | 00:00:00 | 00:00:00 | |
| DL1XH-15 | 2026-09-01 08:52:21 | 52.80767 | 8.80396 | 87° | 53km/h | 2465m | -4.7m/s | 1.8°C | 85.4% | 758.9hPa | 2.7V | 07:37:31 | 02:14:39 | 00:00:00 | |
| DN9WHV | 2026-09-01 08:52:20 | 52.80770 | 8.80506 | 89° | 53km/h | 2442m | -4.6m/s | 1.9°C | 83.9% | 761.0hPa | 2.7V | 07:37:00 | 00:00:00 | 00:00:00 | |
| DL1XH1-15 | 2026-09-01 08:52:19 | 52.80769 | 8.80462 | 87° | 53km/h | 2451m | -4.6m/s | 1.9°C | 86.4% | 760.1hPa | 2.7V | 07:37:28 | 02:14:42 | 00:00:00 | |
| DL1XH1-15 | 2026-09-01 08:52:19 | 52.80766 | 8.80351 | 87° | 53km/h | 2474m | -4.8m/s | 1.8°C | 85.8% | 758hPa | 2.7V | 07:37:33 | 02:14:37 | 00:00:00 | |
| DL1XH-west | 2026-09-01 08:52:16 | 52.80767 | 8.80396 | 87° | 53km/h | 2465m | -4.7m/s | 1.8°C | 87.8% | 758.9hPa | 2.7V | 07:37:52 | 02:14:39 | 00:00:00 | |
| DL4BBY-15 | 2026-09-01 08:52:16 | 52.80767 | 8.80395 | 88° | 55km/h | 2465m | -4.7m/s | 3.1°C | 0% | 0hPa | 2.7V | 00:00:00 | 00:00:00 | 00:00:00 | |
| DN9WHV | 2026-09-01 08:52:15 | 52.80767 | 8.80395 | 88° | 53km/h | 2465m | -4.7m/s | 1.8°C | 83.2% | 758.9hPa | 2.7V | 07:37:00 | 00:00:00 | 00:00:00 | |
| DN9WHV | 2026-09-01 08:52:14 | 52.80766 | 8.80373 | 89° | 53km/h | 2470m | -4.8m/s | 1.8°C | 83.0% | 758.5hPa | 2.7V | 07:37:00 | 00:00:00 | 00:00:00 | |
| DL1LOL-11 | 2026-09-01 08:52:13 | 52.80766 | 8.80351 | 88° | 53km/h | 2475m | -4.8m/s | 1.8°C | 83.6% | 758.0hPa | 2.7V | 07:37:00 | 00:00:00 | 00:00:00 | |
| DL1CLM-18 | 2026-09-01 08:52:12 | 52.80765 | 8.80328 | 88° | 53km/h | 2479m | -4.6m/s | 1.8°C | 83.6% | 757.5hPa | 2.7V | 00:00:00 | 00:00:00 | 00:00:00 | |
| DM0DOS-11 | 2026-09-01 08:52:11 | 52.80763 | 8.80283 | 87° | 55km/h | 2489m | -4.7m/s | 1.7°C | 86.1% | 756.6hPa | 2.7V | 07:37:36 | 02:14:34 | 00:00:00 | |
| DM0DOS-11 | 2026-09-01 08:52:11 | 52.80760 | 8.80169 | 87° | 55km/h | 2513m | -5m/s | 1.5°C | 86.4% | 754.5hPa | 2.7V | 07:37:41 | 02:14:29 | 00:00:00 | |
| DB0DAN | 2026-09-01 08:52:10 | 52.80763 | 8.80260 | 87° | 53km/h | 2493m | -4.9m/s | 1.6°C | 84.1% | 756.12hPa | 2.6V | 00:00:00 | 00:00:00 | 00:00:00 | |
| DL1XH1-15 | 2026-09-01 08:52:09 | 52.80759 | 8.80123 | 87° | 55km/h | 2523m | -4.5m/s | 1.5°C | 86% | 753.5hPa | 2.7V | 07:37:43 | 02:14:27 | 00:00:00 | |
| DD8BA-10 | 2026-09-01 08:52:09 | 52.80762 | 8.80237 | 88° | 55km/h | 2498m | -5.0m/s | 1.6°C | 86.4% | 755.7hPa | 2.6V | 00:00:00 | 00:00:00 | 00:00:00 | |
| DN9WHV | 2026-09-01 08:52:07 | 52.80761 | 8.80214 | 88° | 55km/h | 2503m | -4.9m/s | 1.6°C | 84.2% | 755.4hPa | 2.6V | 07:37:00 | 00:00:00 | 00:00:00 | |
| DM0DOS-11 | 2026-09-01 08:52:06 | 52.80758 | 8.80055 | 88° | 55km/h | 2536m | -4.6m/s | 1.4°C | 85.5% | 752.3hPa | 2.6V | 07:37:46 | 02:14:24 | 00:00:00 | |
| DL1XH-west | 2026-09-01 08:52:05 | 52.80760 | 8.80146 | 88° | 55km/h | 2518m | -5.1m/s | 1.5°C | 88.4% | 753.9hPa | 2.7V | 07:37:52 | 02:14:28 | 00:00:00 | |
| DL1XH1-15 | 2026-09-01 08:52:04 | 52.80757 | 8.80010 | 89° | 55km/h | 2546m | -4.8m/s | 1.4°C | 84.8% | 751.2hPa | 2.7V | 07:37:48 | 02:14:22 | 00:00:00 | |
| BIOWL1-15 | 2026-09-01 08:52:04 | 52.80759 | 8.80123 | 88° | 55km/h | 2523m | -4.5m/s | 1.5°C | 88.1% | 753.5hPa | 2.7V | 07:37:52 | 02:14:27 | 00:00:00 | |
| DN9WHV | 2026-09-01 08:52:02 | 52.80759 | 8.80100 | 89° | 55km/h | 2527m | -4.5m/s | 1.5°C | 83.7% | 753.1hPa | 2.6V | 07:37:00 | 00:00:00 | 00:00:00 | |
| DN9WHV | 2026-09-01 08:52:01 | 52.80758 | 8.80077 | 90° | 55km/h | 2532m | -4.7m/s | 1.4°C | 83.3% | 752.6hPa | 2.6V | 07:37:00 | 00:00:00 | 00:00:00 | |
| DL1XH1-15 | 2026-09-01 08:51:59 | 52.80755 | 8.79895 | 86° | 55km/h | 2569m | -4.5m/s | 1.2°C | 86.5% | 749hPa | 2.6V | 07:37:53 | 02:14:17 | 00:00:00 | |
| DL3AQ-11 | 2026-09-01 08:51:59 | 52.80757 | 8.79987 | 88° | 55km/h | 2551m | -4.8m/s | 1.3°C | 82.3% | 750.8hPa | 2.7V | 00:00:00 | 00:00:00 | 00:00:00 | |
| DJ2DS-15 | 2026-09-01 08:51:58 | 52.80757 | 8.79987 | 89° | 55km/h | 2551m | -4.7m/s | 1.3°C | 84.5% | 750.8hPa | 2.7V | 00:00:00 | 02:14:21 | 00:00:00 | |
| DL1XH-15 | 2026-09-01 08:51:56 | 52.80756 | 8.79941 | 88° | 55km/h | 2560m | -4.7m/s | 1.3°C | 84.9% | 749.9hPa | 2.7V | 07:37:51 | 02:14:19 | 00:00:00 | |
| DL1XH-15 | 2026-09-01 08:51:56 | 52.80753 | 8.79828 | 86° | 55km/h | 2583m | -4.7m/s | 1.1°C | 86.4% | 747.7hPa | 2.7V | 07:37:56 | 02:14:14 | 00:00:00 | |
| DB0DAN | 2026-09-01 08:51:55 | 52.80756 | 8.79918 | 87° | 53km/h | 2565m | -4.6m/s | 1.3°C | 83.3% | 749.5hPa | 2.7V | 00:00:00 | 00:00:00 | 00:00:00 | |
| DL1XH-west | 2026-09-01 08:51:54 | 52.80755 | 8.79895 | 87° | 55km/h | 2569m | -4.5m/s | 1.2°C | 88.5% | 749hPa | 2.6V | 07:38:43 | 02:14:17 | 00:00:00 | |
| BIOWL1-15 | 2026-09-01 08:51:53 | 52.80754 | 8.79873 | 88° | 55km/h | 2574m | -4.6m/s | 1.2°C | 88.6% | 748.6hPa | 2.6V | 07:38:43 | 02:14:16 | 00:00:00 | |
| DN9WHV | 2026-09-01 08:51:52 | 52.80754 | 8.79850 | 88° | 55km/h | 2579m | -4.3m/s | 1.1°C | 84.7% | 748.1hPa | 2.7V | 07:38:00 | 00:00:00 | 00:00:00 | |
| DL4XJ-10 | 2026-09-01 08:51:51 | 52.80753 | 8.79827 | 87° | 53km/h | 2583m | -4.6m/s | 2.4°C | 0% | 0hPa | 2.7V | 00:00:00 | 00:00:00 | 00:00:00 | |
| DL1XH1-15 | 2026-09-01 08:51:49 | 52.80748 | 8.79671 | 86° | 53km/h | 2617m | -4.6m/s | 0.9°C | 83.4% | 744.6hPa | 2.7V | 07:38:03 | 02:14:07 | 00:00:00 | |
| DD8BA-10 | 2026-09-01 08:51:49 | 52.80751 | 8.79782 | 87° | 53km/h | 2593m | -4.9m/s | 1.1°C | 83.6% | 746.7hPa | 2.7V | 07:37:00 | 00:00:00 | 00:00:00 | |
| DN9WHV | 2026-09-01 08:51:48 | 52.80751 | 8.79782 | 88° | 55km/h | 2593m | -4.9m/s | 1.1°C | 81.4% | 746.8hPa | 2.6V | 07:38:00 | 00:00:00 | 00:00:00 | |
| DN9WHV | 2026-09-01 08:51:47 | 52.80751 | 8.79760 | 88° | 55km/h | 2598m | -4.7m/s | 1.1°C | 81.4% | 746.5hPa | 2.6V | 07:38:00 | 00:00:00 | 00:00:00 | |
| DL1XH-15 | 2026-09-01 08:51:46 | 52.80750 | 8.79715 | 87° | 53km/h | 2607m | -4.8m/s | 1°C | 83.1% | 745.5hPa | 2.6V | 07:38:01 | 02:14:09 | 00:00:00 | |
| DL1XH-west | 2026-09-01 08:51:44 | 52.80748 | 8.79671 | 87° | 53km/h | 2617m | -4.6m/s | 0.9°C | 86.2% | 744.6hPa | 2.7V | 07:38:43 | 02:14:07 | 00:00:00 | |
| DN9WHV | 2026-09-01 08:51:43 | 52.80748 | 8.79671 | 87° | 53km/h | 2617m | -4.6m/s | 0.9°C | 81.1% | 744.6hPa | 2.7V | 07:38:00 | 00:00:00 | 00:00:00 | |
| DM0DOS-11 | 2026-09-01 08:51:41 | 52.80746 | 8.79603 | 86° | 53km/h | 2631m | -4.8m/s | 0.8°C | 84.1% | 743.3hPa | 2.7V | 07:38:06 | 02:14:04 | 00:00:00 | |
| DB0DAN | 2026-09-01 08:51:40 | 52.80746 | 8.79581 | 87° | 51km/h | 2636m | -4.6m/s | 0.7°C | 82% | 742.78hPa | 2.7V | 00:00:00 | 00:00:00 | 00:00:00 | |
| DL1XH1-15 | 2026-09-01 08:51:39 | 52.80742 | 8.79449 | 87° | 53km/h | 2665m | -5.1m/s | 0.4°C | 85.2% | 740.1hPa | 2.7V | 07:38:13 | 02:13:57 | 00:00:00 | |
| BIOWL1-15 | 2026-09-01 08:51:33 | 52.80740 | 8.79385 | 87° | 51km/h | 2680m | -4.8m/s | 0.3°C | 87.4% | 738.7hPa | 2.7V | 07:38:43 | 02:13:54 | 00:00:00 | |
| DL1XH-west | 2026-09-01 08:51:33 | 52.80741 | 8.79428 | 87° | 51km/h | 2670m | -5.2m/s | 0.4°C | 87.5% | 739.6hPa | 2.7V | 07:38:43 | 02:13:56 | 00:00:00 | |
| DN9WHV | 2026-09-01 08:51:32 | 52.80742 | 8.79428 | 88° | 51km/h | 2670m | -5.2m/s | 0.4°C | 83.0% | 739.6hPa | 2.7V | 07:38:00 | 00:00:00 | 00:00:00 | |
| DM0DOS-11 | 2026-09-01 08:51:31 | 52.80740 | 8.79385 | 87° | 51km/h | 2680m | -4.8m/s | 0.3°C | 85.6% | 738.7hPa | 2.7V | 07:38:16 | 02:13:54 | 00:00:00 | |
| DL4XJ-10 | 2026-09-01 08:51:31 | 52.80740 | 8.79385 | 88° | 53km/h | 2680m | -4.8m/s | 1.6°C | 0% | 0hPa | 2.7V | 00:00:00 | 00:00:00 | 00:00:00 | |
| DN9WHV | 2026-09-01 08:51:30 | 52.80740 | 8.79385 | 88° | 51km/h | 2680m | -4.8m/s | 0.3°C | 83.2% | 738.7hPa | 2.7V | 07:38:00 | 00:00:00 | 00:00:00 | |
| DO9LL-15 | 2026-09-01 08:51:29 | 52.80738 | 8.79342 | 85° | 53km/h | 2690m | -4.6m/s | 0.1°C | 86.0% | 737.8hPa | 2.7V | 00:00:00 | 02:13:52 | 00:00:00 | |
| DN9WHV | 2026-09-01 08:51:28 | 52.80738 | 8.79342 | 85° | 51km/h | 2690m | -4.7m/s | 0.2°C | 83.6% | 737.9hPa | 2.7V | 07:38:00 | 00:00:00 | 00:00:00 | |
| DL1XH-15 | 2026-09-01 08:51:26 | 52.80726 | 8.79149 | 86° | 51km/h | 2733m | -4.8m/s | -0.2°C | 87.5% | 733.8hPa | 2.7V | 07:38:27 | 02:13:43 | 00:00:00 | |
| DL1XH1-15 | 2026-09-01 08:51:25 | 52.80731 | 8.79235 | 82° | 51km/h | 2714m | -5.1m/s | -0°C | 86.6% | 735.6hPa | 2.7V | 07:38:23 | 02:13:47 | 00:00:00 | |
| DL1XH1-15 | 2026-09-01 08:51:25 | 52.80725 | 8.79127 | 86° | 53km/h | 2738m | -5.2m/s | -0.3°C | 87.5% | 733.4hPa | 2.7V | 07:38:28 | 02:13:42 | 00:00:00 | |
| DB0DAN | 2026-09-01 08:51:25 | 52.80733 | 8.79256 | 83° | 47km/h | 2709m | -4.7m/s | -0°C | 84.3% | 736.09hPa | 2.7V | 00:00:00 | 00:00:00 | 00:00:00 | |
| DL1XH-west | 2026-09-01 08:51:23 | 52.80730 | 8.79214 | 85° | 51km/h | 2719m | -5m/s | -0.1°C | 88.5% | 735.1hPa | 2.7V | 07:38:43 | 02:13:46 | 00:00:00 | |
| BIOWL1-15 | 2026-09-01 08:51:20 | 52.80726 | 8.79149 | 86° | 51km/h | 2733m | -4.8m/s | -0.2°C | 89% | 733.9hPa | 2.7V | 07:38:43 | 02:13:43 | 00:00:00 | |
| DL3AQ-11 | 2026-09-01 08:51:19 | 52.80724 | 8.79105 | 84° | 53km/h | 2743m | -4.9m/s | -0.3°C | 85.2% | 733.0hPa | 2.7V | 00:00:00 | 00:00:00 | 00:00:00 | |
| DJ2DS-15 | 2026-09-01 08:51:18 | 52.80724 | 8.79105 | 85° | 53km/h | 2743m | -4.8m/s | -0.3°C | 87.7% | 732.9hPa | 2.7V | 00:00:00 | 02:13:41 | 00:00:00 | |
| DN9WHV | 2026-09-01 08:51:17 | 52.80724 | 8.79105 | 86° | 53km/h | 2743m | -4.9m/s | -0.3°C | 85.2% | 733.0hPa | 2.7V | 07:38:00 | 00:00:00 | 00:00:00 | |
| GOEST3-10 | 2026-09-01 08:51:16 | 52.80722 | 8.79061 | 85° | 53km/h | 2753m | -5.0m/s | -0.4°C | 88.2% | 731.9hPa | 2.7V | 00:00:00 | 02:13:39 | 00:00:00 | |
| DL1XH-15 | 2026-09-01 08:51:15 | 52.80714 | 8.78925 | 84° | 55km/h | 2783m | -5.3m/s | -0.5°C | 81.5% | 729.2hPa | 2.7V | 07:38:37 | 02:13:33 | 00:00:00 | |
| DL1XH1-15 | 2026-09-01 08:51:14 | 52.80719 | 8.79016 | 83° | 55km/h | 2763m | -5m/s | -0.4°C | 86.1% | 731hPa | 2.6V | 07:38:33 | 02:13:37 | 00:00:00 | |
| DL1XH1-15 | 2026-09-01 08:51:14 | 52.80713 | 8.78903 | 84° | 53km/h | 2788m | -5.2m/s | -0.6°C | 81.5% | 728.7hPa | 2.7V | 07:38:38 | 02:13:32 | 00:00:00 | |
| DL1XH-west | 2026-09-01 08:51:13 | 52.80718 | 8.78993 | 85° | 55km/h | 2768m | -4.8m/s | -0.5°C | 87.1% | 730.5hPa | 2.6V | 07:38:43 | 02:13:36 | 00:00:00 | |
| DN9WHV | 2026-09-01 08:51:11 | 52.80717 | 8.78971 | 86° | 55km/h | 2773m | -4.8m/s | -0.5°C | 81.9% | 730.2hPa | 2.7V | 07:38:00 | 00:00:00 | 00:00:00 | |
| DB0DAN | 2026-09-01 08:51:10 | 52.80714 | 8.78925 | 84° | 51km/h | 2783m | -5.3m/s | -0.5°C | 79.1% | 729.17hPa | 2.7V | 00:00:00 | 00:00:00 | 00:00:00 | |
| BIOWL1-15 | 2026-09-01 08:51:10 | 52.80714 | 8.78925 | 84° | 55km/h | 2783m | -5.3m/s | -0.5°C | 83.2% | 729.2hPa | 2.7V | 07:38:43 | 02:13:33 | 00:00:00 | |
| DO9LL-15 | 2026-09-01 08:51:09 | 52.80712 | 8.78903 | 85° | 53km/h | 2788m | -5.2m/s | -0.5°C | 81.5% | 728.6hPa | 2.6V | 07:38:00 | 02:13:32 | 00:00:00 | |
| DO2LYB-13 | 2026-09-01 08:51:08 | 52.80712 | 8.78903 | 86° | 53km/h | 2788m | -5.2m/s | -0.6°C | 79.2% | 728.7hPa | 2.6V | 00:00:00 | 00:00:00 | 00:00:00 | |
| DN9WHV | 2026-09-01 08:51:07 | 52.80711 | 8.78880 | 86° | 53km/h | 2793m | -5.3m/s | -0.6°C | 79.2% | 728.2hPa | 2.6V | 07:38:00 | 00:00:00 | 00:00:00 | |
| DL1XH-15 | 2026-09-01 08:51:05 | 52.80708 | 8.78815 | 85° | 53km/h | 2809m | -5.3m/s | -0.7°C | 80.9% | 726.9hPa | 2.6V | 07:38:42 | 02:13:28 | 00:00:00 | |
| DL1XH-15 | 2026-09-01 08:51:05 | 52.80702 | 8.78706 | 84° | 53km/h | 2836m | -5.1m/s | -0.7°C | 79.8% | 724.5hPa | 2.7V | 07:38:47 | 02:13:23 | 00:00:00 | |
| GOEST3-10 | 2026-09-01 08:51:05 | 52.80708 | 8.78814 | 86° | 53km/h | 2809m | -5.2m/s | -0.6°C | 80.9% | 726.8hPa | 2.7V | 00:00:00 | 00:00:00 | 00:00:00 | |
| DL1XH1-15 | 2026-09-01 08:51:04 | 52.80701 | 8.78685 | 84° | 51km/h | 2841m | -5.2m/s | -0.7°C | 79.4% | 724hPa | 2.7V | 07:38:48 | 02:13:22 | 00:00:00 | |
| DL1XH-west | 2026-09-01 08:51:02 | 52.80704 | 8.78749 | 85° | 51km/h | 2826m | -5.1m/s | -0.7°C | 81.9% | 725.5hPa | 2.7V | 07:39:34 | 02:13:25 | 00:00:00 | |
| BIOWL1-15 | 2026-09-01 08:51:01 | 52.80701 | 8.78685 | 85° | 51km/h | 2841m | -5.2m/s | -0.7°C | 81.2% | 724hPa | 2.7V | 07:40:25 | 02:13:22 | 00:00:00 | |
| DN9WHV | 2026-09-01 08:51:00 | 52.80703 | 8.78728 | 86° | 51km/h | 2831m | -4.9m/s | -0.7°C | 78.0% | 725.0hPa | 2.6V | 07:39:00 | 00:00:00 | 00:00:00 | |
| DD8BA-10 | 2026-09-01 08:50:59 | 52.80701 | 8.78684 | 85° | 51km/h | 2841m | -5.2m/s | -0.7°C | 79.4% | 723.9hPa | 2.6V | 00:00:00 | 00:00:00 | 00:00:00 | |
| DJ2DS-15 | 2026-09-01 08:50:58 | 52.80700 | 8.78663 | 84° | 51km/h | 2846m | -4.9m/s | -0.7°C | 78.6% | 723.6hPa | 2.6V | 00:00:00 | 02:13:21 | 00:00:00 | |
| DN9WHV | 2026-09-01 08:50:57 | 52.80700 | 8.78663 | 85° | 53km/h | 2846m | -4.9m/s | -0.7°C | 76.3% | 723.6hPa | 2.7V | 07:39:00 | 00:00:00 | 00:00:00 | |
| DN9WHV | 2026-09-01 08:50:56 | 52.80698 | 8.78641 | 86° | 53km/h | 2851m | -5.3m/s | -0.7°C | 75.3% | 723.2hPa | 2.7V | 07:39:00 | 00:00:00 | 00:00:00 | |
| DL1XH-15 | 2026-09-01 08:50:55 | 52.80696 | 8.78598 | 85° | 51km/h | 2861m | -5.1m/s | -0.7°C | 73.3% | 722.1hPa | 2.7V | 07:38:52 | 02:13:18 | 00:00:00 | |
| DL1XH-15 | 2026-09-01 08:50:55 | 52.80691 | 8.78490 | 85° | 51km/h | 2887m | -4.8m/s | -0.9°C | 72.2% | 719.8hPa | 2.6V | 07:38:57 | 02:13:13 | 00:00:00 | |
| DB0DAN | 2026-09-01 08:50:55 | 52.80696 | 8.78598 | 85° | 49km/h | 2861m | -5.1m/s | -0.7°C | 71.1% | 722.1hPa | 2.7V | 00:00:00 | 00:00:00 | 00:00:00 | |
| GOEST3-10 | 2026-09-01 08:50:55 | 52.80696 | 8.78598 | 86° | 51km/h | 2861m | -5.0m/s | -0.7°C | 73.3% | 722.0hPa | 2.7V | 00:00:00 | 02:13:18 | 00:00:00 | |
| DL1XH1-15 | 2026-09-01 08:50:54 | 52.80690 | 8.78469 | 85° | 51km/h | 2892m | -5.2m/s | -0.9°C | 71.5% | 719.4hPa | 2.7V | 07:38:58 | 02:13:12 | 00:00:00 | |
| DL1XH-west | 2026-09-01 08:50:51 | 52.80692 | 8.78512 | 86° | 51km/h | 2882m | -5.5m/s | -0.8°C | 74.7% | 720.4hPa | 2.6V | 07:39:34 | 02:13:14 | 00:00:00 | |
| BIOWL1-15 | 2026-09-01 08:50:50 | 52.80689 | 8.78448 | 86° | 51km/h | 2897m | -5.2m/s | -0.9°C | 73.4% | 718.9hPa | 2.7V | 07:40:25 | 02:13:11 | 00:00:00 | |
| DL1XH1-15 | 2026-09-01 08:50:49 | 52.80686 | 8.78363 | 87° | 51km/h | 2918m | -5m/s | -1°C | 70.1% | 717hPa | 2.7V | 07:39:03 | 02:13:07 | 00:00:00 | |
| DD8BA-10 | 2026-09-01 08:50:49 | 52.80690 | 8.78469 | 86° | 51km/h | 2892m | -5.2m/s | -0.8°C | 71.5% | 719.3hPa | 2.7V | 00:00:00 | 00:00:00 | 00:00:00 | |
| DN9WHV | 2026-09-01 08:50:48 | 52.80690 | 8.78469 | 87° | 51km/h | 2892m | -5.2m/s | -0.9°C | 69.4% | 719.4hPa | 2.7V | 07:39:00 | 00:00:00 | 00:00:00 | |
| DO2LYB-13 | 2026-09-01 08:50:47 | 52.80689 | 8.78447 | 87° | 51km/h | 2897m | -5.2m/s | -0.9°C | 68.8% | 718.9hPa | 2.7V | 00:00:00 | 00:00:00 | 00:00:00 | |
| DN9WHV | 2026-09-01 08:50:46 | 52.80688 | 8.78426 | 87° | 51km/h | 2902m | -5.2m/s | -0.9°C | 69.2% | 718.6hPa | 2.7V | 07:39:00 | 00:00:00 | 00:00:00 | |
| DM0DOS-11 | 2026-09-01 08:50:45 | 52.80684 | 8.78279 | 87° | 49km/h | 2938m | -5m/s | -1.2°C | 69.7% | 715.3hPa | 2.7V | 07:39:07 | 02:13:03 | 00:00:00 | |
| GOEST3-10 | 2026-09-01 08:50:45 | 52.80687 | 8.78384 | 88° | 49km/h | 2913m | -5.4m/s | -0.9°C | 70.7% | 717.5hPa | 2.7V | 00:00:00 | 00:00:00 | 00:00:00 | |
| DL1XH1-15 | 2026-09-01 08:50:44 | 52.80684 | 8.78259 | 88° | 49km/h | 2943m | -4.7m/s | -1.2°C | 69.2% | 714.8hPa | 2.7V | 07:39:08 | 02:13:02 | 00:00:00 | |
| DL1XH-west | 2026-09-01 08:50:40 | 52.80684 | 8.78279 | 88° | 49km/h | 2939m | -5m/s | -1.2°C | 72% | 715.3hPa | 2.7V | 07:39:34 | 02:13:03 | 00:00:00 | |
| DB0DAN | 2026-09-01 08:50:40 | 52.80684 | 8.78279 | 87° | 47km/h | 2939m | -5m/s | -1.2°C | 67.6% | 715.29hPa | 2.7V | 00:00:00 | 00:00:00 | 00:00:00 | |
| DL1XH1-15 | 2026-09-01 08:50:39 | 52.80681 | 8.78155 | 87° | 51km/h | 2968m | -5.1m/s | -1.3°C | 71.7% | 712.7hPa | 2.7V | 07:39:13 | 02:12:57 | 00:00:00 | |
| BIOWL1-15 | 2026-09-01 08:50:38 | 52.80683 | 8.78238 | 88° | 49km/h | 2948m | -5.2m/s | -1.2°C | 71.7% | 714.4hPa | 2.7V | 07:40:25 | 02:13:01 | 00:00:00 | |
| DJ2DS-15 | 2026-09-01 08:50:37 | 52.80683 | 8.78217 | 87° | 49km/h | 2953m | -5.1m/s | -1.2°C | 69.0% | 713.9hPa | 2.7V | 00:00:00 | 00:00:00 | 00:00:00 | |
| DN9WHV | 2026-09-01 08:50:36 | 52.80683 | 8.78217 | 89° | 49km/h | 2954m | -5.1m/s | -1.2°C | 69.0% | 713.9hPa | 2.7V | 07:39:00 | 00:00:00 | 00:00:00 | |
| DL1XH-15 | 2026-09-01 08:50:35 | 52.80679 | 8.78070 | 87° | 51km/h | 2990m | -5.4m/s | -1.4°C | 70.8% | 710.8hPa | 2.7V | 07:39:17 | 02:12:53 | 00:00:00 | |
| GOEST3-10 | 2026-09-01 08:50:35 | 52.80682 | 8.78176 | 88° | 51km/h | 2963m | -5.0m/s | -1.3°C | 71.5% | 712.9hPa | 2.7V | 00:00:00 | 02:12:58 | 00:00:00 | |
| DF5WG-10 | 2026-09-01 08:50:34 | 52.80681 | 8.78155 | 88° | 51km/h | 2968m | -5.1m/s | -1.3°C | 71.7% | 712.6hPa | 2.7V | 00:00:00 | 02:12:57 | 00:00:00 | |
| DN9WHV | 2026-09-01 08:50:33 | 52.80681 | 8.78155 | 88° | 51km/h | 2968m | -5.1m/s | -1.3°C | 69.5% | 712.7hPa | 2.7V | 07:39:00 | 00:00:00 | 00:00:00 | |
| DN9WHV | 2026-09-01 08:50:32 | 52.80680 | 8.78134 | 89° | 51km/h | 2974m | -5.6m/s | -1.4°C | 69.2% | 712.1hPa | 2.7V | 07:39:00 | 00:00:00 | 00:00:00 | |
| DL4XJ-10 | 2026-09-01 08:50:31 | 52.80679 | 8.78091 | 88° | 51km/h | 2985m | -5.4m/s | -0.1°C | 0% | 0hPa | 2.7V | 00:00:00 | 00:00:00 | 00:00:00 | |
| DN9WHV | 2026-09-01 08:50:30 | 52.80679 | 8.78091 | 88° | 51km/h | 2985m | -5.4m/s | -1.4°C | 69.1% | 711.2hPa | 2.7V | 07:39:00 | 00:00:00 | 00:00:00 | |
| DL1XH1-15 | 2026-09-01 08:50:29 | 52.80679 | 8.78048 | 87° | 51km/h | 2996m | -5.3m/s | -1.5°C | 69.1% | 710.2hPa | 2.7V | 07:39:18 | 02:12:52 | 00:00:00 | |
| DL1XH-west | 2026-09-01 08:50:29 | 52.80678 | 8.78048 | 88° | 51km/h | 2996m | -5.4m/s | -1.5°C | 71.1% | 710.2hPa | 2.7V | 07:39:34 | 02:12:52 | 00:00:00 | |
| DO9LL-15 | 2026-09-01 08:50:29 | 52.80678 | 8.78048 | 88° | 51km/h | 2996m | -5.3m/s | -1.4°C | 69.1% | 710.1hPa | 2.7V | 00:00:00 | 02:12:52 | 00:00:00 | |
| DF5WG-10 | 2026-09-01 08:50:28 | 52.80678 | 8.78027 | 88° | 51km/h | 3001m | -5.8m/s | -1.4°C | 68.1% | 709.7hPa | 2.6V | 00:00:00 | 02:12:51 | 00:00:00 | |
| DL3AQ-11 | 2026-09-01 08:50:27 | 52.80677 | 8.78006 | 88° | 49km/h | 3007m | -5.1m/s | -1.5°C | 65.3% | 709.2hPa | 2.7V | 00:00:00 | 00:00:00 | 00:00:00 | |
| SMARD9-10 | 2026-09-01 08:50:26 | 52.80677 | 8.78006 | 89° | 51km/h | 3007m | -5.1m/s | -1.5°C | 65.3% | 709.2hPa | 2.7V | 00:00:00 | 00:00:00 | 00:00:00 | |
| DL1XH-15 | 2026-09-01 08:50:25 | 52.80677 | 8.77963 | 88° | 51km/h | 3017m | -5.4m/s | -1.5°C | 67% | 708.4hPa | 2.7V | 07:39:22 | 02:12:48 | 00:00:00 | |
| DM0DOS-11 | 2026-09-01 08:50:25 | 52.80676 | 8.77855 | 90° | 53km/h | 3043m | -5.3m/s | -1.6°C | 65% | 705.9hPa | 2.6V | 07:39:27 | 02:12:43 | 00:00:00 | |
| DB0DAN | 2026-09-01 08:50:25 | 52.80677 | 8.77963 | 88° | 49km/h | 3017m | -5.4m/s | -1.5°C | 65% | 708.37hPa | 2.7V | 00:00:00 | 00:00:00 | 00:00:00 | |
| BIOWL1-15 | 2026-09-01 08:50:22 | 52.80676 | 8.77899 | 89° | 51km/h | 3033m | -5.2m/s | -1.5°C | 67.3% | 706.8hPa | 2.7V | 07:40:25 | 02:12:45 | 00:00:00 | |
| DN9WHV | 2026-09-01 08:50:21 | 52.80676 | 8.77899 | 90° | 51km/h | 3033m | -5.2m/s | -1.5°C | 62.7% | 706.8hPa | 2.7V | 07:39:00 | 00:00:00 | 00:00:00 | |
| DC6BW-12 | 2026-09-01 08:50:20 | 52.80676 | 8.77877 | 92° | 51km/h | 3038m | -4.9m/s | -1.5°C | 62.9% | 706.5hPa | 2.7V | 07:39:00 | 00:00:00 | 00:00:00 | |
| DL1XH1-15 | 2026-09-01 08:50:19 | 52.80676 | 8.77833 | 89° | 53km/h | 3049m | -5.3m/s | -1.6°C | 63.8% | 705.5hPa | 2.7V | 07:39:28 | 02:12:42 | 00:00:00 | |
| DL1XH1-15 | 2026-09-01 08:50:19 | 52.80677 | 8.77723 | 90° | 53km/h | 3074m | -4.5m/s | -1.7°C | 60.8% | 703.4hPa | 2.7V | 07:39:33 | 02:12:37 | 00:00:00 | |
| DL1XH-west | 2026-09-01 08:50:19 | 52.80676 | 8.77833 | 90° | 53km/h | 3049m | -5.3m/s | -1.6°C | 66.3% | 705.5hPa | 2.7V | 07:39:34 | 02:12:42 | 00:00:00 | |
| DD8BA-10 | 2026-09-01 08:50:19 | 52.80676 | 8.77833 | 90° | 53km/h | 3049m | -5.3m/s | -1.5°C | 63.8% | 705.4hPa | 2.7V | 00:00:00 | 00:00:00 | 00:00:00 | |
| DJ2DS-15 | 2026-09-01 08:50:18 | 52.80676 | 8.77812 | 91° | 51km/h | 3054m | -5.0m/s | -1.6°C | 62.9% | 705.0hPa | 2.7V | 00:00:00 | 02:12:41 | 00:00:00 | |
| DN9WHV | 2026-09-01 08:50:17 | 52.80676 | 8.77812 | 91° | 53km/h | 3054m | -5.1m/s | -1.6°C | 61.0% | 705.1hPa | 2.7V | 07:39:00 | 00:00:00 | 00:00:00 | |
| DL1XH-15 | 2026-09-01 08:50:15 | 52.80677 | 8.77745 | 90° | 53km/h | 3069m | -5.1m/s | -1.7°C | 63.6% | 703.7hPa | 2.7V | 07:39:32 | 02:12:38 | 00:00:00 | |
| DL1XH-15 | 2026-09-01 08:50:15 | 52.80678 | 8.77636 | 91° | 51km/h | 3095m | -4.9m/s | -1.8°C | 57.5% | 701.4hPa | 2.7V | 07:39:37 | 02:12:33 | 00:00:00 | |
| DO2JMG | 2026-09-01 08:50:10 | 52.80678 | 8.77636 | 92° | 51km/h | 3095m | -4.9m/s | -1.8°C | 60.5% | 701.4hPa | 2.7V | 07:40:25 | 02:12:33 | 00:00:00 | |
| DB0DAN | 2026-09-01 08:50:10 | 52.80678 | 8.77636 | 92° | 49km/h | 3095m | -4.9m/s | -1.8°C | 55.7% | 701.44hPa | 2.7V | 00:00:00 | 00:00:00 | 00:00:00 | |
| DL1XH1-15 | 2026-09-01 08:50:09 | 52.80679 | 8.77614 | 93° | 51km/h | 3100m | -5.3m/s | -1.8°C | 57.1% | 701hPa | 2.7V | 07:39:38 | 02:12:32 | 00:00:00 | |
| DL1XH1-15 | 2026-09-01 08:50:09 | 52.80684 | 8.77507 | 95° | 51km/h | 3126m | -5.2m/s | -1.9°C | 57.6% | 698.8hPa | 2.7V | 07:39:43 | 02:12:27 | 00:00:00 | |
| DL1XH-west | 2026-09-01 08:50:08 | 52.80679 | 8.77593 | 93° | 51km/h | 3105m | -5m/s | -1.8°C | 59.6% | 700.6hPa | 2.6V | 07:40:25 | 02:12:31 | 00:00:00 | |
| DO2JMG | 2026-09-01 08:50:00 | 52.80688 | 8.77424 | 96° | 49km/h | 3146m | -5.3m/s | -1.9°C | 51.7% | 697hPa | 2.7V | 07:40:25 | 02:12:23 | 00:00:00 | |
| DM0DOS-11 | 2026-09-01 08:50:00 | 52.80688 | 8.77424 | 95° | 49km/h | 3146m | -5.3m/s | -1.9°C | 48.6% | 697hPa | 2.7V | 07:39:47 | 02:12:23 | 00:00:00 | |
| DL1XH-west | 2026-09-01 08:49:57 | 52.80692 | 8.77363 | 95° | 47km/h | 3162m | -4.7m/s | -2°C | 47.8% | 695.5hPa | 2.7V | 07:40:25 | 02:12:20 | 00:00:00 | |
| DL1LOL-11 | 2026-09-01 08:49:56 | 52.80692 | 8.77363 | 96° | 47km/h | 3162m | -4.7m/s | -2.0°C | 43.5% | 695.5hPa | 2.6V | 00:00:00 | 00:00:00 | 00:00:00 | |
| DL1XH-15 | 2026-09-01 08:49:55 | 52.80694 | 8.77323 | 95° | 47km/h | 3171m | -4.8m/s | -1.9°C | 40% | 694.6hPa | 2.6V | 07:39:52 | 02:12:18 | 00:00:00 | |
| DM0DOS-11 | 2026-09-01 08:49:55 | 52.80698 | 8.77224 | 93° | 47km/h | 3196m | -5.1m/s | -1.9°C | 32.6% | 692.4hPa | 2.7V | 07:39:57 | 02:12:13 | 00:00:00 | |
| DB0DAN | 2026-09-01 08:49:55 | 52.80694 | 8.77323 | 96° | 46km/h | 3171m | -4.8m/s | -1.9°C | 38.8% | 694.64hPa | 2.6V | 00:00:00 | 00:00:00 | 00:00:00 | |
| GOEST3-10 | 2026-09-01 08:49:55 | 52.80694 | 8.77323 | 96° | 47km/h | 3172m | -4.8m/s | -1.8°C | 40.0% | 694.6hPa | 2.6V | 00:00:00 | 00:00:00 | 00:00:00 | |
| DO2LYB-13 | 2026-09-01 08:49:54 | 52.80694 | 8.77323 | 97° | 47km/h | 3172m | -4.8m/s | -1.9°C | 38.8% | 694.6hPa | 2.7V | 00:00:00 | 00:00:00 | 00:00:00 | |
| DN9WHV | 2026-09-01 08:49:53 | 52.80695 | 8.77303 | 95° | 47km/h | 3176m | -4.9m/s | -1.9°C | 36.6% | 694.3hPa | 2.7V | 07:40:00 | 00:00:00 | 00:00:00 | |
| DN9WHV | 2026-09-01 08:49:52 | 52.80697 | 8.77264 | 95° | 47km/h | 3186m | -4.7m/s | -1.8°C | 34.3% | 693.5hPa | 2.7V | 07:40:00 | 00:00:00 | 00:00:00 | |
| DL4XJ-10 | 2026-09-01 08:49:51 | 52.80697 | 8.77244 | 94° | 47km/h | 3191m | -5.0m/s | -0.5°C | 0% | 0hPa | 2.7V | 00:00:00 | 00:00:00 | 00:00:00 | |
| DM0DOS-11 | 2026-09-01 08:49:50 | 52.80703 | 8.77125 | 97° | 47km/h | 3222m | -5.2m/s | -2°C | 31.2% | 690.2hPa | 2.7V | 07:40:02 | 02:12:08 | 00:00:00 | |
| DO2JMG | 2026-09-01 08:49:49 | 52.80699 | 8.77204 | 93° | 47km/h | 3201m | -5m/s | -1.9°C | 35.5% | 692hPa | 2.7V | 07:40:25 | 02:12:12 | 00:00:00 | |
| DL1XH1-15 | 2026-09-01 08:49:49 | 52.80699 | 8.77204 | 93° | 47km/h | 3201m | -5m/s | -1.9°C | 32.5% | 692hPa | 2.7V | 07:39:58 | 02:12:12 | 00:00:00 | |
| DL1XH1-15 | 2026-09-01 08:49:49 | 52.80704 | 8.77105 | 97° | 47km/h | 3227m | -5.2m/s | -2°C | 30.9% | 689.8hPa | 2.7V | 07:40:03 | 02:12:07 | 00:00:00 | |
| DL1XH-west | 2026-09-01 08:49:47 | 52.80701 | 8.77164 | 93° | 47km/h | 3211m | -5.2m/s | -1.9°C | 34.6% | 691.1hPa | 2.6V | 07:40:25 | 02:12:10 | 00:00:00 | |
| DM0DOS-11 | 2026-09-01 08:49:45 | 52.80713 | 8.77027 | 100° | 47km/h | 3247m | -5.1m/s | -1.9°C | 29.4% | 688hPa | 2.6V | 07:40:07 | 02:12:03 | 00:00:00 | |
| BIOWL1-15 | 2026-09-01 08:49:43 | 52.80706 | 8.77086 | 98° | 47km/h | 3232m | -4.8m/s | -2.1°C | 33.1% | 689.4hPa | 2.7V | 07:40:25 | 02:12:06 | 00:00:00 | |
| DL4BBY-15 | 2026-09-01 08:49:42 | 52.80708 | 8.77066 | 101° | 51km/h | 3237m | -5.1m/s | -0.7°C | 0% | 0hPa | 2.7V | 00:00:00 | 00:00:00 | 00:00:00 | |
| DN9WHV | 2026-09-01 08:49:41 | 52.80708 | 8.77066 | 102° | 47km/h | 3237m | -5.2m/s | -2.0°C | 28.9% | 689.0hPa | 2.7V | 07:40:00 | 00:00:00 | 00:00:00 | |
| DM0DOS-11 | 2026-09-01 08:49:40 | 52.80724 | 8.76928 | 98° | 49km/h | 3273m | -5.1m/s | -2°C | 34.6% | 685.8hPa | 2.7V | 07:40:12 | 02:11:58 | 00:00:00 | |
| DB0DAN | 2026-09-01 08:49:40 | 52.80713 | 8.77027 | 101° | 46km/h | 3247m | -5.1m/s | -2°C | 28.5% | 687.99hPa | 2.6V | 00:00:00 | 00:00:00 | 00:00:00 | |
| DL1XH1-15 | 2026-09-01 08:49:39 | 52.80715 | 8.77007 | 101° | 47km/h | 3252m | -5.2m/s | -1.9°C | 29.2% | 687.6hPa | 2.7V | 07:40:08 | 02:12:02 | 00:00:00 | |
| DL1XH-15 | 2026-09-01 08:49:39 | 52.80725 | 8.76908 | 99° | 49km/h | 3278m | -5.3m/s | -2°C | 35.2% | 685.4hPa | 2.6V | 07:40:13 | 02:11:57 | 00:00:00 | |
| DO2JMG | 2026-09-01 08:49:38 | 52.80717 | 8.76987 | 101° | 49km/h | 3257m | -5.2m/s | -1.9°C | 32.5% | 687.1hPa | 2.7V | 07:40:25 | 02:12:01 | 00:00:00 | |
| DL1XH-west | 2026-09-01 08:49:36 | 52.80722 | 8.76948 | 100° | 47km/h | 3268m | -5.1m/s | -2°C | 37.8% | 686.3hPa | 2.7V | 07:40:25 | 02:11:59 | 00:00:00 | |
| BIOWL1-15 | 2026-09-01 08:49:31 | 52.80732 | 8.76847 | 103° | 51km/h | 3294m | -5.1m/s | -1.8°C | 33.6% | 684hPa | 2.7V | 07:40:25 | 02:11:54 | 00:00:00 | |
| DL4XJ-10 | 2026-09-01 08:49:31 | 52.80732 | 8.76847 | 103° | 53km/h | 3293m | -5.1m/s | -0.4°C | 0% | 0hPa | 2.7V | 00:00:00 | 00:00:00 | 00:00:00 | |
| DN9WHV | 2026-09-01 08:49:30 | 52.80732 | 8.76847 | 104° | 51km/h | 3294m | -5.1m/s | -1.8°C | 29.2% | 684.0hPa | 2.7V | 07:40:00 | 00:00:00 | 00:00:00 | |
| DL1XH-15 | 2026-09-01 08:49:29 | 52.80738 | 8.76805 | 101° | 51km/h | 3304m | -5.1m/s | -1.7°C | 26.4% | 683hPa | 2.7V | 07:40:18 | 02:11:52 | 00:00:00 | |
| DL1XH1-15 | 2026-09-01 08:49:29 | 52.80753 | 8.76701 | 104° | 53km/h | 3329m | -5.1m/s | -1.7°C | 27.2% | 680.9hPa | 2.7V | 07:40:23 | 02:11:47 | 00:00:00 | |
| DO2JMG | 2026-09-01 08:49:26 | 52.80747 | 8.76743 | 104° | 51km/h | 3319m | -4.9m/s | -1.7°C | 30.2% | 681.8hPa | 2.6V | 07:40:25 | 02:11:49 | 00:00:00 | |
| DM0DOS-11 | 2026-09-01 08:49:25 | 52.80750 | 8.76722 | 104° | 51km/h | 3324m | -5.1m/s | -1.7°C | 27.1% | 681.3hPa | 2.7V | 07:40:22 | 02:11:48 | 00:00:00 | |
| DL1XH-west | 2026-09-01 08:49:25 | 52.80750 | 8.76722 | 105° | 51km/h | 3324m | -5.1m/s | -1.7°C | 30.7% | 681.3hPa | 2.7V | 07:40:25 | 02:11:48 | 00:00:00 | |
| DB0DAN | 2026-09-01 08:49:25 | 52.80750 | 8.76722 | 104° | 49km/h | 3324m | -5.1m/s | -1.7°C | 26.3% | 681.29hPa | 2.7V | 00:00:00 | 00:00:00 | 00:00:00 | |
| BIOWL1-15 | 2026-09-01 08:49:22 | 52.80766 | 8.76617 | 104° | 53km/h | 3349m | -5.3m/s | -1.9°C | 38% | 679.2hPa | 2.6V | 07:41:16 | 02:11:43 | 00:00:00 | |
| DN9WHV | 2026-09-01 08:49:21 | 52.80759 | 8.76659 | 107° | 51km/h | 3339m | -4.6m/s | -1.8°C | 29.2% | 680.1hPa | 2.7V | 07:40:00 | 00:00:00 | 00:00:00 | |
| GOEST3-10 | 2026-09-01 08:49:20 | 52.80766 | 8.76617 | 104° | 53km/h | 3349m | -5.2m/s | -1.8°C | 34.1% | 679.1hPa | 2.7V | 00:00:00 | 02:11:43 | 00:00:00 | |
| DL1XH1-15 | 2026-09-01 08:49:19 | 52.80786 | 8.76489 | 104° | 53km/h | 3380m | -5.2m/s | -2.1°C | 40.5% | 676.6hPa | 2.7V | 07:40:33 | 02:11:37 | 00:00:00 | |
| DO2JMG | 2026-09-01 08:49:15 | 52.80782 | 8.76510 | 104° | 53km/h | 3375m | -5.2m/s | -2.1°C | 43.3% | 677hPa | 2.6V | 07:42:07 | 02:11:38 | 00:00:00 | |
| DM0DOS-11 | 2026-09-01 08:49:15 | 52.80782 | 8.76510 | 103° | 53km/h | 3375m | -5.2m/s | -2°C | 39.2% | 677hPa | 2.6V | 07:40:32 | 02:11:38 | 00:00:00 | |
| DL1XH-west | 2026-09-01 08:49:14 | 52.80786 | 8.76489 | 105° | 53km/h | 3380m | -5.3m/s | -2.1°C | 44.6% | 676.6hPa | 2.7V | 07:41:16 | 02:11:37 | 00:00:00 | |
| DL4BBY-15 | 2026-09-01 08:49:12 | 52.80792 | 8.76446 | 106° | 51km/h | 3389m | -4.5m/s | -0.8°C | 0% | 0hPa | 2.6V | 00:00:00 | 00:00:00 | 00:00:00 | |
| DB0DAN | 2026-09-01 08:49:10 | 52.80799 | 8.76404 | 105° | 49km/h | 3399m | -4.8m/s | -2.2°C | 41.5% | 674.78hPa | 2.6V | 00:00:00 | 00:00:00 | 00:00:00 | |
| DM0DOS-11 | 2026-09-01 08:49:10 | 52.80816 | 8.76301 | 104° | 49km/h | 3424m | -4.8m/s | -2.4°C | 43.9% | 672.7hPa | 2.7V | 07:40:42 | 02:11:28 | 00:00:00 | |
| BIOWL1-15 | 2026-09-01 08:49:10 | 52.80799 | 8.76404 | 105° | 53km/h | 3399m | -4.8m/s | -2.2°C | 47% | 674.8hPa | 2.6V | 07:41:16 | 02:11:33 | 00:00:00 | |
| GOEST3-10 | 2026-09-01 08:49:10 | 52.80799 | 8.76404 | 106° | 51km/h | 3399m | -4.7m/s | -2.2°C | 42.9% | 674.7hPa | 2.6V | 00:00:00 | 02:11:33 | 00:00:00 | |
| DL1XH1-15 | 2026-09-01 08:49:09 | 52.80822 | 8.76260 | 104° | 51km/h | 3434m | -5m/s | -2.5°C | 44.2% | 671.8hPa | 2.6V | 07:40:44 | 02:11:26 | 00:00:00 | |
| DD8BA-10 | 2026-09-01 08:49:09 | 52.80803 | 8.76383 | 105° | 51km/h | 3404m | -5.3m/s | -2.2°C | 43.5% | 674.5hPa | 2.7V | 07:40:00 | 00:00:00 | 00:00:00 | |
| DL3AQ-11 | 2026-09-01 08:49:08 | 52.80809 | 8.76342 | 104° | 49km/h | 3414m | -5.0m/s | -2.3°C | 42.5% | 673.5hPa | 2.7V | 00:00:00 | 00:00:00 | 00:00:00 | |
| DF5WG-10 | 2026-09-01 08:49:07 | 52.80809 | 8.76342 | 105° | 51km/h | 3414m | -4.9m/s | -2.3°C | 44.0% | 673.5hPa | 2.7V | 07:40:00 | 02:11:30 | 00:00:00 | |
| DO9LL-15 | 2026-09-01 08:49:06 | 52.80812 | 8.76321 | 105° | 51km/h | 3419m | -5.4m/s | -2.3°C | 44.0% | 673.0hPa | 2.7V | 00:00:00 | 02:11:29 | 00:00:00 | |
| DM0DOS-11 | 2026-09-01 08:49:05 | 52.80832 | 8.76199 | 104° | 51km/h | 3449m | -5.1m/s | -2.6°C | 43.3% | 670.6hPa | 2.7V | 07:40:47 | 02:11:23 | 00:00:00 | |
| DO2JMG | 2026-09-01 08:49:04 | 52.80819 | 8.76281 | 105° | 51km/h | 3429m | -5.1m/s | -2.4°C | 48.3% | 672.3hPa | 2.7V | 07:42:07 | 02:11:27 | 00:00:00 | |
| DL1XH1-15 | 2026-09-01 08:49:04 | 52.80838 | 8.76158 | 103° | 51km/h | 3458m | -5m/s | -2.7°C | 41.8% | 669.7hPa | 2.7V | 07:40:49 | 02:11:21 | 00:00:00 | |
| DN9WHV | 2026-09-01 08:49:03 | 52.80819 | 8.76281 | 106° | 51km/h | 3429m | -5.1m/s | -2.4°C | 42.6% | 672.3hPa | 2.6V | 07:41:00 | 00:00:00 | 00:00:00 | |
| DL1XH-west | 2026-09-01 08:49:03 | 52.80822 | 8.76260 | 104° | 51km/h | 3434m | -5m/s | -2.5°C | 48.4% | 671.8hPa | 2.6V | 07:41:16 | 02:11:26 | 00:00:00 | |
| DL1CLM-18 | 2026-09-01 08:49:02 | 52.80822 | 8.76260 | 105° | 51km/h | 3434m | -5.0m/s | -2.5°C | 42.8% | 671.8hPa | 2.6V | 00:00:00 | 00:00:00 | 00:00:00 | |
| DM0DOS-11 | 2026-09-01 08:49:00 | 52.80846 | 8.76096 | 103° | 51km/h | 3474m | -5.3m/s | -2.7°C | 42.8% | 668.4hPa | 2.6V | 07:40:52 | 02:11:18 | 00:00:00 | |
| GOEST3-10 | 2026-09-01 08:49:00 | 52.80831 | 8.76199 | 105° | 51km/h | 3449m | -5.0m/s | -2.6°C | 43.3% | 670.5hPa | 2.7V | 00:00:00 | 02:11:23 | 00:00:00 | |
| DD8BA-10 | 2026-09-01 08:48:59 | 52.80834 | 8.76178 | 104° | 51km/h | 3454m | -4.7m/s | -2.6°C | 42.5% | 670.0hPa | 2.7V | 00:00:00 | 00:00:00 | 00:00:00 | |
| DL1XH1-15 | 2026-09-01 08:48:58 | 52.80853 | 8.76055 | 103° | 51km/h | 3484m | -5.5m/s | -2.8°C | 44.1% | 667.6hPa | 2.7V | 07:40:54 | 02:11:16 | 00:00:00 | |
| BIOWL1-15 | 2026-09-01 08:48:57 | 52.80841 | 8.76137 | 104° | 51km/h | 3463m | -5.4m/s | -2.7°C | 44.7% | 669.4hPa | 2.7V | 07:41:16 | 02:11:20 | 00:00:00 | |
| HTAHTA | 2026-09-01 08:48:56 | 52.80858 | 8.76014 | 100° | 49km/h | 3494m | -4.8m/s | -2.9°C | 43.0% | 666.7hPa | 2.7V | 00:00:00 | 00:00:00 | 00:00:00 | |
| DM0DOS-11 | 2026-09-01 08:48:55 | 52.80860 | 8.75993 | 101° | 51km/h | 3499m | -5.2m/s | -2.9°C | 44.7% | 666.3hPa | 2.7V | 07:40:57 | 02:11:13 | 00:00:00 | |
| DB0DAN | 2026-09-01 08:48:55 | 52.80847 | 8.76096 | 103° | 47km/h | 3474m | -5.3m/s | -2.7°C | 41.4% | 668.39hPa | 2.6V | 00:00:00 | 00:00:00 | 00:00:00 | |
| DO2JMG | 2026-09-01 08:48:54 | 52.80850 | 8.76076 | 104° | 49km/h | 3479m | -5.1m/s | -2.7°C | 48.2% | 668hPa | 2.7V | 07:42:07 | 02:11:17 | 00:00:00 | |
| DL1XH-west | 2026-09-01 08:48:53 | 52.80853 | 8.76055 | 104° | 51km/h | 3484m | -5.5m/s | -2.8°C | 48.3% | 667.6hPa | 2.7V | 07:41:16 | 02:11:16 | 00:00:00 | |
| DL3AQ-11 | 2026-09-01 08:48:52 | 52.80858 | 8.76014 | 100° | 49km/h | 3494m | -4.8m/s | -2.9°C | 43.0% | 666.7hPa | 2.6V | 00:00:00 | 00:00:00 | 00:00:00 | |
| DL4XJ-10 | 2026-09-01 08:48:51 | 52.80858 | 8.76014 | 101° | 51km/h | 3494m | -4.8m/s | -1.5°C | 0% | 0hPa | 2.6V | 00:00:00 | 00:00:00 | 00:00:00 | |
| GOEST3-10 | 2026-09-01 08:48:50 | 52.80860 | 8.75993 | 102° | 51km/h | 3499m | -5.1m/s | -2.9°C | 44.7% | 666.2hPa | 2.6V | 00:00:00 | 02:11:13 | 00:00:00 | |
| DD8BA-10 | 2026-09-01 08:48:49 | 52.80863 | 8.75972 | 102° | 51km/h | 3504m | -5.2m/s | -2.9°C | 46.0% | 665.8hPa | 2.6V | 00:00:00 | 00:00:00 | 00:00:00 | |
| DL1XH1-15 | 2026-09-01 08:48:48 | 52.80879 | 8.75847 | 103° | 53km/h | 3535m | -5.2m/s | -3.2°C | 49.1% | 663.3hPa | 2.7V | 07:41:04 | 02:11:06 | 00:00:00 | |
| DL1CLM-18 | 2026-09-01 08:48:47 | 52.80868 | 8.75931 | 103° | 51km/h | 3515m | -5.0m/s | -3.0°C | 45.8% | 665.1hPa | 2.7V | 00:00:00 | 00:00:00 | 00:00:00 | |
| DN9WHV | 2026-09-01 08:48:46 | 52.80868 | 8.75931 | 103° | 51km/h | 3515m | -5.0m/s | -3.0°C | 45.8% | 665.1hPa | 2.7V | 07:41:00 | 00:00:00 | 00:00:00 | |
| DM0DOS-11 | 2026-09-01 08:48:45 | 52.80873 | 8.75889 | 102° | 53km/h | 3525m | -5.2m/s | -3.1°C | 48.9% | 664.1hPa | 2.7V | 07:41:02 | 02:11:08 | 00:00:00 | |
| DM0DOS-11 | 2026-09-01 08:48:45 | 52.80888 | 8.75782 | 100° | 53km/h | 3551m | -5m/s | -3.4°C | 50.2% | 662hPa | 2.7V | 07:41:07 | 02:11:03 | 00:00:00 | |
| DL1XH-west | 2026-09-01 08:48:43 | 52.80879 | 8.75847 | 103° | 53km/h | 3535m | -5.2m/s | -3.2°C | 53.3% | 663.4hPa | 2.7V | 07:41:16 | 02:11:06 | 00:00:00 | |
| DL4BBY-15 | 2026-09-01 08:48:42 | 52.80882 | 8.75825 | 103° | 53km/h | 3541m | -5.3m/s | -1.9°C | 0% | 0hPa | 2.7V | 00:00:00 | 00:00:00 | 00:00:00 | |
| DB0DAN | 2026-09-01 08:48:40 | 52.80887 | 8.75782 | 100° | 49km/h | 3551m | -5.1m/s | -3.4°C | 48.5% | 662.02hPa | 2.7V | 00:00:00 | 00:00:00 | 00:00:00 | |
| GOEST3-10 | 2026-09-01 08:48:40 | 52.80887 | 8.75782 | 101° | 53km/h | 3551m | -5.0m/s | -3.3°C | 50.2% | 662.0hPa | 2.7V | 00:00:00 | 02:11:03 | 00:00:00 | |
| DD8BA-10 | 2026-09-01 08:48:39 | 52.80890 | 8.75761 | 102° | 53km/h | 3556m | -5.4m/s | -3.4°C | 51.2% | 661.5hPa | 2.7V | 00:00:00 | 00:00:00 | 00:00:00 | |
| DL1XH1-15 | 2026-09-01 08:48:38 | 52.80904 | 8.75631 | 99° | 53km/h | 3587m | -5.4m/s | -3.7°C | 52.4% | 659hPa | 2.7V | 07:41:14 | 02:10:56 | 00:00:00 | |
| DJ2DS-15 | 2026-09-01 08:48:38 | 52.80893 | 8.75739 | 102° | 53km/h | 3562m | -5.2m/s | -3.4°C | 51.5% | 661.1hPa | 2.6V | 00:00:00 | 02:11:01 | 00:00:00 | |
| DF5WG-10 | 2026-09-01 08:48:37 | 52.80895 | 8.75717 | 100° | 53km/h | 3567m | -5.1m/s | -3.5°C | 51.3% | 660.7hPa | 2.6V | 00:00:00 | 02:11:00 | 00:00:00 | |
| DN9WHV | 2026-09-01 08:48:36 | 52.80895 | 8.75717 | 101° | 53km/h | 3567m | -5.1m/s | -3.5°C | 49.6% | 660.7hPa | 2.6V | 07:41:00 | 00:00:00 | 00:00:00 | |
| DM0DOS-11 | 2026-09-01 08:48:35 | 52.80900 | 8.75674 | 101° | 53km/h | 3577m | -5m/s | -3.6°C | 51.8% | 659.8hPa | 2.6V | 07:41:12 | 02:10:58 | 00:00:00 | |
| DM0DOS-11 | 2026-09-01 08:48:35 | 52.80911 | 8.75567 | 99° | 51km/h | 3603m | -5.2m/s | -3.9°C | 53.9% | 657.6hPa | 2.7V | 07:41:17 | 02:10:53 | 00:00:00 | |
| BIOWL1-15 | 2026-09-01 08:48:33 | 52.80905 | 8.75631 | 99° | 53km/h | 3587m | -5.4m/s | -3.7°C | 56.6% | 659hPa | 2.7V | 07:41:16 | 02:10:56 | 00:00:00 | |
| DL1XH-west | 2026-09-01 08:48:32 | 52.80907 | 8.75609 | 100° | 53km/h | 3593m | -5.4m/s | -3.8°C | 56.9% | 658.4hPa | 2.7V | 07:41:16 | 02:10:55 | 00:00:00 | |
| DM0DOS-11 | 2026-09-01 08:48:30 | 52.80923 | 8.75460 | 99° | 53km/h | 3629m | -5.2m/s | -4.1°C | 59.3% | 655.3hPa | 2.7V | 07:41:22 | 02:10:48 | 00:00:00 | |
| GOEST3-10 | 2026-09-01 08:48:30 | 52.80911 | 8.75567 | 100° | 51km/h | 3604m | -5.1m/s | -3.8°C | 53.9% | 657.5hPa | 2.7V | 00:00:00 | 02:10:53 | 00:00:00 | |
| DD8BA-10 | 2026-09-01 08:48:29 | 52.80913 | 8.75545 | 101° | 53km/h | 3609m | -5.2m/s | -3.9°C | 54.5% | 657.1hPa | 2.7V | 00:00:00 | 00:00:00 | 00:00:00 | |
| DL1XH1-15 | 2026-09-01 08:48:28 | 52.80928 | 8.75417 | 99° | 53km/h | 3640m | -5m/s | -4.2°C | 59.2% | 654.6hPa | 2.7V | 07:41:24 | 02:10:46 | 00:00:00 | |
| DF5WG-10 | 2026-09-01 08:48:27 | 52.80918 | 8.75503 | 103° | 53km/h | 3619m | -5.1m/s | -4.0°C | 59.0% | 656.3hPa | 2.7V | 00:00:00 | 02:10:50 | 00:00:00 | |
| DN9WHV | 2026-09-01 08:48:26 | 52.80918 | 8.75503 | 103° | 51km/h | 3619m | -5.1m/s | -4.0°C | 57.0% | 656.4hPa | 2.7V | 07:42:00 | 00:00:00 | 00:00:00 | |
| DM0DOS-11 | 2026-09-01 08:48:25 | 52.80934 | 8.75352 | 99° | 51km/h | 3655m | -5.3m/s | -4.3°C | 56.6% | 653.3hPa | 2.7V | 07:41:27 | 02:10:43 | 00:00:00 | |
| DB0DAN | 2026-09-01 08:48:25 | 52.80923 | 8.75460 | 100° | 51km/h | 3630m | -5.2m/s | -4.1°C | 57.3% | 655.35hPa | 2.7V | 00:00:00 | 00:00:00 | 00:00:00 | |
| BIOWL1-15 | 2026-09-01 08:48:23 | 52.80932 | 8.75373 | 99° | 53km/h | 3650m | -5.2m/s | -4.2°C | 60.6% | 653.8hPa | 2.6V | 07:42:58 | 02:10:44 | 00:00:00 | |
| DL1XH-west | 2026-09-01 08:48:22 | 52.80930 | 8.75395 | 99° | 53km/h | 3645m | -5.3m/s | -4.2°C | 62.5% | 654.2hPa | 2.6V | 07:42:07 | 02:10:45 | 00:00:00 | |
| DO2JMG | 2026-09-01 08:48:15 | 52.80945 | 8.75247 | 100° | 51km/h | 3682m | -5.4m/s | -4.5°C | 63.8% | 651.1hPa | 2.6V | 07:42:07 | 02:10:38 | 00:00:00 | |
| GOEST3-10 | 2026-09-01 08:48:15 | 52.80945 | 8.75247 | 101° | 51km/h | 3682m | -5.3m/s | -4.4°C | 60.6% | 651.1hPa | 2.7V | 07:41:00 | 00:00:00 | 00:00:00 | |
| DN9WHV | 2026-09-01 08:48:14 | 52.80945 | 8.75247 | 101° | 51km/h | 3682m | -5.4m/s | -4.5°C | 58.4% | 651.1hPa | 2.7V | 07:42:00 | 00:00:00 | 00:00:00 | |
| DL1XH1-15 | 2026-09-01 08:48:13 | 52.80949 | 8.75205 | 99° | 51km/h | 3693m | -5.2m/s | -4.6°C | 62.2% | 650.2hPa | 2.7V | 07:41:34 | 02:10:36 | 00:00:00 | |
| DL1XH1-15 | 2026-09-01 08:48:13 | 52.80959 | 8.75102 | 100° | 49km/h | 3718m | -5.1m/s | -4.8°C | 64.6% | 648.1hPa | 2.6V | 07:41:39 | 02:10:31 | 00:00:00 | |
| BIOWL1-15 | 2026-09-01 08:48:13 | 52.80953 | 8.75163 | 99° | 51km/h | 3703m | -4.8m/s | -4.7°C | 66.7% | 649.4hPa | 2.7V | 07:42:58 | 02:10:34 | 00:00:00 | |
| DL1XH-west | 2026-09-01 08:48:12 | 52.80951 | 8.75184 | 99° | 49km/h | 3698m | -5.1m/s | -4.6°C | 66.1% | 649.8hPa | 2.7V | 07:42:07 | 02:10:35 | 00:00:00 | |
| DL4BBY-15 | 2026-09-01 08:48:12 | 52.80951 | 8.75184 | 100° | 51km/h | 3698m | -5.1m/s | -3.3°C | 0% | 0hPa | 2.7V | 00:00:00 | 00:00:00 | 00:00:00 | |
| DL4XJ-10 | 2026-09-01 08:48:11 | 52.80953 | 8.75163 | 99° | 49km/h | 3704m | -4.8m/s | -3.3°C | 0% | 0hPa | 2.7V | 00:00:00 | 00:00:00 | 00:00:00 | |
| DM0DOS-11 | 2026-09-01 08:48:10 | 52.80967 | 8.75041 | 99° | 49km/h | 3733m | -5m/s | -4.9°C | 64.6% | 646.9hPa | 2.7V | 07:41:42 | 02:10:28 | 00:00:00 | |
| DB0DAN | 2026-09-01 08:48:10 | 52.80955 | 8.75142 | 99° | 47km/h | 3708m | -5.2m/s | -4.7°C | 61.9% | 649.11hPa | 2.7V | 00:00:00 | 00:00:00 | 00:00:00 | |
| DO2JMG | 2026-09-01 08:48:05 | 52.80967 | 8.75041 | 99° | 49km/h | 3733m | -5.1m/s | -4.9°C | 67.2% | 646.9hPa | 2.7V | 07:42:07 | 02:10:28 | 00:00:00 | |
| BIOWL1-15 | 2026-09-01 08:48:05 | 52.80979 | 8.74918 | 98° | 51km/h | 3764m | -5.3m/s | -5.1°C | 67.2% | 644.4hPa | 2.7V | 07:42:58 | 02:10:22 | 00:00:00 | |
| GOEST3-10 | 2026-09-01 08:48:05 | 52.80967 | 8.75041 | 100° | 49km/h | 3733m | -5.0m/s | -4.8°C | 64.6% | 646.8hPa | 2.6V | 00:00:00 | 00:00:00 | 00:00:00 | |
| DL1XH1-15 | 2026-09-01 08:48:03 | 52.80971 | 8.75000 | 99° | 49km/h | 3744m | -4.9m/s | -5°C | 63.7% | 646.1hPa | 2.6V | 07:41:44 | 02:10:26 | 00:00:00 | |
| DL1XH1-15 | 2026-09-01 08:48:03 | 52.80981 | 8.74897 | 97° | 51km/h | 3769m | -5.2m/s | -5.2°C | 65.1% | 644hPa | 2.7V | 07:41:49 | 02:10:21 | 00:00:00 | |
| DL1XH-west | 2026-09-01 08:48:02 | 52.80973 | 8.74980 | 100° | 49km/h | 3749m | -5.2m/s | -5°C | 66.6% | 645.6hPa | 2.6V | 07:42:07 | 02:10:25 | 00:00:00 | |
| DN9WHV | 2026-09-01 08:48:01 | 52.80973 | 8.74980 | 101° | 49km/h | 3749m | -5.2m/s | -5.0°C | 61.7% | 645.6hPa | 2.7V | 07:42:00 | 00:00:00 | 00:00:00 | |
| DL3AQ-11 | 2026-09-01 08:47:59 | 52.80981 | 8.74897 | 97° | 49km/h | 3769m | -5.2m/s | -5.2°C | 62.8% | 644.0hPa | 2.7V | 00:00:00 | 00:00:00 | 00:00:00 | |
| DJ2DS-15 | 2026-09-01 08:47:58 | 52.80981 | 8.74897 | 98° | 51km/h | 3769m | -5.1m/s | -5.1°C | 65.1% | 643.9hPa | 2.7V | 07:41:00 | 02:10:21 | 00:00:00 | |
| DF5WG-10 | 2026-09-01 08:47:57 | 52.80983 | 8.74875 | 97° | 51km/h | 3775m | -5.3m/s | -5.2°C | 65.8% | 643.4hPa | 2.6V | 00:00:00 | 02:10:20 | 00:00:00 | |
| DN9WHV | 2026-09-01 08:47:56 | 52.80983 | 8.74875 | 98° | 51km/h | 3775m | -5.3m/s | -5.2°C | 63.4% | 643.5hPa | 2.6V | 07:42:00 | 00:00:00 | 00:00:00 | |
| DM0DOS-11 | 2026-09-01 08:47:55 | 52.80986 | 8.74834 | 96° | 49km/h | 3785m | -5.2m/s | -5.3°C | 66.2% | 642.6hPa | 2.6V | 07:41:52 | 02:10:18 | 00:00:00 | |
| DM0DOS-11 | 2026-09-01 08:47:55 | 52.80994 | 8.74731 | 99° | 51km/h | 3811m | -5.4m/s | -5.5°C | 61.2% | 640.5hPa | 2.6V | 07:41:57 | 02:10:13 | 00:00:00 | |
| DB0DAN | 2026-09-01 08:47:55 | 52.80986 | 8.74834 | 97° | 47km/h | 3786m | -5.2m/s | -5.3°C | 63.8% | 642.62hPa | 2.6V | 00:00:00 | 00:00:00 | 00:00:00 | |
| DO2JMG | 2026-09-01 08:47:55 | 52.80987 | 8.74813 | 97° | 49km/h | 3791m | -4.9m/s | -5.3°C | 67.6% | 642.3hPa | 2.7V | 07:42:07 | 02:10:17 | 00:00:00 | |
| HTAHTA | 2026-09-01 08:47:54 | 52.80989 | 8.74793 | 97° | 47km/h | 3796m | -5.1m/s | -5.3°C | 55.6% | 641.8hPa | 2.7V | 00:00:00 | 00:00:00 | 00:00:00 | |
| DL1XH-15 | 2026-09-01 08:47:53 | 52.80989 | 8.74793 | 97° | 49km/h | 3796m | -5.1m/s | -5.3°C | 57.7% | 641.8hPa | 2.7V | 07:41:54 | 02:10:16 | 00:00:00 | |
| DL1XH-west | 2026-09-01 08:47:51 | 52.80992 | 8.74752 | 99° | 51km/h | 3806m | -5.4m/s | -5.4°C | 61.6% | 641hPa | 2.7V | 07:42:07 | 02:10:14 | 00:00:00 | |
| DL4XJ-10 | 2026-09-01 08:47:51 | 52.80992 | 8.74752 | 99° | 51km/h | 3806m | -5.4m/s | -4.1°C | 0% | 0hPa | 2.7V | 00:00:00 | 00:00:00 | 00:00:00 | |
| DM0DOS-11 | 2026-09-01 08:47:50 | 52.81006 | 8.74625 | 100° | 51km/h | 3838m | -5.5m/s | -5.7°C | 64.3% | 638.4hPa | 2.7V | 07:42:02 | 02:10:08 | 00:00:00 | |
| GOEST3-10 | 2026-09-01 08:47:50 | 52.80995 | 8.74731 | 100° | 51km/h | 3812m | -5.3m/s | -5.5°C | 61.2% | 640.4hPa | 2.7V | 00:00:00 | 02:10:13 | 00:00:00 | |
| DN9WHV | 2026-09-01 08:47:49 | 52.80994 | 8.74731 | 101° | 51km/h | 3812m | -5.4m/s | -5.5°C | 59.0% | 640.5hPa | 2.7V | 07:42:00 | 00:00:00 | 00:00:00 | |
| DL1XH1-15 | 2026-09-01 08:47:48 | 52.80999 | 8.74688 | 99° | 51km/h | 3822m | -5.4m/s | -5.6°C | 67.6% | 639.6hPa | 2.7V | 07:41:59 | 02:10:11 | 00:00:00 | |
| BIOWL1-15 | 2026-09-01 08:47:48 | 52.80999 | 8.74688 | 100° | 51km/h | 3822m | -5.4m/s | -5.6°C | 69.3% | 639.6hPa | 2.7V | 07:42:58 | 02:10:11 | 00:00:00 | |
| SONCRA | 2026-09-01 08:47:46 | 52.81004 | 8.74646 | 100° | 51km/h | 3832m | -5.2m/s | -5.6°C | 61.4% | 638.8hPa | 2.7V | 00:00:00 | 00:00:00 | 00:00:00 | |
| GOEST3-10 | 2026-09-01 08:47:45 | 52.81006 | 8.74625 | 101° | 49km/h | 3838m | -5.4m/s | -5.6°C | 64.3% | 638.4hPa | 2.7V | 00:00:00 | 00:00:00 | 00:00:00 | |
| DM0DOS-11 | 2026-09-01 08:47:45 | 52.81019 | 8.74523 | 103° | 49km/h | 3863m | -5m/s | -5.7°C | 53.5% | 636.4hPa | 2.7V | 07:42:07 | 02:10:03 | 00:00:00 | |
| DN9WHV | 2026-09-01 08:47:44 | 52.81006 | 8.74625 | 102° | 51km/h | 3838m | -5.5m/s | -5.7°C | 61.9% | 638.4hPa | 2.7V | 07:42:00 | 00:00:00 | 00:00:00 | |
| DO2JMG | 2026-09-01 08:47:44 | 52.81009 | 8.74604 | 101° | 51km/h | 3843m | -5.3m/s | -5.7°C | 66.4% | 638.1hPa | 2.6V | 07:42:07 | 02:10:07 | 00:00:00 | |
| DL1XH1-15 | 2026-09-01 08:47:43 | 52.81025 | 8.74482 | 102° | 51km/h | 3873m | -5.2m/s | -5.8°C | 63.5% | 635.5hPa | 2.7V | 07:42:09 | 02:10:01 | 00:00:00 | |
| DL1XH-west | 2026-09-01 08:47:41 | 52.81017 | 8.74543 | 103° | 49km/h | 3859m | -4.5m/s | -5.7°C | 58.3% | 636.7hPa | 2.7V | 07:42:07 | 02:10:04 | 00:00:00 | |
| DM0DOS-11 | 2026-09-01 08:47:40 | 52.81034 | 8.74420 | 103° | 51km/h | 3888m | -5.4m/s | -5.8°C | 83.2% | 634.3hPa | 2.7V | 07:42:12 | 02:09:58 | 00:00:00 | |
| DB0DAN | 2026-09-01 08:47:40 | 52.81019 | 8.74523 | 103° | 47km/h | 3863m | -5m/s | -5.7°C | 51.5% | 636.36hPa | 2.7V | 00:00:00 | 00:00:00 | 00:00:00 | |
| BIOWL1-15 | 2026-09-01 08:47:38 | 52.81025 | 8.74482 | 103° | 51km/h | 3874m | -5.2m/s | -5.8°C | 65.6% | 635.5hPa | 2.7V | 07:42:58 | 02:10:01 | 00:00:00 | |
| DF5WG-10 | 2026-09-01 08:47:37 | 52.81028 | 8.74461 | 103° | 51km/h | 3879m | -4.7m/s | -5.7°C | 67.2% | 635.0hPa | 2.6V | 00:00:00 | 02:10:00 | 00:00:00 | |
| DO9LL-15 | 2026-09-01 08:47:36 | 52.81031 | 8.74441 | 104° | 53km/h | 3883m | -4.6m/s | -5.8°C | 76.9% | 634.6hPa | 2.6V | 07:42:00 | 02:09:59 | 00:00:00 | |
| DM0DOS-11 | 2026-09-01 08:47:35 | 52.81052 | 8.74318 | 107° | 53km/h | 3913m | -4.9m/s | -5.7°C | 82.9% | 632.2hPa | 2.6V | 07:42:17 | 02:09:53 | 00:00:00 | |
| DO2JMG | 2026-09-01 08:47:33 | 52.81040 | 8.74380 | 107° | 49km/h | 3898m | -4.6m/s | -5.8°C | 84.6% | 633.5hPa | 2.7V | 07:42:58 | 02:09:56 | 00:00:00 | |
| DL1XH-15 | 2026-09-01 08:47:33 | 52.81040 | 8.74380 | 106° | 49km/h | 3898m | -4.6m/s | -5.8°C | 84.3% | 633.5hPa | 2.7V | 07:42:14 | 02:09:56 | 00:00:00 | |
| DL1XH-west | 2026-09-01 08:47:30 | 52.81051 | 8.74318 | 108° | 53km/h | 3913m | -4.9m/s | -5.7°C | 84.1% | 632.2hPa | 2.6V | 07:42:58 | 02:09:53 | 00:00:00 | |
| BIOWL1-15 | 2026-09-01 08:47:29 | 52.81064 | 8.74256 | 109° | 53km/h | 3928m | -5m/s | -5.8°C | 84.3% | 631hPa | 2.7V | 07:42:58 | 02:09:50 | 00:00:00 | |
| DD8BA-10 | 2026-09-01 08:47:29 | 52.81056 | 8.74298 | 110° | 53km/h | 3918m | -5.0m/s | -5.7°C | 83.3% | 631.8hPa | 2.7V | 00:00:00 | 00:00:00 | 00:00:00 | |
| DL1XH1-15 | 2026-09-01 08:47:28 | 52.81082 | 8.74172 | 109° | 53km/h | 3947m | -4.9m/s | -6°C | 83.7% | 629.6hPa | 2.7V | 07:42:24 | 02:09:46 | 00:00:00 | |
| DF5WG-10 | 2026-09-01 08:47:27 | 52.81064 | 8.74256 | 110° | 53km/h | 3928m | -5.0m/s | -5.8°C | 83.3% | 631.0hPa | 2.7V | 00:00:00 | 02:09:50 | 00:00:00 | |
| DN9WHV | 2026-09-01 08:47:26 | 52.81064 | 8.74256 | 110° | 53km/h | 3928m | -5.0m/s | -5.8°C | 80.3% | 631.0hPa | 2.7V | 07:42:00 | 00:00:00 | 00:00:00 | |
| DM0DOS-11 | 2026-09-01 08:47:25 | 52.81094 | 8.74110 | 109° | 53km/h | 3962m | -5.2m/s | -6°C | 83.3% | 628.3hPa | 2.7V | 07:42:27 | 02:09:43 | 00:00:00 | |
| DB0DAN | 2026-09-01 08:47:25 | 52.81073 | 8.74214 | 109° | 51km/h | 3938m | -5.1m/s | -5.9°C | 80.3% | 630.29hPa | 2.6V | 00:00:00 | 00:00:00 | 00:00:00 | |
| DO2JMG | 2026-09-01 08:47:23 | 52.81082 | 8.74172 | 109° | 53km/h | 3947m | -4.9m/s | -6°C | 84.2% | 629.6hPa | 2.7V | 07:42:58 | 02:09:46 | 00:00:00 | |
| DL1XH-west | 2026-09-01 08:47:20 | 52.81094 | 8.74110 | 109° | 53km/h | 3962m | -5.2m/s | -6°C | 84.1% | 628.3hPa | 2.7V | 07:42:58 | 02:09:43 | 00:00:00 | |
| GOEST3-10 | 2026-09-01 08:47:20 | 52.81094 | 8.74110 | 110° | 53km/h | 3962m | -5.2m/s | -6.0°C | 83.3% | 628.3hPa | 2.7V | 00:00:00 | 02:09:43 | 00:00:00 | |
| DL3AQ-11 | 2026-09-01 08:47:19 | 52.81104 | 8.74069 | 111° | 53km/h | 3972m | -4.6m/s | -6.0°C | 79.2% | 627.5hPa | 2.7V | 00:00:00 | 00:00:00 | 00:00:00 | |
| DL1XH1-15 | 2026-09-01 08:47:18 | 52.81129 | 8.73964 | 110° | 55km/h | 3997m | -5.2m/s | -6.1°C | 80% | 625.5hPa | 2.7V | 07:42:34 | 02:09:36 | 00:00:00 | |
| DF5WG-10 | 2026-09-01 08:47:17 | 52.81109 | 8.74048 | 112° | 55km/h | 3977m | -4.6m/s | -6.0°C | 80.7% | 627.1hPa | 2.7V | 00:00:00 | 02:09:40 | 00:00:00 | |
| DN9WHV | 2026-09-01 08:47:16 | 52.81109 | 8.74048 | 112° | 53km/h | 3977m | -4.7m/s | -6.0°C | 77.7% | 627.1hPa | 2.7V | 07:42:00 | 00:00:00 | 00:00:00 | |
| DM0DOS-11 | 2026-09-01 08:47:15 | 52.81119 | 8.74007 | 111° | 55km/h | 3986m | -5.2m/s | -6°C | 80.3% | 626.4hPa | 2.7V | 07:42:32 | 02:09:38 | 00:00:00 | |
| DM0DOS-11 | 2026-09-01 08:47:15 | 52.81144 | 8.73900 | 110° | 55km/h | 4012m | -4.8m/s | -6.1°C | 75.2% | 624.2hPa | 2.7V | 07:42:37 | 02:09:33 | 00:00:00 | |
| BIOWL1-15 | 2026-09-01 08:47:12 | 52.81134 | 8.73943 | 111° | 55km/h | 4002m | -5.1m/s | -6.1°C | 80.4% | 625.1hPa | 2.6V | 07:42:58 | 02:09:35 | 00:00:00 | |
| DL4BBY-15 | 2026-09-01 08:47:12 | 52.81134 | 8.73943 | 112° | 57km/h | 4002m | -5.1m/s | -4.8°C | 0% | 0hPa | 2.6V | 00:00:00 | 00:00:00 | 00:00:00 | |
| DL4XJ-10 | 2026-09-01 08:47:11 | 52.81139 | 8.73922 | 112° | 57km/h | 4007m | -4.9m/s | -4.8°C | 0% | 0hPa | 2.6V | 00:00:00 | 00:00:00 | 00:00:00 | |
| DM0DOS-11 | 2026-09-01 08:47:10 | 52.81168 | 8.73790 | 108° | 57km/h | 4037m | -4.8m/s | -6.3°C | 75.1% | 622.3hPa | 2.6V | 07:42:42 | 02:09:28 | 00:00:00 | |
| DB0DAN | 2026-09-01 08:47:10 | 52.81144 | 8.73900 | 110° | 53km/h | 4012m | -4.8m/s | -6.1°C | 72.4% | 624.26hPa | 2.7V | 00:00:00 | 00:00:00 | 00:00:00 | |
| GOEST3-10 | 2026-09-01 08:47:10 | 52.81144 | 8.73900 | 111° | 57km/h | 4012m | -4.7m/s | -6.1°C | 75.2% | 624.2hPa | 2.7V | 00:00:00 | 02:09:33 | 00:00:00 | |
| DD8BA-10 | 2026-09-01 08:47:09 | 52.81149 | 8.73878 | 110° | 57km/h | 4017m | -4.8m/s | -6.1°C | 75.2% | 623.9hPa | 2.6V | 00:00:00 | 00:00:00 | 00:00:00 | |
| DL1XH-west | 2026-09-01 08:47:09 | 52.81149 | 8.73878 | 109° | 55km/h | 4017m | -4.9m/s | -6.1°C | 77.1% | 623.9hPa | 2.7V | 07:42:58 | 02:09:32 | 00:00:00 | |
| DL3AQ-11 | 2026-09-01 08:47:08 | 52.81158 | 8.73835 | 109° | 57km/h | 4027m | -5.2m/s | -6.2°C | 72.5% | 623.1hPa | 2.6V | 00:00:00 | 00:00:00 | 00:00:00 | |
| DF5WG-10 | 2026-09-01 08:47:07 | 52.81158 | 8.73834 | 110° | 57km/h | 4027m | -5.1m/s | -6.2°C | 75.4% | 623.0hPa | 2.6V | 00:00:00 | 02:09:30 | 00:00:00 | |
| DO9LL-15 | 2026-09-01 08:47:06 | 52.81163 | 8.73812 | 110° | 58km/h | 4032m | -5.2m/s | -6.2°C | 75.4% | 622.7hPa | 2.6V | 00:00:00 | 02:09:29 | 00:00:00 | |
| DM0DOS-11 | 2026-09-01 08:47:05 | 52.81191 | 8.73677 | 108° | 57km/h | 4062m | -5.1m/s | -6.4°C | 74.6% | 620.4hPa | 2.6V | 07:42:47 | 02:09:23 | 00:00:00 | |
| BIOWL1-15 | 2026-09-01 08:47:03 | 52.81182 | 8.73722 | 108° | 57km/h | 4052m | -5.3m/s | -6.3°C | 77.1% | 621.2hPa | 2.7V | 07:42:58 | 02:09:25 | 00:00:00 | |
| DO2JMG | 2026-09-01 08:47:01 | 52.81186 | 8.73699 | 108° | 57km/h | 4057m | -5m/s | -6.4°C | 76.9% | 620.8hPa | 2.7V | 07:42:58 | 02:09:24 | 00:00:00 | |
| DM0DOS-11 | 2026-09-01 08:47:00 | 52.81214 | 8.73563 | 107° | 57km/h | 4088m | -4.9m/s | -6.5°C | 75.5% | 618.4hPa | 2.7V | 07:42:52 | 02:09:18 | 00:00:00 | |
| GOEST3-10 | 2026-09-01 08:47:00 | 52.81191 | 8.73677 | 109° | 58km/h | 4062m | -5.1m/s | -6.3°C | 74.6% | 620.3hPa | 2.7V | 00:00:00 | 02:09:23 | 00:00:00 | |
| SMARD9-10 | 2026-09-01 08:46:59 | 52.81191 | 8.73677 | 110° | 57km/h | 4062m | -5.1m/s | -6.4°C | 71.8% | 620.4hPa | 2.7V | 00:00:00 | 00:00:00 | 00:00:00 | |
| DL1XH-15 | 2026-09-01 08:46:58 | 52.81200 | 8.73631 | 108° | 57km/h | 4072m | -5.2m/s | -6.5°C | 75% | 619.6hPa | 2.7V | 07:42:49 | 02:09:21 | 00:00:00 | |
| BIOWL1-15 | 2026-09-01 08:46:58 | 52.81228 | 8.73494 | 108° | 58km/h | 4103m | -5m/s | -6.7°C | 78.8% | 617.2hPa | 2.7V | 07:42:58 | 02:09:15 | 00:00:00 | |
| DL1XH-west | 2026-09-01 08:46:58 | 52.81200 | 8.73631 | 108° | 57km/h | 4072m | -5.2m/s | -6.5°C | 77.2% | 619.6hPa | 2.7V | 07:42:58 | 02:09:21 | 00:00:00 | |
| DF5WG-10 | 2026-09-01 08:46:57 | 52.81205 | 8.73608 | 109° | 58km/h | 4078m | -4.9m/s | -6.4°C | 75.2% | 619.1hPa | 2.7V | 00:00:00 | 02:09:20 | 00:00:00 | |
| DJ2DS-15 | 2026-09-01 08:46:56 | 52.81209 | 8.73586 | 109° | 58km/h | 4082m | -5.0m/s | -6.5°C | 75.3% | 618.7hPa | 2.7V | 00:00:00 | 02:09:19 | 00:00:00 | |
| DM0DOS-11 | 2026-09-01 08:46:55 | 52.81236 | 8.73447 | 106° | 58km/h | 4113m | -5.1m/s | -6.7°C | 77% | 616.5hPa | 2.7V | 07:42:57 | 02:09:13 | 00:00:00 | |
| DB0DAN | 2026-09-01 08:46:55 | 52.81214 | 8.73563 | 107° | 55km/h | 4088m | -4.9m/s | -6.5°C | 72.7% | 618.39hPa | 2.7V | 00:00:00 | 00:00:00 | 00:00:00 | |
| GOEST3-10 | 2026-09-01 08:46:55 | 52.81214 | 8.73563 | 108° | 58km/h | 4088m | -4.9m/s | -6.5°C | 75.5% | 618.3hPa | 2.7V | 07:42:00 | 00:00:00 | 00:00:00 | |
| DN9WHV | 2026-09-01 08:46:54 | 52.81214 | 8.73563 | 108° | 57km/h | 4088m | -4.9m/s | -6.5°C | 72.7% | 618.4hPa | 2.6V | 07:42:00 | 00:00:00 | 00:00:00 | |
| DL1XH1-15 | 2026-09-01 08:46:53 | 52.81245 | 8.73401 | 107° | 58km/h | 4124m | -4.9m/s | -6.8°C | 77.7% | 615.6hPa | 2.6V | 07:42:59 | 02:09:11 | 00:00:00 | |
| DO2JMG | 2026-09-01 08:46:51 | 52.81232 | 8.73470 | 106° | 58km/h | 4108m | -4.8m/s | -6.7°C | 79% | 616.8hPa | 2.7V | 07:42:58 | 02:09:14 | 00:00:00 | |
| DL1XH-west | 2026-09-01 08:46:47 | 52.81249 | 8.73377 | 107° | 58km/h | 4129m | -4.8m/s | -6.9°C | 79.6% | 615.2hPa | 2.6V | 07:43:49 | 02:09:10 | 00:00:00 | |
| SONCRA | 2026-09-01 08:46:44 | 52.81263 | 8.73306 | 107° | 58km/h | 4143m | -5.0m/s | -7.0°C | 75.2% | 614.0hPa | 2.7V | 00:00:00 | 00:00:00 | 00:00:00 | |
| DL1XH1-15 | 2026-09-01 08:46:43 | 52.81268 | 8.73283 | 106° | 58km/h | 4148m | -4.9m/s | -7.1°C | 78.5% | 613.6hPa | 2.7V | 07:43:04 | 02:09:06 | 00:00:00 | |
| DL1XH1-15 | 2026-09-01 08:46:43 | 52.81288 | 8.73163 | 106° | 60km/h | 4173m | -4.6m/s | -7.3°C | 79.7% | 611.6hPa | 2.7V | 07:43:09 | 02:09:01 | 00:00:00 | |
| BIOWL1-15 | 2026-09-01 08:46:43 | 52.81276 | 8.73235 | 106° | 60km/h | 4158m | -5.2m/s | -7.2°C | 80.6% | 612.9hPa | 2.6V | 07:43:49 | 02:09:04 | 00:00:00 | |
| DO2JMG | 2026-09-01 08:46:40 | 52.81280 | 8.73211 | 105° | 58km/h | 4164m | -4.8m/s | -7.2°C | 80.8% | 612.5hPa | 2.7V | 07:43:49 | 02:09:03 | 00:00:00 | |
| DM0DOS-11 | 2026-09-01 08:46:40 | 52.81280 | 8.73211 | 105° | 58km/h | 4164m | -4.8m/s | -7.2°C | 79.2% | 612.5hPa | 2.7V | 07:43:07 | 02:09:03 | 00:00:00 | |
| DB0DAN | 2026-09-01 08:46:40 | 52.81280 | 8.73211 | 105° | 57km/h | 4164m | -4.8m/s | -7.2°C | 76.1% | 612.5hPa | 2.7V | 00:00:00 | 00:00:00 | 00:00:00 | |
| DL1XH-west | 2026-09-01 08:46:37 | 52.81293 | 8.73139 | 106° | 60km/h | 4178m | -4.5m/s | -7.3°C | 81.3% | 611.4hPa | 2.7V | 07:43:49 | 02:09:00 | 00:00:00 | |
| DF5WG-10 | 2026-09-01 08:46:37 | 52.81292 | 8.73139 | 106° | 62km/h | 4178m | -4.5m/s | -7.3°C | 79.9% | 611.3hPa | 2.6V | 00:00:00 | 02:09:00 | 00:00:00 | |
| DO9LL-15 | 2026-09-01 08:46:36 | 52.81297 | 8.73115 | 107° | 60km/h | 4183m | -4.4m/s | -7.4°C | 80.1% | 610.8hPa | 2.6V | 00:00:00 | 02:08:59 | 00:00:00 | |
| DM0DOS-11 | 2026-09-01 08:46:35 | 52.81322 | 8.72967 | 106° | 60km/h | 4212m | -5.4m/s | -7.7°C | 81.7% | 608.5hPa | 2.6V | 07:43:17 | 02:08:53 | 00:00:00 | |
| GOEST3-10 | 2026-09-01 08:46:35 | 52.81301 | 8.73090 | 107° | 62km/h | 4187m | -4.3m/s | -7.4°C | 80.5% | 610.4hPa | 2.7V | 00:00:00 | 00:00:00 | 00:00:00 | |
| DL1XH1-15 | 2026-09-01 08:46:33 | 52.81310 | 8.73041 | 104° | 62km/h | 4196m | -5m/s | -7.5°C | 80.9% | 609.9hPa | 2.7V | 07:43:14 | 02:08:56 | 00:00:00 | |
| DL1XH1-15 | 2026-09-01 08:46:33 | 52.81331 | 8.72919 | 107° | 60km/h | 4222m | -5.1m/s | -7.8°C | 82.4% | 607.7hPa | 2.7V | 07:43:19 | 02:08:51 | 00:00:00 | |
| BIOWL1-15 | 2026-09-01 08:46:30 | 52.81322 | 8.72967 | 106° | 60km/h | 4212m | -5.4m/s | -7.7°C | 82.9% | 608.5hPa | 2.6V | 07:43:49 | 02:08:53 | 00:00:00 | |
| DO2JMG | 2026-09-01 08:46:29 | 52.81327 | 8.72943 | 105° | 60km/h | 4217m | -4.9m/s | -7.7°C | 83.1% | 608.2hPa | 2.6V | 07:43:49 | 02:08:52 | 00:00:00 | |
| DL1XH-west | 2026-09-01 08:46:26 | 52.81340 | 8.72871 | 106° | 60km/h | 4232m | -5.2m/s | -7.9°C | 83.6% | 607hPa | 2.7V | 07:43:49 | 02:08:49 | 00:00:00 | |
| DB0DAN | 2026-09-01 08:46:25 | 52.81344 | 8.72847 | 107° | 57km/h | 4237m | -5.3m/s | -7.9°C | 79.4% | 606.58hPa | 2.7V | 00:00:00 | 00:00:00 | 00:00:00 | |
| GOEST3-10 | 2026-09-01 08:46:25 | 52.81344 | 8.72847 | 108° | 60km/h | 4238m | -5.2m/s | -7.9°C | 82.7% | 606.5hPa | 2.7V | 00:00:00 | 00:00:00 | 00:00:00 | |
| DN9WHV | 2026-09-01 08:46:24 | 52.81344 | 8.72847 | 108° | 60km/h | 4238m | -5.3m/s | -7.9°C | 79.5% | 606.6hPa | 2.6V | 07:43:00 | 00:00:00 | 00:00:00 | |
| DL1XH-15 | 2026-09-01 08:46:23 | 52.81353 | 8.72799 | 107° | 60km/h | 4248m | -5m/s | -8°C | 82.3% | 605.7hPa | 2.6V | 07:43:24 | 02:08:46 | 00:00:00 | |
| DL1XH1-15 | 2026-09-01 08:46:23 | 52.81376 | 8.72678 | 106° | 60km/h | 4273m | -4.7m/s | -8.1°C | 80.7% | 603.7hPa | 2.6V | 07:43:29 | 02:08:41 | 00:00:00 | |
| DN9WHV | 2026-09-01 08:46:22 | 52.81353 | 8.72799 | 108° | 60km/h | 4248m | -5.1m/s | -8.0°C | 79.1% | 605.7hPa | 2.7V | 07:43:00 | 00:00:00 | 00:00:00 | |
| DM0DOS-11 | 2026-09-01 08:46:20 | 52.81367 | 8.72726 | 107° | 62km/h | 4263m | -5.2m/s | -8°C | 81.1% | 604.5hPa | 2.7V | 07:43:27 | 02:08:43 | 00:00:00 | |
| BIOWL1-15 | 2026-09-01 08:46:19 | 52.81371 | 8.72702 | 106° | 60km/h | 4268m | -4.9m/s | -8.1°C | 82.1% | 604.2hPa | 2.7V | 07:43:49 | 02:08:42 | 00:00:00 | |
| DD8BA-10 | 2026-09-01 08:46:19 | 52.81371 | 8.72702 | 107° | 62km/h | 4268m | -4.9m/s | -8.0°C | 80.8% | 604.1hPa | 2.7V | 00:00:00 | 00:00:00 | 00:00:00 | |
| DL1XH1-15 | 2026-09-01 08:46:18 | 52.81398 | 8.72555 | 106° | 62km/h | 4299m | -5.4m/s | -8.3°C | 81.1% | 601.7hPa | 2.7V | 07:43:34 | 02:08:36 | 00:00:00 | |
| DF5WG-10 | 2026-09-01 08:46:17 | 52.81380 | 8.72653 | 109° | 62km/h | 4278m | -4.8m/s | -8.1°C | 80.7% | 603.3hPa | 2.6V | 00:00:00 | 02:08:40 | 00:00:00 | |
| DN9WHV | 2026-09-01 08:46:16 | 52.81380 | 8.72654 | 109° | 62km/h | 4278m | -4.8m/s | -8.2°C | 77.5% | 603.4hPa | 2.7V | 07:43:00 | 00:00:00 | 00:00:00 | |
| DM0DOS-11 | 2026-09-01 08:46:15 | 52.81412 | 8.72480 | 107° | 62km/h | 4314m | -5m/s | -8.5°C | 81.3% | 600.5hPa | 2.7V | 07:43:37 | 02:08:33 | 00:00:00 | |
| DL1XH-west | 2026-09-01 08:46:15 | 52.81389 | 8.72604 | 106° | 62km/h | 4288m | -5.3m/s | -8.2°C | 81.9% | 602.5hPa | 2.7V | 07:43:49 | 02:08:38 | 00:00:00 | |
| DJ2DS-15 | 2026-09-01 08:46:14 | 52.81393 | 8.72579 | 108° | 62km/h | 4294m | -5.3m/s | -8.3°C | 80.9% | 602.1hPa | 2.7V | 00:00:00 | 02:08:37 | 00:00:00 | |
| SONCRA | 2026-09-01 08:46:13 | 52.81398 | 8.72555 | 106° | 62km/h | 4299m | -5.4m/s | -8.4°C | 77.8% | 601.7hPa | 2.7V | 00:00:00 | 00:00:00 | 00:00:00 | |
| DL4BBY-15 | 2026-09-01 08:46:12 | 52.81403 | 8.72530 | 108° | 64km/h | 4304m | -4.9m/s | -7.1°C | 0% | 0hPa | 2.7V | 00:00:00 | 00:00:00 | 00:00:00 | |
| DN9WHV | 2026-09-01 08:46:11 | 52.81403 | 8.72530 | 109° | 62km/h | 4304m | -5.0m/s | -8.4°C | 77.9% | 601.3hPa | 2.7V | 07:43:00 | 00:00:00 | 00:00:00 | |
| DB0DAN | 2026-09-01 08:46:10 | 52.81412 | 8.72480 | 107° | 60km/h | 4314m | -5m/s | -8.5°C | 77.9% | 600.54hPa | 2.7V | 00:00:00 | 00:00:00 | 00:00:00 | |
| DO2JMG | 2026-09-01 08:46:09 | 52.81416 | 8.72455 | 106° | 60km/h | 4319m | -4.9m/s | -8.5°C | 82.3% | 600.2hPa | 2.7V | 07:43:49 | 02:08:32 | 00:00:00 | |
| DL1XH1-15 | 2026-09-01 08:46:08 | 52.81421 | 8.72431 | 106° | 60km/h | 4324m | -4.9m/s | -8.6°C | 81.5% | 599.7hPa | 2.7V | 07:43:39 | 02:08:31 | 00:00:00 | |
| DL1XH1-15 | 2026-09-01 08:46:08 | 52.81444 | 8.72308 | 108° | 64km/h | 4350m | -5.5m/s | -8.7°C | 81.1% | 597.6hPa | 2.7V | 07:43:44 | 02:08:26 | 00:00:00 | |
| D01LWL | 2026-09-01 08:46:08 | 52.81425 | 8.72407 | 108° | 60km/h | 4329m | -5.1m/s | -8.6°C | -1.0% | 599.4hPa | 2.6V | 00:00:00 | 00:00:00 | 00:00:00 | |
| DF5WG-10 | 2026-09-01 08:46:07 | 52.81425 | 8.72407 | 109° | 64km/h | 4329m | -5.1m/s | -8.6°C | 81.6% | 599.3hPa | 2.6V | 00:00:00 | 02:08:30 | 00:00:00 | |
| DO9LL-15 | 2026-09-01 08:46:06 | 52.81430 | 8.72382 | 108° | 64km/h | 4335m | -5.5m/s | -8.6°C | 81.4% | 598.9hPa | 2.6V | 00:00:00 | 02:08:29 | 00:00:00 | |
| DM0DOS-11 | 2026-09-01 08:46:05 | 52.81459 | 8.72231 | 107° | 64km/h | 4367m | -5.1m/s | -8.8°C | 81.5% | 596.5hPa | 2.6V | 07:43:47 | 02:08:23 | 00:00:00 | |
| DL1XH-west | 2026-09-01 08:46:05 | 52.81435 | 8.72358 | 107° | 62km/h | 4340m | -5.1m/s | -8.6°C | 82% | 598.5hPa | 2.6V | 07:43:49 | 02:08:28 | 00:00:00 | |
| BIOWL1-15 | 2026-09-01 08:45:59 | 52.81464 | 8.72205 | 107° | 64km/h | 4372m | -5.1m/s | -8.9°C | 82.5% | 596.1hPa | 2.6V | 07:43:49 | 02:08:22 | 00:00:00 | |
| DL3AQ-11 | 2026-09-01 08:45:59 | 52.81468 | 8.72180 | 106° | 62km/h | 4377m | -5.1m/s | -8.9°C | 78.1% | 595.6hPa | 2.7V | 00:00:00 | 00:00:00 | 00:00:00 | |
| DL1XH-15 | 2026-09-01 08:45:58 | 52.81468 | 8.72180 | 106° | 64km/h | 4377m | -5.1m/s | -8.9°C | 81.5% | 595.6hPa | 2.7V | 07:43:49 | 02:08:21 | 00:00:00 | |
| DN9WHV | 2026-09-01 08:45:57 | 52.81468 | 8.72180 | 108° | 64km/h | 4377m | -5.1m/s | -8.9°C | 78.1% | 595.7hPa | 2.6V | 07:43:00 | 00:00:00 | 00:00:00 | |
| DB0DAN | 2026-09-01 08:45:55 | 52.81483 | 8.72104 | 108° | 62km/h | 4393m | -5.6m/s | -9.1°C | 78.6% | 594.42hPa | 2.6V | 00:00:00 | 00:00:00 | 00:00:00 | |
| DL1XH-west | 2026-09-01 08:45:55 | 52.81483 | 8.72104 | 108° | 64km/h | 4393m | -5.6m/s | -9.1°C | 82.7% | 594.4hPa | 2.6V | 07:44:40 | 02:08:18 | 00:00:00 | |
| BIOWL1-15 | 2026-09-01 08:45:52 | 52.81517 | 8.71925 | 108° | 66km/h | 4430m | -5.4m/s | -9.3°C | 81.9% | 591.6hPa | 2.6V | 07:44:40 | 02:08:11 | 00:00:00 | |
| DL4XJ-10 | 2026-09-01 08:45:51 | 52.81503 | 8.72002 | 108° | 66km/h | 4415m | -5.2m/s | -7.9°C | 0% | 0hPa | 2.7V | 00:00:00 | 00:00:00 | 00:00:00 | |
| DM0DOS-11 | 2026-09-01 08:45:50 | 52.81533 | 8.71847 | 108° | 66km/h | 4446m | -5.3m/s | -9.4°C | 80.4% | 590.5hPa | 2.7V | 07:44:02 | 02:08:08 | 00:00:00 | |
| DO2JMG | 2026-09-01 08:45:49 | 52.81512 | 8.71951 | 108° | 66km/h | 4425m | -5.2m/s | -9.3°C | 82.5% | 592.1hPa | 2.6V | 07:44:40 | 02:08:12 | 00:00:00 | |
| DJ2DS-15 | 2026-09-01 08:45:49 | 52.81512 | 8.71951 | 107° | 64km/h | 4425m | -5.2m/s | -9.3°C | 78.7% | 592.1hPa | 2.6V | 00:00:00 | 00:00:00 | 00:00:00 | |
| DL1XH1-15 | 2026-09-01 08:45:48 | 52.81517 | 8.71924 | 107° | 66km/h | 4430m | -5.4m/s | -9.3°C | 81.4% | 591.6hPa | 2.6V | 07:43:59 | 02:08:11 | 00:00:00 | |
| DL1XH1-15 | 2026-09-01 08:45:48 | 52.81543 | 8.71795 | 108° | 66km/h | 4457m | -5.8m/s | -9.4°C | 80.3% | 589.6hPa | 2.6V | 07:44:04 | 02:08:06 | 00:00:00 | |
| DL1XH-west | 2026-09-01 08:45:45 | 52.81533 | 8.71847 | 108° | 66km/h | 4446m | -5.3m/s | -9.4°C | 81.1% | 590.5hPa | 2.7V | 07:44:40 | 02:08:08 | 00:00:00 | |
| GOEST3-10 | 2026-09-01 08:45:45 | 52.81533 | 8.71847 | 109° | 66km/h | 4446m | -5.3m/s | -9.3°C | 80.4% | 590.4hPa | 2.7V | 00:00:00 | 00:00:00 | 00:00:00 | |
| DN9WHV | 2026-09-01 08:45:44 | 52.81533 | 8.71847 | 109° | 66km/h | 4446m | -5.3m/s | -9.4°C | 77.0% | 590.5hPa | 2.7V | 07:44:00 | 00:00:00 | 00:00:00 | |
| DL8OAI-8 | 2026-09-01 08:45:43 | 52.81538 | 8.71821 | 109° | 66km/h | 4452m | -5.2m/s | -9.4°C | 77.1% | 590.0hPa | 2.7V | 07:44:00 | 00:00:00 | 00:00:00 | |
| DL4BBY-15 | 2026-09-01 08:45:42 | 52.81549 | 8.71768 | 108° | 68km/h | 4463m | -5.5m/s | -8.1°C | 0% | 0hPa | 2.7V | 00:00:00 | 00:00:00 | 00:00:00 | |
| SMARD9-10 | 2026-09-01 08:45:41 | 52.81549 | 8.71768 | 109° | 66km/h | 4463m | -5.5m/s | -9.5°C | 77.1% | 589.3hPa | 2.7V | 07:44:00 | 00:00:00 | 00:00:00 | |
| DM0DOS-11 | 2026-09-01 08:45:40 | 52.81559 | 8.71715 | 109° | 66km/h | 4474m | -5.4m/s | -9.6°C | 79.1% | 588.3hPa | 2.7V | 07:44:07 | 02:08:03 | 00:00:00 | |
| DM0DOS-11 | 2026-09-01 08:45:40 | 52.81585 | 8.71583 | 107° | 68km/h | 4500m | -5.4m/s | -9.7°C | 76.2% | 586.3hPa | 2.7V | 07:44:12 | 02:07:58 | 00:00:00 | |
| DB0DAN | 2026-09-01 08:45:40 | 52.81559 | 8.71715 | 109° | 64km/h | 4474m | -5.4m/s | -9.6°C | 75.7% | 588.32hPa | 2.7V | 00:00:00 | 00:00:00 | 00:00:00 | |
| DO2JMG | 2026-09-01 08:45:39 | 52.81565 | 8.71689 | 109° | 68km/h | 4479m | -5.3m/s | -9.6°C | 79.4% | 588hPa | 2.7V | 07:44:40 | 02:08:02 | 00:00:00 | |
| BIOWL1-15 | 2026-09-01 08:45:39 | 52.81575 | 8.71636 | 108° | 66km/h | 4490m | -5.2m/s | -9.6°C | 78.4% | 587.2hPa | 2.6V | 07:44:40 | 02:08:00 | 00:00:00 | |
| DL1XH1-15 | 2026-09-01 08:45:38 | 52.81570 | 8.71663 | 107° | 66km/h | 4485m | -5.4m/s | -9.6°C | 78.8% | 587.6hPa | 2.7V | 07:44:09 | 02:08:01 | 00:00:00 | |
| DL1XH-west | 2026-09-01 08:45:34 | 52.81590 | 8.71557 | 108° | 68km/h | 4506m | -5.5m/s | -9.7°C | 77.6% | 585.9hPa | 2.7V | 07:44:40 | 02:07:57 | 00:00:00 | |
| DJ2DS-15 | 2026-09-01 08:45:34 | 52.81590 | 8.71556 | 109° | 68km/h | 4506m | -5.5m/s | -9.6°C | 76.6% | 585.8hPa | 2.6V | 00:00:00 | 02:07:57 | 00:00:00 | |
| BIOWL9-15 | 2026-09-01 08:45:33 | 52.81596 | 8.71530 | 108° | 66km/h | 4511m | -5.6m/s | -9.7°C | 73.4% | 585.4hPa | 2.6V | 00:00:00 | 00:00:00 | 00:00:00 | |
| BUE01 | 2026-09-01 08:45:32 | 52.81601 | 8.71503 | 109° | 66km/h | 4517m | -5.0m/s | -9.7°C | 73.5% | 585.0hPa | 2.6V | 00:00:00 | 00:00:00 | 00:00:00 | |
| DM0DOS-11 | 2026-09-01 08:45:30 | 52.81612 | 8.71450 | 108° | 68km/h | 4527m | -5.2m/s | -9.8°C | 77.2% | 584.4hPa | 2.6V | 07:44:17 | 02:07:53 | 00:00:00 | |
| DM0DOS-11 | 2026-09-01 08:45:30 | 52.81638 | 8.71317 | 108° | 66km/h | 4554m | -4.9m/s | -10°C | 78.4% | 582.3hPa | 2.6V | 07:44:22 | 02:07:48 | 00:00:00 | |
| DO2JMG | 2026-09-01 08:45:28 | 52.81623 | 8.71397 | 108° | 68km/h | 4538m | -5.4m/s | -9.9°C | 78.3% | 583.5hPa | 2.7V | 07:44:40 | 02:07:51 | 00:00:00 | |
| BIOWL1-15 | 2026-09-01 08:45:28 | 52.81633 | 8.71344 | 108° | 66km/h | 4549m | -5.1m/s | -10°C | 78.9% | 582.7hPa | 2.6V | 07:44:40 | 02:07:49 | 00:00:00 | |
| DF5WG-10 | 2026-09-01 08:45:27 | 52.81628 | 8.71370 | 108° | 66km/h | 4544m | -5.3m/s | -9.9°C | 77.8% | 583.0hPa | 2.6V | 00:00:00 | 02:07:50 | 00:00:00 | |
| DN9WHV | 2026-09-01 08:45:26 | 52.81627 | 8.71370 | 109° | 66km/h | 4544m | -5.4m/s | -9.9°C | 74.5% | 583.0hPa | 2.6V | 07:44:00 | 00:00:00 | 00:00:00 | |
| DM0DOS-11 | 2026-09-01 08:45:25 | 52.81665 | 8.71186 | 108° | 66km/h | 4581m | -5.6m/s | -10.3°C | 79.2% | 580.2hPa | 2.6V | 07:44:27 | 02:07:43 | 00:00:00 | |
| DB0DAN | 2026-09-01 08:45:25 | 52.81638 | 8.71317 | 109° | 64km/h | 4554m | -4.9m/s | -10°C | 75% | 582.33hPa | 2.6V | 00:00:00 | 00:00:00 | 00:00:00 | |
| DL1XH-west | 2026-09-01 08:45:23 | 52.81648 | 8.71265 | 108° | 66km/h | 4565m | -5.6m/s | -10.1°C | 79.3% | 581.5hPa | 2.7V | 07:44:40 | 02:07:46 | 00:00:00 | |
| DL8OAI-8 | 2026-09-01 08:45:22 | 52.81649 | 8.71265 | 109° | 66km/h | 4565m | -5.6m/s | -10.1°C | 75.1% | 581.5hPa | 2.7V | 07:44:00 | 00:00:00 | 00:00:00 | |
| DM0DOS-11 | 2026-09-01 08:45:20 | 52.81692 | 8.71053 | 107° | 68km/h | 4609m | -5.5m/s | -10.5°C | 79.9% | 578.2hPa | 2.7V | 07:44:32 | 02:07:38 | 00:00:00 | |
| GOEST3-10 | 2026-09-01 08:45:20 | 52.81664 | 8.71186 | 109° | 68km/h | 4581m | -5.6m/s | -10.2°C | 79.2% | 580.2hPa | 2.6V | 00:00:00 | 02:07:43 | 00:00:00 | |
| DD8BA-10 | 2026-09-01 08:45:19 | 52.81670 | 8.71160 | 110° | 68km/h | 4587m | -5.0m/s | -10.3°C | 79.3% | 579.7hPa | 2.6V | 00:00:00 | 00:00:00 | 00:00:00 | |
| DL1XH1-15 | 2026-09-01 08:45:18 | 52.81702 | 8.70999 | 107° | 68km/h | 4620m | -5.4m/s | -10.6°C | 79.7% | 577.3hPa | 2.6V | 07:44:34 | 02:07:36 | 00:00:00 | |
| DO2JMG | 2026-09-01 08:45:17 | 52.81681 | 8.71107 | 109° | 68km/h | 4598m | -5.6m/s | -10.4°C | 80% | 579hPa | 2.7V | 07:44:40 | 02:07:40 | 00:00:00 | |
| BIOWL1-15 | 2026-09-01 08:45:16 | 52.81687 | 8.71080 | 109° | 68km/h | 4604m | -5.3m/s | -10.5°C | 80.3% | 578.5hPa | 2.7V | 07:44:40 | 02:07:39 | 00:00:00 | |
| DM0DOS-11 | 2026-09-01 08:45:15 | 52.81718 | 8.70920 | 108° | 66km/h | 4636m | -5.4m/s | -10.8°C | 80.3% | 576.2hPa | 2.7V | 07:44:37 | 02:07:33 | 00:00:00 | |
| DL1XH-west | 2026-09-01 08:45:12 | 52.81708 | 8.70973 | 108° | 68km/h | 4625m | -5.3m/s | -10.7°C | 80.1% | 577.1hPa | 2.7V | 07:44:40 | 02:07:35 | 00:00:00 | |
| DL4BBY-15 | 2026-09-01 08:45:12 | 52.81708 | 8.70973 | 108° | 64km/h | 4625m | -5.3m/s | -9.3°C | 0% | 0hPa | 2.7V | 00:00:00 | 00:00:00 | 00:00:00 | |
| DL4XJ-10 | 2026-09-01 08:45:11 | 52.81713 | 8.70946 | 109° | 66km/h | 4630m | -5.3m/s | -9.4°C | 0% | 0hPa | 2.7V | 00:00:00 | 00:00:00 | 00:00:00 | |
| DM0DOS-11 | 2026-09-01 08:45:10 | 52.81745 | 8.70791 | 109° | 64km/h | 4662m | -5.2m/s | -11°C | 81.6% | 574.1hPa | 2.7V | 07:44:42 | 02:07:28 | 00:00:00 | |
| DB0DAN | 2026-09-01 08:45:10 | 52.81719 | 8.70920 | 109° | 62km/h | 4636m | -5.4m/s | -10.8°C | 76.7% | 576.21hPa | 2.7V | 00:00:00 | 00:00:00 | 00:00:00 | |
| GOEST3-10 | 2026-09-01 08:45:10 | 52.81719 | 8.70920 | 109° | 66km/h | 4636m | -5.3m/s | -10.7°C | 80.3% | 576.2hPa | 2.7V | 00:00:00 | 02:07:33 | 00:00:00 | |
| DD8BA-10 | 2026-09-01 08:45:09 | 52.81724 | 8.70894 | 109° | 66km/h | 4641m | -5.0m/s | -10.8°C | 80.4% | 575.7hPa | 2.6V | 07:44:00 | 00:00:00 | 00:00:00 | |
| DL1XH1-15 | 2026-09-01 08:45:08 | 52.81756 | 8.70739 | 108° | 66km/h | 4673m | -5.5m/s | -11.1°C | 81.1% | 573.4hPa | 2.6V | 07:44:44 | 02:07:26 | 00:00:00 | |
| DO2JMG | 2026-09-01 08:45:07 | 52.81735 | 8.70842 | 109° | 64km/h | 4651m | -5.4m/s | -10.9°C | 80.4% | 574.9hPa | 2.7V | 07:44:40 | 02:07:30 | 00:00:00 | |
| BIOWL1-15 | 2026-09-01 08:45:07 | 52.81745 | 8.70791 | 109° | 64km/h | 4662m | -5.2m/s | -11°C | 80.9% | 574.1hPa | 2.7V | 07:45:31 | 02:07:28 | 00:00:00 | |
| DL1XH-west | 2026-09-01 08:45:02 | 52.81761 | 8.70713 | 107° | 66km/h | 4679m | -5.1m/s | -11.1°C | 79.4% | 573hPa | 2.6V | 07:45:31 | 02:07:25 | 00:00:00 | |
| BUE01 | 2026-09-01 08:45:01 | 52.81766 | 8.70687 | 107° | 64km/h | 4684m | -5.3m/s | -11.2°C | 76.8% | 572.6hPa | 2.7V | 00:00:00 | 00:00:00 | 00:00:00 | |
| GOEST3-10 | 2026-09-01 08:45:00 | 52.81771 | 8.70661 | 108° | 66km/h | 4689m | -5.3m/s | -11.2°C | 80.5% | 572.2hPa | 2.7V | 00:00:00 | 02:07:23 | 00:00:00 | |
| DN9WHV | 2026-09-01 08:44:59 | 52.81771 | 8.70661 | 108° | 66km/h | 4689m | -5.3m/s | -11.2°C | 76.9% | 572.3hPa | 2.7V | 07:45:00 | 00:00:00 | 00:00:00 | |
| DL1XH1-15 | 2026-09-01 08:44:58 | 52.81781 | 8.70608 | 106° | 64km/h | 4700m | -5.3m/s | -11.2°C | 79.1% | 571.4hPa | 2.7V | 07:44:49 | 02:07:21 | 00:00:00 | |
| DL1XH1-15 | 2026-09-01 08:44:58 | 52.81805 | 8.70478 | 107° | 66km/h | 4727m | -5.6m/s | -11.4°C | 80.8% | 569.3hPa | 2.7V | 07:44:54 | 02:07:16 | 00:00:00 | |
| BIOWL1-15 | 2026-09-01 08:44:57 | 52.81795 | 8.70529 | 106° | 64km/h | 4716m | -5.2m/s | -11.3°C | 79.4% | 570.2hPa | 2.7V | 07:45:31 | 02:07:18 | 00:00:00 | |
| DO2JMG | 2026-09-01 08:44:56 | 52.81790 | 8.70556 | 106° | 66km/h | 4710m | -5.4m/s | -11.3°C | 79.1% | 570.6hPa | 2.6V | 07:45:31 | 02:07:19 | 00:00:00 | |
| DB0DAN | 2026-09-01 08:44:55 | 52.81795 | 8.70529 | 106° | 60km/h | 4716m | -5.2m/s | -11.3°C | 76.2% | 570.18hPa | 2.7V | 00:00:00 | 00:00:00 | 00:00:00 | |
| DM0DOS-11 | 2026-09-01 08:44:55 | 52.81795 | 8.70529 | 106° | 64km/h | 4716m | -5.2m/s | -11.3°C | 79.8% | 570.2hPa | 2.7V | 07:44:52 | 02:07:18 | 00:00:00 | |
| DL1XH-west | 2026-09-01 08:44:52 | 52.81809 | 8.70452 | 107° | 64km/h | 4732m | -5.5m/s | -11.4°C | 80.5% | 569hPa | 2.6V | 07:45:31 | 02:07:15 | 00:00:00 | |
| DL4XJ-10 | 2026-09-01 08:44:51 | 52.81814 | 8.70427 | 107° | 60km/h | 4737m | -5.3m/s | -10.2°C | 0% | 0hPa | 2.7V | 00:00:00 | 00:00:00 | 00:00:00 | |
| GOEST3-10 | 2026-09-01 08:44:50 | 52.81819 | 8.70402 | 108° | 62km/h | 4743m | -5.3m/s | -11.5°C | 81.6% | 568.1hPa | 2.7V | 00:00:00 | 02:07:13 | 00:00:00 | |
| BIOWL7-15 | 2026-09-01 08:44:49 | 52.81819 | 8.70402 | 109° | 62km/h | 4743m | -5.3m/s | -11.5°C | 77.9% | 568.1hPa | 2.7V | 07:45:00 | 00:00:00 | 00:00:00 | |
| DL1XH-15 | 2026-09-01 08:44:48 | 52.81828 | 8.70352 | 105° | 62km/h | 4754m | -5.7m/s | -11.6°C | 81.2% | 567.3hPa | 2.7V | 07:44:59 | 02:07:11 | 00:00:00 | |
| DO2JMG | 2026-09-01 08:44:45 | 52.81839 | 8.70277 | 103° | 62km/h | 4771m | -5.6m/s | -11.7°C | 80.7% | 566.1hPa | 2.6V | 07:45:31 | 02:07:08 | 00:00:00 | |
| DM0DOS-11 | 2026-09-01 08:44:45 | 52.81839 | 8.70278 | 103° | 62km/h | 4771m | -5.6m/s | -11.7°C | 81.2% | 566.1hPa | 2.6V | 07:45:02 | 02:07:08 | 00:00:00 | |
| BIOWL1-15 | 2026-09-01 08:44:44 | 52.81842 | 8.70252 | 103° | 62km/h | 4776m | -5.4m/s | -11.7°C | 80.9% | 565.7hPa | 2.7V | 07:45:31 | 02:07:07 | 00:00:00 | |
| DL1XH1-15 | 2026-09-01 08:44:43 | 52.81845 | 8.70227 | 101° | 60km/h | 4781m | -5.3m/s | -11.8°C | 81.6% | 565.3hPa | 2.7V | 07:45:04 | 02:07:06 | 00:00:00 | |
| DL1XH-west | 2026-09-01 08:44:41 | 52.81852 | 8.70178 | 102° | 60km/h | 4792m | -5.5m/s | -11.8°C | 81.9% | 564.5hPa | 2.6V | 07:45:31 | 02:07:04 | 00:00:00 | |
| DB0DAN | 2026-09-01 08:44:40 | 52.81855 | 8.70153 | 102° | 57km/h | 4798m | -5.6m/s | -11.9°C | 78.8% | 564.12hPa | 2.6V | 00:00:00 | 00:00:00 | 00:00:00 | |
| DD8BA-10 | 2026-09-01 08:44:39 | 52.81858 | 8.70129 | 102° | 57km/h | 4804m | -5.4m/s | -11.9°C | 83.1% | 563.7hPa | 2.7V | 00:00:00 | 00:00:00 | 00:00:00 | |
| DN9WHV | 2026-09-01 08:44:38 | 52.81858 | 8.70129 | 102° | 60km/h | 4804m | -5.4m/s | -11.9°C | 79.3% | 563.8hPa | 2.7V | 07:45:00 | 00:00:00 | 00:00:00 | |
| DF5WG-10 | 2026-09-01 08:44:37 | 52.81864 | 8.70081 | 102° | 57km/h | 4814m | -5.3m/s | -11.9°C | 84.1% | 562.9hPa | 2.7V | 00:00:00 | 02:07:00 | 00:00:00 | |
| DO9LL-15 | 2026-09-01 08:44:36 | 52.81867 | 8.70057 | 102° | 55km/h | 4820m | -5.5m/s | -12.0°C | 84.6% | 562.4hPa | 2.7V | 00:00:00 | 02:06:59 | 00:00:00 | |
| DM0DOS-11 | 2026-09-01 08:44:35 | 52.81883 | 8.69918 | 99° | 57km/h | 4853m | -5.4m/s | -12°C | 84.1% | 560hPa | 2.6V | 07:45:17 | 02:06:53 | 00:00:00 | |
| DN9WHV | 2026-09-01 08:44:34 | 52.81870 | 8.70033 | 103° | 58km/h | 4825m | -5.6m/s | -12.0°C | 80.7% | 562.1hPa | 2.7V | 07:45:00 | 00:00:00 | 00:00:00 | |
| DO2JMG | 2026-09-01 08:44:34 | 52.81873 | 8.70010 | 101° | 57km/h | 4831m | -5.6m/s | -12°C | 83% | 561.7hPa | 2.6V | 07:45:31 | 02:06:57 | 00:00:00 | |
| DL1XH1-15 | 2026-09-01 08:44:33 | 52.81875 | 8.69987 | 100° | 57km/h | 4836m | -5.4m/s | -12°C | 83.8% | 561.4hPa | 2.7V | 07:45:14 | 02:06:56 | 00:00:00 | |
| DL1XH1-15 | 2026-09-01 08:44:33 | 52.81888 | 8.69871 | 99° | 57km/h | 4864m | -5.3m/s | -12.1°C | 84.4% | 559.3hPa | 2.7V | 07:45:19 | 02:06:51 | 00:00:00 | |
| BIOWL1-15 | 2026-09-01 08:44:33 | 52.81875 | 8.69987 | 101° | 57km/h | 4836m | -5.4m/s | -12°C | 82.8% | 561.4hPa | 2.7V | 07:45:31 | 02:06:56 | 00:00:00 | |
| DL1XH-west | 2026-09-01 08:44:30 | 52.81883 | 8.69918 | 100° | 57km/h | 4853m | -5.4m/s | -12°C | 82.7% | 560hPa | 2.6V | 07:45:31 | 02:06:53 | 00:00:00 | |
| GOEST3-10 | 2026-09-01 08:44:30 | 52.81883 | 8.69918 | 100° | 57km/h | 4853m | -5.3m/s | -12.0°C | 84.1% | 560.0hPa | 2.7V | 00:00:00 | 02:06:53 | 00:00:00 | |
| DD8BA-10 | 2026-09-01 08:44:29 | 52.81885 | 8.69894 | 99° | 55km/h | 4858m | -5.4m/s | -12.0°C | 84.2% | 559.6hPa | 2.7V | 00:00:00 | 00:00:00 | 00:00:00 | |
| BIOWL7-15 | 2026-09-01 08:44:28 | 52.81886 | 8.69894 | 100° | 57km/h | 4858m | -5.4m/s | -12.1°C | 80.4% | 559.7hPa | 2.7V | 07:45:00 | 00:00:00 | 00:00:00 | |
| DF5WG-10 | 2026-09-01 08:44:27 | 52.81890 | 8.69848 | 100° | 55km/h | 4869m | -5.5m/s | -12.1°C | 84.6% | 558.9hPa | 2.7V | 00:00:00 | 02:06:50 | 00:00:00 | |
| SMARD9-15 | 2026-09-01 08:44:26 | 52.81892 | 8.69825 | 97° | 55km/h | 4875m | -5.5m/s | -12.2°C | -1.0% | -1.0hPa | 2.7V | 00:00:00 | 00:00:00 | 00:00:00 | |
| DM0DOS-11 | 2026-09-01 08:44:25 | 52.81905 | 8.69691 | 97° | 53km/h | 4907m | -5.2m/s | -12.4°C | 86.4% | 556.1hPa | 2.7V | 07:45:27 | 02:06:43 | 00:00:00 | |
| DO2JMG | 2026-09-01 08:44:24 | 52.81896 | 8.69779 | 99° | 55km/h | 4886m | -5.4m/s | -12.3°C | 83.7% | 557.7hPa | 2.6V | 07:45:31 | 02:06:47 | 00:00:00 | |
| DL1XH-15 | 2026-09-01 08:44:23 | 52.81898 | 8.69757 | 97° | 53km/h | 4891m | -5.3m/s | -12.3°C | 85.7% | 557.3hPa | 2.6V | 07:45:24 | 02:06:46 | 00:00:00 | |
| BIOWL1-15 | 2026-09-01 08:44:22 | 52.81900 | 8.69735 | 99° | 53km/h | 4897m | -5.7m/s | -12.3°C | 83.8% | 556.9hPa | 2.7V | 07:45:31 | 02:06:45 | 00:00:00 | |
| SMARD9-10 | 2026-09-01 08:44:21 | 52.81900 | 8.69734 | 100° | 53km/h | 4897m | -5.7m/s | -12.3°C | 81.9% | 556.9hPa | 2.7V | 00:00:00 | 00:00:00 | 00:00:00 | |
| DM0DOS-11 | 2026-09-01 08:44:20 | 52.81914 | 8.69580 | 95° | 53km/h | 4934m | -5.3m/s | -12.5°C | 88% | 554.3hPa | 2.7V | 07:45:32 | 02:06:38 | 00:00:00 | |
| DL1XH-west | 2026-09-01 08:44:19 | 52.81907 | 8.69668 | 98° | 53km/h | 4912m | -5.6m/s | -12.4°C | 84.6% | 555.8hPa | 2.6V | 07:45:31 | 02:06:42 | 00:00:00 | |
| DD8BA-10 | 2026-09-01 08:44:19 | 52.81907 | 8.69668 | 98° | 53km/h | 4912m | -5.5m/s | -12.3°C | 86.7% | 555.7hPa | 2.6V | 00:00:00 | 00:00:00 | 00:00:00 | |
| DN9WHV | 2026-09-01 08:44:18 | 52.81906 | 8.69668 | 99° | 53km/h | 4912m | -5.6m/s | -12.4°C | 82.7% | 555.8hPa | 2.7V | 07:45:00 | 00:00:00 | 00:00:00 | |
| DF5WG-10 | 2026-09-01 08:44:17 | 52.81910 | 8.69624 | 98° | 53km/h | 4923m | -5.6m/s | -12.4°C | 87.7% | 554.8hPa | 2.7V | 00:00:00 | 02:06:40 | 00:00:00 | |
| HTAHTA | 2026-09-01 08:44:16 | 52.81915 | 8.69558 | 95° | 53km/h | 4939m | -5.3m/s | -12.5°C | 83.8% | 553.7hPa | 2.7V | 00:00:00 | 00:00:00 | 00:00:00 | |
| DM0DOS-11 | 2026-09-01 08:44:15 | 52.81919 | 8.69468 | 94° | 53km/h | 4960m | -5.4m/s | -12.6°C | 87.8% | 552.2hPa | 2.7V | 07:45:37 | 02:06:33 | 00:00:00 | |
| DO2JMG | 2026-09-01 08:44:13 | 52.81916 | 8.69535 | 94° | 53km/h | 4944m | -5m/s | -12.6°C | 85.4% | 553.4hPa | 2.6V | 07:46:22 | 02:06:36 | 00:00:00 | |
| DL1XH-15 | 2026-09-01 08:44:13 | 52.81916 | 8.69535 | 94° | 53km/h | 4944m | -5m/s | -12.6°C | 87.6% | 553.4hPa | 2.6V | 07:45:34 | 02:06:36 | 00:00:00 | |
| BIOWL1-15 | 2026-09-01 08:44:11 | 52.81918 | 8.69491 | 95° | 53km/h | 4955m | -5.3m/s | -12.6°C | 85.3% | 552.7hPa | 2.7V | 07:46:22 | 02:06:34 | 00:00:00 | |
| DB0DAN | 2026-09-01 08:44:10 | 52.81919 | 8.69469 | 94° | 51km/h | 4961m | -5.4m/s | -12.6°C | 83.6% | 552.26hPa | 2.7V | 00:00:00 | 00:00:00 | 00:00:00 | |
| DL1XH-west | 2026-09-01 08:44:09 | 52.81920 | 8.69446 | 94° | 53km/h | 4966m | -5.5m/s | -12.7°C | 85.9% | 551.9hPa | 2.7V | 07:46:22 | 02:06:32 | 00:00:00 | |
| DD8BA-10 | 2026-09-01 08:44:09 | 52.81920 | 8.69446 | 95° | 53km/h | 4966m | -5.4m/s | -12.6°C | 88.1% | 551.8hPa | 2.7V | 00:00:00 | 00:00:00 | 00:00:00 | |
| BIOWL7-15 | 2026-09-01 08:44:07 | 52.81923 | 8.69402 | 95° | 53km/h | 4977m | -5.2m/s | -12.7°C | 84.3% | 551.2hPa | 2.7V | 07:46:00 | 00:00:00 | 00:00:00 | |
| DC6BW-12 | 2026-09-01 08:44:06 | 52.81923 | 8.69402 | 95° | 53km/h | 4977m | -5.2m/s | -12.7°C | 84.3% | 551.2hPa | 2.7V | 07:46:00 | 00:00:00 | 00:00:00 | |
| DM0DOS-11 | 2026-09-01 08:44:05 | 52.81924 | 8.69358 | 92° | 53km/h | 4987m | -5.1m/s | -12.8°C | 88% | 550.4hPa | 2.7V | 07:45:42 | 02:06:28 | 00:00:00 | |
| DM0DOS-11 | 2026-09-01 08:44:05 | 52.81928 | 8.69249 | 92° | 53km/h | 5012m | -5m/s | -12.9°C | 87.4% | 548.5hPa | 2.7V | 07:45:47 | 02:06:23 | 00:00:00 | |
| DO2JMG | 2026-09-01 08:44:02 | 52.81926 | 8.69293 | 93° | 53km/h | 5003m | -5.4m/s | -12.9°C | 85.6% | 549.2hPa | 2.6V | 07:46:22 | 02:06:25 | 00:00:00 | |
| DL1XH1-15 | 2026-09-01 08:44:02 | 52.81929 | 8.69184 | 91° | 53km/h | 5028m | -5m/s | -12.9°C | 86.5% | 547.3hPa | 2.6V | 07:45:50 | 02:06:20 | 00:00:00 | |
| BIOWL1-15 | 2026-09-01 08:44:00 | 52.81928 | 8.69249 | 92° | 53km/h | 5013m | -5m/s | -13°C | 85.5% | 548.5hPa | 2.7V | 07:46:22 | 02:06:23 | 00:00:00 | |
| DL1XH-west | 2026-09-01 08:43:58 | 52.81929 | 8.69206 | 93° | 53km/h | 5023m | -5.4m/s | -12.9°C | 84.7% | 547.8hPa | 2.7V | 07:46:22 | 02:06:21 | 00:00:00 | |
| DF5WG-10 | 2026-09-01 08:43:57 | 52.81929 | 8.69184 | 92° | 51km/h | 5028m | -4.9m/s | -12.9°C | 86.5% | 547.3hPa | 2.7V | 00:00:00 | 02:06:20 | 00:00:00 | |
| DN9WHV | 2026-09-01 08:43:56 | 52.81929 | 8.69184 | 92° | 53km/h | 5028m | -5.0m/s | -12.9°C | 82.4% | 547.3hPa | 2.7V | 07:46:00 | 00:00:00 | 00:00:00 | |
| DM0DOS-11 | 2026-09-01 08:43:55 | 52.81931 | 8.69034 | 92° | 53km/h | 5060m | -4.7m/s | -13.1°C | 87.7% | 545hPa | 2.7V | 07:45:57 | 02:06:13 | 00:00:00 | |
| DB0DAN | 2026-09-01 08:43:55 | 52.81930 | 8.69141 | 91° | 49km/h | 5038m | -4.9m/s | -13°C | 82.4% | 546.62hPa | 2.7V | 00:00:00 | 00:00:00 | 00:00:00 | |
| DO2JMG | 2026-09-01 08:43:52 | 52.81930 | 8.69077 | 92° | 51km/h | 5051m | -4.1m/s | -13.1°C | 84.7% | 545.6hPa | 2.6V | 07:46:22 | 02:06:15 | 00:00:00 | |
| DL1XH1-15 | 2026-09-01 08:43:52 | 52.81933 | 8.68969 | 92° | 53km/h | 5074m | -4.7m/s | -13.2°C | 87.5% | 544hPa | 2.7V | 07:46:00 | 02:06:10 | 00:00:00 | |
| BIOWL1-15 | 2026-09-01 08:43:50 | 52.81931 | 8.69033 | 93° | 53km/h | 5060m | -4.7m/s | -13.1°C | 85.4% | 545hPa | 2.7V | 07:46:22 | 02:06:13 | 00:00:00 | |
| DL1XH-west | 2026-09-01 08:43:47 | 52.81933 | 8.68969 | 93° | 53km/h | 5074m | -4.7m/s | -13.2°C | 85% | 544hPa | 2.7V | 07:46:22 | 02:06:10 | 00:00:00 | |
| DF5WG-10 | 2026-09-01 08:43:47 | 52.81933 | 8.68969 | 93° | 49km/h | 5074m | -4.6m/s | -13.1°C | 87.5% | 543.9hPa | 2.7V | 07:46:00 | 02:06:10 | 00:00:00 | |
| DK9SH | 2026-09-01 08:43:46 | 52.81933 | 8.68969 | 94° | 53km/h | 5074m | -4.7m/s | -13.2°C | 0% | 544.0hPa | 2.6V | 00:00:00 | 00:00:00 | 00:00:00 | |
| DM0DOS-11 | 2026-09-01 08:43:45 | 52.81934 | 8.68822 | 88° | 49km/h | 5106m | -4.5m/s | -13.4°C | 89.3% | 541.6hPa | 2.6V | 07:46:07 | 02:06:03 | 00:00:00 | |
| DO2JMG | 2026-09-01 08:43:42 | 52.81934 | 8.68863 | 90° | 49km/h | 5097m | -4.6m/s | -13.4°C | 85.1% | 542.2hPa | 2.7V | 07:46:22 | 02:06:05 | 00:00:00 | |
| DL1XH1-15 | 2026-09-01 08:43:42 | 52.81933 | 8.68762 | 87° | 47km/h | 5120m | -4.8m/s | -13.5°C | 89.5% | 540.6hPa | 2.7V | 07:46:10 | 02:06:00 | 00:00:00 | |
| BIOWL1-15 | 2026-09-01 08:43:42 | 52.81934 | 8.68822 | 89° | 49km/h | 5106m | -4.5m/s | -13.4°C | 85.8% | 541.6hPa | 2.6V | 07:46:22 | 02:06:03 | 00:00:00 | |
| DL4BBY-15 | 2026-09-01 08:43:42 | 52.81934 | 8.68863 | 90° | 49km/h | 5098m | -4.6m/s | -12.0°C | 0% | 0hPa | 2.6V | 00:00:00 | 00:00:00 | 00:00:00 | |
| DL1XH-15 | 2026-09-01 08:43:41 | 52.81932 | 8.68742 | 88° | 47km/h | 5125m | -4.3m/s | -13.5°C | 89.2% | 540.2hPa | 2.6V | 07:46:11 | 02:05:59 | 00:00:00 | |
| DB0DAN | 2026-09-01 08:43:40 | 52.81934 | 8.68822 | 89° | 47km/h | 5106m | -4.5m/s | -13.4°C | 85% | 541.62hPa | 2.6V | 00:00:00 | 00:00:00 | 00:00:00 | |
| DL1XH-west | 2026-09-01 08:43:36 | 52.81932 | 8.68741 | 88° | 49km/h | 5125m | -4.3m/s | -13.5°C | 85.5% | 540.2hPa | 2.6V | 07:46:22 | 02:05:59 | 00:00:00 | |
| DO9LL-15 | 2026-09-01 08:43:36 | 52.81932 | 8.68741 | 89° | 49km/h | 5125m | -4.3m/s | -13.4°C | 89.2% | 540.2hPa | 2.6V | 07:46:00 | 02:05:59 | 00:00:00 | |
| DM0DOS-11 | 2026-09-01 08:43:35 | 52.81932 | 8.68619 | 90° | 49km/h | 5154m | -5.7m/s | -13.6°C | 89% | 538.1hPa | 2.6V | 07:46:17 | 02:05:53 | 00:00:00 | |
| DO2JMG | 2026-09-01 08:43:32 | 52.81932 | 8.68660 | 91° | 49km/h | 5144m | -5.4m/s | -13.6°C | 85.8% | 538.9hPa | 2.7V | 07:46:22 | 02:05:55 | 00:00:00 | |
| BIOWL1-15 | 2026-09-01 08:43:32 | 52.81932 | 8.68619 | 90° | 49km/h | 5154m | -5.7m/s | -13.6°C | 85.6% | 538.1hPa | 2.6V | 07:46:22 | 02:05:53 | 00:00:00 | |
| DL1XH-15 | 2026-09-01 08:43:31 | 52.81931 | 8.68538 | 86° | 49km/h | 5175m | -5.3m/s | -13.6°C | 89.1% | 536.8hPa | 2.7V | 07:46:21 | 02:05:49 | 00:00:00 | |
| DL1XH-west | 2026-09-01 08:43:26 | 52.81930 | 8.68538 | 87° | 49km/h | 5175m | -5.3m/s | -13.6°C | 85.8% | 536.8hPa | 2.7V | 07:46:22 | 02:05:49 | 00:00:00 | |
| DB0DAN | 2026-09-01 08:43:25 | 52.81930 | 8.68518 | 85° | 46km/h | 5180m | -5.2m/s | -13.5°C | 83.7% | 536.38hPa | 2.6V | 00:00:00 | 00:00:00 | 00:00:00 | |
| DM0DOS-11 | 2026-09-01 08:43:25 | 52.81925 | 8.68416 | 88° | 49km/h | 5205m | -5m/s | -13.7°C | 88.8% | 534.6hPa | 2.6V | 07:46:27 | 02:05:43 | 00:00:00 | |
| DO2JMG | 2026-09-01 08:43:22 | 52.81926 | 8.68457 | 86° | 49km/h | 5195m | -5.1m/s | -13.6°C | 85.8% | 535.3hPa | 2.7V | 07:47:13 | 02:05:45 | 00:00:00 | |
| DL1XH-15 | 2026-09-01 08:43:21 | 52.81926 | 8.68334 | 92° | 49km/h | 5226m | -6.1m/s | -13.8°C | 86.7% | 533.2hPa | 2.7V | 07:46:31 | 02:05:39 | 00:00:00 | |
| BIOWL1-15 | 2026-09-01 08:43:19 | 52.81925 | 8.68395 | 89° | 49km/h | 5210m | -5.1m/s | -13.8°C | 87.1% | 534.3hPa | 2.6V | 07:47:13 | 02:05:42 | 00:00:00 | |
| DL1XH-west | 2026-09-01 08:43:16 | 52.81926 | 8.68334 | 93° | 49km/h | 5226m | -6.1m/s | -13.8°C | 86.5% | 533.3hPa | 2.7V | 07:47:13 | 02:05:39 | 00:00:00 | |
| DM0DOS-11 | 2026-09-01 08:43:15 | 52.81929 | 8.68210 | 89° | 51km/h | 5257m | -4.1m/s | -14°C | 88.7% | 530.9hPa | 2.7V | 07:46:37 | 02:05:33 | 00:00:00 | |
| GOEST3-10 | 2026-09-01 08:43:15 | 52.81926 | 8.68314 | 94° | 49km/h | 5233m | -8.6m/s | -13.8°C | 85.8% | 532.9hPa | 2.7V | 00:00:00 | 00:00:00 | 00:00:00 | |
| DJ2DS-15 | 2026-09-01 08:43:14 | 52.81927 | 8.68293 | 95° | 51km/h | 5241m | -5.8m/s | -13.9°C | 86.8% | 532.3hPa | 2.7V | 00:00:00 | 02:05:37 | 00:00:00 | |
| DN9WHV | 2026-09-01 08:43:13 | 52.81927 | 8.68293 | 95° | 49km/h | 5241m | -5.8m/s | -13.9°C | 82.5% | 532.3hPa | 2.7V | 07:47:00 | 00:00:00 | 00:00:00 | |
| DL1XH1-15 | 2026-09-01 08:43:12 | 52.81928 | 8.68146 | 89° | 51km/h | 5270m | -4m/s | -14.1°C | 88.7% | 530.1hPa | 2.7V | 07:46:40 | 02:05:30 | 00:00:00 | |
| SMARD9-10 | 2026-09-01 08:43:11 | 52.81929 | 8.68252 | 93° | 51km/h | 5250m | -4.2m/s | -13.9°C | 83.6% | 531.6hPa | 2.7V | 00:00:00 | 00:00:00 | 00:00:00 | |
| DO2JMG | 2026-09-01 08:43:11 | 52.81929 | 8.68231 | 90° | 51km/h | 5254m | -4.1m/s | -14°C | 84.4% | 531.3hPa | 2.7V | 07:47:13 | 02:05:34 | 00:00:00 | |
| DB0DAN | 2026-09-01 08:43:10 | 52.81929 | 8.68210 | 89° | 49km/h | 5258m | -4.1m/s | -14°C | 84.4% | 530.9hPa | 2.7V | 00:00:00 | 00:00:00 | 00:00:00 | |
| BIOWL1-15 | 2026-09-01 08:43:09 | 52.81928 | 8.68188 | 88° | 51km/h | 5262m | -4.3m/s | -14°C | 84.9% | 530.7hPa | 2.6V | 07:47:13 | 02:05:32 | 00:00:00 | |
| DL1XH-west | 2026-09-01 08:43:05 | 52.81927 | 8.68102 | 88° | 53km/h | 5279m | -4.3m/s | -14.1°C | 85.4% | 529.5hPa | 2.7V | 07:47:13 | 02:05:28 | 00:00:00 | |
| GOEST3-10 | 2026-09-01 08:43:05 | 52.81927 | 8.68102 | 88° | 51km/h | 5279m | -4.2m/s | -14.1°C | 88.5% | 529.5hPa | 2.6V | 00:00:00 | 00:00:00 | 00:00:00 | |
| DC6BW-12 | 2026-09-01 08:43:04 | 52.81927 | 8.68102 | 89° | 53km/h | 5279m | -4.3m/s | -14.1°C | 84.1% | 529.6hPa | 2.6V | 00:00:00 | 00:00:00 | 00:00:00 | |
| BIOWL7-15 | 2026-09-01 08:43:03 | 52.81927 | 8.68080 | 88° | 53km/h | 5283m | -4.3m/s | -14.2°C | 84.4% | 529.2hPa | 2.6V | 00:00:00 | 00:00:00 | 00:00:00 | |
| DL1XH1-15 | 2026-09-01 08:43:02 | 52.81923 | 8.67930 | 88° | 51km/h | 5312m | -4.2m/s | -14.3°C | 86% | 527.2hPa | 2.6V | 07:46:50 | 02:05:20 | 00:00:00 | |
| DO2JMG | 2026-09-01 08:43:01 | 52.81925 | 8.68016 | 88° | 51km/h | 5296m | -4.3m/s | -14.3°C | 84.6% | 528.3hPa | 2.7V | 07:47:13 | 02:05:24 | 00:00:00 | |
| BIOWL1-15 | 2026-09-01 08:42:58 | 52.81923 | 8.67951 | 87° | 51km/h | 5308m | -4.2m/s | -14.3°C | 83.9% | 527.4hPa | 2.6V | 07:47:13 | 02:05:21 | 00:00:00 | |
| DL1XH-west | 2026-09-01 08:42:55 | 52.81922 | 8.67887 | 88° | 53km/h | 5321m | -4.7m/s | -14.4°C | 83.3% | 526.5hPa | 2.7V | 07:47:13 | 02:05:18 | 00:00:00 | |
| DB0DAN | 2026-09-01 08:42:55 | 52.81922 | 8.67887 | 88° | 49km/h | 5321m | -4.7m/s | -14.4°C | 81.5% | 526.5hPa | 2.7V | 00:00:00 | 00:00:00 | 00:00:00 | |
| SMARD9-15 | 2026-09-01 08:42:53 | 52.81921 | 8.67844 | 88° | 49km/h | 5330m | -4.3m/s | 0°C | -1.0% | -1.0hPa | 2.6V | 00:00:00 | 00:00:00 | 00:00:00 | |
| DO2LYB-13 | 2026-09-01 08:42:52 | 52.81921 | 8.67844 | 89° | 51km/h | 5330m | -4.3m/s | -14.4°C | 81.4% | 526.0hPa | 2.6V | 00:00:00 | 00:00:00 | 00:00:00 | |
| DL1XH-15 | 2026-09-01 08:42:51 | 52.81918 | 8.67696 | 88° | 49km/h | 5359m | -4.2m/s | -14.4°C | 81.8% | 523.9hPa | 2.6V | 07:47:01 | 02:05:09 | 00:00:00 | |
| DO2JMG | 2026-09-01 08:42:50 | 52.81921 | 8.67780 | 88° | 51km/h | 5343m | -4.3m/s | -14.5°C | 82.2% | 525.1hPa | 2.6V | 07:47:13 | 02:05:13 | 00:00:00 | |
| BIOWL1-15 | 2026-09-01 08:42:50 | 52.81919 | 8.67737 | 87° | 49km/h | 5351m | -4m/s | -14.4°C | 80.7% | 524.5hPa | 2.7V | 07:47:13 | 02:05:11 | 00:00:00 | |
| GOEST3-10 | 2026-09-01 08:42:50 | 52.81921 | 8.67780 | 89° | 51km/h | 5343m | -4.2m/s | -14.4°C | 85.1% | 525.0hPa | 2.7V | 00:00:00 | 02:05:13 | 00:00:00 | |
| DD8BA-10 | 2026-09-01 08:42:49 | 52.81920 | 8.67758 | 88° | 51km/h | 5347m | -4.3m/s | -14.4°C | 84.2% | 524.7hPa | 2.7V | 00:00:00 | 00:00:00 | 00:00:00 | |
| DN9WHV | 2026-09-01 08:42:48 | 52.81920 | 8.67758 | 88° | 51km/h | 5347m | -4.3m/s | -14.4°C | 80.0% | 524.7hPa | 2.7V | 07:47:00 | 00:00:00 | 00:00:00 | |
| DF5WG-10 | 2026-09-01 08:42:47 | 52.81919 | 8.67716 | 88° | 51km/h | 5355m | -4.2m/s | -14.3°C | 82.1% | 524.2hPa | 2.7V | 00:00:00 | 02:05:10 | 00:00:00 | |
| DN9WHV | 2026-09-01 08:42:46 | 52.81919 | 8.67717 | 89° | 49km/h | 5355m | -4.3m/s | -14.4°C | 77.9% | 524.2hPa | 2.6V | 07:47:00 | 00:00:00 | 00:00:00 | |
| DM0DOS-11 | 2026-09-01 08:42:45 | 52.81913 | 8.67568 | 86° | 53km/h | 5385m | -4.4m/s | -14.6°C | 83.4% | 522.1hPa | 2.6V | 07:47:07 | 02:05:03 | 00:00:00 | |
| DL1XH-west | 2026-09-01 08:42:44 | 52.81917 | 8.67653 | 87° | 51km/h | 5368m | -4.2m/s | -14.4°C | 79.8% | 523.3hPa | 2.7V | 07:47:13 | 02:05:07 | 00:00:00 | |
| HTAHTA | 2026-09-01 08:42:43 | 52.81916 | 8.67632 | 85° | 51km/h | 5372m | -4.4m/s | -14.5°C | 78.5% | 523.0hPa | 2.7V | 00:00:00 | 00:00:00 | 00:00:00 | |
| DL1XH1-15 | 2026-09-01 08:42:42 | 52.81910 | 8.67502 | 84° | 51km/h | 5398m | -4.3m/s | -14.7°C | 83.6% | 521.2hPa | 2.7V | 07:47:10 | 02:05:00 | 00:00:00 | |
| DL1XH-15 | 2026-09-01 08:42:41 | 52.81909 | 8.67480 | 86° | 51km/h | 5403m | -4.4m/s | -14.7°C | 83.8% | 520.9hPa | 2.6V | 07:47:11 | 02:04:59 | 00:00:00 | |
| DO2JMG | 2026-09-01 08:42:40 | 52.81913 | 8.67568 | 86° | 53km/h | 5385m | -4.4m/s | -14.6°C | 80.3% | 522.1hPa | 2.6V | 07:47:13 | 02:05:03 | 00:00:00 | |
| BIOWL1-15 | 2026-09-01 08:42:39 | 52.81910 | 8.67502 | 85° | 53km/h | 5398m | -4.3m/s | -14.7°C | 80.3% | 521.2hPa | 2.7V | 07:47:13 | 02:05:00 | 00:00:00 | |
| DD8BA-10 | 2026-09-01 08:42:39 | 52.81912 | 8.67546 | 86° | 51km/h | 5389m | -4.3m/s | -14.6°C | 83.4% | 521.8hPa | 2.6V | 00:00:00 | 00:00:00 | 00:00:00 | |
| DN9WHV | 2026-09-01 08:42:38 | 52.81912 | 8.67546 | 87° | 53km/h | 5389m | -4.4m/s | -14.6°C | 79.2% | 521.9hPa | 2.6V | 07:47:00 | 00:00:00 | 00:00:00 | |
| DF5WG-10 | 2026-09-01 08:42:37 | 52.81910 | 8.67502 | 85° | 51km/h | 5398m | -4.2m/s | -14.6°C | 83.6% | 521.2hPa | 2.6V | 00:00:00 | 02:05:00 | 00:00:00 | |
| SONCRA | 2026-09-01 08:42:36 | 52.81909 | 8.67459 | 88° | 51km/h | 5407m | -4.5m/s | -14.7°C | 79.6% | 520.6hPa | 2.6V | 00:00:00 | 00:00:00 | 00:00:00 | |
| DM0DOS-11 | 2026-09-01 08:42:35 | 52.81906 | 8.67352 | 88° | 49km/h | 5429m | -4.5m/s | -14.9°C | 83.8% | 519.1hPa | 2.6V | 07:47:17 | 02:04:53 | 00:00:00 | |
| DL1XH-west | 2026-09-01 08:42:34 | 52.81908 | 8.67437 | 89° | 53km/h | 5411m | -4.1m/s | -14.8°C | 81% | 520.3hPa | 2.7V | 07:47:13 | 02:04:57 | 00:00:00 | |
| DJ2DS-15 | 2026-09-01 08:42:34 | 52.81908 | 8.67437 | 89° | 51km/h | 5411m | -4.1m/s | -14.7°C | 84.0% | 520.2hPa | 2.7V | 07:47:00 | 02:04:57 | 00:00:00 | |
| DL1XH1-15 | 2026-09-01 08:42:32 | 52.81905 | 8.67288 | 87° | 51km/h | 5442m | -4.6m/s | -14.9°C | 82.7% | 518.2hPa | 2.7V | 07:47:20 | 02:04:50 | 00:00:00 | |
| DL1XH-15 | 2026-09-01 08:42:31 | 52.81905 | 8.67267 | 87° | 49km/h | 5446m | -4.2m/s | -14.9°C | 82.3% | 517.9hPa | 2.6V | 07:47:21 | 02:04:49 | 00:00:00 | |
| AA1-15 | 2026-09-01 08:42:31 | 52.81906 | 8.67372 | 87° | 51km/h | 5424m | -4.4m/s | -14.8°C | 81% | 519.4hPa | 2.6V | 07:48:55 | 02:04:54 | 00:00:00 | |
| DO2JMG | 2026-09-01 08:42:29 | 52.81906 | 8.67330 | 89° | 51km/h | 5433m | -4.6m/s | -14.9°C | 80.5% | 518.8hPa | 2.7V | 07:48:04 | 02:04:52 | 00:00:00 | |
| BIOWL1-15 | 2026-09-01 08:42:29 | 52.81905 | 8.67288 | 88° | 51km/h | 5442m | -4.6m/s | -14.9°C | 79.8% | 518.2hPa | 2.7V | 07:48:04 | 02:04:50 | 00:00:00 | |
| DD8BA-10 | 2026-09-01 08:42:29 | 52.81906 | 8.67330 | 90° | 51km/h | 5433m | -4.5m/s | -14.8°C | 83.6% | 518.8hPa | 2.6V | 07:47:00 | 00:00:00 | 00:00:00 | |
| DN9WHV | 2026-09-01 08:42:28 | 52.81906 | 8.67330 | 90° | 51km/h | 5433m | -4.6m/s | -14.9°C | 79.3% | 518.8hPa | 2.6V | 07:48:00 | 00:00:00 | 00:00:00 | |
| DN9WHV | 2026-09-01 08:42:27 | 52.81905 | 8.67309 | 90° | 51km/h | 5438m | -4.3m/s | -14.9°C | 79.1% | 518.5hPa | 2.6V | 07:48:00 | 00:00:00 | 00:00:00 | |
| BUE01 | 2026-09-01 08:42:26 | 52.81904 | 8.67246 | 89° | 49km/h | 5451m | -4.5m/s | -14.8°C | 77.7% | 517.6hPa | 2.6V | 00:00:00 | 00:00:00 | 00:00:00 | |
| DM0DOS-11 | 2026-09-01 08:42:25 | 52.81904 | 8.67140 | 89° | 49km/h | 5473m | -4.3m/s | -15°C | 81.7% | 516.1hPa | 2.6V | 07:47:27 | 02:04:43 | 00:00:00 | |
| DL1XH-west | 2026-09-01 08:42:23 | 52.81904 | 8.67204 | 91° | 51km/h | 5460m | -4.5m/s | -14.8°C | 79% | 517.1hPa | 2.7V | 07:48:04 | 02:04:46 | 00:00:00 | |
| DL1XH1-15 | 2026-09-01 08:42:22 | 52.81905 | 8.67078 | 91° | 51km/h | 5486m | -4.3m/s | -15.1°C | 81.4% | 515.2hPa | 2.7V | 07:47:30 | 02:04:40 | 00:00:00 | |
| DO2JMG | 2026-09-01 08:42:18 | 52.81904 | 8.67099 | 92° | 49km/h | 5482m | -4.4m/s | -15°C | 79.1% | 515.6hPa | 2.7V | 07:48:04 | 02:04:41 | 00:00:00 | |
| BIOWL1-15 | 2026-09-01 08:42:18 | 52.81905 | 8.67057 | 90° | 51km/h | 5490m | -4.4m/s | -15.1°C | 78.4% | 515hPa | 2.6V | 07:48:04 | 02:04:39 | 00:00:00 | |
| DN9WHV | 2026-09-01 08:42:17 | 52.81905 | 8.67078 | 92° | 51km/h | 5486m | -4.3m/s | -15.1°C | 77.2% | 515.2hPa | 2.6V | 07:48:00 | 00:00:00 | 00:00:00 | |
| DD1CC8 | 2026-09-01 08:42:16 | 52.81905 | 8.67057 | 89° | 51km/h | 5490m | -4.4m/s | -15.1°C | 76.8% | 515.0hPa | 2.6V | 00:00:00 | 00:00:00 | 00:00:00 | |
| DM0DOS-11 | 2026-09-01 08:42:15 | 52.81903 | 8.66929 | 87° | 53km/h | 5516m | -4.4m/s | -15.2°C | 80.3% | 513.1hPa | 2.6V | 07:47:37 | 02:04:33 | 00:00:00 | |
| DL1XH-west | 2026-09-01 08:42:13 | 52.81904 | 8.66994 | 90° | 49km/h | 5503m | -4.4m/s | -15.1°C | 78.2% | 514hPa | 2.7V | 07:48:04 | 02:04:36 | 00:00:00 | |
| DL1XH1-15 | 2026-09-01 08:42:12 | 52.81902 | 8.66863 | 88° | 51km/h | 5529m | -4.4m/s | -15.2°C | 79.8% | 512.4hPa | 2.7V | 07:47:40 | 02:04:30 | 00:00:00 | |
| DL1XH-15 | 2026-09-01 08:42:11 | 52.81901 | 8.66842 | 88° | 51km/h | 5534m | -4.4m/s | -15.3°C | 80% | 512.1hPa | 2.6V | 07:47:41 | 02:04:29 | 00:00:00 | |
| DB0DAN | 2026-09-01 08:42:10 | 52.81903 | 8.66929 | 88° | 51km/h | 5516m | -4.4m/s | -15.2°C | 76.1% | 513.15hPa | 2.6V | 00:00:00 | 00:00:00 | 00:00:00 | |
| AA1-15 | 2026-09-01 08:42:09 | 52.81903 | 8.66906 | 87° | 53km/h | 5521m | -4.6m/s | -15.2°C | 77.9% | 512.8hPa | 2.7V | 07:48:55 | 02:04:32 | 00:00:00 | |
| DO2JMG | 2026-09-01 08:42:07 | 52.81902 | 8.66863 | 88° | 51km/h | 5529m | -4.4m/s | -15.2°C | 77.5% | 512.4hPa | 2.7V | 07:48:04 | 02:04:30 | 00:00:00 | |
| BIOWL1-15 | 2026-09-01 08:42:07 | 52.81901 | 8.66820 | 88° | 53km/h | 5538m | -4.6m/s | -15.3°C | 77.9% | 511.7hPa | 2.6V | 07:48:04 | 02:04:28 | 00:00:00 | |
| DF5WG-10 | 2026-09-01 08:42:07 | 52.81901 | 8.66863 | 89° | 51km/h | 5529m | -4.3m/s | -15.2°C | 79.8% | 512.3hPa | 2.6V | 00:00:00 | 02:04:30 | 00:00:00 | |
| DJ2KF-10 | 2026-09-01 08:42:06 | 52.81901 | 8.66842 | 89° | 68km/h | 5534m | -4.3m/s | -15.2°C | 80.0% | 512.0hPa | 2.6V | 00:00:00 | 02:04:29 | 00:00:00 | |
| DM0DOS-11 | 2026-09-01 08:42:05 | 52.81898 | 8.66715 | 89° | 51km/h | 5560m | -4.3m/s | -15.4°C | 78.6% | 510.2hPa | 2.6V | 07:47:47 | 02:04:23 | 00:00:00 | |
| DL1XH-west | 2026-09-01 08:42:03 | 52.81899 | 8.66777 | 86° | 49km/h | 5547m | -4.4m/s | -15.4°C | 77.5% | 511.2hPa | 2.7V | 07:48:04 | 02:04:26 | 00:00:00 | |
| DL1XH1-15 | 2026-09-01 08:42:02 | 52.81897 | 8.66651 | 87° | 49km/h | 5573m | -4.5m/s | -15.4°C | 78.1% | 509.3hPa | 2.7V | 07:47:50 | 02:04:20 | 00:00:00 | |
| DL1XH-15 | 2026-09-01 08:42:01 | 52.81897 | 8.66631 | 88° | 49km/h | 5577m | -4.4m/s | -15.5°C | 78.1% | 509hPa | 2.6V | 07:47:51 | 02:04:19 | 00:00:00 | |
| DF8AY | 2026-09-01 08:42:00 | 52.81898 | 8.66715 | 90° | 51km/h | 5560m | -4.3m/s | -15.4°C | 76.9% | 510.2hPa | 2.6V | 07:48:04 | 02:04:23 | 00:00:00 | |
| AA1-15 | 2026-09-01 08:41:58 | 52.81898 | 8.66672 | 88° | 51km/h | 5568m | -4.4m/s | -15.4°C | 77% | 509.6hPa | 2.7V | 07:48:55 | 02:04:21 | 00:00:00 | |
| DO2JMG | 2026-09-01 08:41:57 | 52.81897 | 8.66651 | 87° | 49km/h | 5573m | -4.5m/s | -15.4°C | 77.2% | 509.3hPa | 2.7V | 07:48:04 | 02:04:20 | 00:00:00 | |
| BIOWL1-15 | 2026-09-01 08:41:55 | 52.81896 | 8.66610 | 89° | 49km/h | 5582m | -4.3m/s | -15.5°C | 76.9% | 508.6hPa | 2.6V | 07:48:04 | 02:04:18 | 00:00:00 | |
| DB0DAN | 2026-09-01 08:41:55 | 52.81896 | 8.66610 | 89° | 47km/h | 5582m | -4.3m/s | -15.5°C | 74.2% | 508.65hPa | 2.6V | 00:00:00 | 00:00:00 | 00:00:00 | |
| DL1XH-west | 2026-09-01 08:41:53 | 52.81896 | 8.66567 | 87° | 53km/h | 5590m | -4.6m/s | -15.5°C | 77.7% | 508.1hPa | 2.7V | 07:48:04 | 02:04:16 | 00:00:00 | |
| DD1CC2-15 | 2026-09-01 08:41:53 | 52.81896 | 8.66567 | 88° | 53km/h | 5590m | -4.6m/s | -15.5°C | 74.8% | 508.1hPa | 2.7V | 07:48:00 | 00:00:00 | 00:00:00 | |
| DL1XH1-15 | 2026-09-01 08:41:52 | 52.81890 | 8.66440 | 86° | 51km/h | 5616m | -4.4m/s | -15.7°C | 79.1% | 506.4hPa | 2.7V | 07:48:00 | 02:04:10 | 00:00:00 | |
| DL1XH-15 | 2026-09-01 08:41:51 | 52.81889 | 8.66418 | 85° | 51km/h | 5621m | -4.5m/s | -15.7°C | 79.1% | 506.1hPa | 2.6V | 07:48:01 | 02:04:09 | 00:00:00 | |
| DF8AY | 2026-09-01 08:41:49 | 52.81892 | 8.66482 | 87° | 49km/h | 5607m | -4.2m/s | -15.6°C | 76.8% | 506.9hPa | 2.7V | 07:48:04 | 02:04:12 | 00:00:00 | |
| DO2JMG | 2026-09-01 08:41:46 | 52.81889 | 8.66418 | 85° | 51km/h | 5621m | -4.5m/s | -15.7°C | 75.5% | 506.1hPa | 2.6V | 07:48:04 | 02:04:09 | 00:00:00 | |
| DM0DOS-11 | 2026-09-01 08:41:45 | 52.81883 | 8.66292 | 82° | 51km/h | 5647m | -4.5m/s | -15.9°C | 79.8% | 504.3hPa | 2.6V | 07:48:07 | 02:04:03 | 00:00:00 | |
| AA1-15 | 2026-09-01 08:41:45 | 52.81888 | 8.66397 | 85° | 51km/h | 5625m | -4.4m/s | -15.7°C | 75.5% | 505.8hPa | 2.6V | 07:48:55 | 02:04:08 | 00:00:00 | |
| DF8AY | 2026-09-01 08:41:44 | 52.81881 | 8.66271 | 82° | 49km/h | 5651m | -4.6m/s | -15.9°C | 78% | 504.1hPa | 2.7V | 07:48:55 | 02:04:02 | 00:00:00 | |
| DL1XH-west | 2026-09-01 08:41:43 | 52.81886 | 8.66356 | 86° | 49km/h | 5634m | -4.3m/s | -15.8°C | 76.3% | 505.2hPa | 2.7V | 07:48:04 | 02:04:06 | 00:00:00 | |
| DL1XH1-15 | 2026-09-01 08:41:42 | 52.81878 | 8.66230 | 83° | 49km/h | 5660m | -4.6m/s | -16°C | 80.6% | 503.4hPa | 2.7V | 07:48:10 | 02:04:00 | 00:00:00 | |
| DL1XH-15 | 2026-09-01 08:41:41 | 52.81877 | 8.66209 | 83° | 51km/h | 5665m | -4.4m/s | -16°C | 80.5% | 503.1hPa | 2.7V | 07:48:11 | 02:03:59 | 00:00:00 | |
| DB0DAN | 2026-09-01 08:41:40 | 52.81883 | 8.66292 | 83° | 49km/h | 5647m | -4.5m/s | -15.9°C | 75.5% | 504.34hPa | 2.6V | 00:00:00 | 00:00:00 | 00:00:00 | |
| DO2JMG | 2026-09-01 08:41:35 | 52.81875 | 8.66188 | 83° | 53km/h | 5669m | -4.3m/s | -16°C | 79.3% | 502.8hPa | 2.6V | 07:48:55 | 02:03:58 | 00:00:00 | |
| DM0DOS-11 | 2026-09-01 08:41:35 | 52.81865 | 8.66082 | 81° | 51km/h | 5691m | -4.3m/s | -16.2°C | 81.2% | 501.4hPa | 2.7V | 07:48:17 | 02:03:53 | 00:00:00 | |
| BIOWL1-15 | 2026-09-01 08:41:34 | 52.81873 | 8.66166 | 81° | 53km/h | 5674m | -4.3m/s | -16°C | 79.6% | 502.6hPa | 2.6V | 07:48:55 | 02:03:57 | 00:00:00 | |
| DL1XH-west | 2026-09-01 08:41:32 | 52.81869 | 8.66123 | 80° | 51km/h | 5682m | -4.7m/s | -16.1°C | 79.2% | 502hPa | 2.7V | 07:48:55 | 02:03:55 | 00:00:00 | |
| DL3AQ-11 | 2026-09-01 08:41:32 | 52.81867 | 8.66103 | 81° | 49km/h | 5686m | -4.2m/s | -16.2°C | 76.5% | 501.7hPa | 2.7V | 00:00:00 | 00:00:00 | 00:00:00 | |
| DL1XH-15 | 2026-09-01 08:41:31 | 52.81857 | 8.66000 | 80° | 46km/h | 5708m | -4.4m/s | -16.3°C | 80.9% | 500.2hPa | 2.7V | 07:48:21 | 02:03:49 | 00:00:00 | |
| DF8AY | 2026-09-01 08:41:28 | 52.81861 | 8.66040 | 80° | 51km/h | 5700m | -4.5m/s | -16.2°C | 77.6% | 500.8hPa | 2.6V | 07:48:55 | 02:03:51 | 00:00:00 | |
| DO2JMG | 2026-09-01 08:41:25 | 52.81855 | 8.65981 | 83° | 44km/h | 5713m | -4.6m/s | -16.3°C | 77.5% | 500hPa | 2.7V | 07:48:55 | 02:03:48 | 00:00:00 | |
| DB0DAN | 2026-09-01 08:41:25 | 52.81855 | 8.65981 | 83° | 42km/h | 5713m | -4.6m/s | -16.3°C | 76.6% | 500.01hPa | 2.7V | 00:00:00 | 00:00:00 | 00:00:00 | |
| BIOWL1-15 | 2026-09-01 08:41:25 | 52.81853 | 8.65943 | 86° | 47km/h | 5722m | -4.3m/s | -16.4°C | 77.5% | 499.4hPa | 2.6V | 07:48:55 | 02:03:46 | 00:00:00 | |
| DL1XH-west | 2026-09-01 08:41:22 | 52.81852 | 8.65923 | 86° | 49km/h | 5726m | -4.2m/s | -16.4°C | 77.6% | 499.1hPa | 2.7V | 07:48:55 | 02:03:45 | 00:00:00 | |
| DL1XH-15 | 2026-09-01 08:41:21 | 52.81837 | 8.65795 | 73° | 47km/h | 5752m | -4.3m/s | -16.6°C | 81.9% | 497.3hPa | 2.7V | 07:48:31 | 02:03:39 | 00:00:00 | |
| DF8AY | 2026-09-01 08:41:17 | 52.81840 | 8.65815 | 74° | 51km/h | 5748m | -4.3m/s | -16.5°C | 80% | 497.6hPa | 2.7V | 07:48:55 | 02:03:40 | 00:00:00 | |
| DF5WG-10 | 2026-09-01 08:41:17 | 52.81840 | 8.65814 | 75° | 47km/h | 5748m | -4.3m/s | -16.4°C | 81.5% | 497.5hPa | 2.7V | 00:00:00 | 02:03:40 | 00:00:00 | |
| DN9WHV | 2026-09-01 08:41:16 | 52.81840 | 8.65814 | 75° | 51km/h | 5748m | -4.3m/s | -16.5°C | 77.0% | 497.6hPa | 2.7V | 07:48:00 | 00:00:00 | 00:00:00 | |
| DM0DOS-11 | 2026-09-01 08:41:15 | 52.81824 | 8.65679 | 82° | 51km/h | 5778m | -4.2m/s | -16.7°C | 82.4% | 495.6hPa | 2.7V | 07:48:37 | 02:03:33 | 00:00:00 | |
| AA1-15 | 2026-09-01 08:41:15 | 52.81834 | 8.65776 | 75° | 46km/h | 5757m | -4.4m/s | -16.6°C | 79.7% | 497hPa | 2.7V | 07:48:55 | 02:03:38 | 00:00:00 | |
| BIOWL1-15 | 2026-09-01 08:41:15 | 52.81829 | 8.65739 | 81° | 46km/h | 5766m | -4.4m/s | -16.6°C | 78.9% | 496.4hPa | 2.6V | 07:48:55 | 02:03:36 | 00:00:00 | |
| DL1XH-west | 2026-09-01 08:41:11 | 52.81826 | 8.65700 | 83° | 49km/h | 5774m | -4.3m/s | -16.7°C | 78.9% | 495.9hPa | 2.7V | 07:48:55 | 02:03:34 | 00:00:00 | |
| DB0DAN | 2026-09-01 08:41:10 | 52.81824 | 8.65679 | 83° | 49km/h | 5778m | -4.3m/s | -16.7°C | 77.9% | 495.57hPa | 2.7V | 00:00:00 | 00:00:00 | 00:00:00 | |
| DF8AY | 2026-09-01 08:41:07 | 52.81818 | 8.65616 | 78° | 49km/h | 5792m | -4.3m/s | -16.8°C | 79.9% | 494.7hPa | 2.7V | 07:48:55 | 02:03:30 | 00:00:00 | |
| DF5WG-10 | 2026-09-01 08:41:07 | 52.81818 | 8.65616 | 79° | 49km/h | 5792m | -4.3m/s | -16.7°C | 83.0% | 494.7hPa | 2.6V | 07:48:00 | 02:03:30 | 00:00:00 | |
| DO9LL-15 | 2026-09-01 08:41:06 | 52.81815 | 8.65596 | 80° | 49km/h | 5796m | -4.2m/s | -16.8°C | 83.2% | 494.4hPa | 2.6V | 00:00:00 | 02:03:29 | 00:00:00 | |
| DM0DOS-11 | 2026-09-01 08:41:05 | 52.81804 | 8.65471 | 77° | 53km/h | 5822m | -4.4m/s | -17°C | 84.7% | 492.7hPa | 2.6V | 07:48:47 | 02:03:23 | 00:00:00 | |
| AA1-15 | 2026-09-01 08:41:04 | 52.81811 | 8.65557 | 84° | 49km/h | 5805m | -4.5m/s | -16.9°C | 80.4% | 493.9hPa | 2.6V | 07:48:55 | 02:03:27 | 00:00:00 | |
| DN9WHV | 2026-09-01 08:41:03 | 52.81812 | 8.65557 | 85° | 49km/h | 5805m | -4.5m/s | -16.9°C | 79.2% | 493.9hPa | 2.7V | 07:48:00 | 00:00:00 | 00:00:00 | |
| DL1XH1-15 | 2026-09-01 08:41:02 | 52.81794 | 8.65409 | 75° | 47km/h | 5835m | -4.2m/s | -17.1°C | 84.1% | 491.7hPa | 2.7V | 07:48:50 | 02:03:20 | 00:00:00 | |
| BIOWL1-15 | 2026-09-01 08:41:02 | 52.81809 | 8.65515 | 83° | 53km/h | 5813m | -4.5m/s | -17°C | 80.8% | 493.3hPa | 2.7V | 07:48:55 | 02:03:25 | 00:00:00 | |
| DL1XH-west | 2026-09-01 08:41:01 | 52.81807 | 8.65493 | 81° | 55km/h | 5818m | -4.4m/s | -17°C | 81% | 493hPa | 2.7V | 07:48:55 | 02:03:24 | 00:00:00 | |
| DF8AY | 2026-09-01 08:40:57 | 52.81795 | 8.65409 | 76° | 47km/h | 5835m | -4.2m/s | -17.1°C | 80.7% | 491.7hPa | 2.7V | 07:48:55 | 02:03:20 | 00:00:00 | |
| DF5WG-10 | 2026-09-01 08:40:57 | 52.81795 | 8.65409 | 76° | 49km/h | 5835m | -4.1m/s | -17.0°C | 84.1% | 491.7hPa | 2.7V | 00:00:00 | 02:03:20 | 00:00:00 | |
| DN9WHV | 2026-09-01 08:40:56 | 52.81794 | 8.65409 | 77° | 47km/h | 5835m | -4.2m/s | -17.1°C | 79.5% | 491.7hPa | 2.7V | 07:48:00 | 00:00:00 | 00:00:00 | |
| DM0DOS-11 | 2026-09-01 08:40:55 | 52.81776 | 8.65267 | 75° | 49km/h | 5866m | -4.4m/s | -17.2°C | 84.3% | 489.9hPa | 2.7V | 07:48:57 | 02:03:13 | 00:00:00 | |
| DB0DAN | 2026-09-01 08:40:55 | 52.81789 | 8.65370 | 78° | 46km/h | 5844m | -4.6m/s | -17.2°C | 79.4% | 491.23hPa | 2.7V | 00:00:00 | 00:00:00 | 00:00:00 | |
| AA1-15 | 2026-09-01 08:40:53 | 52.81784 | 8.65330 | 79° | 51km/h | 5853m | -4.4m/s | -17.2°C | 80.7% | 490.7hPa | 2.6V | 07:48:55 | 02:03:16 | 00:00:00 | |
| BIOWL1-15 | 2026-09-01 08:40:53 | 52.81779 | 8.65288 | 76° | 51km/h | 5861m | -4.5m/s | -17.2°C | 80.8% | 490.1hPa | 2.7V | 07:49:46 | 02:03:14 | 00:00:00 | |
| DL1XH-west | 2026-09-01 08:40:50 | 52.81776 | 8.65267 | 76° | 49km/h | 5866m | -4.4m/s | -17.2°C | 81.4% | 489.9hPa | 2.7V | 07:49:46 | 02:03:13 | 00:00:00 | |
| DF8AY | 2026-09-01 08:40:47 | 52.81769 | 8.65210 | 84° | 46km/h | 5879m | -4.4m/s | -17.3°C | 81.1% | 489hPa | 2.6V | 07:49:46 | 02:03:10 | 00:00:00 | |
| DF5WG-10 | 2026-09-01 08:40:47 | 52.81769 | 8.65210 | 85° | 51km/h | 5879m | -4.4m/s | -17.3°C | 83.5% | 488.9hPa | 2.6V | 00:00:00 | 02:03:10 | 00:00:00 | |
| DN9WHV | 2026-09-01 08:40:46 | 52.81769 | 8.65210 | 85° | 46km/h | 5879m | -4.4m/s | -17.3°C | 78.9% | 489.0hPa | 2.6V | 07:49:00 | 00:00:00 | 00:00:00 | |
| DM0DOS-11 | 2026-09-01 08:40:45 | 52.81757 | 8.65064 | 75° | 51km/h | 5911m | -4.6m/s | -17.5°C | 84% | 486.9hPa | 2.6V | 07:49:07 | 02:03:03 | 00:00:00 | |
| GOEST3-10 | 2026-09-01 08:40:45 | 52.81767 | 8.65171 | 87° | 51km/h | 5888m | -4.5m/s | -17.3°C | 83.7% | 488.3hPa | 2.7V | 00:00:00 | 00:00:00 | 00:00:00 | |
| DD1CC8 | 2026-09-01 08:40:43 | 52.81765 | 8.65128 | 82° | 51km/h | 5897m | -4.6m/s | -17.4°C | 79.9% | 487.8hPa | 2.7V | 00:00:00 | 00:00:00 | 00:00:00 | |
| DL1XH1-15 | 2026-09-01 08:40:42 | 52.81748 | 8.65003 | 78° | 51km/h | 5924m | -4.7m/s | -17.6°C | 83.3% | 486.1hPa | 2.7V | 07:49:10 | 02:03:00 | 00:00:00 | |
| AA1-15 | 2026-09-01 08:40:42 | 52.81763 | 8.65106 | 79° | 53km/h | 5902m | -4.4m/s | -17.5°C | 81.5% | 487.4hPa | 2.7V | 07:51:28 | 02:03:05 | 00:00:00 | |
| DL1XH-west | 2026-09-01 08:40:40 | 52.81757 | 8.65064 | 76° | 51km/h | 5911m | -4.6m/s | -17.5°C | 81.1% | 486.9hPa | 2.6V | 07:49:46 | 02:03:03 | 00:00:00 | |
| DB0DAN | 2026-09-01 08:40:40 | 52.81757 | 8.65064 | 76° | 47km/h | 5911m | -4.6m/s | -17.5°C | 79.3% | 486.94hPa | 2.6V | 00:00:00 | 00:00:00 | 00:00:00 | |
| DF8AY | 2026-09-01 08:40:37 | 52.81745 | 8.64981 | 79° | 53km/h | 5929m | -4.5m/s | -17.7°C | 79.5% | 485.7hPa | 2.7V | 07:49:46 | 02:02:59 | 00:00:00 | |
| DF5WG-10 | 2026-09-01 08:40:37 | 52.81748 | 8.65003 | 79° | 47km/h | 5924m | -4.7m/s | -17.6°C | 83.3% | 486.0hPa | 2.7V | 00:00:00 | 02:03:00 | 00:00:00 | |
| DO9LL-15 | 2026-09-01 08:40:36 | 52.81745 | 8.64981 | 79° | 47km/h | 5929m | -4.5m/s | -17.6°C | 83.5% | 485.7hPa | 2.7V | 00:00:00 | 02:02:59 | 00:00:00 | |
| GOEST3-10 | 2026-09-01 08:40:35 | 52.81742 | 8.64960 | 78° | 49km/h | 5933m | -4.3m/s | -17.6°C | 83.7% | 485.4hPa | 2.7V | 00:00:00 | 00:00:00 | 00:00:00 | |
| DJ2DS-15 | 2026-09-01 08:40:34 | 52.81740 | 8.64938 | 77° | 44km/h | 5938m | -4.8m/s | -17.7°C | 84.2% | 485.1hPa | 2.7V | 00:00:00 | 02:02:57 | 00:00:00 | |
| DL1LOL-11 | 2026-09-01 08:40:33 | 52.81739 | 8.64938 | 78° | 51km/h | 5938m | -4.9m/s | -17.7°C | 79.4% | 485.1hPa | 2.7V | 00:00:00 | 00:00:00 | 00:00:00 | |
| DL1XH1-15 | 2026-09-01 08:40:32 | 52.81726 | 8.64806 | 82° | 44km/h | 5970m | -4.2m/s | -18.1°C | 86.3% | 483.1hPa | 2.7V | 07:49:20 | 02:02:50 | 00:00:00 | |
| AA1-15 | 2026-09-01 08:40:31 | 52.81731 | 8.64880 | 81° | 44km/h | 5952m | -4.6m/s | -17.9°C | 81.1% | 484.3hPa | 2.6V | 07:51:28 | 02:02:54 | 00:00:00 | |
| BIOWL1-15 | 2026-09-01 08:40:30 | 52.81730 | 8.64861 | 83° | 44km/h | 5956m | -4.5m/s | -17.9°C | 81.4% | 483.9hPa | 2.7V | 07:49:46 | 02:02:53 | 00:00:00 | |
| DL1XH-west | 2026-09-01 08:40:29 | 52.81729 | 8.64843 | 85° | 46km/h | 5961m | -4.5m/s | -18°C | 81.6% | 483.7hPa | 2.7V | 07:49:46 | 02:02:52 | 00:00:00 | |
| DD8BA-10 | 2026-09-01 08:40:29 | 52.81729 | 8.64843 | 85° | 42km/h | 5961m | -4.5m/s | -17.9°C | 86.1% | 483.6hPa | 2.7V | 00:00:00 | 00:00:00 | 00:00:00 | |
| DN9WHV | 2026-09-01 08:40:28 | 52.81728 | 8.64843 | 86° | 46km/h | 5961m | -4.5m/s | -18.0°C | 81.2% | 483.7hPa | 2.7V | 07:49:00 | 00:00:00 | 00:00:00 | |
| DF5WG-10 | 2026-09-01 08:40:27 | 52.81726 | 8.64806 | 83° | 42km/h | 5970m | -4.1m/s | -18.0°C | 86.3% | 483.1hPa | 2.7V | 00:00:00 | 02:02:50 | 00:00:00 | |
| DM0DOS-11 | 2026-09-01 08:40:25 | 52.81708 | 8.64686 | 77° | 42km/h | 6001m | -4.7m/s | -18.2°C | 85.3% | 481hPa | 2.7V | 07:49:27 | 02:02:43 | 00:00:00 | |
| DF8AY | 2026-09-01 08:40:25 | 52.81722 | 8.64771 | 76° | 44km/h | 5979m | -4.5m/s | -18.1°C | 81.8% | 482.5hPa | 2.6V | 07:49:46 | 02:02:48 | 00:00:00 | |
| DB0DAN | 2026-09-01 08:40:25 | 52.81722 | 8.64771 | 76° | 40km/h | 5979m | -4.5m/s | -18.1°C | 80.8% | 482.47hPa | 2.6V | 00:00:00 | 00:00:00 | 00:00:00 | |
| GOEST3-10 | 2026-09-01 08:40:25 | 52.81722 | 8.64771 | 77° | 42km/h | 5979m | -4.4m/s | -18.0°C | 85.7% | 482.4hPa | 2.6V | 00:00:00 | 00:00:00 | 00:00:00 | |
| DK9SH | 2026-09-01 08:40:24 | 52.81722 | 8.64771 | 77° | 44km/h | 5979m | -4.5m/s | -18.1°C | 80.8% | 482.5hPa | 2.6V | 07:49:00 | 00:00:00 | 00:00:00 | |
| BIOWL9-15 | 2026-09-01 08:40:23 | 52.81716 | 8.64736 | 74° | 42km/h | 5987m | -4.4m/s | -18.2°C | 80.4% | 481.9hPa | 2.6V | 00:00:00 | 00:00:00 | 00:00:00 | |
| DL1XH1-15 | 2026-09-01 08:40:22 | 52.81703 | 8.64635 | 84° | 42km/h | 6015m | -4.9m/s | -18.4°C | 85.6% | 480.1hPa | 2.6V | 07:49:30 | 02:02:40 | 00:00:00 | |
| DL1XH-15 | 2026-09-01 08:40:21 | 52.81702 | 8.64617 | 88° | 44km/h | 6020m | -4.4m/s | -18.4°C | 85.7% | 479.9hPa | 2.7V | 07:49:31 | 02:02:39 | 00:00:00 | |
| BIOWL1-15 | 2026-09-01 08:40:20 | 52.81708 | 8.64686 | 77° | 42km/h | 6001m | -4.7m/s | -18.3°C | 82.7% | 481hPa | 2.7V | 07:49:46 | 02:02:43 | 00:00:00 | |
| DL1XH-west | 2026-09-01 08:40:19 | 52.81706 | 8.64669 | 79° | 42km/h | 6006m | -4.5m/s | -18.3°C | 82.6% | 480.8hPa | 2.6V | 07:49:46 | 02:02:42 | 00:00:00 | |
| DD8BA-10 | 2026-09-01 08:40:19 | 52.81706 | 8.64669 | 80° | 47km/h | 6006m | -4.5m/s | -18.2°C | 85.4% | 480.7hPa | 2.6V | 00:00:00 | 00:00:00 | 00:00:00 | |
| DN9WHV | 2026-09-01 08:40:18 | 52.81706 | 8.64669 | 80° | 42km/h | 6006m | -4.5m/s | -18.3°C | 80.5% | 480.8hPa | 2.6V | 07:49:00 | 00:00:00 | 00:00:00 | |
| DF5WG-10 | 2026-09-01 08:40:17 | 52.81703 | 8.64635 | 85° | 51km/h | 6015m | -4.8m/s | -18.3°C | 85.6% | 480.1hPa | 2.6V | 00:00:00 | 02:02:40 | 00:00:00 | |
| DM0DOS-11 | 2026-09-01 08:40:15 | 52.81695 | 8.64492 | 76° | 57km/h | 6047m | -4.2m/s | -18.6°C | 86.4% | 478.1hPa | 2.6V | 07:49:37 | 02:02:33 | 00:00:00 | |
| AA1-15 | 2026-09-01 08:40:14 | 52.81702 | 8.64579 | 88° | 47km/h | 6029m | -4.8m/s | -18.4°C | 81.8% | 479.2hPa | 2.7V | 07:51:28 | 02:02:37 | 00:00:00 | |
| DJ2DS-15 | 2026-09-01 08:40:14 | 52.81701 | 8.64579 | 88° | 51km/h | 6029m | -4.7m/s | -18.4°C | 85.6% | 479.2hPa | 2.7V | 00:00:00 | 02:02:37 | 00:00:00 | |
| DN9WHV | 2026-09-01 08:40:13 | 52.81701 | 8.64579 | 89° | 47km/h | 6029m | -4.8m/s | -18.4°C | 80.7% | 479.3hPa | 2.7V | 07:49:00 | 00:00:00 | 00:00:00 | |
| DD1CC8 | 2026-09-01 08:40:12 | 52.81700 | 8.64537 | 83° | 53km/h | 6038m | -4.5m/s | -18.5°C | 80.7% | 478.7hPa | 2.7V | 00:00:00 | 00:00:00 | 00:00:00 | |
| DL1XH-15 | 2026-09-01 08:40:11 | 52.81679 | 8.64403 | 72° | 55km/h | 6064m | -4.3m/s | -18.8°C | 87.6% | 477hPa | 2.7V | 07:49:41 | 02:02:29 | 00:00:00 | |
| BIOWL1-15 | 2026-09-01 08:40:10 | 52.81695 | 8.64492 | 76° | 57km/h | 6047m | -4.2m/s | -18.6°C | 81.7% | 478.1hPa | 2.6V | 07:49:46 | 02:02:33 | 00:00:00 | |
| DB0DAN | 2026-09-01 08:40:10 | 52.81695 | 8.64492 | 76° | 53km/h | 6047m | -4.2m/s | -18.6°C | 81.4% | 478.09hPa | 2.6V | 00:00:00 | 00:00:00 | 00:00:00 | |
| DL1XH-west | 2026-09-01 08:40:09 | 52.81691 | 8.64469 | 74° | 57km/h | 6051m | -4.4m/s | -18.6°C | 81.9% | 477.9hPa | 2.7V | 07:49:46 | 02:02:32 | 00:00:00 | |
| DD8BA-10 | 2026-09-01 08:40:09 | 52.81691 | 8.64469 | 74° | 53km/h | 6051m | -4.3m/s | -18.6°C | 86.4% | 477.8hPa | 2.7V | 00:00:00 | 00:00:00 | 00:00:00 | |
| HTAHTA | 2026-09-01 08:40:08 | 52.81683 | 8.64425 | 71° | 55km/h | 6060m | -4.6m/s | -18.7°C | 82.0% | 477.3hPa | 2.7V | 00:00:00 | 00:00:00 | 00:00:00 | |
| DF5WG-10 | 2026-09-01 08:40:07 | 52.81683 | 8.64425 | 72° | 51km/h | 6060m | -4.5m/s | -18.7°C | 87.0% | 477.2hPa | 2.7V | 00:00:00 | 02:02:30 | 00:00:00 | |
| DO9LL-15 | 2026-09-01 08:40:06 | 52.81679 | 8.64403 | 73° | 55km/h | 6064m | -4.2m/s | -18.7°C | 87.6% | 476.9hPa | 2.7V | 00:00:00 | 02:02:29 | 00:00:00 | |
| DM0DOS-11 | 2026-09-01 08:40:05 | 52.81653 | 8.64280 | 70° | 47km/h | 6090m | -4.5m/s | -19°C | 87.7% | 475.3hPa | 2.7V | 07:49:47 | 02:02:23 | 00:00:00 | |
| DF8AY | 2026-09-01 08:40:03 | 52.81665 | 8.64339 | 71° | 53km/h | 6077m | -4.6m/s | -18.8°C | 82.8% | 476.2hPa | 2.6V | 07:49:46 | 02:02:26 | 00:00:00 | |
| AA1-15 | 2026-09-01 08:40:02 | 52.81661 | 8.64319 | 71° | 51km/h | 6082m | -4.5m/s | -18.9°C | 82.6% | 475.8hPa | 2.7V | 07:51:28 | 02:02:25 | 00:00:00 | |
| DL1XH1-15 | 2026-09-01 08:40:02 | 52.81641 | 8.64224 | 71° | 47km/h | 6104m | -4.4m/s | -19.1°C | 87.8% | 474.4hPa | 2.6V | 07:49:50 | 02:02:20 | 00:00:00 | |
| DO2JMG | 2026-09-01 08:39:59 | 52.81649 | 8.64261 | 70° | 47km/h | 6095m | -4.7m/s | -19°C | 83.1% | 475hPa | 2.7V | 07:50:37 | 02:02:22 | 00:00:00 | |
| DL1XH-west | 2026-09-01 08:39:58 | 52.81645 | 8.64243 | 70° | 46km/h | 6100m | -4.7m/s | -19°C | 82.9% | 474.8hPa | 2.6V | 07:50:37 | 02:02:21 | 00:00:00 | |
| DF5WG-10 | 2026-09-01 08:39:57 | 52.81641 | 8.64224 | 72° | 55km/h | 6104m | -4.4m/s | -19.0°C | 87.8% | 474.4hPa | 2.7V | 00:00:00 | 02:02:20 | 00:00:00 | |
| DD1CC3-15 | 2026-09-01 08:39:56 | 52.81640 | 8.64224 | 72° | 47km/h | 6104m | -4.4m/s | -19.1°C | 82.7% | 474.4hPa | 2.7V | 07:50:00 | 00:00:00 | 00:00:00 | |
| DM0DOS-11 | 2026-09-01 08:39:55 | 52.81612 | 8.64075 | 72° | 57km/h | 6135m | -4.6m/s | -19.4°C | 89.2% | 472.5hPa | 2.7V | 07:49:57 | 02:02:13 | 00:00:00 | |
| BIOWL9-15 | 2026-09-01 08:39:52 | 52.81620 | 8.64120 | 72° | 55km/h | 6126m | -4.6m/s | -19.3°C | 83.7% | 473.1hPa | 2.6V | 00:00:00 | 00:00:00 | 00:00:00 | |
| DL1XH-15 | 2026-09-01 08:39:51 | 52.81594 | 8.63986 | 74° | 57km/h | 6154m | -4.5m/s | -19.5°C | 89.8% | 471.2hPa | 2.6V | 07:50:01 | 02:02:09 | 00:00:00 | |
| DF8AY | 2026-09-01 08:39:51 | 52.81616 | 8.64098 | 72° | 57km/h | 6130m | -4.6m/s | -19.3°C | 84.4% | 472.7hPa | 2.6V | 07:50:37 | 02:02:14 | 00:00:00 | |
| BIOWL1-15 | 2026-09-01 08:39:49 | 52.81607 | 8.64053 | 71° | 55km/h | 6140m | -4.4m/s | -19.4°C | 84.6% | 472.1hPa | 2.7V | 07:50:37 | 02:02:12 | 00:00:00 | |
| DL1XH-west | 2026-09-01 08:39:48 | 52.81603 | 8.64031 | 72° | 57km/h | 6144m | -4.9m/s | -19.5°C | 84.6% | 471.9hPa | 2.7V | 07:50:37 | 02:02:11 | 00:00:00 | |
| DL3AQ-11 | 2026-09-01 08:39:48 | 52.81599 | 8.64009 | 73° | 57km/h | 6149m | -5.2m/s | -19.5°C | 84.0% | 471.6hPa | 2.6V | 00:00:00 | 00:00:00 | 00:00:00 | |
| DF5WG-10 | 2026-09-01 08:39:47 | 52.81599 | 8.64008 | 74° | 57km/h | 6149m | -5.2m/s | -19.4°C | 89.2% | 471.5hPa | 2.6V | 07:50:00 | 02:02:10 | 00:00:00 | |
| DM0DOS-11 | 2026-09-01 08:39:46 | 52.81577 | 8.63844 | 82° | 58km/h | 6181m | -4.2m/s | -19.7°C | 88.5% | 469.6hPa | 2.7V | 07:50:07 | 02:02:03 | 00:00:00 | |
| DD1CC2-15 | 2026-09-01 08:39:45 | 52.81591 | 8.63963 | 77° | 57km/h | 6158m | -4.3m/s | -19.6°C | 84.5% | 470.9hPa | 2.6V | 07:50:00 | 00:00:00 | 00:00:00 | |
| DO2LYB-13 | 2026-09-01 08:39:44 | 52.81591 | 8.63963 | 77° | 57km/h | 6158m | -4.3m/s | -19.6°C | 84.5% | 470.9hPa | 2.6V | 00:00:00 | 00:00:00 | 00:00:00 | |
| SMARD9-10 | 2026-09-01 08:39:43 | 52.81588 | 8.63939 | 77° | 58km/h | 6163m | -4.5m/s | -19.6°C | 84.0% | 470.7hPa | 2.6V | 07:50:00 | 00:00:00 | 00:00:00 | |
| DL1XH1-15 | 2026-09-01 08:39:42 | 52.81572 | 8.63773 | 83° | 55km/h | 6194m | -4.5m/s | -19.8°C | 87.6% | 468.7hPa | 2.6V | 07:50:10 | 02:02:00 | 00:00:00 | |
| DL1XH-15 | 2026-09-01 08:39:41 | 52.81571 | 8.63751 | 85° | 53km/h | 6199m | -4.7m/s | -19.8°C | 88.1% | 468.4hPa | 2.7V | 07:50:11 | 02:01:59 | 00:00:00 | |
| DF8AY | 2026-09-01 08:39:40 | 52.81577 | 8.63844 | 83° | 58km/h | 6181m | -4.3m/s | -19.7°C | 83.2% | 469.6hPa | 2.7V | 07:50:37 | 02:02:03 | 00:00:00 | |
| DB0DAN | 2026-09-01 08:39:40 | 52.81577 | 8.63844 | 83° | 55km/h | 6181m | -4.3m/s | -19.7°C | 83.2% | 469.58hPa | 2.7V | 00:00:00 | 00:00:00 | 00:00:00 | |
| DL1XH-west | 2026-09-01 08:39:37 | 52.81572 | 8.63773 | 84° | 55km/h | 6194m | -4.5m/s | -19.8°C | 82.6% | 468.7hPa | 2.6V | 07:50:37 | 02:02:00 | 00:00:00 | |
| HTAHTA | 2026-09-01 08:39:37 | 52.81571 | 8.63751 | 85° | 53km/h | 6199m | -4.7m/s | -19.8°C | 82.8% | 468.4hPa | 2.7V | 00:00:00 | 00:00:00 | 00:00:00 | |
| DO9LL-15 | 2026-09-01 08:39:36 | 52.81571 | 8.63751 | 86° | 49km/h | 6199m | -4.6m/s | -19.7°C | 88.1% | 468.4hPa | 2.7V | 07:50:00 | 02:01:59 | 00:00:00 | |
| DM0DOS-11 | 2026-09-01 08:39:35 | 52.81565 | 8.63619 | 85° | 55km/h | 6227m | -4.6m/s | -20°C | 87.1% | 466.7hPa | 2.7V | 07:50:17 | 02:01:53 | 00:00:00 | |
| GOEST3-10 | 2026-09-01 08:39:35 | 52.81570 | 8.63729 | 87° | 53km/h | 6204m | -4.6m/s | -19.8°C | 88.2% | 468.1hPa | 2.7V | 07:50:00 | 00:00:00 | 00:00:00 | |
| DJ2DS-15 | 2026-09-01 08:39:34 | 52.81569 | 8.63707 | 88° | 49km/h | 6208m | -4.2m/s | -19.8°C | 87.6% | 467.8hPa | 2.7V | 00:00:00 | 02:01:57 | 00:00:00 | |
| DN9WHV | 2026-09-01 08:39:33 | 52.81569 | 8.63707 | 89° | 51km/h | 6208m | -4.3m/s | -19.9°C | 82.4% | 467.8hPa | 2.7V | 07:50:00 | 00:00:00 | 00:00:00 | |
| DL1XH1-15 | 2026-09-01 08:39:32 | 52.81563 | 8.63549 | 87° | 57km/h | 6241m | -4.6m/s | -20.1°C | 87% | 465.9hPa | 2.7V | 07:50:20 | 02:01:50 | 00:00:00 | |
| DL3AQ-11 | 2026-09-01 08:39:32 | 52.81567 | 8.63642 | 86° | 53km/h | 6222m | -4.7m/s | -20.0°C | 82.0% | 467.0hPa | 2.6V | 00:00:00 | 00:00:00 | 00:00:00 | |
| DL1XH-15 | 2026-09-01 08:39:31 | 52.81562 | 8.63525 | 87° | 55km/h | 6245m | -4.4m/s | -20.1°C | 87.1% | 465.6hPa | 2.6V | 07:50:21 | 02:01:49 | 00:00:00 | |
| AA1-15 | 2026-09-01 08:39:31 | 52.81567 | 8.63642 | 86° | 53km/h | 6222m | -4.7m/s | -20°C | 82.2% | 467hPa | 2.6V | 07:51:28 | 02:01:54 | 00:00:00 | |
| DF8AY | 2026-09-01 08:39:29 | 52.81565 | 8.63596 | 86° | 57km/h | 6232m | -4.8m/s | -20°C | 82.2% | 466.4hPa | 2.7V | 07:50:37 | 02:01:52 | 00:00:00 | |
| DO2JMG | 2026-09-01 08:39:27 | 52.81563 | 8.63549 | 88° | 57km/h | 6241m | -4.6m/s | -20.1°C | 82.1% | 465.9hPa | 2.7V | 07:50:37 | 02:01:50 | 00:00:00 | |
| DL1XH-west | 2026-09-01 08:39:26 | 52.81562 | 8.63525 | 88° | 55km/h | 6245m | -4.4m/s | -20.1°C | 82.1% | 465.6hPa | 2.6V | 07:50:37 | 02:01:49 | 00:00:00 | |
| GOEST3-10 | 2026-09-01 08:39:25 | 52.81562 | 8.63503 | 90° | 49km/h | 6250m | -4.3m/s | -20.1°C | 87.0% | 465.2hPa | 2.6V | 00:00:00 | 00:00:00 | 00:00:00 | |
| DN9WHV | 2026-09-01 08:39:24 | 52.81562 | 8.63503 | 90° | 53km/h | 6250m | -4.3m/s | -20.2°C | 81.8% | 465.3hPa | 2.7V | 07:50:00 | 00:00:00 | 00:00:00 | |
| DN9WHV | 2026-09-01 08:39:23 | 52.81562 | 8.63481 | 90° | 53km/h | 6254m | -4.6m/s | -20.2°C | 81.7% | 465.0hPa | 2.7V | 07:50:00 | 00:00:00 | 00:00:00 | |
| DL1XH1-15 | 2026-09-01 08:39:22 | 52.81553 | 8.63348 | 78° | 44km/h | 6287m | -4.4m/s | -20.4°C | 87.1% | 463hPa | 2.7V | 07:50:30 | 02:01:40 | 00:00:00 | |
| DL1XH-15 | 2026-09-01 08:39:21 | 52.81551 | 8.63330 | 74° | 44km/h | 6291m | -4.5m/s | -20.4°C | 87% | 462.7hPa | 2.7V | 07:50:31 | 02:01:39 | 00:00:00 | |
| DF8AY | 2026-09-01 08:39:18 | 52.81555 | 8.63366 | 79° | 44km/h | 6282m | -4.6m/s | -20.4°C | 82.2% | 463.3hPa | 2.7V | 07:50:37 | 02:01:41 | 00:00:00 | |
| BIOWL1-15 | 2026-09-01 08:39:16 | 52.81551 | 8.63330 | 75° | 44km/h | 6291m | -4.5m/s | -20.4°C | 82.2% | 462.7hPa | 2.7V | 07:50:37 | 02:01:39 | 00:00:00 | |
| DM0DOS-11 | 2026-09-01 08:39:15 | 52.81529 | 8.63220 | 71° | 47km/h | 6319m | -4.2m/s | -20.6°C | 86.2% | 461.1hPa | 2.7V | 07:50:37 | 02:01:33 | 00:00:00 | |
| DL1XH-west | 2026-09-01 08:39:15 | 52.81548 | 8.63312 | 75° | 46km/h | 6296m | -4.8m/s | -20.5°C | 82.4% | 462.4hPa | 2.6V | 07:50:37 | 02:01:38 | 00:00:00 | |
| DF8AY | 2026-09-01 08:39:13 | 52.81521 | 8.63182 | 70° | 49km/h | 6328m | -4.5m/s | -20.7°C | 82% | 460.5hPa | 2.6V | 07:51:28 | 02:01:31 | 00:00:00 | |
| DJ2DS-15 | 2026-09-01 08:39:13 | 52.81537 | 8.63257 | 70° | 46km/h | 6310m | -4.4m/s | -20.6°C | 81.3% | 461.6hPa | 2.7V | 00:00:00 | 00:00:00 | 00:00:00 | |
| DL1XH1-15 | 2026-09-01 08:39:12 | 52.81517 | 8.63163 | 71° | 47km/h | 6332m | -4.3m/s | -20.7°C | 86.4% | 460.2hPa | 2.7V | 07:50:40 | 02:01:30 | 00:00:00 | |
| DL1XH-15 | 2026-09-01 08:39:11 | 52.81514 | 8.63145 | 74° | 46km/h | 6336m | -4m/s | -20.7°C | 86.4% | 459.9hPa | 2.7V | 07:50:41 | 02:01:29 | 00:00:00 | |
| DB0DAN | 2026-09-01 08:39:10 | 52.81529 | 8.63220 | 72° | 44km/h | 6319m | -4.2m/s | -20.6°C | 80.9% | 461.07hPa | 2.7V | 00:00:00 | 00:00:00 | 00:00:00 | |
| BIOWL1-15 | 2026-09-01 08:39:06 | 52.81513 | 8.63145 | 74° | 46km/h | 6336m | -4m/s | -20.7°C | 81.9% | 459.9hPa | 2.7V | 07:51:28 | 02:01:29 | 00:00:00 | |
| HTAHTA | 2026-09-01 08:39:06 | 52.81511 | 8.63127 | 76° | 44km/h | 6340m | -4.0m/s | -20.8°C | 81.0% | 459.6hPa | 2.7V | 00:00:00 | 00:00:00 | 00:00:00 | |
| DM0DOS-11 | 2026-09-01 08:39:05 | 52.81502 | 8.63036 | 82° | 46km/h | 6361m | -4.4m/s | -20.9°C | 86.5% | 458.3hPa | 2.7V | 07:50:47 | 02:01:23 | 00:00:00 | |
| DL1XH-west | 2026-09-01 08:39:04 | 52.81508 | 8.63109 | 80° | 44km/h | 6345m | -4.2m/s | -20.8°C | 81.8% | 459.4hPa | 2.6V | 07:51:28 | 02:01:27 | 00:00:00 | |
| DN9WHV | 2026-09-01 08:39:03 | 52.81508 | 8.63109 | 81° | 44km/h | 6345m | -4.2m/s | -20.8°C | 80.9% | 459.5hPa | 2.6V | 07:51:00 | 00:00:00 | 00:00:00 | |
| DL1XH1-15 | 2026-09-01 08:39:02 | 52.81499 | 8.62976 | 85° | 49km/h | 6375m | -4.4m/s | -21°C | 86.4% | 457.5hPa | 2.6V | 07:50:50 | 02:01:20 | 00:00:00 | |
| DL1XH-15 | 2026-09-01 08:39:01 | 52.81498 | 8.62955 | 86° | 51km/h | 6379m | -4.5m/s | -21.1°C | 86.1% | 457.2hPa | 2.6V | 07:50:51 | 02:01:19 | 00:00:00 | |
| AA1-15 | 2026-09-01 08:38:59 | 52.81501 | 8.63017 | 83° | 47km/h | 6366m | -4.4m/s | -21°C | 81.9% | 458hPa | 2.7V | 07:51:28 | 02:01:22 | 00:00:00 | |
| DF8AY | 2026-09-01 08:38:57 | 52.81499 | 8.62976 | 86° | 49km/h | 6375m | -4.4m/s | -21°C | 81.9% | 457.5hPa | 2.6V | 07:51:28 | 02:01:20 | 00:00:00 | |
| DF5WG-10 | 2026-09-01 08:38:57 | 52.81499 | 8.62976 | 86° | 49km/h | 6375m | -4.3m/s | -21.0°C | 86.4% | 457.4hPa | 2.6V | 00:00:00 | 02:01:20 | 00:00:00 | |
| DO2LYB-13 | 2026-09-01 08:38:56 | 52.81499 | 8.62976 | 87° | 51km/h | 6375m | -4.4m/s | -21.0°C | 81.0% | 457.5hPa | 2.6V | 07:51:00 | 00:00:00 | 00:00:00 | |
| DB0DAN | 2026-09-01 08:38:55 | 52.81497 | 8.62934 | 89° | 49km/h | 6384m | -4.2m/s | -21.1°C | 80.9% | 456.92hPa | 2.6V | 00:00:00 | 00:00:00 | 00:00:00 | |
| BIOWL1-15 | 2026-09-01 08:38:55 | 52.81497 | 8.62934 | 89° | 51km/h | 6384m | -4.2m/s | -21.1°C | 81.9% | 456.9hPa | 2.6V | 07:51:28 | 02:01:18 | 00:00:00 | |
| DJ2DS-15 | 2026-09-01 08:38:54 | 52.81497 | 8.62912 | 89° | 47km/h | 6388m | -4.5m/s | -21.1°C | 86.3% | 456.6hPa | 2.7V | 00:00:00 | 02:01:17 | 00:00:00 | |
| DM0DOS-11 | 2026-09-01 08:38:53 | 52.81495 | 8.62829 | 87° | 47km/h | 6406m | -4.4m/s | -21.3°C | 87% | 455.5hPa | 2.6V | 07:50:57 | 02:01:13 | 00:00:00 | |
| DL1XH-west | 2026-09-01 08:38:53 | 52.81497 | 8.62891 | 88° | 51km/h | 6393m | -4.4m/s | -21.2°C | 82% | 456.4hPa | 2.7V | 07:51:28 | 02:01:16 | 00:00:00 | |
| DN9WHV | 2026-09-01 08:38:52 | 52.81496 | 8.62870 | 89° | 51km/h | 6397m | -4.6m/s | -21.2°C | 81.3% | 456.0hPa | 2.6V | 07:51:00 | 00:00:00 | 00:00:00 | |
| DL1XH1-15 | 2026-09-01 08:38:52 | 52.81491 | 8.62771 | 79° | 46km/h | 6419m | -4.7m/s | -21.4°C | 87.2% | 454.7hPa | 2.6V | 07:51:00 | 02:01:10 | 00:00:00 | |
| DL1XH-15 | 2026-09-01 08:38:51 | 52.81489 | 8.62753 | 77° | 44km/h | 6424m | -4m/s | -21.4°C | 87.2% | 454.4hPa | 2.6V | 07:51:01 | 02:01:09 | 00:00:00 | |
| AA1-15 | 2026-09-01 08:38:49 | 52.81495 | 8.62809 | 85° | 47km/h | 6411m | -4.2m/s | -21.3°C | 82.4% | 455.3hPa | 2.7V | 07:51:28 | 02:01:12 | 00:00:00 | |
| DF8AY | 2026-09-01 08:38:47 | 52.81491 | 8.62771 | 79° | 46km/h | 6419m | -4.7m/s | -21.4°C | 82.8% | 454.7hPa | 2.6V | 07:51:28 | 02:01:10 | 00:00:00 | |
| DO2JMG | 2026-09-01 08:38:45 | 52.81486 | 8.62735 | 73° | 46km/h | 6428m | -4.4m/s | -21.4°C | 83% | 454.2hPa | 2.7V | 07:51:28 | 02:01:08 | 00:00:00 | |
| BIOWL1-15 | 2026-09-01 08:38:45 | 52.81480 | 8.62699 | 72° | 44km/h | 6437m | -4.3m/s | -21.5°C | 83.4% | 453.6hPa | 2.7V | 07:51:28 | 02:01:06 | 00:00:00 | |
| DL1XH-west | 2026-09-01 08:38:42 | 52.81476 | 8.62682 | 74° | 44km/h | 6442m | -4.8m/s | -21.5°C | 83.4% | 453.4hPa | 2.6V | 07:51:28 | 02:01:05 | 00:00:00 | |
| DL1XH-15 | 2026-09-01 08:38:41 | 52.81468 | 8.62566 | 86° | 55km/h | 6468m | -3.9m/s | -21.7°C | 87.8% | 451.7hPa | 2.7V | 07:51:11 | 02:00:59 | 00:00:00 | |
| DB0DAN | 2026-09-01 08:38:40 | 52.81471 | 8.62647 | 81° | 42km/h | 6450m | -4.7m/s | -21.6°C | 82.1% | 452.82hPa | 2.6V | 00:00:00 | 00:00:00 | 00:00:00 | |
| AA1-15 | 2026-09-01 08:38:38 | 52.81469 | 8.62609 | 88° | 49km/h | 6460m | -4.4m/s | -21.7°C | 83% | 452.2hPa | 2.7V | 07:51:28 | 02:01:01 | 00:00:00 | |
| DF8AY | 2026-09-01 08:38:36 | 52.81468 | 8.62566 | 86° | 55km/h | 6468m | -3.9m/s | -21.7°C | 83% | 451.7hPa | 2.7V | 07:51:28 | 02:00:59 | 00:00:00 | |
| DO2JMG | 2026-09-01 08:38:35 | 52.81466 | 8.62543 | 82° | 58km/h | 6472m | -4.3m/s | -21.8°C | 83% | 451.3hPa | 2.6V | 07:51:28 | 02:00:58 | 00:00:00 | |
| BIOWL1-15 | 2026-09-01 08:38:35 | 52.81461 | 8.62493 | 78° | 60km/h | 6480m | -4.5m/s | -21.8°C | 83.1% | 450.9hPa | 2.6V | 07:51:28 | 02:00:56 | 00:00:00 | |
| DL1XH-west | 2026-09-01 08:38:32 | 52.81458 | 8.62469 | 75° | 62km/h | 6485m | -4.2m/s | -21.9°C | 83.3% | 450.6hPa | 2.7V | 07:51:28 | 02:00:55 | 00:00:00 | |
| AA1-15 | 2026-09-01 08:38:27 | 52.81438 | 8.62346 | 74° | 60km/h | 6506m | -4.6m/s | -22.1°C | 83.7% | 449.3hPa | 2.7V | 07:51:28 | 02:00:50 | 00:00:00 | |
| DF8AY | 2026-09-01 08:38:26 | 52.81434 | 8.62323 | 73° | 58km/h | 6511m | -4.5m/s | -22.1°C | 84.2% | 449hPa | 2.7V | 07:51:28 | 02:00:49 | 00:00:00 | |
| DB0DAN | 2026-09-01 08:38:25 | 52.81430 | 8.62300 | 71° | 53km/h | 6515m | -4.3m/s | -22.1°C | 83.2% | 448.8hPa | 2.6V | 00:00:00 | 00:00:00 | 00:00:00 | |
| DO2JMG | 2026-09-01 08:38:24 | 52.81425 | 8.62279 | 69° | 53km/h | 6519m | -4.3m/s | -22.2°C | 84.6% | 448.5hPa | 2.6V | 07:51:28 | 02:00:47 | 00:00:00 | |
| BIOWL1-15 | 2026-09-01 08:38:22 | 52.81415 | 8.62238 | 69° | 53km/h | 6528m | -4.6m/s | -22.3°C | 84.8% | 447.9hPa | 2.7V | 07:51:28 | 02:00:45 | 00:00:00 | |
| DL1XH-15 | 2026-09-01 08:38:21 | 52.81387 | 8.62106 | 72° | 60km/h | 6554m | -4.8m/s | -22.5°C | 89.2% | 446.4hPa | 2.7V | 07:51:31 | 02:00:39 | 00:00:00 | |
| DL1XH-west | 2026-09-01 08:38:21 | 52.81411 | 8.62217 | 71° | 53km/h | 6532m | -4.1m/s | -22.3°C | 84.9% | 447.7hPa | 2.7V | 07:51:28 | 02:00:44 | 00:00:00 | |
| AA1-15 | 2026-09-01 08:38:16 | 52.81387 | 8.62106 | 72° | 60km/h | 6554m | -4.8m/s | -22.5°C | 85.2% | 446.4hPa | 2.7V | 07:52:19 | 02:00:39 | 00:00:00 | |
| DF8AY | 2026-09-01 08:38:14 | 52.81377 | 8.62059 | 72° | 60km/h | 6563m | -4.9m/s | -22.6°C | 85% | 445.8hPa | 2.6V | 07:55:43 | 02:00:37 | 00:00:00 | |
| DJ2DS-15 | 2026-09-01 08:38:14 | 52.81377 | 8.62059 | 72° | 55km/h | 6563m | -4.9m/s | -22.5°C | 89.2% | 445.8hPa | 2.6V | 00:00:00 | 02:00:37 | 00:00:00 | |
| BIOWL7-15 | 2026-09-01 08:38:13 | 52.81377 | 8.62059 | 73° | 60km/h | 6563m | -4.9m/s | -22.6°C | 83.4% | 445.8hPa | 2.6V | 07:52:00 | 00:00:00 | 00:00:00 | |
| DL1XH1-15 | 2026-09-01 08:38:12 | 52.81342 | 8.61909 | 70° | 47km/h | 6595m | -4.9m/s | -22.8°C | 89.4% | 443.8hPa | 2.6V | 07:51:40 | 02:00:30 | 00:00:00 | |
| BIOWL1-15 | 2026-09-01 08:38:11 | 52.81362 | 8.61989 | 68° | 57km/h | 6577m | -4.6m/s | -22.7°C | 85.1% | 445hPa | 2.7V | 07:52:19 | 02:00:34 | 00:00:00 | |
| DL1XH-15 | 2026-09-01 08:38:11 | 52.81339 | 8.61891 | 74° | 46km/h | 6600m | -4.6m/s | -22.9°C | 89.9% | 443.5hPa | 2.7V | 07:51:41 | 02:00:29 | 00:00:00 | |
| DL1XH-west | 2026-09-01 08:38:10 | 52.81356 | 8.61968 | 68° | 55km/h | 6582m | -4.5m/s | -22.7°C | 85.1% | 444.6hPa | 2.7V | 07:52:19 | 02:00:33 | 00:00:00 | |
| DB0DAN | 2026-09-01 08:38:10 | 52.81356 | 8.61968 | 68° | 51km/h | 6582m | -4.5m/s | -22.7°C | 83.7% | 444.65hPa | 2.7V | 00:00:00 | 00:00:00 | 00:00:00 | |
| AA1-15 | 2026-09-01 08:38:05 | 52.81336 | 8.61872 | 78° | 47km/h | 6604m | -4.4m/s | -22.9°C | 85% | 443.3hPa | 2.7V | 07:52:19 | 02:00:28 | 00:00:00 | |
| DM0DOS-11 | 2026-09-01 08:38:05 | 52.81327 | 8.61759 | 82° | 60km/h | 6626m | -4.5m/s | -23.1°C | 90.4% | 442hPa | 2.7V | 07:51:47 | 02:00:23 | 00:00:00 | |
| DF8AY | 2026-09-01 08:38:04 | 52.81333 | 8.61852 | 82° | 49km/h | 6609m | -4.3m/s | -22.9°C | 85.1% | 443.1hPa | 2.7V | 07:55:43 | 02:00:27 | 00:00:00 | |
| DO2JMG | 2026-09-01 08:38:03 | 52.81332 | 8.61831 | 83° | 53km/h | 6613m | -4.4m/s | -23°C | 85.5% | 442.8hPa | 2.6V | 07:52:19 | 02:00:26 | 00:00:00 | |
| BIOWL1-15 | 2026-09-01 08:38:03 | 52.81328 | 8.61784 | 84° | 58km/h | 6622m | -4.1m/s | -23°C | 85.7% | 442.2hPa | 2.7V | 07:52:19 | 02:00:24 | 00:00:00 | |
| DL1XH-west | 2026-09-01 08:37:59 | 52.81325 | 8.61734 | 83° | 62km/h | 6631m | -4.5m/s | -23.1°C | 85.4% | 441.7hPa | 2.6V | 07:52:19 | 02:00:22 | 00:00:00 | |
| DL3AQ-11 | 2026-09-01 08:37:59 | 52.81323 | 8.61709 | 83° | 58km/h | 6635m | -4.4m/s | -23.1°C | 84.0% | 441.5hPa | 2.7V | 00:00:00 | 00:00:00 | 00:00:00 | |
| SONCRA | 2026-09-01 08:37:56 | 52.81320 | 8.61660 | 86° | 57km/h | 6644m | -4.5m/s | -23.2°C | 84.4% | 440.9hPa | 2.7V | 00:00:00 | 00:00:00 | 00:00:00 | |
| DM0DOS-11 | 2026-09-01 08:37:55 | 52.81313 | 8.61527 | 81° | 49km/h | 6671m | -4.6m/s | -23.4°C | 92.1% | 439.3hPa | 2.7V | 07:51:57 | 02:00:13 | 00:00:00 | |
| DB0DAN | 2026-09-01 08:37:55 | 52.81319 | 8.61637 | 86° | 53km/h | 6648m | -4.4m/s | -23.2°C | 84.5% | 440.7hPa | 2.7V | 00:00:00 | 00:00:00 | 00:00:00 | |
| AA1-15 | 2026-09-01 08:37:54 | 52.81318 | 8.61614 | 86° | 55km/h | 6653m | -4.5m/s | -23.3°C | 85.9% | 440.4hPa | 2.6V | 07:52:19 | 02:00:17 | 00:00:00 | |
| DF8AY | 2026-09-01 08:37:53 | 52.81317 | 8.61591 | 86° | 55km/h | 6657m | -4.6m/s | -23.3°C | 86% | 440.1hPa | 2.6V | 07:55:43 | 02:00:16 | 00:00:00 | |
| DO2JMG | 2026-09-01 08:37:52 | 52.81316 | 8.61569 | 85° | 53km/h | 6662m | -4.6m/s | -23.3°C | 86.2% | 439.9hPa | 2.6V | 07:52:19 | 02:00:15 | 00:00:00 | |
| DL1XH-west | 2026-09-01 08:37:49 | 52.81311 | 8.61507 | 78° | 47km/h | 6675m | -4m/s | -23.5°C | 87.2% | 439.1hPa | 2.7V | 07:52:19 | 02:00:12 | 00:00:00 | |
| DL3AQ-11 | 2026-09-01 08:37:48 | 52.81306 | 8.61468 | 75° | 46km/h | 6683m | -4.6m/s | -23.5°C | 85.7% | 438.5hPa | 2.7V | 00:00:00 | 00:00:00 | 00:00:00 | |
| BUE01 | 2026-09-01 08:37:46 | 52.81303 | 8.61450 | 75° | 46km/h | 6688m | -5.0m/s | -23.6°C | 84.9% | 438.3hPa | 2.7V | 00:00:00 | 00:00:00 | 00:00:00 | |
| DM0DOS-11 | 2026-09-01 08:37:45 | 52.81293 | 8.61328 | 85° | 53km/h | 6716m | -4.7m/s | -23.8°C | 90.3% | 436.6hPa | 2.7V | 07:52:07 | 02:00:03 | 00:00:00 | |
| AA1-15 | 2026-09-01 08:37:43 | 52.81296 | 8.61391 | 84° | 49km/h | 6703m | -4.2m/s | -23.7°C | 85.6% | 437.5hPa | 2.6V | 07:52:19 | 02:00:06 | 00:00:00 | |
| DF8AY | 2026-09-01 08:37:42 | 52.81295 | 8.61370 | 85° | 49km/h | 6707m | -4.5m/s | -23.7°C | 85.8% | 437.2hPa | 2.7V | 07:55:43 | 02:00:05 | 00:00:00 | |
| DO2JMG | 2026-09-01 08:37:41 | 52.81294 | 8.61349 | 85° | 51km/h | 6711m | -4.6m/s | -23.7°C | 85.6% | 436.9hPa | 2.7V | 07:52:19 | 02:00:04 | 00:00:00 | |
| BIOWL1-15 | 2026-09-01 08:37:40 | 52.81293 | 8.61328 | 85° | 53km/h | 6716m | -4.7m/s | -23.8°C | 85.5% | 436.6hPa | 2.7V | 07:52:19 | 02:00:03 | 00:00:00 | |
| DB0DAN | 2026-09-01 08:37:40 | 52.81293 | 8.61328 | 85° | 49km/h | 6716m | -4.7m/s | -23.8°C | 84.3% | 436.64hPa | 2.7V | 00:00:00 | 00:00:00 | 00:00:00 | |
| DL1XH-west | 2026-09-01 08:37:38 | 52.81290 | 8.61283 | 84° | 55km/h | 6725m | -4.5m/s | -23.8°C | 85.4% | 436.1hPa | 2.6V | 07:52:19 | 02:00:01 | 00:00:00 | |
| DD1CC8 | 2026-09-01 08:37:37 | 52.81286 | 8.61235 | 80° | 60km/h | 6733m | -3.9m/s | -23.8°C | 83.5% | 435.5hPa | 2.7V | 00:00:00 | 00:00:00 | 00:00:00 | |
| DO9LL-15 | 2026-09-01 08:37:36 | 52.81286 | 8.61235 | 81° | 57km/h | 6733m | -3.9m/s | -23.8°C | 89.5% | 435.5hPa | 2.7V | 00:00:00 | 01:59:59 | 00:00:00 | |
| DM0DOS-11 | 2026-09-01 08:37:35 | 52.81271 | 8.61081 | 83° | 58km/h | 6759m | -4.4m/s | -24.1°C | 90.2% | 433.9hPa | 2.7V | 07:52:17 | 01:59:53 | 00:00:00 | |
| GOEST3-10 | 2026-09-01 08:37:35 | 52.81284 | 8.61210 | 81° | 62km/h | 6737m | -3.9m/s | -23.8°C | 89.4% | 435.3hPa | 2.7V | 07:52:00 | 00:00:00 | 00:00:00 | |
| DJ2DS-15 | 2026-09-01 08:37:33 | 52.81278 | 8.61158 | 80° | 58km/h | 6746m | -4.4m/s | -23.9°C | 89.8% | 434.7hPa | 2.7V | 00:00:00 | 01:59:56 | 00:00:00 | |
| DL1XH1-15 | 2026-09-01 08:37:32 | 52.81268 | 8.61010 | 86° | 55km/h | 6772m | -4.6m/s | -24.2°C | 90.2% | 433.1hPa | 2.7V | 07:52:20 | 01:59:50 | 00:00:00 | |
| AA1-15 | 2026-09-01 08:37:32 | 52.81275 | 8.61132 | 81° | 62km/h | 6750m | -4.7m/s | -24°C | 85.2% | 434.5hPa | 2.6V | 07:52:19 | 01:59:55 | 00:00:00 | |
| DF8AY | 2026-09-01 08:37:31 | 52.81273 | 8.61106 | 82° | 62km/h | 6755m | -4.6m/s | -24°C | 85.3% | 434.3hPa | 2.7V | 07:55:43 | 01:59:54 | 00:00:00 | |
| DO2JMG | 2026-09-01 08:37:30 | 52.81271 | 8.61081 | 84° | 58km/h | 6759m | -4.4m/s | -24.1°C | 85.5% | 433.9hPa | 2.7V | 07:52:19 | 01:59:53 | 00:00:00 | |
| DL1XH-west | 2026-09-01 08:37:27 | 52.81268 | 8.61010 | 86° | 55km/h | 6772m | -4.6m/s | -24.2°C | 85.7% | 433.2hPa | 2.7V | 07:53:10 | 01:59:50 | 00:00:00 | |
| BIOWL7-15 | 2026-09-01 08:37:26 | 52.81268 | 8.61010 | 87° | 55km/h | 6772m | -4.6m/s | -24.2°C | 84.1% | 433.2hPa | 2.7V | 00:00:00 | 00:00:00 | 00:00:00 | |
| DM0DOS-11 | 2026-09-01 08:37:25 | 52.81263 | 8.60847 | 82° | 60km/h | 6804m | -4.5m/s | -24.4°C | 90.7% | 431.3hPa | 2.7V | 07:52:27 | 01:59:43 | 00:00:00 | |
| DB0DAN | 2026-09-01 08:37:25 | 52.81267 | 8.60965 | 89° | 51km/h | 6781m | -4.4m/s | -24.3°C | 83.9% | 432.64hPa | 2.7V | 00:00:00 | 00:00:00 | 00:00:00 | |
| GOEST3-10 | 2026-09-01 08:37:25 | 52.81267 | 8.60964 | 90° | 55km/h | 6781m | -4.3m/s | -24.2°C | 90.0% | 432.6hPa | 2.7V | 00:00:00 | 00:00:00 | 00:00:00 | |
| DL1CLM-18 | 2026-09-01 08:37:24 | 52.81267 | 8.60964 | 90° | 53km/h | 6781m | -4.4m/s | -24.3°C | 83.9% | 432.6hPa | 2.6V | 07:53:00 | 00:00:00 | 00:00:00 | |
| DF5WG-10 | 2026-09-01 08:37:23 | 52.81266 | 8.60920 | 88° | 58km/h | 6791m | -4.8m/s | -24.3°C | 90.2% | 432.1hPa | 2.6V | 00:00:00 | 01:59:46 | 00:00:00 | |
| DL1XH1-15 | 2026-09-01 08:37:22 | 52.81253 | 8.60771 | 73° | 62km/h | 6818m | -4.5m/s | -24.5°C | 91.4% | 430.5hPa | 2.6V | 07:52:30 | 01:59:40 | 00:00:00 | |
| BIOWL1-15 | 2026-09-01 08:37:22 | 52.81257 | 8.60796 | 76° | 62km/h | 6813m | -4.6m/s | -24.5°C | 86.1% | 430.7hPa | 2.6V | 07:53:10 | 01:59:41 | 00:00:00 | |
| DN9WHV | 2026-09-01 08:37:22 | 52.81266 | 8.60897 | 87° | 57km/h | 6796m | -4.6m/s | -24.4°C | 84.2% | 431.8hPa | 2.7V | 07:53:00 | 00:00:00 | 00:00:00 | |
| DL1XH-15 | 2026-09-01 08:37:21 | 52.81248 | 8.60747 | 70° | 58km/h | 6822m | -4m/s | -24.6°C | 91.5% | 430.2hPa | 2.7V | 07:52:31 | 01:59:39 | 00:00:00 | |
| AA1-15 | 2026-09-01 08:37:21 | 52.81265 | 8.60872 | 86° | 60km/h | 6800m | -4.6m/s | -24.4°C | 85.5% | 431.6hPa | 2.7V | 07:53:10 | 01:59:44 | 00:00:00 | |
| DF8AY | 2026-09-01 08:37:20 | 52.81263 | 8.60847 | 82° | 60km/h | 6805m | -4.5m/s | -24.4°C | 85.6% | 431.3hPa | 2.7V | 07:55:43 | 01:59:43 | 00:00:00 | |
| DL1XH-west | 2026-09-01 08:37:16 | 52.81248 | 8.60747 | 71° | 58km/h | 6822m | -4m/s | -24.6°C | 86.6% | 430.2hPa | 2.7V | 07:53:10 | 01:59:39 | 00:00:00 | |
| GOEST3-10 | 2026-09-01 08:37:15 | 52.81243 | 8.60725 | 69° | 49km/h | 6827m | -4.5m/s | -24.6°C | 91.3% | 429.9hPa | 2.7V | 00:00:00 | 00:00:00 | 00:00:00 | |
| DN9WHV | 2026-09-01 08:37:14 | 52.81243 | 8.60725 | 69° | 55km/h | 6827m | -4.6m/s | -24.6°C | 85.1% | 430.0hPa | 2.7V | 07:53:00 | 00:00:00 | 00:00:00 | |
| DM0DOS-11 | 2026-09-01 08:37:13 | 52.81227 | 8.60628 | 82° | 47km/h | 6849m | -4.3m/s | -24.8°C | 91.7% | 428.7hPa | 2.7V | 07:52:37 | 01:59:33 | 00:00:00 | |
| DJ2DS-15 | 2026-09-01 08:37:13 | 52.81234 | 8.60685 | 71° | 57km/h | 6835m | -4.7m/s | -24.6°C | 90.9% | 429.4hPa | 2.6V | 07:52:00 | 01:59:36 | 00:00:00 | |
| DL1XH1-15 | 2026-09-01 08:37:12 | 52.81223 | 8.60560 | 86° | 58km/h | 6862m | -4.4m/s | -24.9°C | 91.4% | 427.9hPa | 2.6V | 07:52:40 | 01:59:30 | 00:00:00 | |
| DL1XH-15 | 2026-09-01 08:37:11 | 52.81222 | 8.60535 | 83° | 60km/h | 6866m | -4.5m/s | -24.9°C | 91.5% | 427.7hPa | 2.7V | 07:52:41 | 01:59:29 | 00:00:00 | |
| AA1-15 | 2026-09-01 08:37:10 | 52.81227 | 8.60628 | 83° | 49km/h | 6849m | -4.3m/s | -24.8°C | 86.7% | 428.7hPa | 2.7V | 07:53:10 | 01:59:33 | 00:00:00 | |
| DB0DAN | 2026-09-01 08:37:10 | 52.81227 | 8.60628 | 83° | 46km/h | 6849m | -4.3m/s | -24.8°C | 85.4% | 428.67hPa | 2.7V | 00:00:00 | 00:00:00 | 00:00:00 | |
| DO2JMG | 2026-09-01 08:37:09 | 52.81225 | 8.60607 | 85° | 53km/h | 6853m | -4.4m/s | -24.8°C | 86.7% | 428.4hPa | 2.6V | 07:53:10 | 01:59:32 | 00:00:00 | |
| BIOWL1-15 | 2026-09-01 08:37:08 | 52.81224 | 8.60584 | 86° | 57km/h | 6857m | -4.3m/s | -24.8°C | 86.6% | 428.2hPa | 2.6V | 07:53:10 | 01:59:31 | 00:00:00 | |
| DL1XH-west | 2026-09-01 08:37:06 | 52.81222 | 8.60535 | 83° | 60km/h | 6866m | -4.5m/s | -24.9°C | 86.6% | 427.7hPa | 2.7V | 07:53:10 | 01:59:29 | 00:00:00 | |
| DO9LL-15 | 2026-09-01 08:37:06 | 52.81222 | 8.60535 | 84° | 55km/h | 6866m | -4.5m/s | -24.8°C | 91.5% | 427.6hPa | 2.7V | 00:00:00 | 01:59:29 | 00:00:00 | |
| GOEST3-10 | 2026-09-01 08:37:05 | 52.81220 | 8.60510 | 82° | 64km/h | 6870m | -4.3m/s | -24.9°C | 91.3% | 427.4hPa | 2.7V | 00:00:00 | 00:00:00 | 00:00:00 | |
| DN9WHV | 2026-09-01 08:37:04 | 52.81220 | 8.60510 | 83° | 64km/h | 6870m | -4.4m/s | -24.9°C | 85.0% | 427.4hPa | 2.7V | 07:53:00 | 00:00:00 | 00:00:00 | |
| DM0DOS-11 | 2026-09-01 08:37:03 | 52.81203 | 8.60379 | 73° | 62km/h | 6892m | -4.4m/s | -25.1°C | 91.8% | 426.1hPa | 2.7V | 07:52:47 | 01:59:23 | 00:00:00 | |
| DF5WG-10 | 2026-09-01 08:37:03 | 52.81214 | 8.60456 | 78° | 62km/h | 6879m | -4.6m/s | -25.0°C | 91.4% | 426.8hPa | 2.6V | 07:52:00 | 01:59:26 | 00:00:00 | |
| DL1XH1-15 | 2026-09-01 08:37:02 | 52.81189 | 8.60309 | 70° | 55km/h | 6905m | -4m/s | -25.2°C | 91% | 425.3hPa | 2.6V | 07:52:50 | 01:59:20 | 00:00:00 | |
| DL1XH-15 | 2026-09-01 08:37:01 | 52.81184 | 8.60287 | 68° | 53km/h | 6910m | -4.6m/s | -25.2°C | 90.8% | 425.1hPa | 2.6V | 07:52:51 | 01:59:19 | 00:00:00 | |
| AA1-15 | 2026-09-01 08:36:59 | 52.81199 | 8.60355 | 73° | 62km/h | 6896m | -4.6m/s | -25.1°C | 87% | 425.9hPa | 2.7V | 07:53:10 | 01:59:22 | 00:00:00 | |
| BIOWL1-15 | 2026-09-01 08:36:58 | 52.81194 | 8.60331 | 69° | 58km/h | 6901m | -4.5m/s | -25.2°C | 86.8% | 425.6hPa | 2.7V | 07:53:10 | 01:59:21 | 00:00:00 | |
| DO2LYB-13 | 2026-09-01 08:36:57 | 52.81188 | 8.60308 | 71° | 55km/h | 6906m | -4.0m/s | -25.2°C | 84.7% | 425.3hPa | 2.7V | 00:00:00 | 00:00:00 | 00:00:00 | |
| DN9WHV | 2026-09-01 08:36:56 | 52.81188 | 8.60308 | 71° | 55km/h | 6906m | -4.0m/s | -25.2°C | 84.7% | 425.3hPa | 2.7V | 07:53:00 | 00:00:00 | 00:00:00 | |
| DB0DAN | 2026-09-01 08:36:55 | 52.81179 | 8.60267 | 69° | 49km/h | 6914m | -4.6m/s | -25.3°C | 84.3% | 424.9hPa | 2.7V | 00:00:00 | 00:00:00 | 00:00:00 | |
| DL1XH-west | 2026-09-01 08:36:55 | 52.81179 | 8.60267 | 69° | 51km/h | 6914m | -4.6m/s | -25.3°C | 86.5% | 424.9hPa | 2.7V | 07:53:10 | 01:59:18 | 00:00:00 | |
| SONCRA | 2026-09-01 08:36:54 | 52.81174 | 8.60247 | 70° | 49km/h | 6919m | -4.9m/s | -25.3°C | 84.1% | 424.6hPa | 2.6V | 00:00:00 | 00:00:00 | 00:00:00 | |
| DJ2DS-15 | 2026-09-01 08:36:53 | 52.81170 | 8.60227 | 73° | 51km/h | 6924m | -4.6m/s | -25.3°C | 90.7% | 424.3hPa | 2.6V | 00:00:00 | 01:59:16 | 00:00:00 | |
| DL1XH1-15 | 2026-09-01 08:36:52 | 52.81157 | 8.60115 | 84° | 47km/h | 6950m | -4.8m/s | -25.5°C | 91.7% | 422.6hPa | 2.7V | 07:53:00 | 01:59:10 | 00:00:00 | |
| DL1XH-15 | 2026-09-01 08:36:51 | 52.81156 | 8.60095 | 87° | 47km/h | 6955m | -4.5m/s | -25.6°C | 91.4% | 422.4hPa | 2.7V | 07:53:01 | 01:59:09 | 00:00:00 | |
| AA1-15 | 2026-09-01 08:36:48 | 52.81158 | 8.60134 | 81° | 46km/h | 6945m | -4.7m/s | -25.5°C | 87.3% | 422.9hPa | 2.6V | 07:53:10 | 01:59:11 | 00:00:00 | |
| BIOWL1-15 | 2026-09-01 08:36:47 | 52.81157 | 8.60115 | 85° | 47km/h | 6950m | -4.8m/s | -25.5°C | 86.9% | 422.7hPa | 2.7V | 07:53:10 | 01:59:10 | 00:00:00 | |
| DL1XH-west | 2026-09-01 08:36:45 | 52.81155 | 8.60074 | 86° | 53km/h | 6959m | -5m/s | -25.6°C | 86.4% | 422.2hPa | 2.6V | 07:53:10 | 01:59:08 | 00:00:00 | |
| BUE01 | 2026-09-01 08:36:44 | 52.81154 | 8.60051 | 86° | 57km/h | 6964m | -4.3m/s | -25.6°C | 84.9% | 421.9hPa | 2.7V | 00:00:00 | 00:00:00 | 00:00:00 | |
| DM0DOS-11 | 2026-09-01 08:36:43 | 52.81144 | 8.59950 | 73° | 62km/h | 6981m | -4.2m/s | -25.7°C | 91.3% | 420.9hPa | 2.7V | 07:53:07 | 01:59:03 | 00:00:00 | |
| DF5WG-10 | 2026-09-01 08:36:43 | 52.81153 | 8.60027 | 85° | 55km/h | 6968m | -4.4m/s | -25.6°C | 91.5% | 421.7hPa | 2.6V | 00:00:00 | 01:59:06 | 00:00:00 | |
| DL1XH1-15 | 2026-09-01 08:36:42 | 52.81129 | 8.59883 | 68° | 51km/h | 6994m | -4.3m/s | -25.8°C | 91% | 420.2hPa | 2.6V | 07:53:10 | 01:59:00 | 00:00:00 | |
| DL1XH-15 | 2026-09-01 08:36:41 | 52.81124 | 8.59864 | 72° | 47km/h | 6999m | -3.9m/s | -25.8°C | 90.5% | 419.9hPa | 2.6V | 07:53:11 | 01:58:59 | 00:00:00 | |
| BIOWL1-15 | 2026-09-01 08:36:38 | 52.81125 | 8.59864 | 73° | 47km/h | 6999m | -3.9m/s | -25.8°C | 86.1% | 419.9hPa | 2.6V | 07:54:01 | 01:58:59 | 00:00:00 | |
| AA1-15 | 2026-09-01 08:36:38 | 52.81134 | 8.59904 | 68° | 55km/h | 6990m | -4.4m/s | -25.8°C | 86.8% | 420.4hPa | 2.5V | 07:53:10 | 01:59:01 | 00:00:00 | |
| DF8AY | 2026-09-01 08:36:35 | 52.81121 | 8.59845 | 75° | 46km/h | 7002m | -4.4m/s | -25.9°C | 85.7% | 419.7hPa | 2.7V | 07:55:43 | 01:58:58 | 00:00:00 | |
| DL1XH-west | 2026-09-01 08:36:34 | 52.81119 | 8.59826 | 81° | 47km/h | 7007m | -4.3m/s | -25.9°C | 85.4% | 419.4hPa | 2.7V | 07:54:01 | 01:58:57 | 00:00:00 | |
| DM0DOS-11 | 2026-09-01 08:36:33 | 52.81115 | 8.59737 | 84° | 60km/h | 7024m | -4.3m/s | -26°C | 90.4% | 418.4hPa | 2.6V | 07:53:17 | 01:58:53 | 00:00:00 | |
| DJ2DS-15 | 2026-09-01 08:36:33 | 52.81117 | 8.59806 | 86° | 53km/h | 7011m | -4.1m/s | -25.9°C | 89.9% | 419.1hPa | 2.5V | 00:00:00 | 01:58:56 | 00:00:00 | |
| DN9WHV | 2026-09-01 08:36:32 | 52.81117 | 8.59806 | 86° | 49km/h | 7011m | -4.1m/s | -25.9°C | 83.5% | 419.2hPa | 2.5V | 07:54:00 | 00:00:00 | 00:00:00 | |
| DL1XH-15 | 2026-09-01 08:36:31 | 52.81101 | 8.59639 | 69° | 58km/h | 7041m | -4.1m/s | -26.1°C | 89.9% | 417.5hPa | 2.5V | 07:53:21 | 01:58:49 | 00:00:00 | |
| DO2JMG | 2026-09-01 08:36:28 | 52.81110 | 8.59687 | 77° | 62km/h | 7033m | -4.7m/s | -26.1°C | 85.6% | 417.9hPa | 2.7V | 07:54:01 | 01:58:51 | 00:00:00 | |
| AA1-15 | 2026-09-01 08:36:27 | 52.81106 | 8.59662 | 73° | 60km/h | 7037m | -4.5m/s | -26.1°C | 85.5% | 417.8hPa | 2.7V | 07:54:01 | 01:58:50 | 00:00:00 | |
| BIOWL1-15 | 2026-09-01 08:36:26 | 52.81101 | 8.59639 | 70° | 58km/h | 7041m | -4.1m/s | -26.1°C | 85.3% | 417.5hPa | 2.5V | 07:54:01 | 01:58:49 | 00:00:00 | |
| DM0DOS-11 | 2026-09-01 08:36:25 | 52.81074 | 8.59523 | 75° | 44km/h | 7066m | -4.3m/s | -26.2°C | 87.5% | 415.9hPa | 2.7V | 07:53:27 | 01:58:43 | 00:00:00 | |
| DL1XH-west | 2026-09-01 08:36:23 | 52.81086 | 8.59577 | 67° | 49km/h | 7054m | -4m/s | -26.2°C | 84.7% | 416.7hPa | 2.7V | 07:54:01 | 01:58:46 | 00:00:00 | |
| DF8AY | 2026-09-01 08:36:22 | 52.81081 | 8.59559 | 68° | 47km/h | 7058m | -4.2m/s | -26.2°C | 84.1% | 416.4hPa | 2.5V | 07:55:43 | 01:58:45 | 00:00:00 | |
| DL1XH-15 | 2026-09-01 08:36:21 | 52.81068 | 8.59446 | 87° | 53km/h | 7085m | -4.3m/s | -26.3°C | 84.6% | 415hPa | 2.7V | 07:53:31 | 01:58:39 | 00:00:00 | |
| DO2JMG | 2026-09-01 08:36:17 | 52.81069 | 8.59468 | 85° | 49km/h | 7081m | -4.5m/s | -26.3°C | 81.1% | 415.2hPa | 2.6V | 07:54:01 | 01:58:40 | 00:00:00 | |
| BIOWL1-15 | 2026-09-01 08:36:16 | 52.81068 | 8.59446 | 87° | 53km/h | 7085m | -4.3m/s | -26.3°C | 80.5% | 415hPa | 2.7V | 07:54:01 | 01:58:39 | 00:00:00 | |
| DL1XH-west | 2026-09-01 08:36:12 | 52.81062 | 8.59350 | 78° | 60km/h | 7102m | -4m/s | -26.3°C | 79.4% | 413.9hPa | 2.7V | 07:54:01 | 01:58:35 | 00:00:00 | |
| DF8AY | 2026-09-01 08:36:11 | 52.81058 | 8.59326 | 73° | 58km/h | 7106m | -4.4m/s | -26.4°C | 79.6% | 413.6hPa | 2.7V | 07:55:43 | 01:58:34 | 00:00:00 | |
| DB0DAN | 2026-09-01 08:36:10 | 52.81053 | 8.59303 | 71° | 55km/h | 7111m | -4.4m/s | -26.4°C | 77.2% | 413.43hPa | 2.7V | 00:00:00 | 00:00:00 | 00:00:00 | |
| DO2JMG | 2026-09-01 08:36:07 | 52.81040 | 8.59244 | 71° | 44km/h | 7123m | -4.5m/s | -26.5°C | 79% | 412.6hPa | 2.6V | 07:54:01 | 01:58:30 | 00:00:00 | |
| AA1-15 | 2026-09-01 08:36:05 | 52.81034 | 8.59209 | 81° | 44km/h | 7132m | -4.3m/s | -26.5°C | 78.5% | 412.2hPa | 2.7V | 07:54:01 | 01:58:28 | 00:00:00 | |
| GOEST3-10 | 2026-09-01 08:36:05 | 52.81034 | 8.59209 | 81° | 51km/h | 7132m | -4.3m/s | -26.5°C | 81.7% | 412.2hPa | 2.7V | 00:00:00 | 00:00:00 | 00:00:00 | |
| DN9WHV | 2026-09-01 08:36:04 | 52.81034 | 8.59209 | 82° | 44km/h | 7132m | -4.3m/s | -26.5°C | 75.7% | 412.2hPa | 2.7V | 07:54:00 | 00:00:00 | 00:00:00 | |
| DM0DOS-11 | 2026-09-01 08:36:03 | 52.81029 | 8.59099 | 80° | 60km/h | 7154m | -4.7m/s | -26.7°C | 81.5% | 410.9hPa | 2.7V | 07:53:47 | 01:58:23 | 00:00:00 | |
| DF5WG-10 | 2026-09-01 08:36:03 | 52.81032 | 8.59169 | 88° | 55km/h | 7141m | -4.2m/s | -26.6°C | 81.5% | 411.7hPa | 2.5V | 00:00:00 | 01:58:26 | 00:00:00 | |
| DL1XH1-15 | 2026-09-01 08:36:02 | 52.81017 | 8.59027 | 70° | 58km/h | 7167m | -4.5m/s | -26.8°C | 81.6% | 410.3hPa | 2.5V | 07:53:50 | 01:58:20 | 00:00:00 | |
| DL1XH-west | 2026-09-01 08:36:01 | 52.81031 | 8.59124 | 85° | 58km/h | 7149m | -4.4m/s | -26.7°C | 78.1% | 411.2hPa | 2.6V | 07:54:01 | 01:58:24 | 00:00:00 | |
| DO2JMG | 2026-09-01 08:35:56 | 52.81012 | 8.59006 | 69° | 55km/h | 7171m | -4.5m/s | -26.8°C | 78.4% | 410hPa | 2.6V | 07:54:01 | 01:58:19 | 00:00:00 | |
| DB0DAN | 2026-09-01 08:35:55 | 52.81008 | 8.58985 | 68° | 47km/h | 7176m | -4.6m/s | -26.9°C | 75.4% | 409.7hPa | 2.6V | 00:00:00 | 00:00:00 | 00:00:00 | |
| BIOWL1-15 | 2026-09-01 08:35:55 | 52.80996 | 8.58914 | 86° | 42km/h | 7192m | -3.8m/s | -27°C | 77.2% | 408.8hPa | 2.5V | 07:54:01 | 01:58:14 | 00:00:00 | |
| AA1-15 | 2026-09-01 08:35:54 | 52.81003 | 8.58967 | 69° | 46km/h | 7180m | -4.3m/s | -26.9°C | 78.2% | 409.5hPa | 2.7V | 07:54:01 | 01:58:17 | 00:00:00 | |
| DM0DOS-11 | 2026-09-01 08:35:53 | 52.80995 | 8.58896 | 88° | 46km/h | 7197m | -4.5m/s | -27°C | 80.2% | 408.5hPa | 2.6V | 07:53:57 | 01:58:13 | 00:00:00 | |
| DJ2DS-15 | 2026-09-01 08:35:53 | 52.80999 | 8.58949 | 74° | 49km/h | 7185m | -4.0m/s | -26.9°C | 81.2% | 409.1hPa | 2.6V | 00:00:00 | 01:58:16 | 00:00:00 | |
| DL1XH1-15 | 2026-09-01 08:35:52 | 52.80992 | 8.58830 | 82° | 58km/h | 7210m | -4.3m/s | -27.1°C | 80.5% | 407.8hPa | 2.7V | 07:54:00 | 01:58:10 | 00:00:00 | |
| DL1XH-15 | 2026-09-01 08:35:52 | 52.80989 | 8.58806 | 80° | 60km/h | 7214m | -4.3m/s | -27.1°C | 80.4% | 407.5hPa | 2.6V | 07:54:01 | 01:58:09 | 00:00:00 | |
| DL1XH-west | 2026-09-01 08:35:50 | 52.80995 | 8.58896 | 88° | 46km/h | 7197m | -4.5m/s | -27°C | 77.1% | 408.5hPa | 2.6V | 07:54:01 | 01:58:13 | 00:00:00 | |
| DF8AY | 2026-09-01 08:35:47 | 52.80992 | 8.58830 | 83° | 58km/h | 7210m | -4.3m/s | -27.1°C | 77.1% | 407.8hPa | 2.7V | 07:55:43 | 01:58:10 | 00:00:00 | |
| DO2JMG | 2026-09-01 08:35:46 | 52.80990 | 8.58806 | 80° | 60km/h | 7214m | -4.3m/s | -27.1°C | 77.2% | 407.5hPa | 2.6V | 07:54:01 | 01:58:09 | 00:00:00 | |
| AA1-15 | 2026-09-01 08:35:43 | 52.80977 | 8.58735 | 69° | 57km/h | 7227m | -4.5m/s | -27.2°C | 76.9% | 406.8hPa | 2.6V | 07:54:52 | 01:58:06 | 00:00:00 | |
| BIOWL1-15 | 2026-09-01 08:35:42 | 52.80962 | 8.58676 | 68° | 46km/h | 7241m | -4.6m/s | -27.3°C | 76% | 406hPa | 2.7V | 07:54:52 | 01:58:03 | 00:00:00 | |
| DM0DOS-11 | 2026-09-01 08:35:41 | 52.80962 | 8.58676 | 67° | 46km/h | 7241m | -4.6m/s | -27.3°C | 78.8% | 406hPa | 2.7V | 07:54:07 | 01:58:03 | 00:00:00 | |
| DB0DAN | 2026-09-01 08:35:40 | 52.80962 | 8.58676 | 68° | 44km/h | 7241m | -4.6m/s | -27.3°C | 72.7% | 406.04hPa | 2.7V | 00:00:00 | 00:00:00 | 00:00:00 | |
| DL1XH-west | 2026-09-01 08:35:39 | 52.80958 | 8.58659 | 72° | 42km/h | 7245m | -4.4m/s | -27.3°C | 75.7% | 405.8hPa | 2.5V | 07:54:52 | 01:58:02 | 00:00:00 | |
| DO2JMG | 2026-09-01 08:35:35 | 52.80952 | 8.58588 | 87° | 47km/h | 7263m | -4.8m/s | -27.4°C | 75% | 404.8hPa | 2.6V | 07:54:52 | 01:57:58 | 00:00:00 | |
| AA1-15 | 2026-09-01 08:35:32 | 52.80950 | 8.58522 | 82° | 57km/h | 7277m | -4.2m/s | -27.5°C | 75.2% | 404hPa | 2.6V | 07:54:52 | 01:57:55 | 00:00:00 | |
| DL1XH1-15 | 2026-09-01 08:35:32 | 52.80931 | 8.58413 | 65° | 53km/h | 7298m | -3.8m/s | -27.7°C | 77% | 402.8hPa | 2.5V | 07:54:20 | 01:57:50 | 00:00:00 | |
| BIOWL1-15 | 2026-09-01 08:35:31 | 52.80941 | 8.58455 | 71° | 55km/h | 7289m | -4.1m/s | -27.6°C | 75.1% | 403.4hPa | 2.7V | 07:54:52 | 01:57:52 | 00:00:00 | |
| DL1XH-west | 2026-09-01 08:35:28 | 52.80936 | 8.58434 | 69° | 53km/h | 7294m | -4.3m/s | -27.6°C | 74.8% | 403.1hPa | 2.6V | 07:54:52 | 01:57:51 | 00:00:00 | |
| DF8AY | 2026-09-01 08:35:25 | 52.80921 | 8.58372 | 68° | 55km/h | 7306m | -4.5m/s | -27.8°C | 74.8% | 402.4hPa | 2.6V | 07:55:43 | 01:57:48 | 00:00:00 | |
| DB0DAN | 2026-09-01 08:35:25 | 52.80921 | 8.58372 | 68° | 51km/h | 7306m | -4.5m/s | -27.8°C | 70.5% | 402.39hPa | 2.6V | 00:00:00 | 00:00:00 | 00:00:00 | |
| GOEST3-10 | 2026-09-01 08:35:25 | 52.80921 | 8.58372 | 69° | 53km/h | 7306m | -4.5m/s | -27.7°C | 76.5% | 402.3hPa | 2.6V | 00:00:00 | 00:00:00 | 00:00:00 | |
| DN9WHV | 2026-09-01 08:35:24 | 52.80921 | 8.58372 | 69° | 55km/h | 7306m | -4.5m/s | -27.8°C | 70.6% | 402.4hPa | 2.7V | 07:54:00 | 00:00:00 | 00:00:00 | |
| DF5WG-10 | 2026-09-01 08:35:23 | 52.80910 | 8.58330 | 67° | 47km/h | 7315m | -5.0m/s | -27.8°C | 76.6% | 401.8hPa | 2.7V | 00:00:00 | 01:57:46 | 00:00:00 | |
| DL1XH1-15 | 2026-09-01 08:35:22 | 52.80886 | 8.58221 | 83° | 42km/h | 7344m | -4.3m/s | -28°C | 76.3% | 400.2hPa | 2.7V | 07:54:30 | 01:57:40 | 00:00:00 | |
| DL1XH-15 | 2026-09-01 08:35:21 | 52.80885 | 8.58203 | 88° | 44km/h | 7348m | -4.2m/s | -28.1°C | 76.4% | 400hPa | 2.6V | 07:54:31 | 01:57:39 | 00:00:00 | |
| AA1-15 | 2026-09-01 08:35:21 | 52.80900 | 8.58289 | 65° | 49km/h | 7325m | -4.7m/s | -27.9°C | 74.7% | 401.3hPa | 2.5V | 07:54:52 | 01:57:44 | 00:00:00 | |
| BIOWL1-15 | 2026-09-01 08:35:20 | 52.80895 | 8.58271 | 66° | 46km/h | 7330m | -4.8m/s | -27.9°C | 74.5% | 401.1hPa | 2.6V | 07:54:52 | 01:57:43 | 00:00:00 | |
| DL1XH-west | 2026-09-01 08:35:18 | 52.80888 | 8.58238 | 76° | 40km/h | 7339m | -4.6m/s | -28°C | 74.2% | 400.5hPa | 2.7V | 07:54:52 | 01:57:41 | 00:00:00 | |
| DF8AY | 2026-09-01 08:35:14 | 52.80884 | 8.58162 | 86° | 53km/h | 7357m | -4.7m/s | -28.2°C | 74.3% | 399.5hPa | 2.5V | 07:55:43 | 01:57:37 | 00:00:00 | |
| DJ2DS-15 | 2026-09-01 08:35:13 | 52.80882 | 8.58139 | 84° | 53km/h | 7361m | -4.6m/s | -28.1°C | 76.7% | 399.2hPa | 2.6V | 00:00:00 | 01:57:36 | 00:00:00 | |
| DL1XH1-15 | 2026-09-01 08:35:12 | 52.80859 | 8.58008 | 68° | 46km/h | 7388m | -4.5m/s | -28.3°C | 76.2% | 397.8hPa | 2.6V | 07:54:40 | 01:57:30 | 00:00:00 | |
| DF5WG-10 | 2026-09-01 08:35:12 | 52.80880 | 8.58115 | 81° | 49km/h | 7366m | -4.6m/s | -28.1°C | 76.3% | 399.0hPa | 2.7V | 00:00:00 | 01:57:35 | 00:00:00 | |
| DL1XH-15 | 2026-09-01 08:35:11 | 52.80855 | 8.57991 | 71° | 42km/h | 7392m | -4.3m/s | -28.4°C | 76.2% | 397.6hPa | 2.7V | 07:54:41 | 01:57:29 | 00:00:00 | |
| AA1-15 | 2026-09-01 08:35:10 | 52.80874 | 8.58068 | 72° | 57km/h | 7375m | -4.5m/s | -28.2°C | 73.8% | 398.6hPa | 2.6V | 07:54:52 | 01:57:33 | 00:00:00 | |
| DB0DAN | 2026-09-01 08:35:10 | 52.80874 | 8.58068 | 72° | 55km/h | 7375m | -4.5m/s | -28.2°C | 69.9% | 398.58hPa | 2.6V | 00:00:00 | 00:00:00 | 00:00:00 | |
| DL1XH-west | 2026-09-01 08:35:07 | 52.80859 | 8.58008 | 68° | 46km/h | 7388m | -4.5m/s | -28.3°C | 74.4% | 397.8hPa | 2.6V | 07:54:52 | 01:57:30 | 00:00:00 | |
| DO9LL-15 | 2026-09-01 08:35:06 | 52.80855 | 8.57990 | 72° | 49km/h | 7393m | -4.3m/s | -28.3°C | 76.2% | 397.5hPa | 2.7V | 00:00:00 | 01:57:29 | 00:00:00 | |
| DM0DOS-11 | 2026-09-01 08:35:05 | 52.80846 | 8.57877 | 85° | 57km/h | 7420m | -4.6m/s | -28.6°C | 77.5% | 396.1hPa | 2.7V | 07:54:47 | 01:57:23 | 00:00:00 | |
| DO2JMG | 2026-09-01 08:35:04 | 52.80850 | 8.57957 | 81° | 42km/h | 7401m | -4.7m/s | -28.4°C | 74.8% | 397.1hPa | 2.7V | 07:54:52 | 01:57:27 | 00:00:00 | |
| DN9WHV | 2026-09-01 08:35:03 | 52.80848 | 8.57939 | 84° | 44km/h | 7406m | -4.6m/s | -28.5°C | 70.8% | 396.8hPa | 2.5V | 07:54:00 | 00:00:00 | 00:00:00 | |
| DL1XH1-15 | 2026-09-01 08:35:02 | 52.80839 | 8.57804 | 75° | 58km/h | 7433m | -4.8m/s | -28.7°C | 77.9% | 395.3hPa | 2.5V | 07:54:50 | 01:57:20 | 00:00:00 | |
| DF5WG-10 | 2026-09-01 08:35:02 | 52.80847 | 8.57920 | 87° | 55km/h | 7411m | -4.6m/s | -28.5°C | 77.1% | 396.5hPa | 2.5V | 00:00:00 | 01:57:25 | 00:00:00 | |
| DL1XH-15 | 2026-09-01 08:35:01 | 52.80835 | 8.57781 | 71° | 58km/h | 7438m | -4.6m/s | -28.8°C | 78.1% | 395.1hPa | 2.5V | 07:54:51 | 01:57:19 | 00:00:00 | |
| BIOWL1-15 | 2026-09-01 08:34:59 | 52.80839 | 8.57804 | 76° | 58km/h | 7434m | -4.8m/s | -28.7°C | 75.4% | 395.3hPa | 2.5V | 07:54:52 | 01:57:20 | 00:00:00 | |
| AA1-15 | 2026-09-01 08:34:59 | 52.80844 | 8.57853 | 83° | 60km/h | 7425m | -4.5m/s | -28.7°C | 75.3% | 395.8hPa | 2.7V | 07:54:52 | 01:57:22 | 00:00:00 | |
| DL1XH-west | 2026-09-01 08:34:56 | 52.80835 | 8.57781 | 71° | 58km/h | 7438m | -4.6m/s | -28.8°C | 75.6% | 395.1hPa | 2.5V | 07:54:52 | 01:57:19 | 00:00:00 | |
| DM0DOS-11 | 2026-09-01 08:34:55 | 52.80812 | 8.57669 | 82° | 42km/h | 7465m | -4.8m/s | -29°C | 78.8% | 393.6hPa | 2.5V | 07:54:57 | 01:57:13 | 00:00:00 | |
| DB0DAN | 2026-09-01 08:34:55 | 52.80830 | 8.57759 | 69° | 51km/h | 7443m | -4.4m/s | -28.8°C | 71.8% | 394.82hPa | 2.6V | 00:00:00 | 00:00:00 | 00:00:00 | |
| DO2JMG | 2026-09-01 08:34:54 | 52.80825 | 8.57739 | 68° | 51km/h | 7447m | -4.5m/s | -28.8°C | 75.7% | 394.6hPa | 2.7V | 07:55:43 | 01:57:17 | 00:00:00 | |
| GOEST3-10 | 2026-09-01 08:34:54 | 52.80825 | 8.57739 | 68° | 44km/h | 7447m | -4.5m/s | -28.8°C | 78.0% | 394.5hPa | 2.7V | 07:54:00 | 00:00:00 | 00:00:00 | |
| DJ2DS-15 | 2026-09-01 08:34:53 | 52.80820 | 8.57720 | 70° | 47km/h | 7452m | -4.4m/s | -28.8°C | 78.0% | 394.2hPa | 2.7V | 00:00:00 | 01:57:16 | 00:00:00 | |
| DL1XH1-15 | 2026-09-01 08:34:52 | 52.80811 | 8.57613 | 88° | 49km/h | 7479m | -4.8m/s | -29.1°C | 79.5% | 392.8hPa | 2.7V | 07:55:00 | 01:57:10 | 00:00:00 | |
| DF5WG-10 | 2026-09-01 08:34:52 | 52.80817 | 8.57703 | 74° | 49km/h | 7456m | -4.2m/s | -28.9°C | 78.2% | 394.0hPa | 2.6V | 00:00:00 | 01:57:15 | 00:00:00 | |
| DL1XH-15 | 2026-09-01 08:34:51 | 52.80811 | 8.57592 | 88° | 53km/h | 7483m | -4.5m/s | -29.2°C | 79.6% | 392.5hPa | 2.6V | 07:55:01 | 01:57:09 | 00:00:00 | |
| BIOWL1-15 | 2026-09-01 08:34:48 | 52.80811 | 8.57633 | 88° | 46km/h | 7474m | -4.7m/s | -29.1°C | 76.3% | 393.1hPa | 2.7V | 07:55:43 | 01:57:11 | 00:00:00 | |
| DL1XH-west | 2026-09-01 08:34:45 | 52.80810 | 8.57569 | 85° | 57km/h | 7488m | -4.5m/s | -29.2°C | 76.4% | 392.3hPa | 2.5V | 07:55:43 | 01:57:08 | 00:00:00 | |
| DO2JMG | 2026-09-01 08:34:43 | 52.80805 | 8.57522 | 76° | 57km/h | 7497m | -4.5m/s | -29.2°C | 76.1% | 391.8hPa | 2.6V | 07:55:43 | 01:57:06 | 00:00:00 | |
| DL1XH1-15 | 2026-09-01 08:34:42 | 52.80780 | 8.57407 | 74° | 42km/h | 7523m | -4.8m/s | -29.4°C | 75.7% | 390.3hPa | 2.5V | 07:55:10 | 01:57:00 | 00:00:00 | |
| DF5WG-10 | 2026-09-01 08:34:42 | 52.80801 | 8.57500 | 72° | 47km/h | 7501m | -4.5m/s | -29.2°C | 78.4% | 391.6hPa | 2.7V | 00:00:00 | 01:57:05 | 00:00:00 | |
| DL1XH-15 | 2026-09-01 08:34:41 | 52.80778 | 8.57389 | 80° | 42km/h | 7528m | -4.9m/s | -29.4°C | 75.7% | 390hPa | 2.7V | 07:55:11 | 01:56:59 | 00:00:00 | |
| DB0DAN | 2026-09-01 08:34:40 | 52.80792 | 8.57459 | 67° | 47km/h | 7510m | -4.4m/s | -29.3°C | 70.7% | 390.98hPa | 2.6V | 00:00:00 | 00:00:00 | 00:00:00 | |
| AA1-15 | 2026-09-01 08:34:38 | 52.80784 | 8.57424 | 70° | 44km/h | 7519m | -4.7m/s | -29.4°C | 74.3% | 390.6hPa | 2.5V | 07:55:43 | 01:57:01 | 00:00:00 | |
| DL1XH-west | 2026-09-01 08:34:35 | 52.80777 | 8.57371 | 83° | 44km/h | 7533m | -4.6m/s | -29.5°C | 74.2% | 389.8hPa | 2.6V | 07:55:43 | 01:56:58 | 00:00:00 | |
| DO2JMG | 2026-09-01 08:34:33 | 52.80775 | 8.57333 | 88° | 47km/h | 7542m | -4.4m/s | -29.5°C | 74.2% | 389.3hPa | 2.6V | 07:55:43 | 01:56:56 | 00:00:00 | |
| DJ2DS-15 | 2026-09-01 08:34:33 | 52.80775 | 8.57333 | 89° | 53km/h | 7542m | -4.3m/s | -29.5°C | 75.9% | 389.2hPa | 2.6V | 07:55:00 | 01:56:56 | 00:00:00 | |
| DL1XH1-15 | 2026-09-01 08:34:32 | 52.80775 | 8.57205 | 88° | 53km/h | 7570m | -5.1m/s | -29.8°C | 75.8% | 387.8hPa | 2.6V | 07:55:20 | 01:56:50 | 00:00:00 | |
| DF5WG-10 | 2026-09-01 08:34:32 | 52.80775 | 8.57313 | 90° | 53km/h | 7547m | -4.6m/s | -29.5°C | 75.8% | 389.0hPa | 2.5V | 00:00:00 | 01:56:55 | 00:00:00 | |
| DL1XH-15 | 2026-09-01 08:34:31 | 52.80774 | 8.57182 | 86° | 55km/h | 7575m | -5m/s | -29.8°C | 76% | 387.5hPa | 2.5V | 07:55:21 | 01:56:49 | 00:00:00 | |
| AA1-15 | 2026-09-01 08:34:27 | 52.80775 | 8.57205 | 89° | 53km/h | 7570m | -5.1m/s | -29.8°C | 73.8% | 387.8hPa | 2.6V | 07:55:43 | 01:56:50 | 00:00:00 | |
| DN9WHV | 2026-09-01 08:34:26 | 52.80775 | 8.57205 | 90° | 53km/h | 7570m | -5.1m/s | -29.8°C | 69.5% | 387.8hPa | 2.6V | 07:55:00 | 00:00:00 | 00:00:00 | |
| DB0DAN | 2026-09-01 08:34:25 | 52.80773 | 8.57159 | 84° | 55km/h | 7579m | -4.8m/s | -29.9°C | 69.8% | 387.21hPa | 2.6V | 00:00:00 | 00:00:00 | 00:00:00 | |
| DL1XH-west | 2026-09-01 08:34:25 | 52.80773 | 8.57159 | 84° | 57km/h | 7579m | -4.8m/s | -29.9°C | 73.9% | 387.2hPa | 2.6V | 07:55:43 | 01:56:48 | 00:00:00 | |
| DF8AY | 2026-09-01 08:34:24 | 52.80771 | 8.57135 | 81° | 58km/h | 7584m | -4.6m/s | -29.9°C | 73.9% | 387hPa | 2.7V | 07:55:43 | 01:56:47 | 00:00:00 | |
| DO2JMG | 2026-09-01 08:34:22 | 52.80765 | 8.57088 | 76° | 57km/h | 7593m | -4.6m/s | -30°C | 74.2% | 386.4hPa | 2.5V | 07:55:43 | 01:56:45 | 00:00:00 | |
| DL1XH-15 | 2026-09-01 08:34:21 | 52.80739 | 8.56964 | 69° | 49km/h | 7619m | -4.8m/s | -30.2°C | 74.6% | 385hPa | 2.5V | 07:55:31 | 01:56:39 | 00:00:00 | |
| AA1-15 | 2026-09-01 08:34:16 | 52.80739 | 8.56964 | 70° | 49km/h | 7619m | -4.8m/s | -30.2°C | 74% | 385hPa | 2.5V | 07:55:43 | 01:56:39 | 00:00:00 | |
| DL1XH-west | 2026-09-01 08:34:14 | 52.80730 | 8.56924 | 69° | 51km/h | 7629m | -4.9m/s | -30.3°C | 73.9% | 384.5hPa | 2.6V | 07:55:43 | 01:56:37 | 00:00:00 | |
| DO2JMG | 2026-09-01 08:34:12 | 52.80721 | 8.56885 | 71° | 47km/h | 7639m | -4.9m/s | -30.3°C | 73.8% | 384hPa | 2.6V | 07:55:43 | 01:56:35 | 00:00:00 | |
| DF5WG-10 | 2026-09-01 08:34:12 | 52.80721 | 8.56885 | 71° | 49km/h | 7639m | -4.8m/s | -30.3°C | 75.3% | 384.0hPa | 2.6V | 00:00:00 | 01:56:35 | 00:00:00 | |
| DL1XH-15 | 2026-09-01 08:34:11 | 52.80709 | 8.56765 | 86° | 53km/h | 7666m | -4.8m/s | -30.6°C | 78.4% | 382.5hPa | 2.7V | 07:55:41 | 01:56:29 | 00:00:00 | |
| DB0DAN | 2026-09-01 08:34:10 | 52.80714 | 8.56848 | 79° | 44km/h | 7648m | -4.4m/s | -30.4°C | 69.8% | 383.54hPa | 2.5V | 00:00:00 | 00:00:00 | 00:00:00 | |
| BIOWL1-15 | 2026-09-01 08:34:05 | 52.80708 | 8.56743 | 86° | 53km/h | 7671m | -4.8m/s | -30.6°C | 76.1% | 382.4hPa | 2.6V | 07:55:43 | 01:56:28 | 00:00:00 | |
| DF8AY | 2026-09-01 08:34:04 | 52.80707 | 8.56721 | 86° | 51km/h | 7675m | -4.5m/s | -30.7°C | 76.3% | 382hPa | 2.5V | 07:55:43 | 01:56:27 | 00:00:00 | |
| DL1XH-west | 2026-09-01 08:34:03 | 52.80707 | 8.56700 | 87° | 49km/h | 7680m | -4.4m/s | -30.7°C | 76.6% | 381.8hPa | 2.5V | 07:56:34 | 01:56:26 | 00:00:00 | |
| DO2JMG | 2026-09-01 08:34:01 | 52.80705 | 8.56660 | 88° | 49km/h | 7689m | -5.2m/s | -30.8°C | 77.4% | 381.3hPa | 2.6V | 07:56:34 | 01:56:24 | 00:00:00 | |
| DD1CC8 | 2026-09-01 08:33:59 | 52.80704 | 8.56616 | 86° | 55km/h | 7699m | -5.0m/s | -30.9°C | 74.6% | 380.8hPa | 2.5V | 00:00:00 | 00:00:00 | 00:00:00 | |
| DL3AQ-11 | 2026-09-01 08:33:58 | 52.80703 | 8.56593 | 84° | 57km/h | 7704m | -4.7m/s | -30.9°C | 75.4% | 380.7hPa | 2.5V | 00:00:00 | 00:00:00 | 00:00:00 | |
| DO2SHX-10 | 2026-09-01 08:33:57 | 52.80702 | 8.56568 | 86° | 62km/h | 7709m | -4.8m/s | -30.9°C | 82.6% | 380.2hPa | 2.5V | 00:00:00 | 01:56:20 | 00:00:00 | |
| DN9WHV | 2026-09-01 08:33:56 | 52.80702 | 8.56568 | 86° | 60km/h | 7709m | -4.8m/s | -31.0°C | 75.7% | 380.3hPa | 2.5V | 07:56:00 | 00:00:00 | 00:00:00 | |
| DM0DOS-11 | 2026-09-01 08:33:55 | 52.80679 | 8.56393 | 68° | 57km/h | 7742m | -4.4m/s | -31.3°C | 86.5% | 378.5hPa | 2.5V | 07:55:57 | 01:56:13 | 00:00:00 | |
| DB0DAN | 2026-09-01 08:33:55 | 52.80699 | 8.56517 | 82° | 58km/h | 7718m | -4.6m/s | -31.1°C | 76.8% | 379.81hPa | 2.5V | 00:00:00 | 00:00:00 | 00:00:00 | |
| BIOWL1-15 | 2026-09-01 08:33:55 | 52.80693 | 8.56465 | 77° | 62km/h | 7727m | -5m/s | -31.1°C | 81.7% | 379.3hPa | 2.6V | 07:56:34 | 01:56:16 | 00:00:00 | |
| DF8AY | 2026-09-01 08:33:54 | 52.80696 | 8.56491 | 81° | 64km/h | 7722m | -5m/s | -31.1°C | 81.2% | 379.5hPa | 2.5V | 07:56:34 | 01:56:17 | 00:00:00 | |
| GOEST3-10 | 2026-09-01 08:33:54 | 52.80696 | 8.56491 | 81° | 62km/h | 7722m | -5.0m/s | -31.1°C | 84.4% | 379.4hPa | 2.5V | 00:00:00 | 00:00:00 | 00:00:00 | |
| DJ2DS-15 | 2026-09-01 08:33:53 | 52.80693 | 8.56465 | 78° | 57km/h | 7728m | -5.0m/s | -31.1°C | 85.0% | 379.2hPa | 2.6V | 00:00:00 | 01:56:16 | 00:00:00 | |
| DL1XH1-15 | 2026-09-01 08:33:52 | 52.80665 | 8.56333 | 69° | 46km/h | 7755m | -4.7m/s | -31.4°C | 86.7% | 377.9hPa | 2.6V | 07:56:00 | 01:56:10 | 00:00:00 | |
| DL1XH-west | 2026-09-01 08:33:52 | 52.80689 | 8.56440 | 74° | 62km/h | 7732m | -5m/s | -31.2°C | 82.2% | 379hPa | 2.6V | 07:56:34 | 01:56:15 | 00:00:00 | |
| DO2JMG | 2026-09-01 08:33:51 | 52.80685 | 8.56416 | 70° | 60km/h | 7737m | -4.7m/s | -31.2°C | 82.7% | 378.8hPa | 2.5V | 07:56:34 | 01:56:14 | 00:00:00 | |
| DL3AQ-11 | 2026-09-01 08:33:48 | 52.80658 | 8.56279 | 84° | 46km/h | 7768m | -4.6m/s | -31.5°C | 78.7% | 377.1hPa | 2.6V | 00:00:00 | 00:00:00 | 00:00:00 | |
| DN9WHV | 2026-09-01 08:33:47 | 52.80669 | 8.56352 | 70° | 49km/h | 7750m | -4.7m/s | -31.4°C | 79.7% | 378.1hPa | 2.6V | 07:56:00 | 00:00:00 | 00:00:00 | |
| DC6BW-12 | 2026-09-01 08:33:46 | 52.80665 | 8.56333 | 70° | 46km/h | 7755m | -4.7m/s | -31.4°C | 79.4% | 377.9hPa | 2.6V | 07:56:00 | 00:00:00 | 00:00:00 | |
| DM0DOS-11 | 2026-09-01 08:33:45 | 52.80656 | 8.56187 | 84° | 64km/h | 7787m | -4.5m/s | -31.6°C | 85.9% | 376.1hPa | 2.6V | 07:56:07 | 01:56:03 | 00:00:00 | |
| BIOWL1-15 | 2026-09-01 08:33:44 | 52.80658 | 8.56279 | 85° | 47km/h | 7768m | -4.6m/s | -31.5°C | 82.5% | 377.1hPa | 2.5V | 07:56:34 | 01:56:07 | 00:00:00 | |
| AA1-15 | 2026-09-01 08:33:43 | 52.80658 | 8.56258 | 89° | 51km/h | 7773m | -4.6m/s | -31.5°C | 82.5% | 376.8hPa | 2.6V | 07:56:34 | 01:56:06 | 00:00:00 | |
| DL1XH-west | 2026-09-01 08:33:41 | 52.80657 | 8.56212 | 87° | 58km/h | 7782m | -4.6m/s | -31.6°C | 82.5% | 376.4hPa | 2.7V | 07:56:34 | 01:56:04 | 00:00:00 | |
| DO2JMG | 2026-09-01 08:33:40 | 52.80656 | 8.56187 | 85° | 64km/h | 7787m | -4.5m/s | -31.6°C | 82.3% | 376.1hPa | 2.6V | 07:56:34 | 01:56:03 | 00:00:00 | |
| DB0DAN | 2026-09-01 08:33:40 | 52.80656 | 8.56187 | 85° | 60km/h | 7787m | -4.5m/s | -31.6°C | 78.6% | 376.14hPa | 2.6V | 00:00:00 | 00:00:00 | 00:00:00 | |
| BIOWL1-15 | 2026-09-01 08:33:35 | 52.80627 | 8.56009 | 66° | 58km/h | 7819m | -4.8m/s | -31.9°C | 85% | 374.4hPa | 2.5V | 07:56:34 | 01:55:56 | 00:00:00 | |
| DM0DOS-11 | 2026-09-01 08:33:35 | 52.80612 | 8.55947 | 72° | 49km/h | 7832m | -4.5m/s | -32°C | 90.1% | 373.7hPa | 2.5V | 07:56:17 | 01:55:53 | 00:00:00 | |
| AA1-15 | 2026-09-01 08:33:32 | 52.80621 | 8.55987 | 66° | 55km/h | 7823m | -4.7m/s | -32°C | 85.4% | 374.1hPa | 2.6V | 07:56:34 | 01:55:55 | 00:00:00 | |
| DL1XH-west | 2026-09-01 08:33:30 | 52.80612 | 8.55947 | 73° | 49km/h | 7832m | -4.5m/s | -32°C | 85.7% | 373.7hPa | 2.5V | 07:56:34 | 01:55:53 | 00:00:00 | |
| DO2SHX-10 | 2026-09-01 08:33:29 | 52.80608 | 8.55927 | 78° | 51km/h | 7837m | -4.3m/s | -32.0°C | 90.1% | 373.4hPa | 2.5V | 00:00:00 | 01:55:52 | 00:00:00 | |
| DD1CC8 | 2026-09-01 08:33:28 | 52.80607 | 8.55907 | 83° | 49km/h | 7841m | -4.2m/s | -32.1°C | 82.0% | 373.2hPa | 2.5V | 00:00:00 | 00:00:00 | 00:00:00 | |
| DO2SHX-10 | 2026-09-01 08:33:26 | 52.80605 | 8.55863 | 88° | 60km/h | 7850m | -4.7m/s | -32.2°C | 88.0% | 372.7hPa | 2.5V | 07:56:00 | 01:55:49 | 00:00:00 | |
| DM0DOS-11 | 2026-09-01 08:33:25 | 52.80598 | 8.55709 | 82° | 66km/h | 7878m | -4.7m/s | -32.4°C | 84.1% | 371.2hPa | 2.5V | 07:56:27 | 01:55:43 | 00:00:00 | |
| DB0DAN | 2026-09-01 08:33:25 | 52.80604 | 8.55839 | 88° | 55km/h | 7854m | -4.6m/s | -32.2°C | 79.2% | 372.49hPa | 2.5V | 00:00:00 | 00:00:00 | 00:00:00 | |
| DF8AY | 2026-09-01 08:33:22 | 52.80602 | 8.55762 | 86° | 64km/h | 7868m | -5m/s | -32.3°C | 81.1% | 371.7hPa | 2.7V | 07:56:34 | 01:55:45 | 00:00:00 | |
| AA1-15 | 2026-09-01 08:33:21 | 52.80601 | 8.55735 | 83° | 64km/h | 7873m | -5m/s | -32.3°C | 81.2% | 371.5hPa | 2.6V | 07:56:34 | 01:55:44 | 00:00:00 | |
| DL1XH-west | 2026-09-01 08:33:20 | 52.80599 | 8.55709 | 83° | 66km/h | 7878m | -4.7m/s | -32.4°C | 81% | 371.2hPa | 2.5V | 07:56:34 | 01:55:43 | 00:00:00 | |
| DO2JMG | 2026-09-01 08:33:19 | 52.80596 | 8.55681 | 80° | 69km/h | 7882m | -4.7m/s | -32.4°C | 80.8% | 371hPa | 2.5V | 07:56:34 | 01:55:42 | 00:00:00 | |
| GOEST3-10 | 2026-09-01 08:33:19 | 52.80596 | 8.55681 | 80° | 68km/h | 7882m | -4.7m/s | -32.4°C | 83.9% | 371.0hPa | 2.5V | 00:00:00 | 01:55:42 | 00:00:00 | |
| DN9WHV | 2026-09-01 08:33:18 | 52.80596 | 8.55681 | 81° | 69km/h | 7882m | -4.7m/s | -32.4°C | 76.6% | 371.0hPa | 2.5V | 07:56:00 | 00:00:00 | 00:00:00 | |
| DO2SHX-10 | 2026-09-01 08:33:17 | 52.80588 | 8.55626 | 75° | 66km/h | 7892m | -4.5m/s | -32.4°C | 83.0% | 370.5hPa | 2.5V | 00:00:00 | 01:55:40 | 00:00:00 | |
| DN9WHV | 2026-09-01 08:33:16 | 52.80588 | 8.55626 | 76° | 68km/h | 7892m | -4.5m/s | -32.4°C | 75.7% | 370.5hPa | 2.5V | 07:56:00 | 00:00:00 | 00:00:00 | |
| DM0DOS-11 | 2026-09-01 08:33:15 | 52.80553 | 8.55452 | 72° | 57km/h | 7924m | -4.6m/s | -32.7°C | 84.3% | 368.8hPa | 2.5V | 07:56:37 | 01:55:33 | 00:00:00 | |
| GOEST3-10 | 2026-09-01 08:33:14 | 52.80573 | 8.55548 | 71° | 60km/h | 7905m | -4.9m/s | -32.5°C | 83.0% | 369.7hPa | 2.6V | 00:00:00 | 00:00:00 | 00:00:00 | |
| DO2SHX-10 | 2026-09-01 08:33:13 | 52.80567 | 8.55523 | 71° | 60km/h | 7910m | -4.7m/s | -32.5°C | 83.5% | 369.5hPa | 2.6V | 00:00:00 | 01:55:36 | 00:00:00 | |
| DL1XH1-15 | 2026-09-01 08:33:12 | 52.80542 | 8.55387 | 77° | 53km/h | 7938m | -4.8m/s | -32.8°C | 85.2% | 368.1hPa | 2.6V | 07:56:40 | 01:55:30 | 00:00:00 | |
| DF8AY | 2026-09-01 08:33:11 | 52.80557 | 8.55475 | 71° | 58km/h | 7919m | -4.5m/s | -32.7°C | 81% | 369.1hPa | 2.5V | 07:57:25 | 01:55:34 | 00:00:00 | |
| AA1-15 | 2026-09-01 08:33:10 | 52.80553 | 8.55452 | 72° | 57km/h | 7924m | -4.6m/s | -32.7°C | 81.2% | 368.8hPa | 2.5V | 07:57:25 | 01:55:33 | 00:00:00 | |
| DB0DAN | 2026-09-01 08:33:10 | 52.80553 | 8.55452 | 72° | 53km/h | 7924m | -4.6m/s | -32.7°C | 76.9% | 368.81hPa | 2.5V | 00:00:00 | 00:00:00 | 00:00:00 | |
| DL1XH-west | 2026-09-01 08:33:09 | 52.80549 | 8.55430 | 74° | 55km/h | 7928m | -4.7m/s | -32.7°C | 81.6% | 368.5hPa | 2.6V | 07:57:25 | 01:55:32 | 00:00:00 | |
| BIOWL9-15 | 2026-09-01 08:33:08 | 52.80545 | 8.55409 | 76° | 53km/h | 7933m | -4.8m/s | -32.8°C | 77.3% | 368.4hPa | 2.6V | 00:00:00 | 00:00:00 | 00:00:00 | |
| BUE01 | 2026-09-01 08:33:07 | 52.80539 | 8.55366 | 75° | 51km/h | 7942m | -4.7m/s | -32.9°C | 77.9% | 367.8hPa | 2.6V | 00:00:00 | 00:00:00 | 00:00:00 | |
| DB0NH | 2026-09-01 08:33:06 | 52.80539 | 8.55366 | 76° | 66km/h | 7942m | -4.6m/s | -32.8°C | 85.5% | 367.8hPa | 2.6V | 00:00:00 | 01:55:29 | 00:00:00 | |
| DM0DOS-11 | 2026-09-01 08:33:05 | 52.80529 | 8.55227 | 87° | 66km/h | 7971m | -4.5m/s | -33.1°C | 86.4% | 366.3hPa | 2.6V | 07:56:47 | 01:55:23 | 00:00:00 | |
| DB0ND-19 | 2026-09-01 08:33:05 | 52.80534 | 8.55324 | 80° | 51km/h | 7952m | -5.1m/s | 0°C | -1.0% | -1.0hPa | 2.6V | 00:00:00 | 00:00:00 | 00:00:00 | |
| DO2SHX-10 | 2026-09-01 08:33:04 | 52.80534 | 8.55324 | 81° | 55km/h | 7953m | -5.1m/s | -32.9°C | 86.1% | 367.4hPa | 2.6V | 00:00:00 | 01:55:27 | 00:00:00 | |
| SMARD9-15 | 2026-09-01 08:33:03 | 52.80530 | 8.55278 | 86° | 58km/h | 7962m | -4.9m/s | -33.0°C | 79.0% | 366.9hPa | 2.6V | 00:00:00 | 00:00:00 | 00:00:00 | |
| DL1XH1-15 | 2026-09-01 08:33:02 | 52.80523 | 8.55140 | 80° | 73km/h | 7985m | -4.8m/s | -33.2°C | 86.5% | 365.7hPa | 2.6V | 07:56:50 | 01:55:20 | 00:00:00 | |
| DF8AY | 2026-09-01 08:33:01 | 52.80529 | 8.55253 | 87° | 60km/h | 7967m | -5.1m/s | -33.1°C | 83.1% | 366.7hPa | 2.7V | 07:57:25 | 01:55:24 | 00:00:00 | |
| BIOWL1-15 | 2026-09-01 08:33:00 | 52.80529 | 8.55227 | 88° | 66km/h | 7971m | -4.6m/s | -33.1°C | 82.7% | 366.3hPa | 2.6V | 07:57:25 | 01:55:23 | 00:00:00 | |
| DL1XH-west | 2026-09-01 08:32:59 | 52.80528 | 8.55199 | 85° | 69km/h | 7976m | -4.7m/s | -33.1°C | 82.3% | 366.1hPa | 2.5V | 07:57:25 | 01:55:22 | 00:00:00 | |
| DD1CC8 | 2026-09-01 08:32:57 | 52.80523 | 8.55140 | 80° | 73km/h | 7985m | -4.8m/s | -33.2°C | 78.8% | 365.7hPa | 2.5V | 00:00:00 | 00:00:00 | 00:00:00 | |
| DN9WHV | 2026-09-01 08:32:56 | 52.80523 | 8.55140 | 81° | 73km/h | 7985m | -4.8m/s | -33.2°C | 78.9% | 365.7hPa | 2.5V | 07:57:00 | 00:00:00 | 00:00:00 | |
| DM0DOS-11 | 2026-09-01 08:32:55 | 52.80491 | 8.54948 | 78° | 60km/h | 8017m | -4m/s | -33.4°C | 87.2% | 364.1hPa | 2.5V | 07:56:57 | 01:55:13 | 00:00:00 | |
| DB0DAN | 2026-09-01 08:32:55 | 52.80516 | 8.55080 | 75° | 69km/h | 7995m | -4.8m/s | -33.3°C | 79.3% | 365.21hPa | 2.6V | 00:00:00 | 00:00:00 | 00:00:00 | |
| DO2SHX-10 | 2026-09-01 08:32:55 | 52.80516 | 8.55080 | 75° | 68km/h | 7995m | -4.7m/s | -33.2°C | 87.0% | 365.2hPa | 2.5V | 00:00:00 | 01:55:18 | 00:00:00 | |
| GOEST3-10 | 2026-09-01 08:32:54 | 52.80511 | 8.55051 | 73° | 66km/h | 7999m | -4.8m/s | -33.3°C | 87.1% | 364.8hPa | 2.5V | 07:56:00 | 00:00:00 | 00:00:00 | |
| DJ2DS-15 | 2026-09-01 08:32:53 | 52.80505 | 8.55024 | 72° | 68km/h | 8004m | -4.7m/s | -33.3°C | 87.3% | 364.6hPa | 2.5V | 00:00:00 | 01:55:16 | 00:00:00 | |
| DL1XH1-15 | 2026-09-01 08:32:52 | 52.80485 | 8.54868 | 84° | 69km/h | 8029m | -4.6m/s | -33.5°C | 86.1% | 363.3hPa | 2.6V | 07:57:00 | 01:55:10 | 00:00:00 | |
| DF8AY | 2026-09-01 08:32:51 | 52.80491 | 8.54948 | 78° | 60km/h | 8017m | -4m/s | -33.4°C | 82.6% | 364.1hPa | 2.5V | 07:57:25 | 01:55:13 | 00:00:00 | |
| DL1XH-west | 2026-09-01 08:32:49 | 52.80488 | 8.54923 | 83° | 62km/h | 8021m | -4m/s | -33.5°C | 82.6% | 363.9hPa | 2.5V | 07:57:25 | 01:55:12 | 00:00:00 | |
| AA1-15 | 2026-09-01 08:32:48 | 52.80487 | 8.54897 | 84° | 66km/h | 8025m | -4.3m/s | -33.5°C | 82.4% | 363.6hPa | 2.6V | 07:57:25 | 01:55:11 | 00:00:00 | |
| DN9WHV | 2026-09-01 08:32:47 | 52.80487 | 8.54897 | 85° | 66km/h | 8025m | -4.3m/s | -33.5°C | 79.0% | 363.6hPa | 2.6V | 07:57:00 | 00:00:00 | 00:00:00 | |
| DN9WHV | 2026-09-01 08:32:46 | 52.80485 | 8.54868 | 85° | 69km/h | 8029m | -4.6m/s | -33.5°C | 78.4% | 363.3hPa | 2.6V | 07:57:00 | 00:00:00 | 00:00:00 | |
| DM0DOS-11 | 2026-09-01 08:32:45 | 52.80458 | 8.54654 | 71° | 71km/h | 8061m | -4.7m/s | -33.7°C | 82.9% | 361.6hPa | 2.6V | 07:57:07 | 01:55:03 | 00:00:00 | |
| GOEST3-10 | 2026-09-01 08:32:44 | 52.80478 | 8.54776 | 81° | 75km/h | 8043m | -4.6m/s | -33.5°C | 85.5% | 362.6hPa | 2.6V | 00:00:00 | 00:00:00 | 00:00:00 | |
| DC6BW-12 | 2026-09-01 08:32:43 | 52.80478 | 8.54776 | 81° | 78km/h | 8043m | -4.6m/s | -33.6°C | 77.9% | 362.6hPa | 2.6V | 07:57:00 | 00:00:00 | 00:00:00 | |
| DL1XH1-15 | 2026-09-01 08:32:42 | 52.80444 | 8.54577 | 77° | 60km/h | 8074m | -4.8m/s | -33.8°C | 82% | 361hPa | 2.6V | 07:57:10 | 01:55:00 | 00:00:00 | |
| DF5WG-10 | 2026-09-01 08:32:42 | 52.80470 | 8.54713 | 75° | 68km/h | 8052m | -4.6m/s | -33.6°C | 84.4% | 362.1hPa | 2.5V | 00:00:00 | 01:55:05 | 00:00:00 | |
| DL1XH-15 | 2026-09-01 08:32:41 | 52.80441 | 8.54552 | 82° | 62km/h | 8079m | -4.5m/s | -33.8°C | 82.3% | 360.8hPa | 2.6V | 07:57:11 | 01:54:59 | 00:00:00 | |
| DF8AY | 2026-09-01 08:32:40 | 52.80458 | 8.54654 | 71° | 71km/h | 8061m | -4.7m/s | -33.7°C | 79.1% | 361.6hPa | 2.6V | 07:57:25 | 01:55:03 | 00:00:00 | |
| DB0DAN | 2026-09-01 08:32:40 | 52.80458 | 8.54654 | 71° | 68km/h | 8061m | -4.7m/s | -33.7°C | 75.4% | 361.65hPa | 2.6V | 00:00:00 | 00:00:00 | 00:00:00 | |
| BIOWL1-15 | 2026-09-01 08:32:39 | 52.80453 | 8.54627 | 71° | 66km/h | 8066m | -4.5m/s | -33.7°C | 78.7% | 361.4hPa | 2.5V | 07:57:25 | 01:55:02 | 00:00:00 | |
| DL1XH-west | 2026-09-01 08:32:38 | 52.80448 | 8.54602 | 72° | 62km/h | 8070m | -4.5m/s | -33.8°C | 78.5% | 361.3hPa | 2.5V | 07:57:25 | 01:55:01 | 00:00:00 | |
| DF8AY-15 | 2026-09-01 08:32:38 | 52.80448 | 8.54602 | 73° | 68km/h | 8070m | -4.5m/s | -33.7°C | 82.0% | 361.2hPa | 2.6V | 00:00:00 | 01:55:01 | 00:00:00 | |
| BIOWL9-15 | 2026-09-01 08:32:37 | 52.80444 | 8.54577 | 77° | 60km/h | 8074m | -4.8m/s | -33.8°C | 74.5% | 361.0hPa | 2.6V | 00:00:00 | 00:00:00 | 00:00:00 | |
| BUE01 | 2026-09-01 08:32:36 | 52.80439 | 8.54526 | 85° | 64km/h | 8084m | -4.3m/s | -33.9°C | 75.0% | 360.5hPa | 2.6V | 00:00:00 | 00:00:00 | 00:00:00 | |
| DM0DOS-11 | 2026-09-01 08:32:35 | 52.80426 | 8.54372 | 76° | 78km/h | 8106m | -4.4m/s | -34°C | 86.5% | 359.4hPa | 2.6V | 07:57:17 | 01:54:53 | 00:00:00 | |
| DO9LL-15 | 2026-09-01 08:32:35 | 52.80439 | 8.54526 | 86° | 73km/h | 8084m | -4.2m/s | -33.8°C | 82.5% | 360.5hPa | 2.5V | 00:00:00 | 01:54:58 | 00:00:00 | |
| GOEST3-10 | 2026-09-01 08:32:34 | 52.80438 | 8.54498 | 86° | 77km/h | 8088m | -4.5m/s | -33.8°C | 83.3% | 360.3hPa | 2.5V | 00:00:00 | 00:00:00 | 00:00:00 | |
| DJ2DS-15 | 2026-09-01 08:32:33 | 52.80436 | 8.54468 | 84° | 75km/h | 8092m | -4.4m/s | -33.9°C | 84.0% | 360.1hPa | 2.5V | 00:00:00 | 01:54:56 | 00:00:00 | |
| DL1XH1-15 | 2026-09-01 08:32:32 | 52.80410 | 8.54282 | 72° | 69km/h | 8119m | -4.8m/s | -34.1°C | 86.4% | 358.7hPa | 2.5V | 07:57:20 | 01:54:50 | 00:00:00 | |
| DF5WG-10 | 2026-09-01 08:32:32 | 52.80434 | 8.54436 | 82° | 73km/h | 8097m | -4.9m/s | -33.9°C | 84.6% | 359.8hPa | 2.6V | 00:00:00 | 01:54:55 | 00:00:00 | |
| DL1XH-15 | 2026-09-01 08:32:31 | 52.80404 | 8.54255 | 71° | 66km/h | 8124m | -4.4m/s | -34.1°C | 85.7% | 358.5hPa | 2.6V | 07:57:21 | 01:54:49 | 00:00:00 | |
| DF8AY | 2026-09-01 08:32:30 | 52.80426 | 8.54372 | 76° | 78km/h | 8106m | -4.4m/s | -34°C | 82.1% | 359.4hPa | 2.6V | 07:57:25 | 01:54:53 | 00:00:00 | |
| BIOWL1-15 | 2026-09-01 08:32:29 | 52.80421 | 8.54340 | 73° | 77km/h | 8110m | -4.5m/s | -34.1°C | 82.3% | 359.1hPa | 2.5V | 07:57:25 | 01:54:52 | 00:00:00 | |
| AA1-15 | 2026-09-01 08:32:28 | 52.80415 | 8.54310 | 72° | 75km/h | 8114m | -4.6m/s | -34.1°C | 82.4% | 358.9hPa | 2.5V | 07:57:25 | 01:54:51 | 00:00:00 | |
| DN9WHV | 2026-09-01 08:32:27 | 52.80415 | 8.54310 | 72° | 75km/h | 8114m | -4.6m/s | -34.1°C | 79.0% | 358.9hPa | 2.7V | 07:57:00 | 00:00:00 | 00:00:00 | |
| DD1CC8 | 2026-09-01 08:32:26 | 52.80404 | 8.54255 | 71° | 64km/h | 8124m | -4.4m/s | -34.1°C | 77.9% | 358.5hPa | 2.7V | 00:00:00 | 00:00:00 | 00:00:00 | |
| DM0DOS-11 | 2026-09-01 08:32:25 | 52.80390 | 8.54084 | 83° | 78km/h | 8151m | -4.9m/s | -34.4°C | 84.5% | 357.1hPa | 2.7V | 07:57:27 | 01:54:43 | 00:00:00 | |
| DB0DAN | 2026-09-01 08:32:25 | 52.80400 | 8.54229 | 77° | 60km/h | 8128m | -4.9m/s | -34.2°C | 77.6% | 358.26hPa | 2.6V | 00:00:00 | 00:00:00 | 00:00:00 | |
| GOEST3-10 | 2026-09-01 08:32:24 | 52.80397 | 8.54203 | 83° | 71km/h | 8133m | -4.0m/s | -34.2°C | 85.2% | 358.0hPa | 2.5V | 00:00:00 | 00:00:00 | 00:00:00 | |
| DC6BW-12 | 2026-09-01 08:32:23 | 52.80397 | 8.54203 | 83° | 64km/h | 8133m | -4.0m/s | -34.2°C | 77.5% | 358.0hPa | 2.5V | 07:57:00 | 00:00:00 | 00:00:00 | |
| DL1XH1-15 | 2026-09-01 08:32:22 | 52.80379 | 8.53984 | 75° | 80km/h | 8165m | -4.7m/s | -34.5°C | 84.3% | 356.4hPa | 2.5V | 07:57:30 | 01:54:40 | 00:00:00 | |
| DF5WG-10 | 2026-09-01 08:32:22 | 52.80394 | 8.54147 | 86° | 77km/h | 8142m | -5.0m/s | -34.2°C | 85.0% | 357.5hPa | 2.5V | 00:00:00 | 01:54:45 | 00:00:00 | |
| DL1XH-15 | 2026-09-01 08:32:21 | 52.80374 | 8.53952 | 73° | 78km/h | 8169m | -4.5m/s | -34.5°C | 84.1% | 356.2hPa | 2.5V | 07:57:31 | 01:54:39 | 00:00:00 | |
| DF8AY | 2026-09-01 08:32:19 | 52.80388 | 8.54051 | 82° | 80km/h | 8156m | -4.6m/s | -34.4°C | 79.9% | 356.9hPa | 2.6V | 07:58:16 | 01:54:42 | 00:00:00 | |
| BIOWL1-15 | 2026-09-01 08:32:18 | 52.80384 | 8.54017 | 78° | 82km/h | 8160m | -4.5m/s | -34.4°C | 79.9% | 356.6hPa | 2.5V | 07:58:16 | 01:54:41 | 00:00:00 | |
| DL1XH-west | 2026-09-01 08:32:17 | 52.80380 | 8.53984 | 76° | 80km/h | 8165m | -4.7m/s | -34.5°C | 79.9% | 356.4hPa | 2.5V | 07:58:16 | 01:54:40 | 00:00:00 | |
| SMARD9-10 | 2026-09-01 08:32:16 | 52.80379 | 8.53984 | 77° | 80km/h | 8165m | -4.7m/s | -34.5°C | 76.5% | 356.4hPa | 2.6V | 00:00:00 | 00:00:00 | 00:00:00 | |
| DM0DOS-11 | 2026-09-01 08:32:15 | 52.80349 | 8.53784 | 85° | 69km/h | 8197m | -4.6m/s | -34.7°C | 84% | 354.8hPa | 2.6V | 07:57:37 | 01:54:33 | 00:00:00 | |
| GOEST3-10 | 2026-09-01 08:32:14 | 52.80363 | 8.53892 | 73° | 68km/h | 8179m | -4.7m/s | -34.5°C | 83.6% | 355.7hPa | 2.5V | 07:57:00 | 00:00:00 | 00:00:00 | |
| DJ2DS-15 | 2026-09-01 08:32:13 | 52.80358 | 8.53865 | 74° | 75km/h | 8184m | -4.4m/s | -34.5°C | 83.3% | 355.4hPa | 2.5V | 00:00:00 | 01:54:36 | 00:00:00 | |
| DL1XH1-15 | 2026-09-01 08:32:12 | 52.80344 | 8.53690 | 83° | 82km/h | 8210m | -4.5m/s | -34.8°C | 86.5% | 354.2hPa | 2.5V | 07:57:40 | 01:54:30 | 00:00:00 | |
| DF5WG-10 | 2026-09-01 08:32:12 | 52.80353 | 8.53838 | 79° | 77km/h | 8188m | -4.5m/s | -34.6°C | 83.2% | 355.3hPa | 2.5V | 00:00:00 | 01:54:35 | 00:00:00 | |
| DL1XH-15 | 2026-09-01 08:32:11 | 52.80341 | 8.53656 | 80° | 82km/h | 8215m | -4.5m/s | -34.8°C | 87.5% | 353.9hPa | 2.7V | 07:57:41 | 01:54:29 | 00:00:00 | |
| DB0DAN | 2026-09-01 08:32:10 | 52.80349 | 8.53784 | 85° | 66km/h | 8197m | -4.6m/s | -34.7°C | 76.2% | 354.81hPa | 2.6V | 00:00:00 | 00:00:00 | 00:00:00 | |
| BIOWL1-15 | 2026-09-01 08:32:08 | 52.80346 | 8.53723 | 86° | 78km/h | 8206m | -4.7m/s | -34.8°C | 80.2% | 354.4hPa | 2.5V | 07:58:16 | 01:54:31 | 00:00:00 | |
| DL1XH-west | 2026-09-01 08:32:07 | 52.80344 | 8.53690 | 83° | 82km/h | 8210m | -4.5m/s | -34.8°C | 80.8% | 354.2hPa | 2.5V | 07:58:16 | 01:54:30 | 00:00:00 | |
| AA1-15 | 2026-09-01 08:32:06 | 52.80341 | 8.53656 | 80° | 82km/h | 8215m | -4.5m/s | -34.8°C | 81.4% | 353.9hPa | 2.7V | 07:58:16 | 01:54:29 | 00:00:00 | |
| DB0NH | 2026-09-01 08:32:06 | 52.80341 | 8.53656 | 81° | 78km/h | 8215m | -4.4m/s | -34.8°C | 87.5% | 353.9hPa | 2.5V | 07:57:00 | 01:54:29 | 00:00:00 | |
| DO9LL-15 | 2026-09-01 08:32:05 | 52.80338 | 8.53622 | 79° | 78km/h | 8219m | -4.2m/s | -34.8°C | 88.3% | 353.6hPa | 2.5V | 00:00:00 | 01:54:28 | 00:00:00 | |
| GOEST3-10 | 2026-09-01 08:32:04 | 52.80332 | 8.53588 | 76° | 77km/h | 8224m | -4.6m/s | -34.9°C | 89.0% | 353.4hPa | 2.5V | 00:00:00 | 00:00:00 | 00:00:00 | |
| DN9WHV | 2026-09-01 08:32:03 | 52.80332 | 8.53588 | 76° | 84km/h | 8224m | -4.7m/s | -34.9°C | 80.8% | 353.4hPa | 2.5V | 07:58:00 | 00:00:00 | 00:00:00 | |
| DL1XH1-15 | 2026-09-01 08:32:02 | 52.80299 | 8.53381 | 84° | 71km/h | 8254m | -4.6m/s | -35.1°C | 84.5% | 351.9hPa | 2.5V | 07:57:50 | 01:54:20 | 00:00:00 | |
| DF5WG-10 | 2026-09-01 08:32:02 | 52.80320 | 8.53523 | 71° | 73km/h | 8233m | -4.4m/s | -34.9°C | 89.4% | 352.9hPa | 2.5V | 00:00:00 | 01:54:25 | 00:00:00 | |
| DL1XH-15 | 2026-09-01 08:32:01 | 52.80297 | 8.53351 | 85° | 73km/h | 8258m | -4.7m/s | -35.1°C | 82.6% | 351.6hPa | 2.5V | 07:57:51 | 01:54:19 | 00:00:00 | |
| DF8AY | 2026-09-01 08:31:57 | 52.80299 | 8.53381 | 84° | 71km/h | 8254m | -4.6m/s | -35.1°C | 78.9% | 351.9hPa | 2.5V | 07:58:16 | 01:54:20 | 00:00:00 | |
| DL1XH-west | 2026-09-01 08:31:56 | 52.80297 | 8.53351 | 85° | 73km/h | 8258m | -4.7m/s | -35.1°C | 77.5% | 351.7hPa | 2.5V | 07:58:16 | 01:54:19 | 00:00:00 | |
| AA1-15 | 2026-09-01 08:31:55 | 52.80296 | 8.53321 | 88° | 77km/h | 8263m | -4.4m/s | -35.2°C | 76.8% | 351.4hPa | 2.7V | 07:58:16 | 01:54:18 | 00:00:00 | |
| GOEST3-10 | 2026-09-01 08:31:54 | 52.80295 | 8.53288 | 86° | 84km/h | 8267m | -4.5m/s | -35.1°C | 81.0% | 351.2hPa | 2.6V | 00:00:00 | 00:00:00 | 00:00:00 | |
| DL1XH1-15 | 2026-09-01 08:31:52 | 52.80270 | 8.53044 | 71° | 84km/h | 8298m | -4.8m/s | -35.2°C | 79.4% | 349.5hPa | 2.5V | 07:58:00 | 01:54:10 | 00:00:00 | |
| DJ2DS-15 | 2026-09-01 08:31:52 | 52.80292 | 8.53220 | 84° | 80km/h | 8276m | -4.4m/s | -35.2°C | 81.9% | 350.7hPa | 2.5V | 07:57:00 | 01:54:15 | 00:00:00 | |
| DL1XH-15 | 2026-09-01 08:31:51 | 52.80263 | 8.53011 | 71° | 78km/h | 8302m | -4.9m/s | -35.2°C | 79.6% | 349.3hPa | 2.5V | 07:58:01 | 01:54:09 | 00:00:00 | |
| BIOWL1-15 | 2026-09-01 08:31:46 | 52.80263 | 8.53011 | 71° | 80km/h | 8302m | -4.9m/s | -35.2°C | 75.1% | 349.3hPa | 2.5V | 07:58:16 | 01:54:09 | 00:00:00 | |
| DO2SHX-10 | 2026-09-01 08:31:46 | 52.80263 | 8.53011 | 72° | 77km/h | 8302m | -4.9m/s | -35.1°C | 79.6% | 349.2hPa | 2.5V | 00:00:00 | 01:54:09 | 00:00:00 | |
| DM0DOS-11 | 2026-09-01 08:31:45 | 52.80237 | 8.52839 | 84° | 71km/h | 8330m | -4.4m/s | -35.2°C | 84.4% | 347.9hPa | 2.5V | 07:58:07 | 01:54:03 | 00:00:00 | |
| DL1XH-west | 2026-09-01 08:31:45 | 52.80257 | 8.52981 | 71° | 75km/h | 8307m | -4.9m/s | -35.2°C | 75.4% | 349.1hPa | 2.5V | 07:58:16 | 01:54:08 | 00:00:00 | |
| AA1-15 | 2026-09-01 08:31:44 | 52.80251 | 8.52952 | 73° | 71km/h | 8311m | -4.9m/s | -35.2°C | 75.6% | 348.9hPa | 2.6V | 07:58:16 | 01:54:07 | 00:00:00 | |
| GOEST3-10 | 2026-09-01 08:31:44 | 52.80251 | 8.52951 | 73° | 69km/h | 8312m | -4.8m/s | -35.1°C | 80.4% | 348.8hPa | 2.6V | 00:00:00 | 00:00:00 | 00:00:00 | |
| DO2SHX-10 | 2026-09-01 08:31:43 | 52.80246 | 8.52923 | 76° | 71km/h | 8316m | -4.5m/s | -35.1°C | 81.0% | 348.7hPa | 2.6V | 00:00:00 | 01:54:06 | 00:00:00 | |
| DL1XH1-15 | 2026-09-01 08:31:42 | 52.80232 | 8.52743 | 84° | 84km/h | 8343m | -4.2m/s | -35.2°C | 84.6% | 347.4hPa | 2.6V | 07:58:10 | 01:54:00 | 00:00:00 | |
| DF5WG-10 | 2026-09-01 08:31:42 | 52.80242 | 8.52896 | 79° | 78km/h | 8321m | -4.8m/s | -35.1°C | 82.4% | 348.4hPa | 2.6V | 07:58:00 | 01:54:05 | 00:00:00 | |
| DL1XH-15 | 2026-09-01 08:31:41 | 52.80229 | 8.52708 | 80° | 86km/h | 8347m | -4.6m/s | -35.2°C | 83.5% | 347.1hPa | 2.5V | 07:58:11 | 01:53:59 | 00:00:00 | |
| DF8AY | 2026-09-01 08:31:36 | 52.80229 | 8.52708 | 80° | 86km/h | 8347m | -4.6m/s | -35.2°C | 76.4% | 347.1hPa | 2.5V | 07:58:16 | 01:53:59 | 00:00:00 | |
| DO2JMG | 2026-09-01 08:31:35 | 52.80225 | 8.52673 | 78° | 86km/h | 8351m | -4.4m/s | -35.2°C | 75.3% | 346.9hPa | 2.5V | 07:58:16 | 01:53:58 | 00:00:00 | |
| DL1XH-west | 2026-09-01 08:31:34 | 52.80220 | 8.52638 | 74° | 84km/h | 8355m | -4.7m/s | -35.2°C | 73.2% | 346.6hPa | 2.5V | 07:58:16 | 01:53:57 | 00:00:00 | |
| AA1-15 | 2026-09-01 08:31:33 | 52.80214 | 8.52605 | 73° | 80km/h | 8360m | -4.6m/s | -35.2°C | 70.9% | 346.4hPa | 2.6V | 07:58:16 | 01:53:56 | 00:00:00 | |
| DO2SHX-10 | 2026-09-01 08:31:33 | 52.80214 | 8.52605 | 74° | 75km/h | 8360m | -4.6m/s | -35.2°C | 75.5% | 346.4hPa | 2.6V | 07:58:00 | 01:53:56 | 00:00:00 | |
| DJ2DS-15 | 2026-09-01 08:31:32 | 52.80208 | 8.52574 | 71° | 73km/h | 8365m | -4.7m/s | -35.2°C | 72.3% | 346.1hPa | 2.6V | 00:00:00 | 01:53:55 | 00:00:00 | |
| DL1XH-15 | 2026-09-01 08:31:31 | 52.80187 | 8.52407 | 87° | 73km/h | 8391m | -4.8m/s | -35.1°C | 41.9% | 344.9hPa | 2.6V | 07:58:21 | 01:53:49 | 00:00:00 | |
| DF8AY | 2026-09-01 08:31:25 | 52.80186 | 8.52376 | 87° | 75km/h | 8396m | -4.8m/s | -35.1°C | 37.9% | 344.6hPa | 2.5V | 07:59:07 | 01:53:48 | 00:00:00 | |
| DL1XH-west | 2026-09-01 08:31:23 | 52.80184 | 8.52310 | 85° | 82km/h | 8405m | -5.2m/s | -35°C | 32.2% | 344.2hPa | 2.5V | 07:59:07 | 01:53:46 | 00:00:00 | |
| AA1-15 | 2026-09-01 08:31:22 | 52.80182 | 8.52276 | 83° | 84km/h | 8410m | -5.2m/s | -35°C | 29.2% | 344hPa | 2.7V | 07:59:07 | 01:53:45 | 00:00:00 | |
| DL1XH-15 | 2026-09-01 08:31:21 | 52.80153 | 8.52086 | 72° | 68km/h | 8437m | -4.6m/s | -35.1°C | 23.5% | 342.6hPa | 2.6V | 07:58:31 | 01:53:39 | 00:00:00 | |
| DF5WG-10 | 2026-09-01 08:31:21 | 52.80178 | 8.52241 | 80° | 71km/h | 8415m | -4.8m/s | -34.9°C | 25.8% | 343.6hPa | 2.6V | 00:00:00 | 01:53:44 | 00:00:00 | |
| DO2SHX-10 | 2026-09-01 08:31:20 | 52.80174 | 8.52207 | 77° | 80km/h | 8419m | -4.5m/s | -34.9°C | 24.7% | 343.5hPa | 2.6V | 00:00:00 | 01:53:43 | 00:00:00 | |
| DD8BA-10 | 2026-09-01 08:31:19 | 52.80169 | 8.52174 | 75° | 69km/h | 8424m | -4.6m/s | -34.9°C | 24.3% | 343.2hPa | 2.5V | 00:00:00 | 00:00:00 | 00:00:00 | |
| DL3AQ-11 | 2026-09-01 08:31:18 | 52.80164 | 8.52143 | 72° | 75km/h | 8428m | -4.7m/s | -35.0°C | 20.8% | 343.1hPa | 2.6V | 00:00:00 | 00:00:00 | 00:00:00 | |
| DO2SHX-10 | 2026-09-01 08:31:17 | 52.80158 | 8.52114 | 73° | 68km/h | 8433m | -4.7m/s | -35.0°C | 23.8% | 342.7hPa | 2.6V | 00:00:00 | 01:53:40 | 00:00:00 | |
| DN9WHV | 2026-09-01 08:31:16 | 52.80158 | 8.52114 | 73° | 71km/h | 8433m | -4.8m/s | -35.1°C | 20.6% | 342.8hPa | 2.6V | 07:59:00 | 00:00:00 | 00:00:00 | |
| DM0DOS-11 | 2026-09-01 08:31:15 | 52.80138 | 8.51924 | 87° | 73km/h | 8467m | -5.2m/s | -35.3°C | 21% | 341.2hPa | 2.6V | 07:58:37 | 01:53:33 | 00:00:00 | |
| DF8AY | 2026-09-01 08:31:14 | 52.80144 | 8.52033 | 78° | 64km/h | 8447m | -5.4m/s | -35.2°C | 24.6% | 342.1hPa | 2.5V | 07:59:07 | 01:53:37 | 00:00:00 | |
| DL1XH-west | 2026-09-01 08:31:13 | 52.80141 | 8.52007 | 81° | 64km/h | 8452m | -5.1m/s | -35.2°C | 24% | 341.9hPa | 2.5V | 07:59:07 | 01:53:36 | 00:00:00 | |
| DL1XH1-15 | 2026-09-01 08:31:12 | 52.80133 | 8.51825 | 82° | 84km/h | 8481m | -4.5m/s | -35.4°C | 19.8% | 340.6hPa | 2.5V | 07:58:40 | 01:53:30 | 00:00:00 | |
| AA1-15 | 2026-09-01 08:31:11 | 52.80138 | 8.51953 | 87° | 68km/h | 8462m | -5.3m/s | -35.3°C | 23% | 341.4hPa | 2.7V | 07:59:07 | 01:53:34 | 00:00:00 | |
| DB0DAN | 2026-09-01 08:31:10 | 52.80138 | 8.51924 | 88° | 69km/h | 8467m | -5.2m/s | -35.3°C | 18.1% | 341.21hPa | 2.6V | 00:00:00 | 00:00:00 | 00:00:00 | |
| DL4BBY-15 | 2026-09-01 08:31:10 | 52.80138 | 8.51923 | 88° | 73km/h | 8467m | -5.1m/s | -34.1°C | 0% | 0hPa | 2.5V | 00:00:00 | 00:00:00 | 00:00:00 | |
| DF4FW | 2026-09-01 08:31:09 | 52.80137 | 8.51892 | 88° | 77km/h | 8472m | -5.0m/s | -35.4°C | 17.7% | 341.0hPa | 2.5V | 07:59:00 | 00:00:00 | 00:00:00 | |
| DN9WHV | 2026-09-01 08:31:08 | 52.80137 | 8.51892 | 88° | 77km/h | 8472m | -5.0m/s | -35.4°C | 17.7% | 341.0hPa | 2.5V | 07:59:00 | 00:00:00 | 00:00:00 | |
| DL3AQ-11 | 2026-09-01 08:31:07 | 52.80133 | 8.51825 | 82° | 82km/h | 8481m | -4.5m/s | -35.4°C | 17.0% | 340.6hPa | 2.5V | 00:00:00 | 00:00:00 | 00:00:00 | |
| SMARD9-10 | 2026-09-01 08:31:06 | 52.80133 | 8.51825 | 84° | 84km/h | 8481m | -4.5m/s | -35.4°C | 17.0% | 340.6hPa | 2.5V | 07:59:00 | 00:00:00 | 00:00:00 | |
| DM0DOS-11 | 2026-09-01 08:31:05 | 52.80104 | 8.51614 | 81° | 64km/h | 8513m | -4.4m/s | -35.7°C | 18.3% | 339hPa | 2.5V | 07:58:47 | 01:53:23 | 00:00:00 | |
| DF8AY | 2026-09-01 08:31:04 | 52.80121 | 8.51726 | 75° | 77km/h | 8495m | -4.7m/s | -35.6°C | 20.2% | 339.9hPa | 2.6V | 07:59:07 | 01:53:27 | 00:00:00 | |
| DL1XH-west | 2026-09-01 08:31:03 | 52.80116 | 8.51696 | 74° | 73km/h | 8500m | -4.5m/s | -35.6°C | 20.2% | 339.7hPa | 2.6V | 07:59:07 | 01:53:26 | 00:00:00 | |
| DL1XH1-15 | 2026-09-01 08:31:02 | 52.80101 | 8.51532 | 88° | 69km/h | 8526m | -5.1m/s | -35.8°C | 19.4% | 338.2hPa | 2.6V | 07:58:50 | 01:53:20 | 00:00:00 | |
| DL1XH-15 | 2026-09-01 08:31:01 | 52.80100 | 8.51502 | 86° | 75km/h | 8531m | -5.2m/s | -35.8°C | 20.1% | 338.1hPa | 2.5V | 07:58:51 | 01:53:19 | 00:00:00 | |
| AA1-15 | 2026-09-01 08:31:01 | 52.80107 | 8.51640 | 77° | 66km/h | 8509m | -4.6m/s | -35.7°C | 19.9% | 339.2hPa | 2.5V | 07:59:07 | 01:53:24 | 00:00:00 | |
| DF5WG-10 | 2026-09-01 08:31:00 | 52.80104 | 8.51614 | 82° | 73km/h | 8513m | -4.4m/s | -35.7°C | 18.3% | 338.9hPa | 2.5V | 00:00:00 | 01:53:23 | 00:00:00 | |
| DD8BA-10 | 2026-09-01 08:30:59 | 52.80102 | 8.51588 | 86° | 73km/h | 8518m | -4.3m/s | -35.7°C | 18.4% | 338.7hPa | 2.5V | 00:00:00 | 00:00:00 | 00:00:00 | |
| DN9WHV | 2026-09-01 08:30:58 | 52.80102 | 8.51588 | 86° | 64km/h | 8518m | -4.4m/s | -35.7°C | 15.7% | 338.7hPa | 2.5V | 07:59:00 | 00:00:00 | 00:00:00 | |
| DN9WHV | 2026-09-01 08:30:57 | 52.80101 | 8.51560 | 90° | 66km/h | 8522m | -4.6m/s | -35.8°C | 16.1% | 338.5hPa | 2.5V | 07:59:00 | 00:00:00 | 00:00:00 | |
| DB0UT-7 | 2026-09-01 08:30:56 | 52.80100 | 8.51502 | 87° | 71km/h | 8531m | -5.2m/s | -35.8°C | 20.1% | 338.0hPa | 2.5V | 07:58:00 | 01:53:19 | 00:00:00 | |
| DM0DOS-11 | 2026-09-01 08:30:55 | 52.80079 | 8.51314 | 73° | 71km/h | 8561m | -5m/s | -36°C | 18.6% | 336.8hPa | 2.5V | 07:58:57 | 01:53:13 | 00:00:00 | |
| DB0DAN | 2026-09-01 08:30:55 | 52.80099 | 8.51470 | 85° | 75km/h | 8537m | -5.2m/s | -35.9°C | 17% | 337.85hPa | 2.5V | 00:00:00 | 00:00:00 | 00:00:00 | |
| BIOWL1-15 | 2026-09-01 08:30:53 | 52.80093 | 8.51405 | 78° | 78km/h | 8546m | -4.8m/s | -35.9°C | 20.8% | 337.4hPa | 2.7V | 07:59:07 | 01:53:16 | 00:00:00 | |
| DL1XH-west | 2026-09-01 08:30:52 | 52.80089 | 8.51373 | 76° | 77km/h | 8551m | -4.8m/s | -36°C | 20.3% | 337.2hPa | 2.6V | 07:59:07 | 01:53:15 | 00:00:00 | |
| DF8AY-15 | 2026-09-01 08:30:52 | 52.80089 | 8.51373 | 77° | 71km/h | 8551m | -4.7m/s | -35.9°C | 18.8% | 337.1hPa | 2.6V | 00:00:00 | 01:53:15 | 00:00:00 | |
| DL1XH-15 | 2026-09-01 08:30:51 | 52.80065 | 8.51209 | 85° | 62km/h | 8580m | -4.3m/s | -36.2°C | 22.6% | 335.8hPa | 2.7V | 07:59:01 | 01:53:09 | 00:00:00 | |
| AA1-15 | 2026-09-01 08:30:50 | 52.80079 | 8.51314 | 74° | 71km/h | 8561m | -5m/s | -36°C | 20.1% | 336.8hPa | 2.5V | 07:59:07 | 01:53:13 | 00:00:00 | |
| HTAHTA | 2026-09-01 08:30:49 | 52.80074 | 8.51286 | 73° | 66km/h | 8565m | -5.0m/s | -36.1°C | 16.7% | 336.4hPa | 2.6V | 00:00:00 | 00:00:00 | 00:00:00 | |
| DJ2DS-15 | 2026-09-01 08:30:48 | 52.80070 | 8.51260 | 75° | 62km/h | 8570m | -5.1m/s | -36.1°C | 18.0% | 336.3hPa | 2.6V | 00:00:00 | 00:00:00 | 00:00:00 | |
| DL8OAI-8 | 2026-09-01 08:30:47 | 52.80069 | 8.51260 | 77° | 62km/h | 8571m | -5.1m/s | -36.1°C | 18.0% | 336.3hPa | 2.6V | 07:59:00 | 00:00:00 | 00:00:00 | |
| DN9WHV | 2026-09-01 08:30:46 | 52.80066 | 8.51235 | 82° | 60km/h | 8576m | -4.9m/s | -36.2°C | 19.1% | 336.0hPa | 2.6V | 07:59:00 | 00:00:00 | 00:00:00 | |
| DM0DOS-11 | 2026-09-01 08:30:45 | 52.80059 | 8.51027 | 82° | 82km/h | 8608m | -5.1m/s | -36.4°C | 23.5% | 334.4hPa | 2.6V | 07:59:07 | 01:53:03 | 00:00:00 | |
| DO2JMG | 2026-09-01 08:30:43 | 52.80063 | 8.51124 | 88° | 73km/h | 8594m | -5m/s | -36.3°C | 24.3% | 335.1hPa | 2.5V | 07:59:07 | 01:53:06 | 00:00:00 | |
| DL1XH-west | 2026-09-01 08:30:42 | 52.80062 | 8.51093 | 87° | 77km/h | 8599m | -4.8m/s | -36.4°C | 24.2% | 334.9hPa | 2.5V | 07:59:07 | 01:53:05 | 00:00:00 | |
| DL1XH-15 | 2026-09-01 08:30:41 | 52.80043 | 8.50898 | 75° | 75km/h | 8628m | -4.6m/s | -36.6°C | 24.5% | 333.5hPa | 2.5V | 07:59:11 | 01:52:59 | 00:00:00 | |
| DB0DAN | 2026-09-01 08:30:40 | 52.80059 | 8.51027 | 82° | 78km/h | 8608m | -5.1m/s | -36.4°C | 20.2% | 334.37hPa | 2.6V | 00:00:00 | 00:00:00 | 00:00:00 | |
| AA1-15 | 2026-09-01 08:30:39 | 52.80056 | 8.50994 | 80° | 82km/h | 8613m | -5m/s | -36.5°C | 25.6% | 334.2hPa | 2.6V | 07:59:58 | 01:53:02 | 00:00:00 | |
| BIOWL1-15 | 2026-09-01 08:30:36 | 52.80023 | 8.50787 | 74° | 64km/h | 8647m | -5.1m/s | -36.8°C | 23.7% | 332.5hPa | 2.5V | 07:59:58 | 01:52:55 | 00:00:00 | |
| DO2JMG | 2026-09-01 08:30:33 | 52.80027 | 8.50813 | 74° | 66km/h | 8643m | -5.2m/s | -36.7°C | 24.3% | 332.8hPa | 2.6V | 07:59:58 | 01:52:56 | 00:00:00 | |
| DM0DOS-11 | 2026-09-01 08:30:33 | 52.80014 | 8.50737 | 75° | 60km/h | 8658m | -5.3m/s | -36.8°C | 22.1% | 332.1hPa | 2.5V | 07:59:17 | 01:52:53 | 00:00:00 | |
| DL1XH-west | 2026-09-01 08:30:31 | 52.80018 | 8.50762 | 73° | 62km/h | 8653m | -5.1m/s | -36.8°C | 23.5% | 332.3hPa | 2.5V | 07:59:58 | 01:52:54 | 00:00:00 | |
| AA1-15 | 2026-09-01 08:30:28 | 52.80007 | 8.50687 | 80° | 62km/h | 8668m | -5.4m/s | -36.9°C | 24.9% | 331.6hPa | 2.6V | 07:59:58 | 01:52:51 | 00:00:00 | |
| DN9WHV | 2026-09-01 08:30:27 | 52.80007 | 8.50687 | 81° | 62km/h | 8668m | -5.4m/s | -36.9°C | 20.2% | 331.6hPa | 2.5V | 07:59:00 | 00:00:00 | 00:00:00 | |
| DB0UT-7 | 2026-09-01 08:30:26 | 52.80003 | 8.50636 | 87° | 73km/h | 8678m | -4.8m/s | -37.0°C | 24.7% | 331.1hPa | 2.5V | 00:00:00 | 00:00:00 | 00:00:00 | |
| DL8OAI-8 | 2026-09-01 08:30:25 | 52.80003 | 8.50636 | 87° | 64km/h | 8678m | -4.8m/s | -37.0°C | 21.3% | 331.1hPa | 2.6V | 07:59:00 | 00:00:00 | 00:00:00 | |
| GOEST3-10 | 2026-09-01 08:30:24 | 52.80001 | 8.50578 | 88° | 78km/h | 8688m | -4.9m/s | -37.1°C | 25.7% | 330.6hPa | 2.6V | 00:00:00 | 00:00:00 | 00:00:00 | |
| DM0DOS-11 | 2026-09-01 08:30:23 | 52.79992 | 8.50446 | 78° | 82km/h | 8708m | -4.9m/s | -37.2°C | 24.3% | 329.7hPa | 2.6V | 07:59:27 | 01:52:43 | 00:00:00 | |
| DO2JMG | 2026-09-01 08:30:22 | 52.79999 | 8.50514 | 84° | 80km/h | 8698m | -5.2m/s | -37.2°C | 26.7% | 330.2hPa | 2.5V | 07:59:58 | 01:52:45 | 00:00:00 | |
| DL1XH1-15 | 2026-09-01 08:30:22 | 52.79976 | 8.50349 | 70° | 75km/h | 8723m | -4.9m/s | -37.4°C | 23.9% | 328.9hPa | 2.5V | 07:59:30 | 01:52:40 | 00:00:00 | |
| DL1XH-west | 2026-09-01 08:30:21 | 52.79996 | 8.50480 | 81° | 82km/h | 8703m | -5m/s | -37.2°C | 26.1% | 329.9hPa | 2.5V | 07:59:58 | 01:52:44 | 00:00:00 | |
| AA1-15 | 2026-09-01 08:30:17 | 52.79976 | 8.50349 | 71° | 75km/h | 8723m | -4.9m/s | -37.4°C | 25.2% | 328.9hPa | 2.5V | 07:59:58 | 01:52:40 | 00:00:00 | |
| DF5WG-10 | 2026-09-01 08:30:17 | 52.79976 | 8.50349 | 71° | 69km/h | 8723m | -4.9m/s | -37.3°C | 23.9% | 328.9hPa | 2.5V | 07:59:00 | 01:52:40 | 00:00:00 | |
| DN9WHV | 2026-09-01 08:30:15 | 52.79970 | 8.50320 | 72° | 71km/h | 8728m | -4.9m/s | -37.4°C | 20.5% | 328.7hPa | 2.5V | 07:59:00 | 00:00:00 | 00:00:00 | |
| GOEST3-10 | 2026-09-01 08:30:14 | 52.79959 | 8.50266 | 73° | 64km/h | 8738m | -4.8m/s | -37.4°C | 23.9% | 328.3hPa | 2.5V | 07:59:00 | 00:00:00 | 00:00:00 | |
| DL1XH1-15 | 2026-09-01 08:30:12 | 52.79943 | 8.50070 | 85° | 80km/h | 8772m | -4.8m/s | -37.6°C | 23.2% | 326.6hPa | 2.5V | 07:59:40 | 01:52:30 | 00:00:00 | |
| DM0DOS-11 | 2026-09-01 08:30:12 | 52.79947 | 8.50161 | 87° | 66km/h | 8757m | -4.6m/s | -37.5°C | 23.2% | 327.3hPa | 2.7V | 07:59:37 | 01:52:33 | 00:00:00 | |
| DO2JMG | 2026-09-01 08:30:11 | 52.79948 | 8.50188 | 83° | 64km/h | 8752m | -4.7m/s | -37.5°C | 24.8% | 327.6hPa | 2.5V | 07:59:58 | 01:52:34 | 00:00:00 | |
| DL1XH-15 | 2026-09-01 08:30:11 | 52.79941 | 8.50036 | 82° | 82km/h | 8776m | -4.6m/s | -37.6°C | 23.1% | 326.4hPa | 2.5V | 07:59:41 | 01:52:29 | 00:00:00 | |
| DL1XH-west | 2026-09-01 08:30:10 | 52.79947 | 8.50161 | 87° | 66km/h | 8757m | -4.6m/s | -37.5°C | 24.6% | 327.3hPa | 2.7V | 07:59:58 | 01:52:33 | 00:00:00 | |
| DB0DAN | 2026-09-01 08:30:10 | 52.79947 | 8.50161 | 87° | 62km/h | 8757m | -4.6m/s | -37.5°C | 19.8% | 327.33hPa | 2.7V | 00:00:00 | 00:00:00 | 00:00:00 | |
| AA1-15 | 2026-09-01 08:30:06 | 52.79941 | 8.50036 | 83° | 82km/h | 8776m | -4.6m/s | -37.6°C | 24.5% | 326.4hPa | 2.5V | 07:59:58 | 01:52:29 | 00:00:00 | |
| DO9LL-15 | 2026-09-01 08:30:05 | 52.79938 | 8.50002 | 80° | 73km/h | 8781m | -5.0m/s | -37.6°C | 23.1% | 326.1hPa | 2.7V | 00:00:00 | 01:52:28 | 00:00:00 | |
| DN9WHV | 2026-09-01 08:30:04 | 52.79934 | 8.49968 | 76° | 84km/h | 8786m | -5.1m/s | -37.7°C | 20.0% | 325.9hPa | 2.7V | 07:59:00 | 00:00:00 | 00:00:00 | |
| DF4FW | 2026-09-01 08:30:03 | 52.79934 | 8.49968 | 76° | 84km/h | 8786m | -5.1m/s | -37.7°C | 20.0% | 325.9hPa | 2.7V | 00:00:00 | 00:00:00 | 00:00:00 | |
| DL1XH1-15 | 2026-09-01 08:30:02 | 52.79898 | 8.49763 | 82° | 66km/h | 8822m | -4.8m/s | -38°C | 24.6% | 324.3hPa | 2.7V | 07:59:50 | 01:52:20 | 00:00:00 | |
| DL1XH-15 | 2026-09-01 08:30:01 | 52.79896 | 8.49735 | 84° | 69km/h | 8826m | -4.9m/s | -38°C | 24.9% | 324.1hPa | 2.6V | 07:59:51 | 01:52:19 | 00:00:00 | |
| DO2JMG | 2026-09-01 08:30:00 | 52.79910 | 8.49845 | 72° | 69km/h | 8806m | -5.1m/s | -37.9°C | 25.7% | 325hPa | 2.5V | 07:59:58 | 01:52:23 | 00:00:00 | |
| DL1XH-west | 2026-09-01 08:29:59 | 52.79905 | 8.49818 | 74° | 68km/h | 8811m | -5.2m/s | -37.9°C | 26.1% | 324.8hPa | 2.5V | 07:59:58 | 01:52:22 | 00:00:00 | |
| AA1-15 | 2026-09-01 08:29:55 | 52.79894 | 8.49706 | 85° | 73km/h | 8832m | -5.3m/s | -38.1°C | 26.6% | 323.8hPa | 2.5V | 07:59:58 | 01:52:18 | 00:00:00 | |
| DB0DAN | 2026-09-01 08:29:55 | 52.79894 | 8.49706 | 85° | 69km/h | 8832m | -5.3m/s | -38.1°C | 21.4% | 323.82hPa | 2.5V | 00:00:00 | 00:00:00 | 00:00:00 | |
| GOEST3-10 | 2026-09-01 08:29:54 | 52.79892 | 8.49675 | 84° | 77km/h | 8837m | -4.8m/s | -38.1°C | 25.5% | 323.5hPa | 2.5V | 00:00:00 | 00:00:00 | 00:00:00 | |
| DN9WHV | 2026-09-01 08:29:53 | 52.79893 | 8.49675 | 85° | 77km/h | 8837m | -4.8m/s | -38.1°C | 21.8% | 323.6hPa | 2.5V | 07:59:00 | 00:00:00 | 00:00:00 | |
| DM0DOS-11 | 2026-09-01 08:29:52 | 52.79878 | 8.49547 | 75° | 73km/h | 8856m | -4.8m/s | -38.3°C | 25.9% | 322.7hPa | 2.5V | 07:59:57 | 01:52:13 | 00:00:00 | |
| DL1XH1-15 | 2026-09-01 08:29:52 | 52.79866 | 8.49463 | 80° | 66km/h | 8871m | -5m/s | -38.5°C | 25.8% | 322hPa | 2.7V | 08:00:00 | 01:52:10 | 00:00:00 | |
| DL1XH-west | 2026-09-01 08:29:49 | 52.79873 | 8.49518 | 76° | 69km/h | 8861m | -4.9m/s | -38.4°C | 27.4% | 322.4hPa | 2.5V | 07:59:58 | 01:52:12 | 00:00:00 | |
| AA1-15 | 2026-09-01 08:29:44 | 52.79861 | 8.49376 | 85° | 75km/h | 8886m | -5.3m/s | -38.6°C | 27.1% | 321.3hPa | 2.5V | 08:00:49 | 01:52:07 | 00:00:00 | |
| GOEST3-10 | 2026-09-01 08:29:44 | 52.79861 | 8.49376 | 85° | 77km/h | 8886m | -5.2m/s | -38.6°C | 25.9% | 321.2hPa | 2.5V | 00:00:00 | 00:00:00 | 00:00:00 | |
| DD1CC2-15 | 2026-09-01 08:29:43 | 52.79861 | 8.49376 | 86° | 75km/h | 8886m | -5.3m/s | -38.6°C | 22.2% | 321.3hPa | 2.5V | 08:00:00 | 00:00:00 | 00:00:00 | |
| DL1XH1-15 | 2026-09-01 08:29:42 | 52.79838 | 8.49164 | 82° | 69km/h | 8920m | -5m/s | -38.9°C | 23% | 319.7hPa | 2.5V | 08:00:10 | 01:52:00 | 00:00:00 | |
| DM0DOS-11 | 2026-09-01 08:29:42 | 52.79848 | 8.49251 | 77° | 73km/h | 8905m | -4.8m/s | -38.8°C | 24.9% | 320.4hPa | 2.7V | 08:00:07 | 01:52:03 | 00:00:00 | |
| DL1XH-15 | 2026-09-01 08:29:41 | 52.79836 | 8.49135 | 83° | 71km/h | 8925m | -5m/s | -38.9°C | 22.3% | 319.5hPa | 2.5V | 08:00:11 | 01:51:59 | 00:00:00 | |
| DB0DAN | 2026-09-01 08:29:40 | 52.79848 | 8.49251 | 77° | 69km/h | 8905m | -4.8m/s | -38.8°C | 21.2% | 320.37hPa | 2.7V | 00:00:00 | 00:00:00 | 00:00:00 | |
| DL1XH-west | 2026-09-01 08:29:39 | 52.79844 | 8.49221 | 78° | 69km/h | 8910m | -5m/s | -38.8°C | 25.4% | 320.2hPa | 2.6V | 08:00:49 | 01:52:02 | 00:00:00 | |
| BIOWL1-15 | 2026-09-01 08:29:38 | 52.79841 | 8.49193 | 80° | 69km/h | 8915m | -5m/s | -38.8°C | 24.7% | 320hPa | 2.6V | 08:00:49 | 01:52:01 | 00:00:00 | |
| AA1-15 | 2026-09-01 08:29:33 | 52.79828 | 8.49041 | 80° | 77km/h | 8939m | -5.3m/s | -39°C | 22.2% | 318.7hPa | 2.6V | 08:00:49 | 01:51:56 | 00:00:00 | |
| DO9LL-15 | 2026-09-01 08:29:33 | 52.79828 | 8.49041 | 81° | 71km/h | 8939m | -5.2m/s | -38.9°C | 21.2% | 318.7hPa | 2.6V | 08:00:00 | 01:51:56 | 00:00:00 | |
| DM0DOS-11 | 2026-09-01 08:29:32 | 52.79819 | 8.48952 | 82° | 69km/h | 8954m | -4.8m/s | -39.1°C | 20.5% | 318.1hPa | 2.5V | 08:00:17 | 01:51:53 | 00:00:00 | |
| DJ2DS-15 | 2026-09-01 08:29:32 | 52.79825 | 8.49010 | 79° | 73km/h | 8945m | -5.0m/s | -38.9°C | 20.9% | 318.5hPa | 2.7V | 00:00:00 | 01:51:55 | 00:00:00 | |
| DL1XH-15 | 2026-09-01 08:29:31 | 52.79811 | 8.48831 | 81° | 77km/h | 8974m | -5m/s | -39.2°C | 19.2% | 317.2hPa | 2.7V | 08:00:21 | 01:51:49 | 00:00:00 | |
| HSKMA3-T | 2026-09-01 08:29:30 | 52.79819 | 8.48952 | 82° | 69km/h | 8954m | -4.8m/s | -39.1°C | 21.5% | 318.1hPa | 2.5V | 08:01:40 | 01:51:53 | 00:00:00 | |
| DF8AY | 2026-09-01 08:29:28 | 52.79815 | 8.48893 | 85° | 73km/h | 8964m | -4.8m/s | -39.2°C | 20.9% | 317.6hPa | 2.5V | 08:00:49 | 01:51:51 | 00:00:00 | |
| BIOWL1-15 | 2026-09-01 08:29:27 | 52.79813 | 8.48862 | 84° | 75km/h | 8969m | -5.1m/s | -39.2°C | 20.5% | 317.4hPa | 2.5V | 08:00:49 | 01:51:50 | 00:00:00 | |
| DJ2KF-10 | 2026-09-01 08:29:27 | 52.79813 | 8.48862 | 85° | 71km/h | 8969m | -5.1m/s | -39.2°C | 19.6% | 317.3hPa | 2.6V | 00:00:00 | 01:51:50 | 00:00:00 | |
| DN9WHV | 2026-09-01 08:29:26 | 52.79813 | 8.48862 | 85° | 75km/h | 8969m | -5.1m/s | -39.2°C | 16.4% | 317.4hPa | 2.6V | 08:00:00 | 00:00:00 | 00:00:00 | |
| DB0DAN | 2026-09-01 08:29:25 | 52.79807 | 8.48799 | 79° | 73km/h | 8979m | -4.9m/s | -39.3°C | 15.7% | 316.97hPa | 2.6V | 00:00:00 | 00:00:00 | 00:00:00 | |
| GOEST3-10 | 2026-09-01 08:29:24 | 52.79803 | 8.48768 | 78° | 69km/h | 8984m | -4.9m/s | -39.3°C | 18.3% | 316.7hPa | 2.6V | 00:00:00 | 00:00:00 | 00:00:00 | |
| SMARD9-10 | 2026-09-01 08:29:23 | 52.79803 | 8.48768 | 78° | 73km/h | 8984m | -4.9m/s | -39.3°C | 15.2% | 316.7hPa | 2.5V | 08:00:00 | 00:00:00 | 00:00:00 | |
| DM0DOS-11 | 2026-09-01 08:29:22 | 52.79790 | 8.48656 | 84° | 68km/h | 9005m | -5.2m/s | -39.5°C | 16.9% | 315.8hPa | 2.5V | 08:00:27 | 01:51:43 | 00:00:00 | |
| DL1XH1-15 | 2026-09-01 08:29:22 | 52.79785 | 8.48566 | 83° | 78km/h | 9020m | -5.1m/s | -39.5°C | 17.2% | 315.1hPa | 2.6V | 08:00:30 | 01:51:40 | 00:00:00 | |
| AA1-15 | 2026-09-01 08:29:22 | 52.79796 | 8.48711 | 78° | 68km/h | 8994m | -5.2m/s | -39.4°C | 18.1% | 316.3hPa | 2.5V | 08:00:49 | 01:51:45 | 00:00:00 | |
| DF8AY | 2026-09-01 08:29:17 | 52.79785 | 8.48566 | 83° | 78km/h | 9020m | -5.1m/s | -39.5°C | 17.8% | 315.1hPa | 2.6V | 08:00:49 | 01:51:40 | 00:00:00 | |
| BIOWL1-15 | 2026-09-01 08:29:16 | 52.79782 | 8.48533 | 80° | 80km/h | 9025m | -5.3m/s | -39.6°C | 17.9% | 314.9hPa | 2.5V | 08:00:49 | 01:51:39 | 00:00:00 | |
| HTAHTA | 2026-09-01 08:29:16 | 52.79778 | 8.48501 | 76° | 77km/h | 9030m | -5.2m/s | -39.6°C | 14.3% | 314.6hPa | 2.6V | 00:00:00 | 00:00:00 | 00:00:00 | |
| DM0DOS-11 | 2026-09-01 08:29:15 | 52.79757 | 8.48361 | 81° | 64km/h | 9056m | -5m/s | -39.7°C | 18.7% | 313.4hPa | 2.6V | 08:00:37 | 01:51:33 | 00:00:00 | |
| DN9WHV | 2026-09-01 08:29:14 | 52.79778 | 8.48501 | 77° | 78km/h | 9030m | -5.2m/s | -39.6°C | 14.3% | 314.6hPa | 2.5V | 08:00:00 | 00:00:00 | 00:00:00 | |
| GOEST3-10 | 2026-09-01 08:29:13 | 52.79768 | 8.48441 | 75° | 66km/h | 9041m | -5.1m/s | -39.6°C | 17.3% | 314.1hPa | 2.5V | 00:00:00 | 00:00:00 | 00:00:00 | |
| DL1XH1-15 | 2026-09-01 08:29:12 | 52.79753 | 8.48277 | 85° | 73km/h | 9071m | -5.2m/s | -39.7°C | 20.9% | 312.8hPa | 2.5V | 08:00:40 | 01:51:30 | 00:00:00 | |
| AA1-15 | 2026-09-01 08:29:11 | 52.79760 | 8.48387 | 78° | 64km/h | 9051m | -5.2m/s | -39.7°C | 18.7% | 313.7hPa | 2.6V | 08:00:49 | 01:51:34 | 00:00:00 | |
| DB0DAN | 2026-09-01 08:29:10 | 52.79757 | 8.48361 | 82° | 60km/h | 9056m | -5m/s | -39.7°C | 15.5% | 313.43hPa | 2.6V | 00:00:00 | 00:00:00 | 00:00:00 | |
| DL1XH-west | 2026-09-01 08:29:07 | 52.79753 | 8.48277 | 86° | 73km/h | 9071m | -5.2m/s | -39.7°C | 21.9% | 312.8hPa | 2.5V | 08:00:49 | 01:51:30 | 00:00:00 | |
| DO2JMG | 2026-09-01 08:29:06 | 52.79751 | 8.48246 | 84° | 77km/h | 9077m | -5.3m/s | -39.8°C | 22.5% | 312.5hPa | 2.5V | 08:00:49 | 01:51:29 | 00:00:00 | |
| BIOWL1-15 | 2026-09-01 08:29:05 | 52.79748 | 8.48214 | 81° | 78km/h | 9082m | -5.1m/s | -39.8°C | 23% | 312.3hPa | 2.6V | 08:00:49 | 01:51:28 | 00:00:00 | |
| HSKMA3-T | 2026-09-01 08:29:02 | 52.79735 | 8.48122 | 73° | 71km/h | 9097m | -5.1m/s | -40°C | 23% | 311.6hPa | 2.5V | 08:01:40 | 01:51:25 | 00:00:00 | |
| DL1XH1-15 | 2026-09-01 08:29:02 | 52.79718 | 8.47991 | 84° | 66km/h | 9123m | -5.3m/s | -40.2°C | 22.7% | 310.4hPa | 2.5V | 08:00:50 | 01:51:20 | 00:00:00 | |
| DL1XH-15 | 2026-09-01 08:29:01 | 52.79716 | 8.47963 | 85° | 69km/h | 9128m | -5.1m/s | -40.2°C | 22.5% | 310.2hPa | 2.5V | 08:00:51 | 01:51:19 | 00:00:00 | |
| AA1-15 | 2026-09-01 08:29:00 | 52.79725 | 8.48068 | 75° | 64km/h | 9107m | -5m/s | -40.1°C | 23.3% | 311.1hPa | 2.5V | 08:00:49 | 01:51:23 | 00:00:00 | |
| DL1XH-west | 2026-09-01 08:28:56 | 52.79716 | 8.47963 | 85° | 69km/h | 9128m | -5.1m/s | -40.2°C | 23.5% | 310.2hPa | 2.5V | 08:01:40 | 01:51:19 | 00:00:00 | |
| DO2JMG | 2026-09-01 08:28:55 | 52.79714 | 8.47934 | 84° | 73km/h | 9133m | -5.1m/s | -40.2°C | 23.5% | 309.9hPa | 2.5V | 08:01:40 | 01:51:18 | 00:00:00 | |
| DO9LL-15 | 2026-09-01 08:28:54 | 52.79712 | 8.47903 | 81° | 69km/h | 9138m | -5.1m/s | -40.2°C | 22.7% | 309.6hPa | 2.6V | 00:00:00 | 01:51:17 | 00:00:00 | |
| GOEST3-10 | 2026-09-01 08:28:53 | 52.79708 | 8.47872 | 78° | 71km/h | 9143m | -5.0m/s | -40.3°C | 22.6% | 309.5hPa | 2.6V | 00:00:00 | 00:00:00 | 00:00:00 | |
| DL1XH1-15 | 2026-09-01 08:28:52 | 52.79683 | 8.47706 | 83° | 64km/h | 9174m | -5.1m/s | -40.6°C | 23.3% | 308.1hPa | 2.5V | 08:01:00 | 01:51:10 | 00:00:00 | |
| DL3AQ-11 | 2026-09-01 08:28:52 | 52.79699 | 8.47812 | 73° | 71km/h | 9153m | -5.0m/s | -40.5°C | 18.8% | 308.9hPa | 2.5V | 00:00:00 | 00:00:00 | 00:00:00 | |
| DL1XH-15 | 2026-09-01 08:28:51 | 52.79681 | 8.47678 | 85° | 68km/h | 9179m | -5m/s | -40.6°C | 24% | 307.9hPa | 2.5V | 08:01:01 | 01:51:09 | 00:00:00 | |
| AA1-15 | 2026-09-01 08:28:50 | 52.79694 | 8.47784 | 73° | 68km/h | 9159m | -5.2m/s | -40.5°C | 23.3% | 308.8hPa | 2.5V | 08:01:40 | 01:51:13 | 00:00:00 | |
| HSKMA3-T | 2026-09-01 08:28:49 | 52.79689 | 8.47758 | 75° | 64km/h | 9164m | -5m/s | -40.6°C | 23.2% | 308.5hPa | 2.6V | 08:01:40 | 01:51:12 | 00:00:00 | |
| DF8AY | 2026-09-01 08:28:46 | 52.79681 | 8.47678 | 85° | 68km/h | 9179m | -5m/s | -40.6°C | 24.9% | 307.9hPa | 2.5V | 08:01:40 | 01:51:09 | 00:00:00 | |
| DL1XH-west | 2026-09-01 08:28:45 | 52.79680 | 8.47649 | 85° | 73km/h | 9184m | -5.2m/s | -40.7°C | 25.7% | 307.7hPa | 2.6V | 08:01:40 | 01:51:08 | 00:00:00 | |
| BIOWL1-15 | 2026-09-01 08:28:44 | 52.79678 | 8.47619 | 83° | 75km/h | 9189m | -5.3m/s | -40.7°C | 26.3% | 307.4hPa | 2.6V | 08:01:40 | 01:51:07 | 00:00:00 | |
| GOEST3-10 | 2026-09-01 08:28:43 | 52.79675 | 8.47587 | 80° | 73km/h | 9195m | -5.2m/s | -40.7°C | 25.8% | 307.1hPa | 2.5V | 00:00:00 | 00:00:00 | 00:00:00 | |
| DL1XH1-15 | 2026-09-01 08:28:42 | 52.79647 | 8.47419 | 78° | 62km/h | 9225m | -5.3m/s | -41.1°C | 24.3% | 305.7hPa | 2.5V | 08:01:10 | 01:51:00 | 00:00:00 | |
| DL1XH-15 | 2026-09-01 08:28:41 | 52.79645 | 8.47394 | 82° | 62km/h | 9231m | -5.2m/s | -41°C | 24% | 305.5hPa | 2.5V | 08:01:11 | 01:50:59 | 00:00:00 | |
| DB0DAN | 2026-09-01 08:28:40 | 52.79661 | 8.47497 | 72° | 68km/h | 9210m | -4.9m/s | -40.9°C | 21.1% | 306.42hPa | 2.6V | 00:00:00 | 00:00:00 | 00:00:00 | |
| HSKMA3-T | 2026-09-01 08:28:39 | 52.79655 | 8.47470 | 73° | 66km/h | 9215m | -5.3m/s | -41°C | 26.4% | 306.2hPa | 2.6V | 08:01:40 | 01:51:02 | 00:00:00 | |
| DF8AY | 2026-09-01 08:28:35 | 52.79643 | 8.47367 | 85° | 66km/h | 9236m | -5m/s | -41°C | 25% | 305.3hPa | 2.7V | 08:01:40 | 01:50:58 | 00:00:00 | |
| BIOWL1-15 | 2026-09-01 08:28:34 | 52.79642 | 8.47338 | 85° | 71km/h | 9241m | -5.2m/s | -41.1°C | 24.9% | 305.1hPa | 2.6V | 08:01:40 | 01:50:57 | 00:00:00 | |
| GOEST3-10 | 2026-09-01 08:28:33 | 52.79640 | 8.47308 | 84° | 73km/h | 9246m | -5.1m/s | -41.0°C | 23.9% | 304.8hPa | 2.5V | 00:00:00 | 00:00:00 | 00:00:00 | |
| DL1XH1-15 | 2026-09-01 08:28:32 | 52.79617 | 8.47134 | 77° | 64km/h | 9277m | -5m/s | -41.5°C | 25.2% | 303.4hPa | 2.5V | 08:01:20 | 01:50:50 | 00:00:00 | |
| DJ2DS-15 | 2026-09-01 08:28:32 | 52.79637 | 8.47277 | 82° | 69km/h | 9251m | -5.3m/s | -41.1°C | 24.1% | 304.6hPa | 2.7V | 00:00:00 | 01:50:55 | 00:00:00 | |
| DL1XH-15 | 2026-09-01 08:28:31 | 52.79614 | 8.47108 | 80° | 64km/h | 9282m | -5.2m/s | -41.5°C | 25.5% | 303.2hPa | 2.7V | 08:01:21 | 01:50:49 | 00:00:00 | |
| AA1-15 | 2026-09-01 08:28:28 | 52.79621 | 8.47160 | 75° | 66km/h | 9272m | -5m/s | -41.4°C | 26.1% | 303.6hPa | 2.5V | 08:01:40 | 01:50:51 | 00:00:00 | |
| HSKMA3-T | 2026-09-01 08:28:26 | 52.79614 | 8.47108 | 81° | 64km/h | 9282m | -5.2m/s | -41.5°C | 26.5% | 303.2hPa | 2.7V | 08:01:40 | 01:50:49 | 00:00:00 | |
| DF8AY | 2026-09-01 08:28:24 | 52.79610 | 8.47053 | 83° | 69km/h | 9292m | -5.2m/s | -41.5°C | 27.2% | 302.8hPa | 2.5V | 08:01:40 | 01:50:47 | 00:00:00 | |
| DL1XH-west | 2026-09-01 08:28:23 | 52.79607 | 8.47024 | 82° | 73km/h | 9298m | -5.3m/s | -41.5°C | 27.7% | 302.5hPa | 2.5V | 08:01:40 | 01:50:46 | 00:00:00 | |
| DL1XH1-15 | 2026-09-01 08:28:22 | 52.79583 | 8.46857 | 78° | 60km/h | 9329m | -5.3m/s | -41.9°C | 28.4% | 301.1hPa | 2.5V | 08:01:30 | 01:50:40 | 00:00:00 | |
| DL1XH-15 | 2026-09-01 08:28:21 | 52.79581 | 8.46832 | 82° | 62km/h | 9334m | -5.3m/s | -41.9°C | 29% | 300.8hPa | 2.5V | 08:01:31 | 01:50:39 | 00:00:00 | |
| AA1-15 | 2026-09-01 08:28:17 | 52.79583 | 8.46857 | 79° | 60km/h | 9329m | -5.3m/s | -41.9°C | 29.7% | 301.1hPa | 2.5V | 08:01:40 | 01:50:40 | 00:00:00 | |
| HSKMA3-T | 2026-09-01 08:28:16 | 52.79581 | 8.46831 | 83° | 62km/h | 9334m | -5.3m/s | -42°C | 30.1% | 300.8hPa | 2.5V | 08:01:40 | 01:50:39 | 00:00:00 | |
| DF5WG-10 | 2026-09-01 08:28:16 | 52.79581 | 8.46831 | 83° | 68km/h | 9334m | -5.2m/s | -41.9°C | 29.0% | 300.8hPa | 2.5V | 00:00:00 | 01:50:39 | 00:00:00 | |
| DM0DOS-11 | 2026-09-01 08:28:15 | 52.79565 | 8.46657 | 74° | 71km/h | 9366m | -5.3m/s | -42.2°C | 29.8% | 299.5hPa | 2.5V | 08:01:37 | 01:50:33 | 00:00:00 | |
| DO2JMG | 2026-09-01 08:28:14 | 52.79578 | 8.46777 | 85° | 69km/h | 9345m | -5.4m/s | -42°C | 30.7% | 300.4hPa | 2.6V | 08:01:40 | 01:50:37 | 00:00:00 | |
| BIOWL1-15 | 2026-09-01 08:28:13 | 52.79576 | 8.46747 | 83° | 73km/h | 9350m | -5.4m/s | -42°C | 30.9% | 300.1hPa | 2.6V | 08:01:40 | 01:50:36 | 00:00:00 | |
| GOEST3-10 | 2026-09-01 08:28:13 | 52.79576 | 8.46747 | 84° | 71km/h | 9350m | -5.4m/s | -42.0°C | 29.7% | 300.1hPa | 2.6V | 00:00:00 | 00:00:00 | 00:00:00 | |
| DL1XH1-15 | 2026-09-01 08:28:12 | 52.79552 | 8.46578 | 76° | 60km/h | 9382m | -4.9m/s | -42.4°C | 30.8% | 298.8hPa | 2.6V | 08:01:40 | 01:50:30 | 00:00:00 | |
| DL3AQ-11 | 2026-09-01 08:28:12 | 52.79570 | 8.46687 | 77° | 73km/h | 9361m | -5.3m/s | -42.1°C | 25.1% | 299.7hPa | 2.6V | 00:00:00 | 00:00:00 | 00:00:00 | |
| DL1XH-15 | 2026-09-01 08:28:11 | 52.79549 | 8.46554 | 79° | 60km/h | 9387m | -5.4m/s | -42.4°C | 31.1% | 298.5hPa | 2.6V | 08:01:41 | 01:50:29 | 00:00:00 | |
| DB0DAN | 2026-09-01 08:28:10 | 52.79565 | 8.46657 | 75° | 68km/h | 9366m | -5.3m/s | -42.2°C | 25.2% | 299.5hPa | 2.5V | 00:00:00 | 00:00:00 | 00:00:00 | |
| AA1-15 | 2026-09-01 08:28:06 | 52.79549 | 8.46554 | 80° | 60km/h | 9387m | -5.4m/s | -42.4°C | 32.1% | 298.5hPa | 2.6V | 08:02:31 | 01:50:29 | 00:00:00 | |
| HSKMA3-T | 2026-09-01 08:28:05 | 52.79546 | 8.46528 | 83° | 64km/h | 9392m | -5.2m/s | -42.4°C | 32.4% | 298.3hPa | 2.5V | 08:02:31 | 01:50:28 | 00:00:00 | |
| DO2JMG | 2026-09-01 08:28:04 | 52.79544 | 8.46501 | 83° | 68km/h | 9397m | -5.3m/s | -42.4°C | 32.6% | 298hPa | 2.5V | 08:02:31 | 01:50:27 | 00:00:00 | |
| DL1XH-west | 2026-09-01 08:28:03 | 52.79542 | 8.46473 | 82° | 69km/h | 9403m | -5.2m/s | -42.5°C | 32.8% | 297.8hPa | 2.5V | 08:02:31 | 01:50:26 | 00:00:00 | |
| DF8AY | 2026-09-01 08:28:02 | 52.79539 | 8.46443 | 80° | 73km/h | 9408m | -5.3m/s | -42.6°C | 33.1% | 297.6hPa | 2.7V | 08:02:31 | 01:50:25 | 00:00:00 | |
| DO2SHX-10 | 2026-09-01 08:28:02 | 52.79539 | 8.46443 | 80° | 73km/h | 9408m | -5.3m/s | -42.5°C | 31.9% | 297.5hPa | 2.7V | 00:00:00 | 01:50:25 | 00:00:00 | |
| DL1XH-15 | 2026-09-01 08:28:01 | 52.79514 | 8.46281 | 79° | 62km/h | 9440m | -5.2m/s | -43°C | 33.9% | 296.2hPa | 2.7V | 08:01:51 | 01:50:19 | 00:00:00 | |
| HSKMA3-T | 2026-09-01 08:27:55 | 52.79511 | 8.46255 | 82° | 66km/h | 9445m | -5.3m/s | -42.9°C | 35% | 295.9hPa | 2.7V | 08:02:31 | 01:50:18 | 00:00:00 | |
| DB0DAN | 2026-09-01 08:27:55 | 52.79511 | 8.46255 | 82° | 62km/h | 9445m | -5.3m/s | -42.9°C | 29.2% | 295.94hPa | 2.7V | 00:00:00 | 00:00:00 | 00:00:00 | |
| DO2JMG | 2026-09-01 08:27:53 | 52.79506 | 8.46199 | 81° | 71km/h | 9455m | -5.3m/s | -43°C | 35.8% | 295.5hPa | 2.5V | 08:02:31 | 01:50:16 | 00:00:00 | |
| BIOWL1-15 | 2026-09-01 08:27:52 | 52.79480 | 8.46009 | 81° | 66km/h | 9492m | -5.3m/s | -43.4°C | 37.5% | 293.9hPa | 2.5V | 08:02:31 | 01:50:09 | 00:00:00 | |
| DL1XH-west | 2026-09-01 08:27:52 | 52.79503 | 8.46169 | 78° | 73km/h | 9460m | -5.4m/s | -43.1°C | 36.1% | 295.3hPa | 2.5V | 08:02:31 | 01:50:15 | 00:00:00 | |
| HSKMA3-T | 2026-09-01 08:27:44 | 52.79474 | 8.45953 | 79° | 71km/h | 9503m | -5.3m/s | -43.5°C | 37.5% | 293.4hPa | 2.6V | 08:02:31 | 01:50:07 | 00:00:00 | |
| DF8AY | 2026-09-01 08:27:42 | 52.79466 | 8.45896 | 75° | 69km/h | 9514m | -5.3m/s | -43.6°C | 37.5% | 292.9hPa | 2.5V | 08:02:31 | 01:50:05 | 00:00:00 | |
| DL1XH-west | 2026-09-01 08:27:41 | 52.79462 | 8.45869 | 74° | 66km/h | 9519m | -5.4m/s | -43.7°C | 37.5% | 292.7hPa | 2.5V | 08:02:31 | 01:50:04 | 00:00:00 | |
| DB0DAN | 2026-09-01 08:27:40 | 52.79457 | 8.45843 | 75° | 60km/h | 9524m | -5.3m/s | -43.8°C | 30.9% | 292.46hPa | 2.6V | 00:00:00 | 00:00:00 | 00:00:00 | |
| BIOWL1-15 | 2026-09-01 08:27:36 | 52.79446 | 8.45737 | 82° | 69km/h | 9545m | -5.3m/s | -43.8°C | 38.4% | 291.5hPa | 2.5V | 08:02:31 | 01:49:59 | 00:00:00 | |
| HSKMA3-T | 2026-09-01 08:27:34 | 52.79439 | 8.45678 | 76° | 73km/h | 9556m | -5.4m/s | -44°C | 38.8% | 291.1hPa | 2.5V | 08:02:31 | 01:49:57 | 00:00:00 | |
| AA1-15 | 2026-09-01 08:27:33 | 52.79435 | 8.45649 | 74° | 69km/h | 9562m | -5.3m/s | -44°C | 39% | 290.9hPa | 2.7V | 08:02:31 | 01:49:56 | 00:00:00 | |
| DF8AY | 2026-09-01 08:27:31 | 52.79425 | 8.45596 | 74° | 64km/h | 9572m | -5.4m/s | -44.2°C | 39.4% | 290.4hPa | 2.5V | 08:02:31 | 01:49:54 | 00:00:00 | |
| DL1XH-west | 2026-09-01 08:27:30 | 52.79421 | 8.45570 | 77° | 62km/h | 9577m | -5.3m/s | -44.3°C | 39.7% | 290.1hPa | 2.5V | 08:02:31 | 01:49:53 | 00:00:00 | |
| BIOWL1-15 | 2026-09-01 08:27:28 | 52.79410 | 8.45461 | 80° | 73km/h | 9599m | -5.5m/s | -44.3°C | 40.8% | 289.2hPa | 2.5V | 08:02:31 | 01:49:49 | 00:00:00 | |
| DO2SHX-10 | 2026-09-01 08:27:28 | 52.79415 | 8.45518 | 83° | 69km/h | 9588m | -5.2m/s | -44.2°C | 39.9% | 289.6hPa | 2.5V | 00:00:00 | 01:49:51 | 00:00:00 | |
| BIOWL9-15 | 2026-09-01 08:27:27 | 52.79410 | 8.45461 | 79° | 71km/h | 9599m | -5.5m/s | -44.3°C | 34.2% | 289.2hPa | 2.5V | 00:00:00 | 00:00:00 | 00:00:00 | |
| DB0UT-7 | 2026-09-01 08:27:26 | 52.79410 | 8.45461 | 80° | 66km/h | 9599m | -5.4m/s | -44.3°C | 40.2% | 289.2hPa | 2.5V | 00:00:00 | 00:00:00 | 00:00:00 | |
| DM0DOS-11 | 2026-09-01 08:27:25 | 52.79384 | 8.45299 | 79° | 60km/h | 9631m | -5.3m/s | -44.7°C | 40.4% | 287.9hPa | 2.6V | 08:02:27 | 01:49:43 | 00:00:00 | |
| DB0DAN | 2026-09-01 08:27:25 | 52.79406 | 8.45431 | 77° | 69km/h | 9604m | -5.3m/s | -44.4°C | 34% | 289.03hPa | 2.5V | 00:00:00 | 00:00:00 | 00:00:00 | |
| HSKMA3-T | 2026-09-01 08:27:24 | 52.79402 | 8.45402 | 74° | 71km/h | 9609m | -5.3m/s | -44.5°C | 41.1% | 288.8hPa | 2.5V | 08:02:31 | 01:49:47 | 00:00:00 | |
| DB0NH | 2026-09-01 08:27:24 | 52.79401 | 8.45402 | 75° | 64km/h | 9609m | -5.3m/s | -44.4°C | 39.6% | 288.7hPa | 2.5V | 08:02:00 | 01:49:47 | 00:00:00 | |
| GOEST3-10 | 2026-09-01 08:27:23 | 52.79397 | 8.45374 | 73° | 62km/h | 9615m | -5.3m/s | -44.5°C | 39.6% | 288.5hPa | 2.5V | 00:00:00 | 00:00:00 | 00:00:00 | |
| DL1XH1-15 | 2026-09-01 08:27:22 | 52.79378 | 8.45220 | 82° | 68km/h | 9647m | -5.2m/s | -44.8°C | 41.1% | 287.2hPa | 2.5V | 08:02:30 | 01:49:40 | 00:00:00 | |
| AA1-15 | 2026-09-01 08:27:22 | 52.79392 | 8.45348 | 73° | 64km/h | 9620m | -5.4m/s | -44.6°C | 41.2% | 288.3hPa | 2.7V | 08:02:31 | 01:49:45 | 00:00:00 | |
| DF8AY | 2026-09-01 08:27:21 | 52.79388 | 8.45323 | 75° | 60km/h | 9626m | -5.4m/s | -44.7°C | 41.3% | 288.1hPa | 2.7V | 08:02:31 | 01:49:44 | 00:00:00 | |
| DO2JMG | 2026-09-01 08:27:20 | 52.79384 | 8.45299 | 79° | 60km/h | 9631m | -5.3m/s | -44.7°C | 41.4% | 287.9hPa | 2.6V | 08:02:31 | 01:49:43 | 00:00:00 | |
| DL1XH-west | 2026-09-01 08:27:19 | 52.79382 | 8.45274 | 83° | 62km/h | 9636m | -5.3m/s | -44.7°C | 41.4% | 287.6hPa | 2.5V | 08:02:31 | 01:49:42 | 00:00:00 | |
| DL3AQ-11 | 2026-09-01 08:27:19 | 52.79380 | 8.45247 | 83° | 64km/h | 9641m | -5.3m/s | -44.7°C | 34.7% | 287.4hPa | 2.7V | 00:00:00 | 00:00:00 | 00:00:00 | |
| GOEST3-10 | 2026-09-01 08:27:18 | 52.79380 | 8.45247 | 84° | 68km/h | 9641m | -5.3m/s | -44.7°C | 40.8% | 287.4hPa | 2.7V | 00:00:00 | 01:49:41 | 00:00:00 | |
| DO2LYB-13 | 2026-09-01 08:27:17 | 52.79380 | 8.45247 | 85° | 66km/h | 9641m | -5.3m/s | -44.7°C | 34.8% | 287.4hPa | 2.7V | 00:00:00 | 00:00:00 | 00:00:00 | |
| DL1LOL-11 | 2026-09-01 08:27:16 | 52.79378 | 8.45220 | 84° | 68km/h | 9647m | -5.2m/s | -44.8°C | 34.9% | 287.2hPa | 2.7V | 00:00:00 | 00:00:00 | 00:00:00 | |
| DM0DOS-11 | 2026-09-01 08:27:15 | 52.79354 | 8.45028 | 80° | 66km/h | 9683m | -5.3m/s | -45.2°C | 43.4% | 285.6hPa | 2.7V | 08:02:37 | 01:49:33 | 00:00:00 | |
| HSKMA3-T | 2026-09-01 08:27:14 | 52.79368 | 8.45134 | 76° | 68km/h | 9662m | -5.3m/s | -45°C | 42.4% | 286.5hPa | 2.5V | 08:03:22 | 01:49:37 | 00:00:00 | |
| GOEST3-10 | 2026-09-01 08:27:13 | 52.79364 | 8.45107 | 76° | 66km/h | 9668m | -5.2m/s | -45.0°C | 42.2% | 286.2hPa | 2.5V | 00:00:00 | 00:00:00 | 00:00:00 | |
| DL1XH1-15 | 2026-09-01 08:27:12 | 52.79345 | 8.44944 | 76° | 68km/h | 9700m | -5.3m/s | -45.4°C | 43.6% | 284.9hPa | 2.5V | 08:02:40 | 01:49:30 | 00:00:00 | |
| AA1-15 | 2026-09-01 08:27:11 | 52.79357 | 8.45055 | 80° | 64km/h | 9679m | -5.1m/s | -45.1°C | 43.1% | 285.8hPa | 2.7V | 08:03:22 | 01:49:34 | 00:00:00 | |
| DF8AY | 2026-09-01 08:27:10 | 52.79354 | 8.45028 | 81° | 66km/h | 9684m | -5.4m/s | -45.2°C | 43.4% | 285.6hPa | 2.7V | 08:03:22 | 01:49:33 | 00:00:00 | |
| DB0DAN | 2026-09-01 08:27:10 | 52.79354 | 8.45028 | 81° | 62km/h | 9684m | -5.4m/s | -45.2°C | 36.9% | 285.55hPa | 2.7V | 00:00:00 | 00:00:00 | 00:00:00 | |
| DL1XH-west | 2026-09-01 08:27:09 | 52.79352 | 8.45000 | 81° | 68km/h | 9689m | -5.3m/s | -45.2°C | 43.6% | 285.4hPa | 2.5V | 08:03:22 | 01:49:32 | 00:00:00 | |
| DD8BA-10 | 2026-09-01 08:27:09 | 52.79351 | 8.45000 | 81° | 66km/h | 9689m | -5.2m/s | -45.1°C | 43.3% | 285.3hPa | 2.5V | 00:00:00 | 00:00:00 | 00:00:00 | |
| GOEST3-10 | 2026-09-01 08:27:08 | 52.79348 | 8.44972 | 79° | 66km/h | 9694m | -5.3m/s | -45.2°C | 43.1% | 285.1hPa | 2.5V | 00:00:00 | 01:49:31 | 00:00:00 | |
| DO3DL | 2026-09-01 08:27:07 | 52.79345 | 8.44944 | 78° | 69km/h | 9700m | -5.3m/s | -45.4°C | 37.1% | 284.9hPa | 2.7V | 08:03:00 | 00:00:00 | 00:00:00 | |
| SMARD9-10 | 2026-09-01 08:27:06 | 52.79345 | 8.44944 | 78° | 69km/h | 9700m | -5.3m/s | -45.4°C | 37.1% | 284.9hPa | 2.7V | 00:00:00 | 00:00:00 | 00:00:00 | |
| DM0DOS-11 | 2026-09-01 08:27:05 | 52.79324 | 8.44761 | 79° | 68km/h | 9737m | -5.5m/s | -45.6°C | 43.8% | 283.3hPa | 2.7V | 08:02:47 | 01:49:23 | 00:00:00 | |
| HSKMA3-T | 2026-09-01 08:27:03 | 52.79331 | 8.44841 | 81° | 62km/h | 9721m | -5.3m/s | -45.5°C | 44% | 284hPa | 2.5V | 08:03:22 | 01:49:26 | 00:00:00 | |
| GOEST3-10 | 2026-09-01 08:27:03 | 52.79330 | 8.44841 | 82° | 66km/h | 9721m | -5.3m/s | -45.5°C | 43.6% | 283.9hPa | 2.5V | 00:00:00 | 00:00:00 | 00:00:00 | |
| DL1XH1-15 | 2026-09-01 08:27:02 | 52.79312 | 8.44681 | 73° | 62km/h | 9753m | -5.5m/s | -45.8°C | 43.7% | 282.6hPa | 2.5V | 08:02:50 | 01:49:20 | 00:00:00 | |
| DL1XH-15 | 2026-09-01 08:27:01 | 52.79308 | 8.44656 | 75° | 60km/h | 9759m | -5.3m/s | -45.8°C | 43.7% | 282.4hPa | 2.6V | 08:02:51 | 01:49:19 | 00:00:00 | |
| AA1-15 | 2026-09-01 08:27:00 | 52.79324 | 8.44761 | 80° | 68km/h | 9737m | -5.5m/s | -45.6°C | 44% | 283.3hPa | 2.7V | 08:03:22 | 01:49:23 | 00:00:00 | |
| DO2JMG | 2026-09-01 08:26:59 | 52.79320 | 8.44734 | 77° | 68km/h | 9743m | -5.3m/s | -45.7°C | 44% | 283.1hPa | 2.5V | 08:03:22 | 01:49:22 | 00:00:00 | |
| DL1XH-west | 2026-09-01 08:26:58 | 52.79316 | 8.44707 | 75° | 66km/h | 9748m | -5.2m/s | -45.8°C | 44% | 282.9hPa | 2.5V | 08:03:22 | 01:49:21 | 00:00:00 | |
| BIOWL9-15 | 2026-09-01 08:26:56 | 52.79304 | 8.44632 | 78° | 58km/h | 9764m | -5.3m/s | -45.9°C | 37.1% | 282.1hPa | 2.5V | 00:00:00 | 00:00:00 | 00:00:00 | |
| DM0DOS-11 | 2026-09-01 08:26:55 | 52.79292 | 8.44505 | 77° | 66km/h | 9791m | -5.2m/s | -46°C | 44.6% | 281.1hPa | 2.5V | 08:02:57 | 01:49:13 | 00:00:00 | |
| DB0DAN | 2026-09-01 08:26:55 | 52.79304 | 8.44632 | 78° | 55km/h | 9764m | -5.3m/s | -45.9°C | 37.1% | 282.15hPa | 2.7V | 00:00:00 | 00:00:00 | 00:00:00 | |
| BUE01 | 2026-09-01 08:26:54 | 52.79302 | 8.44608 | 80° | 58km/h | 9769m | -5.6m/s | -45.9°C | 37.2% | 281.9hPa | 2.5V | 00:00:00 | 00:00:00 | 00:00:00 | |
| DF5WG-10 | 2026-09-01 08:26:53 | 52.79299 | 8.44584 | 83° | 62km/h | 9775m | -5.4m/s | -45.9°C | 44.2% | 281.7hPa | 2.5V | 00:00:00 | 01:49:16 | 00:00:00 | |
| DL1XH1-15 | 2026-09-01 08:26:52 | 52.79280 | 8.44429 | 76° | 60km/h | 9807m | -5.2m/s | -46.2°C | 43.8% | 280.4hPa | 2.5V | 08:03:00 | 01:49:10 | 00:00:00 | |
| BIOWL1-15 | 2026-09-01 08:26:52 | 52.79297 | 8.44558 | 82° | 64km/h | 9780m | -5.3m/s | -46.1°C | 43.7% | 281.5hPa | 2.5V | 08:03:22 | 01:49:15 | 00:00:00 | |
| DL3AQ-11 | 2026-09-01 08:26:52 | 52.79295 | 8.44531 | 80° | 64km/h | 9786m | -5.3m/s | -46.1°C | 38.0% | 281.3hPa | 2.5V | 00:00:00 | 00:00:00 | 00:00:00 | |
| DL1XH-15 | 2026-09-01 08:26:51 | 52.79277 | 8.44405 | 78° | 60km/h | 9812m | -5.5m/s | -46.2°C | 43.5% | 280.1hPa | 2.5V | 08:03:01 | 01:49:09 | 00:00:00 | |
| AA1-15 | 2026-09-01 08:26:50 | 52.79291 | 8.44505 | 78° | 66km/h | 9791m | -5.2m/s | -46.1°C | 43.6% | 281.1hPa | 2.5V | 08:03:22 | 01:49:13 | 00:00:00 | |
| DF8AY | 2026-09-01 08:26:49 | 52.79288 | 8.44479 | 76° | 64km/h | 9796m | -5.2m/s | -46.1°C | 43.5% | 280.8hPa | 2.7V | 08:03:22 | 01:49:12 | 00:00:00 | |
| DO2JMG | 2026-09-01 08:26:48 | 52.79284 | 8.44453 | 75° | 62km/h | 9801m | -5.4m/s | -46.1°C | 43.3% | 280.6hPa | 2.6V | 08:03:22 | 01:49:11 | 00:00:00 | |
| DL1XH-west | 2026-09-01 08:26:47 | 52.79280 | 8.44429 | 77° | 60km/h | 9807m | -5.2m/s | -46.2°C | 43.2% | 280.4hPa | 2.5V | 08:03:22 | 01:49:10 | 00:00:00 | |
| DN9WHV | 2026-09-01 08:26:46 | 52.79280 | 8.44429 | 78° | 60km/h | 9807m | -5.2m/s | -46.2°C | 37.1% | 280.4hPa | 2.5V | 08:03:00 | 00:00:00 | 00:00:00 | |
| DM0DOS-11 | 2026-09-01 08:26:45 | 52.79253 | 8.44253 | 71° | 58km/h | 9845m | -5.5m/s | -46.4°C | 41.4% | 278.8hPa | 2.5V | 08:03:07 | 01:49:03 | 00:00:00 | |
| DD1CC8 | 2026-09-01 08:26:44 | 52.79270 | 8.44354 | 78° | 64km/h | 9823m | -5.5m/s | -46.3°C | 36.4% | 279.7hPa | 2.5V | 00:00:00 | 00:00:00 | 00:00:00 | |
| BIOWL1-15 | 2026-09-01 08:26:42 | 52.79262 | 8.44301 | 73° | 64km/h | 9834m | -5.5m/s | -46.4°C | 42.3% | 279.2hPa | 2.5V | 08:03:22 | 01:49:05 | 00:00:00 | |
| DL1XH-15 | 2026-09-01 08:26:41 | 52.79240 | 8.44160 | 81° | 62km/h | 9866m | -5.4m/s | -46.5°C | 39.9% | 277.9hPa | 2.5V | 08:03:11 | 01:48:59 | 00:00:00 | |
| AA1-15 | 2026-09-01 08:26:39 | 52.79248 | 8.44230 | 74° | 57km/h | 9851m | -5.3m/s | -46.4°C | 41.3% | 278.5hPa | 2.6V | 08:03:22 | 01:49:02 | 00:00:00 | |
| DO2JMG | 2026-09-01 08:26:38 | 52.79245 | 8.44208 | 77° | 57km/h | 9856m | -5.5m/s | -46.5°C | 41% | 278.3hPa | 2.6V | 08:03:22 | 01:49:01 | 00:00:00 | |
| DL1XH-west | 2026-09-01 08:26:36 | 52.79240 | 8.44160 | 82° | 62km/h | 9866m | -5.4m/s | -46.5°C | 40.5% | 277.9hPa | 2.5V | 08:03:22 | 01:48:59 | 00:00:00 | |
| DM0DOS-11 | 2026-09-01 08:26:35 | 52.79218 | 8.44003 | 75° | 60km/h | 9898m | -5.4m/s | -46.6°C | 38.9% | 276.5hPa | 2.5V | 08:03:17 | 01:48:53 | 00:00:00 | |
| BIOWL1-15 | 2026-09-01 08:26:32 | 52.79227 | 8.44053 | 75° | 66km/h | 9888m | -5.3m/s | -46.5°C | 39.5% | 276.9hPa | 2.5V | 08:03:22 | 01:48:55 | 00:00:00 | |
| DJ2DS-15 | 2026-09-01 08:26:32 | 52.79227 | 8.44053 | 75° | 64km/h | 9888m | -5.3m/s | -46.4°C | 39.2% | 276.9hPa | 2.5V | 00:00:00 | 01:48:55 | 00:00:00 | |
| DL1XH-15 | 2026-09-01 08:26:31 | 52.79208 | 8.43902 | 81° | 66km/h | 9920m | -5.5m/s | -46.6°C | 39.3% | 275.6hPa | 2.5V | 08:03:21 | 01:48:49 | 00:00:00 | |
| AA1-15 | 2026-09-01 08:26:28 | 52.79212 | 8.43954 | 82° | 60km/h | 9909m | -5.5m/s | -46.6°C | 39.6% | 276.1hPa | 2.6V | 08:03:22 | 01:48:51 | 00:00:00 | |
| DL1XH-west | 2026-09-01 08:26:26 | 52.79208 | 8.43902 | 82° | 66km/h | 9920m | -5.6m/s | -46.6°C | 39.9% | 275.6hPa | 2.5V | 08:03:22 | 01:48:49 | 00:00:00 | |
| DB0DAN | 2026-09-01 08:26:25 | 52.79205 | 8.43874 | 79° | 64km/h | 9926m | -5.5m/s | -46.7°C | 33% | 275.35hPa | 2.5V | 00:00:00 | 00:00:00 | 00:00:00 | |
| HSKMA3-T | 2026-09-01 08:26:21 | 52.79189 | 8.43769 | 78° | 60km/h | 9947m | -5.5m/s | -46.9°C | 40% | 274.4hPa | 2.5V | 08:04:13 | 01:48:44 | 00:00:00 | |
| AA1-15 | 2026-09-01 08:26:17 | 52.79181 | 8.43664 | 85° | 69km/h | 9969m | -5.5m/s | -47.1°C | 39.9% | 273.6hPa | 2.5V | 08:04:13 | 01:48:40 | 00:00:00 | |
| DO9LL-15 | 2026-09-01 08:26:17 | 52.79181 | 8.43664 | 85° | 66km/h | 9969m | -5.4m/s | -47.0°C | 39.6% | 273.5hPa | 2.5V | 00:00:00 | 01:48:40 | 00:00:00 | |
| DN9WHV | 2026-09-01 08:26:16 | 52.79181 | 8.43664 | 85° | 69km/h | 9969m | -5.5m/s | -47.1°C | 33.2% | 273.6hPa | 2.5V | 08:04:00 | 00:00:00 | 00:00:00 | |
| DM0DOS-11 | 2026-09-01 08:26:15 | 52.79165 | 8.43467 | 83° | 69km/h | 10007m | -5.4m/s | -47.4°C | 39.9% | 272hPa | 2.5V | 08:03:37 | 01:48:33 | 00:00:00 | |
| DL1XH-west | 2026-09-01 08:26:15 | 52.79177 | 8.43606 | 81° | 71km/h | 9980m | -5.5m/s | -47.2°C | 40.1% | 273.1hPa | 2.5V | 08:04:13 | 01:48:38 | 00:00:00 | |
| GOEST3-10 | 2026-09-01 08:26:13 | 52.79171 | 8.43549 | 82° | 68km/h | 9991m | -5.3m/s | -47.3°C | 40.3% | 272.6hPa | 2.5V | 00:00:00 | 00:00:00 | 00:00:00 | |
| DL3AQ-11 | 2026-09-01 08:26:12 | 52.79167 | 8.43495 | 83° | 66km/h | 10002m | -5.5m/s | -47.4°C | 33.5% | 272.2hPa | 2.5V | 00:00:00 | 00:00:00 | 00:00:00 | |
| DL1XH-15 | 2026-09-01 08:26:11 | 52.79153 | 8.43354 | 76° | 64km/h | 10029m | -5.5m/s | -47.7°C | 38.4% | 271hPa | 2.5V | 08:03:41 | 01:48:29 | 00:00:00 | |
| BIOWL1-15 | 2026-09-01 08:26:11 | 52.79167 | 8.43495 | 84° | 66km/h | 10002m | -5.5m/s | -47.4°C | 40% | 272.2hPa | 2.5V | 08:04:13 | 01:48:34 | 00:00:00 | |
| DB0DAN | 2026-09-01 08:26:10 | 52.79165 | 8.43467 | 83° | 66km/h | 10007m | -5.4m/s | -47.4°C | 33.4% | 272hPa | 2.5V | 00:00:00 | 00:00:00 | 00:00:00 | |
| DO2JMG | 2026-09-01 08:26:07 | 52.79156 | 8.43381 | 77° | 68km/h | 10023m | -5.4m/s | -47.6°C | 39.4% | 271.3hPa | 2.5V | 08:04:13 | 01:48:30 | 00:00:00 | |
| AA1-15 | 2026-09-01 08:26:06 | 52.79153 | 8.43354 | 77° | 64km/h | 10029m | -5.5m/s | -47.7°C | 39.1% | 271hPa | 2.5V | 08:04:13 | 01:48:29 | 00:00:00 | |
| DM0DOS-11 | 2026-09-01 08:26:05 | 52.79140 | 8.43194 | 82° | 69km/h | 10061m | -5.5m/s | -47.8°C | 37.1% | 269.7hPa | 2.5V | 08:03:47 | 01:48:23 | 00:00:00 | |
| DL1XH-west | 2026-09-01 08:26:04 | 52.79147 | 8.43303 | 82° | 60km/h | 10040m | -5.5m/s | -47.8°C | 38.5% | 270.6hPa | 2.7V | 08:04:13 | 01:48:27 | 00:00:00 | |
| DJ2KF-10 | 2026-09-01 08:26:04 | 52.79147 | 8.43303 | 83° | 66km/h | 10040m | -5.4m/s | -47.7°C | 38.0% | 270.6hPa | 2.5V | 00:00:00 | 01:48:27 | 00:00:00 | |
| GOEST3-10 | 2026-09-01 08:26:03 | 52.79145 | 8.43278 | 86° | 68km/h | 10045m | -5.4m/s | -47.7°C | 37.5% | 270.3hPa | 2.5V | 00:00:00 | 00:00:00 | 00:00:00 | |
| DL1XH1-15 | 2026-09-01 08:26:02 | 52.79131 | 8.43112 | 76° | 64km/h | 10077m | -5.5m/s | -47.9°C | 36.6% | 269.1hPa | 2.5V | 08:03:50 | 01:48:20 | 00:00:00 | |
| BIOWL1-15 | 2026-09-01 08:26:01 | 52.79143 | 8.43223 | 85° | 69km/h | 10056m | -5.4m/s | -47.7°C | 37.7% | 269.9hPa | 2.5V | 08:04:13 | 01:48:24 | 00:00:00 | |
| HSKMA3-T | 2026-09-01 08:26:00 | 52.79141 | 8.43194 | 82° | 69km/h | 10061m | -5.5m/s | -47.8°C | 37.6% | 269.7hPa | 2.5V | 08:04:13 | 01:48:23 | 00:00:00 | |
| DF8AY | 2026-09-01 08:25:56 | 52.79127 | 8.43086 | 78° | 60km/h | 10083m | -5.5m/s | -47.9°C | 37.1% | 268.8hPa | 2.5V | 08:04:13 | 01:48:19 | 00:00:00 | |
| AA1-15 | 2026-09-01 08:25:55 | 52.79124 | 8.43062 | 81° | 60km/h | 10089m | -5.8m/s | -47.9°C | 37% | 268.6hPa | 2.5V | 08:04:13 | 01:48:18 | 00:00:00 | |
| DB0DAN | 2026-09-01 08:25:55 | 52.79124 | 8.43062 | 81° | 57km/h | 10089m | -5.8m/s | -47.9°C | 30.2% | 268.6hPa | 2.5V | 00:00:00 | 00:00:00 | 00:00:00 | |
| DL1XH-west | 2026-09-01 08:25:53 | 52.79121 | 8.43010 | 85° | 66km/h | 10100m | -5.5m/s | -48°C | 37.1% | 268.2hPa | 2.6V | 08:04:13 | 01:48:16 | 00:00:00 | |
| BIOWL1-15 | 2026-09-01 08:25:53 | 52.79116 | 8.42955 | 81° | 69km/h | 10111m | -5.4m/s | -48.1°C | 37.2% | 267.7hPa | 2.5V | 08:04:13 | 01:48:14 | 00:00:00 | |
| DL1XH1-15 | 2026-09-01 08:25:52 | 52.79102 | 8.42848 | 76° | 58km/h | 10132m | -5.3m/s | -48.2°C | 36.7% | 266.9hPa | 2.5V | 08:04:00 | 01:48:10 | 00:00:00 | |
| DN9WHV | 2026-09-01 08:25:52 | 52.79119 | 8.42983 | 84° | 68km/h | 10105m | -5.3m/s | -48.0°C | 30.6% | 268.0hPa | 2.5V | 08:04:00 | 00:00:00 | 00:00:00 | |
| DL1XH-15 | 2026-09-01 08:25:51 | 52.79099 | 8.42824 | 81° | 57km/h | 10138m | -5.7m/s | -48.2°C | 36.9% | 266.6hPa | 2.5V | 08:04:01 | 01:48:09 | 00:00:00 | |
| HSKMA3-T | 2026-09-01 08:25:49 | 52.79109 | 8.42899 | 76° | 66km/h | 10121m | -5.6m/s | -48.1°C | 37.2% | 267.3hPa | 2.7V | 08:04:13 | 01:48:12 | 00:00:00 | |
| AA1-15 | 2026-09-01 08:25:45 | 52.79097 | 8.42800 | 85° | 58km/h | 10144m | -5.5m/s | -48.3°C | 37.9% | 266.4hPa | 2.5V | 08:04:13 | 01:48:08 | 00:00:00 | |
| DL1XH-west | 2026-09-01 08:25:43 | 52.79096 | 8.42748 | 88° | 68km/h | 10155m | -5.5m/s | -48.3°C | 38.4% | 265.9hPa | 2.6V | 08:04:13 | 01:48:06 | 00:00:00 | |
| GOEST3-10 | 2026-09-01 08:25:42 | 52.79095 | 8.42719 | 86° | 71km/h | 10161m | -5.6m/s | -48.3°C | 38.4% | 265.7hPa | 2.5V | 00:00:00 | 00:00:00 | 00:00:00 | |
| DL1XH-15 | 2026-09-01 08:25:41 | 52.79073 | 8.42551 | 76° | 58km/h | 10193m | -5.2m/s | -48.6°C | 40.6% | 264.5hPa | 2.5V | 08:04:11 | 01:47:59 | 00:00:00 | |
| BIOWL1-15 | 2026-09-01 08:25:40 | 52.79090 | 8.42659 | 79° | 73km/h | 10171m | -5.4m/s | -48.5°C | 39.7% | 265.3hPa | 2.5V | 08:04:13 | 01:48:03 | 00:00:00 | |
| HSKMA3-T | 2026-09-01 08:25:38 | 52.79081 | 8.42602 | 74° | 68km/h | 10182m | -5.7m/s | -48.6°C | 40.5% | 264.9hPa | 2.6V | 08:04:13 | 01:48:01 | 00:00:00 | |
| GOEST3-10 | 2026-09-01 08:25:37 | 52.79077 | 8.42575 | 74° | 60km/h | 10188m | -5.2m/s | -48.5°C | 40.6% | 264.6hPa | 2.5V | 00:00:00 | 01:48:00 | 00:00:00 | |
| DN9WHV | 2026-09-01 08:25:36 | 52.79077 | 8.42575 | 75° | 64km/h | 10188m | -5.3m/s | -48.6°C | 33.7% | 264.6hPa | 2.5V | 08:04:00 | 00:00:00 | 00:00:00 | |
| DM0DOS-11 | 2026-09-01 08:25:35 | 52.79066 | 8.42394 | 85° | 73km/h | 10226m | -5.6m/s | -48.9°C | 43% | 263.1hPa | 2.5V | 08:04:17 | 01:47:53 | 00:00:00 | |
| DF8AY | 2026-09-01 08:25:34 | 52.79068 | 8.42503 | 86° | 58km/h | 10204m | -5.3m/s | -48.8°C | 41.5% | 264hPa | 2.7V | 08:04:13 | 01:47:57 | 00:00:00 | |
| DC6BW-12 | 2026-09-01 08:25:33 | 52.79068 | 8.42503 | 87° | 58km/h | 10204m | -5.3m/s | -48.8°C | 34.6% | 264.0hPa | 2.5V | 08:04:00 | 00:00:00 | 00:00:00 | |
| DL1XH1-15 | 2026-09-01 08:25:32 | 52.79057 | 8.42303 | 75° | 71km/h | 10242m | -5.4m/s | -49°C | 43% | 262.4hPa | 2.5V | 08:04:20 | 01:47:50 | 00:00:00 | |
| DL1XH-west | 2026-09-01 08:25:32 | 52.79068 | 8.42452 | 89° | 66km/h | 10215m | -5.7m/s | -48.8°C | 42.1% | 263.6hPa | 2.5V | 08:05:04 | 01:47:55 | 00:00:00 | |
| BIOWL1-15 | 2026-09-01 08:25:31 | 52.79064 | 8.42363 | 82° | 75km/h | 10232m | -5.3m/s | -48.9°C | 43.1% | 262.9hPa | 2.7V | 08:05:04 | 01:47:52 | 00:00:00 | |
| HSKMA3-T | 2026-09-01 08:25:28 | 52.79061 | 8.42333 | 78° | 73km/h | 10237m | -5.4m/s | -49°C | 43.3% | 262.7hPa | 2.6V | 08:05:04 | 01:47:51 | 00:00:00 | |
| GOEST3-10 | 2026-09-01 08:25:27 | 52.79057 | 8.42303 | 76° | 64km/h | 10242m | -5.4m/s | -49.0°C | 43.0% | 262.4hPa | 2.5V | 00:00:00 | 01:47:50 | 00:00:00 | |
| DB0UT-7 | 2026-09-01 08:25:26 | 52.79052 | 8.42276 | 74° | 66km/h | 10248m | -5.3m/s | -49.0°C | 43.1% | 262.2hPa | 2.5V | 00:00:00 | 00:00:00 | 00:00:00 | |
| DM0DOS-11 | 2026-09-01 08:25:25 | 52.79035 | 8.42124 | 84° | 69km/h | 10280m | -5.5m/s | -49.3°C | 45.7% | 260.9hPa | 2.5V | 08:04:27 | 01:47:43 | 00:00:00 | |
| DF8AY | 2026-09-01 08:25:24 | 52.79043 | 8.42226 | 76° | 58km/h | 10259m | -5.5m/s | -49.2°C | 43.9% | 261.8hPa | 2.7V | 08:05:04 | 01:47:47 | 00:00:00 | |
| DO2JMG | 2026-09-01 08:25:23 | 52.79040 | 8.42202 | 80° | 58km/h | 10264m | -5.3m/s | -49.3°C | 44.2% | 261.6hPa | 2.7V | 08:05:04 | 01:47:46 | 00:00:00 | |
| BIOWL9-15 | 2026-09-01 08:25:23 | 52.79038 | 8.42178 | 83° | 60km/h | 10269m | -5.5m/s | -49.2°C | 37.4% | 261.4hPa | 2.5V | 00:00:00 | 00:00:00 | 00:00:00 | |
| DL1XH1-15 | 2026-09-01 08:25:22 | 52.79026 | 8.42035 | 75° | 73km/h | 10297m | -5.5m/s | -49.3°C | 45% | 260.2hPa | 2.5V | 08:04:30 | 01:47:40 | 00:00:00 | |
| GOEST3-10 | 2026-09-01 08:25:22 | 52.79038 | 8.42177 | 84° | 68km/h | 10270m | -5.5m/s | -49.2°C | 44.9% | 261.3hPa | 2.5V | 08:04:00 | 00:00:00 | 00:00:00 | |
| DL1XH-15 | 2026-09-01 08:25:21 | 52.79022 | 8.42006 | 73° | 69km/h | 10302m | -5.5m/s | -49.4°C | 44.6% | 260.1hPa | 2.5V | 08:04:31 | 01:47:39 | 00:00:00 | |
| DL1XH-west | 2026-09-01 08:25:21 | 52.79037 | 8.42152 | 85° | 64km/h | 10275m | -5.4m/s | -49.3°C | 44.6% | 261.1hPa | 2.5V | 08:05:04 | 01:47:44 | 00:00:00 | |
| BIOWL1-15 | 2026-09-01 08:25:21 | 52.79033 | 8.42095 | 83° | 73km/h | 10286m | -5.7m/s | -49.3°C | 45% | 260.7hPa | 2.7V | 08:05:04 | 01:47:42 | 00:00:00 | |
| HSKMA3-T | 2026-09-01 08:25:17 | 52.79027 | 8.42035 | 76° | 73km/h | 10297m | -5.5m/s | -49.3°C | 45.4% | 260.3hPa | 2.5V | 08:05:04 | 01:47:40 | 00:00:00 | |
| DO9LL-15 | 2026-09-01 08:25:17 | 52.79027 | 8.42034 | 76° | 73km/h | 10297m | -5.4m/s | -49.3°C | 45.0% | 260.2hPa | 2.6V | 00:00:00 | 01:47:40 | 00:00:00 | |
| DN9WHV | 2026-09-01 08:25:16 | 52.79026 | 8.42034 | 77° | 73km/h | 10297m | -5.5m/s | -49.3°C | 37.6% | 260.3hPa | 2.6V | 08:05:00 | 00:00:00 | 00:00:00 | |
| DM0DOS-11 | 2026-09-01 08:25:15 | 52.79001 | 8.41856 | 84° | 64km/h | 10335m | -5.3m/s | -49.7°C | 46.8% | 258.8hPa | 2.6V | 08:04:37 | 01:47:33 | 00:00:00 | |
| AA1-15 | 2026-09-01 08:25:13 | 52.79008 | 8.41930 | 76° | 58km/h | 10319m | -5.4m/s | -49.6°C | 45.9% | 259.4hPa | 2.6V | 08:05:04 | 01:47:36 | 00:00:00 | |
| DO2JMG | 2026-09-01 08:25:12 | 52.79005 | 8.41906 | 79° | 58km/h | 10324m | -5.3m/s | -49.6°C | 46.1% | 259.2hPa | 2.5V | 08:05:04 | 01:47:35 | 00:00:00 | |
| DJ2DS-15 | 2026-09-01 08:25:12 | 52.79005 | 8.41906 | 80° | 66km/h | 10324m | -5.2m/s | -49.6°C | 46.1% | 259.1hPa | 2.5V | 00:00:00 | 01:47:35 | 00:00:00 | |
| DL1XH-15 | 2026-09-01 08:25:11 | 52.78989 | 8.41741 | 74° | 71km/h | 10356m | -5.5m/s | -49.9°C | 47.5% | 257.9hPa | 2.5V | 08:04:41 | 01:47:29 | 00:00:00 | |
| DL1XH-west | 2026-09-01 08:25:10 | 52.79001 | 8.41856 | 85° | 64km/h | 10335m | -5.3m/s | -49.7°C | 46.5% | 258.8hPa | 2.6V | 08:05:04 | 01:47:33 | 00:00:00 | |
| DB0DAN | 2026-09-01 08:25:10 | 52.79001 | 8.41856 | 85° | 60km/h | 10335m | -5.3m/s | -49.7°C | 39% | 258.75hPa | 2.6V | 00:00:00 | 00:00:00 | 00:00:00 | |
| BIOWL1-15 | 2026-09-01 08:25:08 | 52.78997 | 8.41800 | 81° | 71km/h | 10346m | -5.6m/s | -49.8°C | 46.9% | 258.3hPa | 2.7V | 08:05:04 | 01:47:31 | 00:00:00 | |
| HSKMA3-T | 2026-09-01 08:25:06 | 52.78989 | 8.41741 | 75° | 71km/h | 10356m | -5.5m/s | -49.9°C | 47.3% | 257.9hPa | 2.5V | 08:05:04 | 01:47:29 | 00:00:00 | |
| DM0DOS-11 | 2026-09-01 08:25:05 | 52.78965 | 8.41586 | 84° | 62km/h | 10389m | -5.5m/s | -50.1°C | 48.2% | 256.6hPa | 2.5V | 08:04:47 | 01:47:23 | 00:00:00 | |
| DF8AY | 2026-09-01 08:25:02 | 52.78970 | 8.41636 | 77° | 60km/h | 10378m | -5.6m/s | -50.1°C | 47.7% | 257hPa | 2.5V | 08:05:04 | 01:47:25 | 00:00:00 | |
| BIOWL1-15 | 2026-09-01 08:24:59 | 52.78959 | 8.41502 | 80° | 71km/h | 10406m | -5.6m/s | -50.3°C | 48.1% | 255.9hPa | 2.5V | 08:05:04 | 01:47:20 | 00:00:00 | |
| DL1XH-west | 2026-09-01 08:24:59 | 52.78964 | 8.41560 | 84° | 66km/h | 10395m | -5.4m/s | -50.2°C | 48% | 256.4hPa | 2.7V | 08:05:04 | 01:47:22 | 00:00:00 | |
| HSKMA3-T | 2026-09-01 08:24:56 | 52.78956 | 8.41473 | 77° | 71km/h | 10411m | -5.5m/s | -50.3°C | 48.2% | 255.8hPa | 2.5V | 08:05:04 | 01:47:19 | 00:00:00 | |
| DB0UT-7 | 2026-09-01 08:24:56 | 52.78956 | 8.41473 | 77° | 66km/h | 10411m | -5.4m/s | -50.3°C | 48.6% | 255.7hPa | 2.5V | 00:00:00 | 01:47:19 | 00:00:00 | |
| DM0DOS-11 | 2026-09-01 08:24:55 | 52.78933 | 8.41322 | 83° | 60km/h | 10444m | -5.5m/s | -50.6°C | 48.5% | 254.4hPa | 2.5V | 08:04:57 | 01:47:13 | 00:00:00 | |
| DB0DAN | 2026-09-01 08:24:55 | 52.78951 | 8.41445 | 74° | 66km/h | 10417m | -5.5m/s | -50.4°C | 40.6% | 255.54hPa | 2.6V | 00:00:00 | 00:00:00 | 00:00:00 | |
| DF8AY | 2026-09-01 08:24:52 | 52.78938 | 8.41370 | 77° | 58km/h | 10433m | -5.7m/s | -50.5°C | 47.9% | 254.9hPa | 2.5V | 08:05:04 | 01:47:15 | 00:00:00 | |
| AA1-15 | 2026-09-01 08:24:51 | 52.78935 | 8.41346 | 81° | 58km/h | 10438m | -5.5m/s | -50.5°C | 47.9% | 254.7hPa | 2.5V | 08:05:04 | 01:47:14 | 00:00:00 | |
| DL1XH-west | 2026-09-01 08:24:48 | 52.78930 | 8.41268 | 83° | 69km/h | 10455m | -5.3m/s | -50.6°C | 47.8% | 254hPa | 2.7V | 08:05:04 | 01:47:11 | 00:00:00 | |
| BIOWL1-15 | 2026-09-01 08:24:47 | 52.78927 | 8.41239 | 81° | 71km/h | 10460m | -5.2m/s | -50.6°C | 47.7% | 253.8hPa | 2.5V | 08:05:04 | 01:47:10 | 00:00:00 | |
| HSKMA3-T | 2026-09-01 08:24:46 | 52.78924 | 8.41210 | 77° | 73km/h | 10466m | -5.5m/s | -50.7°C | 47.7% | 253.6hPa | 2.5V | 08:05:04 | 01:47:09 | 00:00:00 | |
| DM0DOS-11 | 2026-09-01 08:24:45 | 52.78898 | 8.41055 | 81° | 58km/h | 10499m | -5.5m/s | -51°C | 48.5% | 252.3hPa | 2.5V | 08:05:07 | 01:47:03 | 00:00:00 | |
| DF8AY | 2026-09-01 08:24:42 | 52.78904 | 8.41103 | 74° | 60km/h | 10488m | -5.5m/s | -50.9°C | 47.1% | 252.7hPa | 2.5V | 08:05:55 | 01:47:05 | 00:00:00 | |
| GOEST3-10 | 2026-09-01 08:24:42 | 52.78904 | 8.41103 | 74° | 60km/h | 10488m | -5.4m/s | -50.9°C | 47.9% | 252.7hPa | 2.5V | 00:00:00 | 00:00:00 | 00:00:00 | |
| DL1XH-15 | 2026-09-01 08:24:41 | 52.78890 | 8.40945 | 80° | 73km/h | 10520m | -5.7m/s | -51.1°C | 46.7% | 251.5hPa | 2.5V | 08:05:11 | 01:46:59 | 00:00:00 | |
| AA1-15 | 2026-09-01 08:24:41 | 52.78901 | 8.41079 | 77° | 58km/h | 10493m | -5.5m/s | -51°C | 47% | 252.5hPa | 2.5V | 08:05:55 | 01:47:04 | 00:00:00 | |
| DO2JMG | 2026-09-01 08:24:40 | 52.78898 | 8.41055 | 81° | 58km/h | 10499m | -5.5m/s | -51.1°C | 46.9% | 252.4hPa | 2.5V | 08:05:55 | 01:47:03 | 00:00:00 | |
| DB0DAN | 2026-09-01 08:24:40 | 52.78898 | 8.41055 | 81° | 57km/h | 10499m | -5.5m/s | -51.1°C | 40.2% | 252.36hPa | 2.5V | 00:00:00 | 00:00:00 | 00:00:00 | |
| DL1XH-west | 2026-09-01 08:24:37 | 52.78893 | 8.40975 | 83° | 71km/h | 10515m | -5.5m/s | -51.1°C | 46.2% | 251.7hPa | 2.5V | 08:05:55 | 01:47:00 | 00:00:00 | |
| HSKMA3-T | 2026-09-01 08:24:36 | 52.78890 | 8.40945 | 80° | 73km/h | 10520m | -5.7m/s | -51.1°C | 45.9% | 251.5hPa | 2.5V | 08:05:55 | 01:46:59 | 00:00:00 | |
| DL8OAI-8 | 2026-09-01 08:24:35 | 52.78890 | 8.40945 | 81° | 75km/h | 10520m | -5.7m/s | -51.1°C | 38.7% | 251.5hPa | 2.5V | 08:05:00 | 00:00:00 | 00:00:00 | |
| DN9WHV | 2026-09-01 08:24:34 | 52.78886 | 8.40915 | 77° | 75km/h | 10526m | -5.6m/s | -51.1°C | 38.0% | 251.3hPa | 2.5V | 08:05:00 | 00:00:00 | 00:00:00 | |
| DL1XH1-15 | 2026-09-01 08:24:32 | 52.78851 | 8.40707 | 84° | 66km/h | 10571m | -5.7m/s | -51.4°C | 41.2% | 249.5hPa | 2.5V | 08:05:20 | 01:46:50 | 00:00:00 | |
| DF8AY | 2026-09-01 08:24:31 | 52.78864 | 8.40806 | 70° | 62km/h | 10549m | -5.6m/s | -51.3°C | 43.5% | 250.4hPa | 2.5V | 08:05:55 | 01:46:54 | 00:00:00 | |
| AA1-15 | 2026-09-01 08:24:30 | 52.78859 | 8.40782 | 74° | 60km/h | 10554m | -5.6m/s | -51.3°C | 42.9% | 250.2hPa | 2.6V | 08:05:55 | 01:46:53 | 00:00:00 | |
| DL1XH-west | 2026-09-01 08:24:26 | 52.78849 | 8.40678 | 83° | 71km/h | 10577m | -5.7m/s | -51.4°C | 40.1% | 249.3hPa | 2.5V | 08:05:55 | 01:46:49 | 00:00:00 | |
| HSKMA3-T | 2026-09-01 08:24:25 | 52.78846 | 8.40648 | 81° | 75km/h | 10582m | -5.5m/s | -51.4°C | 39.3% | 249.1hPa | 2.6V | 08:05:55 | 01:46:48 | 00:00:00 | |
| DB0DAN | 2026-09-01 08:24:25 | 52.78846 | 8.40648 | 81° | 71km/h | 10582m | -5.5m/s | -51.4°C | 32.1% | 249.07hPa | 2.6V | 00:00:00 | 00:00:00 | 00:00:00 | |
| D01LWL | 2026-09-01 08:24:24 | 52.78839 | 8.40586 | 75° | 77km/h | 10593m | -5.5m/s | -51.4°C | 30.2% | 248.6hPa | 2.5V | 00:00:00 | 00:00:00 | 00:00:00 | |
| DL1XH1-15 | 2026-09-01 08:24:22 | 52.78805 | 8.40421 | 76° | 64km/h | 10627m | -5.5m/s | -51.7°C | 34% | 247.4hPa | 2.5V | 08:05:30 | 01:46:40 | 00:00:00 | |
| GOEST3-10 | 2026-09-01 08:24:22 | 52.78833 | 8.40556 | 73° | 69km/h | 10599m | -5.7m/s | -51.4°C | 36.4% | 248.5hPa | 2.5V | 00:00:00 | 00:00:00 | 00:00:00 | |
| DL1XH-15 | 2026-09-01 08:24:21 | 52.78802 | 8.40394 | 80° | 66km/h | 10632m | -5.3m/s | -51.7°C | 33.9% | 247.2hPa | 2.5V | 08:05:31 | 01:46:39 | 00:00:00 | |
| DF8AY | 2026-09-01 08:24:21 | 52.78827 | 8.40526 | 70° | 73km/h | 10605m | -5.7m/s | -51.6°C | 36.8% | 248.3hPa | 2.5V | 08:05:55 | 01:46:44 | 00:00:00 | |
| AA1-15 | 2026-09-01 08:24:19 | 52.78815 | 8.40472 | 70° | 66km/h | 10616m | -5.2m/s | -51.6°C | 35.5% | 247.8hPa | 2.7V | 08:05:55 | 01:46:42 | 00:00:00 | |
| DL1XH-west | 2026-09-01 08:24:15 | 52.78800 | 8.40366 | 82° | 69km/h | 10638m | -5.5m/s | -51.8°C | 34.3% | 247hPa | 2.5V | 08:05:55 | 01:46:38 | 00:00:00 | |
| HSKMA3-T | 2026-09-01 08:24:14 | 52.78797 | 8.40336 | 81° | 75km/h | 10643m | -5.6m/s | -51.8°C | 34.2% | 246.7hPa | 2.7V | 08:05:55 | 01:46:37 | 00:00:00 | |
| DB0NH | 2026-09-01 08:24:14 | 52.78797 | 8.40336 | 81° | 75km/h | 10643m | -5.6m/s | -51.8°C | 33.7% | 246.7hPa | 2.5V | 00:00:00 | 01:46:37 | 00:00:00 | |
| DN9WHV | 2026-09-01 08:24:13 | 52.78797 | 8.40336 | 82° | 75km/h | 10643m | -5.6m/s | -51.8°C | 27.0% | 246.7hPa | 2.5V | 08:05:00 | 00:00:00 | 00:00:00 | |
| DL1XH1-15 | 2026-09-01 08:24:12 | 52.78760 | 8.40125 | 74° | 69km/h | 10682m | -5.6m/s | -52.1°C | 33.3% | 245.3hPa | 2.5V | 08:05:40 | 01:46:30 | 00:00:00 | |
| GOEST3-10 | 2026-09-01 08:24:12 | 52.78789 | 8.40273 | 76° | 75km/h | 10655m | -5.7m/s | -51.9°C | 33.6% | 246.3hPa | 2.6V | 00:00:00 | 00:00:00 | 00:00:00 | |
| DL1XH-15 | 2026-09-01 08:24:11 | 52.78756 | 8.40097 | 77° | 69km/h | 10688m | -5.5m/s | -52.2°C | 33% | 245.1hPa | 2.6V | 08:05:41 | 01:46:29 | 00:00:00 | |
| DF8AY | 2026-09-01 08:24:10 | 52.78777 | 8.40211 | 71° | 77km/h | 10665m | -5.6m/s | -52°C | 33.5% | 245.9hPa | 2.5V | 08:05:55 | 01:46:33 | 00:00:00 | |
| DB0DAN | 2026-09-01 08:24:10 | 52.78777 | 8.40211 | 71° | 73km/h | 10666m | -5.6m/s | -52°C | 26.6% | 245.94hPa | 2.5V | 00:00:00 | 00:00:00 | 00:00:00 | |
| AA1-15 | 2026-09-01 08:24:09 | 52.78771 | 8.40181 | 70° | 73km/h | 10671m | -5.5m/s | -52.1°C | 33.5% | 245.8hPa | 2.7V | 08:05:55 | 01:46:32 | 00:00:00 | |
| DO2JMG | 2026-09-01 08:24:08 | 52.78765 | 8.40153 | 72° | 69km/h | 10677m | -5.7m/s | -52.1°C | 33.3% | 245.5hPa | 2.7V | 08:05:55 | 01:46:31 | 00:00:00 | |
| BIOWL1-15 | 2026-09-01 08:24:05 | 52.78753 | 8.40068 | 80° | 73km/h | 10693m | -5.5m/s | -52.2°C | 33.2% | 244.9hPa | 2.6V | 08:05:55 | 01:46:28 | 00:00:00 | |
| DL1XH-west | 2026-09-01 08:24:04 | 52.78749 | 8.40038 | 81° | 77km/h | 10699m | -5.5m/s | -52.2°C | 33.3% | 244.7hPa | 2.7V | 08:05:55 | 01:46:27 | 00:00:00 | |
| DL1XH1-15 | 2026-09-01 08:24:02 | 52.78715 | 8.39825 | 77° | 69km/h | 10738m | -5.6m/s | -52.4°C | 34.1% | 243.2hPa | 2.5V | 08:05:50 | 01:46:20 | 00:00:00 | |
| GOEST3-10 | 2026-09-01 08:24:02 | 52.78741 | 8.39974 | 76° | 75km/h | 10710m | -5.5m/s | -52.3°C | 33.6% | 244.2hPa | 2.5V | 00:00:00 | 00:00:00 | 00:00:00 | |
| DL1XH-15 | 2026-09-01 08:24:01 | 52.78712 | 8.39795 | 80° | 73km/h | 10743m | -5.7m/s | -52.5°C | 34.2% | 242.9hPa | 2.5V | 08:05:51 | 01:46:19 | 00:00:00 | |
| DF8AY | 2026-09-01 08:23:59 | 52.78725 | 8.39881 | 72° | 73km/h | 10727m | -5.6m/s | -52.4°C | 33.7% | 243.6hPa | 2.7V | 08:05:55 | 01:46:22 | 00:00:00 | |
| AA1-15 | 2026-09-01 08:23:58 | 52.78719 | 8.39853 | 74° | 69km/h | 10732m | -5.4m/s | -52.4°C | 33.7% | 243.4hPa | 2.7V | 08:05:55 | 01:46:21 | 00:00:00 | |
| DO2JMG | 2026-09-01 08:23:57 | 52.78715 | 8.39825 | 77° | 69km/h | 10738m | -5.6m/s | -52.4°C | 33.7% | 243.2hPa | 2.5V | 08:05:55 | 01:46:20 | 00:00:00 | |
| GOEST3-10 | 2026-09-01 08:23:57 | 52.78715 | 8.39825 | 78° | 77km/h | 10738m | -5.5m/s | -52.4°C | 34.1% | 243.2hPa | 2.6V | 00:00:00 | 01:46:20 | 00:00:00 | |
| DB0UT-7 | 2026-09-01 08:23:56 | 52.78712 | 8.39795 | 81° | 77km/h | 10744m | -5.6m/s | -52.4°C | 34.2% | 242.9hPa | 2.6V | 00:00:00 | 01:46:19 | 00:00:00 | |
| DM0DOS-11 | 2026-09-01 08:23:55 | 52.78681 | 8.39600 | 67° | 77km/h | 10777m | -5.5m/s | -52.6°C | 34.5% | 241.7hPa | 2.6V | 08:05:57 | 01:46:13 | 00:00:00 | |
| DB0DAN | 2026-09-01 08:23:55 | 52.78708 | 8.39764 | 81° | 75km/h | 10749m | -5.6m/s | -52.5°C | 27.3% | 242.79hPa | 2.5V | 00:00:00 | 00:00:00 | 00:00:00 | |
| BIOWL1-15 | 2026-09-01 08:23:54 | 52.78705 | 8.39731 | 79° | 82km/h | 10755m | -5.5m/s | -52.5°C | 34.1% | 242.5hPa | 2.7V | 08:05:55 | 01:46:17 | 00:00:00 | |
| D01LWL | 2026-09-01 08:23:53 | 52.78695 | 8.39664 | 73° | 82km/h | 10766m | -5.5m/s | -52.6°C | 27.5% | 242.1hPa | 2.5V | 00:00:00 | 00:00:00 | 00:00:00 | |
| DL1XH-west | 2026-09-01 08:23:53 | 52.78700 | 8.39698 | 76° | 84km/h | 10760m | -5.8m/s | -52.5°C | 34.2% | 242.3hPa | 2.6V | 08:05:55 | 01:46:16 | 00:00:00 | |
| GOEST3-10 | 2026-09-01 08:23:52 | 52.78695 | 8.39664 | 74° | 77km/h | 10766m | -5.5m/s | -52.5°C | 34.5% | 242.1hPa | 2.5V | 08:05:00 | 00:00:00 | 00:00:00 | |
| DL1XH-15 | 2026-09-01 08:23:51 | 52.78656 | 8.39492 | 74° | 64km/h | 10800m | -5.7m/s | -52.8°C | 35.3% | 240.8hPa | 2.5V | 08:06:01 | 01:46:09 | 00:00:00 | |
| DF8AY | 2026-09-01 08:23:49 | 52.78674 | 8.39571 | 68° | 73km/h | 10783m | -5.5m/s | -52.7°C | 34.7% | 241.5hPa | 2.7V | 08:06:46 | 01:46:12 | 00:00:00 | |
| AA1-15 | 2026-09-01 08:23:47 | 52.78661 | 8.39518 | 71° | 66km/h | 10794m | -6m/s | -52.8°C | 34.9% | 241hPa | 2.5V | 08:06:46 | 01:46:10 | 00:00:00 | |
| DO2JMG | 2026-09-01 08:23:46 | 52.78656 | 8.39492 | 74° | 64km/h | 10800m | -5.7m/s | -52.8°C | 35% | 240.8hPa | 2.5V | 08:06:46 | 01:46:09 | 00:00:00 | |
| DM0DOS-11 | 2026-09-01 08:23:45 | 52.78633 | 8.39311 | 72° | 84km/h | 10835m | -5.8m/s | -52.9°C | 36.3% | 239.5hPa | 2.5V | 08:06:07 | 01:46:03 | 00:00:00 | |
| BIOWL1-15 | 2026-09-01 08:23:44 | 52.78649 | 8.39438 | 80° | 69km/h | 10812m | -5.9m/s | -52.9°C | 35.4% | 240.4hPa | 2.7V | 08:06:46 | 01:46:07 | 00:00:00 | |
| HSKMA3-T | 2026-09-01 08:23:43 | 52.78646 | 8.39409 | 81° | 75km/h | 10818m | -5.9m/s | -52.9°C | 35.5% | 240.2hPa | 2.7V | 08:06:46 | 01:46:06 | 00:00:00 | |
| DL1XH-west | 2026-09-01 08:23:42 | 52.78642 | 8.39377 | 79° | 78km/h | 10824m | -5.4m/s | -52.9°C | 35.6% | 240hPa | 2.5V | 08:06:46 | 01:46:05 | 00:00:00 | |
| GOEST3-10 | 2026-09-01 08:23:42 | 52.78642 | 8.39377 | 80° | 82km/h | 10824m | -5.4m/s | -52.8°C | 36.3% | 239.9hPa | 2.5V | 00:00:00 | 00:00:00 | 00:00:00 | |
| DL1XH-15 | 2026-09-01 08:23:41 | 52.78602 | 8.39187 | 66° | 73km/h | 10859m | -5.7m/s | -53°C | 36.6% | 238.6hPa | 2.5V | 08:06:11 | 01:45:59 | 00:00:00 | |
| DB0DAN | 2026-09-01 08:23:40 | 52.78633 | 8.39311 | 73° | 80km/h | 10835m | -5.9m/s | -52.9°C | 29.1% | 239.52hPa | 2.5V | 00:00:00 | 00:00:00 | 00:00:00 | |
| DF8AY | 2026-09-01 08:23:39 | 52.78626 | 8.39278 | 69° | 84km/h | 10841m | -6.1m/s | -53°C | 35.9% | 239.3hPa | 2.7V | 08:06:46 | 01:46:02 | 00:00:00 | |
| AA1-15 | 2026-09-01 08:23:36 | 52.78602 | 8.39187 | 66° | 73km/h | 10859m | -5.7m/s | -53°C | 36.3% | 238.6hPa | 2.5V | 08:06:46 | 01:45:59 | 00:00:00 | |
| BIOWL1-15 | 2026-09-01 08:23:33 | 52.78584 | 8.39105 | 77° | 69km/h | 10876m | -5.8m/s | -53°C | 36.6% | 238hPa | 2.7V | 08:06:46 | 01:45:56 | 00:00:00 | |
| HSKMA3-T | 2026-09-01 08:23:32 | 52.78581 | 8.39076 | 80° | 73km/h | 10881m | -5.8m/s | -53.1°C | 36.6% | 237.8hPa | 2.5V | 08:06:46 | 01:45:55 | 00:00:00 | |
| DL1XH-west | 2026-09-01 08:23:31 | 52.78577 | 8.39045 | 81° | 78km/h | 10887m | -5.5m/s | -53.1°C | 36.6% | 237.6hPa | 2.5V | 08:06:46 | 01:45:54 | 00:00:00 | |
| DF8AY | 2026-09-01 08:23:29 | 52.78565 | 8.38943 | 75° | 88km/h | 10905m | -5.9m/s | -53.2°C | 37% | 236.9hPa | 2.7V | 08:06:46 | 01:45:51 | 00:00:00 | |
| AA1-15 | 2026-09-01 08:23:26 | 52.78552 | 8.38874 | 70° | 86km/h | 10917m | -5.6m/s | -53.2°C | 37.1% | 236.5hPa | 2.6V | 08:06:46 | 01:45:49 | 00:00:00 | |
| DO2JMG | 2026-09-01 08:23:25 | 52.78544 | 8.38841 | 68° | 82km/h | 10922m | -5.6m/s | -53.2°C | 37.2% | 236.3hPa | 2.6V | 08:06:46 | 01:45:48 | 00:00:00 | |
| DB0DAN | 2026-09-01 08:23:25 | 52.78544 | 8.38841 | 68° | 78km/h | 10922m | -5.6m/s | -53.2°C | 29.6% | 236.31hPa | 2.6V | 00:00:00 | 00:00:00 | 00:00:00 | |
| BIOWL1-15 | 2026-09-01 08:23:23 | 52.78530 | 8.38781 | 71° | 73km/h | 10933m | -5.6m/s | -53.3°C | 37.1% | 235.9hPa | 2.7V | 08:06:46 | 01:45:46 | 00:00:00 | |
| HSKMA3-T | 2026-09-01 08:23:22 | 52.78525 | 8.38753 | 75° | 71km/h | 10939m | -5.8m/s | -53.3°C | 37.2% | 235.7hPa | 2.5V | 08:06:46 | 01:45:45 | 00:00:00 | |
| GOEST3-10 | 2026-09-01 08:23:22 | 52.78525 | 8.38753 | 76° | 78km/h | 10939m | -5.7m/s | -53.2°C | 36.8% | 235.6hPa | 2.5V | 00:00:00 | 00:00:00 | 00:00:00 | |
| DL1XH-15 | 2026-09-01 08:23:21 | 52.78501 | 8.38551 | 74° | 89km/h | 10974m | -5.8m/s | -53.5°C | 37.9% | 234.4hPa | 2.5V | 08:06:31 | 01:45:39 | 00:00:00 | |
| DL1XH-west | 2026-09-01 08:23:21 | 52.78521 | 8.38723 | 79° | 73km/h | 10945m | -5.6m/s | -53.3°C | 37.1% | 235.5hPa | 2.5V | 08:06:46 | 01:45:44 | 00:00:00 | |
| DF8AY | 2026-09-01 08:23:17 | 52.78507 | 8.38587 | 78° | 89km/h | 10968m | -5.7m/s | -53.4°C | 37.4% | 234.7hPa | 2.5V | 08:06:46 | 01:45:40 | 00:00:00 | |
| GOEST3-10 | 2026-09-01 08:23:17 | 52.78506 | 8.38587 | 78° | 86km/h | 10969m | -5.7m/s | -53.4°C | 37.8% | 234.6hPa | 2.6V | 00:00:00 | 01:45:40 | 00:00:00 | |
| DF8AY-15 | 2026-09-01 08:23:16 | 52.78501 | 8.38551 | 75° | 51km/h | 10974m | -5.8m/s | -53.4°C | 37.9% | 234.3hPa | 2.6V | 00:00:00 | 01:45:39 | 00:00:00 | |
| DM0DOS-11 | 2026-09-01 08:23:15 | 52.78466 | 8.38362 | 78° | 71km/h | 11008m | -6.2m/s | -53.8°C | 37.5% | 233.2hPa | 2.6V | 08:06:37 | 01:45:33 | 00:00:00 | |
| AA1-15 | 2026-09-01 08:23:15 | 52.78495 | 8.38515 | 72° | 88km/h | 10980m | -5.7m/s | -53.6°C | 37.5% | 234.2hPa | 2.6V | 08:06:46 | 01:45:38 | 00:00:00 | |
| DO2JMG | 2026-09-01 08:23:14 | 52.78488 | 8.38482 | 71° | 84km/h | 10986m | -5.6m/s | -53.6°C | 37.5% | 234hPa | 2.7V | 08:06:46 | 01:45:37 | 00:00:00 | |
| BIOWL1-15 | 2026-09-01 08:23:13 | 52.78481 | 8.38450 | 70° | 78km/h | 10991m | -5.7m/s | -53.7°C | 37.4% | 233.8hPa | 2.7V | 08:06:46 | 01:45:36 | 00:00:00 | |
| HSKMA3-T | 2026-09-01 08:23:11 | 52.78470 | 8.38391 | 75° | 71km/h | 11002m | -5.7m/s | -53.8°C | 37.3% | 233.4hPa | 2.5V | 08:06:46 | 01:45:34 | 00:00:00 | |
| DL1XH-west | 2026-09-01 08:23:10 | 52.78466 | 8.38362 | 79° | 71km/h | 11008m | -6.2m/s | -53.8°C | 37.3% | 233.2hPa | 2.6V | 08:06:46 | 01:45:33 | 00:00:00 | |
| DB0DAN | 2026-09-01 08:23:10 | 52.78466 | 8.38362 | 79° | 68km/h | 11008m | -6.2m/s | -53.8°C | 29.9% | 233.16hPa | 2.6V | 00:00:00 | 00:00:00 | 00:00:00 | |
| DF8AY | 2026-09-01 08:23:07 | 52.78458 | 8.38266 | 84° | 86km/h | 11026m | -5.8m/s | -54°C | 37.3% | 232.5hPa | 2.5V | 08:06:46 | 01:45:30 | 00:00:00 | |
| GOEST3-10 | 2026-09-01 08:23:07 | 52.78458 | 8.38266 | 84° | 89km/h | 11026m | -5.7m/s | -53.9°C | 38.1% | 232.5hPa | 2.5V | 08:06:00 | 01:45:30 | 00:00:00 | |
| SONDE2-11 | 2026-09-01 08:23:06 | 52.78451 | 8.38193 | 78° | 89km/h | 11038m | -5.8m/s | -53.9°C | 30.0% | 232.1hPa | 2.6V | 00:00:00 | 00:00:00 | 00:00:00 | |
| DM0DOS-11 | 2026-09-01 08:23:05 | 52.78419 | 8.38026 | 71° | 73km/h | 11067m | -5.8m/s | -54.1°C | 37.5% | 231.1hPa | 2.6V | 08:06:47 | 01:45:23 | 00:00:00 | |
| AA1-15 | 2026-09-01 08:23:04 | 52.78445 | 8.38156 | 75° | 91km/h | 11044m | -5.9m/s | -54°C | 37.3% | 231.9hPa | 2.7V | 08:06:46 | 01:45:27 | 00:00:00 | |
| DL1NUX | 2026-09-01 08:23:04 | 52.78439 | 8.38120 | 71° | 88km/h | 11049m | -5.8m/s | -54°C | 37.7% | 231.7hPa | 2.7V | 08:06:44 | 01:45:26 | 00:00:00 | |
| DO2JMG | 2026-09-01 08:23:03 | 52.78439 | 8.38120 | 72° | 88km/h | 11049m | -5.8m/s | -54.1°C | 37.3% | 231.7hPa | 2.7V | 08:06:46 | 01:45:26 | 00:00:00 | |
| DL1XH1-15 | 2026-09-01 08:23:02 | 52.78407 | 8.37941 | 83° | 71km/h | 11085m | -5.8m/s | -54.2°C | 37.7% | 230.4hPa | 2.5V | 08:06:50 | 01:45:20 | 00:00:00 | |
| BIOWL1-15 | 2026-09-01 08:23:02 | 52.78432 | 8.38087 | 70° | 82km/h | 11055m | -5.9m/s | -54.1°C | 37.4% | 231.5hPa | 2.5V | 08:06:46 | 01:45:25 | 00:00:00 | |
| HSKMA3-T | 2026-09-01 08:23:01 | 52.78425 | 8.38056 | 70° | 77km/h | 11061m | -5.9m/s | -54.1°C | 37.3% | 231.3hPa | 2.5V | 08:06:46 | 01:45:24 | 00:00:00 | |
| DL1XH-west | 2026-09-01 08:22:59 | 52.78414 | 8.37998 | 76° | 69km/h | 11073m | -5.9m/s | -54.2°C | 37.4% | 230.8hPa | 2.7V | 08:07:37 | 01:45:22 | 00:00:00 | |
| DF8AY | 2026-09-01 08:22:57 | 52.78407 | 8.37941 | 84° | 71km/h | 11085m | -5.8m/s | -54.3°C | 37.6% | 230.4hPa | 2.5V | 08:07:37 | 01:45:20 | 00:00:00 | |
| DK9SH | 2026-09-01 08:22:57 | 52.78407 | 8.37940 | 85° | 71km/h | 11085m | -5.8m/s | -54.3°C | 30.0% | 230.4hPa | 2.6V | 08:07:00 | 00:00:00 | 00:00:00 | |
| DB0UT-7 | 2026-09-01 08:22:56 | 52.78406 | 8.37910 | 86° | 82km/h | 11091m | -5.6m/s | -54.3°C | 38.0% | 230.2hPa | 2.6V | 00:00:00 | 01:45:19 | 00:00:00 | |
| DM0DOS-11 | 2026-09-01 08:22:55 | 52.78385 | 8.37693 | 73° | 89km/h | 11126m | -6m/s | -54.5°C | 38.7% | 228.9hPa | 2.6V | 08:06:57 | 01:45:13 | 00:00:00 | |
| DB0DAN | 2026-09-01 08:22:55 | 52.78404 | 8.37877 | 86° | 78km/h | 11097m | -5.9m/s | -54.3°C | 30.1% | 229.99hPa | 2.6V | 00:00:00 | 00:00:00 | 00:00:00 | |
| DL1NUX | 2026-09-01 08:22:54 | 52.78400 | 8.37805 | 81° | 91km/h | 11108m | -6m/s | -54.4°C | 38.2% | 229.5hPa | 2.7V | 08:06:54 | 01:45:16 | 00:00:00 | |
| AA1-15 | 2026-09-01 08:22:53 | 52.78400 | 8.37805 | 82° | 91km/h | 11108m | -6m/s | -54.4°C | 37.9% | 229.5hPa | 2.7V | 08:07:37 | 01:45:16 | 00:00:00 | |
| DO2JMG | 2026-09-01 08:22:52 | 52.78396 | 8.37767 | 79° | 93km/h | 11115m | -5.9m/s | -54.4°C | 38% | 229.4hPa | 2.5V | 08:07:37 | 01:45:15 | 00:00:00 | |
| DL1XH-15 | 2026-09-01 08:22:52 | 52.78361 | 8.37566 | 76° | 71km/h | 11150m | -5.8m/s | -54.6°C | 38.7% | 228.1hPa | 2.5V | 08:07:01 | 01:45:09 | 00:00:00 | |
| BIOWL1-15 | 2026-09-01 08:22:51 | 52.78391 | 8.37729 | 76° | 91km/h | 11120m | -6.1m/s | -54.4°C | 38.1% | 229.2hPa | 2.5V | 08:07:37 | 01:45:14 | 00:00:00 | |
| HSKMA3-T | 2026-09-01 08:22:50 | 52.78385 | 8.37693 | 74° | 89km/h | 11126m | -6m/s | -54.5°C | 38.2% | 228.9hPa | 2.6V | 08:07:37 | 01:45:13 | 00:00:00 | |
| DL1XH-west | 2026-09-01 08:22:49 | 52.78378 | 8.37658 | 72° | 86km/h | 11133m | -5.8m/s | -54.6°C | 38.4% | 228.7hPa | 2.7V | 08:07:37 | 01:45:12 | 00:00:00 | |
| DF8AY | 2026-09-01 08:22:46 | 52.78361 | 8.37566 | 76° | 71km/h | 11150m | -5.8m/s | -54.7°C | 38.5% | 228.1hPa | 2.5V | 08:07:37 | 01:45:09 | 00:00:00 | |
| DM0DOS-11 | 2026-09-01 08:22:45 | 52.78347 | 8.37372 | 81° | 91km/h | 11186m | -5.9m/s | -54.9°C | 39.6% | 226.8hPa | 2.6V | 08:07:07 | 01:45:03 | 00:00:00 | |
| AA1-15 | 2026-09-01 08:22:43 | 52.78353 | 8.37477 | 86° | 77km/h | 11168m | -6.1m/s | -54.7°C | 38.7% | 227.4hPa | 2.7V | 08:07:37 | 01:45:06 | 00:00:00 | |
| DO2JMG | 2026-09-01 08:22:42 | 52.78351 | 8.37444 | 86° | 82km/h | 11174m | -6m/s | -54.8°C | 38.8% | 227.2hPa | 2.5V | 08:07:37 | 01:45:05 | 00:00:00 | |
| BIOWL1-15 | 2026-09-01 08:22:42 | 52.78347 | 8.37372 | 82° | 91km/h | 11186m | -5.9m/s | -54.9°C | 39% | 226.8hPa | 2.6V | 08:07:37 | 01:45:03 | 00:00:00 | |
| DF8AY | 2026-09-01 08:22:40 | 52.78318 | 8.37191 | 70° | 82km/h | 11216m | -6m/s | -55.1°C | 39.3% | 225.7hPa | 2.6V | 08:07:37 | 01:44:58 | 00:00:00 | |
| DB0DAN | 2026-09-01 08:22:40 | 52.78347 | 8.37372 | 82° | 88km/h | 11186m | -5.9m/s | -54.9°C | 31.4% | 226.81hPa | 2.6V | 00:00:00 | 00:00:00 | 00:00:00 | |
| HSKMA3-T | 2026-09-01 08:22:39 | 52.78343 | 8.37334 | 79° | 93km/h | 11192m | -6.2m/s | -54.9°C | 39.1% | 226.6hPa | 2.7V | 08:07:37 | 01:45:02 | 00:00:00 | |
| DL1XH-west | 2026-09-01 08:22:38 | 52.78338 | 8.37296 | 76° | 93km/h | 11198m | -6.1m/s | -55°C | 39.2% | 226.4hPa | 2.7V | 08:07:37 | 01:45:01 | 00:00:00 | |
| GOEST3-10 | 2026-09-01 08:22:37 | 52.78332 | 8.37259 | 74° | 82km/h | 11204m | -5.7m/s | -55.0°C | 39.7% | 226.1hPa | 2.6V | 00:00:00 | 01:45:00 | 00:00:00 | |
| DB0NH | 2026-09-01 08:22:36 | 52.78325 | 8.37224 | 72° | 80km/h | 11210m | -6.1m/s | -55.0°C | 39.7% | 225.9hPa | 2.6V | 00:00:00 | 01:44:59 | 00:00:00 | |
| DM0DOS-11 | 2026-09-01 08:22:35 | 52.78293 | 8.37045 | 82° | 71km/h | 11246m | -5.6m/s | -55.3°C | 40.8% | 224.7hPa | 2.6V | 08:07:17 | 01:44:53 | 00:00:00 | |
| DN9WHV | 2026-09-01 08:22:34 | 52.78318 | 8.37191 | 71° | 82km/h | 11216m | -6.0m/s | -55.1°C | 31.7% | 225.7hPa | 2.7V | 08:07:00 | 00:00:00 | 00:00:00 | |
| DO9LL-15 | 2026-09-01 08:22:33 | 52.78305 | 8.37130 | 72° | 78km/h | 11228m | -5.9m/s | -55.1°C | 39.8% | 225.3hPa | 2.7V | 00:00:00 | 01:44:56 | 00:00:00 | |
| DL1XH1-15 | 2026-09-01 08:22:32 | 52.78288 | 8.36947 | 83° | 86km/h | 11262m | -5.9m/s | -55.4°C | 41.7% | 224hPa | 2.7V | 08:07:20 | 01:44:50 | 00:00:00 | |
| AA1-15 | 2026-09-01 08:22:32 | 52.78300 | 8.37102 | 75° | 69km/h | 11234m | -6.3m/s | -55.2°C | 39.3% | 225.1hPa | 2.7V | 08:07:37 | 01:44:55 | 00:00:00 | |
| DO2JMG | 2026-09-01 08:22:31 | 52.78296 | 8.37074 | 79° | 69km/h | 11240m | -5.9m/s | -55.2°C | 39.5% | 224.8hPa | 2.7V | 08:07:37 | 01:44:54 | 00:00:00 | |
| BIOWL1-15 | 2026-09-01 08:22:29 | 52.78291 | 8.37014 | 85° | 77km/h | 11251m | -5.4m/s | -55.3°C | 39.8% | 224.5hPa | 2.6V | 08:07:37 | 01:44:52 | 00:00:00 | |
| HSKMA3-T | 2026-09-01 08:22:28 | 52.78290 | 8.36981 | 85° | 82km/h | 11257m | -5.6m/s | -55.4°C | 40% | 224.3hPa | 2.6V | 08:07:37 | 01:44:51 | 00:00:00 | |
| DL1XH-west | 2026-09-01 08:22:27 | 52.78288 | 8.36947 | 83° | 86km/h | 11262m | -5.9m/s | -55.4°C | 40.1% | 224hPa | 2.7V | 08:07:37 | 01:44:50 | 00:00:00 | |
| DF8AY | 2026-09-01 08:22:25 | 52.78280 | 8.36874 | 77° | 89km/h | 11274m | -6m/s | -55.4°C | 40.4% | 223.6hPa | 2.6V | 08:07:37 | 01:44:48 | 00:00:00 | |
| DM0DOS-11 | 2026-09-01 08:22:25 | 52.78249 | 8.36715 | 72° | 69km/h | 11304m | -6.2m/s | -55.7°C | 41.4% | 222.5hPa | 2.5V | 08:07:27 | 01:44:43 | 00:00:00 | |
| DL1NUX | 2026-09-01 08:22:24 | 52.78268 | 8.36805 | 70° | 84km/h | 11286m | -5.9m/s | -55.5°C | 41.7% | 223.2hPa | 2.5V | 08:07:24 | 01:44:46 | 00:00:00 | |
| SO1NDE-10 | 2026-09-01 08:22:23 | 52.78268 | 8.36805 | 71° | 78km/h | 11286m | -5.9m/s | -55.5°C | 41.7% | 223.2hPa | 2.7V | 00:00:00 | 01:44:46 | 00:00:00 | |
| DL1XH1-15 | 2026-09-01 08:22:22 | 52.78238 | 8.36629 | 83° | 75km/h | 11322m | -5.9m/s | -55.8°C | 41.9% | 222hPa | 2.7V | 08:07:30 | 01:44:40 | 00:00:00 | |
| GOEST3-10 | 2026-09-01 08:22:22 | 52.78261 | 8.36773 | 70° | 73km/h | 11292m | -6.1m/s | -55.5°C | 41.6% | 222.9hPa | 2.7V | 08:07:00 | 00:00:00 | 00:00:00 | |
| DL1XH-15 | 2026-09-01 08:22:21 | 52.78235 | 8.36596 | 83° | 80km/h | 11328m | -6.2m/s | -55.8°C | 42% | 221.8hPa | 2.7V | 08:07:31 | 01:44:39 | 00:00:00 | |
| AA1-15 | 2026-09-01 08:22:21 | 52.78254 | 8.36743 | 70° | 75km/h | 11298m | -6.1m/s | -55.6°C | 40.5% | 222.8hPa | 2.7V | 08:07:37 | 01:44:44 | 00:00:00 | |
| BIOWL1-15 | 2026-09-01 08:22:21 | 52.78244 | 8.36687 | 76° | 69km/h | 11310m | -6m/s | -55.7°C | 40.7% | 222.4hPa | 2.5V | 08:07:37 | 01:44:42 | 00:00:00 | |
| DO2JMG | 2026-09-01 08:22:20 | 52.78248 | 8.36715 | 72° | 69km/h | 11304m | -6.2m/s | -55.7°C | 40.6% | 222.6hPa | 2.5V | 08:07:37 | 01:44:43 | 00:00:00 | |
| HSKMA3-T | 2026-09-01 08:22:17 | 52.78237 | 8.36629 | 83° | 75km/h | 11322m | -5.9m/s | -55.8°C | 40.8% | 222hPa | 2.7V | 08:07:37 | 01:44:40 | 00:00:00 | |
| DL1XH-west | 2026-09-01 08:22:16 | 52.78235 | 8.36597 | 83° | 80km/h | 11328m | -6.2m/s | -55.8°C | 40.9% | 221.8hPa | 2.7V | 08:07:37 | 01:44:39 | 00:00:00 | |
| DJ2KF-10 | 2026-09-01 08:22:16 | 52.78235 | 8.36597 | 84° | 80km/h | 11328m | -6.2m/s | -55.7°C | 42.0% | 221.7hPa | 2.7V | 00:00:00 | 01:44:39 | 00:00:00 | |
| DM0DOS-11 | 2026-09-01 08:22:15 | 52.78207 | 8.36386 | 72° | 80km/h | 11364m | -6.2m/s | -55.8°C | 42% | 220.5hPa | 2.7V | 08:07:37 | 01:44:33 | 00:00:00 | |
| DF8AY | 2026-09-01 08:22:15 | 52.78233 | 8.36562 | 83° | 84km/h | 11334m | -5.9m/s | -55.7°C | 40.9% | 221.6hPa | 2.5V | 08:07:37 | 01:44:38 | 00:00:00 | |
| DL1NUX | 2026-09-01 08:22:14 | 52.78225 | 8.36490 | 77° | 89km/h | 11346m | -6.1m/s | -55.8°C | 42.4% | 221.1hPa | 2.6V | 08:07:34 | 01:44:36 | 00:00:00 | |
| DN9WHV | 2026-09-01 08:22:13 | 52.78230 | 8.36527 | 82° | 88km/h | 11340m | -6.1m/s | -55.8°C | 33.5% | 221.3hPa | 2.6V | 08:07:00 | 00:00:00 | 00:00:00 | |
| DL1XH1-15 | 2026-09-01 08:22:12 | 52.78193 | 8.36296 | 79° | 73km/h | 11382m | -6.2m/s | -55.9°C | 41.8% | 219.9hPa | 2.6V | 08:07:40 | 01:44:30 | 00:00:00 | |
| GOEST3-10 | 2026-09-01 08:22:12 | 52.78220 | 8.36454 | 75° | 80km/h | 11353m | -6.2m/s | -55.8°C | 42.4% | 220.9hPa | 2.6V | 00:00:00 | 00:00:00 | 00:00:00 | |
| DL1XH-15 | 2026-09-01 08:22:11 | 52.78190 | 8.36266 | 83° | 75km/h | 11389m | -6m/s | -55.9°C | 42% | 219.7hPa | 2.6V | 08:07:41 | 01:44:29 | 00:00:00 | |
| AA1-15 | 2026-09-01 08:22:10 | 52.78207 | 8.36386 | 72° | 80km/h | 11364m | -6.2m/s | -55.8°C | 40.9% | 220.5hPa | 2.7V | 08:07:37 | 01:44:33 | 00:00:00 | |
| DO2JMG | 2026-09-01 08:22:09 | 52.78201 | 8.36355 | 73° | 75km/h | 11371m | -5.9m/s | -55.8°C | 41% | 220.3hPa | 2.7V | 08:08:28 | 01:44:32 | 00:00:00 | |
| DL1XH-west | 2026-09-01 08:22:06 | 52.78190 | 8.36266 | 84° | 75km/h | 11389m | -6m/s | -55.9°C | 41% | 219.7hPa | 2.6V | 08:08:28 | 01:44:29 | 00:00:00 | |
| DF8AY | 2026-09-01 08:22:03 | 52.78184 | 8.36165 | 82° | 86km/h | 11407m | -6m/s | -56°C | 41.1% | 219.1hPa | 2.5V | 08:08:28 | 01:44:26 | 00:00:00 | |
| DL1XH1-15 | 2026-09-01 08:22:02 | 52.78152 | 8.35967 | 75° | 71km/h | 11442m | -6.2m/s | -56.3°C | 42.7% | 217.8hPa | 2.6V | 08:07:50 | 01:44:20 | 00:00:00 | |
| BIOWL1-15 | 2026-09-01 08:22:02 | 52.78157 | 8.35996 | 73° | 75km/h | 11436m | -6.3m/s | -56.3°C | 41% | 218hPa | 2.6V | 08:08:28 | 01:44:21 | 00:00:00 | |
| GOEST3-10 | 2026-09-01 08:22:02 | 52.78180 | 8.36129 | 80° | 82km/h | 11413m | -5.8m/s | -56.1°C | 43.0% | 218.8hPa | 2.6V | 00:00:00 | 00:00:00 | 00:00:00 | |
| DL1XH-15 | 2026-09-01 08:22:01 | 52.78149 | 8.35938 | 78° | 69km/h | 11449m | -6.1m/s | -56.4°C | 43.1% | 217.6hPa | 2.6V | 08:07:51 | 01:44:19 | 00:00:00 | |
| AA1-15 | 2026-09-01 08:21:59 | 52.78163 | 8.36027 | 72° | 80km/h | 11430m | -6.2m/s | -56.3°C | 41% | 218.2hPa | 2.7V | 08:08:28 | 01:44:22 | 00:00:00 | |
| DL1XH-west | 2026-09-01 08:21:56 | 52.78149 | 8.35938 | 79° | 69km/h | 11449m | -6.1m/s | -56.4°C | 41% | 217.6hPa | 2.6V | 08:08:28 | 01:44:19 | 00:00:00 | |
| HSKMA3-T | 2026-09-01 08:21:55 | 52.78146 | 8.35909 | 82° | 71km/h | 11455m | -6m/s | -56.4°C | 40.9% | 217.4hPa | 2.6V | 08:08:28 | 01:44:18 | 00:00:00 | |
| DM0DOS-11 | 2026-09-01 08:21:55 | 52.78130 | 8.35743 | 74° | 86km/h | 11485m | -6.2m/s | -56.4°C | 42% | 216.3hPa | 2.6V | 08:07:57 | 01:44:13 | 00:00:00 | |
| DF8AY | 2026-09-01 08:21:53 | 52.78142 | 8.35847 | 84° | 80km/h | 11467m | -6.2m/s | -56.5°C | 41% | 216.9hPa | 2.7V | 08:08:28 | 01:44:16 | 00:00:00 | |
| DO2SHX-10 | 2026-09-01 08:21:53 | 52.78142 | 8.35847 | 85° | 80km/h | 11467m | -6.1m/s | -56.4°C | 43.9% | 216.9hPa | 2.7V | 00:00:00 | 01:44:16 | 00:00:00 | |
| DL1XH1-15 | 2026-09-01 08:21:52 | 52.78111 | 8.35648 | 70° | 73km/h | 11504m | -6.2m/s | -56.5°C | 41.7% | 215.7hPa | 2.7V | 08:08:00 | 01:44:10 | 00:00:00 | |
| GOEST3-10 | 2026-09-01 08:21:52 | 52.78139 | 8.35813 | 82° | 84km/h | 11473m | -6.0m/s | -56.4°C | 43.5% | 216.7hPa | 2.7V | 00:00:00 | 00:00:00 | 00:00:00 | |
| DL1XH-15 | 2026-09-01 08:21:51 | 52.78105 | 8.35620 | 72° | 69km/h | 11510m | -6.2m/s | -56.6°C | 42.1% | 215.5hPa | 2.6V | 08:08:01 | 01:44:09 | 00:00:00 | |
| BIOWL1-15 | 2026-09-01 08:21:49 | 52.78111 | 8.35648 | 70° | 75km/h | 11504m | -6.2m/s | -56.5°C | 40.4% | 215.7hPa | 2.7V | 08:08:28 | 01:44:10 | 00:00:00 | |
| AA1-15 | 2026-09-01 08:21:48 | 52.78118 | 8.35678 | 70° | 78km/h | 11497m | -6.3m/s | -56.5°C | 40.4% | 215.9hPa | 2.7V | 08:08:28 | 01:44:11 | 00:00:00 | |
| DL1XH-west | 2026-09-01 08:21:46 | 52.78105 | 8.35620 | 73° | 69km/h | 11510m | -6.2m/s | -56.6°C | 40.4% | 215.5hPa | 2.6V | 08:08:28 | 01:44:09 | 00:00:00 | |
| HSKMA3-T | 2026-09-01 08:21:44 | 52.78098 | 8.35565 | 82° | 68km/h | 11522m | -6m/s | -56.6°C | 40.3% | 215.1hPa | 2.6V | 08:08:28 | 01:44:07 | 00:00:00 | |
| DF8AY | 2026-09-01 08:21:42 | 52.78094 | 8.35506 | 86° | 77km/h | 11535m | -6.4m/s | -56.6°C | 40.3% | 214.7hPa | 2.7V | 08:08:28 | 01:44:05 | 00:00:00 | |
| DL1XH1-15 | 2026-09-01 08:21:42 | 52.78075 | 8.35334 | 71° | 84km/h | 11567m | -6m/s | -56.7°C | 41.4% | 213.5hPa | 2.7V | 08:08:10 | 01:44:00 | 00:00:00 | |
| GOEST3-10 | 2026-09-01 08:21:42 | 52.78094 | 8.35506 | 87° | 84km/h | 11535m | -6.3m/s | -56.6°C | 43.2% | 214.6hPa | 2.7V | 00:00:00 | 00:00:00 | 00:00:00 | |
| DL1XH-15 | 2026-09-01 08:21:41 | 52.78069 | 8.35302 | 69° | 80km/h | 11573m | -6.2m/s | -56.7°C | 40.9% | 213.4hPa | 2.7V | 08:08:11 | 01:43:59 | 00:00:00 | |
| DB0DAN | 2026-09-01 08:21:40 | 52.78090 | 8.35439 | 82° | 80km/h | 11548m | -6.7m/s | -56.6°C | 33.5% | 214.21hPa | 2.6V | 00:00:00 | 00:00:00 | 00:00:00 | |
| DD8BA-10 | 2026-09-01 08:21:39 | 52.78086 | 8.35403 | 80° | 77km/h | 11554m | -6.3m/s | -56.5°C | 42.2% | 213.9hPa | 2.6V | 00:00:00 | 00:00:00 | 00:00:00 | |
| DL1NUX | 2026-09-01 08:21:38 | 52.78049 | 8.35216 | 73° | 68km/h | 11592m | -6.3m/s | -56.7°C | 40.6% | 212.7hPa | 2.6V | 08:08:14 | 01:43:56 | 00:00:00 | |
| AA1-15 | 2026-09-01 08:21:37 | 52.78076 | 8.35334 | 72° | 84km/h | 11567m | -6m/s | -56.7°C | 39.6% | 213.5hPa | 2.7V | 08:08:28 | 01:44:00 | 00:00:00 | |
| DL1XH-west | 2026-09-01 08:21:35 | 52.78061 | 8.35272 | 68° | 75km/h | 11579m | -6.3m/s | -56.7°C | 39.3% | 213.2hPa | 2.7V | 08:08:28 | 01:43:58 | 00:00:00 | |
| HSKMA3-T | 2026-09-01 08:21:33 | 52.78049 | 8.35216 | 73° | 68km/h | 11592m | -6.4m/s | -56.7°C | 39% | 212.8hPa | 2.6V | 08:08:28 | 01:43:56 | 00:00:00 | |
| DF8AY | 2026-09-01 08:21:32 | 52.78045 | 8.35189 | 78° | 68km/h | 11598m | -6m/s | -56.8°C | 38.9% | 212.5hPa | 2.6V | 08:08:28 | 01:43:55 | 00:00:00 | |
| GOEST3-10 | 2026-09-01 08:21:32 | 52.78045 | 8.35189 | 79° | 77km/h | 11598m | -6.0m/s | -56.7°C | 40.9% | 212.5hPa | 2.6V | 00:00:00 | 00:00:00 | 00:00:00 | |
| DL1XH-15 | 2026-09-01 08:21:31 | 52.78027 | 8.34988 | 76° | 91km/h | 11635m | -6.1m/s | -56.9°C | 40.9% | 211.3hPa | 2.6V | 08:08:21 | 01:43:49 | 00:00:00 | |
| BIOWL1-15 | 2026-09-01 08:21:29 | 52.78032 | 8.35025 | 79° | 89km/h | 11629m | -6.4m/s | -56.9°C | 38.4% | 211.5hPa | 2.6V | 08:08:28 | 01:43:50 | 00:00:00 | |
| DD8BA-10 | 2026-09-01 08:21:29 | 52.78038 | 8.35097 | 84° | 84km/h | 11616m | -6.3m/s | -56.8°C | 41.1% | 211.9hPa | 2.7V | 00:00:00 | 00:00:00 | 00:00:00 | |
| DL1NUX | 2026-09-01 08:21:28 | 52.78007 | 8.34885 | 70° | 80km/h | 11654m | -6.2m/s | -57.1°C | 41.3% | 210.6hPa | 2.7V | 08:08:24 | 01:43:46 | 00:00:00 | |
| AA1-15 | 2026-09-01 08:21:26 | 52.78027 | 8.34988 | 76° | 91km/h | 11635m | -6.1m/s | -56.9°C | 38.3% | 211.3hPa | 2.6V | 08:08:28 | 01:43:49 | 00:00:00 | |
| DB0DAN | 2026-09-01 08:21:25 | 52.78021 | 8.34952 | 73° | 86km/h | 11642m | -6.3m/s | -56.9°C | 31.6% | 211.08hPa | 2.7V | 00:00:00 | 00:00:00 | 00:00:00 | |
| DL1XH-west | 2026-09-01 08:21:24 | 52.78014 | 8.34917 | 71° | 86km/h | 11648m | -6.3m/s | -57°C | 37.9% | 210.9hPa | 2.7V | 08:08:28 | 01:43:47 | 00:00:00 | |
| HSKMA3-T | 2026-09-01 08:21:22 | 52.78001 | 8.34853 | 73° | 77km/h | 11660m | -6m/s | -57°C | 37.8% | 210.4hPa | 2.6V | 08:08:28 | 01:43:45 | 00:00:00 | |
| DO2SHX-10 | 2026-09-01 08:21:22 | 52.78001 | 8.34853 | 74° | 75km/h | 11660m | -6.0m/s | -56.9°C | 41.1% | 210.4hPa | 2.7V | 00:00:00 | 01:43:45 | 00:00:00 | |
| DD1CC3-15 | 2026-09-01 08:21:21 | 52.78001 | 8.34853 | 74° | 77km/h | 11660m | -6.0m/s | -57.0°C | 32.2% | 210.4hPa | 2.7V | 08:08:00 | 00:00:00 | 00:00:00 | |
| BIOWL7-15 | 2026-09-01 08:21:20 | 52.77996 | 8.34823 | 78° | 73km/h | 11667m | -6.2m/s | -57.0°C | 32.0% | 210.2hPa | 2.7V | 00:00:00 | 00:00:00 | 00:00:00 | |
| DL3AQ-11 | 2026-09-01 08:21:19 | 52.77988 | 8.34728 | 85° | 82km/h | 11685m | -6.1m/s | -56.7°C | 31.2% | 209.6hPa | 2.7V | 00:00:00 | 00:00:00 | 00:00:00 | |
| DL1NUX | 2026-09-01 08:21:18 | 52.77968 | 8.34539 | 73° | 91km/h | 11716m | -6.3m/s | -56.6°C | 38% | 208.5hPa | 2.7V | 08:08:34 | 01:43:36 | 00:00:00 | |
| DO2JMG | 2026-09-01 08:21:16 | 52.77984 | 8.34654 | 82° | 93km/h | 11697m | -6.4m/s | -56.5°C | 37.3% | 209.2hPa | 2.6V | 08:09:19 | 01:43:39 | 00:00:00 | |
| AA1-15 | 2026-09-01 08:21:15 | 52.77980 | 8.34615 | 79° | 95km/h | 11704m | -6.4m/s | -56.5°C | 37.1% | 209hPa | 2.6V | 08:09:19 | 01:43:38 | 00:00:00 | |
| DL1XH-west | 2026-09-01 08:21:14 | 52.77975 | 8.34576 | 76° | 95km/h | 11710m | -6.2m/s | -56.6°C | 36.9% | 208.8hPa | 2.7V | 08:09:19 | 01:43:37 | 00:00:00 | |
| DN9WHV | 2026-09-01 08:21:13 | 52.77975 | 8.34576 | 77° | 95km/h | 11710m | -6.2m/s | -56.6°C | 29.9% | 208.8hPa | 2.6V | 08:09:00 | 00:00:00 | 00:00:00 | |
| DL1XH1-15 | 2026-09-01 08:21:12 | 52.77941 | 8.34345 | 87° | 78km/h | 11754m | -6.3m/s | -56.7°C | 36.7% | 207.4hPa | 2.6V | 08:08:40 | 01:43:30 | 00:00:00 | |
| HSKMA3-T | 2026-09-01 08:21:11 | 52.77955 | 8.34470 | 72° | 82km/h | 11729m | -6.2m/s | -56.6°C | 36.3% | 208.2hPa | 2.6V | 08:09:19 | 01:43:34 | 00:00:00 | |
| DL4XJ-10 | 2026-09-01 08:21:11 | 52.77955 | 8.34470 | 73° | 84km/h | 11729m | -6.1m/s | -55.6°C | 0% | 0hPa | 2.7V | 00:00:00 | 00:00:00 | 00:00:00 | |
| DF4FW | 2026-09-01 08:21:10 | 52.77955 | 8.34470 | 73° | 82km/h | 11729m | -6.2m/s | -56.6°C | 28.7% | 208.1hPa | 2.7V | 00:00:00 | 00:00:00 | 00:00:00 | |
| DD8BA-10 | 2026-09-01 08:21:09 | 52.77945 | 8.34407 | 80° | 88km/h | 11742m | -6.2m/s | -56.6°C | 36.6% | 207.7hPa | 2.7V | 00:00:00 | 00:00:00 | 00:00:00 | |
| DL1NUX | 2026-09-01 08:21:08 | 52.77937 | 8.34198 | 83° | 97km/h | 11780m | -6m/s | -56.9°C | 36.8% | 206.5hPa | 2.7V | 08:08:44 | 01:43:26 | 00:00:00 | |
| BIOWL1-15 | 2026-09-01 08:21:05 | 52.77940 | 8.34275 | 88° | 88km/h | 11767m | -6.5m/s | -56.8°C | 35.3% | 206.9hPa | 2.6V | 08:09:19 | 01:43:28 | 00:00:00 | |
| AA1-15 | 2026-09-01 08:21:04 | 52.77938 | 8.34237 | 87° | 93km/h | 11774m | -6.1m/s | -56.8°C | 35% | 206.8hPa | 2.7V | 08:09:19 | 01:43:27 | 00:00:00 | |
| DL1XH-west | 2026-09-01 08:21:03 | 52.77936 | 8.34198 | 83° | 97km/h | 11780m | -6.1m/s | -56.9°C | 34.9% | 206.5hPa | 2.7V | 08:09:19 | 01:43:26 | 00:00:00 | |
| DO2SHX-10 | 2026-09-01 08:21:03 | 52.77936 | 8.34198 | 84° | 93km/h | 11780m | -6.0m/s | -56.8°C | 36.8% | 206.4hPa | 2.6V | 00:00:00 | 01:43:26 | 00:00:00 | |
| DL1XH1-15 | 2026-09-01 08:21:02 | 52.77909 | 8.33981 | 80° | 77km/h | 11816m | -6m/s | -57.1°C | 35% | 205.3hPa | 2.6V | 08:08:50 | 01:43:20 | 00:00:00 | |
| HSKMA3-T | 2026-09-01 08:21:01 | 52.77928 | 8.34119 | 77° | 95km/h | 11792m | -6.3m/s | -57°C | 34.4% | 206.1hPa | 2.6V | 08:09:19 | 01:43:24 | 00:00:00 | |
| DF8AY | 2026-09-01 08:21:00 | 52.77923 | 8.34082 | 75° | 91km/h | 11798m | -6.3m/s | -57.1°C | 34.1% | 205.9hPa | 2.7V | 08:09:19 | 01:43:23 | 00:00:00 | |
| DD8BA-10 | 2026-09-01 08:20:59 | 52.77917 | 8.34046 | 76° | 84km/h | 11805m | -6.2m/s | -57.0°C | 35.8% | 205.6hPa | 2.7V | 00:00:00 | 00:00:00 | 00:00:00 | |
| DL1NUX | 2026-09-01 08:20:58 | 52.77904 | 8.33846 | 88° | 88km/h | 11841m | -6.3m/s | -57.2°C | 34.9% | 204.5hPa | 2.7V | 08:08:54 | 01:43:16 | 00:00:00 | |
| BIOWL1-15 | 2026-09-01 08:20:56 | 52.77905 | 8.33882 | 89° | 84km/h | 11834m | -6.4m/s | -57.2°C | 32.1% | 204.7hPa | 2.7V | 08:09:19 | 01:43:17 | 00:00:00 | |
| DO2JMG | 2026-09-01 08:20:55 | 52.77905 | 8.33916 | 88° | 80km/h | 11829m | -5.8m/s | -57.2°C | 32.4% | 204.9hPa | 2.6V | 08:09:19 | 01:43:18 | 00:00:00 | |
| DL1XH-west | 2026-09-01 08:20:53 | 52.77904 | 8.33846 | 89° | 88km/h | 11841m | -6.3m/s | -57.2°C | 31.9% | 204.5hPa | 2.7V | 08:09:19 | 01:43:16 | 00:00:00 | |
| SO1NDE-10 | 2026-09-01 08:20:53 | 52.77904 | 8.33846 | 89° | 80km/h | 11841m | -6.2m/s | -57.1°C | 34.9% | 204.4hPa | 2.7V | 00:00:00 | 01:43:16 | 00:00:00 | |
| DL1XH1-15 | 2026-09-01 08:20:52 | 52.77887 | 8.33630 | 81° | 77km/h | 11878m | -6.5m/s | -57.3°C | 33.1% | 203.3hPa | 2.7V | 08:09:00 | 01:43:10 | 00:00:00 | |
| HSKMA3-T | 2026-09-01 08:20:50 | 52.77899 | 8.33733 | 81° | 89km/h | 11859m | -6.1m/s | -57.3°C | 31% | 203.9hPa | 2.5V | 08:09:19 | 01:43:13 | 00:00:00 | |
| DJ2DS-15 | 2026-09-01 08:20:50 | 52.77899 | 8.33732 | 81° | 78km/h | 11860m | -6.0m/s | -57.2°C | 34.3% | 203.9hPa | 2.5V | 08:08:00 | 01:43:13 | 00:00:00 | |
| DO2SHX-10 | 2026-09-01 08:20:49 | 52.77895 | 8.33696 | 80° | 82km/h | 11866m | -6.1m/s | -57.3°C | 34.0% | 203.6hPa | 2.6V | 00:00:00 | 01:43:12 | 00:00:00 | |
| DL1NUX | 2026-09-01 08:20:48 | 52.77885 | 8.33498 | 91° | 84km/h | 11903m | -6.1m/s | -56.9°C | 31.3% | 202.4hPa | 2.6V | 08:09:04 | 01:43:06 | 00:00:00 | |
| BIOWL1-15 | 2026-09-01 08:20:44 | 52.77884 | 8.33533 | 91° | 80km/h | 11897m | -6.2m/s | -56.9°C | 28.9% | 202.7hPa | 2.5V | 08:09:19 | 01:43:07 | 00:00:00 | |
| DL1XH-west | 2026-09-01 08:20:42 | 52.77885 | 8.33462 | 89° | 88km/h | 11909m | -6.2m/s | -56.8°C | 28.2% | 202.3hPa | 2.6V | 08:09:19 | 01:43:05 | 00:00:00 | |
| GOEST3-10 | 2026-09-01 08:20:42 | 52.77885 | 8.33462 | 90° | 84km/h | 11909m | -6.1m/s | -56.8°C | 31.1% | 202.3hPa | 2.6V | 00:00:00 | 00:00:00 | 00:00:00 | |
| DL1XH-15 | 2026-09-01 08:20:41 | 52.77871 | 8.33264 | 83° | 68km/h | 11947m | -6.4m/s | -56.6°C | 27.8% | 201.1hPa | 2.6V | 08:09:11 | 01:42:59 | 00:00:00 | |
| HSKMA3-T | 2026-09-01 08:20:40 | 52.77883 | 8.33389 | 84° | 86km/h | 11922m | -6.2m/s | -56.8°C | 27.5% | 201.9hPa | 2.7V | 08:09:19 | 01:43:03 | 00:00:00 | |
| DF8AY | 2026-09-01 08:20:39 | 52.77880 | 8.33355 | 81° | 82km/h | 11928m | -6.1m/s | -56.8°C | 27% | 201.7hPa | 2.5V | 08:09:19 | 01:43:02 | 00:00:00 | |
| DO2SHX-10 | 2026-09-01 08:20:38 | 52.77876 | 8.33322 | 80° | 71km/h | 11934m | -6.1m/s | -56.7°C | 28.2% | 201.5hPa | 2.5V | 00:00:00 | 01:43:01 | 00:00:00 | |
| GOEST3-10 | 2026-09-01 08:20:37 | 52.77873 | 8.33292 | 81° | 69km/h | 11940m | -6.3m/s | -56.6°C | 27.7% | 201.3hPa | 2.6V | 00:00:00 | 01:43:00 | 00:00:00 | |
| DB0NH | 2026-09-01 08:20:36 | 52.77871 | 8.33264 | 84° | 75km/h | 11947m | -6.4m/s | -56.5°C | 27.8% | 201.1hPa | 2.6V | 00:00:00 | 01:42:59 | 00:00:00 | |
| DM0DOS-11 | 2026-09-01 08:20:35 | 52.77873 | 8.33078 | 87° | 88km/h | 11984m | -6m/s | -56.2°C | 25.5% | 199.9hPa | 2.6V | 08:09:17 | 01:42:53 | 00:00:00 | |
| BIOWL1-15 | 2026-09-01 08:20:34 | 52.77870 | 8.33208 | 92° | 68km/h | 11959m | -6.3m/s | -56.3°C | 25.1% | 200.7hPa | 2.7V | 08:09:19 | 01:42:57 | 00:00:00 | |
| DF8AY | 2026-09-01 08:20:33 | 52.77869 | 8.33007 | 80° | 84km/h | 11996m | -6.3m/s | -56.1°C | 23.4% | 199.5hPa | 2.7V | 08:09:19 | 01:42:51 | 00:00:00 | |
| DL1XH-west | 2026-09-01 08:20:32 | 52.77872 | 8.33147 | 95° | 78km/h | 11972m | -6m/s | -56.1°C | 24.5% | 200.3hPa | 2.6V | 08:09:19 | 01:42:55 | 00:00:00 | |
| HSKMA3-T | 2026-09-01 08:20:30 | 52.77873 | 8.33078 | 88° | 88km/h | 11984m | -6m/s | -56.2°C | 24.1% | 199.9hPa | 2.6V | 08:09:19 | 01:42:53 | 00:00:00 | |
| DJ2DS-15 | 2026-09-01 08:20:30 | 52.77873 | 8.33078 | 88° | 75km/h | 11984m | -6.0m/s | -56.1°C | 25.5% | 199.9hPa | 2.6V | 00:00:00 | 01:42:53 | 00:00:00 | |
| DO2SHX-10 | 2026-09-01 08:20:29 | 52.77872 | 8.33042 | 85° | 84km/h | 11990m | -6.1m/s | -56.0°C | 24.8% | 199.7hPa | 2.6V | 08:09:00 | 01:42:52 | 00:00:00 | |
| DL1NUX | 2026-09-01 08:20:28 | 52.77850 | 8.32861 | 80° | 62km/h | 12027m | -6.2m/s | -56.2°C | 23.2% | 198.5hPa | 2.6V | 08:09:24 | 01:42:46 | 00:00:00 | |
| GOEST3-10 | 2026-09-01 08:20:27 | 52.77865 | 8.32973 | 78° | 69km/h | 12002m | -6.4m/s | -56.1°C | 23.9% | 199.3hPa | 2.7V | 00:00:00 | 01:42:50 | 00:00:00 | |
| DO2SHX-10 | 2026-09-01 08:20:26 | 52.77860 | 8.32942 | 77° | 69km/h | 12009m | -6.3m/s | -56.1°C | 23.7% | 199.1hPa | 2.7V | 00:00:00 | 01:42:49 | 00:00:00 | |
| DM0DOS-11 | 2026-09-01 08:20:25 | 52.77845 | 8.32780 | 87° | 71km/h | 12046m | -6.1m/s | -56.1°C | 23% | 197.9hPa | 2.7V | 08:09:27 | 01:42:43 | 00:00:00 | |
| DO2JMG | 2026-09-01 08:20:24 | 52.77852 | 8.32887 | 78° | 64km/h | 12021m | -6.2m/s | -56.1°C | 22.3% | 198.7hPa | 2.6V | 08:10:10 | 01:42:47 | 00:00:00 | |
| BIOWL1-15 | 2026-09-01 08:20:23 | 52.77849 | 8.32861 | 81° | 62km/h | 12027m | -6.2m/s | -56.2°C | 22% | 198.5hPa | 2.6V | 08:10:10 | 01:42:46 | 00:00:00 | |
| SO1NDE-10 | 2026-09-01 08:20:23 | 52.77849 | 8.32861 | 81° | 78km/h | 12027m | -6.2m/s | -56.1°C | 23.2% | 198.5hPa | 2.6V | 00:00:00 | 01:42:46 | 00:00:00 | |
| DL1XH1-15 | 2026-09-01 08:20:22 | 52.77839 | 8.32684 | 79° | 82km/h | 12064m | -6.2m/s | -56.2°C | 22% | 197.4hPa | 2.6V | 08:09:30 | 01:42:40 | 00:00:00 | |
| AA1-15 | 2026-09-01 08:20:22 | 52.77847 | 8.32835 | 84° | 62km/h | 12034m | -6.3m/s | -56.1°C | 21.8% | 198.3hPa | 2.6V | 08:10:10 | 01:42:45 | 00:00:00 | |
| DL1XH-west | 2026-09-01 08:20:21 | 52.77846 | 8.32809 | 87° | 66km/h | 12040m | -6.3m/s | -56.2°C | 21.6% | 198.1hPa | 2.7V | 08:10:10 | 01:42:44 | 00:00:00 | |
| HSKMA3-T | 2026-09-01 08:20:19 | 52.77844 | 8.32750 | 86° | 77km/h | 12052m | -6m/s | -56.2°C | 21.2% | 197.8hPa | 2.7V | 08:10:10 | 01:42:42 | 00:00:00 | |
| DF8AY | 2026-09-01 08:20:17 | 52.77839 | 8.32684 | 80° | 82km/h | 12064m | -6.2m/s | -56.2°C | 20.5% | 197.4hPa | 2.6V | 08:10:10 | 01:42:40 | 00:00:00 | |
| BIOWL1-15 | 2026-09-01 08:20:16 | 52.77812 | 8.32528 | 72° | 69km/h | 12096m | -6.1m/s | -56.4°C | 18.8% | 196.4hPa | 2.7V | 08:10:10 | 01:42:35 | 00:00:00 | |
| DM0DOS-11 | 2026-09-01 08:20:15 | 52.77801 | 8.32443 | 82° | 75km/h | 12114m | -6.1m/s | -56.2°C | 19.4% | 195.8hPa | 2.6V | 08:09:38 | 01:42:32 | 00:00:00 | |
| DO2JMG | 2026-09-01 08:20:13 | 52.77818 | 8.32557 | 71° | 73km/h | 12090m | -6.3m/s | -56.3°C | 19.1% | 196.6hPa | 2.7V | 08:10:10 | 01:42:36 | 00:00:00 | |
| DL1XH1-15 | 2026-09-01 08:20:12 | 52.77795 | 8.32377 | 80° | 84km/h | 12127m | -6.6m/s | -56°C | 18.4% | 195.4hPa | 2.7V | 08:09:40 | 01:42:30 | 00:00:00 | |
| GOEST3-10 | 2026-09-01 08:20:12 | 52.77812 | 8.32528 | 73° | 73km/h | 12097m | -6.0m/s | -56.3°C | 20.3% | 196.3hPa | 2.7V | 00:00:00 | 00:00:00 | 00:00:00 | |
| DL1XH-15 | 2026-09-01 08:20:11 | 52.77791 | 8.32342 | 77° | 88km/h | 12134m | -6.4m/s | -55.9°C | 18% | 195.3hPa | 2.7V | 08:09:41 | 01:42:29 | 00:00:00 | |
| AA1-15 | 2026-09-01 08:20:11 | 52.77807 | 8.32501 | 75° | 68km/h | 12102m | -5.9m/s | -56.4°C | 18.4% | 196.2hPa | 2.5V | 08:10:10 | 01:42:34 | 00:00:00 | |
| DL1XH-west | 2026-09-01 08:20:10 | 52.77803 | 8.32473 | 80° | 69km/h | 12108m | -6.1m/s | -56.3°C | 18.1% | 196hPa | 2.6V | 08:10:10 | 01:42:33 | 00:00:00 | |
| DJ2DS-15 | 2026-09-01 08:20:10 | 52.77803 | 8.32473 | 80° | 86km/h | 12108m | -6.0m/s | -56.3°C | 19.9% | 196.0hPa | 2.6V | 00:00:00 | 01:42:33 | 00:00:00 | |
| DD8BA-10 | 2026-09-01 08:20:09 | 52.77801 | 8.32443 | 83° | 82km/h | 12115m | -6.1m/s | -56.2°C | 19.4% | 195.8hPa | 2.6V | 00:00:00 | 00:00:00 | 00:00:00 | |
| DL1NUX | 2026-09-01 08:20:08 | 52.77771 | 8.32237 | 68° | 86km/h | 12153m | -6.2m/s | -56°C | 17.7% | 194.6hPa | 2.6V | 08:09:44 | 01:42:26 | 00:00:00 | |
| HSKMA3-T | 2026-09-01 08:20:08 | 52.77798 | 8.32411 | 83° | 80km/h | 12121m | -6.4m/s | -56.1°C | 17.2% | 195.7hPa | 2.6V | 08:10:10 | 01:42:31 | 00:00:00 | |
| DF8AY | 2026-09-01 08:20:06 | 52.77791 | 8.32342 | 77° | 88km/h | 12134m | -6.4m/s | -55.9°C | 16.5% | 195.3hPa | 2.7V | 08:10:10 | 01:42:29 | 00:00:00 | |
| BIOWL1-15 | 2026-09-01 08:20:05 | 52.77763 | 8.32205 | 68° | 80km/h | 12159m | -6.3m/s | -55.8°C | 15.5% | 194.5hPa | 2.6V | 08:10:10 | 01:42:25 | 00:00:00 | |
| DO2SHX-10 | 2026-09-01 08:20:05 | 52.77785 | 8.32306 | 74° | 88km/h | 12140m | -6.2m/s | -55.8°C | 17.7% | 195.0hPa | 2.7V | 00:00:00 | 01:42:28 | 00:00:00 | |
| DM0DOS-11 | 2026-09-01 08:20:04 | 52.77745 | 8.32117 | 77° | 73km/h | 12177m | -6.3m/s | -55.7°C | 16.4% | 194hPa | 2.7V | 08:09:48 | 01:42:22 | 00:00:00 | |
| DO2JMG | 2026-09-01 08:20:03 | 52.77771 | 8.32237 | 68° | 86km/h | 12153m | -6.2m/s | -56°C | 15.7% | 194.6hPa | 2.6V | 08:10:10 | 01:42:26 | 00:00:00 | |
| DL1XH1-15 | 2026-09-01 08:20:02 | 52.77739 | 8.32053 | 82° | 82km/h | 12190m | -6.3m/s | -55.6°C | 16.1% | 193.6hPa | 2.6V | 08:09:50 | 01:42:20 | 00:00:00 | |
| DO2SHX-10 | 2026-09-01 08:20:02 | 52.77763 | 8.32205 | 68° | 77km/h | 12159m | -6.3m/s | -55.7°C | 17.5% | 194.4hPa | 2.6V | 08:09:00 | 01:42:25 | 00:00:00 | |
| DL1XH-15 | 2026-09-01 08:20:01 | 52.77736 | 8.32018 | 82° | 88km/h | 12196m | -6.3m/s | -55.6°C | 15.9% | 193.4hPa | 2.5V | 08:09:51 | 01:42:19 | 00:00:00 | |
| DL1XH-west | 2026-09-01 08:20:00 | 52.77749 | 8.32146 | 73° | 73km/h | 12171m | -6m/s | -55.7°C | 14.9% | 194.1hPa | 2.7V | 08:10:10 | 01:42:23 | 00:00:00 | |
| HSKMA3-T | 2026-09-01 08:19:57 | 52.77738 | 8.32053 | 83° | 82km/h | 12190m | -6.3m/s | -55.6°C | 14.2% | 193.6hPa | 2.6V | 08:10:10 | 01:42:20 | 00:00:00 | |
| DF8AY | 2026-09-01 08:19:56 | 52.77736 | 8.32018 | 83° | 89km/h | 12196m | -6.3m/s | -55.6°C | 14% | 193.4hPa | 2.5V | 08:10:10 | 01:42:19 | 00:00:00 | |
| DO2JMG | 2026-09-01 08:19:53 | 52.77723 | 8.31901 | 76° | 100km/h | 12216m | -6.7m/s | -55.6°C | 13.2% | 192.7hPa | 2.7V | 08:10:10 | 01:42:16 | 00:00:00 | |
| DL1NUX | 2026-09-01 08:19:53 | 52.77699 | 8.31785 | 68° | 93km/h | 12235m | -6.2m/s | -55.6°C | 14.4% | 192.1hPa | 2.6V | 08:09:57 | 01:42:13 | 00:00:00 | |
| BIOWL1-15 | 2026-09-01 08:19:52 | 52.77716 | 8.31861 | 73° | 100km/h | 12223m | -6.5m/s | -55.6°C | 13.1% | 192.5hPa | 2.7V | 08:10:10 | 01:42:15 | 00:00:00 | |
| DL1XH-15 | 2026-09-01 08:19:51 | 52.77670 | 8.31654 | 75° | 78km/h | 12260m | -6.4m/s | -55.3°C | 13.3% | 191.4hPa | 2.7V | 08:10:01 | 01:42:09 | 00:00:00 | |
| DL4XJ-10 | 2026-09-01 08:19:51 | 52.77708 | 8.31822 | 70° | 89km/h | 12229m | -6.1m/s | -54.5°C | 0% | 0hPa | 2.6V | 00:00:00 | 00:00:00 | 00:00:00 | |
| DN9WHV | 2026-09-01 08:19:50 | 52.77708 | 8.31822 | 71° | 97km/h | 12229m | -6.1m/s | -55.5°C | 9.9% | 192.3hPa | 2.6V | 08:10:00 | 00:00:00 | 00:00:00 | |
| DM0DOS-11 | 2026-09-01 08:19:49 | 52.77691 | 8.31750 | 67° | 88km/h | 12241m | -6.2m/s | -55.5°C | 14.2% | 192hPa | 2.6V | 08:09:58 | 01:42:12 | 00:00:00 | |
| DL1XH-west | 2026-09-01 08:19:49 | 52.77691 | 8.31750 | 67° | 88km/h | 12241m | -6.2m/s | -55.5°C | 12.4% | 192hPa | 2.6V | 08:10:10 | 01:42:12 | 00:00:00 | |
| HSKMA3-T | 2026-09-01 08:19:46 | 52.77669 | 8.31654 | 75° | 78km/h | 12261m | -6.4m/s | -55.3°C | 11.6% | 191.4hPa | 2.7V | 08:10:10 | 01:42:09 | 00:00:00 | |
| DF8AY | 2026-09-01 08:19:45 | 52.77665 | 8.31621 | 79° | 80km/h | 12267m | -6.4m/s | -55.3°C | 11.3% | 191.2hPa | 2.7V | 08:10:10 | 01:42:08 | 00:00:00 | |
| DM0DOS-11 | 2026-09-01 08:19:44 | 52.77644 | 8.31393 | 78° | 95km/h | 12304m | -6.3m/s | -55°C | 12.2% | 190.1hPa | 2.7V | 08:10:08 | 01:42:02 | 00:00:00 | |
| DO2JMG | 2026-09-01 08:19:42 | 52.77655 | 8.31513 | 83° | 95km/h | 12286m | -6.2m/s | -55.2°C | 10.5% | 190.6hPa | 2.6V | 08:10:10 | 01:42:05 | 00:00:00 | |
| GOEST3-10 | 2026-09-01 08:19:42 | 52.77655 | 8.31513 | 83° | 95km/h | 12286m | -6.2m/s | -55.1°C | 12.5% | 190.6hPa | 2.5V | 00:00:00 | 00:00:00 | 00:00:00 | |
| DL1XH-15 | 2026-09-01 08:19:41 | 52.77630 | 8.31283 | 80° | 84km/h | 12323m | -6.4m/s | -55.2°C | 11.7% | 189.5hPa | 2.5V | 08:10:11 | 01:41:59 | 00:00:00 | |
| BIOWL1-15 | 2026-09-01 08:19:41 | 52.77644 | 8.31393 | 79° | 95km/h | 12305m | -6.3m/s | -55.1°C | 9.9% | 190.1hPa | 2.7V | 08:10:10 | 01:42:02 | 00:00:00 | |
| DL1XH-west | 2026-09-01 08:19:38 | 52.77639 | 8.31355 | 78° | 91km/h | 12311m | -6.2m/s | -55°C | 9.7% | 189.9hPa | 2.7V | 08:10:10 | 01:42:01 | 00:00:00 | |
| HSKMA3-T | 2026-09-01 08:19:35 | 52.77627 | 8.31249 | 82° | 84km/h | 12330m | -6.7m/s | -55.1°C | 9% | 189.3hPa | 2.6V | 08:11:01 | 01:41:58 | 00:00:00 | |
| DM0DOS-11 | 2026-09-01 08:19:34 | 52.77607 | 8.31021 | 77° | 93km/h | 12368m | -6.5m/s | -55.1°C | 10.1% | 188.2hPa | 2.5V | 08:10:18 | 01:41:52 | 00:00:00 | |
| DO2JMG | 2026-09-01 08:19:31 | 52.77616 | 8.31099 | 81° | 97km/h | 12355m | -6.2m/s | -55.1°C | 8% | 188.6hPa | 2.7V | 08:11:01 | 01:41:54 | 00:00:00 | |
| DL1XH-15 | 2026-09-01 08:19:31 | 52.77595 | 8.30917 | 83° | 78km/h | 12387m | -6.4m/s | -54.6°C | 9% | 187.6hPa | 2.7V | 08:10:21 | 01:41:49 | 00:00:00 | |
| BIOWL1-15 | 2026-09-01 08:19:29 | 52.77607 | 8.31021 | 77° | 93km/h | 12368m | -6.5m/s | -55.1°C | 7.4% | 188.2hPa | 2.5V | 08:11:01 | 01:41:52 | 00:00:00 | |
| DL1XH-west | 2026-09-01 08:19:27 | 52.77598 | 8.30950 | 79° | 82km/h | 12381m | -6.2m/s | -54.8°C | 6.7% | 187.8hPa | 2.6V | 08:11:01 | 01:41:50 | 00:00:00 | |
| HSKMA3-T | 2026-09-01 08:19:25 | 52.77593 | 8.30884 | 88° | 78km/h | 12394m | -6.4m/s | -54.4°C | 6.2% | 187.4hPa | 2.7V | 08:11:01 | 01:41:48 | 00:00:00 | |
| DF8AY | 2026-09-01 08:19:24 | 52.77593 | 8.30851 | 92° | 80km/h | 12400m | -6.5m/s | -54.1°C | 5.9% | 187.2hPa | 2.6V | 08:11:01 | 01:41:47 | 00:00:00 | |
| SO1NDE-10 | 2026-09-01 08:19:23 | 52.77594 | 8.30817 | 94° | 78km/h | 12407m | -6.5m/s | -54.0°C | 8.4% | 187.0hPa | 2.6V | 00:00:00 | 01:41:46 | 00:00:00 | |
| DL1XH1-15 | 2026-09-01 08:19:22 | 52.77589 | 8.30598 | 78° | 80km/h | 12444m | -6.2m/s | -53.9°C | 7.8% | 185.9hPa | 2.6V | 08:10:30 | 01:41:40 | 00:00:00 | |
| DO2JMG | 2026-09-01 08:19:21 | 52.77597 | 8.30745 | 92° | 89km/h | 12420m | -7m/s | -54°C | 5.7% | 186.7hPa | 2.7V | 08:11:01 | 01:41:44 | 00:00:00 | |
| BIOWL1-15 | 2026-09-01 08:19:19 | 52.77595 | 8.30669 | 85° | 89km/h | 12433m | -6m/s | -53.9°C | 5.5% | 186.3hPa | 2.6V | 08:11:01 | 01:41:42 | 00:00:00 | |
| AA1-15 | 2026-09-01 08:19:17 | 52.77589 | 8.30598 | 78° | 80km/h | 12444m | -6.2m/s | -53.9°C | 5.2% | 185.9hPa | 2.6V | 08:11:01 | 01:41:40 | 00:00:00 | |
| HSKMA3-T | 2026-09-01 08:19:15 | 52.77581 | 8.30536 | 80° | 71km/h | 12458m | -7.2m/s | -53.8°C | 4.9% | 185.6hPa | 2.7V | 08:11:01 | 01:41:38 | 00:00:00 | |
| DF8AY | 2026-09-01 08:19:14 | 52.77578 | 8.30508 | 83° | 68km/h | 12465m | -7.2m/s | -53.8°C | 4.7% | 185.3hPa | 2.7V | 08:11:01 | 01:41:37 | 00:00:00 | |
| D01LWL | 2026-09-01 08:19:13 | 52.77577 | 8.30481 | 87° | 64km/h | 12472m | -7.0m/s | -53.7°C | 4.0% | 185.1hPa | 2.7V | 00:00:00 | 00:00:00 | 00:00:00 | |
| DL1XH1-15 | 2026-09-01 08:19:12 | 52.77588 | 8.30296 | 93° | 88km/h | 12511m | -6.6m/s | -53°C | 6.7% | 184hPa | 2.7V | 08:10:40 | 01:41:30 | 00:00:00 | |
| DO2JMG | 2026-09-01 08:19:11 | 52.77578 | 8.30426 | 97° | 68km/h | 12485m | -6.6m/s | -53.5°C | 4.4% | 184.7hPa | 2.6V | 08:11:01 | 01:41:34 | 00:00:00 | |
| DL1XH-15 | 2026-09-01 08:19:11 | 52.77588 | 8.30259 | 89° | 88km/h | 12518m | -6.7m/s | -53°C | 6.6% | 183.8hPa | 2.6V | 08:10:41 | 01:41:29 | 00:00:00 | |
| BIOWL1-15 | 2026-09-01 08:19:09 | 52.77588 | 8.30296 | 93° | 88km/h | 12511m | -6.6m/s | -53°C | 4% | 184hPa | 2.7V | 08:11:01 | 01:41:30 | 00:00:00 | |
| DL1XH-west | 2026-09-01 08:19:06 | 52.77588 | 8.30259 | 89° | 88km/h | 12518m | -6.7m/s | -53°C | 3.9% | 183.8hPa | 2.6V | 08:11:01 | 01:41:29 | 00:00:00 | |
| HSKMA3-T | 2026-09-01 08:19:04 | 52.77585 | 8.30189 | 83° | 80km/h | 12531m | -6.2m/s | -52.8°C | 3.7% | 183.4hPa | 2.6V | 08:11:01 | 01:41:27 | 00:00:00 | |
| DF8AY | 2026-09-01 08:19:03 | 52.77582 | 8.30157 | 81° | 75km/h | 12537m | -6.4m/s | -52.8°C | 3.6% | 183.2hPa | 2.6V | 08:11:01 | 01:41:26 | 00:00:00 | |
| DL1XH1-15 | 2026-09-01 08:19:02 | 52.77578 | 8.29990 | 97° | 75km/h | 12576m | -6.5m/s | -52.6°C | 6% | 182.1hPa | 2.6V | 08:10:50 | 01:41:20 | 00:00:00 | |
| GOEST3-10 | 2026-09-01 08:19:02 | 52.77579 | 8.30127 | 81° | 66km/h | 12544m | -6.4m/s | -52.7°C | 6.2% | 183.0hPa | 2.6V | 00:00:00 | 00:00:00 | 00:00:00 | |
| DL1XH-15 | 2026-09-01 08:19:01 | 52.77580 | 8.29957 | 96° | 82km/h | 12583m | -6.6m/s | -52.6°C | 5.9% | 182hPa | 2.6V | 08:10:51 | 01:41:19 | 00:00:00 | |
| DO2JMG | 2026-09-01 08:19:00 | 52.77575 | 8.30073 | 87° | 62km/h | 12557m | -6.9m/s | -52.7°C | 3.4% | 182.7hPa | 2.7V | 08:11:01 | 01:41:23 | 00:00:00 | |
| DF8AY | 2026-09-01 08:18:58 | 52.77582 | 8.29848 | 87° | 91km/h | 12603m | -7.1m/s | -52.6°C | 3.2% | 181.4hPa | 2.7V | 08:11:01 | 01:41:16 | 00:00:00 | |
| BIOWL1-15 | 2026-09-01 08:18:58 | 52.77580 | 8.29957 | 96° | 82km/h | 12583m | -6.6m/s | -52.6°C | 3.2% | 182hPa | 2.6V | 08:11:01 | 01:41:19 | 00:00:00 | |
| DL1XH-west | 2026-09-01 08:18:55 | 52.77582 | 8.29922 | 94° | 86km/h | 12590m | -6.5m/s | -52.5°C | 3.2% | 181.8hPa | 2.7V | 08:11:01 | 01:41:18 | 00:00:00 | |
| HSKMA3-T | 2026-09-01 08:18:54 | 52.77583 | 8.29885 | 91° | 89km/h | 12596m | -6.9m/s | -52.5°C | 3.2% | 181.6hPa | 2.7V | 08:11:01 | 01:41:17 | 00:00:00 | |
| DO2SHX-10 | 2026-09-01 08:18:54 | 52.77583 | 8.29885 | 91° | 89km/h | 12596m | -6.8m/s | -52.5°C | 5.9% | 181.6hPa | 2.7V | 00:00:00 | 01:41:17 | 00:00:00 | |
| SO1NDE-10 | 2026-09-01 08:18:53 | 52.77582 | 8.29847 | 88° | 82km/h | 12603m | -7.0m/s | -52.6°C | 5.9% | 181.3hPa | 2.7V | 00:00:00 | 01:41:16 | 00:00:00 | |
| DL1XH1-15 | 2026-09-01 08:18:52 | 52.77560 | 8.29637 | 79° | 73km/h | 12645m | -6.5m/s | -52.7°C | 5.7% | 180.2hPa | 2.7V | 08:11:00 | 01:41:10 | 00:00:00 | |
| BIOWL1-15 | 2026-09-01 08:18:52 | 52.77564 | 8.29668 | 77° | 78km/h | 12638m | -6.8m/s | -52.7°C | 3% | 180.4hPa | 2.7V | 08:11:01 | 01:41:11 | 00:00:00 | |
| DO2JMG | 2026-09-01 08:18:49 | 52.77568 | 8.29700 | 77° | 84km/h | 12631m | -6.9m/s | -52.7°C | 2.9% | 180.6hPa | 2.6V | 08:11:01 | 01:41:12 | 00:00:00 | |
| DL1XH-west | 2026-09-01 08:18:45 | 52.77556 | 8.29578 | 89° | 71km/h | 12658m | -6.7m/s | -52.7°C | 2.8% | 179.8hPa | 2.6V | 08:11:52 | 01:41:08 | 00:00:00 | |
| AA1-15 | 2026-09-01 08:18:44 | 52.77556 | 8.29547 | 93° | 75km/h | 12664m | -6.5m/s | -52.7°C | 2.8% | 179.7hPa | 2.6V | 08:11:52 | 01:41:07 | 00:00:00 | |
| HSKMA3-T | 2026-09-01 08:18:43 | 52.77558 | 8.29515 | 95° | 80km/h | 12671m | -6.8m/s | -52.8°C | 2.7% | 179.5hPa | 2.6V | 08:11:52 | 01:41:06 | 00:00:00 | |
| DL1NUX | 2026-09-01 08:18:43 | 52.77560 | 8.29405 | 88° | 93km/h | 12692m | -6.4m/s | -52.8°C | 5.6% | 178.9hPa | 2.7V | 08:11:07 | 01:41:03 | 00:00:00 | |
| DL1XH1-15 | 2026-09-01 08:18:42 | 52.77552 | 8.29294 | 78° | 84km/h | 12711m | -6.5m/s | -52.8°C | 5.4% | 178.4hPa | 2.6V | 08:11:10 | 01:41:00 | 00:00:00 | |
| DF8AY | 2026-09-01 08:18:42 | 52.77559 | 8.29480 | 94° | 86km/h | 12678m | -7.2m/s | -52.8°C | 2.7% | 179.3hPa | 2.6V | 08:11:52 | 01:41:05 | 00:00:00 | |
| DO2JMG | 2026-09-01 08:18:39 | 52.77558 | 8.29367 | 84° | 93km/h | 12698m | -6.4m/s | -52.7°C | 2.5% | 178.8hPa | 2.7V | 08:11:52 | 01:41:02 | 00:00:00 | |
| BIOWL1-15 | 2026-09-01 08:18:37 | 52.77552 | 8.29294 | 78° | 84km/h | 12711m | -6.5m/s | -52.8°C | 2.4% | 178.4hPa | 2.6V | 08:11:52 | 01:41:00 | 00:00:00 | |
| DL1XH-west | 2026-09-01 08:18:34 | 52.77541 | 8.29201 | 84° | 69km/h | 12731m | -6.9m/s | -52.7°C | 2.2% | 177.8hPa | 2.7V | 08:11:52 | 01:40:57 | 00:00:00 | |
| DL1NUX | 2026-09-01 08:18:33 | 52.77544 | 8.29083 | 97° | 78km/h | 12759m | -6.6m/s | -52.5°C | 5.3% | 177hPa | 2.6V | 08:11:17 | 01:40:53 | 00:00:00 | |
| HSKMA3-T | 2026-09-01 08:18:33 | 52.77540 | 8.29173 | 89° | 68km/h | 12738m | -7.1m/s | -52.6°C | 2.1% | 177.6hPa | 2.7V | 08:11:52 | 01:40:56 | 00:00:00 | |
| DF8AY | 2026-09-01 08:18:30 | 52.77544 | 8.29083 | 98° | 78km/h | 12759m | -6.6m/s | -52.5°C | 2.1% | 177hPa | 2.6V | 08:11:52 | 01:40:53 | 00:00:00 | |
| DO2JMG | 2026-09-01 08:18:28 | 52.77549 | 8.29013 | 94° | 89km/h | 12772m | -6.5m/s | -52.6°C | 2% | 176.7hPa | 2.6V | 08:11:52 | 01:40:51 | 00:00:00 | |
| BIOWL1-15 | 2026-09-01 08:18:26 | 52.77549 | 8.28939 | 86° | 88km/h | 12785m | -6.7m/s | -52.6°C | 1.8% | 176.3hPa | 2.7V | 08:11:52 | 01:40:49 | 00:00:00 | |
| DB0DAN | 2026-09-01 08:18:25 | 52.77547 | 8.28903 | 83° | 80km/h | 12792m | -6.7m/s | -52.6°C | 2.2% | 176.21hPa | 2.7V | 00:00:00 | 00:00:00 | 00:00:00 | |
| DO2SHX-10 | 2026-09-01 08:18:25 | 52.77547 | 8.28903 | 83° | 73km/h | 12792m | -6.6m/s | -52.6°C | 5.1% | 176.2hPa | 2.7V | 00:00:00 | 01:40:48 | 00:00:00 | |
| DM0DOS-11 | 2026-09-01 08:18:24 | 52.77541 | 8.28735 | 100° | 64km/h | 12833m | -6.8m/s | -52.3°C | 4.9% | 175.1hPa | 2.7V | 08:11:28 | 01:40:42 | 00:00:00 | |
| DO9LL-15 | 2026-09-01 08:18:24 | 52.77544 | 8.28870 | 81° | 66km/h | 12799m | -6.7m/s | -52.6°C | 5.0% | 176.0hPa | 2.7V | 00:00:00 | 01:40:47 | 00:00:00 | |
| DL1NUX | 2026-09-01 08:18:23 | 52.77539 | 8.28761 | 96° | 62km/h | 12826m | -6.9m/s | -52.5°C | 5% | 175.2hPa | 2.7V | 08:11:27 | 01:40:43 | 00:00:00 | |
| DL1XH-west | 2026-09-01 08:18:23 | 52.77541 | 8.28840 | 82° | 69km/h | 12806m | -6.7m/s | -52.7°C | 1.7% | 175.8hPa | 2.6V | 08:11:52 | 01:40:46 | 00:00:00 | |
| SO1NDE-10 | 2026-09-01 08:18:23 | 52.77541 | 8.28840 | 82° | 64km/h | 12806m | -6.6m/s | -52.6°C | 5.0% | 175.8hPa | 2.6V | 00:00:00 | 01:40:46 | 00:00:00 | |
| DL1XH1-15 | 2026-09-01 08:18:22 | 52.77549 | 8.28678 | 102° | 75km/h | 12847m | -6.8m/s | -51.9°C | 4.7% | 174.7hPa | 2.6V | 08:11:30 | 01:40:40 | 00:00:00 | |
| AA1-15 | 2026-09-01 08:18:22 | 52.77539 | 8.28812 | 85° | 64km/h | 12813m | -6.7m/s | -52.6°C | 1.7% | 175.7hPa | 2.6V | 08:11:52 | 01:40:45 | 00:00:00 | |
| DF8AY | 2026-09-01 08:18:20 | 52.77539 | 8.28761 | 96° | 62km/h | 12826m | -6.9m/s | -52.5°C | 1.5% | 175.2hPa | 2.7V | 08:11:52 | 01:40:43 | 00:00:00 | |
| DO2JMG | 2026-09-01 08:18:18 | 52.77545 | 8.28708 | 103° | 69km/h | 12840m | -7.1m/s | -52.1°C | 1.5% | 174.8hPa | 2.7V | 08:11:52 | 01:40:41 | 00:00:00 | |
| BIOWL1-15 | 2026-09-01 08:18:16 | 52.77552 | 8.28647 | 100° | 78km/h | 12854m | -6.6m/s | -51.7°C | 1.4% | 174.5hPa | 2.6V | 08:11:52 | 01:40:39 | 00:00:00 | |
| DO2SHX-10 | 2026-09-01 08:18:15 | 52.77555 | 8.28615 | 96° | 77km/h | 12860m | -6.3m/s | -51.7°C | 4.7% | 174.3hPa | 2.6V | 00:00:00 | 01:40:38 | 00:00:00 | |
| DM0DOS-11 | 2026-09-01 08:18:14 | 52.77551 | 8.28445 | 92° | 53km/h | 12900m | -6.8m/s | -50.9°C | 4.2% | 173.2hPa | 2.6V | 08:11:38 | 01:40:32 | 00:00:00 | |
| DL1XH-west | 2026-09-01 08:18:13 | 52.77556 | 8.28550 | 87° | 75km/h | 12873m | -6.6m/s | -51.2°C | 1.2% | 174hPa | 2.7V | 08:11:52 | 01:40:36 | 00:00:00 | |
| HSKMA3-T | 2026-09-01 08:18:12 | 52.77554 | 8.28520 | 84° | 69km/h | 12880m | -6.9m/s | -51.1°C | 1.1% | 173.8hPa | 2.7V | 08:11:52 | 01:40:35 | 00:00:00 | |
| DO2SHX-10 | 2026-09-01 08:18:12 | 52.77554 | 8.28520 | 84° | 62km/h | 12880m | -6.8m/s | -51.1°C | 4.3% | 173.8hPa | 2.7V | 08:11:00 | 01:40:35 | 00:00:00 | |
| DL1XH-15 | 2026-09-01 08:18:11 | 52.77559 | 8.28376 | 106° | 62km/h | 12920m | -6.4m/s | -50.7°C | 4.2% | 172.7hPa | 2.7V | 08:11:41 | 01:40:29 | 00:00:00 | |
| AA1-15 | 2026-09-01 08:18:11 | 52.77553 | 8.28492 | 84° | 62km/h | 12887m | -7m/s | -51.1°C | 1.1% | 173.7hPa | 2.7V | 08:11:52 | 01:40:34 | 00:00:00 | |
| DB0DAN | 2026-09-01 08:18:10 | 52.77551 | 8.28468 | 87° | 55km/h | 12893m | -6.7m/s | -51°C | 1.7% | 173.45hPa | 2.6V | 00:00:00 | 00:00:00 | 00:00:00 | |
| DF8AY | 2026-09-01 08:18:10 | 52.77551 | 8.28468 | 87° | 57km/h | 12893m | -6.7m/s | -51°C | 1% | 173.4hPa | 2.6V | 08:11:52 | 01:40:33 | 00:00:00 | |
| DO2JMG | 2026-09-01 08:18:08 | 52.77553 | 8.28422 | 99° | 53km/h | 12907m | -6.8m/s | -50.8°C | 1% | 173.1hPa | 2.6V | 08:11:52 | 01:40:31 | 00:00:00 | |
| BIOWL1-15 | 2026-09-01 08:18:05 | 52.77564 | 8.28350 | 106° | 68km/h | 12927m | -6.7m/s | -50.6°C | 1% | 172.5hPa | 2.7V | 08:11:52 | 01:40:28 | 00:00:00 | |
| DN9WHV | 2026-09-01 08:18:04 | 52.77564 | 8.28350 | 107° | 68km/h | 12927m | -6.7m/s | -50.6°C | 1.7% | 172.5hPa | 2.7V | 08:11:00 | 00:00:00 | 00:00:00 | |
| DL1NUX | 2026-09-01 08:18:03 | 52.77572 | 8.28202 | 84° | 66km/h | 12960m | -6.8m/s | -50.7°C | 4% | 171.7hPa | 2.7V | 08:11:47 | 01:40:23 | 00:00:00 | |
| DL1XH-west | 2026-09-01 08:18:02 | 52.77573 | 8.28260 | 93° | 73km/h | 12947m | -6.6m/s | -50.6°C | 0.9% | 172hPa | 2.6V | 08:11:52 | 01:40:25 | 00:00:00 | |
| AA1-15 | 2026-09-01 08:18:00 | 52.77572 | 8.28202 | 84° | 66km/h | 12960m | -6.8m/s | -50.7°C | 0.9% | 171.7hPa | 2.7V | 08:11:52 | 01:40:23 | 00:00:00 | |
| DF8AY | 2026-09-01 08:17:59 | 52.77570 | 8.28176 | 83° | 58km/h | 12967m | -7m/s | -50.7°C | 0.9% | 171.5hPa | 2.7V | 08:11:52 | 01:40:22 | 00:00:00 | |
| DO2JMG | 2026-09-01 08:17:57 | 52.77568 | 8.28131 | 90° | 49km/h | 12981m | -6.8m/s | -50.8°C | 0.9% | 171.1hPa | 2.6V | 08:11:52 | 01:40:20 | 00:00:00 | |
| GOEST3-10 | 2026-09-01 08:17:57 | 52.77568 | 8.28131 | 90° | 53km/h | 12981m | -6.8m/s | -50.7°C | 4.0% | 171.1hPa | 2.7V | 00:00:00 | 01:40:20 | 00:00:00 | |
| DD1CC3-15 | 2026-09-01 08:17:56 | 52.77568 | 8.28131 | 91° | 49km/h | 12981m | -6.8m/s | -50.8°C | 1.6% | 171.1hPa | 2.7V | 08:11:00 | 00:00:00 | 00:00:00 | |
| DB0DAN | 2026-09-01 08:17:55 | 52.77570 | 8.28091 | 103° | 47km/h | 12995m | -6.8m/s | -50.6°C | 1.6% | 170.75hPa | 2.7V | 00:00:00 | 00:00:00 | 00:00:00 | |
| DO2SHX-10 | 2026-09-01 08:17:55 | 52.77570 | 8.28091 | 104° | 55km/h | 12995m | -6.8m/s | -50.6°C | 4.0% | 170.7hPa | 2.7V | 00:00:00 | 01:40:18 | 00:00:00 | |
| DM0DOS-11 | 2026-09-01 08:17:54 | 52.77591 | 8.27934 | 90° | 73km/h | 13036m | -6.7m/s | -50.6°C | 3.8% | 169.7hPa | 2.7V | 08:11:58 | 01:40:12 | 00:00:00 | |
| BIOWL1-15 | 2026-09-01 08:17:54 | 52.77574 | 8.28070 | 108° | 55km/h | 13002m | -6.8m/s | -50.6°C | 0.7% | 170.6hPa | 2.7V | 08:12:43 | 01:40:17 | 00:00:00 | |
| DO9LL-15 | 2026-09-01 08:17:54 | 52.77574 | 8.28070 | 108° | 58km/h | 13002m | -6.7m/s | -50.5°C | 3.9% | 170.5hPa | 2.7V | 08:11:00 | 01:40:17 | 00:00:00 | |
| DL1NUX | 2026-09-01 08:17:53 | 52.77590 | 8.27965 | 95° | 73km/h | 13029m | -6.6m/s | -50.6°C | 3.9% | 169.9hPa | 2.7V | 08:11:57 | 01:40:13 | 00:00:00 | |
| DL1XH-west | 2026-09-01 08:17:51 | 52.77587 | 8.27994 | 102° | 71km/h | 13023m | -6.6m/s | -50.7°C | 0.8% | 170hPa | 2.6V | 08:12:43 | 01:40:14 | 00:00:00 | |
| AA1-15 | 2026-09-01 08:17:49 | 52.77591 | 8.27934 | 90° | 73km/h | 13036m | -6.7m/s | -50.6°C | 0.6% | 169.7hPa | 2.7V | 08:12:43 | 01:40:12 | 00:00:00 | |
| DO2JMG | 2026-09-01 08:17:47 | 52.77588 | 8.27877 | 82° | 66km/h | 13049m | -7.1m/s | -50.6°C | 0.7% | 169.4hPa | 2.6V | 08:12:43 | 01:40:10 | 00:00:00 | |
| BIOWL1-15 | 2026-09-01 08:17:47 | 52.77579 | 8.27789 | 87° | 44km/h | 13078m | -7m/s | -50.8°C | 0.6% | 168.6hPa | 2.7V | 08:12:43 | 01:40:06 | 00:00:00 | |
| GOEST3-10 | 2026-09-01 08:17:47 | 52.77588 | 8.27877 | 82° | 53km/h | 13050m | -7.0m/s | -50.6°C | 3.9% | 169.3hPa | 2.6V | 00:00:00 | 01:40:10 | 00:00:00 | |
| DN9WHV | 2026-09-01 08:17:46 | 52.77588 | 8.27877 | 83° | 66km/h | 13050m | -7.1m/s | -50.6°C | 1.5% | 169.4hPa | 2.6V | 08:12:00 | 00:00:00 | 00:00:00 | |
| DN9WHV | 2026-09-01 08:17:45 | 52.77586 | 8.27851 | 80° | 60km/h | 13057m | -6.9m/s | -50.7°C | 1.5% | 169.2hPa | 2.6V | 08:12:00 | 00:00:00 | 00:00:00 | |
| DM0DOS-11 | 2026-09-01 08:17:44 | 52.77588 | 8.27715 | 106° | 55km/h | 13105m | -6.8m/s | -50.8°C | 4% | 167.8hPa | 2.6V | 08:12:08 | 01:40:02 | 00:00:00 | |
| DL1NUX | 2026-09-01 08:17:43 | 52.77584 | 8.27735 | 105° | 47km/h | 13098m | -6.7m/s | -50.9°C | 3.9% | 168.1hPa | 2.6V | 08:12:07 | 01:40:03 | 00:00:00 | |
| DL1XH-west | 2026-09-01 08:17:41 | 52.77581 | 8.27754 | 101° | 44km/h | 13092m | -6.9m/s | -50.9°C | 0.6% | 168.2hPa | 2.7V | 08:12:43 | 01:40:04 | 00:00:00 | |
| HSKMA3-T | 2026-09-01 08:17:40 | 52.77584 | 8.27735 | 106° | 47km/h | 13098m | -6.7m/s | -50.9°C | 0.6% | 168.1hPa | 2.6V | 08:12:43 | 01:40:03 | 00:00:00 | |
| AA1-15 | 2026-09-01 08:17:39 | 52.77587 | 8.27715 | 106° | 55km/h | 13105m | -6.8m/s | -50.8°C | 0.7% | 167.9hPa | 2.6V | 08:12:43 | 01:40:02 | 00:00:00 | |
| DF8AY | 2026-09-01 08:17:38 | 52.77591 | 8.27691 | 103° | 62km/h | 13112m | -6.9m/s | -50.9°C | 0.7% | 167.7hPa | 2.6V | 08:12:43 | 01:40:01 | 00:00:00 | |
| DO2JMG | 2026-09-01 08:17:37 | 52.77594 | 8.27665 | 99° | 68km/h | 13119m | -6.8m/s | -50.9°C | 0.6% | 167.6hPa | 2.6V | 08:12:43 | 01:40:00 | 00:00:00 | |
| GOEST3-10 | 2026-09-01 08:17:37 | 52.77594 | 8.27664 | 99° | 69km/h | 13119m | -6.8m/s | -50.8°C | 3.9% | 167.5hPa | 2.6V | 00:00:00 | 01:40:00 | 00:00:00 | |
| DB0NH | 2026-09-01 08:17:36 | 52.77596 | 8.27636 | 94° | 58km/h | 13126m | -6.7m/s | -50.7°C | 3.9% | 167.3hPa | 2.6V | 00:00:00 | 01:39:59 | 00:00:00 | |
| DO2SHX-10 | 2026-09-01 08:17:35 | 52.77596 | 8.27607 | 88° | 66km/h | 13133m | -6.8m/s | -50.7°C | 3.9% | 167.2hPa | 2.6V | 00:00:00 | 01:39:58 | 00:00:00 | |
| DN9WHV | 2026-09-01 08:17:34 | 52.77596 | 8.27607 | 89° | 71km/h | 13133m | -6.8m/s | -50.7°C | 1.5% | 167.2hPa | 2.6V | 08:12:00 | 00:00:00 | 00:00:00 | |
| DL1XH1-15 | 2026-09-01 08:17:32 | 52.77567 | 8.27419 | 81° | 40km/h | 13190m | -6.8m/s | -50.9°C | 3.9% | 165.7hPa | 2.6V | 08:12:20 | 01:39:50 | 00:00:00 | |
| BIOWL1-15 | 2026-09-01 08:17:32 | 52.77588 | 8.27522 | 74° | 64km/h | 13154m | -7.5m/s | -50.6°C | 0.5% | 166.6hPa | 2.6V | 08:12:43 | 01:39:55 | 00:00:00 | |
| GOEST3-10 | 2026-09-01 08:17:32 | 52.77588 | 8.27522 | 74° | 55km/h | 13155m | -7.5m/s | -50.6°C | 3.8% | 166.6hPa | 2.7V | 00:00:00 | 00:00:00 | 00:00:00 | |
| DL1NUX | 2026-09-01 08:17:31 | 52.77578 | 8.27474 | 69° | 55km/h | 13169m | -7.2m/s | -50.8°C | 3.8% | 166.2hPa | 2.7V | 08:12:17 | 01:39:53 | 00:00:00 | |
| DL1XH-west | 2026-09-01 08:17:31 | 52.77583 | 8.27497 | 71° | 60km/h | 13162m | -7.5m/s | -50.7°C | 0.4% | 166.4hPa | 2.6V | 08:12:43 | 01:39:54 | 00:00:00 | |
| HSKMA3-T | 2026-09-01 08:17:30 | 52.77578 | 8.27474 | 70° | 55km/h | 13169m | -7.2m/s | -50.8°C | 0.5% | 166.2hPa | 2.7V | 08:12:43 | 01:39:53 | 00:00:00 | |
| DM0DOS-11 | 2026-09-01 08:17:29 | 52.77573 | 8.27454 | 69° | 49km/h | 13176m | -7.1m/s | -50.8°C | 3.8% | 166hPa | 2.7V | 08:12:18 | 01:39:52 | 00:00:00 | |
| AA1-15 | 2026-09-01 08:17:28 | 52.77570 | 8.27436 | 74° | 44km/h | 13183m | -6.8m/s | -50.8°C | 0.5% | 165.8hPa | 2.6V | 08:12:43 | 01:39:51 | 00:00:00 | |
| DF8AY | 2026-09-01 08:17:27 | 52.77567 | 8.27419 | 81° | 40km/h | 13190m | -6.8m/s | -50.9°C | 0.5% | 165.7hPa | 2.6V | 08:12:43 | 01:39:50 | 00:00:00 | |
| DO2JMG | 2026-09-01 08:17:26 | 52.77567 | 8.27402 | 90° | 40km/h | 13197m | -6.6m/s | -50.9°C | 0.5% | 165.5hPa | 2.6V | 08:12:43 | 01:39:49 | 00:00:00 | |
| DD1CC8 | 2026-09-01 08:17:26 | 52.77567 | 8.27384 | 97° | 44km/h | 13204m | -6.9m/s | -50.8°C | 1.4% | 165.4hPa | 2.7V | 00:00:00 | 00:00:00 | 00:00:00 | |
| AU51GT2 | 2026-09-01 08:17:25 | 52.77573 | 8.27316 | 96° | 64km/h | 13225m | -7.2m/s | -50.5°C | -1.0% | -1.0hPa | 2.7V | 00:00:00 | 00:00:00 | 00:00:00 | |
| DM0DOS-11 | 2026-09-01 08:17:24 | 52.77573 | 8.27228 | 82° | 73km/h | 13247m | -7.1m/s | -50.3°C | 3.8% | 164.2hPa | 2.7V | 08:12:28 | 01:39:42 | 00:00:00 | |
| BIOWL1-15 | 2026-09-01 08:17:23 | 52.77575 | 8.27288 | 93° | 69km/h | 13232m | -7m/s | -50.5°C | 0.5% | 164.6hPa | 2.6V | 08:12:43 | 01:39:44 | 00:00:00 | |
| SO1NDE-10 | 2026-09-01 08:17:23 | 52.77571 | 8.27342 | 99° | 62km/h | 13218m | -7.2m/s | -50.6°C | 3.9% | 165.0hPa | 2.6V | 00:00:00 | 01:39:46 | 00:00:00 | |
| DL1XH1-15 | 2026-09-01 08:17:22 | 52.77566 | 8.27170 | 74° | 69km/h | 13261m | -7m/s | -50.3°C | 3.7% | 163.9hPa | 2.6V | 08:12:30 | 01:39:40 | 00:00:00 | |
| GOEST3-10 | 2026-09-01 08:17:22 | 52.77573 | 8.27316 | 97° | 71km/h | 13225m | -7.1m/s | -50.5°C | 3.9% | 164.8hPa | 2.6V | 00:00:00 | 00:00:00 | 00:00:00 | |
| DL1XH-15 | 2026-09-01 08:17:21 | 52.77561 | 8.27143 | 70° | 64km/h | 13268m | -6.7m/s | -50.1°C | 3.6% | 163.8hPa | 2.6V | 08:12:31 | 01:39:39 | 00:00:00 | |
| DL1NUX | 2026-09-01 08:17:21 | 52.77575 | 8.27259 | 87° | 73km/h | 13239m | -7.2m/s | -50.4°C | 3.9% | 164.4hPa | 2.7V | 08:12:27 | 01:39:43 | 00:00:00 | |
| DL1XH-west | 2026-09-01 08:17:20 | 52.77575 | 8.27259 | 88° | 73km/h | 13239m | -7.2m/s | -50.4°C | 0.5% | 164.4hPa | 2.7V | 08:12:43 | 01:39:43 | 00:00:00 | |
| AA1-15 | 2026-09-01 08:17:18 | 52.77570 | 8.27198 | 78° | 73km/h | 13254m | -7.1m/s | -50.3°C | 0.4% | 164.1hPa | 2.7V | 08:12:43 | 01:39:41 | 00:00:00 | |
| DF8AY | 2026-09-01 08:17:16 | 52.77561 | 8.27143 | 71° | 64km/h | 13268m | -6.7m/s | -50.1°C | 0.4% | 163.8hPa | 2.6V | 08:12:43 | 01:39:39 | 00:00:00 | |
| DO2SHX-10 | 2026-09-01 08:17:15 | 52.77556 | 8.27120 | 71° | 53km/h | 13275m | -6.9m/s | -50.0°C | 3.5% | 163.5hPa | 2.6V | 00:00:00 | 01:39:38 | 00:00:00 | |
| DM0DOS-11 | 2026-09-01 08:17:14 | 52.77554 | 8.26996 | 100° | 62km/h | 13316m | -7.3m/s | -50.1°C | 3.7% | 162.5hPa | 2.6V | 08:12:38 | 01:39:32 | 00:00:00 | |
| DO3DL | 2026-09-01 08:17:13 | 52.77552 | 8.27099 | 75° | 49km/h | 13282m | -6.8m/s | -50.0°C | 1.2% | 163.4hPa | 2.6V | 08:12:00 | 00:00:00 | 00:00:00 | |
| DL1XH1-15 | 2026-09-01 08:17:12 | 52.77559 | 8.26940 | 93° | 71km/h | 13330m | -7m/s | -50.1°C | 3.7% | 162.1hPa | 2.6V | 08:12:40 | 01:39:30 | 00:00:00 | |
| DO2SHX-10 | 2026-09-01 08:17:12 | 52.77548 | 8.27061 | 91° | 49km/h | 13295m | -6.8m/s | -50.1°C | 3.5% | 163.0hPa | 2.7V | 00:00:00 | 01:39:35 | 00:00:00 | |
| DL1XH-15 | 2026-09-01 08:17:11 | 52.77559 | 8.26910 | 88° | 73km/h | 13337m | -6.9m/s | -50.1°C | 3.6% | 162hPa | 2.7V | 08:12:41 | 01:39:29 | 00:00:00 | |
| DL1NUX | 2026-09-01 08:17:11 | 52.77551 | 8.27020 | 100° | 55km/h | 13309m | -6.9m/s | -50.1°C | 3.7% | 162.7hPa | 2.6V | 08:12:37 | 01:39:33 | 00:00:00 | |
| BIOWL1-15 | 2026-09-01 08:17:10 | 52.77551 | 8.27020 | 101° | 55km/h | 13309m | -6.9m/s | -50.1°C | 0.4% | 162.7hPa | 2.6V | 08:12:43 | 01:39:33 | 00:00:00 | |
| DL1XH-west | 2026-09-01 08:17:09 | 52.77554 | 8.26996 | 100° | 62km/h | 13316m | -7.3m/s | -50.1°C | 0.4% | 162.5hPa | 2.6V | 08:12:43 | 01:39:32 | 00:00:00 | |
| AA1-15 | 2026-09-01 08:17:07 | 52.77558 | 8.26940 | 94° | 71km/h | 13330m | -7m/s | -50.1°C | 0.4% | 162.1hPa | 2.6V | 08:12:43 | 01:39:30 | 00:00:00 | |
| DF8AY | 2026-09-01 08:17:05 | 52.77558 | 8.26880 | 84° | 73km/h | 13344m | -6.7m/s | -50.1°C | 0.4% | 161.8hPa | 2.7V | 08:12:43 | 01:39:28 | 00:00:00 | |
| DN9WHV | 2026-09-01 08:17:05 | 52.77558 | 8.26880 | 85° | 73km/h | 13344m | -6.7m/s | -50.1°C | 1.3% | 161.8hPa | 2.7V | 08:12:00 | 00:00:00 | 00:00:00 | |
| DM0DOS-11 | 2026-09-01 08:17:04 | 52.77548 | 8.26735 | 98° | 53km/h | 13385m | -7m/s | -50.4°C | 3.7% | 160.8hPa | 2.7V | 08:12:48 | 01:39:22 | 00:00:00 | |
| DL1XH1-15 | 2026-09-01 08:17:02 | 52.77554 | 8.26687 | 101° | 66km/h | 13399m | -7.1m/s | -50.5°C | 3.8% | 160.4hPa | 2.7V | 08:12:50 | 01:39:20 | 00:00:00 | |
| GOEST3-10 | 2026-09-01 08:17:02 | 52.77549 | 8.26800 | 80° | 55km/h | 13365m | -6.9m/s | -50.2°C | 3.7% | 161.3hPa | 2.6V | 00:00:00 | 00:00:00 | 00:00:00 | |
| DL1XH-15 | 2026-09-01 08:17:01 | 52.77556 | 8.26659 | 97° | 71km/h | 13406m | -6.9m/s | -50.5°C | 3.8% | 160.2hPa | 2.6V | 08:12:51 | 01:39:19 | 00:00:00 | |
| BIOWL1-15 | 2026-09-01 08:17:00 | 52.77550 | 8.26712 | 102° | 58km/h | 13392m | -7m/s | -50.5°C | 0.4% | 160.7hPa | 2.7V | 08:13:34 | 01:39:21 | 00:00:00 | |
| DL1XH-west | 2026-09-01 08:16:59 | 52.77548 | 8.26735 | 98° | 53km/h | 13385m | -7m/s | -50.4°C | 0.4% | 160.8hPa | 2.7V | 08:13:34 | 01:39:22 | 00:00:00 | |
| AA1-15 | 2026-09-01 08:16:57 | 52.77553 | 8.26687 | 101° | 66km/h | 13399m | -7.1m/s | -50.5°C | 0.5% | 160.4hPa | 2.7V | 08:13:34 | 01:39:20 | 00:00:00 | |
| GOEST3-10 | 2026-09-01 08:16:57 | 52.77553 | 8.26687 | 102° | 71km/h | 13400m | -7.1m/s | -50.4°C | 3.8% | 160.4hPa | 2.6V | 00:00:00 | 01:39:20 | 00:00:00 | |
| DN9WHV | 2026-09-01 08:16:56 | 52.77553 | 8.26687 | 102° | 66km/h | 13400m | -7.1m/s | -50.5°C | 1.4% | 160.4hPa | 2.6V | 08:13:00 | 00:00:00 | 00:00:00 | |
| DB0DAN | 2026-09-01 08:16:55 | 52.77558 | 8.26629 | 93° | 71km/h | 13413m | -6.9m/s | -50.5°C | 1.3% | 160.12hPa | 2.6V | 00:00:00 | 00:00:00 | 00:00:00 | |
| DF8AY | 2026-09-01 08:16:55 | 52.77558 | 8.26629 | 94° | 75km/h | 13413m | -6.9m/s | -50.5°C | 0.5% | 160.1hPa | 2.6V | 08:13:34 | 01:39:18 | 00:00:00 | |
| DD1CC8 | 2026-09-01 08:16:55 | 52.77558 | 8.26597 | 87° | 75km/h | 13420m | -7.0m/s | -50.6°C | 1.3% | 159.9hPa | 2.7V | 00:00:00 | 00:00:00 | 00:00:00 | |
| DO9LL-15 | 2026-09-01 08:16:54 | 52.77558 | 8.26597 | 88° | 64km/h | 13420m | -6.9m/s | -50.5°C | 3.7% | 159.9hPa | 2.7V | 00:00:00 | 01:39:17 | 00:00:00 | |
| SO1NDE-10 | 2026-09-01 08:16:53 | 52.77556 | 8.26567 | 83° | 58km/h | 13427m | -7.1m/s | -50.5°C | 3.7% | 159.7hPa | 2.7V | 08:12:00 | 01:39:16 | 00:00:00 | |
| DL1XH1-15 | 2026-09-01 08:16:52 | 52.77542 | 8.26428 | 94° | 44km/h | 13471m | -7.3m/s | -50.3°C | 3.6% | 158.7hPa | 2.7V | 08:13:00 | 01:39:10 | 00:00:00 | |
| DL3AQ-11 | 2026-09-01 08:16:52 | 52.77550 | 8.26511 | 76° | 62km/h | 13442m | -7.7m/s | -50.7°C | 1.3% | 159.4hPa | 2.6V | 00:00:00 | 00:00:00 | 00:00:00 | |
| DL1XH-15 | 2026-09-01 08:16:51 | 52.77544 | 8.26410 | 102° | 46km/h | 13479m | -7.2m/s | -50.3°C | 3.6% | 158.5hPa | 2.6V | 08:13:01 | 01:39:09 | 00:00:00 | |
| DL1NUX | 2026-09-01 08:16:51 | 52.77547 | 8.26487 | 77° | 55km/h | 13449m | -7.4m/s | -50.7°C | 3.7% | 159.2hPa | 2.6V | 08:12:57 | 01:39:13 | 00:00:00 | |
| DL1XH-west | 2026-09-01 08:16:48 | 52.77543 | 8.26446 | 86° | 46km/h | 13464m | -7.1m/s | -50.5°C | 0.4% | 158.9hPa | 2.7V | 08:13:34 | 01:39:11 | 00:00:00 | |
| AA1-15 | 2026-09-01 08:16:46 | 52.77544 | 8.26410 | 103° | 46km/h | 13479m | -7.2m/s | -50.3°C | 0.4% | 158.5hPa | 2.6V | 08:13:34 | 01:39:09 | 00:00:00 | |
| DL1NUX | 2026-09-01 08:16:45 | 52.77563 | 8.26261 | 90° | 73km/h | 13522m | -7.1m/s | -50.5°C | 3.7% | 157.4hPa | 2.6V | 08:13:07 | 01:39:03 | 00:00:00 | |
| DF8AY | 2026-09-01 08:16:44 | 52.77551 | 8.26370 | 108° | 55km/h | 13493m | -7.2m/s | -50.4°C | 0.3% | 158.1hPa | 2.6V | 08:13:34 | 01:39:07 | 00:00:00 | |
| DF4FW | 2026-09-01 08:16:43 | 52.77551 | 8.26370 | 109° | 55km/h | 13493m | -7.2m/s | -50.4°C | 1.3% | 158.1hPa | 2.6V | 00:00:00 | 00:00:00 | 00:00:00 | |
| DL1XH1-15 | 2026-09-01 08:16:42 | 52.77557 | 8.26175 | 75° | 64km/h | 13544m | -7.6m/s | -50.6°C | 3.7% | 156.9hPa | 2.6V | 08:13:10 | 01:39:00 | 00:00:00 | |
| GOEST3-10 | 2026-09-01 08:16:42 | 52.77560 | 8.26320 | 102° | 71km/h | 13508m | -7.2m/s | -50.3°C | 3.7% | 157.8hPa | 2.7V | 00:00:00 | 00:00:00 | 00:00:00 | |
| DL1XH-15 | 2026-09-01 08:16:41 | 52.77552 | 8.26150 | 72° | 60km/h | 13552m | -7.7m/s | -50.7°C | 3.7% | 156.8hPa | 2.7V | 08:13:11 | 01:38:59 | 00:00:00 | |
| DB0DAN | 2026-09-01 08:16:40 | 52.77563 | 8.26261 | 90° | 69km/h | 13522m | -7.1m/s | -50.5°C | 1.3% | 157.41hPa | 2.6V | 00:00:00 | 00:00:00 | 00:00:00 | |
| BIOWL1-15 | 2026-09-01 08:16:39 | 52.77563 | 8.26231 | 85° | 71km/h | 13529m | -7.3m/s | -50.6°C | 0.4% | 157.3hPa | 2.6V | 08:13:34 | 01:39:02 | 00:00:00 | |
| DL1XH-west | 2026-09-01 08:16:37 | 52.77556 | 8.26175 | 75° | 64km/h | 13544m | -7.6m/s | -50.7°C | 0.4% | 156.9hPa | 2.6V | 08:13:34 | 01:39:00 | 00:00:00 | |
| AA1-15 | 2026-09-01 08:16:36 | 52.77552 | 8.26150 | 73° | 60km/h | 13552m | -7.7m/s | -50.7°C | 0.4% | 156.8hPa | 2.7V | 08:13:34 | 01:38:59 | 00:00:00 | |
| DF8AY | 2026-09-01 08:16:33 | 52.77541 | 8.26089 | 77° | 42km/h | 13574m | -7.2m/s | -51°C | 0.4% | 156.2hPa | 2.6V | 08:13:34 | 01:38:56 | 00:00:00 | |
| DL1XH1-15 | 2026-09-01 08:16:32 | 52.77548 | 8.25963 | 95° | 69km/h | 13618m | -7.4m/s | -51.1°C | 3.9% | 155.1hPa | 2.7V | 08:13:20 | 01:38:50 | 00:00:00 | |
| GOEST3-10 | 2026-09-01 08:16:32 | 52.77539 | 8.26072 | 86° | 49km/h | 13582m | -7.1m/s | -51.0°C | 3.7% | 155.9hPa | 2.6V | 00:00:00 | 00:00:00 | 00:00:00 | |
| DL1XH-15 | 2026-09-01 08:16:31 | 52.77549 | 8.25934 | 90° | 73km/h | 13625m | -7.4m/s | -51.1°C | 3.9% | 154.9hPa | 2.6V | 08:13:21 | 01:38:49 | 00:00:00 | |
| BIOWL1-15 | 2026-09-01 08:16:28 | 52.77546 | 8.25991 | 99° | 64km/h | 13610m | -7.6m/s | -51.1°C | 0.5% | 155.3hPa | 2.7V | 08:13:34 | 01:38:51 | 00:00:00 | |
| DL1XH-west | 2026-09-01 08:16:27 | 52.77548 | 8.25963 | 95° | 69km/h | 13618m | -7.4m/s | -51.1°C | 0.5% | 155.1hPa | 2.7V | 08:13:34 | 01:38:50 | 00:00:00 | |
| HSKMA3-T | 2026-09-01 08:16:26 | 52.77549 | 8.25934 | 90° | 73km/h | 13625m | -7.4m/s | -51.1°C | 0.6% | 154.9hPa | 2.6V | 08:13:34 | 01:38:49 | 00:00:00 | |
| DB0DAN | 2026-09-01 08:16:25 | 52.77548 | 8.25903 | 85° | 71km/h | 13632m | -7.5m/s | -51.1°C | 1.4% | 154.8hPa | 2.6V | 00:00:00 | 00:00:00 | 00:00:00 | |
| AA1-15 | 2026-09-01 08:16:25 | 52.77548 | 8.25903 | 85° | 75km/h | 13632m | -7.5m/s | -51.1°C | 0.6% | 154.8hPa | 2.6V | 08:13:34 | 01:38:48 | 00:00:00 | |
| DF8AY | 2026-09-01 08:16:23 | 52.77541 | 8.25841 | 75° | 75km/h | 13648m | -7.6m/s | -51.1°C | 0.5% | 154.4hPa | 2.7V | 08:13:34 | 01:38:46 | 00:00:00 | |
| DJ2DS-15 | 2026-09-01 08:16:23 | 52.77536 | 8.25811 | 70° | 71km/h | 13655m | -7.7m/s | -51.1°C | 1.3% | 154.2hPa | 2.7V | 00:00:00 | 00:00:00 | 00:00:00 | |
| DL1XH1-15 | 2026-09-01 08:16:22 | 52.77506 | 8.25694 | 76° | 49km/h | 13693m | -6.9m/s | -51.5°C | 3.9% | 153.3hPa | 2.7V | 08:13:30 | 01:38:40 | 00:00:00 | |
| DN9WHV | 2026-09-01 08:16:22 | 52.77536 | 8.25811 | 71° | 73km/h | 13656m | -7.7m/s | -51.1°C | 1.3% | 154.2hPa | 2.6V | 08:13:00 | 00:00:00 | 00:00:00 | |
| DL1XH-15 | 2026-09-01 08:16:21 | 52.77504 | 8.25674 | 85° | 51km/h | 13700m | -7.3m/s | -51.5°C | 4% | 153.2hPa | 2.6V | 08:13:31 | 01:38:39 | 00:00:00 | |
| DF8AY | 2026-09-01 08:16:19 | 52.77504 | 8.25598 | 91° | 71km/h | 13722m | -7.8m/s | -51.5°C | 0.6% | 152.6hPa | 2.7V | 08:13:34 | 01:38:36 | 00:00:00 | |
| BIOWL1-15 | 2026-09-01 08:16:17 | 52.77504 | 8.25651 | 91° | 57km/h | 13707m | -7.5m/s | -51.6°C | 0.5% | 153hPa | 2.6V | 08:13:34 | 01:38:38 | 00:00:00 | |
| DL1XH-west | 2026-09-01 08:16:16 | 52.77504 | 8.25674 | 86° | 51km/h | 13700m | -7.3m/s | -51.5°C | 0.6% | 153.2hPa | 2.6V | 08:13:34 | 01:38:39 | 00:00:00 | |
| AA1-15 | 2026-09-01 08:16:14 | 52.77504 | 8.25626 | 92° | 64km/h | 13715m | -7.7m/s | -51.5°C | 0.6% | 152.8hPa | 2.7V | 08:13:34 | 01:38:37 | 00:00:00 | |
| DO2JMG | 2026-09-01 08:16:12 | 52.77504 | 8.25568 | 88° | 77km/h | 13730m | -7.8m/s | -51.4°C | 0.7% | 152.5hPa | 2.6V | 08:14:25 | 01:38:35 | 00:00:00 | |
| GOEST3-10 | 2026-09-01 08:16:12 | 52.77504 | 8.25568 | 89° | 78km/h | 13730m | -7.7m/s | -51.4°C | 4.2% | 152.4hPa | 2.6V | 00:00:00 | 00:00:00 | 00:00:00 | |
| DN9WHV | 2026-09-01 08:16:11 | 52.77504 | 8.25568 | 89° | 77km/h | 13730m | -7.8m/s | -51.4°C | 1.5% | 152.5hPa | 2.6V | 08:14:00 | 00:00:00 | 00:00:00 | |
| DL1XH-15 | 2026-09-01 08:16:11 | 52.77480 | 8.25385 | 72° | 58km/h | 13775m | -7.3m/s | -51°C | 3.8% | 151.4hPa | 2.6V | 08:13:41 | 01:38:29 | 00:00:00 | |
| DB0DAN | 2026-09-01 08:16:10 | 52.77500 | 8.25502 | 80° | 78km/h | 13746m | -7.5m/s | -51.4°C | 1.4% | 152.11hPa | 2.6V | 00:00:00 | 00:00:00 | 00:00:00 | |
| HSKMA3-T | 2026-09-01 08:16:06 | 52.77480 | 8.25385 | 72° | 58km/h | 13775m | -7.3m/s | -51°C | 0.5% | 151.4hPa | 2.6V | 08:14:25 | 01:38:29 | 00:00:00 | |
| DL1XH-west | 2026-09-01 08:16:05 | 52.77477 | 8.25363 | 77° | 53km/h | 13782m | -7.5m/s | -51°C | 0.5% | 151.3hPa | 2.6V | 08:14:25 | 01:38:28 | 00:00:00 | |
| DM0DOS-11 | 2026-09-01 08:16:04 | 52.77485 | 8.25222 | 101° | 73km/h | 13829m | -7.7m/s | -50.7°C | 3.9% | 150.2hPa | 2.6V | 08:13:48 | 01:38:22 | 00:00:00 | |
| AA1-15 | 2026-09-01 08:16:03 | 52.77474 | 8.25321 | 92° | 51km/h | 13798m | -8.1m/s | -50.9°C | 0.5% | 150.8hPa | 2.7V | 08:14:25 | 01:38:26 | 00:00:00 | |
| DF8AY | 2026-09-01 08:16:02 | 52.77475 | 8.25299 | 99° | 55km/h | 13806m | -7.8m/s | -50.8°C | 0.5% | 150.7hPa | 2.7V | 08:14:25 | 01:38:25 | 00:00:00 | |
| DL1XH-west | 2026-09-01 08:15:55 | 52.77490 | 8.25092 | 84° | 78km/h | 13859m | -7.3m/s | -50.7°C | 0.4% | 149.4hPa | 2.7V | 08:14:25 | 01:38:18 | 00:00:00 | |
| BIOWL1-15 | 2026-09-01 08:15:55 | 52.77483 | 8.25032 | 77° | 66km/h | 13874m | -7.8m/s | -50.8°C | 0.5% | 149.1hPa | 2.6V | 08:14:25 | 01:38:16 | 00:00:00 | |
| AA1-15 | 2026-09-01 08:15:52 | 52.77479 | 8.25007 | 77° | 58km/h | 13882m | -7.8m/s | -50.8°C | 0.4% | 148.9hPa | 2.6V | 08:14:25 | 01:38:15 | 00:00:00 | |
| DF8AY | 2026-09-01 08:15:51 | 52.77477 | 8.24984 | 81° | 53km/h | 13889m | -7.9m/s | -50.8°C | 0.5% | 148.8hPa | 2.7V | 08:14:25 | 01:38:14 | 00:00:00 | |
| DL1XH-west | 2026-09-01 08:15:44 | 52.77497 | 8.24822 | 102° | 73km/h | 13943m | -7.8m/s | -50.6°C | 0.6% | 147.5hPa | 2.6V | 08:14:25 | 01:38:07 | 00:00:00 | |
| AA1-15 | 2026-09-01 08:15:41 | 52.77500 | 8.24729 | 85° | 73km/h | 13966m | -7.2m/s | -50.5°C | 0.5% | 147hPa | 2.7V | 08:14:25 | 01:38:04 | 00:00:00 | |
| DB0DAN | 2026-09-01 08:15:40 | 52.77498 | 8.24699 | 80° | 66km/h | 13973m | -7.3m/s | -50.5°C | 1.3% | 146.86hPa | 2.6V | 00:00:00 | 00:00:00 | 00:00:00 | |
| DF8AY | 2026-09-01 08:15:40 | 52.77498 | 8.24699 | 80° | 69km/h | 13973m | -7.3m/s | -50.5°C | 0.5% | 146.9hPa | 2.6V | 08:14:25 | 01:38:03 | 00:00:00 | |
| DL1XH-west | 2026-09-01 08:15:34 | 52.77491 | 8.24574 | 107° | 44km/h | 14018m | -7.3m/s | -50.2°C | 0.4% | 145.8hPa | 2.6V | 08:14:25 | 01:37:57 | 00:00:00 | |
| HSKMA3-T | 2026-09-01 08:15:33 | 52.77495 | 8.24555 | 112° | 49km/h | 14026m | -7.5m/s | -50.3°C | 0.4% | 145.7hPa | 2.6V | 08:14:25 | 01:37:56 | 00:00:00 | |
| AA1-15 | 2026-09-01 08:15:31 | 52.77506 | 8.24512 | 110° | 62km/h | 14041m | -7.7m/s | -50.4°C | 0.4% | 145.3hPa | 2.7V | 08:14:25 | 01:37:54 | 00:00:00 | |
| DF8AY | 2026-09-01 08:15:30 | 52.77511 | 8.24486 | 104° | 68km/h | 14049m | -7.6m/s | -50.4°C | 0.5% | 145.2hPa | 2.7V | 08:14:25 | 01:37:53 | 00:00:00 | |
| DN9WHV | 2026-09-01 08:15:29 | 52.77514 | 8.24458 | 99° | 71km/h | 14056m | -7.2m/s | -50.5°C | 1.3% | 145.0hPa | 2.7V | 08:14:00 | 00:00:00 | 00:00:00 | |
| DL1CLM-18 | 2026-09-01 08:15:28 | 52.77514 | 8.24458 | 99° | 71km/h | 14056m | -7.2m/s | -50.5°C | 1.3% | 145.0hPa | 2.7V | 00:00:00 | 00:00:00 | 00:00:00 | |
| GOEST3-10 | 2026-09-01 08:15:27 | 52.77515 | 8.24399 | 86° | 62km/h | 14071m | -7.5m/s | -50.5°C | 3.7% | 144.7hPa | 2.7V | 00:00:00 | 01:37:50 | 00:00:00 | |
| DN9WHV | 2026-09-01 08:15:26 | 52.77515 | 8.24399 | 86° | 69km/h | 14071m | -7.6m/s | -50.6°C | 1.3% | 144.7hPa | 2.7V | 08:14:00 | 00:00:00 | 00:00:00 | |
| DB0DAN | 2026-09-01 08:15:25 | 52.77510 | 8.24344 | 77° | 58km/h | 14087m | -8.1m/s | -50.6°C | 1.3% | 144.34hPa | 2.7V | 00:00:00 | 00:00:00 | 00:00:00 | |
| DL1XH-west | 2026-09-01 08:15:23 | 52.77503 | 8.24298 | 76° | 51km/h | 14103m | -7.8m/s | -50.7°C | 0.5% | 144hPa | 2.7V | 08:14:25 | 01:37:46 | 00:00:00 | |
| BIOWL1-15 | 2026-09-01 08:15:23 | 52.77498 | 8.24260 | 85° | 42km/h | 14118m | -7.4m/s | -50.7°C | 0.5% | 143.6hPa | 2.6V | 08:15:16 | 01:37:44 | 00:00:00 | |
| DL1XH1-15 | 2026-09-01 08:15:22 | 52.77508 | 8.24184 | 107° | 58km/h | 14148m | -7.4m/s | -50.8°C | 3.9% | 143hPa | 2.6V | 08:14:30 | 01:37:40 | 00:00:00 | |
| DD1CC8 | 2026-09-01 08:15:22 | 52.77498 | 8.24260 | 85° | 40km/h | 14118m | -7.4m/s | -50.7°C | 1.3% | 143.6hPa | 2.6V | 00:00:00 | 00:00:00 | 00:00:00 | |
| DL1XH-15 | 2026-09-01 08:15:21 | 52.77512 | 8.24159 | 106° | 66km/h | 14155m | -7.5m/s | -50.7°C | 3.8% | 142.8hPa | 2.6V | 08:14:31 | 01:37:39 | 00:00:00 | |
| AA1-15 | 2026-09-01 08:15:20 | 52.77498 | 8.24243 | 95° | 42km/h | 14125m | -7.3m/s | -50.8°C | 0.5% | 143.4hPa | 2.6V | 08:15:16 | 01:37:43 | 00:00:00 | |
| DF8AY | 2026-09-01 08:15:19 | 52.77500 | 8.24225 | 104° | 46km/h | 14133m | -7.3m/s | -50.8°C | 0.5% | 143.3hPa | 2.7V | 08:15:16 | 01:37:42 | 00:00:00 | |
| DD8BA-10 | 2026-09-01 08:15:19 | 52.77500 | 8.24225 | 105° | 66km/h | 14133m | -7.3m/s | -50.8°C | 3.8% | 143.3hPa | 2.7V | 00:00:00 | 00:00:00 | 00:00:00 | |
| DL3AQ-11 | 2026-09-01 08:15:18 | 52.77504 | 8.24206 | 108° | 51km/h | 14140m | -7.5m/s | -50.9°C | 1.4% | 143.2hPa | 2.7V | 00:00:00 | 00:00:00 | 00:00:00 | |
| GOEST3-10 | 2026-09-01 08:15:17 | 52.77508 | 8.24184 | 108° | 69km/h | 14148m | -7.4m/s | -50.7°C | 3.9% | 142.9hPa | 2.7V | 00:00:00 | 01:37:40 | 00:00:00 | |
| DN9WHV | 2026-09-01 08:15:16 | 52.77508 | 8.24184 | 109° | 58km/h | 14148m | -7.4m/s | -50.8°C | 1.4% | 143.0hPa | 2.7V | 08:15:00 | 00:00:00 | 00:00:00 | |
| DN9WHV | 2026-09-01 08:15:15 | 52.77512 | 8.24159 | 107° | 66km/h | 14156m | -7.5m/s | -50.7°C | 1.3% | 142.8hPa | 2.7V | 08:15:00 | 00:00:00 | 00:00:00 | |
| DM0DOS-11 | 2026-09-01 08:15:14 | 52.77511 | 8.23955 | 73° | 62km/h | 14209m | -7.6m/s | -50.8°C | 3.8% | 141.7hPa | 2.7V | 08:14:38 | 01:37:32 | 00:00:00 | |
| HSKMA3-T | 2026-09-01 08:15:13 | 52.77521 | 8.24071 | 92° | 75km/h | 14179m | -7.5m/s | -50.6°C | 0.5% | 142.3hPa | 2.7V | 08:15:16 | 01:37:36 | 00:00:00 | |
| DL1XH1-15 | 2026-09-01 08:15:12 | 52.77503 | 8.23910 | 73° | 51km/h | 14224m | -7.9m/s | -50.7°C | 3.9% | 141.3hPa | 2.6V | 08:14:40 | 01:37:30 | 00:00:00 | |
| DL1XH-west | 2026-09-01 08:15:12 | 52.77521 | 8.24040 | 87° | 75km/h | 14186m | -7.2m/s | -50.7°C | 0.6% | 142.1hPa | 2.6V | 08:15:16 | 01:37:35 | 00:00:00 | |
| GOEST3-10 | 2026-09-01 08:15:12 | 52.77521 | 8.24040 | 87° | 68km/h | 14187m | -7.1m/s | -50.6°C | 3.9% | 142.1hPa | 2.6V | 00:00:00 | 00:00:00 | 00:00:00 | |
| DL1XH-15 | 2026-09-01 08:15:11 | 52.77500 | 8.23891 | 78° | 46km/h | 14232m | -7.9m/s | -50.6°C | 3.7% | 141.1hPa | 2.6V | 08:14:41 | 01:37:29 | 00:00:00 | |
| BIOWL1-15 | 2026-09-01 08:15:11 | 52.77519 | 8.24010 | 81° | 73km/h | 14194m | -7.2m/s | -50.7°C | 0.5% | 142hPa | 2.6V | 08:15:16 | 01:37:34 | 00:00:00 | |
| DB0DAN | 2026-09-01 08:15:10 | 52.77516 | 8.23981 | 76° | 64km/h | 14201m | -7.3m/s | -50.7°C | 1.3% | 141.83hPa | 2.7V | 00:00:00 | 00:00:00 | 00:00:00 | |
| AA1-15 | 2026-09-01 08:15:10 | 52.77516 | 8.23981 | 76° | 68km/h | 14201m | -7.3m/s | -50.7°C | 0.5% | 141.8hPa | 2.7V | 08:15:16 | 01:37:33 | 00:00:00 | |
| DO2JMG | 2026-09-01 08:15:09 | 52.77511 | 8.23955 | 74° | 62km/h | 14209m | -7.6m/s | -50.8°C | 0.5% | 141.7hPa | 2.7V | 08:15:16 | 01:37:32 | 00:00:00 | |
| DF8AY | 2026-09-01 08:15:08 | 52.77507 | 8.23931 | 73° | 57km/h | 14216m | -7.8m/s | -50.8°C | 0.5% | 141.5hPa | 2.6V | 08:15:16 | 01:37:31 | 00:00:00 | |
| DN9WHV | 2026-09-01 08:15:07 | 52.77503 | 8.23910 | 74° | 51km/h | 14224m | -7.9m/s | -50.7°C | 1.4% | 141.3hPa | 2.7V | 08:15:00 | 00:00:00 | 00:00:00 | |
| DO3DL | 2026-09-01 08:15:06 | 52.77503 | 8.23910 | 74° | 51km/h | 14224m | -7.9m/s | -50.7°C | 1.4% | 141.3hPa | 2.7V | 08:15:00 | 00:00:00 | 00:00:00 | |
| D01LWL | 2026-09-01 08:15:05 | 52.77499 | 8.23856 | 96° | 40km/h | 14248m | -7.4m/s | -50.4°C | 1.3% | 140.8hPa | 2.7V | 00:00:00 | 00:00:00 | 00:00:00 | |
| DM0DOS-11 | 2026-09-01 08:15:04 | 52.77515 | 8.23746 | 100° | 68km/h | 14285m | -7.3m/s | -50.6°C | 3.8% | 140hPa | 2.7V | 08:14:48 | 01:37:22 | 00:00:00 | |
| HSKMA3-T | 2026-09-01 08:15:03 | 52.77500 | 8.23838 | 103° | 46km/h | 14255m | -7.2m/s | -50.4°C | 0.6% | 140.7hPa | 2.6V | 08:15:16 | 01:37:26 | 00:00:00 | |
| DL1XH-west | 2026-09-01 08:15:02 | 52.77504 | 8.23819 | 107° | 51km/h | 14263m | -7.5m/s | -50.5°C | 0.5% | 140.4hPa | 2.6V | 08:15:16 | 01:37:25 | 00:00:00 | |
| BIOWL9-15 | 2026-09-01 08:15:02 | 52.77508 | 8.23797 | 107° | 57km/h | 14270m | -7.4m/s | -50.5°C | 1.3% | 140.3hPa | 2.6V | 00:00:00 | 00:00:00 | 00:00:00 | |
| DL1XH-15 | 2026-09-01 08:15:01 | 52.77517 | 8.23664 | 83° | 64km/h | 14307m | -7.2m/s | -50.5°C | 3.8% | 139.6hPa | 2.6V | 08:14:51 | 01:37:19 | 00:00:00 | |
| AA1-15 | 2026-09-01 08:14:59 | 52.77515 | 8.23746 | 100° | 68km/h | 14285m | -7.3m/s | -50.6°C | 0.5% | 140hPa | 2.7V | 08:15:16 | 01:37:22 | 00:00:00 | |
| DO2JMG | 2026-09-01 08:14:58 | 52.77518 | 8.23719 | 95° | 68km/h | 14292m | -7.2m/s | -50.6°C | 0.5% | 139.8hPa | 2.7V | 08:15:16 | 01:37:21 | 00:00:00 | |
| DF8AY | 2026-09-01 08:14:57 | 52.77518 | 8.23691 | 89° | 66km/h | 14300m | -7.4m/s | -50.6°C | 0.6% | 139.7hPa | 2.6V | 08:15:16 | 01:37:20 | 00:00:00 | |
| SMARD9-15 | 2026-09-01 08:14:55 | 52.77515 | 8.23639 | 79° | 57km/h | 14314m | -7.2m/s | -50.6°C | 1.3% | 139.4hPa | 2.7V | 00:00:00 | 00:00:00 | 00:00:00 | |
| DL1LOL-11 | 2026-09-01 08:14:54 | 52.77515 | 8.23639 | 81° | 57km/h | 14314m | -7.2m/s | -50.6°C | 1.3% | 139.4hPa | 2.7V | 08:15:00 | 00:00:00 | 00:00:00 | |
| DM0DOS-11 | 2026-09-01 08:14:54 | 52.77512 | 8.23526 | 103° | 49km/h | 14359m | -7m/s | -50.5°C | 3.7% | 138.4hPa | 2.6V | 08:14:58 | 01:37:12 | 00:00:00 | |
| DN9WHV | 2026-09-01 08:14:53 | 52.77508 | 8.23579 | 87° | 42km/h | 14337m | -7.7m/s | -50.5°C | 1.3% | 138.9hPa | 2.7V | 08:15:00 | 00:00:00 | 00:00:00 | |
| DL1XH1-15 | 2026-09-01 08:14:52 | 52.77517 | 8.23483 | 99° | 57km/h | 14373m | -7.2m/s | -50.5°C | 3.7% | 138.1hPa | 2.7V | 08:15:00 | 01:37:10 | 00:00:00 | |
| DL1XH-west | 2026-09-01 08:14:52 | 52.77508 | 8.23579 | 86° | 42km/h | 14336m | -7.7m/s | -50.5°C | 0.4% | 138.9hPa | 2.7V | 08:15:16 | 01:37:15 | 00:00:00 | |
| AA1-15 | 2026-09-01 08:14:48 | 52.77515 | 8.23505 | 103° | 53km/h | 14366m | -7.2m/s | -50.5°C | 0.4% | 138.3hPa | 2.6V | 08:15:16 | 01:37:11 | 00:00:00 | |
| DF8AY | 2026-09-01 08:14:47 | 52.77517 | 8.23483 | 100° | 57km/h | 14373m | -7.2m/s | -50.5°C | 0.5% | 138.1hPa | 2.7V | 08:15:16 | 01:37:10 | 00:00:00 | |
| HTAHTA | 2026-09-01 08:14:47 | 52.77522 | 8.23415 | 92° | 49km/h | 14395m | -7.4m/s | -50.6°C | 1.3% | 137.6hPa | 2.6V | 00:00:00 | 00:00:00 | 00:00:00 | |
| DN9WHV | 2026-09-01 08:14:46 | 52.77517 | 8.23483 | 101° | 57km/h | 14373m | -7.2m/s | -50.5°C | 1.3% | 138.1hPa | 2.6V | 08:15:00 | 00:00:00 | 00:00:00 | |
| DM0DOS-11 | 2026-09-01 08:14:44 | 52.77526 | 8.23317 | 94° | 44km/h | 14434m | -8.2m/s | -50.8°C | 3.7% | 136.8hPa | 2.6V | 08:15:08 | 01:37:02 | 00:00:00 | |
| DK9SH | 2026-09-01 08:14:43 | 52.77521 | 8.23415 | 94° | 51km/h | 14395m | -7.4m/s | -50.6°C | 1.3% | 137.6hPa | 2.7V | 08:15:00 | 00:00:00 | 00:00:00 | |
| DL1NUX | 2026-09-01 08:14:42 | 52.77528 | 8.23282 | 95° | 40km/h | 14451m | -8.1m/s | -50.9°C | 3.8% | 136.5hPa | 2.7V | 08:15:10 | 01:37:00 | 00:00:00 | |
| DL1XH-west | 2026-09-01 08:14:41 | 52.77524 | 8.23355 | 96° | 47km/h | 14418m | -8m/s | -50.8°C | 0.5% | 137.2hPa | 2.7V | 08:15:16 | 01:37:04 | 00:00:00 | |
| BIOWL1-15 | 2026-09-01 08:14:39 | 52.77526 | 8.23317 | 95° | 44km/h | 14434m | -8.3m/s | -50.8°C | 0.5% | 136.8hPa | 2.6V | 08:15:16 | 01:37:02 | 00:00:00 | |
| DF8AY | 2026-09-01 08:14:37 | 52.77529 | 8.23266 | 97° | 38km/h | 14459m | -7.9m/s | -51°C | 0.5% | 136.3hPa | 2.6V | 08:15:16 | 01:36:59 | 00:00:00 | |
| AA1-15 | 2026-09-01 08:14:37 | 52.77528 | 8.23282 | 95° | 40km/h | 14451m | -8.1m/s | -50.9°C | 0.5% | 136.5hPa | 2.7V | 08:15:16 | 01:37:00 | 00:00:00 | |
| DO9LL-15 | 2026-09-01 08:14:37 | 52.77527 | 8.23282 | 96° | 44km/h | 14451m | -8.1m/s | -50.9°C | 3.8% | 136.5hPa | 2.7V | 00:00:00 | 01:37:00 | 00:00:00 | |
| DL3OBA | 2026-09-01 08:14:36 | 52.77529 | 8.23266 | 98° | 40km/h | 14459m | -7.9m/s | -51.0°C | 1.3% | 136.3hPa | 2.7V | 00:00:00 | 00:00:00 | 00:00:00 | |
| DN9WHV | 2026-09-01 08:14:35 | 52.77529 | 8.23266 | 98° | 40km/h | 14459m | -7.9m/s | -51.0°C | 1.3% | 136.3hPa | 2.7V | 08:15:00 | 00:00:00 | 00:00:00 | |
| DM0DOS-11 | 2026-09-01 08:14:34 | 52.77543 | 8.23143 | 94° | 53km/h | 14516m | -7.8m/s | -51.3°C | 3.9% | 135.1hPa | 2.7V | 08:15:18 | 01:36:52 | 00:00:00 | |
| DL8OAI-8 | 2026-09-01 08:14:33 | 52.77532 | 8.23234 | 104° | 38km/h | 14476m | -8.1m/s | -51.1°C | 1.3% | 136.0hPa | 2.6V | 08:15:00 | 00:00:00 | 00:00:00 | |
| DL1NUX | 2026-09-01 08:14:32 | 52.77543 | 8.23100 | 84° | 51km/h | 14533m | -8.7m/s | -51.4°C | 3.9% | 134.8hPa | 2.6V | 08:15:20 | 01:36:50 | 00:00:00 | |
| GOEST3-10 | 2026-09-01 08:14:32 | 52.77536 | 8.23201 | 104° | 47km/h | 14492m | -8.3m/s | -51.1°C | 3.9% | 135.6hPa | 2.6V | 00:00:00 | 00:00:00 | 00:00:00 | |
| DL1XH-15 | 2026-09-01 08:14:31 | 52.77541 | 8.23079 | 78° | 51km/h | 14541m | -8.7m/s | -51.5°C | 3.9% | 134.6hPa | 2.6V | 08:15:21 | 01:36:49 | 00:00:00 | |
| DL1XH-west | 2026-09-01 08:14:30 | 52.77542 | 8.23164 | 101° | 49km/h | 14508m | -8m/s | -51.3°C | 0.5% | 135.3hPa | 2.6V | 08:16:07 | 01:36:53 | 00:00:00 | |
| BIOWL1-15 | 2026-09-01 08:14:29 | 52.77543 | 8.23143 | 95° | 53km/h | 14516m | -7.9m/s | -51.3°C | 0.6% | 135.1hPa | 2.7V | 08:16:07 | 01:36:52 | 00:00:00 | |
| DO2JMG | 2026-09-01 08:14:27 | 52.77543 | 8.23100 | 84° | 51km/h | 14533m | -8.7m/s | -51.4°C | 0.6% | 134.8hPa | 2.6V | 08:16:07 | 01:36:50 | 00:00:00 | |
| AA1-15 | 2026-09-01 08:14:26 | 52.77541 | 8.23079 | 79° | 51km/h | 14541m | -8.7m/s | -51.5°C | 0.6% | 134.6hPa | 2.6V | 08:16:07 | 01:36:49 | 00:00:00 | |
| DB0DAN | 2026-09-01 08:14:25 | 52.77538 | 8.23060 | 73° | 44km/h | 14550m | -8.4m/s | -51.6°C | 1.3% | 134.42hPa | 2.6V | 00:00:00 | 00:00:00 | 00:00:00 | |
| DM0DOS-11 | 2026-09-01 08:14:24 | 52.77534 | 8.22984 | 116° | 37km/h | 14597m | -7.7m/s | -51.7°C | 3.9% | 133.4hPa | 2.7V | 08:15:28 | 01:36:42 | 00:00:00 | |
| SO1NDE-10 | 2026-09-01 08:14:23 | 52.77532 | 8.23029 | 71° | 46km/h | 14566m | -8.1m/s | -51.7°C | 3.9% | 134.0hPa | 2.7V | 00:00:00 | 01:36:46 | 00:00:00 | |
| DL1NUX | 2026-09-01 08:14:22 | 52.77543 | 8.22952 | 114° | 49km/h | 14613m | -7.6m/s | -51.7°C | 3.9% | 133.1hPa | 2.7V | 08:15:30 | 01:36:40 | 00:00:00 | |
| EDDB2-12 | 2026-09-01 08:14:22 | 52.77529 | 8.23007 | 94° | 24km/h | 14582m | -7.8m/s | -51.8°C | 1.3% | 133.7hPa | 2.6V | 00:00:00 | 00:00:00 | 00:00:00 | |
| DL1XH-15 | 2026-09-01 08:14:21 | 52.77548 | 8.22932 | 107° | 55km/h | 14621m | -8.2m/s | -51.7°C | 4% | 132.9hPa | 2.6V | 08:15:31 | 01:36:39 | 00:00:00 | |
| DL1XH-west | 2026-09-01 08:14:20 | 52.77531 | 8.22997 | 110° | 29km/h | 14590m | -7.8m/s | -51.8°C | 0.6% | 133.6hPa | 2.6V | 08:16:07 | 01:36:43 | 00:00:00 | |
| HSKMA3-T | 2026-09-01 08:14:19 | 52.77534 | 8.22984 | 116° | 37km/h | 14597m | -7.7m/s | -51.7°C | 0.5% | 133.4hPa | 2.7V | 08:16:07 | 01:36:42 | 00:00:00 | |
| AA1-15 | 2026-09-01 08:14:16 | 52.77548 | 8.22932 | 107° | 55km/h | 14621m | -8.2m/s | -51.7°C | 0.6% | 132.9hPa | 2.6V | 08:16:07 | 01:36:39 | 00:00:00 | |
| DF8AY | 2026-09-01 08:14:15 | 52.77552 | 8.22909 | 101° | 58km/h | 14629m | -8.2m/s | -51.7°C | 0.7% | 132.8hPa | 2.6V | 08:16:07 | 01:36:38 | 00:00:00 | |
| DM0DOS-11 | 2026-09-01 08:14:14 | 52.77540 | 8.22775 | 65° | 42km/h | 14677m | -8.1m/s | -51.9°C | 3.9% | 131.8hPa | 2.6V | 08:15:38 | 01:36:32 | 00:00:00 | |
| DL8OAI-8 | 2026-09-01 08:14:13 | 52.77553 | 8.22884 | 95° | 60km/h | 14637m | -8.3m/s | -51.7°C | 1.4% | 132.6hPa | 2.6V | 08:16:00 | 00:00:00 | 00:00:00 | |
| DL1NUX | 2026-09-01 08:14:12 | 52.77533 | 8.22748 | 76° | 31km/h | 14693m | -7.7m/s | -52°C | 3.9% | 131.5hPa | 2.6V | 08:15:40 | 01:36:30 | 00:00:00 | |
| DL3AQ-11 | 2026-09-01 08:14:12 | 52.77549 | 8.22813 | 73° | 53km/h | 14661m | -7.7m/s | -51.8°C | 1.3% | 132.1hPa | 2.7V | 00:00:00 | 00:00:00 | 00:00:00 | |
| DL1XH-15 | 2026-09-01 08:14:11 | 52.77532 | 8.22735 | 89° | 29km/h | 14700m | -7.6m/s | -52°C | 4% | 131.3hPa | 2.7V | 08:15:41 | 01:36:29 | 00:00:00 | |
| DB0DAN | 2026-09-01 08:14:10 | 52.77544 | 8.22793 | 68° | 47km/h | 14669m | -7.8m/s | -51.8°C | 1.3% | 131.97hPa | 2.7V | 00:00:00 | 00:00:00 | 00:00:00 | |
| DL1XH-west | 2026-09-01 08:14:09 | 52.77540 | 8.22775 | 65° | 42km/h | 14677m | -8.1m/s | -51.9°C | 0.5% | 131.8hPa | 2.6V | 08:16:07 | 01:36:32 | 00:00:00 | |
| BIOWL1-15 | 2026-09-01 08:14:07 | 52.77533 | 8.22748 | 76° | 31km/h | 14693m | -7.7m/s | -52°C | 0.5% | 131.5hPa | 2.6V | 08:16:07 | 01:36:30 | 00:00:00 | |
| DO2JMG | 2026-09-01 08:14:06 | 52.77532 | 8.22735 | 89° | 29km/h | 14701m | -7.6m/s | -52°C | 0.6% | 131.3hPa | 2.7V | 08:16:07 | 01:36:29 | 00:00:00 | |
| DF8AY | 2026-09-01 08:14:05 | 52.77533 | 8.22723 | 102° | 33km/h | 14708m | -7.3m/s | -52.1°C | 0.5% | 131.2hPa | 2.7V | 08:16:07 | 01:36:28 | 00:00:00 | |
| D01LWL | 2026-09-01 08:14:03 | 52.77542 | 8.22670 | 102° | 53km/h | 14731m | -7.6m/s | -52.0°C | 1.3% | 130.7hPa | 2.6V | 00:00:00 | 00:00:00 | 00:00:00 | |
| GOEST3-10 | 2026-09-01 08:14:02 | 52.77542 | 8.22670 | 103° | 60km/h | 14731m | -7.6m/s | -52.0°C | 4.0% | 130.7hPa | 2.6V | 00:00:00 | 00:00:00 | 00:00:00 | |
| DL1XH-15 | 2026-09-01 08:14:01 | 52.77533 | 8.22525 | 65° | 49km/h | 14778m | -7.7m/s | -52.2°C | 4% | 129.7hPa | 2.6V | 08:15:51 | 01:36:19 | 00:00:00 | |
| HSKMA3-T | 2026-09-01 08:13:59 | 52.77545 | 8.22595 | 84° | 64km/h | 14755m | -7.8m/s | -52.1°C | 0.6% | 130.2hPa | 2.7V | 08:16:07 | 01:36:22 | 00:00:00 | |
| DL1XH-west | 2026-09-01 08:13:58 | 52.77542 | 8.22570 | 77° | 60km/h | 14762m | -7.7m/s | -52.1°C | 0.6% | 130.1hPa | 2.6V | 08:16:07 | 01:36:21 | 00:00:00 | |
| BIOWL1-15 | 2026-09-01 08:13:57 | 52.77538 | 8.22546 | 71° | 57km/h | 14770m | -7.6m/s | -52.1°C | 0.6% | 129.9hPa | 2.6V | 08:16:07 | 01:36:20 | 00:00:00 | |
| DL1NUX | 2026-09-01 08:13:57 | 52.77538 | 8.22546 | 70° | 57km/h | 14770m | -7.6m/s | -52.1°C | 4% | 129.9hPa | 2.6V | 08:15:50 | 01:36:20 | 00:00:00 | |
| DO2JMG | 2026-09-01 08:13:56 | 52.77533 | 8.22525 | 65° | 49km/h | 14778m | -7.7m/s | -52.2°C | 0.5% | 129.7hPa | 2.6V | 08:16:07 | 01:36:19 | 00:00:00 | |
| DB0DAN | 2026-09-01 08:13:55 | 52.77528 | 8.22508 | 63° | 40km/h | 14786m | -7.9m/s | -52.3°C | 1.3% | 129.58hPa | 2.6V | 00:00:00 | 00:00:00 | 00:00:00 | |
| AA1-15 | 2026-09-01 08:13:55 | 52.77528 | 8.22508 | 63° | 42km/h | 14786m | -7.9m/s | -52.3°C | 0.6% | 129.6hPa | 2.6V | 08:16:07 | 01:36:18 | 00:00:00 | |
| DF8AY | 2026-09-01 08:13:54 | 52.77524 | 8.22494 | 66° | 35km/h | 14794m | -8.4m/s | -52.3°C | 0.5% | 129.4hPa | 2.7V | 08:16:07 | 01:36:17 | 00:00:00 | |
| SMARD9-15 | 2026-09-01 08:13:53 | 52.77521 | 8.22481 | 72° | 29km/h | 14802m | -8.4m/s | -52.2°C | 1.3% | 129.2hPa | 2.7V | 00:00:00 | 00:00:00 | 00:00:00 | |
| SO1NDE-10 | 2026-09-01 08:13:52 | 52.77519 | 8.22469 | 84° | 49km/h | 14811m | -8.3m/s | -51.9°C | 3.9% | 129.0hPa | 2.7V | 00:00:00 | 01:36:15 | 00:00:00 | |
| DL1XH-15 | 2026-09-01 08:13:51 | 52.77531 | 8.22364 | 95° | 60km/h | 14858m | -7.6m/s | -51.6°C | 3.8% | 128.1hPa | 2.6V | 08:16:01 | 01:36:09 | 00:00:00 | |
| DL1XH-west | 2026-09-01 08:13:48 | 52.77526 | 8.22409 | 106° | 49km/h | 14843m | -7.6m/s | -51.7°C | 0.5% | 128.4hPa | 2.7V | 08:16:07 | 01:36:11 | 00:00:00 | |
| DL1NUX | 2026-09-01 08:13:47 | 52.77530 | 8.22388 | 100° | 57km/h | 14851m | -7.8m/s | -51.6°C | 3.8% | 128.3hPa | 2.7V | 08:16:00 | 01:36:10 | 00:00:00 | |
| BIOWL1-15 | 2026-09-01 08:13:47 | 52.77529 | 8.22388 | 101° | 57km/h | 14851m | -7.8m/s | -51.6°C | 0.4% | 128.3hPa | 2.7V | 08:16:07 | 01:36:10 | 00:00:00 | |
| DO2JMG | 2026-09-01 08:13:45 | 52.77532 | 8.22338 | 89° | 64km/h | 14866m | -8.1m/s | -51.5°C | 0.4% | 128hPa | 2.6V | 08:16:07 | 01:36:08 | 00:00:00 | |
| AA1-15 | 2026-09-01 08:13:44 | 52.77531 | 8.22311 | 82° | 64km/h | 14875m | -8.2m/s | -51.6°C | 0.4% | 127.8hPa | 2.6V | 08:16:07 | 01:36:07 | 00:00:00 | |
| DM0DOS-11 | 2026-09-01 08:13:44 | 52.77505 | 8.22199 | 58° | 46km/h | 14918m | -8m/s | -51.8°C | 3.9% | 127hPa | 2.6V | 08:16:08 | 01:36:02 | 00:00:00 | |
| DF8AY | 2026-09-01 08:13:43 | 52.77528 | 8.22285 | 76° | 64km/h | 14883m | -8.9m/s | -51.6°C | 0.5% | 127.7hPa | 2.7V | 08:16:07 | 01:36:06 | 00:00:00 | |
| DL1NUX | 2026-09-01 08:13:42 | 52.77495 | 8.22172 | 60° | 31km/h | 14933m | -7.6m/s | -51.9°C | 3.8% | 126.7hPa | 2.6V | 08:16:10 | 01:36:00 | 00:00:00 | |
| GOEST3-10 | 2026-09-01 08:13:42 | 52.77523 | 8.22260 | 72° | 51km/h | 14892m | -8.7m/s | -51.5°C | 3.9% | 127.4hPa | 2.7V | 00:00:00 | 00:00:00 | 00:00:00 | |
| DL1XH-15 | 2026-09-01 08:13:41 | 52.77492 | 8.22161 | 69° | 26km/h | 14941m | -8m/s | -51.9°C | 3.8% | 126.5hPa | 2.7V | 08:16:11 | 01:35:59 | 00:00:00 | |
| DB0DAN | 2026-09-01 08:13:40 | 52.77512 | 8.22216 | 62° | 49km/h | 14909m | -8.3m/s | -51.7°C | 1.3% | 127.17hPa | 2.6V | 00:00:00 | 00:00:00 | 00:00:00 | |
| BIOWL1-15 | 2026-09-01 08:13:38 | 52.77492 | 8.22161 | 69° | 26km/h | 14941m | -8m/s | -51.9°C | 0.4% | 126.5hPa | 2.7V | 08:16:58 | 01:35:59 | 00:00:00 | |
| DL1XH-west | 2026-09-01 08:13:37 | 52.77495 | 8.22172 | 60° | 31km/h | 14933m | -7.6m/s | -51.9°C | 0.4% | 126.7hPa | 2.6V | 08:16:58 | 01:36:00 | 00:00:00 | |
| DO2JMG | 2026-09-01 08:13:35 | 52.77491 | 8.22151 | 85° | 26km/h | 14949m | -8.3m/s | -52°C | 0.4% | 126.4hPa | 2.7V | 08:16:58 | 01:35:58 | 00:00:00 | |
| AA1-15 | 2026-09-01 08:13:33 | 52.77492 | 8.22126 | 99° | 35km/h | 14966m | -8.7m/s | -52°C | 0.5% | 126hPa | 2.6V | 08:16:58 | 01:35:56 | 00:00:00 | |
| D01LWL | 2026-09-01 08:13:32 | 52.77495 | 8.22091 | 96° | 49km/h | 14983m | -8.0m/s | -52.0°C | 1.3% | 125.7hPa | 2.6V | 00:00:00 | 00:00:00 | 00:00:00 | |
| DL1XH-15 | 2026-09-01 08:13:31 | 52.77483 | 8.21968 | 65° | 62km/h | 15022m | -7.9m/s | -51.6°C | 3.9% | 125hPa | 2.6V | 08:16:21 | 01:35:49 | 00:00:00 | |
| DL1XH-west | 2026-09-01 08:13:27 | 52.77489 | 8.21992 | 72° | 64km/h | 15014m | -7.9m/s | -51.6°C | 0.4% | 125.1hPa | 2.6V | 08:16:58 | 01:35:50 | 00:00:00 | |
| BIOWL1-15 | 2026-09-01 08:13:25 | 52.77476 | 8.21946 | 61° | 57km/h | 15030m | -8m/s | -51.6°C | 0.4% | 124.8hPa | 2.7V | 08:16:58 | 01:35:48 | 00:00:00 | |
| DO2JMG | 2026-09-01 08:13:24 | 52.77469 | 8.21926 | 59° | 51km/h | 15038m | -7.9m/s | -51.5°C | 0.4% | 124.6hPa | 2.7V | 08:16:58 | 01:35:47 | 00:00:00 | |
| DM0DOS-11 | 2026-09-01 08:13:24 | 52.77452 | 8.21843 | 90° | 49km/h | 15078m | -8m/s | -51.5°C | 3.8% | 123.9hPa | 2.6V | 08:16:28 | 01:35:42 | 00:00:00 | |
| DN9WHV | 2026-09-01 08:13:23 | 52.77469 | 8.21926 | 60° | 51km/h | 15038m | -7.9m/s | -51.5°C | 1.2% | 124.6hPa | 2.7V | 08:16:00 | 00:00:00 | 00:00:00 | |
| DL1NUX | 2026-09-01 08:13:22 | 52.77452 | 8.21796 | 86° | 64km/h | 15094m | -8.1m/s | -51.5°C | 3.9% | 123.5hPa | 2.7V | 08:16:30 | 01:35:40 | 00:00:00 | |
| AA1-15 | 2026-09-01 08:13:22 | 52.77458 | 8.21894 | 65° | 40km/h | 15054m | -7.9m/s | -51.4°C | 0.4% | 124.3hPa | 2.6V | 08:16:58 | 01:35:45 | 00:00:00 | |
| DL1XH-west | 2026-09-01 08:13:17 | 52.77452 | 8.21796 | 87° | 64km/h | 15094m | -8.1m/s | -51.5°C | 0.4% | 123.5hPa | 2.7V | 08:16:58 | 01:35:40 | 00:00:00 | |
| BIOWL1-15 | 2026-09-01 08:13:15 | 52.77447 | 8.21739 | 77° | 71km/h | 15110m | -8.3m/s | -51.5°C | 0.4% | 123.2hPa | 2.6V | 08:16:58 | 01:35:38 | 00:00:00 | |
| DM0DOS-11 | 2026-09-01 08:13:14 | 52.77414 | 8.21594 | 76° | 49km/h | 15158m | -8.1m/s | -51.4°C | 3.8% | 122.3hPa | 2.6V | 08:16:38 | 01:35:32 | 00:00:00 | |
| DO2JMG | 2026-09-01 08:13:13 | 52.77436 | 8.21683 | 68° | 69km/h | 15126m | -7.8m/s | -51.6°C | 0.4% | 122.9hPa | 2.6V | 08:16:58 | 01:35:36 | 00:00:00 | |
| DF8AY | 2026-09-01 08:13:12 | 52.77429 | 8.21658 | 65° | 64km/h | 15134m | -8.1m/s | -51.5°C | 0.4% | 122.8hPa | 2.7V | 08:16:58 | 01:35:35 | 00:00:00 | |
| GOEST3-10 | 2026-09-01 08:13:12 | 52.77429 | 8.21658 | 65° | 55km/h | 15134m | -8.0m/s | -51.5°C | 3.9% | 122.7hPa | 2.6V | 00:00:00 | 00:00:00 | 00:00:00 | |
| DL1XH-15 | 2026-09-01 08:13:12 | 52.77410 | 8.21529 | 88° | 57km/h | 15181m | -8.1m/s | -51.1°C | 3.8% | 121.8hPa | 2.7V | 08:16:41 | 01:35:29 | 00:00:00 | |
| AA1-15 | 2026-09-01 08:13:11 | 52.77423 | 8.21635 | 66° | 57km/h | 15142m | -8.1m/s | -51.5°C | 0.4% | 122.6hPa | 2.7V | 08:16:58 | 01:35:34 | 00:00:00 | |
| DB0DAN | 2026-09-01 08:13:10 | 52.77418 | 8.21614 | 70° | 49km/h | 15150m | -8.4m/s | -51.5°C | 1.2% | 122.47hPa | 2.6V | 00:00:00 | 00:00:00 | 00:00:00 | |
| DL1XH-west | 2026-09-01 08:13:07 | 52.77411 | 8.21552 | 87° | 53km/h | 15174m | -7.4m/s | -51.2°C | 0.4% | 122hPa | 2.7V | 08:16:58 | 01:35:30 | 00:00:00 | |
| HSKMA3-T | 2026-09-01 08:13:06 | 52.77410 | 8.21529 | 88° | 58km/h | 15181m | -8.1m/s | -51.1°C | 0.4% | 121.8hPa | 2.7V | 08:16:58 | 01:35:29 | 00:00:00 | |
| SONCRA | 2026-09-01 08:13:05 | 52.77409 | 8.21504 | 86° | 60km/h | 15190m | -8.3m/s | -51.0°C | 1.2% | 121.7hPa | 2.7V | 00:00:00 | 00:00:00 | 00:00:00 | |
| DM0DOS-11 | 2026-09-01 08:13:04 | 52.77394 | 8.21372 | 82° | 47km/h | 15239m | -8.4m/s | -51.1°C | 3.8% | 120.8hPa | 2.7V | 08:16:48 | 01:35:22 | 00:00:00 | |
| BIOWL1-15 | 2026-09-01 08:13:04 | 52.77408 | 8.21479 | 83° | 60km/h | 15198m | -8m/s | -51.1°C | 0.4% | 121.6hPa | 2.6V | 08:16:58 | 01:35:27 | 00:00:00 | |
| DF8AY | 2026-09-01 08:13:02 | 52.77402 | 8.21432 | 75° | 55km/h | 15214m | -7.8m/s | -51.1°C | 0.3% | 121.3hPa | 2.6V | 08:16:58 | 01:35:25 | 00:00:00 | |
| DL1XH-15 | 2026-09-01 08:13:02 | 52.77390 | 8.21308 | 83° | 53km/h | 15263m | -8.6m/s | -50.9°C | 3.8% | 120.4hPa | 2.6V | 08:16:51 | 01:35:19 | 00:00:00 | |
| AA1-15 | 2026-09-01 08:13:00 | 52.77396 | 8.21392 | 79° | 47km/h | 15231m | -8.8m/s | -51.1°C | 0.3% | 121hPa | 2.7V | 08:16:58 | 01:35:23 | 00:00:00 | |
| BIOWL1-15 | 2026-09-01 08:12:56 | 52.77387 | 8.21265 | 86° | 51km/h | 15281m | -8.4m/s | -50.8°C | 0.3% | 120hPa | 2.7V | 08:16:58 | 01:35:17 | 00:00:00 | |
| DL1XH-west | 2026-09-01 08:12:56 | 52.77390 | 8.21308 | 84° | 55km/h | 15263m | -8.6m/s | -50.9°C | 0.3% | 120.4hPa | 2.6V | 08:16:58 | 01:35:19 | 00:00:00 | |
| DB0DAN | 2026-09-01 08:12:55 | 52.77389 | 8.21286 | 84° | 49km/h | 15272m | -8.7m/s | -50.9°C | 1.1% | 120.23hPa | 2.6V | 00:00:00 | 00:00:00 | 00:00:00 | |
| HSKMA3-T | 2026-09-01 08:12:55 | 52.77389 | 8.21286 | 84° | 51km/h | 15272m | -8.7m/s | -50.9°C | 0.3% | 120.2hPa | 2.6V | 08:16:58 | 01:35:18 | 00:00:00 | |
| DB0ND-19 | 2026-09-01 08:12:54 | 52.77379 | 8.21051 | 82° | 47km/h | 15364m | -8.5m/s | -50.7°C | -1.0% | 118.5hPa | 2.7V | 00:00:00 | 00:00:00 | 00:00:00 | |
| DL1NUX | 2026-09-01 08:12:52 | 52.77381 | 8.21111 | 85° | 46km/h | 15339m | -8.2m/s | -50.6°C | 3.6% | 119hPa | 2.7V | 08:17:00 | 01:35:10 | 00:00:00 | |
| DO2JMG | 2026-09-01 08:12:51 | 52.77387 | 8.21197 | 87° | 57km/h | 15306m | -8.3m/s | -50.6°C | 0.3% | 119.6hPa | 2.6V | 08:16:58 | 01:35:14 | 00:00:00 | |
| AA1-15 | 2026-09-01 08:12:49 | 52.77384 | 8.21152 | 83° | 51km/h | 15323m | -8.2m/s | -50.6°C | 0.3% | 119.3hPa | 2.7V | 08:16:58 | 01:35:12 | 00:00:00 | |
| BIOWL1-15 | 2026-09-01 08:12:48 | 52.77379 | 8.21051 | 83° | 49km/h | 15364m | -8.5m/s | -50.7°C | 0.2% | 118.5hPa | 2.6V | 08:17:49 | 01:35:07 | 00:00:00 | |
| DL1XH-west | 2026-09-01 08:12:45 | 52.77380 | 8.21072 | 87° | 49km/h | 15356m | -8.1m/s | -50.6°C | 0.2% | 118.7hPa | 2.6V | 08:17:49 | 01:35:08 | 00:00:00 | |
| SONDE2-11 | 2026-09-01 08:12:45 | 52.77379 | 8.21051 | 82° | 47km/h | 15364m | -8.5m/s | -50.7°C | 1.1% | 118.5hPa | 2.7V | 00:00:00 | 00:00:00 | 00:00:00 | |
| DD1CC3-15 | 2026-09-01 08:12:44 | 52.77380 | 8.21071 | 88° | 49km/h | 15356m | -8.1m/s | -50.6°C | 1.1% | 118.7hPa | 2.7V | 08:17:00 | 00:00:00 | 00:00:00 | |
| SMARD9-10 | 2026-09-01 08:12:43 | 52.77379 | 8.21051 | 84° | 49km/h | 15364m | -8.5m/s | -50.7°C | 1.1% | 118.5hPa | 2.7V | 00:00:00 | 00:00:00 | 00:00:00 | |
| DL1NUX | 2026-09-01 08:12:42 | 52.77361 | 8.20924 | 66° | 47km/h | 15422m | -8.8m/s | -50.5°C | 3.5% | 117.4hPa | 2.7V | 08:17:10 | 01:35:00 | 00:00:00 | |
| GOEST3-10 | 2026-09-01 08:12:42 | 52.77375 | 8.21012 | 79° | 44km/h | 15381m | -8.1m/s | -50.5°C | 3.6% | 118.2hPa | 2.7V | 00:00:00 | 00:00:00 | 00:00:00 | |
| DL1XH-15 | 2026-09-01 08:12:41 | 52.77356 | 8.20907 | 67° | 46km/h | 15431m | -9.2m/s | -50.4°C | 3.5% | 117.3hPa | 2.7V | 08:17:11 | 01:34:59 | 00:00:00 | |
| DF8AY | 2026-09-01 08:12:41 | 52.77373 | 8.20995 | 76° | 40km/h | 15389m | -8.4m/s | -50.6°C | 0.2% | 118.1hPa | 2.6V | 08:17:49 | 01:35:04 | 00:00:00 | |
| DB0DAN | 2026-09-01 08:12:40 | 52.77371 | 8.20978 | 78° | 40km/h | 15397m | -8.4m/s | -50.5°C | 1.1% | 117.9hPa | 2.6V | 00:00:00 | 00:00:00 | 00:00:00 | |
| AA1-15 | 2026-09-01 08:12:38 | 52.77365 | 8.20943 | 71° | 46km/h | 15413m | -8.3m/s | -50.5°C | 0.2% | 117.6hPa | 2.7V | 08:17:49 | 01:35:01 | 00:00:00 | |
| HSKMA3-T | 2026-09-01 08:12:35 | 52.77353 | 8.20889 | 74° | 44km/h | 15440m | -8.9m/s | -50.4°C | 0.2% | 117.1hPa | 2.6V | 08:17:49 | 01:34:58 | 00:00:00 | |
| DL1XH-west | 2026-09-01 08:12:34 | 52.77350 | 8.20871 | 83° | 46km/h | 15448m | -8m/s | -50.4°C | 0.2% | 117hPa | 2.6V | 08:17:49 | 01:34:57 | 00:00:00 | |
| BIOWL1-15 | 2026-09-01 08:12:33 | 52.77350 | 8.20851 | 90° | 49km/h | 15456m | -7.9m/s | -50.3°C | 0.1% | 116.8hPa | 2.6V | 08:17:49 | 01:34:56 | 00:00:00 | |
| DB0NH | 2026-09-01 08:12:33 | 52.77349 | 8.20851 | 90° | 38km/h | 15456m | -7.8m/s | -50.3°C | 3.5% | 116.8hPa | 2.6V | 00:00:00 | 01:34:56 | 00:00:00 | |
| DL1NUX | 2026-09-01 08:12:32 | 52.77353 | 8.20743 | 88° | 29km/h | 15509m | -9m/s | -50.4°C | 3.4% | 115.9hPa | 2.6V | 08:17:20 | 01:34:50 | 00:00:00 | |
| GOEST3-10 | 2026-09-01 08:12:32 | 52.77350 | 8.20830 | 92° | 44km/h | 15465m | -8.7m/s | -50.2°C | 3.5% | 116.6hPa | 2.6V | 00:00:00 | 00:00:00 | 00:00:00 | |
| DL1XH-15 | 2026-09-01 08:12:31 | 52.77352 | 8.20732 | 79° | 26km/h | 15518m | -9.1m/s | -50.4°C | 3.4% | 115.7hPa | 2.6V | 08:17:21 | 01:34:49 | 00:00:00 | |
| DO2JMG | 2026-09-01 08:12:30 | 52.77351 | 8.20789 | 95° | 46km/h | 15483m | -8.9m/s | -50.2°C | 0.1% | 116.3hPa | 2.7V | 08:17:49 | 01:34:53 | 00:00:00 | |
| DF8AY | 2026-09-01 08:12:29 | 52.77352 | 8.20771 | 97° | 40km/h | 15491m | -8.6m/s | -50.2°C | 0.1% | 116.2hPa | 2.7V | 08:17:49 | 01:34:52 | 00:00:00 | |
| AA1-15 | 2026-09-01 08:12:27 | 52.77353 | 8.20743 | 89° | 29km/h | 15509m | -9m/s | -50.4°C | 0.1% | 115.9hPa | 2.6V | 08:17:49 | 01:34:50 | 00:00:00 | |
| BIOWL1-15 | 2026-09-01 08:12:25 | 52.77345 | 8.20704 | 52° | 27km/h | 15545m | -9m/s | -50.7°C | 0.2% | 115.3hPa | 2.6V | 08:17:49 | 01:34:46 | 00:00:00 | |
| HSKMA3-T | 2026-09-01 08:12:25 | 52.77351 | 8.20722 | 69° | 24km/h | 15527m | -8.9m/s | -50.5°C | 0.1% | 115.6hPa | 2.7V | 08:17:49 | 01:34:48 | 00:00:00 | |
| DL1XH-west | 2026-09-01 08:12:24 | 52.77348 | 8.20713 | 62° | 24km/h | 15536m | -9m/s | -50.6°C | 0.1% | 115.4hPa | 2.7V | 08:17:49 | 01:34:47 | 00:00:00 | |
| DB0ND-19 | 2026-09-01 08:12:23 | 52.77334 | 8.20686 | 43° | 31km/h | 15563m | -8.8m/s | -50.7°C | -1.0% | 114.9hPa | 2.6V | 00:00:00 | 00:00:00 | 00:00:00 | |
| DL1NUX | 2026-09-01 08:12:22 | 52.77311 | 8.20643 | 59° | 33km/h | 15599m | -8.9m/s | -50.9°C | 3.7% | 114.3hPa | 2.6V | 08:17:30 | 01:34:40 | 00:00:00 | |
| GOEST3-10 | 2026-09-01 08:12:22 | 52.77340 | 8.20695 | 45° | 33km/h | 15554m | -9.0m/s | -50.7°C | 3.5% | 115.1hPa | 2.6V | 00:00:00 | 00:00:00 | 00:00:00 | |
| DL1XH-15 | 2026-09-01 08:12:21 | 52.77308 | 8.20631 | 68° | 35km/h | 15608m | -8.8m/s | -50.9°C | 3.7% | 114.1hPa | 2.6V | 08:17:31 | 01:34:39 | 00:00:00 | |
| DF8AY | 2026-09-01 08:12:19 | 52.77322 | 8.20666 | 46° | 35km/h | 15580m | -9.4m/s | -50.8°C | 0.2% | 114.6hPa | 2.7V | 08:17:49 | 01:34:42 | 00:00:00 | |
| AA1-15 | 2026-09-01 08:12:16 | 52.77308 | 8.20631 | 68° | 35km/h | 15608m | -8.8m/s | -50.9°C | 0.3% | 114.1hPa | 2.6V | 08:17:49 | 01:34:39 | 00:00:00 | |
| DD1CC8 | 2026-09-01 08:12:15 | 52.77305 | 8.20618 | 76° | 33km/h | 15616m | -8.6m/s | -51.0°C | 1.1% | 114.0hPa | 2.6V | 00:00:00 | 00:00:00 | 00:00:00 | |
| DM0DOS-11 | 2026-09-01 08:12:14 | 52.77292 | 8.20532 | 74° | 38km/h | 15682m | -13.8m/s | -51.3°C | 3.7% | 112.9hPa | 2.6V | 08:17:38 | 01:34:32 | 00:00:00 | |
| HSKMA3-T | 2026-09-01 08:12:14 | 52.77303 | 8.20604 | 78° | 35km/h | 15625m | -9.3m/s | -51°C | 0.2% | 113.9hPa | 2.6V | 08:17:49 | 01:34:37 | 00:00:00 | |
| DL1XH-west | 2026-09-01 08:12:13 | 52.77301 | 8.20590 | 77° | 35km/h | 15635m | -9.6m/s | -51.1°C | 0.2% | 113.7hPa | 2.7V | 08:17:49 | 01:34:36 | 00:00:00 | |
| DN9WHV | 2026-09-01 08:12:13 | 52.77301 | 8.20590 | 78° | 35km/h | 15635m | -9.6m/s | -51.1°C | 1.1% | 113.7hPa | 2.7V | 08:17:00 | 00:00:00 | 00:00:00 | |
| DL1NUX | 2026-09-01 08:12:12 | 52.77287 | 8.20498 | 74° | 47km/h | 15704m | -11.1m/s | -51.1°C | 3.7% | 112.6hPa | 2.7V | 08:17:40 | 01:34:30 | 00:00:00 | |
| GOEST3-10 | 2026-09-01 08:12:12 | 52.77299 | 8.20576 | 77° | 37km/h | 15644m | -9.2m/s | -51.1°C | 3.7% | 113.5hPa | 2.7V | 00:00:00 | 00:00:00 | 00:00:00 | |
| DL1XH-15 | 2026-09-01 08:12:11 | 52.77283 | 8.20478 | 75° | 53km/h | 15715m | -11.3m/s | -51°C | 3.7% | 112.3hPa | 2.7V | 08:17:41 | 01:34:29 | 00:00:00 | |
| DB0DAN | 2026-09-01 08:12:10 | 52.77295 | 8.20548 | 75° | 35km/h | 15668m | -13.7m/s | -51.3°C | 1.1% | 113.2hPa | 2.6V | 00:00:00 | 00:00:00 | 00:00:00 | |
| DF8AY | 2026-09-01 08:12:08 | 52.77289 | 8.20516 | 74° | 42km/h | 15694m | -9.6m/s | -51.3°C | 0.2% | 112.7hPa | 2.6V | 08:17:49 | 01:34:31 | 00:00:00 | |
| AA1-15 | 2026-09-01 08:12:05 | 52.77280 | 8.20456 | 76° | 57km/h | 15726m | -9m/s | -50.9°C | 0.2% | 112.2hPa | 2.6V | 08:17:49 | 01:34:28 | 00:00:00 | |
| DM0DOS-11 | 2026-09-01 08:12:05 | 52.77271 | 8.20303 | 98° | 58km/h | 15781m | -8.9m/s | -50.6°C | 3.7% | 111.1hPa | 2.6V | 08:17:48 | 01:34:22 | 00:00:00 | |
| HSKMA3-T | 2026-09-01 08:12:03 | 52.77273 | 8.20407 | 79° | 64km/h | 15745m | -8.2m/s | -50.7°C | 0.2% | 111.8hPa | 2.6V | 08:17:49 | 01:34:26 | 00:00:00 | |
| DL1XH-west | 2026-09-01 08:12:02 | 52.77271 | 8.20380 | 83° | 66km/h | 15753m | -9m/s | -50.7°C | 0.2% | 111.6hPa | 2.7V | 08:17:49 | 01:34:25 | 00:00:00 | |
| GOEST3-10 | 2026-09-01 08:12:02 | 52.77271 | 8.20380 | 84° | 60km/h | 15754m | -8.9m/s | -50.6°C | 3.7% | 111.6hPa | 2.7V | 00:00:00 | 00:00:00 | 00:00:00 | |
| DL1XH-15 | 2026-09-01 08:12:01 | 52.77280 | 8.20243 | 107° | 38km/h | 15808m | -9.2m/s | -50.6°C | 3.6% | 110.7hPa | 2.7V | 08:17:51 | 01:34:19 | 00:00:00 | |
| DF8AY | 2026-09-01 08:11:58 | 52.77274 | 8.20280 | 104° | 53km/h | 15790m | -8.9m/s | -50.6°C | 0.3% | 111hPa | 2.6V | 08:17:49 | 01:34:21 | 00:00:00 | |
| DO2JMG | 2026-09-01 08:11:57 | 52.77277 | 8.20260 | 108° | 46km/h | 15799m | -9m/s | -50.6°C | 0.2% | 110.8hPa | 2.6V | 08:18:40 | 01:34:20 | 00:00:00 | |
| GOEST3-10 | 2026-09-01 08:11:57 | 52.77277 | 8.20260 | 108° | 35km/h | 15799m | -8.9m/s | -50.6°C | 3.6% | 110.8hPa | 2.7V | 00:00:00 | 01:34:20 | 00:00:00 | |
| DN9WHV | 2026-09-01 08:11:56 | 52.77277 | 8.20260 | 109° | 46km/h | 15799m | -9.0m/s | -50.6°C | 1.0% | 110.8hPa | 2.7V | 08:18:00 | 00:00:00 | 00:00:00 | |
| DB0DAN | 2026-09-01 08:11:55 | 52.77283 | 8.20229 | 104° | 31km/h | 15817m | -9.2m/s | -50.7°C | 1.1% | 110.57hPa | 2.7V | 00:00:00 | 00:00:00 | 00:00:00 | |
| AA1-15 | 2026-09-01 08:11:55 | 52.77283 | 8.20229 | 104° | 33km/h | 15817m | -9.2m/s | -50.7°C | 0.2% | 110.6hPa | 2.7V | 08:18:40 | 01:34:18 | 00:00:00 | |
| DL1XH-west | 2026-09-01 08:11:52 | 52.77282 | 8.20193 | 68° | 31km/h | 15845m | -9.1m/s | -50.6°C | 0.1% | 110.1hPa | 2.6V | 08:18:40 | 01:34:15 | 00:00:00 | |
| BIOWL1-15 | 2026-09-01 08:11:51 | 52.77245 | 8.20063 | 79° | 62km/h | 15905m | -9.3m/s | -50.3°C | 0.2% | 109hPa | 2.6V | 08:18:40 | 01:34:08 | 00:00:00 | |
| DF8AY | 2026-09-01 08:11:48 | 52.77261 | 8.20133 | 62° | 55km/h | 15879m | -8.6m/s | -50.4°C | 0.2% | 109.5hPa | 2.6V | 08:18:40 | 01:34:11 | 00:00:00 | |
| DO2JMG | 2026-09-01 08:11:46 | 52.77249 | 8.20088 | 72° | 62km/h | 15896m | -8.9m/s | -50.4°C | 0.2% | 109.2hPa | 2.6V | 08:18:40 | 01:34:09 | 00:00:00 | |
| DL3OBA | 2026-09-01 08:11:45 | 52.77249 | 8.20088 | 73° | 62km/h | 15896m | -8.9m/s | -50.4°C | 1.1% | 109.2hPa | 2.6V | 08:18:00 | 00:00:00 | 00:00:00 | |
| DM0DOS-11 | 2026-09-01 08:11:44 | 52.77250 | 8.19928 | 104° | 40km/h | 15958m | -9.4m/s | -50.3°C | 3.6% | 108.2hPa | 2.6V | 08:18:08 | 01:34:02 | 00:00:00 | |
| AA1-15 | 2026-09-01 08:11:44 | 52.77243 | 8.20038 | 84° | 62km/h | 15914m | -8.7m/s | -50.2°C | 0.2% | 108.9hPa | 2.7V | 08:18:40 | 01:34:07 | 00:00:00 | |
| DL1NUX | 2026-09-01 08:11:44 | 52.77242 | 8.20012 | 90° | 60km/h | 15923m | -8.9m/s | -50.2°C | 3.6% | 108.7hPa | 2.7V | 08:18:04 | 01:34:06 | 00:00:00 | |
| GOEST3-10 | 2026-09-01 08:11:44 | 52.77243 | 8.20038 | 84° | 55km/h | 15914m | -8.6m/s | -50.2°C | 3.6% | 108.8hPa | 2.7V | 00:00:00 | 01:34:07 | 00:00:00 | |
| DD1CC1-15 | 2026-09-01 08:11:43 | 52.77243 | 8.20038 | 85° | 62km/h | 15914m | -8.7m/s | -50.2°C | 1.0% | 108.9hPa | 2.7V | 00:00:00 | 00:00:00 | 00:00:00 | |
| DL1XH1-15 | 2026-09-01 08:11:42 | 52.77253 | 8.19900 | 93° | 29km/h | 15976m | -9.2m/s | -50.3°C | 3.6% | 107.9hPa | 2.7V | 08:18:10 | 01:34:00 | 00:00:00 | |
| DL1XH-west | 2026-09-01 08:11:42 | 52.77243 | 8.19988 | 95° | 57km/h | 15932m | -9m/s | -50.3°C | 0.2% | 108.6hPa | 2.7V | 08:18:40 | 01:34:05 | 00:00:00 | |
| HSKMA3-T | 2026-09-01 08:11:41 | 52.77245 | 8.19965 | 100° | 53km/h | 15941m | -8.8m/s | -50.3°C | 0.3% | 108.4hPa | 2.6V | 08:18:40 | 01:34:04 | 00:00:00 | |
| DB0DAN | 2026-09-01 08:11:40 | 52.77247 | 8.19945 | 103° | 44km/h | 15949m | -8.6m/s | -50.3°C | 1% | 108.32hPa | 2.6V | 00:00:00 | 00:00:00 | 00:00:00 | |
| BIOWL1-15 | 2026-09-01 08:11:37 | 52.77253 | 8.19900 | 93° | 29km/h | 15977m | -9.2m/s | -50.3°C | 0.2% | 107.9hPa | 2.7V | 08:18:40 | 01:34:00 | 00:00:00 | |
| DF8AY | 2026-09-01 08:11:35 | 52.77251 | 8.19877 | 70° | 29km/h | 15995m | -8.4m/s | -50.2°C | 0.2% | 107.6hPa | 2.6V | 08:18:40 | 01:33:58 | 00:00:00 | |
| AA1-15 | 2026-09-01 08:11:33 | 52.77243 | 8.19851 | 60° | 40km/h | 16011m | -8.4m/s | -50°C | 0.2% | 107.3hPa | 2.7V | 08:18:40 | 01:33:56 | 00:00:00 | |
| DL3AQ-11 | 2026-09-01 08:11:32 | 52.77232 | 8.19819 | 61° | 47km/h | 16029m | -8.7m/s | -49.8°C | 1.0% | 107.0hPa | 2.7V | 00:00:00 | 00:00:00 | 00:00:00 | |
| DL1XH-15 | 2026-09-01 08:11:31 | 52.77205 | 8.19727 | 65° | 46km/h | 16073m | -9.4m/s | -49.6°C | 3.3% | 106.3hPa | 2.7V | 08:18:21 | 01:33:49 | 00:00:00 | |
| DL1XH-west | 2026-09-01 08:11:31 | 52.77232 | 8.19819 | 62° | 47km/h | 16029m | -8.7m/s | -49.8°C | 0.1% | 107hPa | 2.7V | 08:18:40 | 01:33:54 | 00:00:00 | |
| HSKMA3-T | 2026-09-01 08:11:30 | 52.77226 | 8.19801 | 63° | 49km/h | 16038m | -8.5m/s | -49.7°C | 0.1% | 106.8hPa | 2.6V | 08:18:40 | 01:33:53 | 00:00:00 | |
| BIOWL1-15 | 2026-09-01 08:11:26 | 52.77196 | 8.19695 | 67° | 38km/h | 16090m | -8m/s | -49.8°C | 0.1% | 106hPa | 2.6V | 08:18:40 | 01:33:47 | 00:00:00 | |
| DF8AY | 2026-09-01 08:11:25 | 52.77200 | 8.19710 | 65° | 42km/h | 16082m | -8.3m/s | -49.7°C | 0.1% | 106.2hPa | 2.6V | 08:18:40 | 01:33:48 | 00:00:00 | |
| DN9WHV | 2026-09-01 08:11:24 | 52.77196 | 8.19695 | 68° | 38km/h | 16090m | -8.0m/s | -49.8°C | 1.0% | 106.0hPa | 2.6V | 08:18:00 | 00:00:00 | 00:00:00 | |
| DD1CC3-15 | 2026-09-01 08:11:23 | 52.77196 | 8.19695 | 68° | 38km/h | 16090m | -8.0m/s | -49.8°C | 1.0% | 106.0hPa | 2.6V | 08:18:00 | 00:00:00 | 00:00:00 | |
| DL1XH1-15 | 2026-09-01 08:11:22 | 52.77172 | 8.19591 | 73° | 38km/h | 16150m | -8.7m/s | -49.9°C | 3.4% | 105.1hPa | 2.6V | 08:18:30 | 01:33:40 | 00:00:00 | |
| AA1-15 | 2026-09-01 08:11:22 | 52.77189 | 8.19665 | 71° | 38km/h | 16107m | -8.5m/s | -49.8°C | 0.1% | 105.8hPa | 2.7V | 08:18:40 | 01:33:45 | 00:00:00 | |
| DL1XH-west | 2026-09-01 08:11:20 | 52.77182 | 8.19635 | 67° | 38km/h | 16124m | -9m/s | -50°C | 0.1% | 105.5hPa | 2.7V | 08:18:40 | 01:33:43 | 00:00:00 | |
| BIOWL1-15 | 2026-09-01 08:11:19 | 52.77161 | 8.19527 | 74° | 42km/h | 16185m | -8.8m/s | -49.9°C | 0.1% | 104.5hPa | 2.7V | 08:18:40 | 01:33:36 | 00:00:00 | |
| DO2JMG | 2026-09-01 08:11:15 | 52.77166 | 8.19560 | 73° | 40km/h | 16168m | -9.3m/s | -49.8°C | 0.1% | 104.8hPa | 2.7V | 08:18:40 | 01:33:38 | 00:00:00 | |
| DF8AY | 2026-09-01 08:11:14 | 52.77164 | 8.19543 | 74° | 40km/h | 16176m | -8.5m/s | -49.9°C | 0.1% | 104.6hPa | 2.7V | 08:18:40 | 01:33:37 | 00:00:00 | |
| GOEST3-10 | 2026-09-01 08:11:14 | 52.77164 | 8.19543 | 74° | 42km/h | 16177m | -8.4m/s | -49.9°C | 3.5% | 104.6hPa | 2.6V | 00:00:00 | 01:33:37 | 00:00:00 | |
| DD1CC8 | 2026-09-01 08:11:13 | 52.77161 | 8.19527 | 73° | 42km/h | 16185m | -8.8m/s | -49.9°C | 1.0% | 104.5hPa | 2.6V | 00:00:00 | 00:00:00 | 00:00:00 | |
| DL1XH1-15 | 2026-09-01 08:11:12 | 52.77144 | 8.19429 | 77° | 38km/h | 16238m | -9.1m/s | -50°C | 3.5% | 103.6hPa | 2.6V | 08:18:40 | 01:33:30 | 00:00:00 | |
| AA1-15 | 2026-09-01 08:11:11 | 52.77154 | 8.19494 | 72° | 42km/h | 16202m | -8.9m/s | -50.1°C | 0.2% | 104.2hPa | 2.6V | 08:18:40 | 01:33:34 | 00:00:00 | |
| DB0DAN | 2026-09-01 08:11:10 | 52.77151 | 8.19477 | 74° | 38km/h | 16211m | -8.6m/s | -50.2°C | 1% | 104.03hPa | 2.6V | 00:00:00 | 00:00:00 | 00:00:00 | |
| DL1XH-west | 2026-09-01 08:11:09 | 52.77149 | 8.19461 | 77° | 40km/h | 16220m | -9m/s | -50.2°C | 0.2% | 103.9hPa | 2.7V | 08:18:40 | 01:33:32 | 00:00:00 | |
| DO2JMG | 2026-09-01 08:11:04 | 52.77141 | 8.19383 | 89° | 38km/h | 16263m | -8.2m/s | -49.9°C | 0.1% | 103.3hPa | 2.7V | 08:19:31 | 01:33:27 | 00:00:00 | |
| BIOWL1-15 | 2026-09-01 08:11:03 | 52.77141 | 8.19366 | 90° | 40km/h | 16272m | -8.5m/s | -49.9°C | 0.1% | 103.1hPa | 2.7V | 08:19:31 | 01:33:26 | 00:00:00 | |
| GOEST3-10 | 2026-09-01 08:11:03 | 52.77141 | 8.19366 | 90° | 44km/h | 16272m | -8.4m/s | -49.8°C | 3.4% | 103.1hPa | 2.7V | 08:18:00 | 01:33:26 | 00:00:00 | |
| DN9WHV | 2026-09-01 08:11:02 | 52.77140 | 8.19349 | 90° | 44km/h | 16280m | -8.3m/s | -49.9°C | 1.0% | 103.0hPa | 2.6V | 08:19:00 | 00:00:00 | 00:00:00 | |
| DL1XH-15 | 2026-09-01 08:11:01 | 52.77139 | 8.19235 | 91° | 47km/h | 16333m | -8.9m/s | -50.1°C | 3.5% | 102.1hPa | 2.6V | 08:18:51 | 01:33:19 | 00:00:00 | |
| AA1-15 | 2026-09-01 08:11:00 | 52.77140 | 8.19312 | 89° | 44km/h | 16297m | -8.7m/s | -50°C | 0.1% | 102.7hPa | 2.6V | 08:19:31 | 01:33:23 | 00:00:00 | |
| DL1XH-west | 2026-09-01 08:10:59 | 52.77140 | 8.19294 | 89° | 46km/h | 16306m | -9.2m/s | -50°C | 0.1% | 102.5hPa | 2.6V | 08:19:31 | 01:33:22 | 00:00:00 | |
| HSKMA3-T | 2026-09-01 08:10:58 | 52.77140 | 8.19274 | 88° | 47km/h | 16315m | -8.8m/s | -50°C | 0.1% | 102.4hPa | 2.7V | 08:19:31 | 01:33:21 | 00:00:00 | |
| GOEST3-10 | 2026-09-01 08:10:58 | 52.77140 | 8.19274 | 89° | 47km/h | 16315m | -8.8m/s | -50.0°C | 3.4% | 102.3hPa | 2.6V | 00:00:00 | 00:00:00 | 00:00:00 | |
| DN9WHV | 2026-09-01 08:10:57 | 52.77140 | 8.19274 | 89° | 47km/h | 16315m | -8.8m/s | -50.0°C | 1.0% | 102.4hPa | 2.6V | 08:19:00 | 00:00:00 | 00:00:00 | |
| DB0UT-7 | 2026-09-01 08:10:56 | 52.77139 | 8.19235 | 92° | 42km/h | 16333m | -8.9m/s | -50.0°C | 3.5% | 102.1hPa | 2.6V | 08:18:00 | 01:33:19 | 00:00:00 | |
| DN9WHV | 2026-09-01 08:10:55 | 52.77139 | 8.19235 | 93° | 47km/h | 16333m | -8.9m/s | -50.1°C | 1.0% | 102.1hPa | 2.6V | 08:19:00 | 00:00:00 | 00:00:00 | |
| DB0DAN | 2026-09-01 08:10:55 | 52.77140 | 8.19216 | 95° | 46km/h | 16342m | -8.9m/s | -50.2°C | 1% | 102.02hPa | 2.6V | 00:00:00 | 00:00:00 | 00:00:00 | |
| DM0DOS-11 | 2026-09-01 08:10:54 | 52.77150 | 8.19094 | 100° | 49km/h | 16397m | -9.5m/s | -50.2°C | 3.5% | 101.1hPa | 2.6V | 08:18:58 | 01:33:12 | 00:00:00 | |
| DF8AY | 2026-09-01 08:10:54 | 52.77141 | 8.19196 | 95° | 49km/h | 16351m | -9.5m/s | -50.2°C | 0.2% | 101.8hPa | 2.6V | 08:19:31 | 01:33:17 | 00:00:00 | |
| BIOWL1-15 | 2026-09-01 08:10:53 | 52.77142 | 8.19175 | 96° | 47km/h | 16360m | -9.1m/s | -50.2°C | 0.2% | 101.7hPa | 2.7V | 08:19:31 | 01:33:16 | 00:00:00 | |
| GOEST3-10 | 2026-09-01 08:10:53 | 52.77142 | 8.19175 | 97° | 49km/h | 16360m | -9.1m/s | -50.2°C | 3.5% | 101.6hPa | 2.6V | 00:00:00 | 01:33:16 | 00:00:00 | |
| DL1XH1-15 | 2026-09-01 08:10:52 | 52.77154 | 8.19054 | 98° | 49km/h | 16416m | -9.1m/s | -50.2°C | 3.5% | 100.8hPa | 2.6V | 08:19:00 | 01:33:10 | 00:00:00 | |
| AA1-15 | 2026-09-01 08:10:50 | 52.77148 | 8.19114 | 99° | 49km/h | 16387m | -9.2m/s | -50.2°C | 0.1% | 101.3hPa | 2.6V | 08:19:31 | 01:33:13 | 00:00:00 | |
| DL1XH-west | 2026-09-01 08:10:49 | 52.77150 | 8.19094 | 100° | 49km/h | 16397m | -9.5m/s | -50.2°C | 0.1% | 101.1hPa | 2.6V | 08:19:31 | 01:33:12 | 00:00:00 | |
| HSKMA3-T | 2026-09-01 08:10:48 | 52.77152 | 8.19074 | 99° | 49km/h | 16406m | -9.5m/s | -50.2°C | 0.1% | 101hPa | 2.6V | 08:19:31 | 01:33:11 | 00:00:00 | |
| SMARD9-15 | 2026-09-01 08:10:47 | 52.77155 | 8.19034 | 98° | 46km/h | 16425m | -9.2m/s | -50.2°C | 1.0% | 100.7hPa | 2.6V | 00:00:00 | 00:00:00 | 00:00:00 | |
| EDDB2-12 | 2026-09-01 08:10:45 | 52.77159 | 8.18997 | 96° | 44km/h | 16444m | -9.5m/s | -50.0°C | 1.0% | 100.4hPa | 2.6V | 00:00:00 | 00:00:00 | 00:00:00 | |
| DL1NUX | 2026-09-01 08:10:44 | 52.77160 | 8.18980 | 94° | 42km/h | 16453m | -9.3m/s | -49.9°C | 3.4% | 100.2hPa | 2.6V | 08:19:04 | 01:33:06 | 00:00:00 | |
| DM0DOS-11 | 2026-09-01 08:10:44 | 52.77162 | 8.18914 | 91° | 38km/h | 16490m | -9.1m/s | -49.8°C | 3.3% | 99.7hPa | 2.7V | 08:19:08 | 01:33:02 | 00:00:00 | |
| DF8AY | 2026-09-01 08:10:43 | 52.77160 | 8.18980 | 94° | 42km/h | 16453m | -9.3m/s | -49.9°C | 0% | 100.3hPa | 2.6V | 08:19:31 | 01:33:06 | 00:00:00 | |
| BIOWL1-15 | 2026-09-01 08:10:43 | 52.77161 | 8.18946 | 95° | 38km/h | 16472m | -9.3m/s | -49.8°C | 0% | 100hPa | 2.6V | 08:19:31 | 01:33:04 | 00:00:00 | |
| DD1CC8 | 2026-09-01 08:10:42 | 52.77160 | 8.18963 | 93° | 38km/h | 16462m | -9.6m/s | -49.8°C | 1.0% | 100.1hPa | 2.7V | 00:00:00 | 00:00:00 | 00:00:00 | |
| DD1CC3-15 | 2026-09-01 08:10:41 | 52.77160 | 8.18962 | 95° | 40km/h | 16463m | -9.6m/s | -49.8°C | 1.0% | 100.1hPa | 2.7V | 08:19:00 | 00:00:00 | 00:00:00 | |
| DB0DAN | 2026-09-01 08:10:40 | 52.77162 | 8.18930 | 93° | 37km/h | 16481m | -9m/s | -49.8°C | 0.9% | 99.83hPa | 2.7V | 00:00:00 | 00:00:00 | 00:00:00 | |
| AA1-15 | 2026-09-01 08:10:39 | 52.77162 | 8.18914 | 91° | 38km/h | 16490m | -9.1m/s | -49.8°C | 0% | 99.7hPa | 2.7V | 08:19:31 | 01:33:02 | 00:00:00 | |
| DL1XH-west | 2026-09-01 08:10:38 | 52.77162 | 8.18899 | 93° | 37km/h | 16499m | -9.4m/s | -49.8°C | 0% | 99.6hPa | 2.6V | 08:19:31 | 01:33:01 | 00:00:00 | |
| HSKMA3-T | 2026-09-01 08:10:37 | 52.77163 | 8.18883 | 95° | 37km/h | 16509m | -9.2m/s | -49.9°C | 0% | 99.4hPa | 2.6V | 08:19:31 | 01:33:00 | 00:00:00 | |
| DO9LL-15 | 2026-09-01 08:10:37 | 52.77163 | 8.18883 | 96° | 37km/h | 16509m | -9.1m/s | -49.8°C | 3.3% | 99.4hPa | 2.7V | 00:00:00 | 01:33:00 | 00:00:00 | |
| DN9WHV | 2026-09-01 08:10:35 | 52.77164 | 8.18868 | 95° | 38km/h | 16518m | -9.8m/s | -49.9°C | 1.0% | 99.3hPa | 2.7V | 08:19:00 | 00:00:00 | 00:00:00 | |
| DM0DOS-11 | 2026-09-01 08:10:34 | 52.77167 | 8.18765 | 87° | 33km/h | 16588m | -9.9m/s | -50.4°C | 3.5% | 98.2hPa | 2.7V | 08:19:18 | 01:32:52 | 00:00:00 | |
| DF8AY | 2026-09-01 08:10:32 | 52.77166 | 8.18807 | 93° | 35km/h | 16558m | -9.9m/s | -50.2°C | 0.1% | 98.7hPa | 2.6V | 08:19:31 | 01:32:55 | 00:00:00 | |
| DL1XH1-15 | 2026-09-01 08:10:32 | 52.77165 | 8.18738 | 81° | 33km/h | 16608m | -10m/s | -50.5°C | 3.5% | 97.9hPa | 2.6V | 08:19:20 | 01:32:50 | 00:00:00 | |
| BIOWL1-15 | 2026-09-01 08:10:32 | 52.77167 | 8.18778 | 91° | 33km/h | 16578m | -10.2m/s | -50.3°C | 0.1% | 98.4hPa | 2.6V | 08:19:31 | 01:32:53 | 00:00:00 | |
| AA1-15 | 2026-09-01 08:10:29 | 52.77167 | 8.18765 | 87° | 33km/h | 16588m | -9.9m/s | -50.4°C | 0.1% | 98.2hPa | 2.7V | 08:19:31 | 01:32:52 | 00:00:00 | |
| DL1XH-west | 2026-09-01 08:10:28 | 52.77166 | 8.18752 | 84° | 31km/h | 16598m | -10m/s | -50.5°C | 0.1% | 98.1hPa | 2.7V | 08:19:31 | 01:32:51 | 00:00:00 | |
| HSKMA3-T | 2026-09-01 08:10:26 | 52.77164 | 8.18725 | 79° | 33km/h | 16618m | -9.7m/s | -50.6°C | 0.1% | 97.8hPa | 2.6V | 08:19:31 | 01:32:49 | 00:00:00 | |
| DB0DAN | 2026-09-01 08:10:25 | 52.77162 | 8.18712 | 77° | 29km/h | 16628m | -9.5m/s | -50.7°C | 1% | 97.66hPa | 2.6V | 00:00:00 | 00:00:00 | 00:00:00 | |
| DB0NH | 2026-09-01 08:10:25 | 52.77162 | 8.18712 | 78° | 37km/h | 16628m | -9.4m/s | -50.7°C | 3.5% | 97.6hPa | 2.6V | 00:00:00 | 01:32:48 | 00:00:00 | |
| DM0DOS-11 | 2026-09-01 08:10:24 | 52.77145 | 8.18632 | 67° | 37km/h | 16687m | -9.5m/s | -51°C | 3.6% | 96.7hPa | 2.6V | 08:19:28 | 01:32:42 | 00:00:00 | |
| GOEST3-10 | 2026-09-01 08:10:23 | 52.77158 | 8.18686 | 73° | 35km/h | 16648m | -9.6m/s | -50.8°C | 3.5% | 97.3hPa | 2.7V | 00:00:00 | 01:32:46 | 00:00:00 | |
| DL1XH1-15 | 2026-09-01 08:10:22 | 52.77138 | 8.18604 | 69° | 38km/h | 16706m | -9.6m/s | -51°C | 3.7% | 96.5hPa | 2.7V | 08:19:30 | 01:32:40 | 00:00:00 | |
| DF8AY | 2026-09-01 08:10:21 | 52.77152 | 8.18659 | 67° | 35km/h | 16667m | -9.9m/s | -51°C | 0.2% | 97hPa | 2.6V | 08:19:31 | 01:32:44 | 00:00:00 | |
| BIOWL1-15 | 2026-09-01 08:10:20 | 52.77148 | 8.18646 | 67° | 37km/h | 16677m | -9.9m/s | -51°C | 0.2% | 96.9hPa | 2.6V | 08:19:31 | 01:32:43 | 00:00:00 | |
| AA1-15 | 2026-09-01 08:10:18 | 52.77141 | 8.18618 | 68° | 37km/h | 16696m | -9.7m/s | -51°C | 0.2% | 96.6hPa | 2.7V | 08:19:31 | 01:32:41 | 00:00:00 | |
| DL1XH-west | 2026-09-01 08:10:17 | 52.77138 | 8.18604 | 70° | 38km/h | 16706m | -9.6m/s | -51.1°C | 0.2% | 96.5hPa | 2.7V | 08:19:31 | 01:32:40 | 00:00:00 | |
| HSKMA3-T | 2026-09-01 08:10:15 | 52.77131 | 8.18573 | 70° | 40km/h | 16726m | -9.7m/s | -51°C | 0.2% | 96.2hPa | 2.6V | 08:20:22 | 01:32:38 | 00:00:00 | |
| DL1NUX | 2026-09-01 08:10:14 | 52.77125 | 8.18540 | 73° | 42km/h | 16745m | -10.3m/s | -50.9°C | 3.6% | 95.9hPa | 2.7V | 08:19:34 | 01:32:36 | 00:00:00 | |
| DJ2KF-10 | 2026-09-01 08:10:14 | 52.77128 | 8.18557 | 75° | 33km/h | 16736m | -9.7m/s | -50.9°C | 3.6% | 96.0hPa | 2.6V | 00:00:00 | 01:32:37 | 00:00:00 | |
| GOEST3-10 | 2026-09-01 08:10:13 | 52.77125 | 8.18540 | 74° | 40km/h | 16746m | -10.3m/s | -50.8°C | 3.6% | 95.9hPa | 2.6V | 00:00:00 | 01:32:36 | 00:00:00 | |
| DL1XH1-15 | 2026-09-01 08:10:12 | 52.77110 | 8.18447 | 81° | 38km/h | 16804m | -9.3m/s | -50.9°C | 3.7% | 95hPa | 2.6V | 08:19:40 | 01:32:30 | 00:00:00 | |
| DL1XH-15 | 2026-09-01 08:10:11 | 52.77109 | 8.18431 | 80° | 40km/h | 16813m | -9.3m/s | -50.8°C | 3.7% | 94.9hPa | 2.7V | 08:19:41 | 01:32:29 | 00:00:00 | |
| DB0DAN | 2026-09-01 08:10:10 | 52.77116 | 8.18492 | 74° | 37km/h | 16775m | -10m/s | -50.9°C | 1% | 95.43hPa | 2.6V | 00:00:00 | 00:00:00 | 00:00:00 | |
| BIOWL1-15 | 2026-09-01 08:10:10 | 52.77116 | 8.18492 | 74° | 38km/h | 16775m | -10m/s | -50.9°C | 0.2% | 95.4hPa | 2.6V | 08:20:22 | 01:32:33 | 00:00:00 | |
| AA1-15 | 2026-09-01 08:10:07 | 52.77110 | 8.18447 | 82° | 38km/h | 16804m | -9.3m/s | -50.9°C | 0.2% | 95hPa | 2.6V | 08:20:22 | 01:32:30 | 00:00:00 | |
| DL1XH-west | 2026-09-01 08:10:06 | 52.77109 | 8.18431 | 81° | 40km/h | 16814m | -9.3m/s | -50.8°C | 0.2% | 94.9hPa | 2.7V | 08:20:22 | 01:32:29 | 00:00:00 | |
| HSKMA3-T | 2026-09-01 08:10:04 | 52.77105 | 8.18400 | 78° | 37km/h | 16832m | -9.4m/s | -50.7°C | 0.2% | 94.6hPa | 2.7V | 08:20:22 | 01:32:27 | 00:00:00 | |
| DM0DOS-11 | 2026-09-01 08:10:04 | 52.77100 | 8.18334 | 83° | 29km/h | 16881m | -10m/s | -50.6°C | 3.6% | 93.9hPa | 2.7V | 08:19:48 | 01:32:22 | 00:00:00 | |
| GOEST3-10 | 2026-09-01 08:10:03 | 52.77103 | 8.18386 | 80° | 31km/h | 16842m | -9.5m/s | -50.7°C | 3.6% | 94.4hPa | 2.6V | 00:00:00 | 01:32:26 | 00:00:00 | |
| DL1XH1-15 | 2026-09-01 08:10:02 | 52.77098 | 8.18307 | 82° | 33km/h | 16901m | -9.8m/s | -50.4°C | 3.5% | 93.6hPa | 2.6V | 08:19:50 | 01:32:20 | 00:00:00 | |
| DL1XH-15 | 2026-09-01 08:10:01 | 52.77097 | 8.18294 | 78° | 33km/h | 16911m | -9.7m/s | -50.4°C | 3.5% | 93.5hPa | 2.6V | 08:19:51 | 01:32:19 | 00:00:00 | |
| DF8AY | 2026-09-01 08:10:00 | 52.77100 | 8.18346 | 84° | 31km/h | 16871m | -9.7m/s | -50.6°C | 0.2% | 94hPa | 2.7V | 08:20:22 | 01:32:23 | 00:00:00 | |
| BIOWL1-15 | 2026-09-01 08:10:00 | 52.77099 | 8.18321 | 85° | 31km/h | 16891m | -10m/s | -50.5°C | 0.2% | 93.8hPa | 2.6V | 08:20:22 | 01:32:21 | 00:00:00 | |
| DO2JMG | 2026-09-01 08:09:59 | 52.77099 | 8.18334 | 84° | 29km/h | 16881m | -10m/s | -50.6°C | 0.2% | 93.9hPa | 2.7V | 08:20:22 | 01:32:22 | 00:00:00 | |
| AA1-15 | 2026-09-01 08:09:56 | 52.77097 | 8.18294 | 78° | 33km/h | 16911m | -9.7m/s | -50.4°C | 0.1% | 93.5hPa | 2.6V | 08:20:22 | 01:32:19 | 00:00:00 | |
| DB0DAN | 2026-09-01 08:09:55 | 52.77095 | 8.18280 | 77° | 33km/h | 16920m | -9.7m/s | -50.3°C | 1% | 93.3hPa | 2.7V | 00:00:00 | 00:00:00 | 00:00:00 | |
| DL1XH-west | 2026-09-01 08:09:55 | 52.77095 | 8.18280 | 77° | 35km/h | 16920m | -9.7m/s | -50.3°C | 0.1% | 93.3hPa | 2.7V | 08:20:22 | 01:32:18 | 00:00:00 | |
| DB0NH | 2026-09-01 08:09:55 | 52.77095 | 8.18280 | 77° | 37km/h | 16920m | -9.6m/s | -50.3°C | 3.4% | 93.3hPa | 2.7V | 00:00:00 | 01:32:18 | 00:00:00 | |
| DM0DOS-11 | 2026-09-01 08:09:54 | 52.77074 | 8.18205 | 67° | 27km/h | 16976m | -9.1m/s | -50.5°C | 3.5% | 92.5hPa | 2.7V | 08:19:58 | 01:32:12 | 00:00:00 | |
| DL1NUX | 2026-09-01 08:09:54 | 52.77089 | 8.18251 | 66° | 37km/h | 16940m | -9.6m/s | -50.3°C | 3.4% | 93hPa | 2.7V | 08:19:54 | 01:32:16 | 00:00:00 | |
| HSKMA3-T | 2026-09-01 08:09:53 | 52.77089 | 8.18251 | 67° | 37km/h | 16940m | -9.6m/s | -50.3°C | 0.1% | 93hPa | 2.7V | 08:20:22 | 01:32:16 | 00:00:00 | |
| GOEST3-10 | 2026-09-01 08:09:53 | 52.77089 | 8.18251 | 67° | 33km/h | 16940m | -9.5m/s | -50.2°C | 3.4% | 93.0hPa | 2.6V | 00:00:00 | 01:32:16 | 00:00:00 | |
| DL1XH-15 | 2026-09-01 08:09:51 | 52.77066 | 8.18169 | 67° | 33km/h | 17004m | -9.5m/s | -50.3°C | 3.5% | 92.1hPa | 2.6V | 08:20:01 | 01:32:09 | 00:00:00 | |
| DF8AY | 2026-09-01 08:09:49 | 52.77074 | 8.18205 | 67° | 27km/h | 16976m | -9.1m/s | -50.5°C | 0.1% | 92.5hPa | 2.7V | 08:20:22 | 01:32:12 | 00:00:00 | |
| BIOWL1-15 | 2026-09-01 08:09:49 | 52.77069 | 8.18182 | 70° | 31km/h | 16995m | -9.4m/s | -50.4°C | 0.2% | 92.3hPa | 2.6V | 08:20:22 | 01:32:10 | 00:00:00 | |
| AA1-15 | 2026-09-01 08:09:45 | 52.77063 | 8.18157 | 64° | 31km/h | 17014m | -9.7m/s | -50.2°C | 0.1% | 92hPa | 2.6V | 08:20:22 | 01:32:08 | 00:00:00 | |
| SMARD9-15 | 2026-09-01 08:09:45 | 52.77059 | 8.18145 | 62° | 31km/h | 17024m | -9.9m/s | -50.2°C | 0.9% | 91.8hPa | 2.6V | 00:00:00 | 00:00:00 | 00:00:00 | |
| DM0DOS-11 | 2026-09-01 08:09:44 | 52.77035 | 8.18083 | 53° | 37km/h | 17072m | -9.9m/s | -50.5°C | 3.6% | 91.1hPa | 2.6V | 08:20:08 | 01:32:02 | 00:00:00 | |
| DL1XH-west | 2026-09-01 08:09:44 | 52.77059 | 8.18145 | 63° | 33km/h | 17024m | -9.9m/s | -50.2°C | 0% | 91.8hPa | 2.7V | 08:20:22 | 01:32:07 | 00:00:00 | |
| HSKMA3-T | 2026-09-01 08:09:42 | 52.77051 | 8.18120 | 59° | 37km/h | 17043m | -9.7m/s | -50.3°C | 0.2% | 91.6hPa | 2.7V | 08:20:22 | 01:32:05 | 00:00:00 | |
| DL1XH-15 | 2026-09-01 08:09:41 | 52.77016 | 8.18045 | 49° | 38km/h | 17102m | -10m/s | -50.7°C | 3.6% | 90.7hPa | 2.6V | 08:20:11 | 01:31:59 | 00:00:00 | |
| DB0DAN | 2026-09-01 08:09:40 | 52.77040 | 8.18095 | 53° | 35km/h | 17063m | -9.8m/s | -50.5°C | 1% | 91.29hPa | 2.6V | 00:00:00 | 00:00:00 | 00:00:00 | |
| DF8AY | 2026-09-01 08:09:38 | 52.77029 | 8.18070 | 53° | 38km/h | 17082m | -9.7m/s | -50.6°C | 0.2% | 91hPa | 2.7V | 08:20:22 | 01:32:01 | 00:00:00 | |
| BIOWL1-15 | 2026-09-01 08:09:38 | 52.77017 | 8.18045 | 50° | 38km/h | 17102m | -10m/s | -50.7°C | 0.2% | 90.7hPa | 2.6V | 08:20:22 | 01:31:59 | 00:00:00 | |
| AA1-15 | 2026-09-01 08:09:35 | 52.77010 | 8.18033 | 52° | 38km/h | 17112m | -10.1m/s | -50.7°C | 0.2% | 90.6hPa | 2.6V | 08:20:22 | 01:31:58 | 00:00:00 | |
| DN9WHV | 2026-09-01 08:09:35 | 52.77010 | 8.18032 | 53° | 38km/h | 17112m | -10.1m/s | -50.7°C | 1.0% | 90.6hPa | 2.7V | 08:20:00 | 00:00:00 | 00:00:00 | |
| DO3DL | 2026-09-01 08:09:34 | 52.77010 | 8.18032 | 53° | 38km/h | 17112m | -10.1m/s | -50.7°C | 1.0% | 90.6hPa | 2.7V | 08:20:00 | 00:00:00 | 00:00:00 | |
| DL1XH-west | 2026-09-01 08:09:34 | 52.77005 | 8.18020 | 54° | 40km/h | 17122m | -9.7m/s | -50.8°C | 0.2% | 90.5hPa | 2.6V | 08:20:22 | 01:31:57 | 00:00:00 | |
| GOEST3-10 | 2026-09-01 08:09:33 | 52.76998 | 8.18006 | 54° | 42km/h | 17132m | -10.0m/s | -50.8°C | 3.6% | 90.3hPa | 2.7V | 08:20:00 | 01:31:56 | 00:00:00 | |
| DL3AQ-11 | 2026-09-01 08:09:32 | 52.76986 | 8.17978 | 53° | 40km/h | 17151m | -10.1m/s | -50.9°C | 1.0% | 90.0hPa | 2.7V | 00:00:00 | 00:00:00 | 00:00:00 | |
| DL1XH-15 | 2026-09-01 08:09:31 | 52.76954 | 8.17906 | 57° | 42km/h | 17201m | -10.1m/s | -50.6°C | 3.5% | 89.3hPa | 2.7V | 08:20:21 | 01:31:49 | 00:00:00 | |
| HSKMA3-T | 2026-09-01 08:09:31 | 52.76986 | 8.17978 | 54° | 42km/h | 17151m | -10.1m/s | -50.9°C | 0.1% | 90hPa | 2.7V | 08:20:22 | 01:31:54 | 00:00:00 | |
| DF8AY | 2026-09-01 08:09:27 | 52.76960 | 8.17921 | 56° | 42km/h | 17191m | -9.6m/s | -50.7°C | 0.2% | 89.5hPa | 2.7V | 08:20:22 | 01:31:50 | 00:00:00 | |
| BIOWL1-15 | 2026-09-01 08:09:26 | 52.76954 | 8.17906 | 57° | 42km/h | 17201m | -10.1m/s | -50.6°C | 0.1% | 89.3hPa | 2.7V | 08:20:22 | 01:31:49 | 00:00:00 | |
| DB0DAN | 2026-09-01 08:09:25 | 52.76948 | 8.17891 | 57° | 40km/h | 17211m | -10m/s | -50.6°C | 1% | 89.24hPa | 2.6V | 00:00:00 | 00:00:00 | 00:00:00 | |
| DB0NH | 2026-09-01 08:09:25 | 52.76948 | 8.17891 | 57° | 42km/h | 17211m | -9.9m/s | -50.5°C | 3.6% | 89.2hPa | 2.6V | 08:20:00 | 01:31:48 | 00:00:00 | |
| DL1NUX | 2026-09-01 08:09:24 | 52.76925 | 8.17834 | 54° | 42km/h | 17251m | -10.3m/s | -50.4°C | 3.4% | 88.7hPa | 2.7V | 08:20:26 | 01:31:44 | 00:00:00 | |
| DL1XH-west | 2026-09-01 08:09:24 | 52.76942 | 8.17877 | 55° | 42km/h | 17221m | -10.4m/s | -50.5°C | 0.1% | 89.1hPa | 2.6V | 08:21:13 | 01:31:47 | 00:00:00 | |
| GOEST3-10 | 2026-09-01 08:09:23 | 52.76936 | 8.17863 | 56° | 42km/h | 17232m | -10.2m/s | -50.3°C | 3.5% | 88.9hPa | 2.7V | 00:00:00 | 01:31:46 | 00:00:00 | |
| DN9WHV | 2026-09-01 08:09:22 | 52.76936 | 8.17863 | 57° | 42km/h | 17232m | -10.2m/s | -50.4°C | 1.0% | 89.0hPa | 2.7V | 08:21:00 | 00:00:00 | 00:00:00 | |
| DL1XH-15 | 2026-09-01 08:09:21 | 52.76894 | 8.17756 | 61° | 47km/h | 17301m | -9.7m/s | -50.5°C | 3.5% | 88hPa | 2.7V | 08:20:31 | 01:31:39 | 00:00:00 | |
| HSKMA3-T | 2026-09-01 08:09:21 | 52.76924 | 8.17833 | 55° | 42km/h | 17251m | -10.3m/s | -50.4°C | 0.1% | 88.7hPa | 2.7V | 08:21:13 | 01:31:44 | 00:00:00 | |
| DO2JMG | 2026-09-01 08:09:17 | 52.76900 | 8.17773 | 59° | 46km/h | 17292m | -10.1m/s | -50.5°C | 0.1% | 88.1hPa | 2.6V | 08:21:13 | 01:31:40 | 00:00:00 | |
| DF8AY | 2026-09-01 08:09:16 | 52.76895 | 8.17756 | 61° | 47km/h | 17302m | -9.7m/s | -50.5°C | 0.1% | 88hPa | 2.7V | 08:21:13 | 01:31:39 | 00:00:00 | |
| BIOWL1-15 | 2026-09-01 08:09:15 | 52.76889 | 8.17738 | 65° | 49km/h | 17311m | -9.6m/s | -50.6°C | 0.1% | 87.9hPa | 2.7V | 08:21:13 | 01:31:38 | 00:00:00 | |
| DM0DOS-11 | 2026-09-01 08:09:14 | 52.76853 | 8.17635 | 60° | 40km/h | 17368m | -9.9m/s | -50.8°C | 3.5% | 87.1hPa | 2.7V | 08:20:38 | 01:31:32 | 00:00:00 | |
| DL1NUX | 2026-09-01 08:09:14 | 52.76864 | 8.17665 | 55° | 46km/h | 17349m | -9.2m/s | -50.6°C | 3.5% | 87.3hPa | 2.7V | 08:20:36 | 01:31:34 | 00:00:00 | |
| DL1XH-west | 2026-09-01 08:09:13 | 52.76877 | 8.17700 | 60° | 53km/h | 17330m | -9.6m/s | -50.6°C | 0.1% | 87.6hPa | 2.6V | 08:21:13 | 01:31:36 | 00:00:00 | |
| DL1XH1-15 | 2026-09-01 08:09:12 | 52.76843 | 8.17606 | 61° | 42km/h | 17388m | -9.8m/s | -50.9°C | 3.6% | 86.8hPa | 2.6V | 08:20:40 | 01:31:30 | 00:00:00 | |
| HSKMA3-T | 2026-09-01 08:09:11 | 52.76864 | 8.17665 | 55° | 46km/h | 17349m | -9.2m/s | -50.6°C | 0.1% | 87.3hPa | 2.7V | 08:21:13 | 01:31:34 | 00:00:00 | |
| DB0DAN | 2026-09-01 08:09:10 | 52.76858 | 8.17650 | 57° | 40km/h | 17358m | -9.4m/s | -50.7°C | 1% | 87.22hPa | 2.7V | 00:00:00 | 00:00:00 | 00:00:00 | |
| DO2JMG | 2026-09-01 08:09:06 | 52.76838 | 8.17591 | 60° | 40km/h | 17397m | -9.8m/s | -50.9°C | 0.2% | 86.7hPa | 2.6V | 08:21:13 | 01:31:29 | 00:00:00 | |
| BIOWL1-15 | 2026-09-01 08:09:05 | 52.76828 | 8.17562 | 63° | 40km/h | 17417m | -10.3m/s | -50.9°C | 0.2% | 86.4hPa | 2.7V | 08:21:13 | 01:31:27 | 00:00:00 | |
| DM0DOS-11 | 2026-09-01 08:09:05 | 52.76804 | 8.17486 | 63° | 38km/h | 17468m | -10.1m/s | -51.2°C | 3.6% | 85.8hPa | 2.7V | 08:20:48 | 01:31:22 | 00:00:00 | |
| DL1XH-west | 2026-09-01 08:09:03 | 52.76823 | 8.17547 | 63° | 42km/h | 17427m | -10m/s | -50.9°C | 0.2% | 86.3hPa | 2.6V | 08:21:13 | 01:31:26 | 00:00:00 | |
| DF8AY | 2026-09-01 08:09:02 | 52.76818 | 8.17531 | 61° | 44km/h | 17438m | -10.1m/s | -51°C | 0.3% | 86.2hPa | 2.6V | 08:21:13 | 01:31:25 | 00:00:00 | |
| HSKMA3-T | 2026-09-01 08:09:01 | 52.76813 | 8.17516 | 60° | 42km/h | 17448m | -10m/s | -51.1°C | 0.2% | 86hPa | 2.6V | 08:21:13 | 01:31:24 | 00:00:00 | |
| DO2JMG | 2026-09-01 08:08:56 | 52.76792 | 8.17444 | 75° | 33km/h | 17498m | -9.8m/s | -51.4°C | 0.2% | 85.3hPa | 2.6V | 08:21:13 | 01:31:19 | 00:00:00 | |
| DB0DAN | 2026-09-01 08:08:55 | 52.76791 | 8.17430 | 81° | 35km/h | 17508m | -9.9m/s | -51.4°C | 1% | 85.24hPa | 2.6V | 00:00:00 | 00:00:00 | 00:00:00 | |
| DM0DOS-11 | 2026-09-01 08:08:54 | 52.76784 | 8.17322 | 80° | 49km/h | 17568m | -9.9m/s | -51.3°C | 3.7% | 84.4hPa | 2.7V | 08:20:58 | 01:31:12 | 00:00:00 | |
| DL1NUX | 2026-09-01 08:08:54 | 52.76789 | 8.17415 | 84° | 38km/h | 17518m | -10m/s | -51.4°C | 3.7% | 85.1hPa | 2.7V | 08:20:53 | 01:31:17 | 00:00:00 | |
| BIOWL1-15 | 2026-09-01 08:08:54 | 52.76789 | 8.17415 | 84° | 38km/h | 17518m | -10m/s | -51.4°C | 0.3% | 85.1hPa | 2.7V | 08:21:13 | 01:31:17 | 00:00:00 | |
| DL1XH-west | 2026-09-01 08:08:53 | 52.76787 | 8.17380 | 86° | 42km/h | 17538m | -9.9m/s | -51.4°C | 0.2% | 84.9hPa | 2.6V | 08:21:13 | 01:31:15 | 00:00:00 | |
| HSKMA3-T | 2026-09-01 08:08:50 | 52.76786 | 8.17343 | 85° | 49km/h | 17558m | -9.9m/s | -51.3°C | 0.3% | 84.5hPa | 2.6V | 08:21:13 | 01:31:13 | 00:00:00 | |
| DL1NUX | 2026-09-01 08:08:49 | 52.76765 | 8.17247 | 68° | 22km/h | 17617m | -9.2m/s | -51°C | 3.6% | 83.8hPa | 2.6V | 08:21:03 | 01:31:07 | 00:00:00 | |
| DO2JMG | 2026-09-01 08:08:45 | 52.76768 | 8.17257 | 60° | 29km/h | 17607m | -9.6m/s | -51°C | 0.2% | 83.9hPa | 2.6V | 08:21:13 | 01:31:08 | 00:00:00 | |
| BIOWL1-15 | 2026-09-01 08:08:44 | 52.76765 | 8.17247 | 68° | 22km/h | 17617m | -9.2m/s | -51°C | 0.1% | 83.8hPa | 2.6V | 08:21:13 | 01:31:07 | 00:00:00 | |
| DL1XH-west | 2026-09-01 08:08:42 | 52.76765 | 8.17229 | 103° | 26km/h | 17636m | -9.5m/s | -51°C | 0.2% | 83.5hPa | 2.7V | 08:21:13 | 01:31:05 | 00:00:00 | |
| AA1-15 | 2026-09-01 08:08:41 | 52.76767 | 8.17217 | 104° | 33km/h | 17646m | -9.4m/s | -50.9°C | 0.2% | 83.5hPa | 2.6V | 08:21:13 | 01:31:04 | 00:00:00 | |
| HSKMA3-T | 2026-09-01 08:08:40 | 52.76768 | 8.17202 | 101° | 40km/h | 17655m | -9m/s | -50.8°C | 0.2% | 83.3hPa | 2.6V | 08:21:13 | 01:31:03 | 00:00:00 | |
| DL4BBY-15 | 2026-09-01 08:08:40 | 52.76769 | 8.17202 | 101° | 29km/h | 17656m | -8.9m/s | -49.7°C | 0% | 0hPa | 2.6V | 00:00:00 | 00:00:00 | 00:00:00 | |
| DL1NUX | 2026-09-01 08:08:39 | 52.76757 | 8.17102 | 62° | 29km/h | 17712m | -9.4m/s | -50.8°C | 3.6% | 82.6hPa | 2.6V | 08:21:13 | 01:30:57 | 00:00:00 | |
| DF8AY | 2026-09-01 08:08:36 | 52.76751 | 8.17074 | 78° | 22km/h | 17740m | -8.9m/s | -51°C | 0.2% | 82.3hPa | 2.7V | 08:22:04 | 01:30:54 | 00:00:00 | |
| DO2JMG | 2026-09-01 08:08:34 | 52.76757 | 8.17102 | 62° | 29km/h | 17712m | -9.4m/s | -50.8°C | 0.2% | 82.6hPa | 2.6V | 08:21:13 | 01:30:57 | 00:00:00 | |
| DL1XH-west | 2026-09-01 08:08:32 | 52.76752 | 8.17083 | 72° | 22km/h | 17731m | -9.5m/s | -50.9°C | 0.2% | 82.3hPa | 2.7V | 08:22:04 | 01:30:55 | 00:00:00 | |
| DO2SHX-10 | 2026-09-01 08:08:32 | 52.76752 | 8.17083 | 73° | 20km/h | 17731m | -9.4m/s | -50.8°C | 3.6% | 82.3hPa | 2.7V | 00:00:00 | 01:30:55 | 00:00:00 | |
| DL1XH-15 | 2026-09-01 08:08:31 | 52.76741 | 8.17024 | 72° | 24km/h | 17790m | -10.4m/s | -51.1°C | 3.6% | 81.6hPa | 2.7V | 08:21:21 | 01:30:49 | 00:00:00 | |
| HSKMA3-T | 2026-09-01 08:08:30 | 52.76750 | 8.17064 | 79° | 24km/h | 17749m | -9.9m/s | -51°C | 0.2% | 82.1hPa | 2.6V | 08:22:04 | 01:30:53 | 00:00:00 | |
| DD8BA-10 | 2026-09-01 08:08:29 | 52.76748 | 8.17054 | 75° | 24km/h | 17759m | -9.9m/s | -51.0°C | 3.7% | 81.9hPa | 2.7V | 00:00:00 | 00:00:00 | 00:00:00 | |
| DJ2DS-15 | 2026-09-01 08:08:28 | 52.76746 | 8.17043 | 70° | 26km/h | 17770m | -10.1m/s | -51.0°C | 3.7% | 81.8hPa | 2.7V | 00:00:00 | 01:30:51 | 00:00:00 | |
| DN9WHV | 2026-09-01 08:08:27 | 52.76746 | 8.17043 | 70° | 27km/h | 17770m | -10.2m/s | -51.1°C | 1.0% | 81.9hPa | 2.7V | 08:22:00 | 00:00:00 | 00:00:00 | |
| DN9WHV | 2026-09-01 08:08:26 | 52.76744 | 8.17033 | 70° | 24km/h | 17780m | -10.0m/s | -51.1°C | 1.0% | 81.7hPa | 2.7V | 08:22:00 | 00:00:00 | 00:00:00 | |
| DB0DAN | 2026-09-01 08:08:25 | 52.76740 | 8.17015 | 74° | 22km/h | 17800m | -10.2m/s | -51.1°C | 1% | 81.49hPa | 2.7V | 00:00:00 | 00:00:00 | 00:00:00 | |
| DM0DOS-11 | 2026-09-01 08:08:24 | 52.76731 | 8.16963 | 70° | 20km/h | 17860m | -9.8m/s | -50.9°C | 3.6% | 80.7hPa | 2.6V | 08:21:28 | 01:30:42 | 00:00:00 | |
| DO2JMG | 2026-09-01 08:08:23 | 52.76737 | 8.16997 | 75° | 22km/h | 17820m | -10.2m/s | -50.9°C | 0.2% | 81.2hPa | 2.6V | 08:22:04 | 01:30:46 | 00:00:00 | |
| GOEST3-10 | 2026-09-01 08:08:23 | 52.76736 | 8.16997 | 76° | 22km/h | 17821m | -10.1m/s | -50.8°C | 3.6% | 81.2hPa | 2.6V | 00:00:00 | 01:30:46 | 00:00:00 | |
| DF5WG-10 | 2026-09-01 08:08:22 | 52.76735 | 8.16988 | 81° | 20km/h | 17830m | -9.6m/s | -50.7°C | 3.6% | 81.0hPa | 2.6V | 00:00:00 | 01:30:45 | 00:00:00 | |
| DL1XH-15 | 2026-09-01 08:08:21 | 52.76726 | 8.16935 | 70° | 27km/h | 17890m | -9.5m/s | -50.7°C | 3.5% | 80.3hPa | 2.7V | 08:21:31 | 01:30:39 | 00:00:00 | |
| DL1XH-west | 2026-09-01 08:08:21 | 52.76734 | 8.16980 | 77° | 22km/h | 17840m | -10.3m/s | -50.8°C | 0.1% | 81hPa | 2.7V | 08:22:04 | 01:30:44 | 00:00:00 | |
| DF8AY | 2026-09-01 08:08:20 | 52.76733 | 8.16971 | 74° | 22km/h | 17850m | -9.5m/s | -50.8°C | 0.1% | 80.8hPa | 2.7V | 08:22:04 | 01:30:43 | 00:00:00 | |
| HSKMA3-T | 2026-09-01 08:08:19 | 52.76731 | 8.16963 | 71° | 20km/h | 17860m | -9.8m/s | -50.9°C | 0.2% | 80.7hPa | 2.6V | 08:22:04 | 01:30:42 | 00:00:00 | |
| DD8BA-10 | 2026-09-01 08:08:19 | 52.76731 | 8.16962 | 71° | 29km/h | 17860m | -9.7m/s | -50.8°C | 3.6% | 80.7hPa | 2.6V | 00:00:00 | 00:00:00 | 00:00:00 | |
| BIOWL9-15 | 2026-09-01 08:08:18 | 52.76730 | 8.16955 | 75° | 18km/h | 17870m | -9.6m/s | -50.9°C | 1.0% | 80.6hPa | 2.7V | 00:00:00 | 00:00:00 | 00:00:00 | |
| SO1NDE-10 | 2026-09-01 08:08:17 | 52.76728 | 8.16946 | 74° | 35km/h | 17880m | -10.5m/s | -50.7°C | 3.5% | 80.4hPa | 2.7V | 00:00:00 | 01:30:40 | 00:00:00 | |
| BUE01 | 2026-09-01 08:08:16 | 52.76726 | 8.16935 | 70° | 27km/h | 17890m | -9.5m/s | -50.7°C | 1.0% | 80.3hPa | 2.7V | 00:00:00 | 00:00:00 | 00:00:00 | |
| DO2SHX-10 | 2026-09-01 08:08:15 | 52.76723 | 8.16924 | 61° | 33km/h | 17900m | -10.0m/s | -50.7°C | 3.5% | 80.2hPa | 2.7V | 00:00:00 | 01:30:38 | 00:00:00 | |
| DM0DOS-11 | 2026-09-01 08:08:14 | 52.76685 | 8.16871 | 43° | 27km/h | 17957m | -8.9m/s | -51.1°C | 3.6% | 79.5hPa | 2.7V | 08:21:38 | 01:30:32 | 00:00:00 | |
| BIOWL1-15 | 2026-09-01 08:08:13 | 52.76712 | 8.16902 | 41° | 37km/h | 17919m | -9.6m/s | -50.8°C | 0.1% | 80hPa | 2.6V | 08:22:04 | 01:30:36 | 00:00:00 | |
| GOEST3-10 | 2026-09-01 08:08:13 | 52.76712 | 8.16902 | 41° | 33km/h | 17919m | -9.5m/s | -50.8°C | 3.5% | 80.0hPa | 2.6V | 00:00:00 | 01:30:36 | 00:00:00 | |
| DL1XH1-15 | 2026-09-01 08:08:12 | 52.76676 | 8.16851 | 60° | 33km/h | 17975m | -9.4m/s | -51.2°C | 3.7% | 79.3hPa | 2.6V | 08:21:40 | 01:30:30 | 00:00:00 | |
| DL1XH-west | 2026-09-01 08:08:11 | 52.76697 | 8.16885 | 30° | 33km/h | 17938m | -10m/s | -51°C | 0.2% | 79.8hPa | 2.6V | 08:22:04 | 01:30:34 | 00:00:00 | |
| DB0DAN | 2026-09-01 08:08:10 | 52.76691 | 8.16879 | 34° | 27km/h | 17948m | -9m/s | -51°C | 1% | 79.65hPa | 2.7V | 00:00:00 | 00:00:00 | 00:00:00 | |
| DF8AY | 2026-09-01 08:08:09 | 52.76685 | 8.16871 | 43° | 27km/h | 17957m | -9m/s | -51.1°C | 0.2% | 79.5hPa | 2.7V | 08:22:04 | 01:30:32 | 00:00:00 | |
| HSKMA3-T | 2026-09-01 08:08:08 | 52.76680 | 8.16862 | 54° | 29km/h | 17966m | -9.1m/s | -51.1°C | 0.3% | 79.4hPa | 2.6V | 08:22:04 | 01:30:31 | 00:00:00 | |
| DL4XJ-10 | 2026-09-01 08:08:08 | 52.76680 | 8.16862 | 55° | 37km/h | 17966m | -9.1m/s | -50.0°C | 0% | 0hPa | 2.6V | 00:00:00 | 00:00:00 | 00:00:00 | |
| DD1CC8 | 2026-09-01 08:08:07 | 52.76672 | 8.16839 | 63° | 35km/h | 17984m | -9.8m/s | -51.3°C | 1.0% | 79.2hPa | 2.6V | 00:00:00 | 00:00:00 | 00:00:00 | |
| DO2SHX-10 | 2026-09-01 08:08:06 | 52.76672 | 8.16839 | 64° | 35km/h | 17985m | -9.7m/s | -51.2°C | 3.7% | 79.2hPa | 2.6V | 00:00:00 | 01:30:29 | 00:00:00 | |
| SONDE2-11 | 2026-09-01 08:08:05 | 52.76668 | 8.16826 | 63° | 37km/h | 17994m | -10.0m/s | -51.4°C | 1.0% | 79.1hPa | 2.7V | 00:00:00 | 00:00:00 | 00:00:00 | |
| DM0DOS-11 | 2026-09-01 08:08:04 | 52.76644 | 8.16745 | 61° | 33km/h | 18055m | -10.3m/s | -51.6°C | 3.9% | 78.3hPa | 2.7V | 08:21:48 | 01:30:22 | 00:00:00 | |
| BIOWL1-15 | 2026-09-01 08:08:03 | 52.76644 | 8.16745 | 61° | 33km/h | 18055m | -10.3m/s | -51.6°C | 0.4% | 78.3hPa | 2.7V | 08:22:04 | 01:30:22 | 00:00:00 | |
| DO2JMG | 2026-09-01 08:08:02 | 52.76656 | 8.16785 | 67° | 37km/h | 18025m | -9.9m/s | -51.5°C | 0.4% | 78.7hPa | 2.6V | 08:22:04 | 01:30:25 | 00:00:00 | |
| DL1XH-west | 2026-09-01 08:08:01 | 52.76652 | 8.16771 | 64° | 38km/h | 18035m | -10.1m/s | -51.5°C | 0.3% | 78.6hPa | 2.6V | 08:22:04 | 01:30:24 | 00:00:00 | |
| DN9WHV | 2026-09-01 08:08:00 | 52.76652 | 8.16771 | 65° | 38km/h | 18035m | -10.1m/s | -51.5°C | 1.0% | 78.6hPa | 2.7V | 08:22:00 | 00:00:00 | 00:00:00 | |
| DL1NUX | 2026-09-01 08:07:59 | 52.76621 | 8.16682 | 60° | 38km/h | 18106m | -10.8m/s | -51.3°C | 3.8% | 77.7hPa | 2.7V | 08:21:53 | 01:30:17 | 00:00:00 | |
| AA1-15 | 2026-09-01 08:07:58 | 52.76640 | 8.16733 | 60° | 35km/h | 18065m | -10m/s | -51.5°C | 0.4% | 78.2hPa | 2.7V | 08:22:04 | 01:30:21 | 00:00:00 | |
| GOEST3-10 | 2026-09-01 08:07:58 | 52.76640 | 8.16732 | 60° | 37km/h | 18065m | -10.0m/s | -51.5°C | 3.8% | 78.1hPa | 2.7V | 00:00:00 | 00:00:00 | 00:00:00 | |
| DO2SHX-10 | 2026-09-01 08:07:57 | 52.76635 | 8.16720 | 58° | 37km/h | 18076m | -10.3m/s | -51.5°C | 3.8% | 78.0hPa | 2.7V | 00:00:00 | 01:30:20 | 00:00:00 | |
| DN9WHV | 2026-09-01 08:07:56 | 52.76635 | 8.16720 | 58° | 35km/h | 18076m | -10.3m/s | -51.5°C | 1.0% | 78.1hPa | 2.7V | 08:22:00 | 00:00:00 | 00:00:00 | |
| DB0DAN | 2026-09-01 08:07:55 | 52.76626 | 8.16695 | 60° | 35km/h | 18096m | -10.5m/s | -51.4°C | 1% | 77.85hPa | 2.7V | 00:00:00 | 00:00:00 | 00:00:00 | |
| DM0DOS-11 | 2026-09-01 08:07:54 | 52.76601 | 8.16605 | 71° | 42km/h | 18161m | -10.4m/s | -51.2°C | 3.8% | 77hPa | 2.7V | 08:21:58 | 01:30:12 | 00:00:00 | |
| DO2JMG | 2026-09-01 08:07:52 | 52.76612 | 8.16653 | 65° | 40km/h | 18128m | -11.1m/s | -51.4°C | 0.3% | 77.4hPa | 2.6V | 08:22:04 | 01:30:15 | 00:00:00 | |
| DL1XH1-15 | 2026-09-01 08:07:52 | 52.76594 | 8.16573 | 70° | 38km/h | 18182m | -10.5m/s | -51°C | 3.7% | 76.8hPa | 2.6V | 08:22:00 | 01:30:10 | 00:00:00 | |
| DL1XH-west | 2026-09-01 08:07:50 | 52.76604 | 8.16621 | 70° | 42km/h | 18150m | -11.2m/s | -51.3°C | 0.3% | 77.2hPa | 2.7V | 08:22:04 | 01:30:13 | 00:00:00 | |
| DL1NUX | 2026-09-01 08:07:49 | 52.76585 | 8.16531 | 66° | 33km/h | 18214m | -10.6m/s | -51°C | 3.7% | 76.4hPa | 2.6V | 08:22:03 | 01:30:07 | 00:00:00 | |
| HSKMA3-T | 2026-09-01 08:07:48 | 52.76597 | 8.16588 | 70° | 40km/h | 18171m | -10.7m/s | -51°C | 0.3% | 76.9hPa | 2.7V | 08:22:04 | 01:30:11 | 00:00:00 | |
| AA1-15 | 2026-09-01 08:07:47 | 52.76594 | 8.16573 | 70° | 38km/h | 18182m | -10.5m/s | -51°C | 0.3% | 76.8hPa | 2.6V | 08:22:04 | 01:30:10 | 00:00:00 | |
| SO1NDE-10 | 2026-09-01 08:07:47 | 52.76594 | 8.16573 | 71° | 33km/h | 18182m | -10.4m/s | -51.0°C | 3.7% | 76.7hPa | 2.6V | 00:00:00 | 01:30:10 | 00:00:00 | |
| DN9WHV | 2026-09-01 08:07:46 | 52.76594 | 8.16573 | 71° | 38km/h | 18182m | -10.5m/s | -51.0°C | 1.0% | 76.8hPa | 2.6V | 08:22:00 | 00:00:00 | 00:00:00 | |
| DB0NH | 2026-09-01 08:07:45 | 52.76588 | 8.16544 | 70° | 33km/h | 18203m | -11.0m/s | -51.0°C | 3.7% | 76.5hPa | 2.6V | 00:00:00 | 01:30:08 | 00:00:00 | |
| DM0DOS-11 | 2026-09-01 08:07:44 | 52.76568 | 8.16461 | 70° | 42km/h | 18268m | -10.6m/s | -51°C | 3.8% | 75.8hPa | 2.6V | 08:22:08 | 01:30:02 | 00:00:00 | |
| DO9LL-15 | 2026-09-01 08:07:44 | 52.76585 | 8.16531 | 67° | 33km/h | 18214m | -10.5m/s | -50.9°C | 3.7% | 76.3hPa | 2.6V | 08:22:00 | 01:30:07 | 00:00:00 | |
| GOEST3-10 | 2026-09-01 08:07:43 | 52.76582 | 8.16518 | 69° | 37km/h | 18225m | -10.7m/s | -51.0°C | 3.7% | 76.2hPa | 2.7V | 00:00:00 | 01:30:06 | 00:00:00 | |
| DL1XH1-15 | 2026-09-01 08:07:42 | 52.76561 | 8.16428 | 68° | 42km/h | 18289m | -10.7m/s | -50.9°C | 3.7% | 75.5hPa | 2.7V | 08:22:10 | 01:30:00 | 00:00:00 | |
| DO2JMG | 2026-09-01 08:07:41 | 52.76575 | 8.16491 | 68° | 38km/h | 18246m | -10.6m/s | -51°C | 0.3% | 76hPa | 2.7V | 08:22:55 | 01:30:04 | 00:00:00 | |
| DL1XH-15 | 2026-09-01 08:07:41 | 52.76557 | 8.16412 | 69° | 38km/h | 18299m | -10.3m/s | -50.8°C | 3.7% | 75.4hPa | 2.7V | 08:22:11 | 01:29:59 | 00:00:00 | |
| DB0DAN | 2026-09-01 08:07:40 | 52.76572 | 8.16477 | 68° | 37km/h | 18257m | -11.1m/s | -51°C | 1% | 75.9hPa | 2.6V | 00:00:00 | 00:00:00 | 00:00:00 | |
| DL1XH-west | 2026-09-01 08:07:40 | 52.76572 | 8.16477 | 68° | 38km/h | 18257m | -11.1m/s | -51°C | 0.3% | 75.9hPa | 2.6V | 08:22:55 | 01:30:03 | 00:00:00 | |
| DL4BBY-15 | 2026-09-01 08:07:40 | 52.76571 | 8.16477 | 69° | 33km/h | 18257m | -11.1m/s | -49.9°C | 0% | 0hPa | 2.6V | 00:00:00 | 00:00:00 | 00:00:00 | |
| DL1NUX | 2026-09-01 08:07:39 | 52.76550 | 8.16384 | 69° | 35km/h | 18321m | -11.1m/s | -50.7°C | 3.7% | 75.1hPa | 2.6V | 08:22:13 | 01:29:57 | 00:00:00 | |
| HSKMA3-T | 2026-09-01 08:07:37 | 52.76560 | 8.16428 | 68° | 42km/h | 18289m | -10.7m/s | -50.9°C | 0.3% | 75.5hPa | 2.7V | 08:22:55 | 01:30:00 | 00:00:00 | |
| DO2SHX-10 | 2026-09-01 08:07:37 | 52.76560 | 8.16428 | 69° | 38km/h | 18289m | -10.6m/s | -50.8°C | 3.7% | 75.5hPa | 2.6V | 00:00:00 | 01:30:00 | 00:00:00 | |
| DD1CC8 | 2026-09-01 08:07:36 | 52.76554 | 8.16398 | 69° | 37km/h | 18310m | -11.2m/s | -50.7°C | 1.0% | 75.3hPa | 2.6V | 00:00:00 | 00:00:00 | 00:00:00 | |
| EDDB2-11 | 2026-09-01 08:07:35 | 52.76550 | 8.16384 | 69° | 33km/h | 18321m | -11.1m/s | -50.7°C | 1.0% | 75.1hPa | 2.6V | 00:00:00 | 00:00:00 | 00:00:00 | |
| DM0DOS-11 | 2026-09-01 08:07:34 | 52.76541 | 8.16326 | 75° | 31km/h | 18373m | -9.9m/s | -50.4°C | 3.6% | 74.5hPa | 2.6V | 08:22:18 | 01:29:52 | 00:00:00 | |
| DO2SHX-10 | 2026-09-01 08:07:34 | 52.76550 | 8.16384 | 70° | 31km/h | 18321m | -11.1m/s | -50.7°C | 3.7% | 75.1hPa | 2.7V | 00:00:00 | 01:29:57 | 00:00:00 | |
| GOEST3-10 | 2026-09-01 08:07:33 | 52.76547 | 8.16371 | 69° | 29km/h | 18332m | -10.8m/s | -50.6°C | 3.7% | 75.0hPa | 2.7V | 00:00:00 | 01:29:56 | 00:00:00 | |
| DL1XH1-15 | 2026-09-01 08:07:32 | 52.76536 | 8.16303 | 62° | 27km/h | 18393m | -10.8m/s | -50.3°C | 3.5% | 74.3hPa | 2.7V | 08:22:20 | 01:29:50 | 00:00:00 | |
| HTAHTA | 2026-09-01 08:07:32 | 52.76545 | 8.16360 | 74° | 27km/h | 18342m | -10.6m/s | -50.6°C | 1.0% | 74.9hPa | 2.7V | 00:00:00 | 00:00:00 | 00:00:00 | |
| DL1XH-15 | 2026-09-01 08:07:31 | 52.76533 | 8.16292 | 65° | 27km/h | 18404m | -10.9m/s | -50.3°C | 3.5% | 74.2hPa | 2.7V | 08:22:21 | 01:29:49 | 00:00:00 | |
| BIOWL1-15 | 2026-09-01 08:07:30 | 52.76543 | 8.16338 | 79° | 29km/h | 18363m | -10.4m/s | -50.5°C | 0.3% | 74.7hPa | 2.6V | 08:22:55 | 01:29:53 | 00:00:00 | |
| DL1XH-west | 2026-09-01 08:07:29 | 52.76541 | 8.16326 | 76° | 31km/h | 18373m | -9.9m/s | -50.4°C | 0.2% | 74.5hPa | 2.6V | 08:22:55 | 01:29:52 | 00:00:00 | |
| DL1NUX | 2026-09-01 08:07:29 | 52.76527 | 8.16270 | 68° | 31km/h | 18425m | -10.3m/s | -50.2°C | 3.5% | 74hPa | 2.6V | 08:22:23 | 01:29:47 | 00:00:00 | |
| HSKMA3-T | 2026-09-01 08:07:27 | 52.76536 | 8.16303 | 63° | 29km/h | 18393m | -10.8m/s | -50.3°C | 0.2% | 74.3hPa | 2.7V | 08:22:55 | 01:29:50 | 00:00:00 | |
| AA1-15 | 2026-09-01 08:07:26 | 52.76533 | 8.16292 | 65° | 27km/h | 18404m | -10.9m/s | -50.3°C | 0.2% | 74.2hPa | 2.7V | 08:22:55 | 01:29:49 | 00:00:00 | |
| DB0DAN | 2026-09-01 08:07:25 | 52.76530 | 8.16281 | 67° | 27km/h | 18414m | -10.5m/s | -50.3°C | 0.9% | 74.1hPa | 2.6V | 00:00:00 | 00:00:00 | 00:00:00 | |
| DO2SHX-10 | 2026-09-01 08:07:25 | 52.76530 | 8.16281 | 68° | 31km/h | 18415m | -10.5m/s | -50.2°C | 3.5% | 74.0hPa | 2.6V | 00:00:00 | 01:29:48 | 00:00:00 | |
| DM0DOS-11 | 2026-09-01 08:07:24 | 52.76508 | 8.16217 | 63° | 26km/h | 18476m | -10m/s | -50.2°C | 3.5% | 73.3hPa | 2.6V | 08:22:28 | 01:29:42 | 00:00:00 | |
| GOEST3-10 | 2026-09-01 08:07:23 | 52.76524 | 8.16258 | 60° | 29km/h | 18436m | -10.5m/s | -50.1°C | 3.5% | 73.8hPa | 2.7V | 00:00:00 | 01:29:46 | 00:00:00 | |
| DL1XH1-15 | 2026-09-01 08:07:22 | 52.76502 | 8.16195 | 68° | 33km/h | 18497m | -11m/s | -50.1°C | 3.5% | 73.2hPa | 2.7V | 08:22:30 | 01:29:40 | 00:00:00 | |
| DO2SHX-10 | 2026-09-01 08:07:22 | 52.76519 | 8.16247 | 55° | 29km/h | 18446m | -10.3m/s | -50.1°C | 3.5% | 73.7hPa | 2.7V | 08:22:00 | 01:29:45 | 00:00:00 | |
| DL1XH-15 | 2026-09-01 08:07:21 | 52.76499 | 8.16182 | 64° | 37km/h | 18507m | -10.4m/s | -50.1°C | 3.5% | 73hPa | 2.7V | 08:22:31 | 01:29:39 | 00:00:00 | |
| DL1XH-west | 2026-09-01 08:07:19 | 52.76507 | 8.16217 | 64° | 26km/h | 18476m | -10m/s | -50.2°C | 0.2% | 73.4hPa | 2.6V | 08:22:55 | 01:29:42 | 00:00:00 | |
| HSKMA3-T | 2026-09-01 08:07:16 | 52.76499 | 8.16182 | 65° | 37km/h | 18507m | -10.4m/s | -50.1°C | 0.1% | 73hPa | 2.7V | 08:22:55 | 01:29:39 | 00:00:00 | |
| AA1-15 | 2026-09-01 08:07:15 | 52.76494 | 8.16168 | 56° | 38km/h | 18518m | -10.4m/s | -50.1°C | 0.1% | 72.9hPa | 2.7V | 08:22:55 | 01:29:38 | 00:00:00 | |
| DB0NH | 2026-09-01 08:07:15 | 52.76494 | 8.16168 | 56° | 31km/h | 18518m | -10.3m/s | -50.1°C | 3.5% | 72.9hPa | 2.6V | 00:00:00 | 01:29:38 | 00:00:00 | |
| DM0DOS-11 | 2026-09-01 08:07:14 | 52.76470 | 8.16104 | 88° | 35km/h | 18582m | -9.8m/s | -50.5°C | 3.6% | 72.2hPa | 2.6V | 08:22:38 | 01:29:32 | 00:00:00 | |
| DO9LL-15 | 2026-09-01 08:07:14 | 52.76488 | 8.16156 | 49° | 35km/h | 18529m | -10.1m/s | -50.1°C | 3.5% | 72.7hPa | 2.6V | 00:00:00 | 01:29:37 | 00:00:00 | |
| DO2SHX-10 | 2026-09-01 08:07:13 | 52.76482 | 8.16145 | 47° | 29km/h | 18539m | -10.4m/s | -50.2°C | 3.5% | 72.6hPa | 2.6V | 00:00:00 | 01:29:36 | 00:00:00 | |
| DL1XH1-15 | 2026-09-01 08:07:12 | 52.76468 | 8.16070 | 81° | 49km/h | 18601m | -9.4m/s | -50.6°C | 3.6% | 72hPa | 2.6V | 08:22:40 | 01:29:30 | 00:00:00 | |
| DL1XH-15 | 2026-09-01 08:07:11 | 52.76466 | 8.16050 | 74° | 49km/h | 18610m | -10.1m/s | -50.6°C | 3.6% | 71.9hPa | 2.7V | 08:22:41 | 01:29:29 | 00:00:00 | |
| DF5WG-10 | 2026-09-01 08:07:11 | 52.76473 | 8.16126 | 59° | 29km/h | 18560m | -10.6m/s | -50.4°C | 3.5% | 72.4hPa | 2.7V | 00:00:00 | 01:29:34 | 00:00:00 | |
| DO2SHX-10 | 2026-09-01 08:07:10 | 52.76471 | 8.16117 | 79° | 31km/h | 18571m | -10.1m/s | -50.4°C | 3.5% | 72.3hPa | 2.7V | 00:00:00 | 01:29:33 | 00:00:00 | |
| DL1NUX | 2026-09-01 08:07:09 | 52.76457 | 8.16012 | 62° | 46km/h | 18631m | -9.9m/s | -50.6°C | 3.6% | 71.6hPa | 2.7V | 08:22:43 | 01:29:27 | 00:00:00 | |
| DL1XH-west | 2026-09-01 08:07:09 | 52.76470 | 8.16104 | 89° | 35km/h | 18582m | -9.8m/s | -50.5°C | 0.2% | 72.2hPa | 2.6V | 08:22:55 | 01:29:32 | 00:00:00 | |
| HSKMA3-T | 2026-09-01 08:07:06 | 52.76466 | 8.16050 | 75° | 51km/h | 18610m | -10.1m/s | -50.6°C | 0.2% | 71.9hPa | 2.7V | 08:22:55 | 01:29:29 | 00:00:00 | |
| AA1-15 | 2026-09-01 08:07:05 | 52.76462 | 8.16030 | 69° | 49km/h | 18621m | -10m/s | -50.6°C | 0.3% | 71.8hPa | 2.7V | 08:22:55 | 01:29:28 | 00:00:00 | |
| DD1CC8 | 2026-09-01 08:07:05 | 52.76457 | 8.16012 | 62° | 44km/h | 18631m | -9.9m/s | -50.6°C | 1.0% | 71.7hPa | 2.6V | 00:00:00 | 00:00:00 | 00:00:00 | |
| EDDB2-11 | 2026-09-01 08:07:04 | 52.76452 | 8.15997 | 58° | 38km/h | 18641m | -10.0m/s | -50.5°C | 0.9% | 71.5hPa | 2.6V | 00:00:00 | 00:00:00 | 00:00:00 | |
| DO2SHX-10 | 2026-09-01 08:07:03 | 52.76452 | 8.15997 | 59° | 33km/h | 18641m | -10.0m/s | -50.5°C | 3.5% | 71.5hPa | 2.6V | 00:00:00 | 01:29:26 | 00:00:00 | |
| DL1XH1-15 | 2026-09-01 08:07:02 | 52.76447 | 8.15914 | 92° | 47km/h | 18702m | -10.1m/s | -50.5°C | 3.5% | 70.9hPa | 2.6V | 08:22:50 | 01:29:20 | 00:00:00 | |
| DL1XH-15 | 2026-09-01 08:07:01 | 52.76447 | 8.15894 | 85° | 49km/h | 18711m | -9.6m/s | -50.5°C | 3.5% | 70.8hPa | 2.6V | 08:22:51 | 01:29:19 | 00:00:00 | |
| DK5PH-5 | 2026-09-01 08:07:01 | 52.76445 | 8.15973 | 78° | 26km/h | 18662m | -10.0m/s | -50.5°C | 3.5% | 71.3hPa | 2.6V | 08:22:00 | 01:29:24 | 00:00:00 | |
| DO2SHX-10 | 2026-09-01 08:07:00 | 52.76444 | 8.15961 | 90° | 38km/h | 18672m | -10.0m/s | -50.4°C | 3.5% | 71.2hPa | 2.7V | 00:00:00 | 01:29:23 | 00:00:00 | |
| DL1NUX | 2026-09-01 08:06:59 | 52.76441 | 8.15855 | 67° | 46km/h | 18731m | -10.3m/s | -50.6°C | 3.5% | 70.5hPa | 2.7V | 08:22:53 | 01:29:17 | 00:00:00 | |
| DL1XH-west | 2026-09-01 08:06:58 | 52.76446 | 8.15932 | 99° | 42km/h | 18692m | -9.8m/s | -50.5°C | 0.2% | 71hPa | 2.6V | 08:22:55 | 01:29:21 | 00:00:00 | |
| GOEST3-10 | 2026-09-01 08:06:58 | 52.76446 | 8.15932 | 99° | 46km/h | 18692m | -9.8m/s | -50.4°C | 3.5% | 70.9hPa | 2.7V | 00:00:00 | 00:00:00 | 00:00:00 | |
| DN9WHV | 2026-09-01 08:06:57 | 52.76447 | 8.15914 | 93° | 47km/h | 18702m | -10.1m/s | -50.5°C | 0.9% | 70.9hPa | 2.7V | 08:22:00 | 00:00:00 | 00:00:00 | |
| DD1CC3-15 | 2026-09-01 08:06:56 | 52.76447 | 8.15914 | 93° | 47km/h | 18702m | -10.1m/s | -50.5°C | 1.0% | 70.9hPa | 2.7V | 08:22:00 | 00:00:00 | 00:00:00 | |
| DB0DAN | 2026-09-01 08:06:55 | 52.76445 | 8.15874 | 76° | 47km/h | 18721m | -10m/s | -50.6°C | 0.9% | 70.67hPa | 2.7V | 00:00:00 | 00:00:00 | 00:00:00 | |
| HSKMA3-T | 2026-09-01 08:06:55 | 52.76445 | 8.15874 | 76° | 49km/h | 18721m | -10m/s | -50.6°C | 0.2% | 70.7hPa | 2.7V | 08:22:55 | 01:29:18 | 00:00:00 | |
| AA1-15 | 2026-09-01 08:06:54 | 52.76441 | 8.15855 | 68° | 46km/h | 18731m | -10.3m/s | -50.6°C | 0.2% | 70.5hPa | 2.7V | 08:22:55 | 01:29:17 | 00:00:00 | |
| GOEST3-10 | 2026-09-01 08:06:53 | 52.76437 | 8.15839 | 62° | 27km/h | 18742m | -10.4m/s | -50.6°C | 3.5% | 70.4hPa | 2.6V | 00:00:00 | 01:29:16 | 00:00:00 | |
| DL1XH1-15 | 2026-09-01 08:06:52 | 52.76426 | 8.15780 | 90° | 24km/h | 18803m | -10.5m/s | -50.6°C | 3.6% | 69.8hPa | 2.6V | 08:23:00 | 01:29:10 | 00:00:00 | |
| DL1XH-15 | 2026-09-01 08:06:51 | 52.76426 | 8.15770 | 86° | 26km/h | 18813m | -10.8m/s | -50.6°C | 3.5% | 69.7hPa | 2.6V | 08:23:01 | 01:29:09 | 00:00:00 | |
| DF5WG-10 | 2026-09-01 08:06:51 | 52.76429 | 8.15816 | 61° | 22km/h | 18763m | -10.3m/s | -50.6°C | 3.5% | 70.1hPa | 2.6V | 00:00:00 | 01:29:14 | 08:30:00 | |
| DN9WHV | 2026-09-01 08:06:50 | 52.76429 | 8.15816 | 62° | 26km/h | 18763m | -10.3m/s | -50.7°C | 0.9% | 70.2hPa | 2.7V | 08:23:00 | 00:00:00 | 00:00:00 | |
| DL1NUX | 2026-09-01 08:06:49 | 52.76425 | 8.15748 | 84° | 26km/h | 18835m | -11.3m/s | -50.6°C | 3.6% | 69.4hPa | 2.7V | 08:23:03 | 01:29:07 | 00:00:00 | |
| DL1XH-west | 2026-09-01 08:06:47 | 52.76426 | 8.15780 | 90° | 26km/h | 18803m | -10.5m/s | -50.6°C | 0.2% | 69.8hPa | 2.6V | 08:23:46 | 01:29:10 | 00:00:00 | |
| HSKMA3-T | 2026-09-01 08:06:45 | 52.76425 | 8.15759 | 85° | 27km/h | 18824m | -10.7m/s | -50.6°C | 0.2% | 69.6hPa | 2.7V | 08:23:46 | 01:29:08 | 00:00:00 | |
| AA1-15 | 2026-09-01 08:06:43 | 52.76424 | 8.15737 | 82° | 27km/h | 18847m | -11.1m/s | -50.7°C | 0.2% | 69.3hPa | 2.6V | 08:23:46 | 01:29:06 | 00:00:00 | |
| DO2SHX-10 | 2026-09-01 08:06:43 | 52.76424 | 8.15736 | 82° | 27km/h | 18847m | -11.1m/s | -50.6°C | 3.6% | 69.2hPa | 2.6V | 00:00:00 | 01:29:06 | 00:00:00 | |
| DL1XH1-15 | 2026-09-01 08:06:42 | 52.76410 | 8.15688 | 71° | 13km/h | 18909m | -10.4m/s | -51°C | 3.7% | 68.6hPa | 2.6V | 08:23:10 | 01:29:00 | 00:00:00 | |
| GOEST3-10 | 2026-09-01 08:06:42 | 52.76422 | 8.15725 | 74° | 22km/h | 18858m | -10.9m/s | -50.7°C | 3.6% | 69.1hPa | 2.6V | 00:00:00 | 01:29:05 | 00:00:00 | |
| DL1XH-15 | 2026-09-01 08:06:41 | 52.76409 | 8.15682 | 85° | 15km/h | 18920m | -10.3m/s | -51°C | 3.7% | 68.5hPa | 2.6V | 08:23:11 | 01:28:59 | 00:00:00 | |
| DB0DAN | 2026-09-01 08:06:40 | 52.76417 | 8.15705 | 55° | 22km/h | 18879m | -10.6m/s | -50.9°C | 1% | 68.97hPa | 2.7V | 00:00:00 | 00:00:00 | 00:00:00 | |
| DL4BBY-15 | 2026-09-01 08:06:40 | 52.76416 | 8.15705 | 56° | 26km/h | 18879m | -10.5m/s | -49.8°C | 0% | 0hPa | 2.7V | 00:00:00 | 00:00:00 | 00:00:00 | |
| DL1NUX | 2026-09-01 08:06:39 | 52.76408 | 8.15668 | 70° | 18km/h | 18941m | -11.1m/s | -51°C | 3.7% | 68.3hPa | 2.7V | 08:23:13 | 01:28:57 | 00:00:00 | |
| DL1XH-west | 2026-09-01 08:06:37 | 52.76410 | 8.15688 | 72° | 13km/h | 18909m | -10.4m/s | -51°C | 0.3% | 68.6hPa | 2.6V | 08:23:46 | 01:29:00 | 00:00:00 | |
| DO2JMG | 2026-09-01 08:06:36 | 52.76409 | 8.15682 | 86° | 15km/h | 18920m | -10.4m/s | -51°C | 0.3% | 68.5hPa | 2.6V | 08:23:46 | 01:28:59 | 00:00:00 | |
| HSKMA3-T | 2026-09-01 08:06:34 | 52.76407 | 8.15669 | 71° | 18km/h | 18941m | -11.1m/s | -51°C | 0.3% | 68.3hPa | 2.7V | 08:23:46 | 01:28:57 | 00:00:00 | |
| AA1-15 | 2026-09-01 08:06:33 | 52.76406 | 8.15661 | 70° | 18km/h | 18952m | -11m/s | -51°C | 0.4% | 68.2hPa | 2.7V | 08:23:46 | 01:28:56 | 00:00:00 | |
| EDDB2-11 | 2026-09-01 08:06:33 | 52.76405 | 8.15654 | 73° | 16km/h | 18963m | -11.3m/s | -51.1°C | 1.0% | 68.1hPa | 2.6V | 00:00:00 | 00:00:00 | 00:00:00 | |
| GOEST3-10 | 2026-09-01 08:06:32 | 52.76405 | 8.15654 | 74° | 20km/h | 18963m | -11.3m/s | -51.0°C | 3.8% | 68.0hPa | 2.6V | 08:23:00 | 01:28:55 | 00:00:00 | |
| DL1XH-15 | 2026-09-01 08:06:31 | 52.76395 | 8.15603 | 69° | 24km/h | 19030m | -10.9m/s | -50.8°C | 3.7% | 67.3hPa | 2.6V | 08:23:21 | 01:28:49 | 00:00:00 | |
| DO2SHX-10 | 2026-09-01 08:06:30 | 52.76402 | 8.15638 | 72° | 22km/h | 18985m | -11.0m/s | -51.0°C | 3.7% | 67.8hPa | 2.6V | 00:00:00 | 01:28:53 | 00:00:00 | |
| DL1NUX | 2026-09-01 08:06:29 | 52.76390 | 8.15583 | 63° | 29km/h | 19052m | -11m/s | -50.7°C | 3.6% | 67.1hPa | 2.6V | 08:23:23 | 01:28:47 | 00:00:00 | |
| DL1XH-west | 2026-09-01 08:06:26 | 52.76395 | 8.15603 | 69° | 24km/h | 19030m | -10.9m/s | -50.8°C | 0.3% | 67.3hPa | 2.6V | 08:23:46 | 01:28:49 | 00:00:00 | |
| BIOWL1-15 | 2026-09-01 08:06:25 | 52.76393 | 8.15593 | 66° | 27km/h | 19041m | -11.2m/s | -50.7°C | 0.3% | 67.2hPa | 2.6V | 08:23:46 | 01:28:48 | 00:00:00 | |
| DF5WG-10 | 2026-09-01 08:06:25 | 52.76392 | 8.15593 | 66° | 29km/h | 19041m | -11.2m/s | -50.7°C | 3.7% | 67.2hPa | 2.6V | 00:00:00 | 01:28:48 | 00:00:00 | |
| DM0DOS-11 | 2026-09-01 08:06:24 | 52.76373 | 8.15531 | 66° | 27km/h | 19107m | -10.9m/s | -50.8°C | 3.7% | 66.5hPa | 2.6V | 08:23:28 | 01:28:42 | 00:00:00 | |
| HSKMA3-T | 2026-09-01 08:06:23 | 52.76386 | 8.15572 | 59° | 29km/h | 19063m | -11.7m/s | -50.8°C | 0.3% | 67hPa | 2.7V | 08:23:46 | 01:28:46 | 00:00:00 | |
| AA1-15 | 2026-09-01 08:06:22 | 52.76383 | 8.15562 | 58° | 27km/h | 19074m | -11.3m/s | -50.8°C | 0.2% | 66.9hPa | 2.7V | 08:23:46 | 01:28:45 | 00:00:00 | |
| GOEST3-10 | 2026-09-01 08:06:22 | 52.76382 | 8.15562 | 59° | 29km/h | 19075m | -11.3m/s | -50.8°C | 3.7% | 66.9hPa | 2.6V | 00:00:00 | 01:28:45 | 00:00:00 | |
| SONCRA | 2026-09-01 08:06:21 | 52.76379 | 8.15552 | 61° | 27km/h | 19085m | -10.6m/s | -50.8°C | 1.0% | 66.8hPa | 2.6V | 00:00:00 | 00:00:00 | 00:00:00 | |
| DN9WHV | 2026-09-01 08:06:20 | 52.76379 | 8.15552 | 63° | 29km/h | 19086m | -10.6m/s | -50.8°C | 1.0% | 66.8hPa | 2.6V | 08:23:00 | 00:00:00 | 00:00:00 | |
| DL1NUX | 2026-09-01 08:06:19 | 52.76367 | 8.15471 | 93° | 33km/h | 19166m | -11.5m/s | -50.7°C | 3.7% | 66hPa | 2.6V | 08:23:33 | 01:28:37 | 00:00:00 | |
| DL1XH-west | 2026-09-01 08:06:15 | 52.76367 | 8.15484 | 88° | 31km/h | 19154m | -12m/s | -50.8°C | 0.3% | 66.1hPa | 2.6V | 08:23:46 | 01:28:38 | 00:00:00 | |
| BIOWL1-15 | 2026-09-01 08:06:14 | 52.76367 | 8.15471 | 93° | 33km/h | 19166m | -11.5m/s | -50.7°C | 0.3% | 66hPa | 2.6V | 08:23:46 | 01:28:37 | 00:00:00 | |
| HSKMA3-T | 2026-09-01 08:06:13 | 52.76367 | 8.15456 | 92° | 37km/h | 19177m | -11.7m/s | -50.7°C | 0.3% | 65.9hPa | 2.6V | 08:23:46 | 01:28:36 | 00:00:00 | |
| DF8AY | 2026-09-01 08:06:12 | 52.76367 | 8.15441 | 88° | 38km/h | 19189m | -11.9m/s | -50.6°C | 0.3% | 65.7hPa | 2.7V | 08:23:46 | 01:28:35 | 00:00:00 | |
| AA1-15 | 2026-09-01 08:06:11 | 52.76367 | 8.15425 | 86° | 40km/h | 19201m | -11.2m/s | -50.6°C | 0.2% | 65.6hPa | 2.7V | 08:23:46 | 01:28:34 | 00:00:00 | |
| DB0DAN | 2026-09-01 08:06:10 | 52.76366 | 8.15408 | 78° | 38km/h | 19212m | -10.9m/s | -50.5°C | 1% | 65.5hPa | 2.6V | 00:00:00 | 00:00:00 | 00:00:00 | |
| DL4BBY-15 | 2026-09-01 08:06:10 | 52.76366 | 8.15408 | 78° | 22km/h | 19212m | -10.9m/s | -49.4°C | 0% | 0hPa | 2.6V | 00:00:00 | 00:00:00 | 00:00:00 | |
| DL1NUX | 2026-09-01 08:06:09 | 52.76347 | 8.15350 | 56° | 7km/h | 19277m | -11.1m/s | -50.2°C | 3.4% | 64.8hPa | 2.6V | 08:23:43 | 01:28:27 | 00:00:00 | |
| DL1XH-west | 2026-09-01 08:06:04 | 52.76347 | 8.15350 | 56° | 7km/h | 19277m | -11.1m/s | -50.2°C | 0.1% | 64.8hPa | 2.6V | 08:23:46 | 01:28:27 | 00:00:00 | |
| BIOWL1-15 | 2026-09-01 08:06:03 | 52.76349 | 8.15339 | 123° | 16km/h | 19310m | -10.1m/s | -50.3°C | 0.1% | 64.5hPa | 2.7V | 08:23:46 | 01:28:24 | 00:00:00 | |
| HSKMA3-T | 2026-09-01 08:06:02 | 52.76348 | 8.15344 | 122° | 11km/h | 19299m | -11.3m/s | -50.3°C | 0% | 64.6hPa | 2.7V | 08:23:46 | 01:28:25 | 00:00:00 | |
| AA1-15 | 2026-09-01 08:06:00 | 52.76352 | 8.15333 | 122° | 18km/h | 19320m | -11.2m/s | -50.3°C | 0.1% | 64.4hPa | 2.6V | 08:24:37 | 01:28:23 | 00:00:00 | |
| HTAHTA | 2026-09-01 08:05:59 | 52.76357 | 8.15319 | 117° | 22km/h | 19341m | -11.0m/s | -50.4°C | 0.9% | 64.2hPa | 2.6V | 00:00:00 | 00:00:00 | 00:00:00 | |
| DO2SHX-10 | 2026-09-01 08:05:58 | 52.76357 | 8.15319 | 118° | 22km/h | 19341m | -10.9m/s | -50.3°C | 3.5% | 64.2hPa | 2.6V | 00:00:00 | 01:28:21 | 00:00:00 | |
| DN9WHV | 2026-09-01 08:05:57 | 52.76360 | 8.15310 | 118° | 22km/h | 19352m | -10.6m/s | -50.4°C | 0.9% | 64.1hPa | 2.6V | 08:24:00 | 00:00:00 | 00:00:00 | |
| DL3OBA | 2026-09-01 08:05:56 | 52.76360 | 8.15310 | 118° | 22km/h | 19352m | -10.6m/s | -50.4°C | 0.9% | 64.1hPa | 2.6V | 08:24:00 | 00:00:00 | 00:00:00 | |
| DB0DAN | 2026-09-01 08:05:55 | 52.76363 | 8.15294 | 102° | 18km/h | 19373m | -10.6m/s | -50.5°C | 0.9% | 63.89hPa | 2.6V | 00:00:00 | 00:00:00 | 00:00:00 | |
| DO2JMG | 2026-09-01 08:05:54 | 52.76364 | 8.15287 | 91° | 15km/h | 19383m | -10.9m/s | -50.6°C | 0.2% | 63.8hPa | 2.6V | 08:24:37 | 01:28:17 | 00:00:00 | |
| DM0DOS-11 | 2026-09-01 08:05:54 | 52.76360 | 8.15256 | 70° | 16km/h | 19447m | -12.5m/s | -51.1°C | 3.7% | 63.2hPa | 2.6V | 08:23:58 | 01:28:12 | 00:00:00 | |
| DL1XH-west | 2026-09-01 08:05:53 | 52.76364 | 8.15280 | 86° | 15km/h | 19394m | -10.1m/s | -50.7°C | 0.2% | 63.7hPa | 2.6V | 08:24:37 | 01:28:16 | 00:00:00 | |
| DL1XH1-15 | 2026-09-01 08:05:52 | 52.76356 | 8.15242 | 59° | 20km/h | 19472m | -11.7m/s | -51°C | 3.7% | 62.9hPa | 2.6V | 08:24:00 | 01:28:10 | 00:00:00 | |
| HSKMA3-T | 2026-09-01 08:05:51 | 52.76362 | 8.15268 | 79° | 15km/h | 19419m | -15.9m/s | -50.9°C | 0.2% | 63.5hPa | 2.7V | 08:24:37 | 01:28:14 | 00:00:00 | |
| BIOWL1-15 | 2026-09-01 08:05:50 | 52.76361 | 8.15262 | 70° | 16km/h | 19434m | -14.2m/s | -51°C | 0.3% | 63.3hPa | 2.7V | 08:24:37 | 01:28:13 | 00:00:00 | |
| AA1-15 | 2026-09-01 08:05:49 | 52.76360 | 8.15256 | 71° | 16km/h | 19447m | -12.5m/s | -51.1°C | 0.2% | 63.2hPa | 2.6V | 08:24:37 | 01:28:12 | 00:00:00 | |
| DD8BA-10 | 2026-09-01 08:05:49 | 52.76360 | 8.15256 | 71° | 26km/h | 19447m | -12.5m/s | -51.0°C | 3.7% | 63.1hPa | 2.6V | 08:23:00 | 00:00:00 | 00:00:00 | |
| DJ2DS-15 | 2026-09-01 08:05:48 | 52.76358 | 8.15249 | 66° | 22km/h | 19460m | -12.7m/s | -51.0°C | 3.7% | 63.0hPa | 2.6V | 08:23:00 | 01:28:11 | 00:00:00 | |
| SO1NDE-10 | 2026-09-01 08:05:47 | 52.76356 | 8.15242 | 60° | 18km/h | 19472m | -11.6m/s | -51.0°C | 3.7% | 62.9hPa | 2.6V | 08:24:00 | 01:28:10 | 00:00:00 | |
| DN9WHV | 2026-09-01 08:05:46 | 52.76353 | 8.15234 | 59° | 24km/h | 19484m | -11.8m/s | -51.0°C | 0.9% | 62.8hPa | 2.6V | 08:24:00 | 00:00:00 | 00:00:00 | |
| DO2SHX-10 | 2026-09-01 08:05:45 | 52.76349 | 8.15226 | 53° | 26km/h | 19496m | -12.0m/s | -50.9°C | 3.6% | 62.7hPa | 2.6V | 00:00:00 | 01:28:08 | 00:00:00 | |
| DM0DOS-11 | 2026-09-01 08:05:44 | 52.76327 | 8.15165 | 68° | 27km/h | 19573m | -16.7m/s | -51.4°C | 3.9% | 62hPa | 2.6V | 08:24:08 | 01:28:02 | 00:00:00 | |
| DL1XH-west | 2026-09-01 08:05:43 | 52.76342 | 8.15207 | 54° | 31km/h | 19521m | -15m/s | -51.1°C | 0.3% | 62.5hPa | 2.6V | 08:24:37 | 01:28:06 | 00:00:00 | |
| DO2SHX-10 | 2026-09-01 08:05:42 | 52.76337 | 8.15197 | 55° | 29km/h | 19534m | -11.4m/s | -51.1°C | 3.8% | 62.3hPa | 2.7V | 00:00:00 | 01:28:05 | 00:00:00 | |
| DL1XH-15 | 2026-09-01 08:05:41 | 52.76322 | 8.15134 | 86° | 24km/h | 19610m | -10.8m/s | -51.4°C | 4% | 61.6hPa | 2.7V | 08:24:11 | 01:27:59 | 00:00:00 | |
| HSKMA3-T | 2026-09-01 08:05:41 | 52.76333 | 8.15187 | 60° | 29km/h | 19546m | -12.4m/s | -51.2°C | 0.4% | 62.2hPa | 2.7V | 08:24:37 | 01:28:04 | 00:00:00 | |
| DB0DAN | 2026-09-01 08:05:40 | 52.76330 | 8.15176 | 66° | 27km/h | 19559m | -13.5m/s | -51.3°C | 1% | 62.11hPa | 2.6V | 00:00:00 | 00:00:00 | 00:00:00 | |
| BIOWL1-15 | 2026-09-01 08:05:40 | 52.76330 | 8.15176 | 66° | 29km/h | 19559m | -13.5m/s | -51.3°C | 0.4% | 62.1hPa | 2.6V | 08:24:37 | 01:28:03 | 00:00:00 | |
| AA1-15 | 2026-09-01 08:05:38 | 52.76324 | 8.15154 | 71° | 27km/h | 19587m | -11m/s | -51.4°C | 0.4% | 61.8hPa | 2.6V | 08:24:37 | 01:28:01 | 00:00:00 | |
| DO2SHX-10 | 2026-09-01 08:05:37 | 52.76323 | 8.15144 | 81° | 22km/h | 19599m | -11.5m/s | -51.4°C | 3.9% | 61.7hPa | 2.7V | 00:00:00 | 01:28:00 | 00:00:00 | |
| DN9WHV | 2026-09-01 08:05:36 | 52.76322 | 8.15134 | 87° | 24km/h | 19610m | -10.8m/s | -51.4°C | 1.1% | 61.6hPa | 2.6V | 08:24:00 | 00:00:00 | 00:00:00 | |
| DL3OBA | 2026-09-01 08:05:35 | 52.76322 | 8.15134 | 87° | 24km/h | 19610m | -10.8m/s | -51.4°C | 1.1% | 61.6hPa | 2.6V | 08:24:00 | 00:00:00 | 00:00:00 | |
| DM0DOS-11 | 2026-09-01 08:05:34 | 52.76323 | 8.15091 | 90° | 9km/h | 19708m | -12.8m/s | -50.7°C | 3.7% | 60.7hPa | 2.6V | 08:24:18 | 01:27:52 | 00:00:00 | |
| DL1XH-west | 2026-09-01 08:05:32 | 52.76322 | 8.15105 | 96° | 13km/h | 19664m | -16m/s | -50.9°C | 0.3% | 61.1hPa | 2.6V | 08:24:37 | 01:27:55 | 00:00:00 | |
| GOEST3-10 | 2026-09-01 08:05:32 | 52.76322 | 8.15105 | 97° | 9km/h | 19664m | -16.0m/s | -50.9°C | 3.7% | 61.1hPa | 2.6V | 00:00:00 | 01:27:55 | 00:00:00 | |
| DL1XH-15 | 2026-09-01 08:05:31 | 52.76320 | 8.15083 | 34° | 11km/h | 19743m | -11.9m/s | -50.5°C | 3.6% | 60.3hPa | 2.7V | 08:24:21 | 01:27:49 | 00:00:00 | |
| BIOWL1-15 | 2026-09-01 08:05:30 | 52.76322 | 8.15088 | 61° | 7km/h | 19721m | -11.7m/s | -50.7°C | 0.3% | 60.6hPa | 2.6V | 08:24:37 | 01:27:51 | 00:00:00 | |
| HSKMA3-T | 2026-09-01 08:05:30 | 52.76323 | 8.15095 | 94° | 9km/h | 19694m | -15.1m/s | -50.7°C | 0.3% | 60.9hPa | 2.7V | 08:24:37 | 01:27:53 | 00:00:00 | |
| AA1-15 | 2026-09-01 08:05:27 | 52.76321 | 8.15086 | 66° | 7km/h | 19732m | -11.1m/s | -50.7°C | 0.3% | 60.5hPa | 2.6V | 08:24:37 | 01:27:50 | 00:00:00 | |
| DO3DL | 2026-09-01 08:05:27 | 52.76321 | 8.15086 | 67° | 7km/h | 19732m | -11.1m/s | -50.7°C | 1.0% | 60.5hPa | 2.7V | 08:24:00 | 00:00:00 | 00:00:00 | |
| DN9WHV | 2026-09-01 08:05:26 | 52.76321 | 8.15086 | 67° | 7km/h | 19732m | -11.1m/s | -50.7°C | 1.0% | 60.5hPa | 2.7V | 08:24:00 | 00:00:00 | 00:00:00 | |
| DB0DAN | 2026-09-01 08:05:25 | 52.76318 | 8.15081 | 28° | 9km/h | 19755m | -11.2m/s | -50.3°C | 0.9% | 60.25hPa | 2.7V | 00:00:00 | 00:00:00 | 00:00:00 | |
| DO2SHX-10 | 2026-09-01 08:05:25 | 52.76318 | 8.15080 | 29° | 13km/h | 19756m | -11.1m/s | -50.3°C | 3.5% | 60.2hPa | 2.7V | 00:00:00 | 01:27:48 | 00:00:00 | |
| DM0DOS-11 | 2026-09-01 08:05:24 | 52.76299 | 8.15060 | 44° | 16km/h | 19822m | -11.2m/s | -50.2°C | 3.4% | 59.6hPa | 2.7V | 08:24:28 | 01:27:42 | 00:00:00 | |
| DL1XH-west | 2026-09-01 08:05:22 | 52.76308 | 8.15073 | 28° | 16km/h | 19789m | -11.7m/s | -50.2°C | 0.2% | 59.9hPa | 2.6V | 08:24:37 | 01:27:45 | 00:00:00 | |
| DO2JMG | 2026-09-01 08:05:21 | 52.76305 | 8.15069 | 37° | 15km/h | 19801m | -11.1m/s | -50.1°C | 0.2% | 59.9hPa | 2.6V | 08:24:37 | 01:27:44 | 00:00:00 | |
| HSKMA3-T | 2026-09-01 08:05:19 | 52.76299 | 8.15060 | 45° | 16km/h | 19822m | -11.2m/s | -50.2°C | 0.1% | 59.6hPa | 2.7V | 08:24:37 | 01:27:42 | 00:00:00 | |
| BIOWL1-15 | 2026-09-01 08:05:18 | 52.76297 | 8.15055 | 58° | 15km/h | 19833m | -11.1m/s | -50.3°C | 0.1% | 59.5hPa | 2.6V | 08:24:37 | 01:27:41 | 00:00:00 | |
| AA1-15 | 2026-09-01 08:05:16 | 52.76293 | 8.15045 | 54° | 11km/h | 19856m | -10.9m/s | -50.4°C | 0.2% | 59.3hPa | 2.7V | 08:24:37 | 01:27:39 | 00:00:00 | |
| DM0DOS-11 | 2026-09-01 08:05:14 | 52.76279 | 8.15027 | 25° | 15km/h | 19934m | -11.6m/s | -50.9°C | 3.6% | 58.6hPa | 2.7V | 08:24:38 | 01:27:32 | 00:00:00 | |
| DL1XH1-15 | 2026-09-01 08:05:12 | 52.76271 | 8.15019 | 35° | 20km/h | 19955m | -11.1m/s | -51.1°C | 3.6% | 58.4hPa | 2.6V | 08:24:40 | 01:27:30 | 00:00:00 | |
| DL1XH-west | 2026-09-01 08:05:11 | 52.76285 | 8.15031 | 27° | 11km/h | 19910m | -11.1m/s | -50.7°C | 0.2% | 58.8hPa | 2.7V | 08:24:37 | 01:27:34 | 00:00:00 | |
| DB0DAN | 2026-09-01 08:05:10 | 52.76282 | 8.15029 | 22° | 13km/h | 19922m | -11.7m/s | -50.8°C | 1% | 58.71hPa | 2.7V | 00:00:00 | 00:00:00 | 00:00:00 | |
| HSKMA3-T | 2026-09-01 08:05:09 | 52.76279 | 8.15027 | 26° | 15km/h | 19934m | -11.6m/s | -50.9°C | 0.2% | 58.6hPa | 2.7V | 08:25:28 | 01:27:32 | 00:00:00 | |
| DF8AY | 2026-09-01 08:05:08 | 52.76275 | 8.15023 | 33° | 18km/h | 19945m | -10.3m/s | -51°C | 0.3% | 58.5hPa | 2.6V | 08:25:28 | 01:27:31 | 00:00:00 | |
| BIOWL1-15 | 2026-09-01 08:05:07 | 52.76271 | 8.15019 | 35° | 22km/h | 19955m | -11.1m/s | -51.1°C | 0.3% | 58.4hPa | 2.6V | 08:25:28 | 01:27:30 | 00:00:00 | |
| AA1-15 | 2026-09-01 08:05:05 | 52.76262 | 8.15006 | 42° | 26km/h | 19977m | -11.6m/s | -51.3°C | 0.3% | 58.2hPa | 2.7V | 08:25:28 | 01:27:28 | 00:00:00 | |
| DO2SHX-10 | 2026-09-01 08:05:05 | 52.76262 | 8.15006 | 43° | 26km/h | 19977m | -11.6m/s | -51.3°C | 3.6% | 58.2hPa | 2.7V | 00:00:00 | 01:27:28 | 00:00:00 | |
| DM0DOS-11 | 2026-09-01 08:05:04 | 52.76237 | 8.14964 | 53° | 22km/h | 20043m | -11.8m/s | -51.8°C | 3.8% | 57.6hPa | 2.7V | 08:24:48 | 01:27:22 | 00:00:00 | |
| EDDB2-12 | 2026-09-01 08:05:03 | 52.76253 | 8.14992 | 45° | 24km/h | 19999m | -11.5m/s | -51.5°C | 1.0% | 58.0hPa | 2.6V | 00:00:00 | 00:00:00 | 00:00:00 | |
| DL1XH1-15 | 2026-09-01 08:05:02 | 52.76232 | 8.14950 | 61° | 18km/h | 20065m | -11.2m/s | -51.9°C | 3.8% | 57.4hPa | 2.6V | 08:24:50 | 01:27:20 | 00:00:00 | |
| DL1XH-west | 2026-09-01 08:05:01 | 52.76244 | 8.14978 | 51° | 22km/h | 20021m | -10.6m/s | -51.7°C | 0.3% | 57.8hPa | 2.6V | 08:25:28 | 01:27:24 | 00:00:00 | |
| DO2JMG | 2026-09-01 08:05:00 | 52.76241 | 8.14971 | 51° | 24km/h | 20032m | -11.7m/s | -51.7°C | 0.4% | 57.7hPa | 2.7V | 08:25:28 | 01:27:23 | 00:00:00 | |
| DO1YAY-16 | 2026-09-01 08:05:00 | 52.76237 | 8.14964 | 53° | 20km/h | 20044m | -11.8m/s | -51.8°C | 1.0% | 57.6hPa | 2.7V | 00:00:00 | 00:00:00 | 00:00:00 | |
| DL1NUX | 2026-09-01 08:04:59 | 52.76226 | 8.14931 | 61° | 18km/h | 20098m | -11.1m/s | -51.9°C | 3.8% | 57.1hPa | 2.7V | 08:24:53 | 01:27:17 | 00:00:00 | |
| HSKMA3-T | 2026-09-01 08:04:58 | 52.76235 | 8.14957 | 58° | 20km/h | 20054m | -10m/s | -51.9°C | 0.4% | 57.5hPa | 2.7V | 08:25:28 | 01:27:21 | 00:00:00 | |
| DF8AY | 2026-09-01 08:04:57 | 52.76232 | 8.14950 | 61° | 18km/h | 20065m | -11.2m/s | -51.9°C | 0.4% | 57.4hPa | 2.6V | 08:25:28 | 01:27:20 | 00:00:00 | |
| HTAHTA | 2026-09-01 08:04:57 | 52.76226 | 8.14931 | 61° | 16km/h | 20098m | -11.1m/s | -51.9°C | 1.0% | 57.1hPa | 2.6V | 00:00:00 | 00:00:00 | 00:00:00 | |
| DB0DAN | 2026-09-01 08:04:55 | 52.76228 | 8.14937 | 64° | 16km/h | 20086m | -11.5m/s | -51.9°C | 1% | 57.23hPa | 2.6V | 00:00:00 | 00:00:00 | 00:00:00 | |
| AA1-15 | 2026-09-01 08:04:54 | 52.76226 | 8.14931 | 62° | 18km/h | 20098m | -11.1m/s | -51.9°C | 0.3% | 57.1hPa | 2.7V | 08:25:28 | 01:27:17 | 00:00:00 | |
| DO2SHX-10 | 2026-09-01 08:04:53 | 52.76224 | 8.14925 | 62° | 16km/h | 20109m | -11.4m/s | -51.8°C | 3.8% | 57.0hPa | 2.6V | 00:00:00 | 01:27:16 | 00:00:00 | |
| DL1XH1-15 | 2026-09-01 08:04:52 | 52.76214 | 8.14883 | 71° | 20km/h | 20176m | -11.5m/s | -51.7°C | 3.8% | 56.5hPa | 2.6V | 08:25:00 | 01:27:10 | 00:00:00 | |
| DL1XH-west | 2026-09-01 08:04:50 | 52.76218 | 8.14906 | 68° | 18km/h | 20142m | -11.6m/s | -51.9°C | 0.4% | 56.7hPa | 2.7V | 08:25:28 | 01:27:13 | 00:00:00 | |
| DO2SHX-10 | 2026-09-01 08:04:50 | 52.76218 | 8.14906 | 69° | 18km/h | 20142m | -11.6m/s | -51.8°C | 3.8% | 56.7hPa | 2.7V | 08:24:00 | 01:27:13 | 00:00:00 | |
| DL1NUX | 2026-09-01 08:04:49 | 52.76210 | 8.14860 | 74° | 18km/h | 20209m | -10.9m/s | -51.7°C | 3.8% | 56.1hPa | 2.7V | 08:25:03 | 01:27:07 | 00:00:00 | |
| HSKMA3-T | 2026-09-01 08:04:48 | 52.76215 | 8.14891 | 72° | 18km/h | 20164m | -11.2m/s | -51.8°C | 0.4% | 56.5hPa | 2.6V | 08:25:28 | 01:27:11 | 00:00:00 | |
| BIOWL1-15 | 2026-09-01 08:04:47 | 52.76214 | 8.14883 | 72° | 20km/h | 20176m | -11.5m/s | -51.7°C | 0.4% | 56.5hPa | 2.6V | 08:25:28 | 01:27:10 | 00:00:00 | |
| GOEST3-10 | 2026-09-01 08:04:47 | 52.76214 | 8.14883 | 72° | 18km/h | 20176m | -11.4m/s | -51.6°C | 3.8% | 56.4hPa | 2.6V | 00:00:00 | 00:00:00 | 00:00:00 | |
| DN9WHV | 2026-09-01 08:04:46 | 52.76214 | 8.14883 | 73° | 20km/h | 20176m | -11.5m/s | -51.7°C | 1.0% | 56.5hPa | 2.7V | 08:25:00 | 00:00:00 | 00:00:00 | |
| DM0DOS-11 | 2026-09-01 08:04:44 | 52.76205 | 8.14826 | 77° | 18km/h | 20264m | -11.3m/s | -51.8°C | 3.8% | 55.7hPa | 2.7V | 08:25:08 | 01:27:02 | 00:00:00 | |
| AA1-15 | 2026-09-01 08:04:44 | 52.76210 | 8.14860 | 75° | 18km/h | 20209m | -10.9m/s | -51.7°C | 0.4% | 56.1hPa | 2.7V | 08:25:28 | 01:27:07 | 00:00:00 | |
| DO2SHX-10 | 2026-09-01 08:04:44 | 52.76210 | 8.14860 | 75° | 18km/h | 20209m | -10.9m/s | -51.6°C | 3.8% | 56.1hPa | 2.6V | 00:00:00 | 01:27:07 | 00:00:00 | |
| DL1XH1-15 | 2026-09-01 08:04:42 | 52.76202 | 8.14812 | 73° | 16km/h | 20287m | -11.9m/s | -51.9°C | 3.9% | 55.5hPa | 2.6V | 08:25:10 | 01:27:00 | 00:00:00 | |
| GOEST3-10 | 2026-09-01 08:04:42 | 52.76208 | 8.14846 | 75° | 16km/h | 20231m | -10.8m/s | -51.7°C | 3.8% | 55.9hPa | 2.6V | 00:00:00 | 01:27:05 | 00:00:00 | |
| DN9WHV | 2026-09-01 08:04:41 | 52.76208 | 8.14846 | 76° | 18km/h | 20231m | -10.9m/s | -51.8°C | 1.0% | 55.9hPa | 2.6V | 08:25:00 | 00:00:00 | 00:00:00 | |
| DB0DAN | 2026-09-01 08:04:40 | 52.76206 | 8.14832 | 76° | 15km/h | 20253m | -11m/s | -51.8°C | 1% | 55.77hPa | 2.6V | 00:00:00 | 00:00:00 | 00:00:00 | |
| DO2JMG | 2026-09-01 08:04:40 | 52.76206 | 8.14832 | 76° | 15km/h | 20253m | -11m/s | -51.8°C | 0.4% | 55.8hPa | 2.6V | 08:25:28 | 01:27:03 | 00:00:00 | |
| DL1XH-west | 2026-09-01 08:04:39 | 52.76205 | 8.14826 | 77° | 18km/h | 20264m | -11.3m/s | -51.8°C | 0.4% | 55.7hPa | 2.7V | 08:25:28 | 01:27:02 | 00:00:00 | |
| HSKMA3-T | 2026-09-01 08:04:37 | 52.76202 | 8.14812 | 74° | 16km/h | 20287m | -11.9m/s | -51.9°C | 0.4% | 55.5hPa | 2.6V | 08:25:28 | 01:27:00 | 00:00:00 | |
| BIOWL1-15 | 2026-09-01 08:04:37 | 52.76200 | 8.14796 | 74° | 20km/h | 20312m | -11.8m/s | -52°C | 0.4% | 55.3hPa | 2.7V | 08:25:28 | 01:26:58 | 00:00:00 | |
| DO2SHX-10 | 2026-09-01 08:04:35 | 52.76200 | 8.14796 | 74° | 20km/h | 20313m | -11.8m/s | -52.0°C | 3.9% | 55.2hPa | 2.7V | 00:00:00 | 01:26:58 | 00:00:00 | |
| DM0DOS-11 | 2026-09-01 08:04:34 | 52.76200 | 8.14736 | 100° | 31km/h | 20380m | -11.1m/s | -52.2°C | 3.9% | 54.7hPa | 2.7V | 08:25:18 | 01:26:52 | 00:00:00 | |
| AA1-15 | 2026-09-01 08:04:33 | 52.76199 | 8.14780 | 87° | 22km/h | 20335m | -10.6m/s | -52.2°C | 0.5% | 55.1hPa | 2.6V | 08:25:28 | 01:26:56 | 00:00:00 | |
| DO2SHX-10 | 2026-09-01 08:04:32 | 52.76198 | 8.14770 | 89° | 26km/h | 20346m | -11.1m/s | -52.2°C | 4.0% | 54.9hPa | 2.6V | 00:00:00 | 01:26:55 | 00:00:00 | |
| DL1XH-15 | 2026-09-01 08:04:31 | 52.76204 | 8.14698 | 98° | 33km/h | 20412m | -10.6m/s | -52.1°C | 3.9% | 54.4hPa | 2.6V | 08:25:21 | 01:26:49 | 00:00:00 | |
| DO2JMG | 2026-09-01 08:04:30 | 52.76199 | 8.14748 | 98° | 27km/h | 20369m | -10.9m/s | -52.2°C | 0.5% | 54.8hPa | 2.7V | 08:25:28 | 01:26:53 | 00:00:00 | |
| DL1NUX | 2026-09-01 08:04:29 | 52.76207 | 8.14673 | 100° | 31km/h | 20435m | -11.5m/s | -52.2°C | 4% | 54.2hPa | 2.7V | 08:25:23 | 01:26:47 | 00:00:00 | |
| DL1XH-west | 2026-09-01 08:04:29 | 52.76200 | 8.14736 | 100° | 31km/h | 20380m | -11.1m/s | -52.2°C | 0.4% | 54.7hPa | 2.7V | 08:25:28 | 01:26:52 | 00:00:00 | |
| HSKMA3-T | 2026-09-01 08:04:27 | 52.76203 | 8.14711 | 105° | 31km/h | 20402m | -10.7m/s | -52.1°C | 0.4% | 54.5hPa | 2.6V | 08:25:28 | 01:26:50 | 00:00:00 | |
| BIOWL1-15 | 2026-09-01 08:04:26 | 52.76207 | 8.14673 | 100° | 31km/h | 20435m | -11.5m/s | -52.2°C | 0.5% | 54.2hPa | 2.7V | 08:25:28 | 01:26:47 | 00:00:00 | |
| AA1-15 | 2026-09-01 08:04:22 | 52.76209 | 8.14648 | 96° | 27km/h | 20457m | -11.2m/s | -52.2°C | 0.5% | 54hPa | 2.6V | 08:25:28 | 01:26:45 | 00:00:00 | |
| DO2JMG | 2026-09-01 08:04:20 | 52.76211 | 8.14626 | 100° | 26km/h | 20480m | -11.4m/s | -51.9°C | 0.4% | 53.9hPa | 2.6V | 08:25:28 | 01:26:43 | 00:00:00 | |
| DO2SHX-10 | 2026-09-01 08:04:20 | 52.76211 | 8.14626 | 100° | 26km/h | 20480m | -11.3m/s | -51.9°C | 3.9% | 53.8hPa | 2.7V | 00:00:00 | 01:26:43 | 00:00:00 | |
| DD8BA-10 | 2026-09-01 08:04:19 | 52.76212 | 8.14616 | 108° | 20km/h | 20492m | -11.7m/s | -51.9°C | 3.9% | 53.7hPa | 2.7V | 08:25:00 | 00:00:00 | 00:00:00 | |
| DM0DOS-11 | 2026-09-01 08:04:18 | 52.76216 | 8.14597 | 111° | 22km/h | 20513m | -9.7m/s | -52°C | 3.9% | 53.5hPa | 2.7V | 08:25:30 | 01:26:40 | 00:00:00 | |
| DL1XH-west | 2026-09-01 08:04:18 | 52.76214 | 8.14606 | 109° | 26km/h | 20503m | -10.7m/s | -52°C | 0.5% | 53.6hPa | 2.7V | 08:26:19 | 01:26:41 | 00:00:00 | |
| HSKMA3-T | 2026-09-01 08:04:16 | 52.76218 | 8.14588 | 117° | 22km/h | 20522m | -9.5m/s | -51.9°C | 0.5% | 53.5hPa | 2.6V | 08:26:19 | 01:26:39 | 00:00:00 | |
| BIOWL1-15 | 2026-09-01 08:04:15 | 52.76221 | 8.14580 | 119° | 22km/h | 20532m | -9.7m/s | -51.9°C | 0.4% | 53.4hPa | 2.6V | 08:26:19 | 01:26:38 | 00:00:00 | |
| DO2SHX-10 | 2026-09-01 08:04:14 | 52.76223 | 8.14573 | 127° | 18km/h | 20543m | -10.6m/s | -51.8°C | 3.8% | 53.3hPa | 2.6V | 00:00:00 | 01:26:37 | 00:00:00 | |
| D01LWL | 2026-09-01 08:04:13 | 52.76229 | 8.14560 | 122° | 18km/h | 20565m | -11.3m/s | -51.7°C | 1.0% | 53.1hPa | 2.6V | 00:00:00 | 00:00:00 | 00:00:00 | |
| DL3AQ-11 | 2026-09-01 08:04:12 | 52.76231 | 8.14554 | 118° | 15km/h | 20576m | -11.7m/s | -51.6°C | 1.0% | 53.0hPa | 2.6V | 00:00:00 | 00:00:00 | 00:00:00 | |
| DL1XH-15 | 2026-09-01 08:04:11 | 52.76237 | 8.14527 | 101° | 9km/h | 20635m | -12.2m/s | -51.3°C | 3.7% | 52.6hPa | 2.6V | 08:25:41 | 01:26:29 | 00:00:00 | |
| AA1-15 | 2026-09-01 08:04:11 | 52.76231 | 8.14554 | 119° | 15km/h | 20576m | -11.7m/s | -51.6°C | 0.3% | 53hPa | 2.6V | 08:26:19 | 01:26:34 | 00:00:00 | |
| DB0DAN | 2026-09-01 08:04:10 | 52.76233 | 8.14548 | 122° | 16km/h | 20588m | -11.6m/s | -51.5°C | 1% | 52.95hPa | 2.6V | 00:00:00 | 00:00:00 | 00:00:00 | |
| DO2JMG | 2026-09-01 08:04:09 | 52.76234 | 8.14542 | 113° | 15km/h | 20599m | -11.2m/s | -51.5°C | 0.3% | 52.9hPa | 2.7V | 08:26:19 | 01:26:32 | 00:00:00 | |
| DL1XH-west | 2026-09-01 08:04:07 | 52.76237 | 8.14531 | 105° | 13km/h | 20623m | -12.4m/s | -51.4°C | 0.3% | 52.7hPa | 2.6V | 08:26:19 | 01:26:30 | 00:00:00 | |
| HSKMA3-T | 2026-09-01 08:04:06 | 52.76237 | 8.14527 | 101° | 9km/h | 20635m | -12.2m/s | -51.3°C | 0.3% | 52.6hPa | 2.6V | 08:26:19 | 01:26:29 | 00:00:00 | |
| DF8AY | 2026-09-01 08:04:05 | 52.76238 | 8.14523 | 117° | 9km/h | 20647m | -10.9m/s | -51.4°C | 0.3% | 52.5hPa | 2.6V | 08:26:19 | 01:26:28 | 00:00:00 | |
| BIOWL1-15 | 2026-09-01 08:04:04 | 52.76239 | 8.14520 | 105° | 5km/h | 20657m | -10.3m/s | -51.4°C | 0.3% | 52.4hPa | 2.7V | 08:26:19 | 01:26:27 | 00:00:00 | |
| DN9WHV | 2026-09-01 08:04:03 | 52.76238 | 8.14520 | 106° | 5km/h | 20658m | -10.3m/s | -51.4°C | 1.0% | 52.4hPa | 2.6V | 08:26:00 | 00:00:00 | 00:00:00 | |
| DO2SHX-10 | 2026-09-01 08:04:02 | 52.76238 | 8.14517 | 49° | 4km/h | 20679m | -10.7m/s | -51.5°C | 3.7% | 52.2hPa | 2.6V | 00:00:00 | 01:26:25 | 00:00:00 | |
| DL1XH-15 | 2026-09-01 08:04:01 | 52.76231 | 8.14511 | 32° | 9km/h | 20747m | -11.5m/s | -51.8°C | 3.8% | 51.6hPa | 2.6V | 08:25:51 | 01:26:19 | 00:00:00 | |
| AA1-15 | 2026-09-01 08:04:00 | 52.76237 | 8.14516 | 41° | 5km/h | 20700m | -11.3m/s | -51.6°C | 0.3% | 52hPa | 2.6V | 08:26:19 | 01:26:23 | 00:00:00 | |
| DO2JMG | 2026-09-01 08:03:58 | 52.76234 | 8.14515 | 20° | 7km/h | 20724m | -11.8m/s | -51.7°C | 0.4% | 51.8hPa | 2.7V | 08:26:19 | 01:26:21 | 00:00:00 | |
| DM0DOS-11 | 2026-09-01 08:03:58 | 52.76233 | 8.14513 | 32° | 7km/h | 20736m | -11.5m/s | -51.7°C | 3.7% | 51.8hPa | 2.7V | 08:25:50 | 01:26:20 | 00:00:00 | |
| DL1XH-west | 2026-09-01 08:03:56 | 52.76231 | 8.14512 | 33° | 9km/h | 20747m | -11.5m/s | -51.8°C | 0.4% | 51.7hPa | 2.6V | 08:26:19 | 01:26:19 | 00:00:00 | |
| DB0DAN | 2026-09-01 08:03:55 | 52.76229 | 8.14509 | 45° | 11km/h | 20758m | -11.2m/s | -51.9°C | 1% | 51.56hPa | 2.6V | 00:00:00 | 00:00:00 | 00:00:00 | |
| HSKMA3-T | 2026-09-01 08:03:55 | 52.76229 | 8.14509 | 45° | 11km/h | 20758m | -11.2m/s | -51.9°C | 0.4% | 51.6hPa | 2.6V | 08:26:19 | 01:26:18 | 00:00:00 | |
| DF8AY | 2026-09-01 08:03:54 | 52.76227 | 8.14506 | 38° | 11km/h | 20769m | -11m/s | -52°C | 0.4% | 51.5hPa | 2.7V | 08:26:19 | 01:26:17 | 00:00:00 | |
| DC6BW-12 | 2026-09-01 08:03:54 | 52.76227 | 8.14506 | 39° | 11km/h | 20769m | -11.0m/s | -52.0°C | 1.1% | 51.5hPa | 2.6V | 08:26:00 | 00:00:00 | 00:00:00 | |
| BIOWL1-15 | 2026-09-01 08:03:54 | 52.76220 | 8.14498 | 30° | 9km/h | 20809m | -12.5m/s | -52.3°C | 0.5% | 51.2hPa | 2.6V | 08:26:19 | 01:26:14 | 00:00:00 | |
| DL3OBA | 2026-09-01 08:03:53 | 52.76227 | 8.14506 | 39° | 11km/h | 20769m | -11.0m/s | -52.0°C | 1.0% | 51.5hPa | 2.6V | 08:26:00 | 00:00:00 | 00:00:00 | |
| GOEST3-10 | 2026-09-01 08:03:52 | 52.76222 | 8.14500 | 33° | 9km/h | 20795m | -15.6m/s | -52.1°C | 3.9% | 51.3hPa | 2.6V | 00:00:00 | 01:26:15 | 00:00:00 | |
| DL1XH-15 | 2026-09-01 08:03:51 | 52.76211 | 8.14493 | 44° | 5km/h | 20870m | -11.9m/s | -52.4°C | 4% | 50.7hPa | 2.6V | 08:26:01 | 01:26:09 | 00:00:00 | |
| AA1-15 | 2026-09-01 08:03:49 | 52.76215 | 8.14496 | 19° | 7km/h | 20834m | -11.6m/s | -52.4°C | 0.5% | 51hPa | 2.7V | 08:26:19 | 01:26:12 | 00:00:00 | |
| DO2JMG | 2026-09-01 08:03:48 | 52.76214 | 8.14495 | 10° | 7km/h | 20846m | -11.8m/s | -52.5°C | 0.5% | 50.9hPa | 2.7V | 08:26:19 | 01:26:11 | 00:00:00 | |
| DL1XH-west | 2026-09-01 08:03:46 | 52.76211 | 8.14493 | 44° | 5km/h | 20870m | -11.9m/s | -52.4°C | 0.5% | 50.7hPa | 2.6V | 08:26:19 | 01:26:09 | 00:00:00 | |
| HSKMA3-T | 2026-09-01 08:03:45 | 52.76211 | 8.14491 | 82° | 7km/h | 20882m | -11.8m/s | -52.4°C | 0.5% | 50.6hPa | 2.6V | 08:26:19 | 01:26:08 | 00:00:00 | |
| DL1NUX | 2026-09-01 08:03:44 | 52.76211 | 8.14487 | 100° | 9km/h | 20893m | -11.6m/s | -52.4°C | 4% | 50.5hPa | 2.6V | 08:26:03 | 01:26:07 | 00:00:00 | |
| DF8AY | 2026-09-01 08:03:43 | 52.76211 | 8.14484 | 90° | 9km/h | 20905m | -12.3m/s | -52.4°C | 0.5% | 50.4hPa | 2.7V | 08:26:19 | 01:26:06 | 00:00:00 | |
| BIOWL1-15 | 2026-09-01 08:03:42 | 52.76211 | 8.14479 | 93° | 11km/h | 20917m | -12.2m/s | -52.3°C | 0.5% | 50.3hPa | 2.7V | 08:26:19 | 01:26:05 | 00:00:00 | |
| D01LWL | 2026-09-01 08:03:42 | 52.76211 | 8.14474 | 84° | 13km/h | 20929m | -11.4m/s | -52.3°C | 1.1% | 50.2hPa | 2.6V | 00:00:00 | 00:00:00 | 00:00:00 | |
| DL1XH-15 | 2026-09-01 08:03:41 | 52.76207 | 8.14454 | 57° | 13km/h | 20988m | -11.4m/s | -52.5°C | 4% | 49.8hPa | 2.6V | 08:26:11 | 01:25:59 | 00:00:00 | |
| DB0DAN | 2026-09-01 08:03:40 | 52.76211 | 8.14469 | 93° | 9km/h | 20941m | -11.6m/s | -52.3°C | 1% | 50.12hPa | 2.6V | 00:00:00 | 00:00:00 | 00:00:00 | |
| DJ2KF-10 | 2026-09-01 08:03:40 | 52.76211 | 8.14469 | 93° | 13km/h | 20941m | -11.5m/s | -52.3°C | 4.0% | 50.1hPa | 2.7V | 00:00:00 | 01:26:03 | 00:00:00 | |
| DL1NUX | 2026-09-01 08:03:39 | 52.76205 | 8.14445 | 73° | 11km/h | 21011m | -11.6m/s | -52.5°C | 4% | 49.6hPa | 2.7V | 08:26:13 | 01:25:57 | 00:00:00 | |
| AA1-15 | 2026-09-01 08:03:38 | 52.76210 | 8.14461 | 56° | 9km/h | 20964m | -11.5m/s | -52.5°C | 0.5% | 50hPa | 2.7V | 08:26:19 | 01:26:01 | 00:00:00 | |
| DO2JMG | 2026-09-01 08:03:37 | 52.76209 | 8.14457 | 61° | 9km/h | 20976m | -11.8m/s | -52.5°C | 0.5% | 49.9hPa | 2.6V | 08:26:19 | 01:26:00 | 00:00:00 | |
| DL1XH-west | 2026-09-01 08:03:36 | 52.76207 | 8.14453 | 57° | 13km/h | 20988m | -11.4m/s | -52.5°C | 0.5% | 49.8hPa | 2.6V | 08:26:19 | 01:25:59 | 00:00:00 | |
| HSKMA3-T | 2026-09-01 08:03:34 | 52.76205 | 8.14445 | 74° | 11km/h | 21011m | -11.6m/s | -52.5°C | 0.5% | 49.6hPa | 2.7V | 08:26:19 | 01:25:57 | 00:00:00 | |
| DF8AY | 2026-09-01 08:03:33 | 52.76204 | 8.14441 | 79° | 9km/h | 21023m | -12m/s | -52.5°C | 0.5% | 49.5hPa | 2.7V | 08:26:19 | 01:25:56 | 00:00:00 | |
| GOEST3-10 | 2026-09-01 08:03:32 | 52.76204 | 8.14436 | 85° | 15km/h | 21035m | -12.3m/s | -52.4°C | 4.1% | 49.3hPa | 2.7V | 08:26:00 | 01:25:55 | 00:00:00 | |
| DL1XH-15 | 2026-09-01 08:03:31 | 52.76207 | 8.14396 | 114° | 18km/h | 21106m | -12.3m/s | -52.1°C | 4% | 48.8hPa | 2.6V | 08:26:21 | 01:25:49 | 00:00:00 | |
| BIOWL1-15 | 2026-09-01 08:03:31 | 52.76204 | 8.14431 | 85° | 13km/h | 21047m | -12.8m/s | -52.4°C | 0.6% | 49.3hPa | 2.6V | 08:26:19 | 01:25:54 | 00:00:00 | |
| DO2SHX-10 | 2026-09-01 08:03:31 | 52.76203 | 8.14431 | 85° | 15km/h | 21047m | -12.8m/s | -52.4°C | 4.1% | 49.3hPa | 2.6V | 00:00:00 | 01:25:54 | 00:00:00 | |
| EDDB2-12 | 2026-09-01 08:03:30 | 52.76204 | 8.14425 | 91° | 15km/h | 21060m | -12.5m/s | -52.4°C | 1.1% | 49.2hPa | 2.7V | 00:00:00 | 00:00:00 | 00:00:00 | |
| DL1NUX | 2026-09-01 08:03:29 | 52.76212 | 8.14383 | 124° | 16km/h | 21130m | -12.6m/s | -51.9°C | 3.9% | 48.7hPa | 2.7V | 08:26:23 | 01:25:47 | 00:00:00 | |
| AA1-15 | 2026-09-01 08:03:27 | 52.76206 | 8.14403 | 107° | 18km/h | 21094m | -12.6m/s | -52.2°C | 0.5% | 48.9hPa | 2.7V | 08:27:10 | 01:25:50 | 00:00:00 | |
| DL1XH-west | 2026-09-01 08:03:25 | 52.76209 | 8.14389 | 116° | 18km/h | 21118m | -11.5m/s | -52°C | 0.5% | 48.7hPa | 2.6V | 08:27:10 | 01:25:48 | 00:00:00 | |
| HSKMA3-T | 2026-09-01 08:03:24 | 52.76211 | 8.14383 | 125° | 16km/h | 21130m | -12.6m/s | -51.9°C | 0.5% | 48.7hPa | 2.7V | 08:27:10 | 01:25:47 | 00:00:00 | |
| DF8AY | 2026-09-01 08:03:23 | 52.76214 | 8.14377 | 119° | 16km/h | 21142m | -12.5m/s | -51.8°C | 0.5% | 48.5hPa | 2.7V | 08:27:10 | 01:25:46 | 00:00:00 | |
| DO2SHX-10 | 2026-09-01 08:03:22 | 52.76216 | 8.14371 | 121° | 13km/h | 21156m | -12.9m/s | -51.7°C | 3.9% | 48.4hPa | 2.6V | 08:26:00 | 01:25:45 | 00:00:00 | |
| DL1XH-15 | 2026-09-01 08:03:21 | 52.76222 | 8.14346 | 102° | 11km/h | 21229m | -11.5m/s | -51.7°C | 3.9% | 47.9hPa | 2.6V | 08:26:31 | 01:25:39 | 00:00:00 | |
| BIOWL1-15 | 2026-09-01 08:03:21 | 52.76217 | 8.14367 | 114° | 15km/h | 21168m | -12.3m/s | -51.7°C | 0.5% | 48.4hPa | 2.6V | 08:27:10 | 01:25:44 | 00:00:00 | |
| DO2JMG | 2026-09-01 08:03:17 | 52.76222 | 8.14350 | 99° | 9km/h | 21217m | -11.8m/s | -51.7°C | 0.5% | 48hPa | 2.7V | 08:27:10 | 01:25:40 | 00:00:00 | |
| BIOWL1-15 | 2026-09-01 08:03:17 | 52.76221 | 8.14328 | 58° | 11km/h | 21286m | -13m/s | -51.4°C | 0.4% | 47.5hPa | 2.6V | 08:27:10 | 01:25:34 | 00:00:00 | |
| AA1-15 | 2026-09-01 08:03:16 | 52.76222 | 8.14346 | 103° | 11km/h | 21229m | -11.5m/s | -51.7°C | 0.5% | 47.9hPa | 2.6V | 08:27:10 | 01:25:39 | 00:00:00 | |
| DL1XH-west | 2026-09-01 08:03:14 | 52.76223 | 8.14339 | 90° | 9km/h | 21253m | -12.6m/s | -51.6°C | 0.4% | 47.7hPa | 2.6V | 08:27:10 | 01:25:37 | 00:00:00 | |
| DF8AY | 2026-09-01 08:03:12 | 52.76222 | 8.14332 | 78° | 11km/h | 21276m | -8.5m/s | -51.5°C | 0.4% | 47.6hPa | 2.7V | 08:27:10 | 01:25:35 | 00:00:00 | |
| GOEST3-10 | 2026-09-01 08:03:12 | 52.76222 | 8.14332 | 78° | 11km/h | 21276m | -8.4m/s | -51.4°C | 3.8% | 47.5hPa | 2.6V | 00:00:00 | 01:25:35 | 00:00:00 | |
| D01LWL | 2026-09-01 08:03:11 | 52.76219 | 8.14324 | 59° | 11km/h | 21299m | -13.1m/s | -51.4°C | 1.0% | 47.4hPa | 2.6V | 00:00:00 | 00:00:00 | 00:00:00 | |
| DJ2KF-10 | 2026-09-01 08:03:10 | 52.76219 | 8.14323 | 60° | 11km/h | 21300m | -13.1m/s | -51.3°C | 3.8% | 47.4hPa | 2.6V | 00:00:00 | 01:25:33 | 00:00:00 | |
| DD8BA-10 | 2026-09-01 08:03:09 | 52.76218 | 8.14319 | 55° | 9km/h | 21313m | -13.3m/s | -51.4°C | 3.8% | 47.3hPa | 2.6V | 00:00:00 | 00:00:00 | 00:00:00 | |
| DM0DOS-11 | 2026-09-01 08:03:08 | 52.76213 | 8.14313 | 41° | 11km/h | 21339m | -12.8m/s | -51.5°C | 3.9% | 47.1hPa | 2.6V | 08:26:40 | 01:25:30 | 00:00:00 | |
| AA1-15 | 2026-09-01 08:03:06 | 52.76212 | 8.14310 | 45° | 9km/h | 21352m | -12.1m/s | -51.6°C | 0.4% | 47hPa | 2.6V | 08:27:10 | 01:25:29 | 00:00:00 | |
| DL1XH-west | 2026-09-01 08:03:04 | 52.76207 | 8.14307 | 30° | 9km/h | 21376m | -12.1m/s | -51.5°C | 0.4% | 46.8hPa | 2.7V | 08:27:10 | 01:25:27 | 00:00:00 | |
| HSKMA3-T | 2026-09-01 08:03:03 | 52.76206 | 8.14305 | 19° | 7km/h | 21387m | -11.2m/s | -51.4°C | 0.4% | 46.7hPa | 2.7V | 08:27:10 | 01:25:26 | 00:00:00 | |
| DF8AY | 2026-09-01 08:03:01 | 52.76203 | 8.14303 | 23° | 7km/h | 21412m | -12.8m/s | -51.2°C | 0.4% | 46.6hPa | 2.6V | 08:27:10 | 01:25:24 | 00:00:00 | |
| BIOWL1-15 | 2026-09-01 08:03:00 | 52.76197 | 8.14302 | 347° | 9km/h | 21449m | -12.7m/s | -50.9°C | 0.3% | 46.3hPa | 2.7V | 08:27:10 | 01:25:21 | 00:00:00 | |
| DO2SHX-10 | 2026-09-01 08:03:00 | 52.76201 | 8.14302 | 21° | 9km/h | 21425m | -12.7m/s | -51.1°C | 3.7% | 46.4hPa | 2.6V | 00:00:00 | 01:25:23 | 00:00:00 | |
| DL1NUX | 2026-09-01 08:02:59 | 52.76185 | 8.14319 | 311° | 20km/h | 21498m | -12m/s | -50.9°C | 3.6% | 46hPa | 2.6V | 08:26:53 | 01:25:17 | 00:00:00 | |
| DO2JMG | 2026-09-01 08:02:56 | 52.76192 | 8.14308 | 320° | 15km/h | 21474m | -12.1m/s | -50.9°C | 0.3% | 46.1hPa | 2.6V | 08:27:10 | 01:25:19 | 00:00:00 | |
| AA1-15 | 2026-09-01 08:02:55 | 52.76188 | 8.14312 | 314° | 18km/h | 21486m | -11.7m/s | -50.9°C | 0.3% | 46hPa | 2.6V | 08:27:10 | 01:25:18 | 00:00:00 | |
| DL1XH-west | 2026-09-01 08:02:53 | 52.76182 | 8.14325 | 314° | 24km/h | 21510m | -12.1m/s | -51°C | 0.2% | 45.9hPa | 2.7V | 08:27:10 | 01:25:16 | 00:00:00 | |
| HSKMA3-T | 2026-09-01 08:02:52 | 52.76178 | 8.14332 | 318° | 22km/h | 21521m | -11.3m/s | -51.1°C | 0.3% | 45.8hPa | 2.7V | 08:27:10 | 01:25:15 | 00:00:00 | |
| GOEST3-10 | 2026-09-01 08:02:52 | 52.76178 | 8.14332 | 319° | 16km/h | 21522m | -11.3m/s | -51.0°C | 3.6% | 45.7hPa | 2.7V | 00:00:00 | 01:25:15 | 00:00:00 | |
| DL1XH-15 | 2026-09-01 08:02:51 | 52.76160 | 8.14351 | 354° | 9km/h | 21597m | -13m/s | -51.5°C | 3.8% | 45.3hPa | 2.7V | 08:27:01 | 01:25:09 | 00:00:00 | |
| DF8AY | 2026-09-01 08:02:50 | 52.76171 | 8.14343 | 324° | 16km/h | 21546m | -13m/s | -51.3°C | 0.3% | 45.6hPa | 2.6V | 08:27:10 | 01:25:13 | 00:00:00 | |
| DL1NUX | 2026-09-01 08:02:49 | 52.76156 | 8.14352 | 359° | 7km/h | 21622m | -13m/s | -51.6°C | 3.8% | 45.1hPa | 2.6V | 08:27:03 | 01:25:07 | 00:00:00 | |
| BIOWL1-15 | 2026-09-01 08:02:48 | 52.76165 | 8.14348 | 344° | 11km/h | 21571m | -13.2m/s | -51.4°C | 0.3% | 45.4hPa | 2.6V | 08:27:10 | 01:25:11 | 00:00:00 | |
| AA1-15 | 2026-09-01 08:02:45 | 52.76158 | 8.14351 | 354° | 7km/h | 21610m | -12.3m/s | -51.6°C | 0.4% | 45.2hPa | 2.7V | 08:27:10 | 01:25:08 | 00:00:00 | |
| DL1XH-west | 2026-09-01 08:02:43 | 52.76155 | 8.14352 | 349° | 7km/h | 21636m | -12.8m/s | -51.7°C | 0.4% | 45hPa | 2.6V | 08:27:10 | 01:25:06 | 00:00:00 | |
| DO2SHX-10 | 2026-09-01 08:02:43 | 52.76155 | 8.14352 | 349° | 7km/h | 21636m | -12.7m/s | -51.6°C | 3.8% | 45.0hPa | 2.6V | 08:27:00 | 01:25:06 | 00:00:00 | |
| GOEST3-10 | 2026-09-01 08:02:42 | 52.76153 | 8.14353 | 342° | 11km/h | 21648m | -11.8m/s | -51.7°C | 3.8% | 44.9hPa | 2.7V | 00:00:00 | 01:25:05 | 00:00:00 | |
| DL1XH-15 | 2026-09-01 08:02:41 | 52.76136 | 8.14362 | 352° | 16km/h | 21726m | -12.5m/s | -52°C | 3.8% | 44.4hPa | 2.7V | 08:27:11 | 01:24:59 | 00:00:00 | |
| DF8AY | 2026-09-01 08:02:41 | 52.76149 | 8.14357 | 341° | 11km/h | 21674m | -12.8m/s | -51.9°C | 0.4% | 44.7hPa | 2.7V | 08:27:10 | 01:25:03 | 00:00:00 | |
| HSKMA3-T | 2026-09-01 08:02:41 | 52.76151 | 8.14355 | 333° | 9km/h | 21661m | -13.3m/s | -51.8°C | 0.4% | 44.8hPa | 2.7V | 08:27:10 | 01:25:04 | 00:00:00 | |
| DO2SHX-10 | 2026-09-01 08:02:40 | 52.76149 | 8.14357 | 341° | 11km/h | 21674m | -12.8m/s | -51.9°C | 3.8% | 44.7hPa | 2.7V | 00:00:00 | 01:25:03 | 00:00:00 | |
| DL1NUX | 2026-09-01 08:02:39 | 52.76128 | 8.14362 | 4° | 16km/h | 21751m | -12.7m/s | -52°C | 3.9% | 44.2hPa | 2.7V | 08:27:13 | 01:24:57 | 00:00:00 | |
| BIOWL1-15 | 2026-09-01 08:02:38 | 52.76136 | 8.14362 | 353° | 16km/h | 21726m | -12.5m/s | -52°C | 0.4% | 44.4hPa | 2.7V | 08:28:01 | 01:24:59 | 00:00:00 | |
| DO2JMG | 2026-09-01 08:02:35 | 52.76132 | 8.14363 | 1° | 16km/h | 21738m | -12.5m/s | -52°C | 0.4% | 44.3hPa | 2.7V | 08:28:01 | 01:24:58 | 00:00:00 | |
| AA1-15 | 2026-09-01 08:02:34 | 52.76128 | 8.14362 | 4° | 16km/h | 21751m | -12.7m/s | -52°C | 0.4% | 44.2hPa | 2.7V | 08:28:01 | 01:24:57 | 00:00:00 | |
| DL1XH-west | 2026-09-01 08:02:33 | 52.76124 | 8.14362 | 11° | 16km/h | 21763m | -12.6m/s | -52°C | 0.4% | 44.1hPa | 2.6V | 08:28:01 | 01:24:56 | 00:00:00 | |
| HSKMA3-T | 2026-09-01 08:02:31 | 52.76116 | 8.14359 | 16° | 18km/h | 21788m | -12.4m/s | -51.8°C | 0.4% | 43.9hPa | 2.6V | 08:28:01 | 01:24:54 | 00:00:00 | |
| DO2SHX-10 | 2026-09-01 08:02:31 | 52.76116 | 8.14359 | 17° | 18km/h | 21788m | -12.3m/s | -51.8°C | 3.8% | 43.9hPa | 2.6V | 00:00:00 | 01:24:54 | 00:00:00 | |
| DN9WHV | 2026-09-01 08:02:30 | 52.76112 | 8.14357 | 16° | 16km/h | 21800m | -11.9m/s | -51.8°C | 1.0% | 43.8hPa | 2.6V | 00:00:00 | 00:00:00 | 00:00:00 | |
| DF4FW | 2026-09-01 08:02:29 | 52.76112 | 8.14357 | 16° | 16km/h | 21800m | -11.9m/s | -51.8°C | 1.0% | 43.8hPa | 2.6V | 00:00:00 | 00:00:00 | 00:00:00 | |
| DF8AY | 2026-09-01 08:02:29 | 52.76107 | 8.14355 | 17° | 20km/h | 21812m | -14m/s | -51.7°C | 0.4% | 43.8hPa | 2.7V | 08:28:01 | 01:24:52 | 00:00:00 | |
| DM0DOS-11 | 2026-09-01 08:02:28 | 52.76097 | 8.14351 | 13° | 24km/h | 21839m | -12.4m/s | -51.8°C | 3.8% | 43.6hPa | 2.6V | 08:27:20 | 01:24:50 | 00:00:00 | |
| BIOWL1-15 | 2026-09-01 08:02:27 | 52.76091 | 8.14348 | 13° | 26km/h | 21852m | -12.5m/s | -51.8°C | 0.4% | 43.5hPa | 2.6V | 08:28:01 | 01:24:49 | 00:00:00 | |
| DO2JMG | 2026-09-01 08:02:24 | 52.76078 | 8.14341 | 17° | 29km/h | 21877m | -12.7m/s | -51.9°C | 0.4% | 43.3hPa | 2.7V | 08:28:01 | 01:24:47 | 00:00:00 | |
| DL1XH-west | 2026-09-01 08:02:23 | 52.76071 | 8.14338 | 18° | 31km/h | 21890m | -12.7m/s | -52°C | 0.5% | 43.3hPa | 2.7V | 08:28:01 | 01:24:46 | 00:00:00 | |
| HSKMA3-T | 2026-09-01 08:02:21 | 52.76056 | 8.14330 | 17° | 31km/h | 21916m | -13.5m/s | -52.1°C | 0.5% | 43.1hPa | 2.6V | 08:28:01 | 01:24:44 | 00:00:00 | |
| DF8AY | 2026-09-01 08:02:20 | 52.76042 | 8.14322 | 21° | 27km/h | 21943m | -13.3m/s | -52.3°C | 0.5% | 42.9hPa | 2.7V | 08:28:01 | 01:24:42 | 00:00:00 | |
| DO2SHX-10 | 2026-09-01 08:02:20 | 52.76049 | 8.14326 | 18° | 27km/h | 21930m | -13.5m/s | -52.2°C | 4.0% | 43.0hPa | 2.7V | 00:00:00 | 01:24:43 | 00:00:00 | |
| DD8BA-10 | 2026-09-01 08:02:19 | 52.76042 | 8.14322 | 22° | 22km/h | 21943m | -13.2m/s | -52.2°C | 4.0% | 42.9hPa | 2.7V | 00:00:00 | 00:00:00 | 00:00:00 | |
| DM0DOS-11 | 2026-09-01 08:02:18 | 52.76031 | 8.14313 | 35° | 22km/h | 21970m | -13m/s | -52.2°C | 4% | 42.7hPa | 2.7V | 08:27:30 | 01:24:40 | 00:00:00 | |
| BIOWL1-15 | 2026-09-01 08:02:17 | 52.76031 | 8.14313 | 36° | 22km/h | 21970m | -13m/s | -52.3°C | 0.5% | 42.7hPa | 2.7V | 08:28:01 | 01:24:40 | 00:00:00 | |
| DO2JMG | 2026-09-01 08:02:14 | 52.76021 | 8.14296 | 63° | 18km/h | 22007m | -13m/s | -52.2°C | 0.5% | 42.5hPa | 2.6V | 08:28:01 | 01:24:37 | 00:00:00 | |
| DL1XH-west | 2026-09-01 08:02:13 | 52.76019 | 8.14289 | 63° | 20km/h | 22020m | -13.4m/s | -52.2°C | 0.5% | 42.4hPa | 2.7V | 08:28:01 | 01:24:36 | 00:00:00 | |
| DN9WHV | 2026-09-01 08:02:13 | 52.76019 | 8.14288 | 64° | 20km/h | 22020m | -13.4m/s | -52.2°C | 1.0% | 42.4hPa | 2.6V | 00:00:00 | 00:00:00 | 00:00:00 | |
| GOEST3-10 | 2026-09-01 08:02:12 | 52.76017 | 8.14281 | 68° | 26km/h | 22033m | -13.1m/s | -52.1°C | 4.1% | 42.3hPa | 2.6V | 00:00:00 | 01:24:35 | 00:00:00 | |
| DC6BW-12 | 2026-09-01 08:02:11 | 52.76017 | 8.14281 | 69° | 22km/h | 22033m | -13.1m/s | -52.1°C | 1.1% | 42.3hPa | 2.6V | 08:28:00 | 00:00:00 | 00:00:00 | |
| DB0DAN | 2026-09-01 08:02:10 | 52.76014 | 8.14262 | 76° | 24km/h | 22060m | -13.4m/s | -52.2°C | 1% | 42.13hPa | 2.6V | 00:00:00 | 00:00:00 | 00:00:00 | |
| HSKMA3-T | 2026-09-01 08:02:10 | 52.76014 | 8.14262 | 76° | 24km/h | 22060m | -13.4m/s | -52.2°C | 0.6% | 42.1hPa | 2.6V | 08:28:01 | 01:24:33 | 00:00:00 | |
| BIOWL1-15 | 2026-09-01 08:02:09 | 52.76011 | 8.14229 | 82° | 27km/h | 22098m | -11.9m/s | -52°C | 0.6% | 41.9hPa | 2.7V | 08:28:01 | 01:24:30 | 00:00:00 | |
| DF8AY | 2026-09-01 08:02:08 | 52.76012 | 8.14240 | 81° | 27km/h | 22086m | -12.4m/s | -52°C | 0.5% | 41.9hPa | 2.6V | 08:28:01 | 01:24:31 | 00:00:00 | |
| DO2JMG | 2026-09-01 08:02:03 | 52.76007 | 8.14185 | 82° | 26km/h | 22150m | -12.6m/s | -51.3°C | 0.3% | 41.5hPa | 2.6V | 08:28:01 | 01:24:26 | 00:00:00 | |
| DL1XH-west | 2026-09-01 08:02:02 | 52.76007 | 8.14175 | 92° | 24km/h | 22164m | -13.7m/s | -51.3°C | 0.3% | 41.4hPa | 2.7V | 08:28:01 | 01:24:25 | 00:00:00 | |
| HSKMA3-T | 2026-09-01 08:02:00 | 52.76009 | 8.14156 | 105° | 20km/h | 22189m | -13.1m/s | -51.2°C | 0.4% | 41.3hPa | 2.7V | 08:28:01 | 01:24:23 | 00:00:00 | |
| DF8AY-15 | 2026-09-01 08:02:00 | 52.76009 | 8.14156 | 106° | 24km/h | 22189m | -13.0m/s | 0°C | 0% | 0hPa | 2.7V | 00:00:00 | 01:24:23 | 00:00:00 | |
| DL1NUX | 2026-09-01 08:01:59 | 52.76030 | 8.14107 | 132° | 26km/h | 22271m | -13.1m/s | -51.1°C | 3.7% | 40.8hPa | 2.7V | 08:27:53 | 01:24:17 | 00:00:00 | |
| DF8AY | 2026-09-01 08:01:58 | 52.76014 | 8.14140 | 124° | 24km/h | 22216m | -17.9m/s | -51.1°C | 0.3% | 41.1hPa | 2.6V | 08:28:01 | 01:24:21 | 00:00:00 | |
| BIOWL1-15 | 2026-09-01 08:01:56 | 52.76021 | 8.14123 | 126° | 24km/h | 22244m | -13m/s | -51.1°C | 0.4% | 40.9hPa | 2.7V | 08:28:01 | 01:24:19 | 00:00:00 | |
| DB0DAN | 2026-09-01 08:01:55 | 52.76025 | 8.14115 | 134° | 26km/h | 22258m | -13.8m/s | -51.1°C | 0.9% | 40.83hPa | 2.7V | 00:00:00 | 00:00:00 | 00:00:00 | |
| DO2JMG | 2026-09-01 08:01:53 | 52.76034 | 8.14099 | 130° | 26km/h | 22285m | -13.8m/s | -51.1°C | 0.3% | 40.7hPa | 2.6V | 08:28:01 | 01:24:16 | 00:00:00 | |
| DL1XH-west | 2026-09-01 08:01:51 | 52.76043 | 8.14085 | 142° | 26km/h | 22314m | -14m/s | -51.1°C | 0.3% | 40.5hPa | 2.6V | 08:28:01 | 01:24:14 | 00:00:00 | |
| HSKMA3-T | 2026-09-01 08:01:50 | 52.76048 | 8.14078 | 140° | 24km/h | 22328m | -15.3m/s | -51.1°C | 0.3% | 40.4hPa | 2.7V | 08:28:01 | 01:24:13 | 00:00:00 | |
| DD8BA-10 | 2026-09-01 08:01:49 | 52.76053 | 8.14073 | 155° | 15km/h | 22343m | -14.1m/s | -51.1°C | 3.7% | 40.3hPa | 2.7V | 00:00:00 | 00:00:00 | 00:00:00 | |
| DM0DOS-11 | 2026-09-01 08:01:48 | 52.76061 | 8.14067 | 162° | 16km/h | 22370m | -13.2m/s | -51.3°C | 3.7% | 40.1hPa | 2.6V | 08:28:00 | 01:24:10 | 00:00:00 | |
| DF8AY | 2026-09-01 08:01:48 | 52.76057 | 8.14070 | 152° | 20km/h | 22357m | -13.5m/s | -51.2°C | 0.3% | 40.2hPa | 2.6V | 08:28:01 | 01:24:11 | 00:00:00 | |
| BIOWL1-15 | 2026-09-01 08:01:45 | 52.76069 | 8.14065 | 178° | 15km/h | 22395m | -12.4m/s | -51.4°C | 0.4% | 40hPa | 2.7V | 08:28:52 | 01:24:08 | 00:00:00 | |
| DO2JMG | 2026-09-01 08:01:42 | 52.76080 | 8.14067 | 180° | 13km/h | 22434m | -13.1m/s | -51.6°C | 0.4% | 39.7hPa | 2.6V | 08:28:52 | 01:24:05 | 00:00:00 | |
| DL1XH-west | 2026-09-01 08:01:41 | 52.76083 | 8.14066 | 181° | 11km/h | 22447m | -13m/s | -51.7°C | 0.4% | 39.6hPa | 2.6V | 08:28:52 | 01:24:04 | 00:00:00 | |
| AA1-15 | 2026-09-01 08:01:40 | 52.76086 | 8.14066 | 184° | 9km/h | 22459m | -13.8m/s | -51.8°C | 0.5% | 39.5hPa | 2.6V | 08:28:52 | 01:24:03 | 00:00:00 | |
| DO2SHX-10 | 2026-09-01 08:01:40 | 52.76086 | 8.14066 | 184° | 9km/h | 22460m | -13.8m/s | -51.7°C | 3.9% | 39.5hPa | 2.6V | 00:00:00 | 01:24:03 | 00:00:00 | |
| DL1NUX | 2026-09-01 08:01:39 | 52.76094 | 8.14070 | 213° | 2km/h | 22543m | -14.5m/s | -51.8°C | 3.9% | 39.1hPa | 2.6V | 08:30:00 | 01:23:57 | 00:00:00 | |
| HSKMA3-T | 2026-09-01 08:01:39 | 52.76088 | 8.14067 | 188° | 7km/h | 22473m | -13.7m/s | -51.8°C | 0.5% | 39.5hPa | 2.7V | 08:28:52 | 01:24:02 | 00:00:00 | |
| DM0DOS-11 | 2026-09-01 08:01:38 | 52.76091 | 8.14068 | 196° | 5km/h | 22501m | -14.2m/s | -51.8°C | 3.9% | 39.3hPa | 2.7V | 08:28:10 | 01:24:00 | 00:00:00 | |
| DF8AY | 2026-09-01 08:01:37 | 52.76092 | 8.14068 | 196° | 5km/h | 22501m | -14.2m/s | -51.8°C | 0.4% | 39.3hPa | 2.7V | 08:28:52 | 01:24:00 | 00:00:00 | |
| BIOWL1-15 | 2026-09-01 08:01:35 | 52.76094 | 8.14069 | 227° | 4km/h | 22529m | -14m/s | -51.8°C | 0.5% | 39.2hPa | 2.6V | 08:28:52 | 01:23:58 | 00:00:00 | |
| DO2JMG | 2026-09-01 08:01:32 | 52.76094 | 8.14072 | 275° | 4km/h | 22572m | -14.1m/s | -51.8°C | 0.5% | 38.9hPa | 2.7V | 08:28:52 | 01:23:55 | 00:00:00 | |
| DL1XH-west | 2026-09-01 08:01:30 | 52.76093 | 8.14074 | 318° | 5km/h | 22599m | -14.3m/s | -51.8°C | 0.5% | 38.7hPa | 2.6V | 08:28:52 | 01:23:53 | 00:00:00 | |
| HSKMA3-T | 2026-09-01 08:01:28 | 52.76091 | 8.14077 | 324° | 7km/h | 22628m | -14.5m/s | -51.9°C | 0.5% | 38.5hPa | 2.7V | 08:28:52 | 01:23:51 | 00:00:00 | |
| DF8AY | 2026-09-01 08:01:26 | 52.76088 | 8.14078 | 349° | 5km/h | 22656m | -13.9m/s | -51.9°C | 0.5% | 38.4hPa | 2.6V | 08:28:52 | 01:23:49 | 00:00:00 | |
| DB0DAN | 2026-09-01 08:01:25 | 52.76087 | 8.14078 | 21° | 5km/h | 22670m | -14.3m/s | -51.8°C | 1% | 38.31hPa | 2.6V | 00:00:00 | 00:00:00 | 00:00:00 | |
| BIOWL1-15 | 2026-09-01 08:01:24 | 52.76085 | 8.14076 | 28° | 9km/h | 22684m | -15.8m/s | -51.8°C | 0.5% | 38.2hPa | 2.7V | 08:28:52 | 01:23:47 | 00:00:00 | |
| DO2JMG | 2026-09-01 08:01:22 | 52.76081 | 8.14070 | 49° | 11km/h | 22713m | -14.1m/s | -51.7°C | 0.5% | 38hPa | 2.7V | 08:28:52 | 01:23:45 | 00:00:00 | |
| DL1XH-west | 2026-09-01 08:01:20 | 52.76077 | 8.14062 | 48° | 16km/h | 22742m | -14m/s | -51.7°C | 0.4% | 37.9hPa | 2.6V | 08:28:52 | 01:23:43 | 00:00:00 | |
| AA1-15 | 2026-09-01 08:01:19 | 52.76074 | 8.14058 | 52° | 15km/h | 22756m | -14.8m/s | -51.7°C | 0.4% | 37.8hPa | 2.6V | 08:28:52 | 01:23:42 | 00:00:00 | |
| DD8BA-10 | 2026-09-01 08:01:19 | 52.76074 | 8.14058 | 52° | 15km/h | 22756m | -14.8m/s | -51.6°C | 3.9% | 37.7hPa | 2.6V | 08:28:00 | 00:00:00 | 00:00:00 | |
| DM0DOS-11 | 2026-09-01 08:01:18 | 52.76070 | 8.14048 | 53° | 15km/h | 22784m | -14.4m/s | -51.6°C | 3.8% | 37.6hPa | 2.7V | 08:28:30 | 01:23:40 | 00:00:00 | |
| HSKMA3-T | 2026-09-01 08:01:17 | 52.76070 | 8.14048 | 53° | 15km/h | 22784m | -14.4m/s | -51.6°C | 0.4% | 37.6hPa | 2.7V | 08:28:52 | 01:23:40 | 00:00:00 | |
| DF8AY | 2026-09-01 08:01:15 | 52.76067 | 8.14037 | 66° | 13km/h | 22813m | -14.8m/s | -51.6°C | 0.5% | 37.5hPa | 2.6V | 08:28:52 | 01:23:38 | 00:00:00 | |
| BIOWL1-15 | 2026-09-01 08:01:14 | 52.76065 | 8.14032 | 72° | 15km/h | 22828m | -14.5m/s | -51.7°C | 0.5% | 37.3hPa | 2.7V | 08:28:52 | 01:23:37 | 00:00:00 | |
| DO2JMG | 2026-09-01 08:01:11 | 52.76064 | 8.14016 | 89° | 13km/h | 22871m | -14.2m/s | -51.7°C | 0.5% | 37.1hPa | 2.6V | 08:28:52 | 01:23:34 | 00:00:00 | |
| DL1XH-west | 2026-09-01 08:01:10 | 52.76064 | 8.14011 | 109° | 13km/h | 22885m | -13m/s | -51.5°C | 0.5% | 37hPa | 2.6V | 08:28:52 | 01:23:33 | 00:00:00 | |
| AA1-15 | 2026-09-01 08:01:08 | 52.76066 | 8.14002 | 126° | 11km/h | 22913m | -13m/s | -51.4°C | 0.4% | 36.9hPa | 2.7V | 08:28:52 | 01:23:31 | 00:00:00 | |
| DM0DOS-11 | 2026-09-01 08:01:08 | 52.76067 | 8.13998 | 112° | 11km/h | 22926m | -13.8m/s | -51.3°C | 3.7% | 36.8hPa | 2.7V | 08:28:40 | 01:23:30 | 00:00:00 | |
| HSKMA3-T | 2026-09-01 08:01:07 | 52.76067 | 8.13998 | 112° | 11km/h | 22926m | -13.8m/s | -51.3°C | 0.3% | 36.8hPa | 2.7V | 08:28:52 | 01:23:30 | 00:00:00 | |
| DF8AY | 2026-09-01 08:01:06 | 52.76070 | 8.13992 | 122° | 9km/h | 22953m | -13.6m/s | -51.2°C | 0.4% | 36.6hPa | 2.6V | 08:28:52 | 01:23:28 | 00:00:00 | |
| BIOWL1-15 | 2026-09-01 08:01:04 | 52.76072 | 8.13989 | 159° | 7km/h | 22967m | -14.3m/s | -51.2°C | 0.3% | 36.6hPa | 2.6V | 08:28:52 | 01:23:27 | 00:00:00 | |
| DN9WHV | 2026-09-01 08:01:03 | 52.76072 | 8.13989 | 160° | 7km/h | 22967m | -14.3m/s | -51.2°C | 0.9% | 36.6hPa | 2.7V | 00:00:00 | 00:00:00 | 00:00:00 | |
| GOEST3-10 | 2026-09-01 08:01:02 | 52.76076 | 8.13986 | 168° | 9km/h | 22996m | -14.6m/s | -51.1°C | 3.7% | 36.3hPa | 2.7V | 00:00:00 | 01:23:25 | 00:00:00 | |
| DL1XH-15 | 2026-09-01 08:01:01 | 52.76088 | 8.13986 | 202° | 5km/h | 23081m | -14.5m/s | -51.4°C | 3.8% | 35.9hPa | 2.7V | 08:28:51 | 01:23:19 | 00:00:00 | |
| DO2JMG | 2026-09-01 08:01:00 | 52.76080 | 8.13984 | 178° | 11km/h | 23025m | -14.5m/s | -51.2°C | 0.4% | 36.2hPa | 2.6V | 08:28:52 | 01:23:23 | 00:00:00 | |
| DL1XH-west | 2026-09-01 08:00:59 | 52.76082 | 8.13984 | 192° | 9km/h | 23039m | -14.1m/s | -51.3°C | 0.4% | 36.1hPa | 2.6V | 08:28:52 | 01:23:22 | 00:00:00 | |
| DD8BA-10 | 2026-09-01 08:00:59 | 52.76082 | 8.13984 | 193° | 7km/h | 23039m | -14.1m/s | -51.2°C | 3.8% | 36.1hPa | 2.7V | 00:00:00 | 00:00:00 | 00:00:00 | |
| DM0DOS-11 | 2026-09-01 08:00:58 | 52.76086 | 8.13985 | 195° | 7km/h | 23067m | -15m/s | -51.4°C | 3.8% | 36hPa | 2.7V | 08:28:50 | 01:23:20 | 00:00:00 | |
| AA1-15 | 2026-09-01 08:00:58 | 52.76084 | 8.13985 | 177° | 7km/h | 23053m | -13.3m/s | -51.3°C | 0.4% | 36.1hPa | 2.6V | 08:28:52 | 01:23:21 | 00:00:00 | |
| HSKMA3-T | 2026-09-01 08:00:57 | 52.76086 | 8.13985 | 195° | 7km/h | 23067m | -15m/s | -51.4°C | 0.4% | 36hPa | 2.7V | 08:28:52 | 01:23:20 | 00:00:00 | |
| GOEST3-10 | 2026-09-01 08:00:57 | 52.76086 | 8.13985 | 196° | 7km/h | 23067m | -14.9m/s | -51.3°C | 3.8% | 35.9hPa | 2.6V | 00:00:00 | 00:00:00 | 00:00:00 | |
| DN9WHV | 2026-09-01 08:00:56 | 52.76086 | 8.13985 | 196° | 7km/h | 23067m | -15.0m/s | -51.4°C | 0.9% | 36.0hPa | 2.6V | 00:00:00 | 00:00:00 | 00:00:00 | |
| DB0DAN | 2026-09-01 08:00:55 | 52.76089 | 8.13987 | 188° | 7km/h | 23095m | -13.1m/s | -51.4°C | 0.9% | 35.83hPa | 2.6V | 00:00:00 | 00:00:00 | 00:00:00 | |
| DF8AY | 2026-09-01 08:00:55 | 52.76089 | 8.13987 | 188° | 7km/h | 23095m | -13.1m/s | -51.4°C | 0.4% | 35.8hPa | 2.6V | 08:28:52 | 01:23:18 | 00:00:00 | |
| BIOWL1-15 | 2026-09-01 08:00:54 | 52.76091 | 8.13988 | 232° | 7km/h | 23109m | -14.6m/s | -51.4°C | 0.4% | 35.7hPa | 2.6V | 08:29:43 | 01:23:17 | 00:00:00 | |
| DL3AQ-11 | 2026-09-01 08:00:52 | 52.76094 | 8.13992 | 222° | 5km/h | 23153m | -15.6m/s | -51.3°C | 1.0% | 35.5hPa | 2.7V | 00:00:00 | 00:00:00 | 00:00:00 | |
| DL1XH-15 | 2026-09-01 08:00:51 | 52.76097 | 8.14000 | 318° | 4km/h | 23227m | -13.3m/s | -51.5°C | 3.8% | 35.1hPa | 2.7V | 08:29:01 | 01:23:09 | 00:00:00 | |
| DO2JMG | 2026-09-01 08:00:50 | 52.76096 | 8.13994 | 214° | 7km/h | 23168m | -15.4m/s | -51.3°C | 0.4% | 35.4hPa | 2.7V | 08:29:43 | 01:23:13 | 00:00:00 | |
| DL1XH-west | 2026-09-01 08:00:49 | 52.76097 | 8.13995 | 233° | 4km/h | 23183m | -14.5m/s | -51.4°C | 0.4% | 35.3hPa | 2.6V | 08:29:43 | 01:23:12 | 00:00:00 | |
| DO2SHX-10 | 2026-09-01 08:00:49 | 52.76097 | 8.13995 | 233° | 4km/h | 23184m | -14.4m/s | -51.3°C | 3.8% | 35.3hPa | 2.6V | 00:00:00 | 01:23:12 | 00:00:00 | |
| DM0DOS-11 | 2026-09-01 08:00:48 | 52.76097 | 8.13999 | 284° | 2km/h | 23213m | -14.2m/s | -51.5°C | 3.8% | 35.2hPa | 2.6V | 08:29:00 | 01:23:10 | 00:00:00 | |
| AA1-15 | 2026-09-01 08:00:47 | 52.76097 | 8.13999 | 285° | 2km/h | 23213m | -14.2m/s | -51.5°C | 0.4% | 35.2hPa | 2.6V | 08:29:43 | 01:23:10 | 00:00:00 | |
| HSKMA3-T | 2026-09-01 08:00:46 | 52.76097 | 8.14000 | 319° | 4km/h | 23227m | -13.4m/s | -51.5°C | 0.4% | 35.1hPa | 2.7V | 08:29:43 | 01:23:09 | 00:00:00 | |
| BIOWL1-15 | 2026-09-01 08:00:45 | 52.76094 | 8.13998 | 43° | 7km/h | 23270m | -14.6m/s | -51.7°C | 0.4% | 34.9hPa | 2.6V | 08:29:43 | 01:23:06 | 00:00:00 | |
| DF8AY | 2026-09-01 08:00:44 | 52.76095 | 8.14000 | 1° | 5km/h | 23255m | -14.9m/s | -51.6°C | 0.4% | 35hPa | 2.7V | 08:29:43 | 01:23:07 | 00:00:00 | |
| DN9WHV | 2026-09-01 08:00:43 | 52.76095 | 8.13999 | 2° | 5km/h | 23256m | -14.9m/s | -51.6°C | 0.9% | 34.9hPa | 2.6V | 08:29:00 | 00:00:00 | 00:00:00 | |
| DO2SHX-10 | 2026-09-01 08:00:42 | 52.76092 | 8.13997 | 37° | 7km/h | 23285m | -14.9m/s | -51.7°C | 3.9% | 34.7hPa | 2.6V | 00:00:00 | 01:23:05 | 00:00:00 | |
| DL1XH-15 | 2026-09-01 08:00:41 | 52.76088 | 8.13967 | 91° | 16km/h | 23373m | -14.9m/s | -51.8°C | 4.1% | 34.3hPa | 2.7V | 08:29:11 | 01:22:59 | 00:00:00 | |
| DO2JMG | 2026-09-01 08:00:39 | 52.76089 | 8.13986 | 77° | 13km/h | 23328m | -14m/s | -51.8°C | 0.5% | 34.6hPa | 2.7V | 08:29:43 | 01:23:02 | 00:00:00 | |
| DD8BA-10 | 2026-09-01 08:00:39 | 52.76089 | 8.13986 | 77° | 13km/h | 23328m | -13.9m/s | -51.8°C | 4.0% | 34.5hPa | 2.6V | 00:00:00 | 00:00:00 | 00:00:00 | |
| DM0DOS-11 | 2026-09-01 08:00:38 | 52.76088 | 8.13974 | 88° | 16km/h | 23357m | -14.9m/s | -51.8°C | 4% | 34.4hPa | 2.6V | 08:29:10 | 01:23:00 | 00:00:00 | |
| DL1XH-west | 2026-09-01 08:00:38 | 52.76088 | 8.13980 | 84° | 15km/h | 23342m | -15.9m/s | -51.8°C | 0.5% | 34.5hPa | 2.6V | 08:29:43 | 01:23:01 | 00:00:00 | |
| AA1-15 | 2026-09-01 08:00:36 | 52.76088 | 8.13967 | 91° | 16km/h | 23373m | -14.9m/s | -51.8°C | 0.6% | 34.4hPa | 2.7V | 08:29:43 | 01:22:59 | 00:00:00 | |
| HSKMA3-T | 2026-09-01 08:00:35 | 52.76088 | 8.13960 | 96° | 18km/h | 23387m | -14.1m/s | -51.8°C | 0.6% | 34.2hPa | 2.7V | 08:29:43 | 01:22:58 | 00:00:00 | |
| DF8AY | 2026-09-01 08:00:34 | 52.76089 | 8.13953 | 98° | 15km/h | 23401m | -14.8m/s | -51.7°C | 0.5% | 34.2hPa | 2.6V | 08:29:43 | 01:22:57 | 00:00:00 | |
| BIOWL1-15 | 2026-09-01 08:00:33 | 52.76088 | 8.13937 | 36° | 7km/h | 23503m | -14.5m/s | -51.5°C | 0.5% | 33.6hPa | 2.6V | 08:29:43 | 01:22:50 | 00:00:00 | |
| DL4BBY-15 | 2026-09-01 08:00:32 | 52.76091 | 8.13944 | 104° | 7km/h | 23430m | -14.0m/s | -50.5°C | 0% | 0hPa | 2.6V | 00:00:00 | 00:00:00 | 00:00:00 | |
| DL1XH-15 | 2026-09-01 08:00:31 | 52.76087 | 8.13935 | 54° | 7km/h | 23518m | -16.1m/s | -51.4°C | 3.9% | 33.5hPa | 2.6V | 08:29:21 | 01:22:49 | 00:00:00 | |
| DO2JMG | 2026-09-01 08:00:29 | 52.76091 | 8.13939 | 14° | 5km/h | 23474m | -14.5m/s | -51.6°C | 0.5% | 33.8hPa | 2.7V | 08:29:43 | 01:22:52 | 00:00:00 | |
| DD8BA-10 | 2026-09-01 08:00:29 | 52.76091 | 8.13939 | 15° | 9km/h | 23474m | -14.4m/s | -51.5°C | 4.0% | 33.8hPa | 2.6V | 00:00:00 | 00:00:00 | 00:00:00 | |
| DM0DOS-11 | 2026-09-01 08:00:28 | 52.76088 | 8.13937 | 35° | 7km/h | 23503m | -14.4m/s | -51.5°C | 3.9% | 33.6hPa | 2.6V | 08:29:20 | 01:22:50 | 00:00:00 | |
| DL1XH-west | 2026-09-01 08:00:28 | 52.76090 | 8.13939 | 26° | 5km/h | 23488m | -14.6m/s | -51.6°C | 0.5% | 33.7hPa | 2.6V | 08:29:43 | 01:22:51 | 00:00:00 | |
| AA1-15 | 2026-09-01 08:00:26 | 52.76087 | 8.13935 | 54° | 7km/h | 23518m | -16.1m/s | -51.4°C | 0.5% | 33.6hPa | 2.6V | 08:29:43 | 01:22:49 | 00:00:00 | |
| DB0DAN | 2026-09-01 08:00:25 | 52.76086 | 8.13932 | 60° | 11km/h | 23534m | -16.1m/s | -51.4°C | 1% | 33.48hPa | 2.7V | 00:00:00 | 00:00:00 | 00:00:00 | |
| HSKMA3-T | 2026-09-01 08:00:25 | 52.76086 | 8.13932 | 60° | 11km/h | 23534m | -16.1m/s | -51.4°C | 0.5% | 33.5hPa | 2.7V | 08:29:43 | 01:22:48 | 00:00:00 | |
| DF8AY | 2026-09-01 08:00:24 | 52.76085 | 8.13928 | 72° | 9km/h | 23549m | -15.5m/s | -51.2°C | 0.4% | 33.4hPa | 2.7V | 08:29:43 | 01:22:47 | 00:00:00 | |
| DO9LL-15 | 2026-09-01 08:00:24 | 52.76085 | 8.13928 | 72° | 9km/h | 23550m | -15.4m/s | -51.2°C | 3.8% | 33.3hPa | 2.7V | 00:00:00 | 01:22:47 | 00:00:00 | |
| DN9WHV | 2026-09-01 08:00:23 | 52.76085 | 8.13928 | 73° | 9km/h | 23550m | -15.5m/s | -51.2°C | 0.9% | 33.4hPa | 2.7V | 08:29:00 | 00:00:00 | 00:00:00 | |
| DO2SHX-10 | 2026-09-01 08:00:22 | 52.76084 | 8.13919 | 81° | 13km/h | 23578m | -14.6m/s | -51.1°C | 3.8% | 33.2hPa | 2.7V | 00:00:00 | 01:22:45 | 00:00:00 | |
| DL1XH-15 | 2026-09-01 08:00:21 | 52.76095 | 8.13894 | 157° | 15km/h | 23664m | -12.7m/s | -50.9°C | 3.8% | 32.8hPa | 2.7V | 08:29:31 | 01:22:39 | 00:00:00 | |
| DO2JMG | 2026-09-01 08:00:19 | 52.76087 | 8.13904 | 129° | 13km/h | 23622m | -15.2m/s | -51°C | 0.4% | 33hPa | 2.6V | 08:29:43 | 01:22:42 | 00:00:00 | |
| DO2SHX-10 | 2026-09-01 08:00:19 | 52.76087 | 8.13904 | 130° | 15km/h | 23622m | -15.2m/s | -51.0°C | 3.8% | 33.0hPa | 2.6V | 00:00:00 | 01:22:42 | 00:00:00 | |
| DM0DOS-11 | 2026-09-01 08:00:18 | 52.76092 | 8.13896 | 144° | 13km/h | 23651m | -14.4m/s | -51°C | 3.8% | 32.9hPa | 2.6V | 08:29:30 | 01:22:40 | 00:00:00 | |
| BIOWL1-15 | 2026-09-01 08:00:18 | 52.76090 | 8.13900 | 137° | 15km/h | 23636m | -14.8m/s | -51°C | 0.4% | 33hPa | 2.6V | 08:29:43 | 01:22:41 | 00:00:00 | |
| DL1XH-west | 2026-09-01 08:00:17 | 52.76092 | 8.13896 | 145° | 13km/h | 23651m | -14.4m/s | -51°C | 0.4% | 32.9hPa | 2.6V | 08:29:43 | 01:22:40 | 00:00:00 | |
| HSKMA3-T | 2026-09-01 08:00:16 | 52.76098 | 8.13892 | 160° | 13km/h | 23677m | -14.4m/s | -50.9°C | 0.4% | 32.8hPa | 2.7V | 08:29:43 | 01:22:38 | 00:00:00 | |
| DF8AY | 2026-09-01 08:00:14 | 52.76101 | 8.13890 | 165° | 15km/h | 23691m | -13.2m/s | -50.8°C | 0.4% | 32.6hPa | 2.7V | 08:29:43 | 01:22:37 | 00:00:00 | |
| GOEST3-10 | 2026-09-01 08:00:12 | 52.76106 | 8.13887 | 165° | 5km/h | 23718m | -14.2m/s | -50.7°C | 3.8% | 32.5hPa | 2.7V | 00:00:00 | 01:22:35 | 00:00:00 | |
| DL1XH-15 | 2026-09-01 08:00:11 | 52.76110 | 8.13881 | 51° | 4km/h | 23802m | -14.1m/s | -50.6°C | 3.8% | 32.1hPa | 2.7V | 08:29:41 | 01:22:29 | 00:00:00 | |
| DB0DAN | 2026-09-01 08:00:10 | 52.76109 | 8.13886 | 163° | 4km/h | 23746m | -12.2m/s | -50.7°C | 0.9% | 32.39hPa | 2.7V | 00:00:00 | 00:00:00 | 00:00:00 | |
| DO2JMG | 2026-09-01 08:00:09 | 52.76110 | 8.13885 | 96° | 5km/h | 23759m | -13.2m/s | -50.7°C | 0.4% | 32.3hPa | 2.7V | 08:29:43 | 01:22:32 | 00:00:00 | |
| DD8BA-10 | 2026-09-01 08:00:09 | 52.76110 | 8.13885 | 97° | 4km/h | 23759m | -13.2m/s | -50.7°C | 3.8% | 32.3hPa | 2.6V | 00:00:00 | 00:00:00 | 00:00:00 | |
| DM0DOS-11 | 2026-09-01 08:00:08 | 52.76110 | 8.13883 | 82° | 4km/h | 23788m | -14.6m/s | -50.7°C | 3.8% | 32.2hPa | 2.6V | 08:29:40 | 01:22:30 | 00:00:00 | |
| BIOWL1-15 | 2026-09-01 08:00:07 | 52.76110 | 8.13881 | 52° | 4km/h | 23802m | -14.1m/s | -50.6°C | 0.4% | 32.1hPa | 2.7V | 08:29:43 | 01:22:29 | 00:00:00 | |
| DL1XH-west | 2026-09-01 08:00:07 | 52.76110 | 8.13883 | 83° | 4km/h | 23788m | -14.6m/s | -50.7°C | 0.4% | 32.2hPa | 2.6V | 08:29:43 | 01:22:30 | 00:00:00 | |
| HSKMA3-T | 2026-09-01 08:00:05 | 52.76109 | 8.13880 | 56° | 2km/h | 23816m | -13.2m/s | -50.6°C | 0.4% | 32hPa | 2.7V | 08:29:43 | 01:22:28 | 00:00:00 | |
| DF8AY | 2026-09-01 08:00:03 | 52.76108 | 8.13878 | 30° | 5km/h | 23842m | -13.8m/s | -50.5°C | 0.4% | 31.9hPa | 2.6V | 18:12:15 | 01:22:26 | 00:00:00 | |
| DL1XH1-15 | 2026-09-01 08:00:02 | 52.76100 | 8.13866 | 46° | 9km/h | 23923m | -13.6m/s | -50.3°C | 3.7% | 31.5hPa | 2.6V | 08:30:00 | 01:22:20 | 00:00:00 | |
| DO2SHX-10 | 2026-09-01 08:00:02 | 52.76107 | 8.13877 | 52° | 5km/h | 23856m | -13.8m/s | -50.4°C | 3.8% | 31.8hPa | 2.6V | 00:00:00 | 01:22:25 | 00:00:00 | |
| DL1XH-15 | 2026-09-01 08:00:01 | 52.76097 | 8.13863 | 44° | 13km/h | 23937m | -13.6m/s | -50.3°C | 3.7% | 31.4hPa | 2.6V | 08:30:00 | 01:22:19 | 00:00:00 | |
| DO2JMG | 2026-09-01 07:59:58 | 52.76101 | 8.13869 | 34° | 9km/h | 23910m | -13.8m/s | -50.4°C | 0.3% | 31.6hPa | 2.6V | 18:12:15 | 01:22:21 | 00:00:00 | |
| BIOWL1-15 | 2026-09-01 07:59:57 | 52.76100 | 8.13866 | 47° | 9km/h | 23923m | -13.6m/s | -50.3°C | 0.3% | 31.5hPa | 2.6V | 18:12:15 | 01:22:20 | 00:00:00 | |
| DL1XH-west | 2026-09-01 07:59:56 | 52.76098 | 8.13863 | 44° | 13km/h | 23937m | -13.6m/s | -50.3°C | 0.3% | 31.4hPa | 2.6V | 18:12:15 | 01:22:19 | 00:00:00 | |
| DB0DAN | 2026-09-01 07:59:55 | 52.76095 | 8.13860 | 36° | 13km/h | 23951m | -15.4m/s | -50.2°C | 0.9% | 31.35hPa | 2.7V | 00:00:00 | 00:00:00 | 00:00:00 | |
| HSKMA3-T | 2026-09-01 07:59:54 | 52.76092 | 8.13856 | 46° | 15km/h | 23967m | -14.5m/s | -50.2°C | 0.3% | 31.3hPa | 2.7V | 18:12:15 | 01:22:17 | 00:00:00 | |
| DF8AY | 2026-09-01 07:59:53 | 52.76090 | 8.13851 | 44° | 15km/h | 23982m | -16.3m/s | -50.1°C | 0.3% | 31.2hPa | 2.7V | 18:12:15 | 01:22:16 | 00:00:00 | |
| DL1XH1-15 | 2026-09-01 07:59:53 | 52.76071 | 8.13820 | 42° | 16km/h | 24074m | -15.5m/s | -49.9°C | 3.5% | 30.8hPa | 2.6V | 08:30:00 | 01:22:10 | 00:00:00 | |
| DN9WHV | 2026-09-01 07:59:53 | 52.76090 | 8.13851 | 45° | 15km/h | 23982m | -16.3m/s | -50.1°C | 0.9% | 31.2hPa | 2.6V | 00:00:00 | 00:00:00 | 00:00:00 | |
| GOEST3-10 | 2026-09-01 07:59:52 | 52.76087 | 8.13846 | 47° | 16km/h | 23999m | -15.5m/s | -50.0°C | 3.6% | 31.1hPa | 2.6V | 00:00:00 | 01:22:15 | 00:00:00 | |
| DL1XH-15 | 2026-09-01 07:59:51 | 52.76069 | 8.13815 | 60° | 15km/h | 24089m | -14.9m/s | -49.9°C | 3.5% | 30.7hPa | 2.6V | 08:30:00 | 01:22:09 | 00:00:00 | |
| DO2JMG | 2026-09-01 07:59:48 | 52.76074 | 8.13825 | 47° | 18km/h | 24059m | -14.2m/s | -49.8°C | 0.2% | 30.9hPa | 2.7V | 18:12:15 | 01:22:11 | 00:00:00 | |
| BIOWL1-15 | 2026-09-01 07:59:47 | 52.76068 | 8.13810 | 68° | 15km/h | 24104m | -17.5m/s | -49.9°C | 0.2% | 30.6hPa | 2.6V | 18:12:15 | 01:22:08 | 00:00:00 | |
| DL1XH-west | 2026-09-01 07:59:46 | 52.76069 | 8.13815 | 61° | 15km/h | 24089m | -14.9m/s | -49.9°C | 0.2% | 30.7hPa | 2.6V | 18:12:15 | 01:22:09 | 00:00:00 | |
| HSKMA3-T | 2026-09-01 07:59:44 | 52.76067 | 8.13805 | 76° | 11km/h | 24121m | -16.6m/s | -50.1°C | 0.2% | 30.6hPa | 2.7V | 18:12:15 | 01:22:07 | 00:00:00 | |
| AA1-15 | 2026-09-01 07:59:43 | 52.76067 | 8.13800 | 106° | 13km/h | 24137m | -14.5m/s | -50.1°C | 0.3% | 30.5hPa | 2.7V | 18:12:15 | 01:22:06 | 00:00:00 | |
| DF8AY | 2026-09-01 07:59:42 | 52.76068 | 8.13794 | 106° | 15km/h | 24152m | -17.1m/s | -50.1°C | 0.2% | 30.4hPa | 2.7V | 18:12:15 | 01:22:05 | 00:00:00 | |
| GOEST3-10 | 2026-09-01 07:59:42 | 52.76068 | 8.13794 | 107° | 18km/h | 24152m | -17.1m/s | -50.1°C | 3.6% | 30.4hPa | 2.7V | 00:00:00 | 01:22:05 | 00:00:00 | |
| DL1XH-15 | 2026-09-01 07:59:41 | 52.76080 | 8.13754 | 133° | 16km/h | 24251m | -15.7m/s | -50°C | 3.7% | 30hPa | 2.7V | 08:30:00 | 01:21:59 | 00:00:00 | |
| DO2JMG | 2026-09-01 07:59:37 | 52.76078 | 8.13760 | 128° | 18km/h | 24235m | -16.5m/s | -50°C | 0.3% | 30hPa | 2.7V | 18:12:15 | 01:22:00 | 00:00:00 | |
| DL1XH-west | 2026-09-01 07:59:36 | 52.76080 | 8.13755 | 133° | 16km/h | 24251m | -15.7m/s | -50°C | 0.4% | 30hPa | 2.7V | 18:12:15 | 01:21:59 | 00:00:00 | |
| BIOWL1-15 | 2026-09-01 07:59:35 | 52.76088 | 8.13747 | 180° | 7km/h | 24293m | -13.5m/s | -50.1°C | 0.3% | 29.8hPa | 2.6V | 18:12:15 | 01:21:56 | 00:00:00 | |
| HSKMA3-T | 2026-09-01 07:59:34 | 52.76086 | 8.13748 | 154° | 11km/h | 24280m | -13.6m/s | -50.1°C | 0.3% | 29.8hPa | 2.6V | 18:12:15 | 01:21:57 | 00:00:00 | |
| DF8AY | 2026-09-01 07:59:32 | 52.76090 | 8.13747 | 194° | 7km/h | 24308m | -15.8m/s | -50.1°C | 0.3% | 29.7hPa | 2.7V | 18:12:15 | 01:21:55 | 00:00:00 | |
| DO2JMG | 2026-09-01 07:59:27 | 52.76100 | 8.13759 | 209° | 7km/h | 24400m | -17m/s | -50°C | 0.2% | 29.3hPa | 2.7V | 18:12:15 | 01:21:50 | 00:00:00 | |
| DJ2DS-15 | 2026-09-01 07:59:27 | 52.76100 | 8.13759 | 209° | 9km/h | 24401m | -17.0m/s | -49.9°C | 3.5% | 29.3hPa | 2.7V | 00:00:00 | 01:21:50 | 00:00:00 | |
| DN9WHV | 2026-09-01 07:59:26 | 52.76100 | 8.13759 | 210° | 7km/h | 24401m | -17.0m/s | -50.0°C | 0.8% | 29.3hPa | 2.7V | 00:00:00 | 00:00:00 | 00:00:00 | |
| DB0DAN | 2026-09-01 07:59:25 | 52.76103 | 8.13761 | 185° | 5km/h | 24433m | -15.3m/s | -50.1°C | 0.9% | 29.14hPa | 2.7V | 00:00:00 | 00:00:00 | 00:00:00 | |
| DL1XH-west | 2026-09-01 07:59:25 | 52.76103 | 8.13761 | 185° | 5km/h | 24433m | -15.3m/s | -50.1°C | 0.3% | 29.1hPa | 2.7V | 18:12:15 | 01:21:48 | 00:00:00 | |
| HSKMA3-T | 2026-09-01 07:59:23 | 52.76106 | 8.13761 | 172° | 4km/h | 24461m | -10.7m/s | -50.1°C | 0.3% | 29hPa | 2.6V | 18:12:15 | 01:21:46 | 00:00:00 | |
| DF8AY | 2026-09-01 07:59:22 | 52.76106 | 8.13762 | 224° | 4km/h | 24472m | -11.3m/s | -50.1°C | 0.2% | 28.9hPa | 2.6V | 18:12:15 | 01:21:45 | 00:00:00 | |
| DL1XH1-15 | 2026-09-01 07:59:22 | 52.76101 | 8.13784 | 294° | 18km/h | 24533m | -0.9m/s | -50°C | 3.6% | 28.6hPa | 2.6V | 08:30:00 | 01:21:40 | 00:00:00 | |
| AA1-15 | 2026-09-01 07:59:21 | 52.76106 | 8.13763 | 289° | 4km/h | 24484m | -12.6m/s | -50.1°C | 0.3% | 28.9hPa | 2.7V | 18:12:15 | 01:21:44 | 00:00:00 | |
| DO2JMG | 2026-09-01 07:59:16 | 52.76099 | 8.13791 | 294° | 18km/h | 24529m | 8.7m/s | -50.1°C | 0.3% | 28.6hPa | 2.6V | 18:12:15 | 01:21:39 | 00:00:00 | |
| BIOWL1-15 | 2026-09-01 07:59:15 | 52.76096 | 8.13809 | 273° | 9km/h | 24512m | 7.1m/s | -50.1°C | 0.3% | 28.7hPa | 2.6V | 18:12:15 | 01:21:36 | 00:00:00 | |
| DL1XH-west | 2026-09-01 07:59:14 | 52.76097 | 8.13804 | 279° | 15km/h | 24518m | 4.4m/s | -50.1°C | 0.3% | 28.7hPa | 2.7V | 18:12:15 | 01:21:37 | 00:00:00 | |
| HSKMA3-T | 2026-09-01 07:59:12 | 52.76096 | 8.13812 | 257° | 5km/h | 24505m | 6.8m/s | -50°C | 0.3% | 28.8hPa | 2.6V | 18:12:15 | 01:21:35 | 00:00:00 | |
| DL1XH-15 | 2026-09-01 07:59:11 | 52.76096 | 8.13824 | 314° | 7km/h | 24467m | 6.1m/s | -49.9°C | 3.5% | 28.9hPa | 2.6V | 08:30:00 | 01:21:29 | 00:00:00 | |
| DF8AY | 2026-09-01 07:59:11 | 52.76097 | 8.13814 | 217° | 4km/h | 24499m | 5.1m/s | -50.1°C | 0.3% | 28.8hPa | 2.6V | 18:12:15 | 01:21:34 | 00:00:00 | |
| DB0DAN | 2026-09-01 07:59:10 | 52.76097 | 8.13815 | 238° | 5km/h | 24493m | 7.4m/s | -50.1°C | 0.9% | 28.82hPa | 2.7V | 00:00:00 | 00:00:00 | 00:00:00 | |
| AA1-15 | 2026-09-01 07:59:10 | 52.76097 | 8.13815 | 238° | 5km/h | 24493m | 7.4m/s | -50.1°C | 0.2% | 28.8hPa | 2.7V | 18:12:15 | 01:21:33 | 00:00:00 | |
| DO2JMG | 2026-09-01 07:59:06 | 52.76096 | 8.13824 | 315° | 7km/h | 24467m | 6.1m/s | -49.9°C | 0.2% | 28.9hPa | 2.6V | 18:12:15 | 01:21:29 | 00:00:00 | |
| DL1XH-west | 2026-09-01 07:59:04 | 52.76094 | 8.13831 | 294° | 13km/h | 24455m | 6.4m/s | -50°C | 0.2% | 29hPa | 2.7V | 18:12:15 | 01:21:27 | 00:00:00 | |
| HSKMA3-T | 2026-09-01 07:59:02 | 52.76092 | 8.13840 | 268° | 9km/h | 24443m | 6.9m/s | -49.9°C | 0.2% | 29hPa | 2.7V | 18:12:15 | 01:21:25 | 00:00:00 | |
| DF8AY | 2026-09-01 07:59:00 | 52.76094 | 8.13845 | 214° | 7km/h | 24431m | 4.6m/s | -50°C | 0.3% | 29.1hPa | 2.6V | 18:12:15 | 01:21:23 | 00:00:00 | |
| AA1-15 | 2026-09-01 07:58:59 | 52.76096 | 8.13847 | 210° | 7km/h | 24425m | 7.2m/s | -49.9°C | 0.3% | 29.1hPa | 2.6V | 18:12:15 | 01:21:22 | 00:00:00 | |
| DD8BA-10 | 2026-09-01 07:58:59 | 52.76095 | 8.13847 | 211° | 11km/h | 24425m | 7.1m/s | -49.8°C | 3.6% | 29.1hPa | 2.6V | 00:00:00 | 00:00:00 | 00:00:00 | |
| DO3DL | 2026-09-01 07:58:57 | 52.76100 | 8.13849 | 183° | 9km/h | 24414m | 5.4m/s | -49.9°C | 0.9% | 29.2hPa | 2.6V | 00:00:00 | 00:00:00 | 00:00:00 | |
| DB0DAN | 2026-09-01 07:58:55 | 52.76106 | 8.13845 | 147° | 13km/h | 24400m | 5.5m/s | -49.8°C | 0.9% | 29.22hPa | 2.6V | 00:00:00 | 00:00:00 | 00:00:00 | |
| DO2JMG | 2026-09-01 07:58:55 | 52.76106 | 8.13845 | 147° | 15km/h | 24400m | 5.5m/s | -49.8°C | 0.3% | 29.2hPa | 2.6V | 18:12:15 | 01:21:18 | 00:00:00 | |
| DL1XH-west | 2026-09-01 07:58:53 | 52.76111 | 8.13840 | 153° | 11km/h | 24390m | 6.2m/s | -50°C | 0.3% | 29.3hPa | 2.7V | 18:12:15 | 01:21:16 | 00:00:00 | |
| BIOWL1-15 | 2026-09-01 07:58:51 | 52.76115 | 8.13839 | 197° | 9km/h | 24379m | 5m/s | -49.9°C | 0.2% | 29.3hPa | 2.6V | 18:12:15 | 01:21:14 | 00:00:00 | |
| DM0DOS-11 | 2026-09-01 07:58:51 | 52.76125 | 8.13844 | 192° | 7km/h | 24353m | 5.9m/s | -50°C | 3.6% | 29.4hPa | 2.7V | 08:30:00 | 01:21:10 | 00:00:00 | |
| AA1-15 | 2026-09-01 07:58:49 | 52.76121 | 8.13842 | 198° | 11km/h | 24366m | 5.4m/s | -50°C | 0.2% | 29.4hPa | 2.7V | 18:12:15 | 01:21:12 | 00:00:00 | |
| DO2JMG | 2026-09-01 07:58:45 | 52.76129 | 8.13842 | 155° | 13km/h | 24342m | 7.9m/s | -50°C | 0.3% | 29.5hPa | 2.6V | 18:12:15 | 01:21:08 | 00:00:00 | |
| HTAHTA | 2026-09-01 07:58:44 | 52.76132 | 8.13839 | 145° | 16km/h | 24335m | 5.5m/s | -50.1°C | 0.9% | 29.5hPa | 2.7V | 00:00:00 | 00:00:00 | 00:00:00 | |
| DL1XH-west | 2026-09-01 07:58:43 | 52.76136 | 8.13835 | 140° | 16km/h | 24329m | 7.1m/s | -50°C | 0.3% | 29.6hPa | 2.7V | 18:12:15 | 01:21:06 | 00:00:00 | |
| DL8OAI-8 | 2026-09-01 07:58:42 | 52.76136 | 8.13835 | 141° | 16km/h | 24329m | 7.1m/s | -50.0°C | 0.9% | 29.6hPa | 2.6V | 00:00:00 | 00:00:00 | 00:00:00 | |
| DL1XH-15 | 2026-09-01 07:58:41 | 52.76159 | 8.13804 | 140° | 11km/h | 24284m | 5.5m/s | -50.1°C | 3.6% | 29.8hPa | 2.6V | 08:30:00 | 01:20:59 | 00:00:00 | |
| BIOWL1-15 | 2026-09-01 07:58:41 | 52.76142 | 8.13825 | 137° | 18km/h | 24316m | 5.7m/s | -50°C | 0.2% | 29.6hPa | 2.6V | 18:12:15 | 01:21:04 | 00:00:00 | |
| DM0DOS-11 | 2026-09-01 07:58:40 | 52.76156 | 8.13807 | 140° | 13km/h | 24291m | 7m/s | -50°C | 3.6% | 29.8hPa | 2.6V | 08:30:00 | 01:21:00 | 00:00:00 | |
| DB0DAN | 2026-09-01 07:58:40 | 52.76146 | 8.13820 | 142° | 20km/h | 24309m | 7.9m/s | -50.1°C | 0.9% | 29.64hPa | 2.6V | 00:00:00 | 00:00:00 | 00:00:00 | |
| HSKMA3-T | 2026-09-01 07:58:40 | 52.76146 | 8.13820 | 142° | 20km/h | 24309m | 7.9m/s | -50.1°C | 0.3% | 29.6hPa | 2.6V | 18:12:15 | 01:21:03 | 00:00:00 | |
| DF8AY | 2026-09-01 07:58:40 | 52.76150 | 8.13815 | 146° | 20km/h | 24303m | 4.2m/s | -50°C | 0.3% | 29.6hPa | 2.7V | 18:12:15 | 01:21:02 | 00:00:00 | |
| AA1-15 | 2026-09-01 07:58:38 | 52.76153 | 8.13811 | 144° | 16km/h | 24297m | 6.6m/s | -50°C | 0.3% | 29.7hPa | 2.7V | 18:12:15 | 01:21:01 | 00:00:00 | |
| DO2JMG | 2026-09-01 07:58:34 | 52.76163 | 8.13798 | 142° | 11km/h | 24272m | 5.8m/s | -49.9°C | 0.3% | 29.8hPa | 2.7V | 18:12:15 | 01:20:57 | 00:00:00 | |
| DL1XH-west | 2026-09-01 07:58:33 | 52.76165 | 8.13796 | 134° | 7km/h | 24265m | 6.7m/s | -50°C | 0.3% | 29.8hPa | 2.7V | 18:12:15 | 01:20:56 | 00:00:00 | |
| DL4BBY-15 | 2026-09-01 07:58:32 | 52.76166 | 8.13793 | 118° | 15km/h | 24259m | 6.4m/s | -48.9°C | 0% | 0hPa | 2.6V | 00:00:00 | 00:00:00 | 00:00:00 | |
| DL1XH-15 | 2026-09-01 07:58:31 | 52.76174 | 8.13768 | 100° | 15km/h | 24222m | 5.4m/s | -50°C | 3.6% | 30hPa | 2.6V | 08:30:00 | 01:20:49 | 00:00:00 | |
| HSKMA3-T | 2026-09-01 07:58:30 | 52.76168 | 8.13788 | 125° | 11km/h | 24247m | 7.4m/s | -50°C | 0.3% | 29.9hPa | 2.6V | 18:12:15 | 01:20:53 | 00:00:00 | |
| DF8AY | 2026-09-01 07:58:28 | 52.76172 | 8.13779 | 123° | 15km/h | 24235m | 5.5m/s | -49.9°C | 0.2% | 30hPa | 2.7V | 18:12:15 | 01:20:51 | 00:00:00 | |
| AA1-15 | 2026-09-01 07:58:27 | 52.76173 | 8.13774 | 111° | 15km/h | 24229m | 7.3m/s | -50°C | 0.3% | 30hPa | 2.7V | 18:12:15 | 01:20:50 | 00:00:00 | |
| DO2JMG | 2026-09-01 07:58:23 | 52.76178 | 8.13746 | 100° | 20km/h | 24203m | 4.7m/s | -50.1°C | 0.3% | 30.1hPa | 2.7V | 18:12:15 | 01:20:46 | 00:00:00 | |
| DL1XH-west | 2026-09-01 07:58:22 | 52.76178 | 8.13738 | 89° | 20km/h | 24197m | 7.5m/s | -50.1°C | 0.3% | 30.2hPa | 2.6V | 18:12:15 | 01:20:45 | 00:00:00 | |
| DJ2DS-15 | 2026-09-01 07:58:21 | 52.76177 | 8.13730 | 79° | 18km/h | 24190m | 5.8m/s | -50.1°C | 0.9% | 30.2hPa | 2.7V | 00:00:00 | 00:00:00 | 00:00:00 | |
| DM0DOS-11 | 2026-09-01 07:58:20 | 52.76176 | 8.13706 | 77° | 13km/h | 24166m | 7.1m/s | -50.1°C | 3.6% | 30.3hPa | 2.7V | 08:30:00 | 01:20:40 | 00:00:00 | |
| BIOWL1-15 | 2026-09-01 07:58:19 | 52.76176 | 8.13716 | 88° | 15km/h | 24178m | 7.1m/s | -50.1°C | 0.3% | 30.2hPa | 2.7V | 18:12:15 | 01:20:42 | 00:00:00 | |
| DF8AY | 2026-09-01 07:58:18 | 52.76176 | 8.13711 | 89° | 13km/h | 24172m | 5.2m/s | -50.1°C | 0.3% | 30.3hPa | 2.7V | 18:12:15 | 01:20:41 | 00:00:00 | |
| AA1-15 | 2026-09-01 07:58:16 | 52.76175 | 8.13701 | 67° | 13km/h | 24159m | 6.5m/s | -50.1°C | 0.3% | 30.4hPa | 2.6V | 18:12:15 | 01:20:39 | 00:00:00 | |
| DO2JMG | 2026-09-01 07:58:13 | 52.76172 | 8.13686 | 79° | 13km/h | 24140m | 4.8m/s | -49.9°C | 0.3% | 30.4hPa | 2.7V | 18:12:15 | 01:20:36 | 00:00:00 | |
| DL1XH-west | 2026-09-01 07:58:11 | 52.76170 | 8.13675 | 61° | 16km/h | 24129m | 6.6m/s | -49.9°C | 0.3% | 30.5hPa | 2.6V | 18:12:15 | 01:20:34 | 00:00:00 | |
| DM0DOS-11 | 2026-09-01 07:58:10 | 52.76162 | 8.13648 | 68° | 18km/h | 24105m | 4m/s | -49.8°C | 3.5% | 30.6hPa | 2.6V | 08:30:00 | 01:20:30 | 00:00:00 | |
| HSKMA3-T | 2026-09-01 07:58:09 | 52.76165 | 8.13662 | 65° | 18km/h | 24116m | 7.2m/s | -49.9°C | 0.3% | 30.5hPa | 2.7V | 18:12:15 | 01:20:32 | 00:00:00 | |
| DF8AY | 2026-09-01 07:58:07 | 52.76162 | 8.13648 | 68° | 18km/h | 24105m | 4m/s | -49.8°C | 0.3% | 30.6hPa | 2.6V | 18:12:15 | 01:20:30 | 00:00:00 | |
| AA1-15 | 2026-09-01 07:58:05 | 52.76157 | 8.13636 | 45° | 18km/h | 24093m | 6.5m/s | -49.8°C | 0.2% | 30.6hPa | 2.6V | 18:12:15 | 01:20:28 | 00:00:00 | |
| DO2JMG | 2026-09-01 07:58:02 | 52.76148 | 8.13627 | 12° | 11km/h | 24074m | 6.8m/s | -49.8°C | 0.2% | 30.7hPa | 2.7V | 18:12:15 | 01:20:25 | 00:00:00 | |
| DL4BBY-15 | 2026-09-01 07:58:02 | 52.76148 | 8.13627 | 13° | 13km/h | 24075m | 6.7m/s | -48.7°C | 0% | 0hPa | 2.6V | 00:00:00 | 00:00:00 | 00:00:00 | |
| DL1XH-15 | 2026-09-01 07:58:01 | 52.76133 | 8.13606 | 65° | 20km/h | 24037m | 6m/s | -49.9°C | 3.5% | 30.9hPa | 2.6V | 08:30:00 | 01:20:19 | 00:00:00 | |
| DL1XH-west | 2026-09-01 07:58:00 | 52.76143 | 8.13625 | 20° | 11km/h | 24062m | 6.9m/s | -49.8°C | 0.2% | 30.8hPa | 2.6V | 18:12:15 | 01:20:23 | 00:00:00 | |
| DM0DOS-11 | 2026-09-01 07:58:00 | 52.76135 | 8.13613 | 60° | 18km/h | 24044m | 7m/s | -49.9°C | 3.5% | 30.9hPa | 2.7V | 08:30:00 | 01:20:20 | 00:00:00 | |
| HSKMA3-T | 2026-09-01 07:57:58 | 52.76138 | 8.13619 | 49° | 16km/h | 24050m | 4.8m/s | -49.9°C | 0.2% | 30.8hPa | 2.7V | 18:12:15 | 01:20:21 | 00:00:00 | |
| BIOWL1-15 | 2026-09-01 07:57:57 | 52.76135 | 8.13613 | 61° | 18km/h | 24044m | 7m/s | -49.9°C | 0.2% | 30.9hPa | 2.7V | 18:12:15 | 01:20:20 | 00:00:00 | |
| DN9WHV | 2026-09-01 07:57:56 | 52.76135 | 8.13613 | 62° | 18km/h | 24044m | 7.0m/s | -49.9°C | 0.9% | 30.9hPa | 2.6V | 00:00:00 | 00:00:00 | 00:00:00 | |
| DB0DAN | 2026-09-01 07:57:55 | 52.76131 | 8.13599 | 62° | 20km/h | 24032m | 5.2m/s | -50°C | 0.8% | 30.94hPa | 2.6V | 00:00:00 | 00:00:00 | 00:00:00 | |
| AA1-15 | 2026-09-01 07:57:54 | 52.76128 | 8.13591 | 53° | 24km/h | 24026m | 7.4m/s | -50.1°C | 0.3% | 31hPa | 2.7V | 18:12:15 | 01:20:17 | 00:00:00 | |
| DO2JMG | 2026-09-01 07:57:52 | 52.76120 | 8.13578 | 41° | 20km/h | 24015m | 4.5m/s | -50°C | 0.3% | 31hPa | 2.6V | 18:12:15 | 01:20:15 | 00:00:00 | |
| DL1XH-15 | 2026-09-01 07:57:51 | 52.76105 | 8.13555 | 31° | 11km/h | 23978m | 4.7m/s | -50.2°C | 3.6% | 31.2hPa | 2.6V | 08:30:00 | 01:20:09 | 00:00:00 | |
| DL1XH-west | 2026-09-01 07:57:50 | 52.76114 | 8.13568 | 52° | 15km/h | 24002m | 6.4m/s | -50.2°C | 0.2% | 31.1hPa | 2.6V | 18:12:15 | 01:20:13 | 00:00:00 | |
| HSKMA3-T | 2026-09-01 07:57:47 | 52.76108 | 8.13558 | 33° | 11km/h | 23984m | 7.2m/s | -50.3°C | 0.2% | 31.2hPa | 2.7V | 18:12:15 | 01:20:10 | 00:00:00 | |
| BIOWL1-15 | 2026-09-01 07:57:47 | 52.76103 | 8.13552 | 44° | 11km/h | 23972m | 6.8m/s | -50.2°C | 0.3% | 31.2hPa | 2.6V | 18:12:15 | 01:20:08 | 00:00:00 | |
| DD1CC8 | 2026-09-01 07:57:46 | 52.76106 | 8.13555 | 31° | 11km/h | 23978m | 4.7m/s | -50.2°C | 0.9% | 31.2hPa | 2.7V | 00:00:00 | 00:00:00 | 00:00:00 | |
| DF8AY | 2026-09-01 07:57:46 | 52.76106 | 8.13555 | 32° | 11km/h | 23978m | 4.7m/s | -50.2°C | 0.3% | 31.2hPa | 2.6V | 18:12:15 | 01:20:09 | 00:00:00 | |
| EDDB2-11 | 2026-09-01 07:57:45 | 52.76103 | 8.13552 | 43° | 9km/h | 23972m | 6.8m/s | -50.2°C | 0.9% | 31.2hPa | 2.7V | 00:00:00 | 00:00:00 | 00:00:00 | |
| SONDE2-11 | 2026-09-01 07:57:44 | 52.76102 | 8.13549 | 56° | 9km/h | 23966m | 6.6m/s | -50.3°C | 0.9% | 31.3hPa | 2.7V | 00:00:00 | 00:00:00 | 00:00:00 | |
| AA1-15 | 2026-09-01 07:57:43 | 52.76100 | 8.13545 | 60° | 13km/h | 23959m | 5.3m/s | -50.3°C | 0.3% | 31.3hPa | 2.7V | 18:12:15 | 01:20:06 | 00:00:00 | |
| DO2JMG | 2026-09-01 07:57:42 | 52.76098 | 8.13540 | 54° | 15km/h | 23953m | 7.5m/s | -50.4°C | 0.3% | 31.3hPa | 2.7V | 18:12:15 | 01:20:05 | 00:00:00 | |
| DO9LL-15 | 2026-09-01 07:57:42 | 52.76098 | 8.13540 | 55° | 7km/h | 23953m | 7.5m/s | -50.4°C | 3.6% | 31.3hPa | 2.7V | 00:00:00 | 01:20:05 | 00:00:00 | |
| DB0DAN | 2026-09-01 07:57:40 | 52.76094 | 8.13530 | 59° | 15km/h | 23941m | 6.6m/s | -50.5°C | 0.9% | 31.39hPa | 2.6V | 00:00:00 | 00:00:00 | 00:00:00 | |
| DL1XH-west | 2026-09-01 07:57:39 | 52.76092 | 8.13525 | 65° | 13km/h | 23934m | 6.4m/s | -50.3°C | 0.3% | 31.4hPa | 2.7V | 18:12:15 | 01:20:02 | 00:00:00 | |
| HSKMA3-T | 2026-09-01 07:57:37 | 52.76089 | 8.13517 | 45° | 11km/h | 23922m | 7.6m/s | -50.5°C | 0.3% | 31.5hPa | 2.6V | 18:12:15 | 01:20:00 | 00:00:00 | |
| BIOWL1-15 | 2026-09-01 07:57:36 | 52.76087 | 8.13514 | 31° | 11km/h | 23915m | 5.6m/s | -50.5°C | 0.3% | 31.5hPa | 2.6V | 18:12:15 | 01:19:59 | 00:00:00 | |
| AA1-15 | 2026-09-01 07:57:32 | 52.76082 | 8.13510 | 30° | 4km/h | 23890m | 7.1m/s | -50.6°C | 0.2% | 31.6hPa | 2.7V | 18:12:15 | 01:19:55 | 00:00:00 | |
| DO2JMG | 2026-09-01 07:57:31 | 52.76081 | 8.13509 | 46° | 5km/h | 23884m | 5.7m/s | -50.6°C | 0.3% | 31.7hPa | 2.6V | 18:12:15 | 01:19:54 | 00:00:00 | |
| DM0DOS-11 | 2026-09-01 07:57:30 | 52.76081 | 8.13499 | 122° | 7km/h | 23861m | 5.3m/s | -50.7°C | 3.6% | 31.8hPa | 2.7V | 08:30:00 | 01:19:50 | 00:00:00 | |
| DL1XH-west | 2026-09-01 07:57:28 | 52.76080 | 8.13501 | 111° | 7km/h | 23867m | 6.7m/s | -50.6°C | 0.3% | 31.7hPa | 2.7V | 18:12:15 | 01:19:51 | 00:00:00 | |
| HSKMA3-T | 2026-09-01 07:57:26 | 52.76082 | 8.13496 | 105° | 5km/h | 23855m | 6.6m/s | -50.8°C | 0.3% | 31.8hPa | 2.6V | 18:12:15 | 01:19:49 | 00:00:00 | |
| BIOWL1-15 | 2026-09-01 07:57:25 | 52.76082 | 8.13495 | 58° | 4km/h | 23848m | 6.3m/s | -50.8°C | 0.3% | 31.9hPa | 2.6V | 18:12:15 | 01:19:48 | 00:00:00 | |
| DL1LOL-11 | 2026-09-01 07:57:24 | 52.76081 | 8.13493 | 19° | 5km/h | 23843m | 4.9m/s | -50.7°C | 0.9% | 31.9hPa | 2.6V | 00:00:00 | 00:00:00 | 00:00:00 | |
| DL4XJ-10 | 2026-09-01 07:57:23 | 52.76080 | 8.13493 | 353° | 9km/h | 23839m | 4.7m/s | -49.5°C | 0% | 0hPa | 2.6V | 00:00:00 | 00:00:00 | 00:00:00 | |
| DL3OBA | 2026-09-01 07:57:22 | 52.76080 | 8.13493 | 353° | 4km/h | 23838m | 4.8m/s | -50.6°C | 0.9% | 31.9hPa | 2.6V | 00:00:00 | 00:00:00 | 00:00:00 | |
| DL1XH-15 | 2026-09-01 07:57:21 | 52.76084 | 8.13493 | 129° | 9km/h | 23796m | 5.9m/s | -50.9°C | 3.7% | 32.1hPa | 2.6V | 08:30:00 | 01:19:39 | 00:00:00 | |
| AA1-15 | 2026-09-01 07:57:21 | 52.76079 | 8.13495 | 224° | 4km/h | 23825m | 6.1m/s | -50.6°C | 0.3% | 31.9hPa | 2.6V | 18:12:15 | 01:19:44 | 00:00:00 | |
| Es werden nur die letzten 3500 von 6833 Frames angezeigt. GPX/KML und Diagramme bleiben verfügbar. | |||||||||||||||